<?xml version="1.0" encoding="UTF-8" standalone="no" ?>
<gpx xmlns="http://www.topografix.com/GPX/1/1" xmlns:xsi="http://www.w3.org/2001/XMLSchema-instance" xsi:schemaLocation="http://www.topografix.com/GPX/1/1 http://www.topografix.com/GPX/1/1/gpx.xsd" version="1.1" creator="VisuGPX - https://www.visugpx.com">
  <metadata>
    <name>munster</name>
  </metadata>
  <trk>
    <name><![CDATA[Munster houblonné.., - Vélo - Strava by traXappSt app]]></name>
    <extensions>
      <line xmlns="http://www.topografix.com/GPX/gpx_style/0/2">
        <color>0000FF</color>
        <width>4</width>
      </line>
    </extensions>
    <trkseg>
      <trkpt lat="48.0388" lon="7.13401">
        <ele>383.7</ele>
        <time>2023-08-12T09:49:36Z</time>
      </trkpt>
      <trkpt lat="48.03879" lon="7.13402">
        <ele>383.7</ele>
        <time>2023-08-12T09:49:37Z</time>
      </trkpt>
      <trkpt lat="48.03877" lon="7.13402">
        <ele>383.7</ele>
        <time>2023-08-12T09:49:38Z</time>
      </trkpt>
      <trkpt lat="48.03874" lon="7.13398">
        <ele>383.7</ele>
        <time>2023-08-12T09:49:40Z</time>
      </trkpt>
      <trkpt lat="48.03872" lon="7.1339">
        <ele>383.8</ele>
        <time>2023-08-12T09:49:43Z</time>
      </trkpt>
      <trkpt lat="48.03871" lon="7.13387">
        <ele>383.8</ele>
        <time>2023-08-12T09:49:44Z</time>
      </trkpt>
      <trkpt lat="48.03871" lon="7.1338">
        <ele>383.8</ele>
        <time>2023-08-12T09:49:46Z</time>
      </trkpt>
      <trkpt lat="48.03866" lon="7.13347">
        <ele>384</ele>
        <time>2023-08-12T09:49:54Z</time>
      </trkpt>
      <trkpt lat="48.03865" lon="7.13329">
        <ele>384.1</ele>
        <time>2023-08-12T09:49:58Z</time>
      </trkpt>
      <trkpt lat="48.03864" lon="7.13309">
        <ele>384.3</ele>
        <time>2023-08-12T09:50:02Z</time>
      </trkpt>
      <trkpt lat="48.03863" lon="7.13295">
        <ele>384.4</ele>
        <time>2023-08-12T09:50:05Z</time>
      </trkpt>
      <trkpt lat="48.03862" lon="7.13287">
        <ele>384.5</ele>
        <time>2023-08-12T09:50:07Z</time>
      </trkpt>
      <trkpt lat="48.03862" lon="7.13284">
        <ele>384.5</ele>
        <time>2023-08-12T09:50:08Z</time>
      </trkpt>
      <trkpt lat="48.03863" lon="7.13275">
        <ele>384.6</ele>
        <time>2023-08-12T09:50:10Z</time>
      </trkpt>
      <trkpt lat="48.03863" lon="7.13271">
        <ele>384.8</ele>
        <time>2023-08-12T09:50:11Z</time>
      </trkpt>
      <trkpt lat="48.03862" lon="7.13266">
        <ele>384.9</ele>
        <time>2023-08-12T09:50:12Z</time>
      </trkpt>
      <trkpt lat="48.03862" lon="7.13262">
        <ele>385</ele>
        <time>2023-08-12T09:50:13Z</time>
      </trkpt>
      <trkpt lat="48.03864" lon="7.1326">
        <ele>385</ele>
        <time>2023-08-12T09:50:14Z</time>
      </trkpt>
      <trkpt lat="48.03882" lon="7.1326">
        <ele>385.6</ele>
        <time>2023-08-12T09:50:20Z</time>
      </trkpt>
      <trkpt lat="48.03896" lon="7.13257">
        <ele>385.9</ele>
        <time>2023-08-12T09:50:25Z</time>
      </trkpt>
      <trkpt lat="48.03898" lon="7.13255">
        <ele>385.9</ele>
        <time>2023-08-12T09:50:26Z</time>
      </trkpt>
      <trkpt lat="48.03899" lon="7.13251">
        <ele>385.8</ele>
        <time>2023-08-12T09:50:27Z</time>
      </trkpt>
      <trkpt lat="48.039" lon="7.13246">
        <ele>385.8</ele>
        <time>2023-08-12T09:50:28Z</time>
      </trkpt>
      <trkpt lat="48.039" lon="7.13242">
        <ele>385.8</ele>
        <time>2023-08-12T09:50:29Z</time>
      </trkpt>
      <trkpt lat="48.03901" lon="7.13237">
        <ele>385.8</ele>
        <time>2023-08-12T09:50:30Z</time>
      </trkpt>
      <trkpt lat="48.03901" lon="7.13233">
        <ele>385.8</ele>
        <time>2023-08-12T09:50:31Z</time>
      </trkpt>
      <trkpt lat="48.03901" lon="7.13224">
        <ele>385.8</ele>
        <time>2023-08-12T09:50:33Z</time>
      </trkpt>
      <trkpt lat="48.03899" lon="7.13177">
        <ele>386.2</ele>
        <time>2023-08-12T09:50:43Z</time>
      </trkpt>
      <trkpt lat="48.03899" lon="7.13173">
        <ele>386.3</ele>
        <time>2023-08-12T09:50:44Z</time>
      </trkpt>
      <trkpt lat="48.03897" lon="7.13133">
        <ele>386.8</ele>
        <time>2023-08-12T09:50:52Z</time>
      </trkpt>
      <trkpt lat="48.03897" lon="7.13128">
        <ele>386.8</ele>
        <time>2023-08-12T09:50:53Z</time>
      </trkpt>
      <trkpt lat="48.03896" lon="7.13089">
        <ele>387.3</ele>
        <time>2023-08-12T09:51:01Z</time>
      </trkpt>
      <trkpt lat="48.03895" lon="7.13073">
        <ele>387.5</ele>
        <time>2023-08-12T09:51:04Z</time>
      </trkpt>
      <trkpt lat="48.03894" lon="7.13058">
        <ele>387.7</ele>
        <time>2023-08-12T09:51:07Z</time>
      </trkpt>
      <trkpt lat="48.03894" lon="7.13039">
        <ele>387.9</ele>
        <time>2023-08-12T09:51:11Z</time>
      </trkpt>
      <trkpt lat="48.03893" lon="7.13023">
        <ele>388.1</ele>
        <time>2023-08-12T09:51:14Z</time>
      </trkpt>
      <trkpt lat="48.03891" lon="7.12981">
        <ele>388.6</ele>
        <time>2023-08-12T09:51:22Z</time>
      </trkpt>
      <trkpt lat="48.03891" lon="7.12975">
        <ele>388.7</ele>
        <time>2023-08-12T09:51:23Z</time>
      </trkpt>
      <trkpt lat="48.03889" lon="7.12943">
        <ele>389.2</ele>
        <time>2023-08-12T09:51:29Z</time>
      </trkpt>
      <trkpt lat="48.03887" lon="7.129">
        <ele>389.9</ele>
        <time>2023-08-12T09:51:37Z</time>
      </trkpt>
      <trkpt lat="48.03886" lon="7.12882">
        <ele>390.2</ele>
        <time>2023-08-12T09:51:41Z</time>
      </trkpt>
      <trkpt lat="48.03885" lon="7.1285">
        <ele>390.8</ele>
        <time>2023-08-12T09:51:47Z</time>
      </trkpt>
      <trkpt lat="48.03885" lon="7.12844">
        <ele>390.9</ele>
        <time>2023-08-12T09:51:48Z</time>
      </trkpt>
      <trkpt lat="48.03885" lon="7.12828">
        <ele>391.1</ele>
        <time>2023-08-12T09:51:51Z</time>
      </trkpt>
      <trkpt lat="48.03884" lon="7.12806">
        <ele>391.5</ele>
        <time>2023-08-12T09:51:55Z</time>
      </trkpt>
      <trkpt lat="48.03883" lon="7.12756">
        <ele>392.5</ele>
        <time>2023-08-12T09:52:04Z</time>
      </trkpt>
      <trkpt lat="48.03882" lon="7.12745">
        <ele>392.7</ele>
        <time>2023-08-12T09:52:06Z</time>
      </trkpt>
      <trkpt lat="48.03882" lon="7.1274">
        <ele>392.8</ele>
        <time>2023-08-12T09:52:07Z</time>
      </trkpt>
      <trkpt lat="48.03881" lon="7.12735">
        <ele>392.8</ele>
        <time>2023-08-12T09:52:08Z</time>
      </trkpt>
      <trkpt lat="48.03881" lon="7.12714">
        <ele>393.2</ele>
        <time>2023-08-12T09:52:12Z</time>
      </trkpt>
      <trkpt lat="48.0388" lon="7.12692">
        <ele>393.8</ele>
        <time>2023-08-12T09:52:16Z</time>
      </trkpt>
      <trkpt lat="48.03881" lon="7.12687">
        <ele>394</ele>
        <time>2023-08-12T09:52:17Z</time>
      </trkpt>
      <trkpt lat="48.0388" lon="7.12681">
        <ele>394.1</ele>
        <time>2023-08-12T09:52:18Z</time>
      </trkpt>
      <trkpt lat="48.0388" lon="7.12676">
        <ele>394.3</ele>
        <time>2023-08-12T09:52:19Z</time>
      </trkpt>
      <trkpt lat="48.03881" lon="7.12671">
        <ele>394.5</ele>
        <time>2023-08-12T09:52:20Z</time>
      </trkpt>
      <trkpt lat="48.03882" lon="7.12667">
        <ele>394.6</ele>
        <time>2023-08-12T09:52:21Z</time>
      </trkpt>
      <trkpt lat="48.03884" lon="7.12665">
        <ele>394.9</ele>
        <time>2023-08-12T09:52:22Z</time>
      </trkpt>
      <trkpt lat="48.03887" lon="7.12666">
        <ele>395.3</ele>
        <time>2023-08-12T09:52:23Z</time>
      </trkpt>
      <trkpt lat="48.0389" lon="7.12669">
        <ele>396.6</ele>
        <time>2023-08-12T09:52:24Z</time>
      </trkpt>
      <trkpt lat="48.03898" lon="7.12684">
        <ele>396.5</ele>
        <time>2023-08-12T09:52:27Z</time>
      </trkpt>
      <trkpt lat="48.039" lon="7.1269">
        <ele>396.4</ele>
        <time>2023-08-12T09:52:28Z</time>
      </trkpt>
      <trkpt lat="48.03905" lon="7.127">
        <ele>396.4</ele>
        <time>2023-08-12T09:52:30Z</time>
      </trkpt>
      <trkpt lat="48.0392" lon="7.12727">
        <ele>396.2</ele>
        <time>2023-08-12T09:52:35Z</time>
      </trkpt>
      <trkpt lat="48.03935" lon="7.1276">
        <ele>396.2</ele>
        <time>2023-08-12T09:52:41Z</time>
      </trkpt>
      <trkpt lat="48.03938" lon="7.12766">
        <ele>396.2</ele>
        <time>2023-08-12T09:52:42Z</time>
      </trkpt>
      <trkpt lat="48.0394" lon="7.12772">
        <ele>396.2</ele>
        <time>2023-08-12T09:52:43Z</time>
      </trkpt>
      <trkpt lat="48.03942" lon="7.12777">
        <ele>396.2</ele>
        <time>2023-08-12T09:52:44Z</time>
      </trkpt>
      <trkpt lat="48.03945" lon="7.12783">
        <ele>396.2</ele>
        <time>2023-08-12T09:52:45Z</time>
      </trkpt>
      <trkpt lat="48.03947" lon="7.12789">
        <ele>396.3</ele>
        <time>2023-08-12T09:52:46Z</time>
      </trkpt>
      <trkpt lat="48.03949" lon="7.12795">
        <ele>396.3</ele>
        <time>2023-08-12T09:52:47Z</time>
      </trkpt>
      <trkpt lat="48.03951" lon="7.128">
        <ele>396.3</ele>
        <time>2023-08-12T09:52:48Z</time>
      </trkpt>
      <trkpt lat="48.03957" lon="7.12818">
        <ele>396.3</ele>
        <time>2023-08-12T09:52:51Z</time>
      </trkpt>
      <trkpt lat="48.03966" lon="7.12848">
        <ele>396.3</ele>
        <time>2023-08-12T09:52:56Z</time>
      </trkpt>
      <trkpt lat="48.03968" lon="7.12854">
        <ele>396.3</ele>
        <time>2023-08-12T09:52:57Z</time>
      </trkpt>
      <trkpt lat="48.0397" lon="7.12865">
        <ele>396.3</ele>
        <time>2023-08-12T09:52:59Z</time>
      </trkpt>
      <trkpt lat="48.03972" lon="7.12873">
        <ele>396.3</ele>
        <time>2023-08-12T09:53:00Z</time>
      </trkpt>
      <trkpt lat="48.03979" lon="7.12876">
        <ele>396.6</ele>
        <time>2023-08-12T09:53:02Z</time>
      </trkpt>
      <trkpt lat="48.03984" lon="7.12873">
        <ele>396.6</ele>
        <time>2023-08-12T09:53:03Z</time>
      </trkpt>
      <trkpt lat="48.03991" lon="7.1287">
        <ele>396.7</ele>
        <time>2023-08-12T09:53:05Z</time>
      </trkpt>
      <trkpt lat="48.03994" lon="7.12872">
        <ele>397.2</ele>
        <time>2023-08-12T09:53:06Z</time>
      </trkpt>
      <trkpt lat="48.03995" lon="7.12875">
        <ele>397.3</ele>
        <time>2023-08-12T09:53:07Z</time>
      </trkpt>
      <trkpt lat="48.03996" lon="7.12878">
        <ele>397.4</ele>
        <time>2023-08-12T09:53:08Z</time>
      </trkpt>
      <trkpt lat="48.03996" lon="7.12882">
        <ele>397.5</ele>
        <time>2023-08-12T09:53:09Z</time>
      </trkpt>
      <trkpt lat="48.03997" lon="7.12887">
        <ele>397.6</ele>
        <time>2023-08-12T09:53:10Z</time>
      </trkpt>
      <trkpt lat="48.03998" lon="7.1289">
        <ele>397.7</ele>
        <time>2023-08-12T09:53:11Z</time>
      </trkpt>
      <trkpt lat="48.03999" lon="7.12893">
        <ele>397.8</ele>
        <time>2023-08-12T09:53:12Z</time>
      </trkpt>
      <trkpt lat="48.04" lon="7.12897">
        <ele>397.9</ele>
        <time>2023-08-12T09:53:13Z</time>
      </trkpt>
      <trkpt lat="48.04001" lon="7.12902">
        <ele>398.1</ele>
        <time>2023-08-12T09:53:14Z</time>
      </trkpt>
      <trkpt lat="48.04001" lon="7.12906">
        <ele>398.2</ele>
        <time>2023-08-12T09:53:15Z</time>
      </trkpt>
      <trkpt lat="48.04002" lon="7.12909">
        <ele>398.3</ele>
        <time>2023-08-12T09:53:16Z</time>
      </trkpt>
      <trkpt lat="48.04002" lon="7.12912">
        <ele>398.4</ele>
        <time>2023-08-12T09:53:17Z</time>
      </trkpt>
      <trkpt lat="48.04003" lon="7.12916">
        <ele>398.5</ele>
        <time>2023-08-12T09:53:18Z</time>
      </trkpt>
      <trkpt lat="48.04004" lon="7.1292">
        <ele>398.6</ele>
        <time>2023-08-12T09:53:19Z</time>
      </trkpt>
      <trkpt lat="48.04007" lon="7.12928">
        <ele>398.9</ele>
        <time>2023-08-12T09:53:22Z</time>
      </trkpt>
      <trkpt lat="48.04008" lon="7.12931">
        <ele>399</ele>
        <time>2023-08-12T09:53:23Z</time>
      </trkpt>
      <trkpt lat="48.04012" lon="7.1294">
        <ele>399.4</ele>
        <time>2023-08-12T09:53:25Z</time>
      </trkpt>
      <trkpt lat="48.04016" lon="7.12947">
        <ele>399.6</ele>
        <time>2023-08-12T09:53:27Z</time>
      </trkpt>
      <trkpt lat="48.04017" lon="7.1295">
        <ele>399.7</ele>
        <time>2023-08-12T09:53:28Z</time>
      </trkpt>
      <trkpt lat="48.04019" lon="7.12954">
        <ele>399.8</ele>
        <time>2023-08-12T09:53:29Z</time>
      </trkpt>
      <trkpt lat="48.04021" lon="7.12958">
        <ele>400</ele>
        <time>2023-08-12T09:53:30Z</time>
      </trkpt>
      <trkpt lat="48.04023" lon="7.12962">
        <ele>400.1</ele>
        <time>2023-08-12T09:53:31Z</time>
      </trkpt>
      <trkpt lat="48.04025" lon="7.12965">
        <ele>400.2</ele>
        <time>2023-08-12T09:53:32Z</time>
      </trkpt>
      <trkpt lat="48.04027" lon="7.12968">
        <ele>400.3</ele>
        <time>2023-08-12T09:53:33Z</time>
      </trkpt>
      <trkpt lat="48.04029" lon="7.12971">
        <ele>400.4</ele>
        <time>2023-08-12T09:53:34Z</time>
      </trkpt>
      <trkpt lat="48.04031" lon="7.12974">
        <ele>400.5</ele>
        <time>2023-08-12T09:53:35Z</time>
      </trkpt>
      <trkpt lat="48.04034" lon="7.12977">
        <ele>400.5</ele>
        <time>2023-08-12T09:53:36Z</time>
      </trkpt>
      <trkpt lat="48.04036" lon="7.1298">
        <ele>400.6</ele>
        <time>2023-08-12T09:53:37Z</time>
      </trkpt>
      <trkpt lat="48.04039" lon="7.12982">
        <ele>400.7</ele>
        <time>2023-08-12T09:53:38Z</time>
      </trkpt>
      <trkpt lat="48.04042" lon="7.12985">
        <ele>400.8</ele>
        <time>2023-08-12T09:53:39Z</time>
      </trkpt>
      <trkpt lat="48.04045" lon="7.12986">
        <ele>400.9</ele>
        <time>2023-08-12T09:53:40Z</time>
      </trkpt>
      <trkpt lat="48.04047" lon="7.12987">
        <ele>400.9</ele>
        <time>2023-08-12T09:53:41Z</time>
      </trkpt>
      <trkpt lat="48.04051" lon="7.12989">
        <ele>400.9</ele>
        <time>2023-08-12T09:53:42Z</time>
      </trkpt>
      <trkpt lat="48.04054" lon="7.12989">
        <ele>401</ele>
        <time>2023-08-12T09:53:43Z</time>
      </trkpt>
      <trkpt lat="48.04057" lon="7.1299">
        <ele>401</ele>
        <time>2023-08-12T09:53:44Z</time>
      </trkpt>
      <trkpt lat="48.04061" lon="7.1299">
        <ele>401</ele>
        <time>2023-08-12T09:53:45Z</time>
      </trkpt>
      <trkpt lat="48.04065" lon="7.1299">
        <ele>400.9</ele>
        <time>2023-08-12T09:53:46Z</time>
      </trkpt>
      <trkpt lat="48.04068" lon="7.12988">
        <ele>400.9</ele>
        <time>2023-08-12T09:53:47Z</time>
      </trkpt>
      <trkpt lat="48.04071" lon="7.12987">
        <ele>400.8</ele>
        <time>2023-08-12T09:53:48Z</time>
      </trkpt>
      <trkpt lat="48.04075" lon="7.12984">
        <ele>400.8</ele>
        <time>2023-08-12T09:53:49Z</time>
      </trkpt>
      <trkpt lat="48.04079" lon="7.1298">
        <ele>400.7</ele>
        <time>2023-08-12T09:53:50Z</time>
      </trkpt>
      <trkpt lat="48.04095" lon="7.12966">
        <ele>400.4</ele>
        <time>2023-08-12T09:53:54Z</time>
      </trkpt>
      <trkpt lat="48.04098" lon="7.12963">
        <ele>400.3</ele>
        <time>2023-08-12T09:53:55Z</time>
      </trkpt>
      <trkpt lat="48.04102" lon="7.12961">
        <ele>400.3</ele>
        <time>2023-08-12T09:53:56Z</time>
      </trkpt>
      <trkpt lat="48.04105" lon="7.1296">
        <ele>400.3</ele>
        <time>2023-08-12T09:53:57Z</time>
      </trkpt>
      <trkpt lat="48.04108" lon="7.12959">
        <ele>400.2</ele>
        <time>2023-08-12T09:53:58Z</time>
      </trkpt>
      <trkpt lat="48.04111" lon="7.12956">
        <ele>400.2</ele>
        <time>2023-08-12T09:53:59Z</time>
      </trkpt>
      <trkpt lat="48.04112" lon="7.12952">
        <ele>400.2</ele>
        <time>2023-08-12T09:54:00Z</time>
      </trkpt>
      <trkpt lat="48.04111" lon="7.12947">
        <ele>400.4</ele>
        <time>2023-08-12T09:54:01Z</time>
      </trkpt>
      <trkpt lat="48.0411" lon="7.12943">
        <ele>400.5</ele>
        <time>2023-08-12T09:54:02Z</time>
      </trkpt>
      <trkpt lat="48.0411" lon="7.12939">
        <ele>400.7</ele>
        <time>2023-08-12T09:54:03Z</time>
      </trkpt>
      <trkpt lat="48.04109" lon="7.12935">
        <ele>400.8</ele>
        <time>2023-08-12T09:54:04Z</time>
      </trkpt>
      <trkpt lat="48.04109" lon="7.12931">
        <ele>400.9</ele>
        <time>2023-08-12T09:54:05Z</time>
      </trkpt>
      <trkpt lat="48.04108" lon="7.12927">
        <ele>401.1</ele>
        <time>2023-08-12T09:54:06Z</time>
      </trkpt>
      <trkpt lat="48.04108" lon="7.12923">
        <ele>401.2</ele>
        <time>2023-08-12T09:54:07Z</time>
      </trkpt>
      <trkpt lat="48.04107" lon="7.12919">
        <ele>401.4</ele>
        <time>2023-08-12T09:54:08Z</time>
      </trkpt>
      <trkpt lat="48.04107" lon="7.12914">
        <ele>401.6</ele>
        <time>2023-08-12T09:54:09Z</time>
      </trkpt>
      <trkpt lat="48.04107" lon="7.1291">
        <ele>401.7</ele>
        <time>2023-08-12T09:54:10Z</time>
      </trkpt>
      <trkpt lat="48.04107" lon="7.12906">
        <ele>401.9</ele>
        <time>2023-08-12T09:54:11Z</time>
      </trkpt>
      <trkpt lat="48.04106" lon="7.12902">
        <ele>402.1</ele>
        <time>2023-08-12T09:54:12Z</time>
      </trkpt>
      <trkpt lat="48.04106" lon="7.12898">
        <ele>402.3</ele>
        <time>2023-08-12T09:54:13Z</time>
      </trkpt>
      <trkpt lat="48.04105" lon="7.12894">
        <ele>402.4</ele>
        <time>2023-08-12T09:54:14Z</time>
      </trkpt>
      <trkpt lat="48.04106" lon="7.12891">
        <ele>402.6</ele>
        <time>2023-08-12T09:54:15Z</time>
      </trkpt>
      <trkpt lat="48.04107" lon="7.12888">
        <ele>402.8</ele>
        <time>2023-08-12T09:54:16Z</time>
      </trkpt>
      <trkpt lat="48.04107" lon="7.12885">
        <ele>402.9</ele>
        <time>2023-08-12T09:54:17Z</time>
      </trkpt>
      <trkpt lat="48.04108" lon="7.12881">
        <ele>403.1</ele>
        <time>2023-08-12T09:54:18Z</time>
      </trkpt>
      <trkpt lat="48.04109" lon="7.12878">
        <ele>403.2</ele>
        <time>2023-08-12T09:54:19Z</time>
      </trkpt>
      <trkpt lat="48.04109" lon="7.12874">
        <ele>403.4</ele>
        <time>2023-08-12T09:54:20Z</time>
      </trkpt>
      <trkpt lat="48.0411" lon="7.12871">
        <ele>403.6</ele>
        <time>2023-08-12T09:54:21Z</time>
      </trkpt>
      <trkpt lat="48.0411" lon="7.12868">
        <ele>403.7</ele>
        <time>2023-08-12T09:54:22Z</time>
      </trkpt>
      <trkpt lat="48.04111" lon="7.12865">
        <ele>403.9</ele>
        <time>2023-08-12T09:54:23Z</time>
      </trkpt>
      <trkpt lat="48.04111" lon="7.12862">
        <ele>404</ele>
        <time>2023-08-12T09:54:24Z</time>
      </trkpt>
      <trkpt lat="48.04111" lon="7.12858">
        <ele>404.2</ele>
        <time>2023-08-12T09:54:25Z</time>
      </trkpt>
      <trkpt lat="48.04111" lon="7.12855">
        <ele>404.3</ele>
        <time>2023-08-12T09:54:26Z</time>
      </trkpt>
      <trkpt lat="48.04111" lon="7.12851">
        <ele>404.5</ele>
        <time>2023-08-12T09:54:27Z</time>
      </trkpt>
      <trkpt lat="48.04112" lon="7.12848">
        <ele>404.7</ele>
        <time>2023-08-12T09:54:28Z</time>
      </trkpt>
      <trkpt lat="48.04112" lon="7.12844">
        <ele>404.8</ele>
        <time>2023-08-12T09:54:29Z</time>
      </trkpt>
      <trkpt lat="48.04112" lon="7.12841">
        <ele>405</ele>
        <time>2023-08-12T09:54:30Z</time>
      </trkpt>
      <trkpt lat="48.04113" lon="7.12838">
        <ele>405.1</ele>
        <time>2023-08-12T09:54:31Z</time>
      </trkpt>
      <trkpt lat="48.04114" lon="7.12835">
        <ele>405.2</ele>
        <time>2023-08-12T09:54:32Z</time>
      </trkpt>
      <trkpt lat="48.04114" lon="7.12832">
        <ele>405.3</ele>
        <time>2023-08-12T09:54:33Z</time>
      </trkpt>
      <trkpt lat="48.04114" lon="7.12828">
        <ele>405.5</ele>
        <time>2023-08-12T09:54:34Z</time>
      </trkpt>
      <trkpt lat="48.04114" lon="7.12824">
        <ele>405.6</ele>
        <time>2023-08-12T09:54:35Z</time>
      </trkpt>
      <trkpt lat="48.04114" lon="7.12821">
        <ele>405.8</ele>
        <time>2023-08-12T09:54:36Z</time>
      </trkpt>
      <trkpt lat="48.04114" lon="7.12817">
        <ele>405.9</ele>
        <time>2023-08-12T09:54:37Z</time>
      </trkpt>
      <trkpt lat="48.04114" lon="7.12814">
        <ele>406</ele>
        <time>2023-08-12T09:54:38Z</time>
      </trkpt>
      <trkpt lat="48.04114" lon="7.1281">
        <ele>406.2</ele>
        <time>2023-08-12T09:54:39Z</time>
      </trkpt>
      <trkpt lat="48.04114" lon="7.12807">
        <ele>406.3</ele>
        <time>2023-08-12T09:54:40Z</time>
      </trkpt>
      <trkpt lat="48.04114" lon="7.12804">
        <ele>406.5</ele>
        <time>2023-08-12T09:54:41Z</time>
      </trkpt>
      <trkpt lat="48.04113" lon="7.12801">
        <ele>406.6</ele>
        <time>2023-08-12T09:54:42Z</time>
      </trkpt>
      <trkpt lat="48.04113" lon="7.12797">
        <ele>406.9</ele>
        <time>2023-08-12T09:54:43Z</time>
      </trkpt>
      <trkpt lat="48.04112" lon="7.12794">
        <ele>407.2</ele>
        <time>2023-08-12T09:54:44Z</time>
      </trkpt>
      <trkpt lat="48.04112" lon="7.1279">
        <ele>407.4</ele>
        <time>2023-08-12T09:54:45Z</time>
      </trkpt>
      <trkpt lat="48.04112" lon="7.12788">
        <ele>407.6</ele>
        <time>2023-08-12T09:54:46Z</time>
      </trkpt>
      <trkpt lat="48.04111" lon="7.12784">
        <ele>407.9</ele>
        <time>2023-08-12T09:54:47Z</time>
      </trkpt>
      <trkpt lat="48.04111" lon="7.12781">
        <ele>408.1</ele>
        <time>2023-08-12T09:54:48Z</time>
      </trkpt>
      <trkpt lat="48.0411" lon="7.12778">
        <ele>408.4</ele>
        <time>2023-08-12T09:54:49Z</time>
      </trkpt>
      <trkpt lat="48.0411" lon="7.12775">
        <ele>408.6</ele>
        <time>2023-08-12T09:54:50Z</time>
      </trkpt>
      <trkpt lat="48.04109" lon="7.12771">
        <ele>408.9</ele>
        <time>2023-08-12T09:54:51Z</time>
      </trkpt>
      <trkpt lat="48.04109" lon="7.12768">
        <ele>409.2</ele>
        <time>2023-08-12T09:54:52Z</time>
      </trkpt>
      <trkpt lat="48.04109" lon="7.12765">
        <ele>409.4</ele>
        <time>2023-08-12T09:54:53Z</time>
      </trkpt>
      <trkpt lat="48.04108" lon="7.12761">
        <ele>409.7</ele>
        <time>2023-08-12T09:54:54Z</time>
      </trkpt>
      <trkpt lat="48.04108" lon="7.12758">
        <ele>410</ele>
        <time>2023-08-12T09:54:55Z</time>
      </trkpt>
      <trkpt lat="48.04107" lon="7.12755">
        <ele>410.1</ele>
        <time>2023-08-12T09:54:56Z</time>
      </trkpt>
      <trkpt lat="48.04107" lon="7.12752">
        <ele>410.3</ele>
        <time>2023-08-12T09:54:57Z</time>
      </trkpt>
      <trkpt lat="48.04106" lon="7.12749">
        <ele>410.4</ele>
        <time>2023-08-12T09:54:58Z</time>
      </trkpt>
      <trkpt lat="48.04106" lon="7.12745">
        <ele>410.5</ele>
        <time>2023-08-12T09:54:59Z</time>
      </trkpt>
      <trkpt lat="48.04106" lon="7.12742">
        <ele>410.7</ele>
        <time>2023-08-12T09:55:00Z</time>
      </trkpt>
      <trkpt lat="48.04105" lon="7.12739">
        <ele>410.8</ele>
        <time>2023-08-12T09:55:01Z</time>
      </trkpt>
      <trkpt lat="48.04105" lon="7.12736">
        <ele>410.9</ele>
        <time>2023-08-12T09:55:02Z</time>
      </trkpt>
      <trkpt lat="48.04105" lon="7.12733">
        <ele>411</ele>
        <time>2023-08-12T09:55:03Z</time>
      </trkpt>
      <trkpt lat="48.04104" lon="7.1273">
        <ele>411.2</ele>
        <time>2023-08-12T09:55:04Z</time>
      </trkpt>
      <trkpt lat="48.04103" lon="7.12726">
        <ele>411.6</ele>
        <time>2023-08-12T09:55:05Z</time>
      </trkpt>
      <trkpt lat="48.04102" lon="7.12723">
        <ele>411.8</ele>
        <time>2023-08-12T09:55:06Z</time>
      </trkpt>
      <trkpt lat="48.04102" lon="7.12719">
        <ele>412.1</ele>
        <time>2023-08-12T09:55:07Z</time>
      </trkpt>
      <trkpt lat="48.04102" lon="7.12716">
        <ele>412.3</ele>
        <time>2023-08-12T09:55:08Z</time>
      </trkpt>
      <trkpt lat="48.04101" lon="7.12713">
        <ele>412.5</ele>
        <time>2023-08-12T09:55:09Z</time>
      </trkpt>
      <trkpt lat="48.04101" lon="7.12711">
        <ele>412.7</ele>
        <time>2023-08-12T09:55:10Z</time>
      </trkpt>
      <trkpt lat="48.04101" lon="7.12708">
        <ele>412.9</ele>
        <time>2023-08-12T09:55:11Z</time>
      </trkpt>
      <trkpt lat="48.04101" lon="7.12704">
        <ele>413.2</ele>
        <time>2023-08-12T09:55:12Z</time>
      </trkpt>
      <trkpt lat="48.04101" lon="7.12701">
        <ele>413.5</ele>
        <time>2023-08-12T09:55:13Z</time>
      </trkpt>
      <trkpt lat="48.041" lon="7.12698">
        <ele>413.7</ele>
        <time>2023-08-12T09:55:14Z</time>
      </trkpt>
      <trkpt lat="48.041" lon="7.12695">
        <ele>413.9</ele>
        <time>2023-08-12T09:55:15Z</time>
      </trkpt>
      <trkpt lat="48.041" lon="7.12693">
        <ele>414.2</ele>
        <time>2023-08-12T09:55:16Z</time>
      </trkpt>
      <trkpt lat="48.041" lon="7.12689">
        <ele>414.4</ele>
        <time>2023-08-12T09:55:17Z</time>
      </trkpt>
      <trkpt lat="48.041" lon="7.12686">
        <ele>414.6</ele>
        <time>2023-08-12T09:55:18Z</time>
      </trkpt>
      <trkpt lat="48.041" lon="7.12682">
        <ele>414.7</ele>
        <time>2023-08-12T09:55:19Z</time>
      </trkpt>
      <trkpt lat="48.041" lon="7.12678">
        <ele>414.8</ele>
        <time>2023-08-12T09:55:20Z</time>
      </trkpt>
      <trkpt lat="48.04101" lon="7.12674">
        <ele>414.9</ele>
        <time>2023-08-12T09:55:21Z</time>
      </trkpt>
      <trkpt lat="48.04101" lon="7.12671">
        <ele>415.1</ele>
        <time>2023-08-12T09:55:22Z</time>
      </trkpt>
      <trkpt lat="48.04102" lon="7.12668">
        <ele>415.3</ele>
        <time>2023-08-12T09:55:23Z</time>
      </trkpt>
      <trkpt lat="48.04104" lon="7.12665">
        <ele>415.6</ele>
        <time>2023-08-12T09:55:24Z</time>
      </trkpt>
      <trkpt lat="48.04105" lon="7.12662">
        <ele>415.9</ele>
        <time>2023-08-12T09:55:25Z</time>
      </trkpt>
      <trkpt lat="48.04106" lon="7.12659">
        <ele>416.1</ele>
        <time>2023-08-12T09:55:26Z</time>
      </trkpt>
      <trkpt lat="48.04108" lon="7.12657">
        <ele>416.4</ele>
        <time>2023-08-12T09:55:27Z</time>
      </trkpt>
      <trkpt lat="48.04109" lon="7.12655">
        <ele>416.6</ele>
        <time>2023-08-12T09:55:28Z</time>
      </trkpt>
      <trkpt lat="48.04111" lon="7.12653">
        <ele>416.8</ele>
        <time>2023-08-12T09:55:29Z</time>
      </trkpt>
      <trkpt lat="48.04112" lon="7.12651">
        <ele>417</ele>
        <time>2023-08-12T09:55:30Z</time>
      </trkpt>
      <trkpt lat="48.04114" lon="7.12649">
        <ele>417.3</ele>
        <time>2023-08-12T09:55:31Z</time>
      </trkpt>
      <trkpt lat="48.04116" lon="7.12647">
        <ele>417.5</ele>
        <time>2023-08-12T09:55:32Z</time>
      </trkpt>
      <trkpt lat="48.04118" lon="7.12645">
        <ele>417.7</ele>
        <time>2023-08-12T09:55:33Z</time>
      </trkpt>
      <trkpt lat="48.0412" lon="7.12644">
        <ele>417.9</ele>
        <time>2023-08-12T09:55:34Z</time>
      </trkpt>
      <trkpt lat="48.04121" lon="7.12642">
        <ele>418.2</ele>
        <time>2023-08-12T09:55:35Z</time>
      </trkpt>
      <trkpt lat="48.04123" lon="7.1264">
        <ele>418.4</ele>
        <time>2023-08-12T09:55:36Z</time>
      </trkpt>
      <trkpt lat="48.04125" lon="7.12638">
        <ele>418.6</ele>
        <time>2023-08-12T09:55:37Z</time>
      </trkpt>
      <trkpt lat="48.04127" lon="7.12635">
        <ele>418.9</ele>
        <time>2023-08-12T09:55:38Z</time>
      </trkpt>
      <trkpt lat="48.04128" lon="7.12634">
        <ele>419.1</ele>
        <time>2023-08-12T09:55:39Z</time>
      </trkpt>
      <trkpt lat="48.0413" lon="7.12632">
        <ele>419.3</ele>
        <time>2023-08-12T09:55:40Z</time>
      </trkpt>
      <trkpt lat="48.04132" lon="7.1263">
        <ele>419.5</ele>
        <time>2023-08-12T09:55:41Z</time>
      </trkpt>
      <trkpt lat="48.04134" lon="7.12628">
        <ele>419.7</ele>
        <time>2023-08-12T09:55:42Z</time>
      </trkpt>
      <trkpt lat="48.04135" lon="7.12626">
        <ele>419.9</ele>
        <time>2023-08-12T09:55:43Z</time>
      </trkpt>
      <trkpt lat="48.04137" lon="7.12623">
        <ele>420.1</ele>
        <time>2023-08-12T09:55:44Z</time>
      </trkpt>
      <trkpt lat="48.04139" lon="7.12621">
        <ele>420.4</ele>
        <time>2023-08-12T09:55:45Z</time>
      </trkpt>
      <trkpt lat="48.0414" lon="7.12618">
        <ele>420.6</ele>
        <time>2023-08-12T09:55:46Z</time>
      </trkpt>
      <trkpt lat="48.04142" lon="7.12615">
        <ele>420.8</ele>
        <time>2023-08-12T09:55:47Z</time>
      </trkpt>
      <trkpt lat="48.04143" lon="7.12611">
        <ele>421</ele>
        <time>2023-08-12T09:55:48Z</time>
      </trkpt>
      <trkpt lat="48.04145" lon="7.12608">
        <ele>421</ele>
        <time>2023-08-12T09:55:49Z</time>
      </trkpt>
      <trkpt lat="48.04146" lon="7.12605">
        <ele>421.1</ele>
        <time>2023-08-12T09:55:50Z</time>
      </trkpt>
      <trkpt lat="48.04147" lon="7.12602">
        <ele>421.2</ele>
        <time>2023-08-12T09:55:51Z</time>
      </trkpt>
      <trkpt lat="48.04149" lon="7.12598">
        <ele>421.4</ele>
        <time>2023-08-12T09:55:52Z</time>
      </trkpt>
      <trkpt lat="48.0415" lon="7.12595">
        <ele>421.6</ele>
        <time>2023-08-12T09:55:53Z</time>
      </trkpt>
      <trkpt lat="48.04151" lon="7.12592">
        <ele>421.7</ele>
        <time>2023-08-12T09:55:54Z</time>
      </trkpt>
      <trkpt lat="48.04151" lon="7.1259">
        <ele>421.8</ele>
        <time>2023-08-12T09:55:55Z</time>
      </trkpt>
      <trkpt lat="48.04153" lon="7.12586">
        <ele>422</ele>
        <time>2023-08-12T09:55:56Z</time>
      </trkpt>
      <trkpt lat="48.04154" lon="7.12583">
        <ele>422.1</ele>
        <time>2023-08-12T09:55:57Z</time>
      </trkpt>
      <trkpt lat="48.04155" lon="7.12579">
        <ele>422.3</ele>
        <time>2023-08-12T09:55:58Z</time>
      </trkpt>
      <trkpt lat="48.04156" lon="7.12576">
        <ele>422.4</ele>
        <time>2023-08-12T09:55:59Z</time>
      </trkpt>
      <trkpt lat="48.04157" lon="7.12573">
        <ele>422.6</ele>
        <time>2023-08-12T09:56:00Z</time>
      </trkpt>
      <trkpt lat="48.04158" lon="7.1257">
        <ele>422.7</ele>
        <time>2023-08-12T09:56:01Z</time>
      </trkpt>
      <trkpt lat="48.04159" lon="7.12567">
        <ele>422.8</ele>
        <time>2023-08-12T09:56:02Z</time>
      </trkpt>
      <trkpt lat="48.04161" lon="7.12564">
        <ele>423</ele>
        <time>2023-08-12T09:56:03Z</time>
      </trkpt>
      <trkpt lat="48.04162" lon="7.1256">
        <ele>423.1</ele>
        <time>2023-08-12T09:56:04Z</time>
      </trkpt>
      <trkpt lat="48.04163" lon="7.12557">
        <ele>423.3</ele>
        <time>2023-08-12T09:56:05Z</time>
      </trkpt>
      <trkpt lat="48.04164" lon="7.12555">
        <ele>423.5</ele>
        <time>2023-08-12T09:56:06Z</time>
      </trkpt>
      <trkpt lat="48.04165" lon="7.12551">
        <ele>423.7</ele>
        <time>2023-08-12T09:56:07Z</time>
      </trkpt>
      <trkpt lat="48.04166" lon="7.12548">
        <ele>423.9</ele>
        <time>2023-08-12T09:56:08Z</time>
      </trkpt>
      <trkpt lat="48.04167" lon="7.12545">
        <ele>424.1</ele>
        <time>2023-08-12T09:56:09Z</time>
      </trkpt>
      <trkpt lat="48.04168" lon="7.12542">
        <ele>424.3</ele>
        <time>2023-08-12T09:56:10Z</time>
      </trkpt>
      <trkpt lat="48.04169" lon="7.12538">
        <ele>424.5</ele>
        <time>2023-08-12T09:56:11Z</time>
      </trkpt>
      <trkpt lat="48.0417" lon="7.12535">
        <ele>424.7</ele>
        <time>2023-08-12T09:56:12Z</time>
      </trkpt>
      <trkpt lat="48.04171" lon="7.12532">
        <ele>424.9</ele>
        <time>2023-08-12T09:56:13Z</time>
      </trkpt>
      <trkpt lat="48.04171" lon="7.12529">
        <ele>425.1</ele>
        <time>2023-08-12T09:56:14Z</time>
      </trkpt>
      <trkpt lat="48.04172" lon="7.12526">
        <ele>425.3</ele>
        <time>2023-08-12T09:56:15Z</time>
      </trkpt>
      <trkpt lat="48.04172" lon="7.12523">
        <ele>425.5</ele>
        <time>2023-08-12T09:56:16Z</time>
      </trkpt>
      <trkpt lat="48.04172" lon="7.1252">
        <ele>425.8</ele>
        <time>2023-08-12T09:56:17Z</time>
      </trkpt>
      <trkpt lat="48.04173" lon="7.12517">
        <ele>426</ele>
        <time>2023-08-12T09:56:18Z</time>
      </trkpt>
      <trkpt lat="48.04173" lon="7.12514">
        <ele>426.2</ele>
        <time>2023-08-12T09:56:19Z</time>
      </trkpt>
      <trkpt lat="48.04174" lon="7.12511">
        <ele>426.4</ele>
        <time>2023-08-12T09:56:20Z</time>
      </trkpt>
      <trkpt lat="48.04175" lon="7.12508">
        <ele>426.6</ele>
        <time>2023-08-12T09:56:21Z</time>
      </trkpt>
      <trkpt lat="48.04175" lon="7.12505">
        <ele>426.8</ele>
        <time>2023-08-12T09:56:22Z</time>
      </trkpt>
      <trkpt lat="48.04175" lon="7.12501">
        <ele>427.1</ele>
        <time>2023-08-12T09:56:23Z</time>
      </trkpt>
      <trkpt lat="48.04176" lon="7.12497">
        <ele>427.3</ele>
        <time>2023-08-12T09:56:24Z</time>
      </trkpt>
      <trkpt lat="48.04176" lon="7.12494">
        <ele>427.5</ele>
        <time>2023-08-12T09:56:25Z</time>
      </trkpt>
      <trkpt lat="48.04176" lon="7.12491">
        <ele>427.7</ele>
        <time>2023-08-12T09:56:26Z</time>
      </trkpt>
      <trkpt lat="48.04177" lon="7.12488">
        <ele>427.9</ele>
        <time>2023-08-12T09:56:27Z</time>
      </trkpt>
      <trkpt lat="48.04178" lon="7.12485">
        <ele>428.2</ele>
        <time>2023-08-12T09:56:28Z</time>
      </trkpt>
      <trkpt lat="48.04178" lon="7.12482">
        <ele>428.4</ele>
        <time>2023-08-12T09:56:29Z</time>
      </trkpt>
      <trkpt lat="48.04179" lon="7.12479">
        <ele>428.6</ele>
        <time>2023-08-12T09:56:30Z</time>
      </trkpt>
      <trkpt lat="48.04179" lon="7.12476">
        <ele>428.7</ele>
        <time>2023-08-12T09:56:31Z</time>
      </trkpt>
      <trkpt lat="48.0418" lon="7.12473">
        <ele>429</ele>
        <time>2023-08-12T09:56:32Z</time>
      </trkpt>
      <trkpt lat="48.04181" lon="7.1247">
        <ele>429.1</ele>
        <time>2023-08-12T09:56:33Z</time>
      </trkpt>
      <trkpt lat="48.04181" lon="7.12466">
        <ele>429.4</ele>
        <time>2023-08-12T09:56:34Z</time>
      </trkpt>
      <trkpt lat="48.04181" lon="7.12463">
        <ele>429.6</ele>
        <time>2023-08-12T09:56:35Z</time>
      </trkpt>
      <trkpt lat="48.04182" lon="7.1246">
        <ele>429.8</ele>
        <time>2023-08-12T09:56:36Z</time>
      </trkpt>
      <trkpt lat="48.04182" lon="7.12458">
        <ele>430</ele>
        <time>2023-08-12T09:56:37Z</time>
      </trkpt>
      <trkpt lat="48.04183" lon="7.12454">
        <ele>430.2</ele>
        <time>2023-08-12T09:56:38Z</time>
      </trkpt>
      <trkpt lat="48.04183" lon="7.12451">
        <ele>430.4</ele>
        <time>2023-08-12T09:56:39Z</time>
      </trkpt>
      <trkpt lat="48.04184" lon="7.12448">
        <ele>430.6</ele>
        <time>2023-08-12T09:56:40Z</time>
      </trkpt>
      <trkpt lat="48.04185" lon="7.12445">
        <ele>430.8</ele>
        <time>2023-08-12T09:56:41Z</time>
      </trkpt>
      <trkpt lat="48.04185" lon="7.12443">
        <ele>430.9</ele>
        <time>2023-08-12T09:56:42Z</time>
      </trkpt>
      <trkpt lat="48.04186" lon="7.1244">
        <ele>431.2</ele>
        <time>2023-08-12T09:56:43Z</time>
      </trkpt>
      <trkpt lat="48.04187" lon="7.12437">
        <ele>431.4</ele>
        <time>2023-08-12T09:56:44Z</time>
      </trkpt>
      <trkpt lat="48.04187" lon="7.12434">
        <ele>431.6</ele>
        <time>2023-08-12T09:56:45Z</time>
      </trkpt>
      <trkpt lat="48.04188" lon="7.12432">
        <ele>431.8</ele>
        <time>2023-08-12T09:56:46Z</time>
      </trkpt>
      <trkpt lat="48.04188" lon="7.12429">
        <ele>432</ele>
        <time>2023-08-12T09:56:47Z</time>
      </trkpt>
      <trkpt lat="48.04189" lon="7.12425">
        <ele>432.2</ele>
        <time>2023-08-12T09:56:48Z</time>
      </trkpt>
      <trkpt lat="48.04189" lon="7.12422">
        <ele>432.4</ele>
        <time>2023-08-12T09:56:49Z</time>
      </trkpt>
      <trkpt lat="48.04189" lon="7.12419">
        <ele>432.6</ele>
        <time>2023-08-12T09:56:50Z</time>
      </trkpt>
      <trkpt lat="48.0419" lon="7.12417">
        <ele>432.8</ele>
        <time>2023-08-12T09:56:51Z</time>
      </trkpt>
      <trkpt lat="48.0419" lon="7.12414">
        <ele>433</ele>
        <time>2023-08-12T09:56:52Z</time>
      </trkpt>
      <trkpt lat="48.04191" lon="7.1241">
        <ele>433.3</ele>
        <time>2023-08-12T09:56:53Z</time>
      </trkpt>
      <trkpt lat="48.04192" lon="7.12407">
        <ele>433.5</ele>
        <time>2023-08-12T09:56:54Z</time>
      </trkpt>
      <trkpt lat="48.04192" lon="7.12404">
        <ele>433.7</ele>
        <time>2023-08-12T09:56:55Z</time>
      </trkpt>
      <trkpt lat="48.04193" lon="7.12401">
        <ele>433.9</ele>
        <time>2023-08-12T09:56:56Z</time>
      </trkpt>
      <trkpt lat="48.04193" lon="7.12397">
        <ele>434.1</ele>
        <time>2023-08-12T09:56:57Z</time>
      </trkpt>
      <trkpt lat="48.04193" lon="7.12394">
        <ele>434.4</ele>
        <time>2023-08-12T09:56:58Z</time>
      </trkpt>
      <trkpt lat="48.04194" lon="7.12392">
        <ele>434.6</ele>
        <time>2023-08-12T09:56:59Z</time>
      </trkpt>
      <trkpt lat="48.04195" lon="7.12389">
        <ele>434.8</ele>
        <time>2023-08-12T09:57:00Z</time>
      </trkpt>
      <trkpt lat="48.04196" lon="7.12385">
        <ele>435.1</ele>
        <time>2023-08-12T09:57:01Z</time>
      </trkpt>
      <trkpt lat="48.04196" lon="7.12382">
        <ele>435.3</ele>
        <time>2023-08-12T09:57:02Z</time>
      </trkpt>
      <trkpt lat="48.04197" lon="7.12379">
        <ele>435.6</ele>
        <time>2023-08-12T09:57:03Z</time>
      </trkpt>
      <trkpt lat="48.04197" lon="7.12376">
        <ele>435.8</ele>
        <time>2023-08-12T09:57:04Z</time>
      </trkpt>
      <trkpt lat="48.04198" lon="7.12374">
        <ele>436</ele>
        <time>2023-08-12T09:57:05Z</time>
      </trkpt>
      <trkpt lat="48.04198" lon="7.1237">
        <ele>436.2</ele>
        <time>2023-08-12T09:57:06Z</time>
      </trkpt>
      <trkpt lat="48.04199" lon="7.12367">
        <ele>436.4</ele>
        <time>2023-08-12T09:57:07Z</time>
      </trkpt>
      <trkpt lat="48.04199" lon="7.12364">
        <ele>436.7</ele>
        <time>2023-08-12T09:57:08Z</time>
      </trkpt>
      <trkpt lat="48.042" lon="7.12361">
        <ele>436.9</ele>
        <time>2023-08-12T09:57:09Z</time>
      </trkpt>
      <trkpt lat="48.042" lon="7.12359">
        <ele>437.1</ele>
        <time>2023-08-12T09:57:10Z</time>
      </trkpt>
      <trkpt lat="48.04201" lon="7.12355">
        <ele>437.4</ele>
        <time>2023-08-12T09:57:11Z</time>
      </trkpt>
      <trkpt lat="48.04202" lon="7.12353">
        <ele>437.6</ele>
        <time>2023-08-12T09:57:12Z</time>
      </trkpt>
      <trkpt lat="48.04202" lon="7.12351">
        <ele>437.7</ele>
        <time>2023-08-12T09:57:13Z</time>
      </trkpt>
      <trkpt lat="48.04203" lon="7.12348">
        <ele>438</ele>
        <time>2023-08-12T09:57:14Z</time>
      </trkpt>
      <trkpt lat="48.04204" lon="7.12346">
        <ele>438.2</ele>
        <time>2023-08-12T09:57:15Z</time>
      </trkpt>
      <trkpt lat="48.04204" lon="7.12342">
        <ele>438.5</ele>
        <time>2023-08-12T09:57:16Z</time>
      </trkpt>
      <trkpt lat="48.04205" lon="7.12338">
        <ele>438.6</ele>
        <time>2023-08-12T09:57:17Z</time>
      </trkpt>
      <trkpt lat="48.04205" lon="7.12335">
        <ele>438.7</ele>
        <time>2023-08-12T09:57:18Z</time>
      </trkpt>
      <trkpt lat="48.04205" lon="7.12333">
        <ele>438.8</ele>
        <time>2023-08-12T09:57:19Z</time>
      </trkpt>
      <trkpt lat="48.04206" lon="7.1233">
        <ele>439</ele>
        <time>2023-08-12T09:57:20Z</time>
      </trkpt>
      <trkpt lat="48.04207" lon="7.12327">
        <ele>439.3</ele>
        <time>2023-08-12T09:57:21Z</time>
      </trkpt>
      <trkpt lat="48.04208" lon="7.12324">
        <ele>439.5</ele>
        <time>2023-08-12T09:57:22Z</time>
      </trkpt>
      <trkpt lat="48.04208" lon="7.12321">
        <ele>439.7</ele>
        <time>2023-08-12T09:57:23Z</time>
      </trkpt>
      <trkpt lat="48.04209" lon="7.12318">
        <ele>439.9</ele>
        <time>2023-08-12T09:57:24Z</time>
      </trkpt>
      <trkpt lat="48.04209" lon="7.12315">
        <ele>440.1</ele>
        <time>2023-08-12T09:57:25Z</time>
      </trkpt>
      <trkpt lat="48.0421" lon="7.12312">
        <ele>440.3</ele>
        <time>2023-08-12T09:57:26Z</time>
      </trkpt>
      <trkpt lat="48.0421" lon="7.12309">
        <ele>440.5</ele>
        <time>2023-08-12T09:57:27Z</time>
      </trkpt>
      <trkpt lat="48.04211" lon="7.12306">
        <ele>440.7</ele>
        <time>2023-08-12T09:57:28Z</time>
      </trkpt>
      <trkpt lat="48.04212" lon="7.12302">
        <ele>441</ele>
        <time>2023-08-12T09:57:29Z</time>
      </trkpt>
      <trkpt lat="48.04212" lon="7.12299">
        <ele>441.2</ele>
        <time>2023-08-12T09:57:30Z</time>
      </trkpt>
      <trkpt lat="48.04212" lon="7.12296">
        <ele>441.3</ele>
        <time>2023-08-12T09:57:31Z</time>
      </trkpt>
      <trkpt lat="48.04212" lon="7.12292">
        <ele>441.4</ele>
        <time>2023-08-12T09:57:32Z</time>
      </trkpt>
      <trkpt lat="48.04212" lon="7.12289">
        <ele>441.5</ele>
        <time>2023-08-12T09:57:33Z</time>
      </trkpt>
      <trkpt lat="48.04212" lon="7.12286">
        <ele>441.6</ele>
        <time>2023-08-12T09:57:34Z</time>
      </trkpt>
      <trkpt lat="48.04212" lon="7.12282">
        <ele>441.7</ele>
        <time>2023-08-12T09:57:35Z</time>
      </trkpt>
      <trkpt lat="48.04212" lon="7.12279">
        <ele>441.8</ele>
        <time>2023-08-12T09:57:36Z</time>
      </trkpt>
      <trkpt lat="48.04212" lon="7.12276">
        <ele>442.1</ele>
        <time>2023-08-12T09:57:37Z</time>
      </trkpt>
      <trkpt lat="48.04212" lon="7.12272">
        <ele>442.3</ele>
        <time>2023-08-12T09:57:38Z</time>
      </trkpt>
      <trkpt lat="48.04212" lon="7.12269">
        <ele>442.5</ele>
        <time>2023-08-12T09:57:39Z</time>
      </trkpt>
      <trkpt lat="48.04212" lon="7.12265">
        <ele>442.7</ele>
        <time>2023-08-12T09:57:40Z</time>
      </trkpt>
      <trkpt lat="48.04212" lon="7.12262">
        <ele>442.9</ele>
        <time>2023-08-12T09:57:41Z</time>
      </trkpt>
      <trkpt lat="48.04211" lon="7.12258">
        <ele>443.2</ele>
        <time>2023-08-12T09:57:42Z</time>
      </trkpt>
      <trkpt lat="48.04211" lon="7.12254">
        <ele>443.4</ele>
        <time>2023-08-12T09:57:43Z</time>
      </trkpt>
      <trkpt lat="48.04211" lon="7.12251">
        <ele>443.6</ele>
        <time>2023-08-12T09:57:44Z</time>
      </trkpt>
      <trkpt lat="48.04211" lon="7.12248">
        <ele>443.8</ele>
        <time>2023-08-12T09:57:45Z</time>
      </trkpt>
      <trkpt lat="48.04211" lon="7.12244">
        <ele>444</ele>
        <time>2023-08-12T09:57:46Z</time>
      </trkpt>
      <trkpt lat="48.04212" lon="7.12241">
        <ele>444.3</ele>
        <time>2023-08-12T09:57:47Z</time>
      </trkpt>
      <trkpt lat="48.04212" lon="7.12237">
        <ele>444.5</ele>
        <time>2023-08-12T09:57:48Z</time>
      </trkpt>
      <trkpt lat="48.04212" lon="7.12234">
        <ele>444.7</ele>
        <time>2023-08-12T09:57:49Z</time>
      </trkpt>
      <trkpt lat="48.04212" lon="7.12231">
        <ele>444.9</ele>
        <time>2023-08-12T09:57:50Z</time>
      </trkpt>
      <trkpt lat="48.04212" lon="7.12228">
        <ele>445.1</ele>
        <time>2023-08-12T09:57:51Z</time>
      </trkpt>
      <trkpt lat="48.04212" lon="7.12225">
        <ele>445.3</ele>
        <time>2023-08-12T09:57:52Z</time>
      </trkpt>
      <trkpt lat="48.04213" lon="7.12221">
        <ele>445.4</ele>
        <time>2023-08-12T09:57:53Z</time>
      </trkpt>
      <trkpt lat="48.04213" lon="7.12218">
        <ele>445.6</ele>
        <time>2023-08-12T09:57:54Z</time>
      </trkpt>
      <trkpt lat="48.04213" lon="7.12215">
        <ele>445.8</ele>
        <time>2023-08-12T09:57:55Z</time>
      </trkpt>
      <trkpt lat="48.04213" lon="7.12212">
        <ele>446</ele>
        <time>2023-08-12T09:57:56Z</time>
      </trkpt>
      <trkpt lat="48.04213" lon="7.12209">
        <ele>446.2</ele>
        <time>2023-08-12T09:57:57Z</time>
      </trkpt>
      <trkpt lat="48.04213" lon="7.12205">
        <ele>446.4</ele>
        <time>2023-08-12T09:57:58Z</time>
      </trkpt>
      <trkpt lat="48.04214" lon="7.12202">
        <ele>446.6</ele>
        <time>2023-08-12T09:57:59Z</time>
      </trkpt>
      <trkpt lat="48.04214" lon="7.12199">
        <ele>446.8</ele>
        <time>2023-08-12T09:58:00Z</time>
      </trkpt>
      <trkpt lat="48.04215" lon="7.12197">
        <ele>447</ele>
        <time>2023-08-12T09:58:01Z</time>
      </trkpt>
      <trkpt lat="48.04216" lon="7.12194">
        <ele>447.2</ele>
        <time>2023-08-12T09:58:02Z</time>
      </trkpt>
      <trkpt lat="48.04217" lon="7.12191">
        <ele>447.4</ele>
        <time>2023-08-12T09:58:03Z</time>
      </trkpt>
      <trkpt lat="48.04217" lon="7.12189">
        <ele>447.5</ele>
        <time>2023-08-12T09:58:04Z</time>
      </trkpt>
      <trkpt lat="48.04218" lon="7.12186">
        <ele>447.7</ele>
        <time>2023-08-12T09:58:05Z</time>
      </trkpt>
      <trkpt lat="48.04219" lon="7.12183">
        <ele>447.9</ele>
        <time>2023-08-12T09:58:06Z</time>
      </trkpt>
      <trkpt lat="48.0422" lon="7.12181">
        <ele>448.1</ele>
        <time>2023-08-12T09:58:07Z</time>
      </trkpt>
      <trkpt lat="48.04221" lon="7.12178">
        <ele>448.2</ele>
        <time>2023-08-12T09:58:08Z</time>
      </trkpt>
      <trkpt lat="48.04222" lon="7.12175">
        <ele>448.4</ele>
        <time>2023-08-12T09:58:09Z</time>
      </trkpt>
      <trkpt lat="48.04223" lon="7.12172">
        <ele>448.5</ele>
        <time>2023-08-12T09:58:10Z</time>
      </trkpt>
      <trkpt lat="48.04224" lon="7.1217">
        <ele>448.7</ele>
        <time>2023-08-12T09:58:11Z</time>
      </trkpt>
      <trkpt lat="48.04225" lon="7.12168">
        <ele>448.9</ele>
        <time>2023-08-12T09:58:12Z</time>
      </trkpt>
      <trkpt lat="48.04226" lon="7.12165">
        <ele>449</ele>
        <time>2023-08-12T09:58:13Z</time>
      </trkpt>
      <trkpt lat="48.04228" lon="7.12163">
        <ele>449.2</ele>
        <time>2023-08-12T09:58:14Z</time>
      </trkpt>
      <trkpt lat="48.0423" lon="7.12161">
        <ele>449.4</ele>
        <time>2023-08-12T09:58:15Z</time>
      </trkpt>
      <trkpt lat="48.04232" lon="7.12159">
        <ele>449.7</ele>
        <time>2023-08-12T09:58:16Z</time>
      </trkpt>
      <trkpt lat="48.04233" lon="7.12158">
        <ele>449.9</ele>
        <time>2023-08-12T09:58:17Z</time>
      </trkpt>
      <trkpt lat="48.04235" lon="7.12156">
        <ele>450.1</ele>
        <time>2023-08-12T09:58:18Z</time>
      </trkpt>
      <trkpt lat="48.04236" lon="7.12154">
        <ele>450.3</ele>
        <time>2023-08-12T09:58:19Z</time>
      </trkpt>
      <trkpt lat="48.04238" lon="7.12153">
        <ele>450.6</ele>
        <time>2023-08-12T09:58:20Z</time>
      </trkpt>
      <trkpt lat="48.0424" lon="7.12151">
        <ele>450.8</ele>
        <time>2023-08-12T09:58:21Z</time>
      </trkpt>
      <trkpt lat="48.04242" lon="7.1215">
        <ele>451</ele>
        <time>2023-08-12T09:58:22Z</time>
      </trkpt>
      <trkpt lat="48.04243" lon="7.12148">
        <ele>451.2</ele>
        <time>2023-08-12T09:58:23Z</time>
      </trkpt>
      <trkpt lat="48.04245" lon="7.12146">
        <ele>451.5</ele>
        <time>2023-08-12T09:58:24Z</time>
      </trkpt>
      <trkpt lat="48.04247" lon="7.12144">
        <ele>451.7</ele>
        <time>2023-08-12T09:58:25Z</time>
      </trkpt>
      <trkpt lat="48.04248" lon="7.12142">
        <ele>451.9</ele>
        <time>2023-08-12T09:58:26Z</time>
      </trkpt>
      <trkpt lat="48.04249" lon="7.1214">
        <ele>452.1</ele>
        <time>2023-08-12T09:58:27Z</time>
      </trkpt>
      <trkpt lat="48.04251" lon="7.12137">
        <ele>452.3</ele>
        <time>2023-08-12T09:58:28Z</time>
      </trkpt>
      <trkpt lat="48.04252" lon="7.12134">
        <ele>452.6</ele>
        <time>2023-08-12T09:58:29Z</time>
      </trkpt>
      <trkpt lat="48.04253" lon="7.12131">
        <ele>452.9</ele>
        <time>2023-08-12T09:58:30Z</time>
      </trkpt>
      <trkpt lat="48.04254" lon="7.12128">
        <ele>453.1</ele>
        <time>2023-08-12T09:58:31Z</time>
      </trkpt>
      <trkpt lat="48.04255" lon="7.12124">
        <ele>453.4</ele>
        <time>2023-08-12T09:58:32Z</time>
      </trkpt>
      <trkpt lat="48.04256" lon="7.12121">
        <ele>453.6</ele>
        <time>2023-08-12T09:58:33Z</time>
      </trkpt>
      <trkpt lat="48.04257" lon="7.12118">
        <ele>453.7</ele>
        <time>2023-08-12T09:58:34Z</time>
      </trkpt>
      <trkpt lat="48.04258" lon="7.12116">
        <ele>453.9</ele>
        <time>2023-08-12T09:58:35Z</time>
      </trkpt>
      <trkpt lat="48.04258" lon="7.12113">
        <ele>454</ele>
        <time>2023-08-12T09:58:36Z</time>
      </trkpt>
      <trkpt lat="48.04259" lon="7.1211">
        <ele>454.2</ele>
        <time>2023-08-12T09:58:37Z</time>
      </trkpt>
      <trkpt lat="48.0426" lon="7.12107">
        <ele>454.4</ele>
        <time>2023-08-12T09:58:38Z</time>
      </trkpt>
      <trkpt lat="48.0426" lon="7.12104">
        <ele>454.5</ele>
        <time>2023-08-12T09:58:39Z</time>
      </trkpt>
      <trkpt lat="48.0426" lon="7.12101">
        <ele>454.6</ele>
        <time>2023-08-12T09:58:40Z</time>
      </trkpt>
      <trkpt lat="48.0426" lon="7.12097">
        <ele>454.7</ele>
        <time>2023-08-12T09:58:41Z</time>
      </trkpt>
      <trkpt lat="48.04261" lon="7.12095">
        <ele>454.8</ele>
        <time>2023-08-12T09:58:42Z</time>
      </trkpt>
      <trkpt lat="48.04261" lon="7.12091">
        <ele>455</ele>
        <time>2023-08-12T09:58:43Z</time>
      </trkpt>
      <trkpt lat="48.04261" lon="7.12088">
        <ele>455.2</ele>
        <time>2023-08-12T09:58:44Z</time>
      </trkpt>
      <trkpt lat="48.04262" lon="7.12085">
        <ele>455.4</ele>
        <time>2023-08-12T09:58:45Z</time>
      </trkpt>
      <trkpt lat="48.04262" lon="7.12082">
        <ele>455.6</ele>
        <time>2023-08-12T09:58:46Z</time>
      </trkpt>
      <trkpt lat="48.04262" lon="7.1208">
        <ele>455.8</ele>
        <time>2023-08-12T09:58:47Z</time>
      </trkpt>
      <trkpt lat="48.04263" lon="7.12076">
        <ele>456.1</ele>
        <time>2023-08-12T09:58:48Z</time>
      </trkpt>
      <trkpt lat="48.04263" lon="7.12073">
        <ele>456.3</ele>
        <time>2023-08-12T09:58:49Z</time>
      </trkpt>
      <trkpt lat="48.04264" lon="7.1207">
        <ele>456.5</ele>
        <time>2023-08-12T09:58:50Z</time>
      </trkpt>
      <trkpt lat="48.04264" lon="7.12067">
        <ele>456.8</ele>
        <time>2023-08-12T09:58:51Z</time>
      </trkpt>
      <trkpt lat="48.04265" lon="7.12064">
        <ele>457</ele>
        <time>2023-08-12T09:58:52Z</time>
      </trkpt>
      <trkpt lat="48.04265" lon="7.12061">
        <ele>457.2</ele>
        <time>2023-08-12T09:58:53Z</time>
      </trkpt>
      <trkpt lat="48.04265" lon="7.12058">
        <ele>457.4</ele>
        <time>2023-08-12T09:58:54Z</time>
      </trkpt>
      <trkpt lat="48.04266" lon="7.12055">
        <ele>457.7</ele>
        <time>2023-08-12T09:58:55Z</time>
      </trkpt>
      <trkpt lat="48.04266" lon="7.12052">
        <ele>457.9</ele>
        <time>2023-08-12T09:58:56Z</time>
      </trkpt>
      <trkpt lat="48.04267" lon="7.12049">
        <ele>458.1</ele>
        <time>2023-08-12T09:58:57Z</time>
      </trkpt>
      <trkpt lat="48.04267" lon="7.12047">
        <ele>458.3</ele>
        <time>2023-08-12T09:58:58Z</time>
      </trkpt>
      <trkpt lat="48.04267" lon="7.12044">
        <ele>458.5</ele>
        <time>2023-08-12T09:58:59Z</time>
      </trkpt>
      <trkpt lat="48.04267" lon="7.1204">
        <ele>458.8</ele>
        <time>2023-08-12T09:59:00Z</time>
      </trkpt>
      <trkpt lat="48.04268" lon="7.12037">
        <ele>459</ele>
        <time>2023-08-12T09:59:01Z</time>
      </trkpt>
      <trkpt lat="48.04268" lon="7.12034">
        <ele>459.2</ele>
        <time>2023-08-12T09:59:02Z</time>
      </trkpt>
      <trkpt lat="48.04269" lon="7.12031">
        <ele>459.4</ele>
        <time>2023-08-12T09:59:03Z</time>
      </trkpt>
      <trkpt lat="48.0427" lon="7.12029">
        <ele>459.5</ele>
        <time>2023-08-12T09:59:04Z</time>
      </trkpt>
      <trkpt lat="48.0427" lon="7.12027">
        <ele>459.7</ele>
        <time>2023-08-12T09:59:05Z</time>
      </trkpt>
      <trkpt lat="48.04271" lon="7.12022">
        <ele>460</ele>
        <time>2023-08-12T09:59:06Z</time>
      </trkpt>
      <trkpt lat="48.04271" lon="7.12019">
        <ele>460.2</ele>
        <time>2023-08-12T09:59:07Z</time>
      </trkpt>
      <trkpt lat="48.04271" lon="7.12015">
        <ele>460.5</ele>
        <time>2023-08-12T09:59:08Z</time>
      </trkpt>
      <trkpt lat="48.04272" lon="7.12012">
        <ele>460.5</ele>
        <time>2023-08-12T09:59:09Z</time>
      </trkpt>
      <trkpt lat="48.04273" lon="7.12009">
        <ele>460.6</ele>
        <time>2023-08-12T09:59:10Z</time>
      </trkpt>
      <trkpt lat="48.04273" lon="7.12005">
        <ele>460.9</ele>
        <time>2023-08-12T09:59:11Z</time>
      </trkpt>
      <trkpt lat="48.04274" lon="7.12002">
        <ele>461.1</ele>
        <time>2023-08-12T09:59:12Z</time>
      </trkpt>
      <trkpt lat="48.04274" lon="7.11999">
        <ele>461.3</ele>
        <time>2023-08-12T09:59:13Z</time>
      </trkpt>
      <trkpt lat="48.04275" lon="7.11996">
        <ele>461.5</ele>
        <time>2023-08-12T09:59:14Z</time>
      </trkpt>
      <trkpt lat="48.04276" lon="7.11993">
        <ele>461.7</ele>
        <time>2023-08-12T09:59:15Z</time>
      </trkpt>
      <trkpt lat="48.04277" lon="7.11991">
        <ele>461.9</ele>
        <time>2023-08-12T09:59:16Z</time>
      </trkpt>
      <trkpt lat="48.04278" lon="7.11988">
        <ele>462.1</ele>
        <time>2023-08-12T09:59:17Z</time>
      </trkpt>
      <trkpt lat="48.0428" lon="7.11986">
        <ele>462.3</ele>
        <time>2023-08-12T09:59:18Z</time>
      </trkpt>
      <trkpt lat="48.0428" lon="7.11984">
        <ele>462.5</ele>
        <time>2023-08-12T09:59:19Z</time>
      </trkpt>
      <trkpt lat="48.04282" lon="7.11982">
        <ele>462.7</ele>
        <time>2023-08-12T09:59:20Z</time>
      </trkpt>
      <trkpt lat="48.04284" lon="7.1198">
        <ele>462.9</ele>
        <time>2023-08-12T09:59:21Z</time>
      </trkpt>
      <trkpt lat="48.04286" lon="7.11978">
        <ele>463.2</ele>
        <time>2023-08-12T09:59:22Z</time>
      </trkpt>
      <trkpt lat="48.04287" lon="7.11976">
        <ele>463.4</ele>
        <time>2023-08-12T09:59:23Z</time>
      </trkpt>
      <trkpt lat="48.04288" lon="7.11974">
        <ele>463.5</ele>
        <time>2023-08-12T09:59:24Z</time>
      </trkpt>
      <trkpt lat="48.0429" lon="7.11972">
        <ele>463.7</ele>
        <time>2023-08-12T09:59:25Z</time>
      </trkpt>
      <trkpt lat="48.04291" lon="7.1197">
        <ele>463.9</ele>
        <time>2023-08-12T09:59:26Z</time>
      </trkpt>
      <trkpt lat="48.04292" lon="7.11968">
        <ele>464.1</ele>
        <time>2023-08-12T09:59:27Z</time>
      </trkpt>
      <trkpt lat="48.04294" lon="7.11965">
        <ele>464.4</ele>
        <time>2023-08-12T09:59:28Z</time>
      </trkpt>
      <trkpt lat="48.04295" lon="7.11962">
        <ele>464.6</ele>
        <time>2023-08-12T09:59:29Z</time>
      </trkpt>
      <trkpt lat="48.04296" lon="7.1196">
        <ele>464.8</ele>
        <time>2023-08-12T09:59:30Z</time>
      </trkpt>
      <trkpt lat="48.04298" lon="7.11957">
        <ele>465</ele>
        <time>2023-08-12T09:59:31Z</time>
      </trkpt>
      <trkpt lat="48.04299" lon="7.11955">
        <ele>465.2</ele>
        <time>2023-08-12T09:59:32Z</time>
      </trkpt>
      <trkpt lat="48.04301" lon="7.11953">
        <ele>465.4</ele>
        <time>2023-08-12T09:59:33Z</time>
      </trkpt>
      <trkpt lat="48.04301" lon="7.1195">
        <ele>465.6</ele>
        <time>2023-08-12T09:59:34Z</time>
      </trkpt>
      <trkpt lat="48.04302" lon="7.11947">
        <ele>465.9</ele>
        <time>2023-08-12T09:59:35Z</time>
      </trkpt>
      <trkpt lat="48.04304" lon="7.11944">
        <ele>466.1</ele>
        <time>2023-08-12T09:59:36Z</time>
      </trkpt>
      <trkpt lat="48.04305" lon="7.11941">
        <ele>466.3</ele>
        <time>2023-08-12T09:59:37Z</time>
      </trkpt>
      <trkpt lat="48.04306" lon="7.11938">
        <ele>466.6</ele>
        <time>2023-08-12T09:59:38Z</time>
      </trkpt>
      <trkpt lat="48.04307" lon="7.11934">
        <ele>466.8</ele>
        <time>2023-08-12T09:59:39Z</time>
      </trkpt>
      <trkpt lat="48.04308" lon="7.11932">
        <ele>467</ele>
        <time>2023-08-12T09:59:40Z</time>
      </trkpt>
      <trkpt lat="48.04309" lon="7.11928">
        <ele>467.3</ele>
        <time>2023-08-12T09:59:41Z</time>
      </trkpt>
      <trkpt lat="48.0431" lon="7.11926">
        <ele>467.5</ele>
        <time>2023-08-12T09:59:42Z</time>
      </trkpt>
      <trkpt lat="48.04311" lon="7.11923">
        <ele>467.7</ele>
        <time>2023-08-12T09:59:43Z</time>
      </trkpt>
      <trkpt lat="48.04311" lon="7.1192">
        <ele>467.9</ele>
        <time>2023-08-12T09:59:44Z</time>
      </trkpt>
      <trkpt lat="48.04311" lon="7.11917">
        <ele>468.1</ele>
        <time>2023-08-12T09:59:45Z</time>
      </trkpt>
      <trkpt lat="48.04312" lon="7.11914">
        <ele>468.3</ele>
        <time>2023-08-12T09:59:46Z</time>
      </trkpt>
      <trkpt lat="48.04312" lon="7.1191">
        <ele>468.6</ele>
        <time>2023-08-12T09:59:47Z</time>
      </trkpt>
      <trkpt lat="48.04313" lon="7.11907">
        <ele>468.8</ele>
        <time>2023-08-12T09:59:48Z</time>
      </trkpt>
      <trkpt lat="48.04313" lon="7.11904">
        <ele>469</ele>
        <time>2023-08-12T09:59:49Z</time>
      </trkpt>
      <trkpt lat="48.04313" lon="7.11901">
        <ele>469.3</ele>
        <time>2023-08-12T09:59:50Z</time>
      </trkpt>
      <trkpt lat="48.04314" lon="7.11897">
        <ele>469.5</ele>
        <time>2023-08-12T09:59:51Z</time>
      </trkpt>
      <trkpt lat="48.04314" lon="7.11895">
        <ele>469.7</ele>
        <time>2023-08-12T09:59:52Z</time>
      </trkpt>
      <trkpt lat="48.04315" lon="7.11892">
        <ele>469.9</ele>
        <time>2023-08-12T09:59:53Z</time>
      </trkpt>
      <trkpt lat="48.04316" lon="7.11889">
        <ele>470.1</ele>
        <time>2023-08-12T09:59:54Z</time>
      </trkpt>
      <trkpt lat="48.04317" lon="7.11886">
        <ele>470.4</ele>
        <time>2023-08-12T09:59:55Z</time>
      </trkpt>
      <trkpt lat="48.04318" lon="7.11883">
        <ele>470.6</ele>
        <time>2023-08-12T09:59:56Z</time>
      </trkpt>
      <trkpt lat="48.04319" lon="7.11881">
        <ele>470.8</ele>
        <time>2023-08-12T09:59:57Z</time>
      </trkpt>
      <trkpt lat="48.04321" lon="7.11877">
        <ele>471.1</ele>
        <time>2023-08-12T09:59:58Z</time>
      </trkpt>
      <trkpt lat="48.04322" lon="7.11874">
        <ele>471.4</ele>
        <time>2023-08-12T09:59:59Z</time>
      </trkpt>
      <trkpt lat="48.04323" lon="7.1187">
        <ele>471.6</ele>
        <time>2023-08-12T10:00:00Z</time>
      </trkpt>
      <trkpt lat="48.04324" lon="7.11867">
        <ele>471.8</ele>
        <time>2023-08-12T10:00:01Z</time>
      </trkpt>
      <trkpt lat="48.04324" lon="7.11865">
        <ele>472</ele>
        <time>2023-08-12T10:00:02Z</time>
      </trkpt>
      <trkpt lat="48.04323" lon="7.11863">
        <ele>472.1</ele>
        <time>2023-08-12T10:00:03Z</time>
      </trkpt>
      <trkpt lat="48.04324" lon="7.11859">
        <ele>472.4</ele>
        <time>2023-08-12T10:00:04Z</time>
      </trkpt>
      <trkpt lat="48.04325" lon="7.11856">
        <ele>472.6</ele>
        <time>2023-08-12T10:00:05Z</time>
      </trkpt>
      <trkpt lat="48.04326" lon="7.11852">
        <ele>472.9</ele>
        <time>2023-08-12T10:00:06Z</time>
      </trkpt>
      <trkpt lat="48.04327" lon="7.11848">
        <ele>473.2</ele>
        <time>2023-08-12T10:00:07Z</time>
      </trkpt>
      <trkpt lat="48.04326" lon="7.11845">
        <ele>473.4</ele>
        <time>2023-08-12T10:00:08Z</time>
      </trkpt>
      <trkpt lat="48.04326" lon="7.11842">
        <ele>473.6</ele>
        <time>2023-08-12T10:00:09Z</time>
      </trkpt>
      <trkpt lat="48.04327" lon="7.11839">
        <ele>473.9</ele>
        <time>2023-08-12T10:00:10Z</time>
      </trkpt>
      <trkpt lat="48.04328" lon="7.11836">
        <ele>474.1</ele>
        <time>2023-08-12T10:00:11Z</time>
      </trkpt>
      <trkpt lat="48.04328" lon="7.11832">
        <ele>474.3</ele>
        <time>2023-08-12T10:00:12Z</time>
      </trkpt>
      <trkpt lat="48.04328" lon="7.1183">
        <ele>474.5</ele>
        <time>2023-08-12T10:00:13Z</time>
      </trkpt>
      <trkpt lat="48.04328" lon="7.11827">
        <ele>474.7</ele>
        <time>2023-08-12T10:00:14Z</time>
      </trkpt>
      <trkpt lat="48.04328" lon="7.11825">
        <ele>474.8</ele>
        <time>2023-08-12T10:00:15Z</time>
      </trkpt>
      <trkpt lat="48.04328" lon="7.11822">
        <ele>475</ele>
        <time>2023-08-12T10:00:16Z</time>
      </trkpt>
      <trkpt lat="48.04328" lon="7.1182">
        <ele>475.3</ele>
        <time>2023-08-12T10:00:17Z</time>
      </trkpt>
      <trkpt lat="48.04327" lon="7.11817">
        <ele>475.5</ele>
        <time>2023-08-12T10:00:18Z</time>
      </trkpt>
      <trkpt lat="48.04328" lon="7.11814">
        <ele>475.7</ele>
        <time>2023-08-12T10:00:19Z</time>
      </trkpt>
      <trkpt lat="48.04328" lon="7.11812">
        <ele>475.8</ele>
        <time>2023-08-12T10:00:20Z</time>
      </trkpt>
      <trkpt lat="48.04328" lon="7.11809">
        <ele>476</ele>
        <time>2023-08-12T10:00:21Z</time>
      </trkpt>
      <trkpt lat="48.04327" lon="7.11808">
        <ele>476.1</ele>
        <time>2023-08-12T10:00:22Z</time>
      </trkpt>
      <trkpt lat="48.04327" lon="7.11805">
        <ele>476.3</ele>
        <time>2023-08-12T10:00:23Z</time>
      </trkpt>
      <trkpt lat="48.04327" lon="7.11803">
        <ele>476.5</ele>
        <time>2023-08-12T10:00:24Z</time>
      </trkpt>
      <trkpt lat="48.04327" lon="7.11801">
        <ele>476.6</ele>
        <time>2023-08-12T10:00:25Z</time>
      </trkpt>
      <trkpt lat="48.04327" lon="7.11798">
        <ele>476.9</ele>
        <time>2023-08-12T10:00:26Z</time>
      </trkpt>
      <trkpt lat="48.04327" lon="7.11795">
        <ele>477.1</ele>
        <time>2023-08-12T10:00:27Z</time>
      </trkpt>
      <trkpt lat="48.04326" lon="7.11792">
        <ele>477.3</ele>
        <time>2023-08-12T10:00:28Z</time>
      </trkpt>
      <trkpt lat="48.04326" lon="7.11789">
        <ele>477.5</ele>
        <time>2023-08-12T10:00:29Z</time>
      </trkpt>
      <trkpt lat="48.04325" lon="7.11786">
        <ele>477.8</ele>
        <time>2023-08-12T10:00:30Z</time>
      </trkpt>
      <trkpt lat="48.04325" lon="7.11782">
        <ele>478</ele>
        <time>2023-08-12T10:00:31Z</time>
      </trkpt>
      <trkpt lat="48.04325" lon="7.11779">
        <ele>478.2</ele>
        <time>2023-08-12T10:00:32Z</time>
      </trkpt>
      <trkpt lat="48.04323" lon="7.11776">
        <ele>478.5</ele>
        <time>2023-08-12T10:00:33Z</time>
      </trkpt>
      <trkpt lat="48.04322" lon="7.11773">
        <ele>478.7</ele>
        <time>2023-08-12T10:00:34Z</time>
      </trkpt>
      <trkpt lat="48.04322" lon="7.11771">
        <ele>478.9</ele>
        <time>2023-08-12T10:00:35Z</time>
      </trkpt>
      <trkpt lat="48.0432" lon="7.11767">
        <ele>479.2</ele>
        <time>2023-08-12T10:00:36Z</time>
      </trkpt>
      <trkpt lat="48.04318" lon="7.11762">
        <ele>479.5</ele>
        <time>2023-08-12T10:00:37Z</time>
      </trkpt>
      <trkpt lat="48.04317" lon="7.11758">
        <ele>479.8</ele>
        <time>2023-08-12T10:00:38Z</time>
      </trkpt>
      <trkpt lat="48.04317" lon="7.11755">
        <ele>480</ele>
        <time>2023-08-12T10:00:39Z</time>
      </trkpt>
      <trkpt lat="48.04316" lon="7.11751">
        <ele>480.4</ele>
        <time>2023-08-12T10:00:40Z</time>
      </trkpt>
      <trkpt lat="48.04315" lon="7.11748">
        <ele>480.7</ele>
        <time>2023-08-12T10:00:41Z</time>
      </trkpt>
      <trkpt lat="48.04315" lon="7.11745">
        <ele>480.9</ele>
        <time>2023-08-12T10:00:42Z</time>
      </trkpt>
      <trkpt lat="48.04314" lon="7.11742">
        <ele>481.1</ele>
        <time>2023-08-12T10:00:43Z</time>
      </trkpt>
      <trkpt lat="48.04313" lon="7.11739">
        <ele>481.4</ele>
        <time>2023-08-12T10:00:44Z</time>
      </trkpt>
      <trkpt lat="48.04312" lon="7.11736">
        <ele>481.6</ele>
        <time>2023-08-12T10:00:45Z</time>
      </trkpt>
      <trkpt lat="48.04312" lon="7.11732">
        <ele>481.9</ele>
        <time>2023-08-12T10:00:46Z</time>
      </trkpt>
      <trkpt lat="48.04311" lon="7.11729">
        <ele>482.1</ele>
        <time>2023-08-12T10:00:47Z</time>
      </trkpt>
      <trkpt lat="48.0431" lon="7.11726">
        <ele>482.4</ele>
        <time>2023-08-12T10:00:48Z</time>
      </trkpt>
      <trkpt lat="48.04309" lon="7.11722">
        <ele>482.8</ele>
        <time>2023-08-12T10:00:49Z</time>
      </trkpt>
      <trkpt lat="48.04307" lon="7.1172">
        <ele>483</ele>
        <time>2023-08-12T10:00:50Z</time>
      </trkpt>
      <trkpt lat="48.04306" lon="7.11718">
        <ele>483.2</ele>
        <time>2023-08-12T10:00:51Z</time>
      </trkpt>
      <trkpt lat="48.04304" lon="7.11716">
        <ele>483.4</ele>
        <time>2023-08-12T10:00:52Z</time>
      </trkpt>
      <trkpt lat="48.04301" lon="7.11713">
        <ele>483.8</ele>
        <time>2023-08-12T10:00:53Z</time>
      </trkpt>
      <trkpt lat="48.04299" lon="7.1171">
        <ele>484.1</ele>
        <time>2023-08-12T10:00:54Z</time>
      </trkpt>
      <trkpt lat="48.04299" lon="7.11708">
        <ele>484.3</ele>
        <time>2023-08-12T10:00:55Z</time>
      </trkpt>
      <trkpt lat="48.04298" lon="7.11705">
        <ele>484.5</ele>
        <time>2023-08-12T10:00:56Z</time>
      </trkpt>
      <trkpt lat="48.04297" lon="7.11702">
        <ele>484.7</ele>
        <time>2023-08-12T10:00:57Z</time>
      </trkpt>
      <trkpt lat="48.04295" lon="7.117">
        <ele>484.9</ele>
        <time>2023-08-12T10:00:58Z</time>
      </trkpt>
      <trkpt lat="48.04294" lon="7.11697">
        <ele>485.2</ele>
        <time>2023-08-12T10:00:59Z</time>
      </trkpt>
      <trkpt lat="48.04293" lon="7.11694">
        <ele>485.4</ele>
        <time>2023-08-12T10:01:00Z</time>
      </trkpt>
      <trkpt lat="48.04292" lon="7.11691">
        <ele>485.6</ele>
        <time>2023-08-12T10:01:01Z</time>
      </trkpt>
      <trkpt lat="48.04291" lon="7.11689">
        <ele>485.8</ele>
        <time>2023-08-12T10:01:02Z</time>
      </trkpt>
      <trkpt lat="48.0429" lon="7.11687">
        <ele>486</ele>
        <time>2023-08-12T10:01:03Z</time>
      </trkpt>
      <trkpt lat="48.04289" lon="7.11685">
        <ele>486.1</ele>
        <time>2023-08-12T10:01:04Z</time>
      </trkpt>
      <trkpt lat="48.04288" lon="7.11683">
        <ele>486.3</ele>
        <time>2023-08-12T10:01:05Z</time>
      </trkpt>
      <trkpt lat="48.04288" lon="7.11681">
        <ele>486.5</ele>
        <time>2023-08-12T10:01:06Z</time>
      </trkpt>
      <trkpt lat="48.04287" lon="7.11679">
        <ele>486.7</ele>
        <time>2023-08-12T10:01:07Z</time>
      </trkpt>
      <trkpt lat="48.04286" lon="7.11676">
        <ele>486.9</ele>
        <time>2023-08-12T10:01:08Z</time>
      </trkpt>
      <trkpt lat="48.04286" lon="7.11673">
        <ele>487.1</ele>
        <time>2023-08-12T10:01:09Z</time>
      </trkpt>
      <trkpt lat="48.04286" lon="7.1167">
        <ele>487.3</ele>
        <time>2023-08-12T10:01:10Z</time>
      </trkpt>
      <trkpt lat="48.04285" lon="7.11668">
        <ele>487.5</ele>
        <time>2023-08-12T10:01:11Z</time>
      </trkpt>
      <trkpt lat="48.04284" lon="7.11666">
        <ele>487.6</ele>
        <time>2023-08-12T10:01:12Z</time>
      </trkpt>
      <trkpt lat="48.04283" lon="7.11664">
        <ele>487.8</ele>
        <time>2023-08-12T10:01:13Z</time>
      </trkpt>
      <trkpt lat="48.04282" lon="7.11662">
        <ele>487.9</ele>
        <time>2023-08-12T10:01:14Z</time>
      </trkpt>
      <trkpt lat="48.04281" lon="7.1166">
        <ele>488.2</ele>
        <time>2023-08-12T10:01:15Z</time>
      </trkpt>
      <trkpt lat="48.0428" lon="7.11657">
        <ele>488.4</ele>
        <time>2023-08-12T10:01:16Z</time>
      </trkpt>
      <trkpt lat="48.04279" lon="7.11656">
        <ele>488.5</ele>
        <time>2023-08-12T10:01:17Z</time>
      </trkpt>
      <trkpt lat="48.04278" lon="7.11653">
        <ele>488.7</ele>
        <time>2023-08-12T10:01:18Z</time>
      </trkpt>
      <trkpt lat="48.04279" lon="7.1165">
        <ele>488.9</ele>
        <time>2023-08-12T10:01:19Z</time>
      </trkpt>
      <trkpt lat="48.04278" lon="7.11648">
        <ele>489.1</ele>
        <time>2023-08-12T10:01:20Z</time>
      </trkpt>
      <trkpt lat="48.04278" lon="7.11646">
        <ele>489.2</ele>
        <time>2023-08-12T10:01:21Z</time>
      </trkpt>
      <trkpt lat="48.04276" lon="7.11643">
        <ele>489.5</ele>
        <time>2023-08-12T10:01:22Z</time>
      </trkpt>
      <trkpt lat="48.04274" lon="7.11639">
        <ele>489.8</ele>
        <time>2023-08-12T10:01:23Z</time>
      </trkpt>
      <trkpt lat="48.04272" lon="7.11635">
        <ele>490.1</ele>
        <time>2023-08-12T10:01:24Z</time>
      </trkpt>
      <trkpt lat="48.04272" lon="7.11631">
        <ele>490.3</ele>
        <time>2023-08-12T10:01:25Z</time>
      </trkpt>
      <trkpt lat="48.04271" lon="7.11629">
        <ele>490.5</ele>
        <time>2023-08-12T10:01:26Z</time>
      </trkpt>
      <trkpt lat="48.04271" lon="7.11626">
        <ele>490.7</ele>
        <time>2023-08-12T10:01:27Z</time>
      </trkpt>
      <trkpt lat="48.04271" lon="7.11623">
        <ele>490.9</ele>
        <time>2023-08-12T10:01:28Z</time>
      </trkpt>
      <trkpt lat="48.0427" lon="7.1162">
        <ele>491.1</ele>
        <time>2023-08-12T10:01:29Z</time>
      </trkpt>
      <trkpt lat="48.0427" lon="7.11617">
        <ele>491.3</ele>
        <time>2023-08-12T10:01:30Z</time>
      </trkpt>
      <trkpt lat="48.0427" lon="7.11614">
        <ele>491.4</ele>
        <time>2023-08-12T10:01:31Z</time>
      </trkpt>
      <trkpt lat="48.0427" lon="7.11612">
        <ele>491.5</ele>
        <time>2023-08-12T10:01:32Z</time>
      </trkpt>
      <trkpt lat="48.0427" lon="7.1161">
        <ele>491.7</ele>
        <time>2023-08-12T10:01:33Z</time>
      </trkpt>
      <trkpt lat="48.0427" lon="7.11608">
        <ele>491.9</ele>
        <time>2023-08-12T10:01:34Z</time>
      </trkpt>
      <trkpt lat="48.04269" lon="7.11604">
        <ele>492.1</ele>
        <time>2023-08-12T10:01:35Z</time>
      </trkpt>
      <trkpt lat="48.04268" lon="7.116">
        <ele>492.4</ele>
        <time>2023-08-12T10:01:36Z</time>
      </trkpt>
      <trkpt lat="48.04267" lon="7.11596">
        <ele>492.7</ele>
        <time>2023-08-12T10:01:37Z</time>
      </trkpt>
      <trkpt lat="48.04268" lon="7.11593">
        <ele>492.9</ele>
        <time>2023-08-12T10:01:38Z</time>
      </trkpt>
      <trkpt lat="48.04268" lon="7.11588">
        <ele>493.2</ele>
        <time>2023-08-12T10:01:39Z</time>
      </trkpt>
      <trkpt lat="48.04268" lon="7.11585">
        <ele>493.4</ele>
        <time>2023-08-12T10:01:40Z</time>
      </trkpt>
      <trkpt lat="48.04268" lon="7.11582">
        <ele>493.6</ele>
        <time>2023-08-12T10:01:41Z</time>
      </trkpt>
      <trkpt lat="48.04267" lon="7.11578">
        <ele>493.9</ele>
        <time>2023-08-12T10:01:42Z</time>
      </trkpt>
      <trkpt lat="48.04265" lon="7.11574">
        <ele>494.2</ele>
        <time>2023-08-12T10:01:43Z</time>
      </trkpt>
      <trkpt lat="48.04265" lon="7.11571">
        <ele>494.4</ele>
        <time>2023-08-12T10:01:44Z</time>
      </trkpt>
      <trkpt lat="48.04264" lon="7.11568">
        <ele>494.6</ele>
        <time>2023-08-12T10:01:45Z</time>
      </trkpt>
      <trkpt lat="48.04263" lon="7.11565">
        <ele>494.9</ele>
        <time>2023-08-12T10:01:46Z</time>
      </trkpt>
      <trkpt lat="48.04263" lon="7.11561">
        <ele>495.1</ele>
        <time>2023-08-12T10:01:47Z</time>
      </trkpt>
      <trkpt lat="48.04263" lon="7.11558">
        <ele>495.3</ele>
        <time>2023-08-12T10:01:48Z</time>
      </trkpt>
      <trkpt lat="48.04262" lon="7.11555">
        <ele>495.5</ele>
        <time>2023-08-12T10:01:49Z</time>
      </trkpt>
      <trkpt lat="48.04261" lon="7.11552">
        <ele>495.6</ele>
        <time>2023-08-12T10:01:50Z</time>
      </trkpt>
      <trkpt lat="48.0426" lon="7.11549">
        <ele>495.8</ele>
        <time>2023-08-12T10:01:51Z</time>
      </trkpt>
      <trkpt lat="48.04258" lon="7.11546">
        <ele>496.1</ele>
        <time>2023-08-12T10:01:52Z</time>
      </trkpt>
      <trkpt lat="48.04258" lon="7.11544">
        <ele>496.3</ele>
        <time>2023-08-12T10:01:53Z</time>
      </trkpt>
      <trkpt lat="48.04258" lon="7.11541">
        <ele>496.4</ele>
        <time>2023-08-12T10:01:54Z</time>
      </trkpt>
      <trkpt lat="48.04257" lon="7.11538">
        <ele>496.6</ele>
        <time>2023-08-12T10:01:55Z</time>
      </trkpt>
      <trkpt lat="48.04257" lon="7.11535">
        <ele>496.8</ele>
        <time>2023-08-12T10:01:56Z</time>
      </trkpt>
      <trkpt lat="48.04257" lon="7.11533">
        <ele>496.9</ele>
        <time>2023-08-12T10:01:57Z</time>
      </trkpt>
      <trkpt lat="48.04257" lon="7.11531">
        <ele>497</ele>
        <time>2023-08-12T10:01:58Z</time>
      </trkpt>
      <trkpt lat="48.04257" lon="7.11529">
        <ele>497.1</ele>
        <time>2023-08-12T10:01:59Z</time>
      </trkpt>
      <trkpt lat="48.04257" lon="7.11528">
        <ele>497.2</ele>
        <time>2023-08-12T10:02:00Z</time>
      </trkpt>
      <trkpt lat="48.04256" lon="7.11527">
        <ele>497.3</ele>
        <time>2023-08-12T10:02:01Z</time>
      </trkpt>
      <trkpt lat="48.04256" lon="7.11526">
        <ele>497.4</ele>
        <time>2023-08-12T10:02:02Z</time>
      </trkpt>
      <trkpt lat="48.04255" lon="7.11525">
        <ele>497.4</ele>
        <time>2023-08-12T10:02:03Z</time>
      </trkpt>
      <trkpt lat="48.04254" lon="7.11525">
        <ele>497.5</ele>
        <time>2023-08-12T10:02:04Z</time>
      </trkpt>
      <trkpt lat="48.04254" lon="7.11526">
        <ele>497.6</ele>
        <time>2023-08-12T10:02:05Z</time>
      </trkpt>
      <trkpt lat="48.04253" lon="7.11527">
        <ele>497.6</ele>
        <time>2023-08-12T10:02:06Z</time>
      </trkpt>
      <trkpt lat="48.04253" lon="7.11527">
        <ele>497.7</ele>
        <time>2023-08-12T10:02:07Z</time>
      </trkpt>
      <trkpt lat="48.04252" lon="7.11526">
        <ele>497.7</ele>
        <time>2023-08-12T10:02:08Z</time>
      </trkpt>
      <trkpt lat="48.04252" lon="7.11524">
        <ele>497.8</ele>
        <time>2023-08-12T10:02:09Z</time>
      </trkpt>
      <trkpt lat="48.04252" lon="7.11523">
        <ele>497.9</ele>
        <time>2023-08-12T10:02:10Z</time>
      </trkpt>
      <trkpt lat="48.04252" lon="7.11521">
        <ele>498</ele>
        <time>2023-08-12T10:02:11Z</time>
      </trkpt>
      <trkpt lat="48.04252" lon="7.1152">
        <ele>498.1</ele>
        <time>2023-08-12T10:02:12Z</time>
      </trkpt>
      <trkpt lat="48.04252" lon="7.11519">
        <ele>498.1</ele>
        <time>2023-08-12T10:02:13Z</time>
      </trkpt>
      <trkpt lat="48.04251" lon="7.11517">
        <ele>498.3</ele>
        <time>2023-08-12T10:02:14Z</time>
      </trkpt>
      <trkpt lat="48.0425" lon="7.11516">
        <ele>498.4</ele>
        <time>2023-08-12T10:02:15Z</time>
      </trkpt>
      <trkpt lat="48.04249" lon="7.11515">
        <ele>498.4</ele>
        <time>2023-08-12T10:02:16Z</time>
      </trkpt>
      <trkpt lat="48.04249" lon="7.11514">
        <ele>498.5</ele>
        <time>2023-08-12T10:02:17Z</time>
      </trkpt>
      <trkpt lat="48.04249" lon="7.11512">
        <ele>498.6</ele>
        <time>2023-08-12T10:02:18Z</time>
      </trkpt>
      <trkpt lat="48.04248" lon="7.11509">
        <ele>498.8</ele>
        <time>2023-08-12T10:02:19Z</time>
      </trkpt>
      <trkpt lat="48.04246" lon="7.11508">
        <ele>498.9</ele>
        <time>2023-08-12T10:02:20Z</time>
      </trkpt>
      <trkpt lat="48.04246" lon="7.11507">
        <ele>498.9</ele>
        <time>2023-08-12T10:02:21Z</time>
      </trkpt>
      <trkpt lat="48.04246" lon="7.11505">
        <ele>499</ele>
        <time>2023-08-12T10:02:22Z</time>
      </trkpt>
      <trkpt lat="48.04247" lon="7.11503">
        <ele>499.2</ele>
        <time>2023-08-12T10:02:23Z</time>
      </trkpt>
      <trkpt lat="48.04246" lon="7.11501">
        <ele>499.3</ele>
        <time>2023-08-12T10:02:24Z</time>
      </trkpt>
      <trkpt lat="48.04245" lon="7.11499">
        <ele>499.4</ele>
        <time>2023-08-12T10:02:25Z</time>
      </trkpt>
      <trkpt lat="48.04246" lon="7.11497">
        <ele>499.5</ele>
        <time>2023-08-12T10:02:26Z</time>
      </trkpt>
      <trkpt lat="48.04247" lon="7.11493">
        <ele>499.7</ele>
        <time>2023-08-12T10:02:27Z</time>
      </trkpt>
      <trkpt lat="48.04247" lon="7.11491">
        <ele>499.8</ele>
        <time>2023-08-12T10:02:28Z</time>
      </trkpt>
      <trkpt lat="48.04246" lon="7.11489">
        <ele>499.9</ele>
        <time>2023-08-12T10:02:29Z</time>
      </trkpt>
      <trkpt lat="48.04244" lon="7.11487">
        <ele>500.1</ele>
        <time>2023-08-12T10:02:30Z</time>
      </trkpt>
      <trkpt lat="48.04243" lon="7.11485">
        <ele>500.2</ele>
        <time>2023-08-12T10:02:31Z</time>
      </trkpt>
      <trkpt lat="48.04243" lon="7.11484">
        <ele>500.2</ele>
        <time>2023-08-12T10:02:32Z</time>
      </trkpt>
      <trkpt lat="48.04242" lon="7.11482">
        <ele>500.3</ele>
        <time>2023-08-12T10:02:33Z</time>
      </trkpt>
      <trkpt lat="48.04241" lon="7.1148">
        <ele>500.5</ele>
        <time>2023-08-12T10:02:34Z</time>
      </trkpt>
      <trkpt lat="48.04237" lon="7.11477">
        <ele>500.7</ele>
        <time>2023-08-12T10:02:35Z</time>
      </trkpt>
      <trkpt lat="48.04236" lon="7.11476">
        <ele>500.8</ele>
        <time>2023-08-12T10:02:36Z</time>
      </trkpt>
      <trkpt lat="48.04234" lon="7.11474">
        <ele>501</ele>
        <time>2023-08-12T10:02:37Z</time>
      </trkpt>
      <trkpt lat="48.04233" lon="7.11473">
        <ele>501.1</ele>
        <time>2023-08-12T10:02:38Z</time>
      </trkpt>
      <trkpt lat="48.04232" lon="7.11471">
        <ele>501.2</ele>
        <time>2023-08-12T10:02:39Z</time>
      </trkpt>
      <trkpt lat="48.04232" lon="7.11468">
        <ele>501.3</ele>
        <time>2023-08-12T10:02:40Z</time>
      </trkpt>
      <trkpt lat="48.0423" lon="7.11467">
        <ele>501.4</ele>
        <time>2023-08-12T10:02:41Z</time>
      </trkpt>
      <trkpt lat="48.04229" lon="7.11466">
        <ele>501.5</ele>
        <time>2023-08-12T10:02:42Z</time>
      </trkpt>
      <trkpt lat="48.04229" lon="7.11463">
        <ele>501.6</ele>
        <time>2023-08-12T10:02:43Z</time>
      </trkpt>
      <trkpt lat="48.04227" lon="7.11461">
        <ele>501.7</ele>
        <time>2023-08-12T10:02:44Z</time>
      </trkpt>
      <trkpt lat="48.04227" lon="7.11459">
        <ele>501.8</ele>
        <time>2023-08-12T10:02:45Z</time>
      </trkpt>
      <trkpt lat="48.04226" lon="7.11457">
        <ele>501.9</ele>
        <time>2023-08-12T10:02:46Z</time>
      </trkpt>
      <trkpt lat="48.04225" lon="7.11456">
        <ele>502</ele>
        <time>2023-08-12T10:02:47Z</time>
      </trkpt>
      <trkpt lat="48.04223" lon="7.11455">
        <ele>502.1</ele>
        <time>2023-08-12T10:02:48Z</time>
      </trkpt>
      <trkpt lat="48.04222" lon="7.11453">
        <ele>502.2</ele>
        <time>2023-08-12T10:02:49Z</time>
      </trkpt>
      <trkpt lat="48.04221" lon="7.11451">
        <ele>502.3</ele>
        <time>2023-08-12T10:02:50Z</time>
      </trkpt>
      <trkpt lat="48.04219" lon="7.11448">
        <ele>502.4</ele>
        <time>2023-08-12T10:02:51Z</time>
      </trkpt>
      <trkpt lat="48.04219" lon="7.11446">
        <ele>502.6</ele>
        <time>2023-08-12T10:02:52Z</time>
      </trkpt>
      <trkpt lat="48.04218" lon="7.11444">
        <ele>502.6</ele>
        <time>2023-08-12T10:02:53Z</time>
      </trkpt>
      <trkpt lat="48.04217" lon="7.11443">
        <ele>502.7</ele>
        <time>2023-08-12T10:02:54Z</time>
      </trkpt>
      <trkpt lat="48.04216" lon="7.11442">
        <ele>502.8</ele>
        <time>2023-08-12T10:02:55Z</time>
      </trkpt>
      <trkpt lat="48.04215" lon="7.1144">
        <ele>502.9</ele>
        <time>2023-08-12T10:02:56Z</time>
      </trkpt>
      <trkpt lat="48.04212" lon="7.11439">
        <ele>503.1</ele>
        <time>2023-08-12T10:02:57Z</time>
      </trkpt>
      <trkpt lat="48.0421" lon="7.11437">
        <ele>503.2</ele>
        <time>2023-08-12T10:02:58Z</time>
      </trkpt>
      <trkpt lat="48.04209" lon="7.11435">
        <ele>503.3</ele>
        <time>2023-08-12T10:02:59Z</time>
      </trkpt>
      <trkpt lat="48.04209" lon="7.11435">
        <ele>503.3</ele>
        <time>2023-08-12T10:03:00Z</time>
      </trkpt>
      <trkpt lat="48.04209" lon="7.11433">
        <ele>503.4</ele>
        <time>2023-08-12T10:03:01Z</time>
      </trkpt>
      <trkpt lat="48.04208" lon="7.11432">
        <ele>503.5</ele>
        <time>2023-08-12T10:03:02Z</time>
      </trkpt>
      <trkpt lat="48.04207" lon="7.11431">
        <ele>503.6</ele>
        <time>2023-08-12T10:03:03Z</time>
      </trkpt>
      <trkpt lat="48.04206" lon="7.1143">
        <ele>503.6</ele>
        <time>2023-08-12T10:03:04Z</time>
      </trkpt>
      <trkpt lat="48.04206" lon="7.11428">
        <ele>503.7</ele>
        <time>2023-08-12T10:03:05Z</time>
      </trkpt>
      <trkpt lat="48.04204" lon="7.11427">
        <ele>503.8</ele>
        <time>2023-08-12T10:03:06Z</time>
      </trkpt>
      <trkpt lat="48.04203" lon="7.11426">
        <ele>503.8</ele>
        <time>2023-08-12T10:03:07Z</time>
      </trkpt>
      <trkpt lat="48.04204" lon="7.11424">
        <ele>503.9</ele>
        <time>2023-08-12T10:03:08Z</time>
      </trkpt>
      <trkpt lat="48.04202" lon="7.11422">
        <ele>504</ele>
        <time>2023-08-12T10:03:09Z</time>
      </trkpt>
      <trkpt lat="48.04201" lon="7.11421">
        <ele>504.2</ele>
        <time>2023-08-12T10:03:10Z</time>
      </trkpt>
      <trkpt lat="48.042" lon="7.1142">
        <ele>504.2</ele>
        <time>2023-08-12T10:03:11Z</time>
      </trkpt>
      <trkpt lat="48.04198" lon="7.11418">
        <ele>504.4</ele>
        <time>2023-08-12T10:03:12Z</time>
      </trkpt>
      <trkpt lat="48.04197" lon="7.11417">
        <ele>504.4</ele>
        <time>2023-08-12T10:03:13Z</time>
      </trkpt>
      <trkpt lat="48.04196" lon="7.11414">
        <ele>504.6</ele>
        <time>2023-08-12T10:03:14Z</time>
      </trkpt>
      <trkpt lat="48.04195" lon="7.11411">
        <ele>504.8</ele>
        <time>2023-08-12T10:03:15Z</time>
      </trkpt>
      <trkpt lat="48.0419" lon="7.11407">
        <ele>505.1</ele>
        <time>2023-08-12T10:03:16Z</time>
      </trkpt>
      <trkpt lat="48.04189" lon="7.11406">
        <ele>505.2</ele>
        <time>2023-08-12T10:03:17Z</time>
      </trkpt>
      <trkpt lat="48.04188" lon="7.11404">
        <ele>505.3</ele>
        <time>2023-08-12T10:03:18Z</time>
      </trkpt>
      <trkpt lat="48.04187" lon="7.11403">
        <ele>505.4</ele>
        <time>2023-08-12T10:03:19Z</time>
      </trkpt>
      <trkpt lat="48.04184" lon="7.11401">
        <ele>505.6</ele>
        <time>2023-08-12T10:03:20Z</time>
      </trkpt>
      <trkpt lat="48.04182" lon="7.11399">
        <ele>505.8</ele>
        <time>2023-08-12T10:03:21Z</time>
      </trkpt>
      <trkpt lat="48.04181" lon="7.11399">
        <ele>505.9</ele>
        <time>2023-08-12T10:03:22Z</time>
      </trkpt>
      <trkpt lat="48.04181" lon="7.11399">
        <ele>505.9</ele>
        <time>2023-08-12T10:03:23Z</time>
      </trkpt>
      <trkpt lat="48.04181" lon="7.11398">
        <ele>505.9</ele>
        <time>2023-08-12T10:03:24Z</time>
      </trkpt>
      <trkpt lat="48.0418" lon="7.11397">
        <ele>506</ele>
        <time>2023-08-12T10:03:25Z</time>
      </trkpt>
      <trkpt lat="48.0418" lon="7.11396">
        <ele>506</ele>
        <time>2023-08-12T10:03:26Z</time>
      </trkpt>
      <trkpt lat="48.04178" lon="7.11395">
        <ele>506.1</ele>
        <time>2023-08-12T10:03:27Z</time>
      </trkpt>
      <trkpt lat="48.04177" lon="7.11394">
        <ele>506.2</ele>
        <time>2023-08-12T10:03:28Z</time>
      </trkpt>
      <trkpt lat="48.04177" lon="7.11393">
        <ele>506.3</ele>
        <time>2023-08-12T10:03:29Z</time>
      </trkpt>
      <trkpt lat="48.04176" lon="7.11392">
        <ele>506.4</ele>
        <time>2023-08-12T10:03:30Z</time>
      </trkpt>
      <trkpt lat="48.04176" lon="7.11391">
        <ele>506.4</ele>
        <time>2023-08-12T10:03:31Z</time>
      </trkpt>
      <trkpt lat="48.04175" lon="7.1139">
        <ele>506.5</ele>
        <time>2023-08-12T10:03:32Z</time>
      </trkpt>
      <trkpt lat="48.04174" lon="7.1139">
        <ele>506.6</ele>
        <time>2023-08-12T10:03:33Z</time>
      </trkpt>
      <trkpt lat="48.04173" lon="7.11389">
        <ele>506.6</ele>
        <time>2023-08-12T10:03:34Z</time>
      </trkpt>
      <trkpt lat="48.04172" lon="7.11389">
        <ele>506.7</ele>
        <time>2023-08-12T10:03:35Z</time>
      </trkpt>
      <trkpt lat="48.04171" lon="7.11387">
        <ele>506.8</ele>
        <time>2023-08-12T10:03:36Z</time>
      </trkpt>
      <trkpt lat="48.04171" lon="7.11387">
        <ele>506.8</ele>
        <time>2023-08-12T10:03:37Z</time>
      </trkpt>
      <trkpt lat="48.04171" lon="7.11386">
        <ele>506.9</ele>
        <time>2023-08-12T10:03:38Z</time>
      </trkpt>
      <trkpt lat="48.0417" lon="7.11385">
        <ele>506.9</ele>
        <time>2023-08-12T10:03:39Z</time>
      </trkpt>
      <trkpt lat="48.04169" lon="7.11384">
        <ele>507</ele>
        <time>2023-08-12T10:03:40Z</time>
      </trkpt>
      <trkpt lat="48.04169" lon="7.11383">
        <ele>507.1</ele>
        <time>2023-08-12T10:03:41Z</time>
      </trkpt>
      <trkpt lat="48.04169" lon="7.11382">
        <ele>507.1</ele>
        <time>2023-08-12T10:03:42Z</time>
      </trkpt>
      <trkpt lat="48.04168" lon="7.11381">
        <ele>507.2</ele>
        <time>2023-08-12T10:03:43Z</time>
      </trkpt>
      <trkpt lat="48.04167" lon="7.1138">
        <ele>507.2</ele>
        <time>2023-08-12T10:03:44Z</time>
      </trkpt>
      <trkpt lat="48.04167" lon="7.1138">
        <ele>507.3</ele>
        <time>2023-08-12T10:03:45Z</time>
      </trkpt>
      <trkpt lat="48.04165" lon="7.11381">
        <ele>507.3</ele>
        <time>2023-08-12T10:03:46Z</time>
      </trkpt>
      <trkpt lat="48.04164" lon="7.1138">
        <ele>507.4</ele>
        <time>2023-08-12T10:03:47Z</time>
      </trkpt>
      <trkpt lat="48.04163" lon="7.1138">
        <ele>507.5</ele>
        <time>2023-08-12T10:03:48Z</time>
      </trkpt>
      <trkpt lat="48.04162" lon="7.11379">
        <ele>508.8</ele>
        <time>2023-08-12T10:03:49Z</time>
      </trkpt>
      <trkpt lat="48.04161" lon="7.11377">
        <ele>508.6</ele>
        <time>2023-08-12T10:03:50Z</time>
      </trkpt>
      <trkpt lat="48.0416" lon="7.11376">
        <ele>508.8</ele>
        <time>2023-08-12T10:03:51Z</time>
      </trkpt>
      <trkpt lat="48.04158" lon="7.11375">
        <ele>510.1</ele>
        <time>2023-08-12T10:03:52Z</time>
      </trkpt>
      <trkpt lat="48.04157" lon="7.11374">
        <ele>510.4</ele>
        <time>2023-08-12T10:03:53Z</time>
      </trkpt>
      <trkpt lat="48.04156" lon="7.11373">
        <ele>511.1</ele>
        <time>2023-08-12T10:03:54Z</time>
      </trkpt>
      <trkpt lat="48.04155" lon="7.11373">
        <ele>511.4</ele>
        <time>2023-08-12T10:03:55Z</time>
      </trkpt>
      <trkpt lat="48.04154" lon="7.11372">
        <ele>512.5</ele>
        <time>2023-08-12T10:03:56Z</time>
      </trkpt>
      <trkpt lat="48.04153" lon="7.11371">
        <ele>512.8</ele>
        <time>2023-08-12T10:03:57Z</time>
      </trkpt>
      <trkpt lat="48.04151" lon="7.1137">
        <ele>513</ele>
        <time>2023-08-12T10:03:58Z</time>
      </trkpt>
      <trkpt lat="48.04151" lon="7.11369">
        <ele>513.7</ele>
        <time>2023-08-12T10:03:59Z</time>
      </trkpt>
      <trkpt lat="48.0415" lon="7.11368">
        <ele>514</ele>
        <time>2023-08-12T10:04:00Z</time>
      </trkpt>
      <trkpt lat="48.04149" lon="7.11366">
        <ele>514.2</ele>
        <time>2023-08-12T10:04:01Z</time>
      </trkpt>
      <trkpt lat="48.04148" lon="7.11365">
        <ele>515.3</ele>
        <time>2023-08-12T10:04:02Z</time>
      </trkpt>
      <trkpt lat="48.04147" lon="7.11365">
        <ele>515.1</ele>
        <time>2023-08-12T10:04:03Z</time>
      </trkpt>
      <trkpt lat="48.04147" lon="7.11364">
        <ele>515.4</ele>
        <time>2023-08-12T10:04:04Z</time>
      </trkpt>
      <trkpt lat="48.04146" lon="7.11364">
        <ele>515.7</ele>
        <time>2023-08-12T10:04:05Z</time>
      </trkpt>
      <trkpt lat="48.04145" lon="7.11363">
        <ele>516.8</ele>
        <time>2023-08-12T10:04:06Z</time>
      </trkpt>
      <trkpt lat="48.04144" lon="7.11362">
        <ele>517</ele>
        <time>2023-08-12T10:04:07Z</time>
      </trkpt>
      <trkpt lat="48.04144" lon="7.11362">
        <ele>517.3</ele>
        <time>2023-08-12T10:04:08Z</time>
      </trkpt>
      <trkpt lat="48.04143" lon="7.11361">
        <ele>517.5</ele>
        <time>2023-08-12T10:04:09Z</time>
      </trkpt>
      <trkpt lat="48.04143" lon="7.1136">
        <ele>517.3</ele>
        <time>2023-08-12T10:04:10Z</time>
      </trkpt>
      <trkpt lat="48.04142" lon="7.11359">
        <ele>518.4</ele>
        <time>2023-08-12T10:04:11Z</time>
      </trkpt>
      <trkpt lat="48.0414" lon="7.11357">
        <ele>518.7</ele>
        <time>2023-08-12T10:04:12Z</time>
      </trkpt>
      <trkpt lat="48.04139" lon="7.11356">
        <ele>519.8</ele>
        <time>2023-08-12T10:04:13Z</time>
      </trkpt>
      <trkpt lat="48.04138" lon="7.11356">
        <ele>519.6</ele>
        <time>2023-08-12T10:04:14Z</time>
      </trkpt>
      <trkpt lat="48.04138" lon="7.11355">
        <ele>519.9</ele>
        <time>2023-08-12T10:04:15Z</time>
      </trkpt>
      <trkpt lat="48.04137" lon="7.11354">
        <ele>520.1</ele>
        <time>2023-08-12T10:04:16Z</time>
      </trkpt>
      <trkpt lat="48.04137" lon="7.11353">
        <ele>520.4</ele>
        <time>2023-08-12T10:04:17Z</time>
      </trkpt>
      <trkpt lat="48.04136" lon="7.11352">
        <ele>521.9</ele>
        <time>2023-08-12T10:04:18Z</time>
      </trkpt>
      <trkpt lat="48.04135" lon="7.1135">
        <ele>521.7</ele>
        <time>2023-08-12T10:04:19Z</time>
      </trkpt>
      <trkpt lat="48.04133" lon="7.11348">
        <ele>522.6</ele>
        <time>2023-08-12T10:04:20Z</time>
      </trkpt>
      <trkpt lat="48.04132" lon="7.11347">
        <ele>522.3</ele>
        <time>2023-08-12T10:04:21Z</time>
      </trkpt>
      <trkpt lat="48.04132" lon="7.11346">
        <ele>522.6</ele>
        <time>2023-08-12T10:04:22Z</time>
      </trkpt>
      <trkpt lat="48.0413" lon="7.11344">
        <ele>523.5</ele>
        <time>2023-08-12T10:04:23Z</time>
      </trkpt>
      <trkpt lat="48.0413" lon="7.11345">
        <ele>523.7</ele>
        <time>2023-08-12T10:04:24Z</time>
      </trkpt>
      <trkpt lat="48.04128" lon="7.11345">
        <ele>524</ele>
        <time>2023-08-12T10:04:25Z</time>
      </trkpt>
      <trkpt lat="48.04125" lon="7.11344">
        <ele>524.8</ele>
        <time>2023-08-12T10:04:26Z</time>
      </trkpt>
      <trkpt lat="48.04123" lon="7.11344">
        <ele>525.6</ele>
        <time>2023-08-12T10:04:27Z</time>
      </trkpt>
      <trkpt lat="48.04123" lon="7.11343">
        <ele>525.2</ele>
        <time>2023-08-12T10:04:28Z</time>
      </trkpt>
      <trkpt lat="48.04122" lon="7.11343">
        <ele>526</ele>
        <time>2023-08-12T10:04:29Z</time>
      </trkpt>
      <trkpt lat="48.0412" lon="7.11342">
        <ele>526.3</ele>
        <time>2023-08-12T10:04:30Z</time>
      </trkpt>
      <trkpt lat="48.04119" lon="7.11339">
        <ele>527.2</ele>
        <time>2023-08-12T10:04:31Z</time>
      </trkpt>
      <trkpt lat="48.04118" lon="7.11337">
        <ele>526.8</ele>
        <time>2023-08-12T10:04:32Z</time>
      </trkpt>
      <trkpt lat="48.04117" lon="7.11336">
        <ele>527.1</ele>
        <time>2023-08-12T10:04:33Z</time>
      </trkpt>
      <trkpt lat="48.04115" lon="7.11336">
        <ele>528.1</ele>
        <time>2023-08-12T10:04:34Z</time>
      </trkpt>
      <trkpt lat="48.04114" lon="7.11336">
        <ele>528.3</ele>
        <time>2023-08-12T10:04:35Z</time>
      </trkpt>
      <trkpt lat="48.04114" lon="7.11337">
        <ele>528.6</ele>
        <time>2023-08-12T10:04:36Z</time>
      </trkpt>
      <trkpt lat="48.04114" lon="7.11338">
        <ele>528.9</ele>
        <time>2023-08-12T10:04:37Z</time>
      </trkpt>
      <trkpt lat="48.04113" lon="7.11337">
        <ele>529.9</ele>
        <time>2023-08-12T10:04:38Z</time>
      </trkpt>
      <trkpt lat="48.04112" lon="7.11336">
        <ele>530.2</ele>
        <time>2023-08-12T10:04:39Z</time>
      </trkpt>
      <trkpt lat="48.04111" lon="7.11335">
        <ele>530.4</ele>
        <time>2023-08-12T10:04:40Z</time>
      </trkpt>
      <trkpt lat="48.0411" lon="7.11334">
        <ele>530.8</ele>
        <time>2023-08-12T10:04:41Z</time>
      </trkpt>
      <trkpt lat="48.04109" lon="7.11333">
        <ele>531.1</ele>
        <time>2023-08-12T10:04:42Z</time>
      </trkpt>
      <trkpt lat="48.04108" lon="7.11333">
        <ele>532.1</ele>
        <time>2023-08-12T10:04:43Z</time>
      </trkpt>
      <trkpt lat="48.04106" lon="7.11332">
        <ele>532.3</ele>
        <time>2023-08-12T10:04:44Z</time>
      </trkpt>
      <trkpt lat="48.04106" lon="7.11331">
        <ele>532.6</ele>
        <time>2023-08-12T10:04:45Z</time>
      </trkpt>
      <trkpt lat="48.04105" lon="7.1133">
        <ele>532.2</ele>
        <time>2023-08-12T10:04:46Z</time>
      </trkpt>
      <trkpt lat="48.04104" lon="7.11329">
        <ele>533.2</ele>
        <time>2023-08-12T10:04:47Z</time>
      </trkpt>
      <trkpt lat="48.04104" lon="7.11328">
        <ele>533.5</ele>
        <time>2023-08-12T10:04:48Z</time>
      </trkpt>
      <trkpt lat="48.04103" lon="7.11327">
        <ele>533.7</ele>
        <time>2023-08-12T10:04:49Z</time>
      </trkpt>
      <trkpt lat="48.04102" lon="7.11325">
        <ele>534.2</ele>
        <time>2023-08-12T10:04:50Z</time>
      </trkpt>
      <trkpt lat="48.04101" lon="7.11324">
        <ele>534.4</ele>
        <time>2023-08-12T10:04:51Z</time>
      </trkpt>
      <trkpt lat="48.041" lon="7.11323">
        <ele>534.7</ele>
        <time>2023-08-12T10:04:52Z</time>
      </trkpt>
      <trkpt lat="48.04099" lon="7.11322">
        <ele>535.7</ele>
        <time>2023-08-12T10:04:53Z</time>
      </trkpt>
      <trkpt lat="48.04098" lon="7.11321">
        <ele>535.4</ele>
        <time>2023-08-12T10:04:54Z</time>
      </trkpt>
      <trkpt lat="48.04096" lon="7.1132">
        <ele>535.7</ele>
        <time>2023-08-12T10:04:55Z</time>
      </trkpt>
      <trkpt lat="48.04095" lon="7.11318">
        <ele>536.8</ele>
        <time>2023-08-12T10:04:56Z</time>
      </trkpt>
      <trkpt lat="48.04092" lon="7.11316">
        <ele>537.4</ele>
        <time>2023-08-12T10:04:57Z</time>
      </trkpt>
      <trkpt lat="48.04091" lon="7.11315">
        <ele>537.7</ele>
        <time>2023-08-12T10:04:58Z</time>
      </trkpt>
      <trkpt lat="48.04091" lon="7.11314">
        <ele>538</ele>
        <time>2023-08-12T10:04:59Z</time>
      </trkpt>
      <trkpt lat="48.0409" lon="7.11313">
        <ele>538.7</ele>
        <time>2023-08-12T10:05:00Z</time>
      </trkpt>
      <trkpt lat="48.04089" lon="7.11312">
        <ele>539</ele>
        <time>2023-08-12T10:05:01Z</time>
      </trkpt>
      <trkpt lat="48.04088" lon="7.11311">
        <ele>539.3</ele>
        <time>2023-08-12T10:05:02Z</time>
      </trkpt>
      <trkpt lat="48.04087" lon="7.1131">
        <ele>540.5</ele>
        <time>2023-08-12T10:05:03Z</time>
      </trkpt>
      <trkpt lat="48.04086" lon="7.11309">
        <ele>540.4</ele>
        <time>2023-08-12T10:05:04Z</time>
      </trkpt>
      <trkpt lat="48.04085" lon="7.11307">
        <ele>540.6</ele>
        <time>2023-08-12T10:05:05Z</time>
      </trkpt>
      <trkpt lat="48.04085" lon="7.11305">
        <ele>541.9</ele>
        <time>2023-08-12T10:05:06Z</time>
      </trkpt>
      <trkpt lat="48.04084" lon="7.11304">
        <ele>541.8</ele>
        <time>2023-08-12T10:05:07Z</time>
      </trkpt>
      <trkpt lat="48.04084" lon="7.11302">
        <ele>542</ele>
        <time>2023-08-12T10:05:08Z</time>
      </trkpt>
      <trkpt lat="48.04083" lon="7.11301">
        <ele>542.3</ele>
        <time>2023-08-12T10:05:09Z</time>
      </trkpt>
      <trkpt lat="48.04082" lon="7.11299">
        <ele>542.2</ele>
        <time>2023-08-12T10:05:10Z</time>
      </trkpt>
      <trkpt lat="48.04082" lon="7.11298">
        <ele>543.5</ele>
        <time>2023-08-12T10:05:11Z</time>
      </trkpt>
      <trkpt lat="48.04081" lon="7.11297">
        <ele>543.7</ele>
        <time>2023-08-12T10:05:12Z</time>
      </trkpt>
      <trkpt lat="48.0408" lon="7.11296">
        <ele>543.6</ele>
        <time>2023-08-12T10:05:13Z</time>
      </trkpt>
      <trkpt lat="48.04079" lon="7.11295">
        <ele>544.9</ele>
        <time>2023-08-12T10:05:14Z</time>
      </trkpt>
      <trkpt lat="48.04078" lon="7.11293">
        <ele>544.8</ele>
        <time>2023-08-12T10:05:15Z</time>
      </trkpt>
      <trkpt lat="48.04077" lon="7.11292">
        <ele>544.7</ele>
        <time>2023-08-12T10:05:16Z</time>
      </trkpt>
      <trkpt lat="48.04077" lon="7.1129">
        <ele>544.7</ele>
        <time>2023-08-12T10:05:17Z</time>
      </trkpt>
      <trkpt lat="48.04075" lon="7.11288">
        <ele>544.6</ele>
        <time>2023-08-12T10:05:18Z</time>
      </trkpt>
      <trkpt lat="48.04075" lon="7.11286">
        <ele>544.5</ele>
        <time>2023-08-12T10:05:19Z</time>
      </trkpt>
      <trkpt lat="48.04073" lon="7.11284">
        <ele>544.4</ele>
        <time>2023-08-12T10:05:20Z</time>
      </trkpt>
      <trkpt lat="48.04071" lon="7.11282">
        <ele>544.3</ele>
        <time>2023-08-12T10:05:21Z</time>
      </trkpt>
      <trkpt lat="48.0407" lon="7.11281">
        <ele>544.2</ele>
        <time>2023-08-12T10:05:22Z</time>
      </trkpt>
      <trkpt lat="48.0407" lon="7.11279">
        <ele>544.2</ele>
        <time>2023-08-12T10:05:23Z</time>
      </trkpt>
      <trkpt lat="48.04069" lon="7.11278">
        <ele>544.1</ele>
        <time>2023-08-12T10:05:24Z</time>
      </trkpt>
      <trkpt lat="48.04068" lon="7.11276">
        <ele>544.1</ele>
        <time>2023-08-12T10:05:25Z</time>
      </trkpt>
      <trkpt lat="48.04067" lon="7.11275">
        <ele>544</ele>
        <time>2023-08-12T10:05:26Z</time>
      </trkpt>
      <trkpt lat="48.04065" lon="7.11274">
        <ele>543.9</ele>
        <time>2023-08-12T10:05:27Z</time>
      </trkpt>
      <trkpt lat="48.04064" lon="7.11273">
        <ele>544.1</ele>
        <time>2023-08-12T10:05:28Z</time>
      </trkpt>
      <trkpt lat="48.04062" lon="7.11271">
        <ele>544.4</ele>
        <time>2023-08-12T10:05:29Z</time>
      </trkpt>
      <trkpt lat="48.0406" lon="7.11269">
        <ele>544.7</ele>
        <time>2023-08-12T10:05:30Z</time>
      </trkpt>
      <trkpt lat="48.04059" lon="7.11268">
        <ele>544.9</ele>
        <time>2023-08-12T10:05:31Z</time>
      </trkpt>
      <trkpt lat="48.04058" lon="7.11266">
        <ele>545.1</ele>
        <time>2023-08-12T10:05:32Z</time>
      </trkpt>
      <trkpt lat="48.04058" lon="7.11263">
        <ele>545.3</ele>
        <time>2023-08-12T10:05:33Z</time>
      </trkpt>
      <trkpt lat="48.04057" lon="7.11261">
        <ele>545.5</ele>
        <time>2023-08-12T10:05:34Z</time>
      </trkpt>
      <trkpt lat="48.04057" lon="7.11259">
        <ele>545.7</ele>
        <time>2023-08-12T10:05:35Z</time>
      </trkpt>
      <trkpt lat="48.04056" lon="7.11257">
        <ele>545.8</ele>
        <time>2023-08-12T10:05:36Z</time>
      </trkpt>
      <trkpt lat="48.04055" lon="7.11256">
        <ele>546</ele>
        <time>2023-08-12T10:05:37Z</time>
      </trkpt>
      <trkpt lat="48.04055" lon="7.11254">
        <ele>546.1</ele>
        <time>2023-08-12T10:05:38Z</time>
      </trkpt>
      <trkpt lat="48.04054" lon="7.11251">
        <ele>546.3</ele>
        <time>2023-08-12T10:05:39Z</time>
      </trkpt>
      <trkpt lat="48.04054" lon="7.11249">
        <ele>546.5</ele>
        <time>2023-08-12T10:05:40Z</time>
      </trkpt>
      <trkpt lat="48.04054" lon="7.11246">
        <ele>546.7</ele>
        <time>2023-08-12T10:05:41Z</time>
      </trkpt>
      <trkpt lat="48.04053" lon="7.11244">
        <ele>546.9</ele>
        <time>2023-08-12T10:05:42Z</time>
      </trkpt>
      <trkpt lat="48.04052" lon="7.11241">
        <ele>547.2</ele>
        <time>2023-08-12T10:05:43Z</time>
      </trkpt>
      <trkpt lat="48.04051" lon="7.11239">
        <ele>547.4</ele>
        <time>2023-08-12T10:05:44Z</time>
      </trkpt>
      <trkpt lat="48.04049" lon="7.11237">
        <ele>547.6</ele>
        <time>2023-08-12T10:05:45Z</time>
      </trkpt>
      <trkpt lat="48.04049" lon="7.11235">
        <ele>547.7</ele>
        <time>2023-08-12T10:05:46Z</time>
      </trkpt>
      <trkpt lat="48.04048" lon="7.11234">
        <ele>547.9</ele>
        <time>2023-08-12T10:05:47Z</time>
      </trkpt>
      <trkpt lat="48.04048" lon="7.11233">
        <ele>547.9</ele>
        <time>2023-08-12T10:05:48Z</time>
      </trkpt>
      <trkpt lat="48.04048" lon="7.11231">
        <ele>548</ele>
        <time>2023-08-12T10:05:49Z</time>
      </trkpt>
      <trkpt lat="48.04048" lon="7.1123">
        <ele>548.2</ele>
        <time>2023-08-12T10:05:50Z</time>
      </trkpt>
      <trkpt lat="48.04047" lon="7.11228">
        <ele>548.3</ele>
        <time>2023-08-12T10:05:51Z</time>
      </trkpt>
      <trkpt lat="48.04046" lon="7.11226">
        <ele>548.5</ele>
        <time>2023-08-12T10:05:52Z</time>
      </trkpt>
      <trkpt lat="48.04046" lon="7.11224">
        <ele>548.6</ele>
        <time>2023-08-12T10:05:53Z</time>
      </trkpt>
      <trkpt lat="48.04045" lon="7.11223">
        <ele>548.8</ele>
        <time>2023-08-12T10:05:54Z</time>
      </trkpt>
      <trkpt lat="48.04044" lon="7.1122">
        <ele>549</ele>
        <time>2023-08-12T10:05:55Z</time>
      </trkpt>
      <trkpt lat="48.04043" lon="7.11218">
        <ele>549.2</ele>
        <time>2023-08-12T10:05:56Z</time>
      </trkpt>
      <trkpt lat="48.04043" lon="7.11216">
        <ele>549.4</ele>
        <time>2023-08-12T10:05:57Z</time>
      </trkpt>
      <trkpt lat="48.04042" lon="7.11213">
        <ele>549.6</ele>
        <time>2023-08-12T10:05:58Z</time>
      </trkpt>
      <trkpt lat="48.04041" lon="7.1121">
        <ele>550</ele>
        <time>2023-08-12T10:05:59Z</time>
      </trkpt>
      <trkpt lat="48.0404" lon="7.11207">
        <ele>550.2</ele>
        <time>2023-08-12T10:06:00Z</time>
      </trkpt>
      <trkpt lat="48.0404" lon="7.11206">
        <ele>550.3</ele>
        <time>2023-08-12T10:06:01Z</time>
      </trkpt>
      <trkpt lat="48.0404" lon="7.11204">
        <ele>550.5</ele>
        <time>2023-08-12T10:06:02Z</time>
      </trkpt>
      <trkpt lat="48.0404" lon="7.11202">
        <ele>550.6</ele>
        <time>2023-08-12T10:06:03Z</time>
      </trkpt>
      <trkpt lat="48.0404" lon="7.112">
        <ele>550.8</ele>
        <time>2023-08-12T10:06:04Z</time>
      </trkpt>
      <trkpt lat="48.04039" lon="7.11197">
        <ele>551</ele>
        <time>2023-08-12T10:06:05Z</time>
      </trkpt>
      <trkpt lat="48.04039" lon="7.11196">
        <ele>551.2</ele>
        <time>2023-08-12T10:06:06Z</time>
      </trkpt>
      <trkpt lat="48.04037" lon="7.11194">
        <ele>551.5</ele>
        <time>2023-08-12T10:06:07Z</time>
      </trkpt>
      <trkpt lat="48.04037" lon="7.11191">
        <ele>551.7</ele>
        <time>2023-08-12T10:06:08Z</time>
      </trkpt>
      <trkpt lat="48.04038" lon="7.11189">
        <ele>552</ele>
        <time>2023-08-12T10:06:09Z</time>
      </trkpt>
      <trkpt lat="48.04036" lon="7.11187">
        <ele>552.3</ele>
        <time>2023-08-12T10:06:10Z</time>
      </trkpt>
      <trkpt lat="48.04035" lon="7.11186">
        <ele>552.5</ele>
        <time>2023-08-12T10:06:11Z</time>
      </trkpt>
      <trkpt lat="48.04033" lon="7.11183">
        <ele>552.8</ele>
        <time>2023-08-12T10:06:12Z</time>
      </trkpt>
      <trkpt lat="48.04032" lon="7.11179">
        <ele>553.2</ele>
        <time>2023-08-12T10:06:13Z</time>
      </trkpt>
      <trkpt lat="48.04031" lon="7.11176">
        <ele>553.6</ele>
        <time>2023-08-12T10:06:14Z</time>
      </trkpt>
      <trkpt lat="48.04031" lon="7.11174">
        <ele>553.8</ele>
        <time>2023-08-12T10:06:15Z</time>
      </trkpt>
      <trkpt lat="48.0403" lon="7.11171">
        <ele>554.2</ele>
        <time>2023-08-12T10:06:16Z</time>
      </trkpt>
      <trkpt lat="48.0403" lon="7.11168">
        <ele>554.5</ele>
        <time>2023-08-12T10:06:17Z</time>
      </trkpt>
      <trkpt lat="48.04029" lon="7.11165">
        <ele>554.7</ele>
        <time>2023-08-12T10:06:18Z</time>
      </trkpt>
      <trkpt lat="48.04028" lon="7.11163">
        <ele>555</ele>
        <time>2023-08-12T10:06:19Z</time>
      </trkpt>
      <trkpt lat="48.04028" lon="7.11161">
        <ele>555.3</ele>
        <time>2023-08-12T10:06:20Z</time>
      </trkpt>
      <trkpt lat="48.04027" lon="7.11158">
        <ele>555.6</ele>
        <time>2023-08-12T10:06:21Z</time>
      </trkpt>
      <trkpt lat="48.04025" lon="7.11156">
        <ele>555.8</ele>
        <time>2023-08-12T10:06:22Z</time>
      </trkpt>
      <trkpt lat="48.04024" lon="7.11154">
        <ele>556</ele>
        <time>2023-08-12T10:06:23Z</time>
      </trkpt>
      <trkpt lat="48.04024" lon="7.11152">
        <ele>556.2</ele>
        <time>2023-08-12T10:06:24Z</time>
      </trkpt>
      <trkpt lat="48.04023" lon="7.11151">
        <ele>556.3</ele>
        <time>2023-08-12T10:06:25Z</time>
      </trkpt>
      <trkpt lat="48.04023" lon="7.11149">
        <ele>556.5</ele>
        <time>2023-08-12T10:06:26Z</time>
      </trkpt>
      <trkpt lat="48.04023" lon="7.11147">
        <ele>556.7</ele>
        <time>2023-08-12T10:06:27Z</time>
      </trkpt>
      <trkpt lat="48.04023" lon="7.11144">
        <ele>556.9</ele>
        <time>2023-08-12T10:06:28Z</time>
      </trkpt>
      <trkpt lat="48.04023" lon="7.11142">
        <ele>557.1</ele>
        <time>2023-08-12T10:06:29Z</time>
      </trkpt>
      <trkpt lat="48.04023" lon="7.11139">
        <ele>557.3</ele>
        <time>2023-08-12T10:06:30Z</time>
      </trkpt>
      <trkpt lat="48.04023" lon="7.11138">
        <ele>557.4</ele>
        <time>2023-08-12T10:06:31Z</time>
      </trkpt>
      <trkpt lat="48.04023" lon="7.11136">
        <ele>557.5</ele>
        <time>2023-08-12T10:06:32Z</time>
      </trkpt>
      <trkpt lat="48.04023" lon="7.11135">
        <ele>557.7</ele>
        <time>2023-08-12T10:06:33Z</time>
      </trkpt>
      <trkpt lat="48.04023" lon="7.11133">
        <ele>557.8</ele>
        <time>2023-08-12T10:06:34Z</time>
      </trkpt>
      <trkpt lat="48.04022" lon="7.11131">
        <ele>558</ele>
        <time>2023-08-12T10:06:35Z</time>
      </trkpt>
      <trkpt lat="48.04021" lon="7.11128">
        <ele>558.3</ele>
        <time>2023-08-12T10:06:36Z</time>
      </trkpt>
      <trkpt lat="48.0402" lon="7.11126">
        <ele>558.5</ele>
        <time>2023-08-12T10:06:37Z</time>
      </trkpt>
      <trkpt lat="48.04018" lon="7.11124">
        <ele>558.8</ele>
        <time>2023-08-12T10:06:38Z</time>
      </trkpt>
      <trkpt lat="48.04018" lon="7.11121">
        <ele>559</ele>
        <time>2023-08-12T10:06:39Z</time>
      </trkpt>
      <trkpt lat="48.04016" lon="7.11119">
        <ele>559.3</ele>
        <time>2023-08-12T10:06:40Z</time>
      </trkpt>
      <trkpt lat="48.04015" lon="7.11118">
        <ele>559.5</ele>
        <time>2023-08-12T10:06:41Z</time>
      </trkpt>
      <trkpt lat="48.04014" lon="7.11116">
        <ele>559.7</ele>
        <time>2023-08-12T10:06:42Z</time>
      </trkpt>
      <trkpt lat="48.04013" lon="7.11114">
        <ele>560</ele>
        <time>2023-08-12T10:06:43Z</time>
      </trkpt>
      <trkpt lat="48.04012" lon="7.11112">
        <ele>560.2</ele>
        <time>2023-08-12T10:06:44Z</time>
      </trkpt>
      <trkpt lat="48.04011" lon="7.11109">
        <ele>560.5</ele>
        <time>2023-08-12T10:06:45Z</time>
      </trkpt>
      <trkpt lat="48.04012" lon="7.11107">
        <ele>560.7</ele>
        <time>2023-08-12T10:06:46Z</time>
      </trkpt>
      <trkpt lat="48.04012" lon="7.11106">
        <ele>560.9</ele>
        <time>2023-08-12T10:06:47Z</time>
      </trkpt>
      <trkpt lat="48.04012" lon="7.11104">
        <ele>561.1</ele>
        <time>2023-08-12T10:06:48Z</time>
      </trkpt>
      <trkpt lat="48.04011" lon="7.11102">
        <ele>561.3</ele>
        <time>2023-08-12T10:06:49Z</time>
      </trkpt>
      <trkpt lat="48.04012" lon="7.111">
        <ele>561.5</ele>
        <time>2023-08-12T10:06:50Z</time>
      </trkpt>
      <trkpt lat="48.04011" lon="7.11097">
        <ele>561.8</ele>
        <time>2023-08-12T10:06:51Z</time>
      </trkpt>
      <trkpt lat="48.04009" lon="7.11094">
        <ele>562.2</ele>
        <time>2023-08-12T10:06:52Z</time>
      </trkpt>
      <trkpt lat="48.04007" lon="7.11092">
        <ele>562.5</ele>
        <time>2023-08-12T10:06:53Z</time>
      </trkpt>
      <trkpt lat="48.04006" lon="7.1109">
        <ele>562.8</ele>
        <time>2023-08-12T10:06:54Z</time>
      </trkpt>
      <trkpt lat="48.04007" lon="7.11087">
        <ele>563</ele>
        <time>2023-08-12T10:06:55Z</time>
      </trkpt>
      <trkpt lat="48.04006" lon="7.11086">
        <ele>563.3</ele>
        <time>2023-08-12T10:06:56Z</time>
      </trkpt>
      <trkpt lat="48.04004" lon="7.11083">
        <ele>563.6</ele>
        <time>2023-08-12T10:06:57Z</time>
      </trkpt>
      <trkpt lat="48.04003" lon="7.11081">
        <ele>563.8</ele>
        <time>2023-08-12T10:06:58Z</time>
      </trkpt>
      <trkpt lat="48.04003" lon="7.11079">
        <ele>564</ele>
        <time>2023-08-12T10:06:59Z</time>
      </trkpt>
      <trkpt lat="48.04002" lon="7.11076">
        <ele>564.3</ele>
        <time>2023-08-12T10:07:00Z</time>
      </trkpt>
      <trkpt lat="48.04001" lon="7.11073">
        <ele>564.6</ele>
        <time>2023-08-12T10:07:01Z</time>
      </trkpt>
      <trkpt lat="48.04" lon="7.1107">
        <ele>564.9</ele>
        <time>2023-08-12T10:07:02Z</time>
      </trkpt>
      <trkpt lat="48.04" lon="7.11068">
        <ele>565</ele>
        <time>2023-08-12T10:07:03Z</time>
      </trkpt>
      <trkpt lat="48.04001" lon="7.11066">
        <ele>565.3</ele>
        <time>2023-08-12T10:07:04Z</time>
      </trkpt>
      <trkpt lat="48.04001" lon="7.11064">
        <ele>565.5</ele>
        <time>2023-08-12T10:07:05Z</time>
      </trkpt>
      <trkpt lat="48.04002" lon="7.11062">
        <ele>565.6</ele>
        <time>2023-08-12T10:07:06Z</time>
      </trkpt>
      <trkpt lat="48.04001" lon="7.11058">
        <ele>566</ele>
        <time>2023-08-12T10:07:07Z</time>
      </trkpt>
      <trkpt lat="48.04" lon="7.11055">
        <ele>566.3</ele>
        <time>2023-08-12T10:07:08Z</time>
      </trkpt>
      <trkpt lat="48.03998" lon="7.1105">
        <ele>566.7</ele>
        <time>2023-08-12T10:07:09Z</time>
      </trkpt>
      <trkpt lat="48.03998" lon="7.11047">
        <ele>567</ele>
        <time>2023-08-12T10:07:10Z</time>
      </trkpt>
      <trkpt lat="48.03999" lon="7.11044">
        <ele>567.3</ele>
        <time>2023-08-12T10:07:11Z</time>
      </trkpt>
      <trkpt lat="48.03999" lon="7.11041">
        <ele>567.6</ele>
        <time>2023-08-12T10:07:12Z</time>
      </trkpt>
      <trkpt lat="48.03997" lon="7.11039">
        <ele>567.8</ele>
        <time>2023-08-12T10:07:13Z</time>
      </trkpt>
      <trkpt lat="48.03995" lon="7.11035">
        <ele>568.3</ele>
        <time>2023-08-12T10:07:14Z</time>
      </trkpt>
      <trkpt lat="48.03995" lon="7.11033">
        <ele>568.6</ele>
        <time>2023-08-12T10:07:15Z</time>
      </trkpt>
      <trkpt lat="48.03995" lon="7.11031">
        <ele>568.7</ele>
        <time>2023-08-12T10:07:16Z</time>
      </trkpt>
      <trkpt lat="48.03994" lon="7.11029">
        <ele>569</ele>
        <time>2023-08-12T10:07:17Z</time>
      </trkpt>
      <trkpt lat="48.03993" lon="7.11028">
        <ele>569.1</ele>
        <time>2023-08-12T10:07:18Z</time>
      </trkpt>
      <trkpt lat="48.03993" lon="7.11026">
        <ele>569.3</ele>
        <time>2023-08-12T10:07:19Z</time>
      </trkpt>
      <trkpt lat="48.03993" lon="7.11023">
        <ele>569.6</ele>
        <time>2023-08-12T10:07:20Z</time>
      </trkpt>
      <trkpt lat="48.03994" lon="7.1102">
        <ele>569.9</ele>
        <time>2023-08-12T10:07:21Z</time>
      </trkpt>
      <trkpt lat="48.03993" lon="7.11019">
        <ele>570.1</ele>
        <time>2023-08-12T10:07:22Z</time>
      </trkpt>
      <trkpt lat="48.03993" lon="7.11018">
        <ele>570.2</ele>
        <time>2023-08-12T10:07:23Z</time>
      </trkpt>
      <trkpt lat="48.03992" lon="7.11016">
        <ele>570.4</ele>
        <time>2023-08-12T10:07:24Z</time>
      </trkpt>
      <trkpt lat="48.03992" lon="7.11015">
        <ele>570.5</ele>
        <time>2023-08-12T10:07:25Z</time>
      </trkpt>
      <trkpt lat="48.03992" lon="7.11014">
        <ele>570.7</ele>
        <time>2023-08-12T10:07:26Z</time>
      </trkpt>
      <trkpt lat="48.03993" lon="7.11012">
        <ele>570.8</ele>
        <time>2023-08-12T10:07:27Z</time>
      </trkpt>
      <trkpt lat="48.03993" lon="7.1101">
        <ele>571</ele>
        <time>2023-08-12T10:07:28Z</time>
      </trkpt>
      <trkpt lat="48.0399" lon="7.11007">
        <ele>571.5</ele>
        <time>2023-08-12T10:07:29Z</time>
      </trkpt>
      <trkpt lat="48.0399" lon="7.11006">
        <ele>571.7</ele>
        <time>2023-08-12T10:07:30Z</time>
      </trkpt>
      <trkpt lat="48.0399" lon="7.11004">
        <ele>571.9</ele>
        <time>2023-08-12T10:07:31Z</time>
      </trkpt>
      <trkpt lat="48.03991" lon="7.11002">
        <ele>572.1</ele>
        <time>2023-08-12T10:07:32Z</time>
      </trkpt>
      <trkpt lat="48.03992" lon="7.11">
        <ele>572.3</ele>
        <time>2023-08-12T10:07:33Z</time>
      </trkpt>
      <trkpt lat="48.03993" lon="7.10998">
        <ele>572.6</ele>
        <time>2023-08-12T10:07:34Z</time>
      </trkpt>
      <trkpt lat="48.03993" lon="7.10996">
        <ele>572.8</ele>
        <time>2023-08-12T10:07:35Z</time>
      </trkpt>
      <trkpt lat="48.03993" lon="7.10994">
        <ele>573</ele>
        <time>2023-08-12T10:07:36Z</time>
      </trkpt>
      <trkpt lat="48.03994" lon="7.10991">
        <ele>573.3</ele>
        <time>2023-08-12T10:07:37Z</time>
      </trkpt>
      <trkpt lat="48.03994" lon="7.10989">
        <ele>573.5</ele>
        <time>2023-08-12T10:07:38Z</time>
      </trkpt>
      <trkpt lat="48.03994" lon="7.10986">
        <ele>574.3</ele>
        <time>2023-08-12T10:07:39Z</time>
      </trkpt>
      <trkpt lat="48.03994" lon="7.10983">
        <ele>574.5</ele>
        <time>2023-08-12T10:07:40Z</time>
      </trkpt>
      <trkpt lat="48.03995" lon="7.10981">
        <ele>574.7</ele>
        <time>2023-08-12T10:07:41Z</time>
      </trkpt>
      <trkpt lat="48.03993" lon="7.10978">
        <ele>575</ele>
        <time>2023-08-12T10:07:42Z</time>
      </trkpt>
      <trkpt lat="48.03994" lon="7.10975">
        <ele>575.3</ele>
        <time>2023-08-12T10:07:43Z</time>
      </trkpt>
      <trkpt lat="48.03994" lon="7.10973">
        <ele>575.4</ele>
        <time>2023-08-12T10:07:44Z</time>
      </trkpt>
      <trkpt lat="48.03994" lon="7.10971">
        <ele>575.6</ele>
        <time>2023-08-12T10:07:45Z</time>
      </trkpt>
      <trkpt lat="48.03995" lon="7.10969">
        <ele>575.8</ele>
        <time>2023-08-12T10:07:46Z</time>
      </trkpt>
      <trkpt lat="48.03995" lon="7.10967">
        <ele>576</ele>
        <time>2023-08-12T10:07:47Z</time>
      </trkpt>
      <trkpt lat="48.03996" lon="7.10965">
        <ele>576.2</ele>
        <time>2023-08-12T10:07:48Z</time>
      </trkpt>
      <trkpt lat="48.03996" lon="7.10963">
        <ele>576.4</ele>
        <time>2023-08-12T10:07:49Z</time>
      </trkpt>
      <trkpt lat="48.03997" lon="7.10962">
        <ele>576.6</ele>
        <time>2023-08-12T10:07:50Z</time>
      </trkpt>
      <trkpt lat="48.03997" lon="7.1096">
        <ele>576.8</ele>
        <time>2023-08-12T10:07:51Z</time>
      </trkpt>
      <trkpt lat="48.03997" lon="7.10957">
        <ele>577.1</ele>
        <time>2023-08-12T10:07:52Z</time>
      </trkpt>
      <trkpt lat="48.03999" lon="7.10954">
        <ele>577.5</ele>
        <time>2023-08-12T10:07:53Z</time>
      </trkpt>
      <trkpt lat="48.04" lon="7.10952">
        <ele>577.8</ele>
        <time>2023-08-12T10:07:54Z</time>
      </trkpt>
      <trkpt lat="48.04001" lon="7.10948">
        <ele>578.2</ele>
        <time>2023-08-12T10:07:55Z</time>
      </trkpt>
      <trkpt lat="48.04" lon="7.10945">
        <ele>578.6</ele>
        <time>2023-08-12T10:07:56Z</time>
      </trkpt>
      <trkpt lat="48.04" lon="7.10942">
        <ele>579</ele>
        <time>2023-08-12T10:07:57Z</time>
      </trkpt>
      <trkpt lat="48.04" lon="7.10939">
        <ele>579.4</ele>
        <time>2023-08-12T10:07:58Z</time>
      </trkpt>
      <trkpt lat="48.04" lon="7.10936">
        <ele>579.6</ele>
        <time>2023-08-12T10:07:59Z</time>
      </trkpt>
      <trkpt lat="48.04001" lon="7.10935">
        <ele>579.9</ele>
        <time>2023-08-12T10:08:00Z</time>
      </trkpt>
      <trkpt lat="48.04002" lon="7.10933">
        <ele>580.2</ele>
        <time>2023-08-12T10:08:01Z</time>
      </trkpt>
      <trkpt lat="48.04004" lon="7.10932">
        <ele>580.5</ele>
        <time>2023-08-12T10:08:02Z</time>
      </trkpt>
      <trkpt lat="48.04005" lon="7.10931">
        <ele>580.9</ele>
        <time>2023-08-12T10:08:03Z</time>
      </trkpt>
      <trkpt lat="48.04007" lon="7.10929">
        <ele>581.2</ele>
        <time>2023-08-12T10:08:04Z</time>
      </trkpt>
      <trkpt lat="48.04006" lon="7.10926">
        <ele>581.5</ele>
        <time>2023-08-12T10:08:05Z</time>
      </trkpt>
      <trkpt lat="48.04006" lon="7.10924">
        <ele>581.7</ele>
        <time>2023-08-12T10:08:06Z</time>
      </trkpt>
      <trkpt lat="48.04007" lon="7.10922">
        <ele>582</ele>
        <time>2023-08-12T10:08:07Z</time>
      </trkpt>
      <trkpt lat="48.04007" lon="7.10921">
        <ele>582.1</ele>
        <time>2023-08-12T10:08:08Z</time>
      </trkpt>
      <trkpt lat="48.04007" lon="7.10919">
        <ele>582.3</ele>
        <time>2023-08-12T10:08:09Z</time>
      </trkpt>
      <trkpt lat="48.04007" lon="7.10917">
        <ele>582.5</ele>
        <time>2023-08-12T10:08:10Z</time>
      </trkpt>
      <trkpt lat="48.04006" lon="7.10915">
        <ele>582.8</ele>
        <time>2023-08-12T10:08:11Z</time>
      </trkpt>
      <trkpt lat="48.04006" lon="7.10912">
        <ele>583.1</ele>
        <time>2023-08-12T10:08:12Z</time>
      </trkpt>
      <trkpt lat="48.04006" lon="7.1091">
        <ele>583.3</ele>
        <time>2023-08-12T10:08:13Z</time>
      </trkpt>
      <trkpt lat="48.04007" lon="7.10908">
        <ele>583.6</ele>
        <time>2023-08-12T10:08:14Z</time>
      </trkpt>
      <trkpt lat="48.04008" lon="7.10906">
        <ele>583.9</ele>
        <time>2023-08-12T10:08:15Z</time>
      </trkpt>
      <trkpt lat="48.04008" lon="7.10904">
        <ele>584.1</ele>
        <time>2023-08-12T10:08:16Z</time>
      </trkpt>
      <trkpt lat="48.04006" lon="7.10901">
        <ele>584.5</ele>
        <time>2023-08-12T10:08:17Z</time>
      </trkpt>
      <trkpt lat="48.04003" lon="7.10896">
        <ele>585.1</ele>
        <time>2023-08-12T10:08:18Z</time>
      </trkpt>
      <trkpt lat="48.04003" lon="7.10894">
        <ele>585.4</ele>
        <time>2023-08-12T10:08:19Z</time>
      </trkpt>
      <trkpt lat="48.04004" lon="7.10892">
        <ele>585.6</ele>
        <time>2023-08-12T10:08:20Z</time>
      </trkpt>
      <trkpt lat="48.04005" lon="7.10891">
        <ele>585.8</ele>
        <time>2023-08-12T10:08:21Z</time>
      </trkpt>
      <trkpt lat="48.04006" lon="7.10889">
        <ele>586.1</ele>
        <time>2023-08-12T10:08:22Z</time>
      </trkpt>
      <trkpt lat="48.04007" lon="7.10887">
        <ele>586.3</ele>
        <time>2023-08-12T10:08:23Z</time>
      </trkpt>
      <trkpt lat="48.04008" lon="7.10885">
        <ele>586.5</ele>
        <time>2023-08-12T10:08:24Z</time>
      </trkpt>
      <trkpt lat="48.04008" lon="7.10883">
        <ele>586.7</ele>
        <time>2023-08-12T10:08:25Z</time>
      </trkpt>
      <trkpt lat="48.04008" lon="7.10881">
        <ele>586.9</ele>
        <time>2023-08-12T10:08:26Z</time>
      </trkpt>
      <trkpt lat="48.04008" lon="7.10879">
        <ele>587.1</ele>
        <time>2023-08-12T10:08:27Z</time>
      </trkpt>
      <trkpt lat="48.04009" lon="7.10878">
        <ele>587.3</ele>
        <time>2023-08-12T10:08:28Z</time>
      </trkpt>
      <trkpt lat="48.0401" lon="7.10875">
        <ele>587.5</ele>
        <time>2023-08-12T10:08:29Z</time>
      </trkpt>
      <trkpt lat="48.04011" lon="7.10873">
        <ele>587.8</ele>
        <time>2023-08-12T10:08:30Z</time>
      </trkpt>
      <trkpt lat="48.04011" lon="7.10871">
        <ele>588</ele>
        <time>2023-08-12T10:08:31Z</time>
      </trkpt>
      <trkpt lat="48.04011" lon="7.10869">
        <ele>588.2</ele>
        <time>2023-08-12T10:08:32Z</time>
      </trkpt>
      <trkpt lat="48.04011" lon="7.10867">
        <ele>588.4</ele>
        <time>2023-08-12T10:08:33Z</time>
      </trkpt>
      <trkpt lat="48.04011" lon="7.10865">
        <ele>588.5</ele>
        <time>2023-08-12T10:08:34Z</time>
      </trkpt>
      <trkpt lat="48.04011" lon="7.10864">
        <ele>588.7</ele>
        <time>2023-08-12T10:08:35Z</time>
      </trkpt>
      <trkpt lat="48.04012" lon="7.10863">
        <ele>588.8</ele>
        <time>2023-08-12T10:08:36Z</time>
      </trkpt>
      <trkpt lat="48.04012" lon="7.10861">
        <ele>589</ele>
        <time>2023-08-12T10:08:37Z</time>
      </trkpt>
      <trkpt lat="48.04013" lon="7.10859">
        <ele>589.1</ele>
        <time>2023-08-12T10:08:38Z</time>
      </trkpt>
      <trkpt lat="48.04013" lon="7.10858">
        <ele>589.3</ele>
        <time>2023-08-12T10:08:39Z</time>
      </trkpt>
      <trkpt lat="48.04013" lon="7.10856">
        <ele>589.4</ele>
        <time>2023-08-12T10:08:40Z</time>
      </trkpt>
      <trkpt lat="48.04014" lon="7.10855">
        <ele>589.6</ele>
        <time>2023-08-12T10:08:41Z</time>
      </trkpt>
      <trkpt lat="48.04015" lon="7.10854">
        <ele>589.7</ele>
        <time>2023-08-12T10:08:42Z</time>
      </trkpt>
      <trkpt lat="48.04015" lon="7.10852">
        <ele>589.9</ele>
        <time>2023-08-12T10:08:43Z</time>
      </trkpt>
      <trkpt lat="48.04015" lon="7.10849">
        <ele>590.2</ele>
        <time>2023-08-12T10:08:44Z</time>
      </trkpt>
      <trkpt lat="48.04016" lon="7.10847">
        <ele>590.5</ele>
        <time>2023-08-12T10:08:45Z</time>
      </trkpt>
      <trkpt lat="48.04016" lon="7.10844">
        <ele>590.8</ele>
        <time>2023-08-12T10:08:46Z</time>
      </trkpt>
      <trkpt lat="48.04017" lon="7.10842">
        <ele>591.1</ele>
        <time>2023-08-12T10:08:47Z</time>
      </trkpt>
      <trkpt lat="48.04017" lon="7.1084">
        <ele>591.3</ele>
        <time>2023-08-12T10:08:48Z</time>
      </trkpt>
      <trkpt lat="48.04017" lon="7.10837">
        <ele>591.6</ele>
        <time>2023-08-12T10:08:49Z</time>
      </trkpt>
      <trkpt lat="48.04018" lon="7.10835">
        <ele>591.9</ele>
        <time>2023-08-12T10:08:50Z</time>
      </trkpt>
      <trkpt lat="48.04018" lon="7.10834">
        <ele>592</ele>
        <time>2023-08-12T10:08:51Z</time>
      </trkpt>
      <trkpt lat="48.04019" lon="7.10832">
        <ele>592.2</ele>
        <time>2023-08-12T10:08:52Z</time>
      </trkpt>
      <trkpt lat="48.0402" lon="7.1083">
        <ele>592.5</ele>
        <time>2023-08-12T10:08:53Z</time>
      </trkpt>
      <trkpt lat="48.04021" lon="7.10828">
        <ele>592.8</ele>
        <time>2023-08-12T10:08:54Z</time>
      </trkpt>
      <trkpt lat="48.04022" lon="7.10825">
        <ele>593.2</ele>
        <time>2023-08-12T10:08:55Z</time>
      </trkpt>
      <trkpt lat="48.04023" lon="7.10823">
        <ele>593.5</ele>
        <time>2023-08-12T10:08:56Z</time>
      </trkpt>
      <trkpt lat="48.04024" lon="7.10821">
        <ele>593.7</ele>
        <time>2023-08-12T10:08:57Z</time>
      </trkpt>
      <trkpt lat="48.04024" lon="7.10818">
        <ele>593.9</ele>
        <time>2023-08-12T10:08:58Z</time>
      </trkpt>
      <trkpt lat="48.04025" lon="7.10816">
        <ele>594.2</ele>
        <time>2023-08-12T10:08:59Z</time>
      </trkpt>
      <trkpt lat="48.04024" lon="7.10814">
        <ele>594.5</ele>
        <time>2023-08-12T10:09:00Z</time>
      </trkpt>
      <trkpt lat="48.04025" lon="7.10812">
        <ele>594.6</ele>
        <time>2023-08-12T10:09:01Z</time>
      </trkpt>
      <trkpt lat="48.04025" lon="7.1081">
        <ele>594.8</ele>
        <time>2023-08-12T10:09:02Z</time>
      </trkpt>
      <trkpt lat="48.04024" lon="7.10807">
        <ele>595.2</ele>
        <time>2023-08-12T10:09:03Z</time>
      </trkpt>
      <trkpt lat="48.04025" lon="7.10805">
        <ele>595.4</ele>
        <time>2023-08-12T10:09:04Z</time>
      </trkpt>
      <trkpt lat="48.04024" lon="7.10803">
        <ele>595.7</ele>
        <time>2023-08-12T10:09:05Z</time>
      </trkpt>
      <trkpt lat="48.04022" lon="7.108">
        <ele>596.1</ele>
        <time>2023-08-12T10:09:06Z</time>
      </trkpt>
      <trkpt lat="48.04022" lon="7.10797">
        <ele>596.4</ele>
        <time>2023-08-12T10:09:07Z</time>
      </trkpt>
      <trkpt lat="48.04022" lon="7.10795">
        <ele>596.6</ele>
        <time>2023-08-12T10:09:08Z</time>
      </trkpt>
      <trkpt lat="48.04023" lon="7.10793">
        <ele>596.8</ele>
        <time>2023-08-12T10:09:09Z</time>
      </trkpt>
      <trkpt lat="48.04022" lon="7.10792">
        <ele>597</ele>
        <time>2023-08-12T10:09:10Z</time>
      </trkpt>
      <trkpt lat="48.04023" lon="7.1079">
        <ele>597.2</ele>
        <time>2023-08-12T10:09:11Z</time>
      </trkpt>
      <trkpt lat="48.04024" lon="7.10787">
        <ele>597.5</ele>
        <time>2023-08-12T10:09:12Z</time>
      </trkpt>
      <trkpt lat="48.04025" lon="7.10785">
        <ele>597.8</ele>
        <time>2023-08-12T10:09:13Z</time>
      </trkpt>
      <trkpt lat="48.04026" lon="7.10783">
        <ele>598.1</ele>
        <time>2023-08-12T10:09:14Z</time>
      </trkpt>
      <trkpt lat="48.04027" lon="7.1078">
        <ele>598.4</ele>
        <time>2023-08-12T10:09:15Z</time>
      </trkpt>
      <trkpt lat="48.04027" lon="7.1078">
        <ele>598.5</ele>
        <time>2023-08-12T10:09:16Z</time>
      </trkpt>
      <trkpt lat="48.04028" lon="7.10777">
        <ele>598.8</ele>
        <time>2023-08-12T10:09:17Z</time>
      </trkpt>
      <trkpt lat="48.04029" lon="7.10774">
        <ele>599.1</ele>
        <time>2023-08-12T10:09:18Z</time>
      </trkpt>
      <trkpt lat="48.04029" lon="7.10771">
        <ele>599.4</ele>
        <time>2023-08-12T10:09:19Z</time>
      </trkpt>
      <trkpt lat="48.04029" lon="7.10768">
        <ele>599.7</ele>
        <time>2023-08-12T10:09:20Z</time>
      </trkpt>
      <trkpt lat="48.04029" lon="7.10766">
        <ele>600</ele>
        <time>2023-08-12T10:09:21Z</time>
      </trkpt>
      <trkpt lat="48.04029" lon="7.10764">
        <ele>600.2</ele>
        <time>2023-08-12T10:09:22Z</time>
      </trkpt>
      <trkpt lat="48.04029" lon="7.10763">
        <ele>600.4</ele>
        <time>2023-08-12T10:09:23Z</time>
      </trkpt>
      <trkpt lat="48.0403" lon="7.10762">
        <ele>600.4</ele>
        <time>2023-08-12T10:09:24Z</time>
      </trkpt>
      <trkpt lat="48.0403" lon="7.1076">
        <ele>600.6</ele>
        <time>2023-08-12T10:09:25Z</time>
      </trkpt>
      <trkpt lat="48.0403" lon="7.10758">
        <ele>600.8</ele>
        <time>2023-08-12T10:09:26Z</time>
      </trkpt>
      <trkpt lat="48.04031" lon="7.10757">
        <ele>601</ele>
        <time>2023-08-12T10:09:27Z</time>
      </trkpt>
      <trkpt lat="48.04032" lon="7.10755">
        <ele>601.2</ele>
        <time>2023-08-12T10:09:28Z</time>
      </trkpt>
      <trkpt lat="48.04033" lon="7.10753">
        <ele>601.5</ele>
        <time>2023-08-12T10:09:29Z</time>
      </trkpt>
      <trkpt lat="48.04033" lon="7.10751">
        <ele>601.7</ele>
        <time>2023-08-12T10:09:30Z</time>
      </trkpt>
      <trkpt lat="48.04034" lon="7.10748">
        <ele>602</ele>
        <time>2023-08-12T10:09:31Z</time>
      </trkpt>
      <trkpt lat="48.04034" lon="7.10747">
        <ele>602.1</ele>
        <time>2023-08-12T10:09:32Z</time>
      </trkpt>
      <trkpt lat="48.04035" lon="7.10746">
        <ele>602.3</ele>
        <time>2023-08-12T10:09:33Z</time>
      </trkpt>
      <trkpt lat="48.04036" lon="7.10744">
        <ele>602.5</ele>
        <time>2023-08-12T10:09:34Z</time>
      </trkpt>
      <trkpt lat="48.04036" lon="7.10742">
        <ele>602.7</ele>
        <time>2023-08-12T10:09:35Z</time>
      </trkpt>
      <trkpt lat="48.04036" lon="7.10741">
        <ele>602.9</ele>
        <time>2023-08-12T10:09:36Z</time>
      </trkpt>
      <trkpt lat="48.04036" lon="7.10739">
        <ele>603.1</ele>
        <time>2023-08-12T10:09:37Z</time>
      </trkpt>
      <trkpt lat="48.04036" lon="7.10737">
        <ele>603.3</ele>
        <time>2023-08-12T10:09:38Z</time>
      </trkpt>
      <trkpt lat="48.04036" lon="7.10734">
        <ele>603.5</ele>
        <time>2023-08-12T10:09:39Z</time>
      </trkpt>
      <trkpt lat="48.04037" lon="7.10732">
        <ele>603.8</ele>
        <time>2023-08-12T10:09:40Z</time>
      </trkpt>
      <trkpt lat="48.04037" lon="7.10729">
        <ele>604</ele>
        <time>2023-08-12T10:09:41Z</time>
      </trkpt>
      <trkpt lat="48.04037" lon="7.10727">
        <ele>604.2</ele>
        <time>2023-08-12T10:09:42Z</time>
      </trkpt>
      <trkpt lat="48.04037" lon="7.10725">
        <ele>604.4</ele>
        <time>2023-08-12T10:09:43Z</time>
      </trkpt>
      <trkpt lat="48.04037" lon="7.10723">
        <ele>604.6</ele>
        <time>2023-08-12T10:09:44Z</time>
      </trkpt>
      <trkpt lat="48.04038" lon="7.10721">
        <ele>604.8</ele>
        <time>2023-08-12T10:09:45Z</time>
      </trkpt>
      <trkpt lat="48.04038" lon="7.10719">
        <ele>605.1</ele>
        <time>2023-08-12T10:09:46Z</time>
      </trkpt>
      <trkpt lat="48.04038" lon="7.10716">
        <ele>605.3</ele>
        <time>2023-08-12T10:09:47Z</time>
      </trkpt>
      <trkpt lat="48.04037" lon="7.10713">
        <ele>605.7</ele>
        <time>2023-08-12T10:09:48Z</time>
      </trkpt>
      <trkpt lat="48.04037" lon="7.1071">
        <ele>606</ele>
        <time>2023-08-12T10:09:49Z</time>
      </trkpt>
      <trkpt lat="48.04037" lon="7.10708">
        <ele>606.2</ele>
        <time>2023-08-12T10:09:50Z</time>
      </trkpt>
      <trkpt lat="48.04036" lon="7.10705">
        <ele>606.5</ele>
        <time>2023-08-12T10:09:51Z</time>
      </trkpt>
      <trkpt lat="48.04037" lon="7.10703">
        <ele>606.7</ele>
        <time>2023-08-12T10:09:52Z</time>
      </trkpt>
      <trkpt lat="48.04038" lon="7.10701">
        <ele>607</ele>
        <time>2023-08-12T10:09:53Z</time>
      </trkpt>
      <trkpt lat="48.04039" lon="7.10698">
        <ele>607.3</ele>
        <time>2023-08-12T10:09:54Z</time>
      </trkpt>
      <trkpt lat="48.0404" lon="7.10696">
        <ele>607.5</ele>
        <time>2023-08-12T10:09:55Z</time>
      </trkpt>
      <trkpt lat="48.04041" lon="7.10693">
        <ele>607.8</ele>
        <time>2023-08-12T10:09:56Z</time>
      </trkpt>
      <trkpt lat="48.04041" lon="7.10692">
        <ele>607.9</ele>
        <time>2023-08-12T10:09:57Z</time>
      </trkpt>
      <trkpt lat="48.0404" lon="7.10691">
        <ele>608.1</ele>
        <time>2023-08-12T10:09:58Z</time>
      </trkpt>
      <trkpt lat="48.0404" lon="7.10689">
        <ele>608.3</ele>
        <time>2023-08-12T10:09:59Z</time>
      </trkpt>
      <trkpt lat="48.04042" lon="7.10685">
        <ele>608.8</ele>
        <time>2023-08-12T10:10:00Z</time>
      </trkpt>
      <trkpt lat="48.04042" lon="7.10682">
        <ele>609.1</ele>
        <time>2023-08-12T10:10:01Z</time>
      </trkpt>
      <trkpt lat="48.04043" lon="7.10679">
        <ele>609.4</ele>
        <time>2023-08-12T10:10:02Z</time>
      </trkpt>
      <trkpt lat="48.04043" lon="7.10676">
        <ele>609.7</ele>
        <time>2023-08-12T10:10:03Z</time>
      </trkpt>
      <trkpt lat="48.04041" lon="7.10673">
        <ele>610.1</ele>
        <time>2023-08-12T10:10:04Z</time>
      </trkpt>
      <trkpt lat="48.04041" lon="7.10671">
        <ele>610.3</ele>
        <time>2023-08-12T10:10:05Z</time>
      </trkpt>
      <trkpt lat="48.04043" lon="7.10668">
        <ele>610.6</ele>
        <time>2023-08-12T10:10:06Z</time>
      </trkpt>
      <trkpt lat="48.04044" lon="7.10665">
        <ele>611</ele>
        <time>2023-08-12T10:10:07Z</time>
      </trkpt>
      <trkpt lat="48.04046" lon="7.10662">
        <ele>611.4</ele>
        <time>2023-08-12T10:10:08Z</time>
      </trkpt>
      <trkpt lat="48.04048" lon="7.10659">
        <ele>611.8</ele>
        <time>2023-08-12T10:10:09Z</time>
      </trkpt>
      <trkpt lat="48.04048" lon="7.10656">
        <ele>612</ele>
        <time>2023-08-12T10:10:10Z</time>
      </trkpt>
      <trkpt lat="48.04046" lon="7.10654">
        <ele>612.4</ele>
        <time>2023-08-12T10:10:11Z</time>
      </trkpt>
      <trkpt lat="48.04046" lon="7.10652">
        <ele>612.7</ele>
        <time>2023-08-12T10:10:12Z</time>
      </trkpt>
      <trkpt lat="48.04046" lon="7.10649">
        <ele>612.9</ele>
        <time>2023-08-12T10:10:13Z</time>
      </trkpt>
      <trkpt lat="48.04045" lon="7.10648">
        <ele>613</ele>
        <time>2023-08-12T10:10:14Z</time>
      </trkpt>
      <trkpt lat="48.04045" lon="7.10646">
        <ele>613.2</ele>
        <time>2023-08-12T10:10:15Z</time>
      </trkpt>
      <trkpt lat="48.04046" lon="7.10644">
        <ele>613.5</ele>
        <time>2023-08-12T10:10:16Z</time>
      </trkpt>
      <trkpt lat="48.04047" lon="7.10642">
        <ele>613.8</ele>
        <time>2023-08-12T10:10:17Z</time>
      </trkpt>
      <trkpt lat="48.04048" lon="7.1064">
        <ele>614.1</ele>
        <time>2023-08-12T10:10:18Z</time>
      </trkpt>
      <trkpt lat="48.04047" lon="7.10638">
        <ele>614.4</ele>
        <time>2023-08-12T10:10:19Z</time>
      </trkpt>
      <trkpt lat="48.04046" lon="7.10636">
        <ele>614.6</ele>
        <time>2023-08-12T10:10:20Z</time>
      </trkpt>
      <trkpt lat="48.04046" lon="7.10635">
        <ele>614.7</ele>
        <time>2023-08-12T10:10:21Z</time>
      </trkpt>
      <trkpt lat="48.04046" lon="7.10634">
        <ele>614.8</ele>
        <time>2023-08-12T10:10:22Z</time>
      </trkpt>
      <trkpt lat="48.04046" lon="7.10633">
        <ele>615.1</ele>
        <time>2023-08-12T10:10:23Z</time>
      </trkpt>
      <trkpt lat="48.04045" lon="7.10631">
        <ele>615.2</ele>
        <time>2023-08-12T10:10:24Z</time>
      </trkpt>
      <trkpt lat="48.04045" lon="7.10629">
        <ele>615.5</ele>
        <time>2023-08-12T10:10:25Z</time>
      </trkpt>
      <trkpt lat="48.04045" lon="7.10628">
        <ele>615.7</ele>
        <time>2023-08-12T10:10:26Z</time>
      </trkpt>
      <trkpt lat="48.04045" lon="7.10626">
        <ele>616</ele>
        <time>2023-08-12T10:10:27Z</time>
      </trkpt>
      <trkpt lat="48.04046" lon="7.10624">
        <ele>616.2</ele>
        <time>2023-08-12T10:10:28Z</time>
      </trkpt>
      <trkpt lat="48.04046" lon="7.10623">
        <ele>616.4</ele>
        <time>2023-08-12T10:10:29Z</time>
      </trkpt>
      <trkpt lat="48.04048" lon="7.10621">
        <ele>616.7</ele>
        <time>2023-08-12T10:10:30Z</time>
      </trkpt>
      <trkpt lat="48.04046" lon="7.10619">
        <ele>617.2</ele>
        <time>2023-08-12T10:10:31Z</time>
      </trkpt>
      <trkpt lat="48.04045" lon="7.10617">
        <ele>617.5</ele>
        <time>2023-08-12T10:10:32Z</time>
      </trkpt>
      <trkpt lat="48.04044" lon="7.10616">
        <ele>617.7</ele>
        <time>2023-08-12T10:10:33Z</time>
      </trkpt>
      <trkpt lat="48.04044" lon="7.10615">
        <ele>617.9</ele>
        <time>2023-08-12T10:10:34Z</time>
      </trkpt>
      <trkpt lat="48.04044" lon="7.10612">
        <ele>618.2</ele>
        <time>2023-08-12T10:10:35Z</time>
      </trkpt>
      <trkpt lat="48.04045" lon="7.1061">
        <ele>618.5</ele>
        <time>2023-08-12T10:10:36Z</time>
      </trkpt>
      <trkpt lat="48.04046" lon="7.10608">
        <ele>618.8</ele>
        <time>2023-08-12T10:10:37Z</time>
      </trkpt>
      <trkpt lat="48.04047" lon="7.10606">
        <ele>619.2</ele>
        <time>2023-08-12T10:10:38Z</time>
      </trkpt>
      <trkpt lat="48.04047" lon="7.10604">
        <ele>619.4</ele>
        <time>2023-08-12T10:10:39Z</time>
      </trkpt>
      <trkpt lat="48.04046" lon="7.10602">
        <ele>619.8</ele>
        <time>2023-08-12T10:10:40Z</time>
      </trkpt>
      <trkpt lat="48.04045" lon="7.10599">
        <ele>620.1</ele>
        <time>2023-08-12T10:10:41Z</time>
      </trkpt>
      <trkpt lat="48.04044" lon="7.10596">
        <ele>620.5</ele>
        <time>2023-08-12T10:10:42Z</time>
      </trkpt>
      <trkpt lat="48.04044" lon="7.10594">
        <ele>620.8</ele>
        <time>2023-08-12T10:10:43Z</time>
      </trkpt>
      <trkpt lat="48.04043" lon="7.10593">
        <ele>621.1</ele>
        <time>2023-08-12T10:10:44Z</time>
      </trkpt>
      <trkpt lat="48.04041" lon="7.1059">
        <ele>621.6</ele>
        <time>2023-08-12T10:10:45Z</time>
      </trkpt>
      <trkpt lat="48.0404" lon="7.10587">
        <ele>622.1</ele>
        <time>2023-08-12T10:10:46Z</time>
      </trkpt>
      <trkpt lat="48.04039" lon="7.10584">
        <ele>622.5</ele>
        <time>2023-08-12T10:10:47Z</time>
      </trkpt>
      <trkpt lat="48.04041" lon="7.1058">
        <ele>623.1</ele>
        <time>2023-08-12T10:10:48Z</time>
      </trkpt>
      <trkpt lat="48.0404" lon="7.10577">
        <ele>623.6</ele>
        <time>2023-08-12T10:10:49Z</time>
      </trkpt>
      <trkpt lat="48.04037" lon="7.10573">
        <ele>624.3</ele>
        <time>2023-08-12T10:10:50Z</time>
      </trkpt>
      <trkpt lat="48.04034" lon="7.1057">
        <ele>625.3</ele>
        <time>2023-08-12T10:10:51Z</time>
      </trkpt>
      <trkpt lat="48.04032" lon="7.10568">
        <ele>625.3</ele>
        <time>2023-08-12T10:10:52Z</time>
      </trkpt>
      <trkpt lat="48.04032" lon="7.10568">
        <ele>625.3</ele>
        <time>2023-08-12T10:10:53Z</time>
      </trkpt>
      <trkpt lat="48.04031" lon="7.10566">
        <ele>625.4</ele>
        <time>2023-08-12T10:10:54Z</time>
      </trkpt>
      <trkpt lat="48.04032" lon="7.10564">
        <ele>625.4</ele>
        <time>2023-08-12T10:10:55Z</time>
      </trkpt>
      <trkpt lat="48.04032" lon="7.10562">
        <ele>625.4</ele>
        <time>2023-08-12T10:10:56Z</time>
      </trkpt>
      <trkpt lat="48.04033" lon="7.1056">
        <ele>625.5</ele>
        <time>2023-08-12T10:10:57Z</time>
      </trkpt>
      <trkpt lat="48.04033" lon="7.10559">
        <ele>625.5</ele>
        <time>2023-08-12T10:10:58Z</time>
      </trkpt>
      <trkpt lat="48.04035" lon="7.10556">
        <ele>625.5</ele>
        <time>2023-08-12T10:10:59Z</time>
      </trkpt>
      <trkpt lat="48.04034" lon="7.10555">
        <ele>625.6</ele>
        <time>2023-08-12T10:11:00Z</time>
      </trkpt>
      <trkpt lat="48.04034" lon="7.10552">
        <ele>625.6</ele>
        <time>2023-08-12T10:11:01Z</time>
      </trkpt>
      <trkpt lat="48.04034" lon="7.1055">
        <ele>625.6</ele>
        <time>2023-08-12T10:11:02Z</time>
      </trkpt>
      <trkpt lat="48.04034" lon="7.10548">
        <ele>625.7</ele>
        <time>2023-08-12T10:11:03Z</time>
      </trkpt>
      <trkpt lat="48.04033" lon="7.10546">
        <ele>625.7</ele>
        <time>2023-08-12T10:11:04Z</time>
      </trkpt>
      <trkpt lat="48.04033" lon="7.10545">
        <ele>625.7</ele>
        <time>2023-08-12T10:11:05Z</time>
      </trkpt>
      <trkpt lat="48.04033" lon="7.10543">
        <ele>625.8</ele>
        <time>2023-08-12T10:11:06Z</time>
      </trkpt>
      <trkpt lat="48.04033" lon="7.10542">
        <ele>625.9</ele>
        <time>2023-08-12T10:11:07Z</time>
      </trkpt>
      <trkpt lat="48.04033" lon="7.1054">
        <ele>626</ele>
        <time>2023-08-12T10:11:08Z</time>
      </trkpt>
      <trkpt lat="48.04033" lon="7.10539">
        <ele>626.2</ele>
        <time>2023-08-12T10:11:09Z</time>
      </trkpt>
      <trkpt lat="48.04032" lon="7.10537">
        <ele>626.4</ele>
        <time>2023-08-12T10:11:10Z</time>
      </trkpt>
      <trkpt lat="48.04031" lon="7.10536">
        <ele>626.5</ele>
        <time>2023-08-12T10:11:11Z</time>
      </trkpt>
      <trkpt lat="48.04032" lon="7.10534">
        <ele>626.7</ele>
        <time>2023-08-12T10:11:12Z</time>
      </trkpt>
      <trkpt lat="48.04032" lon="7.10534">
        <ele>626.7</ele>
        <time>2023-08-12T10:11:13Z</time>
      </trkpt>
      <trkpt lat="48.04032" lon="7.10533">
        <ele>626.8</ele>
        <time>2023-08-12T10:11:14Z</time>
      </trkpt>
      <trkpt lat="48.04032" lon="7.10531">
        <ele>627</ele>
        <time>2023-08-12T10:11:15Z</time>
      </trkpt>
      <trkpt lat="48.04031" lon="7.10529">
        <ele>627.2</ele>
        <time>2023-08-12T10:11:16Z</time>
      </trkpt>
      <trkpt lat="48.0403" lon="7.10528">
        <ele>627.4</ele>
        <time>2023-08-12T10:11:17Z</time>
      </trkpt>
      <trkpt lat="48.0403" lon="7.10526">
        <ele>627.6</ele>
        <time>2023-08-12T10:11:18Z</time>
      </trkpt>
      <trkpt lat="48.0403" lon="7.10525">
        <ele>627.7</ele>
        <time>2023-08-12T10:11:19Z</time>
      </trkpt>
      <trkpt lat="48.0403" lon="7.10523">
        <ele>627.8</ele>
        <time>2023-08-12T10:11:20Z</time>
      </trkpt>
      <trkpt lat="48.0403" lon="7.10522">
        <ele>627.9</ele>
        <time>2023-08-12T10:11:21Z</time>
      </trkpt>
      <trkpt lat="48.0403" lon="7.10521">
        <ele>628.1</ele>
        <time>2023-08-12T10:11:22Z</time>
      </trkpt>
      <trkpt lat="48.04031" lon="7.1052">
        <ele>628.2</ele>
        <time>2023-08-12T10:11:23Z</time>
      </trkpt>
      <trkpt lat="48.04032" lon="7.10519">
        <ele>628.4</ele>
        <time>2023-08-12T10:11:24Z</time>
      </trkpt>
      <trkpt lat="48.04027" lon="7.10515">
        <ele>629.1</ele>
        <time>2023-08-12T10:11:29Z</time>
      </trkpt>
      <trkpt lat="48.04032" lon="7.10522">
        <ele>630.1</ele>
        <time>2023-08-12T10:11:51Z</time>
      </trkpt>
      <trkpt lat="48.04031" lon="7.10522">
        <ele>630.3</ele>
        <time>2023-08-12T10:11:54Z</time>
      </trkpt>
      <trkpt lat="48.04027" lon="7.10521">
        <ele>631</ele>
        <time>2023-08-12T10:12:29Z</time>
      </trkpt>
      <trkpt lat="48.04022" lon="7.10517">
        <ele>631.8</ele>
        <time>2023-08-12T10:12:57Z</time>
      </trkpt>
      <trkpt lat="48.04025" lon="7.10521">
        <ele>632.4</ele>
        <time>2023-08-12T10:13:36Z</time>
      </trkpt>
      <trkpt lat="48.04026" lon="7.10512">
        <ele>633.3</ele>
        <time>2023-08-12T10:13:40Z</time>
      </trkpt>
      <trkpt lat="48.04026" lon="7.1051">
        <ele>633.5</ele>
        <time>2023-08-12T10:13:41Z</time>
      </trkpt>
      <trkpt lat="48.04027" lon="7.10501">
        <ele>634.4</ele>
        <time>2023-08-12T10:13:44Z</time>
      </trkpt>
      <trkpt lat="48.04026" lon="7.10492">
        <ele>635.3</ele>
        <time>2023-08-12T10:13:47Z</time>
      </trkpt>
      <trkpt lat="48.04026" lon="7.10486">
        <ele>635.9</ele>
        <time>2023-08-12T10:13:49Z</time>
      </trkpt>
      <trkpt lat="48.04024" lon="7.10477">
        <ele>636.8</ele>
        <time>2023-08-12T10:13:52Z</time>
      </trkpt>
      <trkpt lat="48.04025" lon="7.10475">
        <ele>637</ele>
        <time>2023-08-12T10:13:53Z</time>
      </trkpt>
      <trkpt lat="48.04025" lon="7.10474">
        <ele>637.2</ele>
        <time>2023-08-12T10:13:54Z</time>
      </trkpt>
      <trkpt lat="48.04025" lon="7.10471">
        <ele>637.5</ele>
        <time>2023-08-12T10:13:55Z</time>
      </trkpt>
      <trkpt lat="48.04025" lon="7.10469">
        <ele>637.7</ele>
        <time>2023-08-12T10:13:56Z</time>
      </trkpt>
      <trkpt lat="48.04025" lon="7.10466">
        <ele>638</ele>
        <time>2023-08-12T10:13:57Z</time>
      </trkpt>
      <trkpt lat="48.04024" lon="7.10463">
        <ele>638.3</ele>
        <time>2023-08-12T10:13:58Z</time>
      </trkpt>
      <trkpt lat="48.04024" lon="7.1046">
        <ele>638.6</ele>
        <time>2023-08-12T10:13:59Z</time>
      </trkpt>
      <trkpt lat="48.04023" lon="7.10458">
        <ele>638.9</ele>
        <time>2023-08-12T10:14:00Z</time>
      </trkpt>
      <trkpt lat="48.04019" lon="7.10454">
        <ele>639.5</ele>
        <time>2023-08-12T10:14:01Z</time>
      </trkpt>
      <trkpt lat="48.04017" lon="7.1045">
        <ele>640</ele>
        <time>2023-08-12T10:14:02Z</time>
      </trkpt>
      <trkpt lat="48.04017" lon="7.10446">
        <ele>640.4</ele>
        <time>2023-08-12T10:14:03Z</time>
      </trkpt>
      <trkpt lat="48.04017" lon="7.10444">
        <ele>640.7</ele>
        <time>2023-08-12T10:14:04Z</time>
      </trkpt>
      <trkpt lat="48.04017" lon="7.1044">
        <ele>641</ele>
        <time>2023-08-12T10:14:05Z</time>
      </trkpt>
      <trkpt lat="48.04018" lon="7.10437">
        <ele>641.4</ele>
        <time>2023-08-12T10:14:06Z</time>
      </trkpt>
      <trkpt lat="48.04019" lon="7.10435">
        <ele>641.6</ele>
        <time>2023-08-12T10:14:07Z</time>
      </trkpt>
      <trkpt lat="48.0402" lon="7.10432">
        <ele>641.9</ele>
        <time>2023-08-12T10:14:08Z</time>
      </trkpt>
      <trkpt lat="48.04017" lon="7.10428">
        <ele>642.6</ele>
        <time>2023-08-12T10:14:09Z</time>
      </trkpt>
      <trkpt lat="48.04017" lon="7.10425">
        <ele>642.8</ele>
        <time>2023-08-12T10:14:10Z</time>
      </trkpt>
      <trkpt lat="48.04017" lon="7.10422">
        <ele>643.2</ele>
        <time>2023-08-12T10:14:11Z</time>
      </trkpt>
      <trkpt lat="48.04018" lon="7.10419">
        <ele>643.5</ele>
        <time>2023-08-12T10:14:12Z</time>
      </trkpt>
      <trkpt lat="48.04019" lon="7.10416">
        <ele>643.8</ele>
        <time>2023-08-12T10:14:13Z</time>
      </trkpt>
      <trkpt lat="48.04019" lon="7.10415">
        <ele>643.9</ele>
        <time>2023-08-12T10:14:14Z</time>
      </trkpt>
      <trkpt lat="48.04019" lon="7.10414">
        <ele>644</ele>
        <time>2023-08-12T10:14:15Z</time>
      </trkpt>
      <trkpt lat="48.0402" lon="7.10412">
        <ele>644.2</ele>
        <time>2023-08-12T10:14:16Z</time>
      </trkpt>
      <trkpt lat="48.0402" lon="7.10409">
        <ele>644.5</ele>
        <time>2023-08-12T10:14:17Z</time>
      </trkpt>
      <trkpt lat="48.04019" lon="7.10404">
        <ele>645.1</ele>
        <time>2023-08-12T10:14:18Z</time>
      </trkpt>
      <trkpt lat="48.04019" lon="7.10399">
        <ele>645.5</ele>
        <time>2023-08-12T10:14:19Z</time>
      </trkpt>
      <trkpt lat="48.04018" lon="7.10395">
        <ele>645.9</ele>
        <time>2023-08-12T10:14:20Z</time>
      </trkpt>
      <trkpt lat="48.04019" lon="7.10392">
        <ele>646.2</ele>
        <time>2023-08-12T10:14:21Z</time>
      </trkpt>
      <trkpt lat="48.04017" lon="7.10387">
        <ele>646.8</ele>
        <time>2023-08-12T10:14:22Z</time>
      </trkpt>
      <trkpt lat="48.04018" lon="7.10383">
        <ele>647.2</ele>
        <time>2023-08-12T10:14:23Z</time>
      </trkpt>
      <trkpt lat="48.04019" lon="7.1038">
        <ele>647.5</ele>
        <time>2023-08-12T10:14:24Z</time>
      </trkpt>
      <trkpt lat="48.0402" lon="7.10378">
        <ele>647.8</ele>
        <time>2023-08-12T10:14:25Z</time>
      </trkpt>
      <trkpt lat="48.04021" lon="7.10375">
        <ele>648.1</ele>
        <time>2023-08-12T10:14:26Z</time>
      </trkpt>
      <trkpt lat="48.04022" lon="7.10372">
        <ele>648.4</ele>
        <time>2023-08-12T10:14:27Z</time>
      </trkpt>
      <trkpt lat="48.04022" lon="7.10369">
        <ele>648.7</ele>
        <time>2023-08-12T10:14:28Z</time>
      </trkpt>
      <trkpt lat="48.04022" lon="7.10366">
        <ele>649</ele>
        <time>2023-08-12T10:14:29Z</time>
      </trkpt>
      <trkpt lat="48.04023" lon="7.10364">
        <ele>649.3</ele>
        <time>2023-08-12T10:14:30Z</time>
      </trkpt>
      <trkpt lat="48.04024" lon="7.10361">
        <ele>649.6</ele>
        <time>2023-08-12T10:14:31Z</time>
      </trkpt>
      <trkpt lat="48.04025" lon="7.1036">
        <ele>649.8</ele>
        <time>2023-08-12T10:14:32Z</time>
      </trkpt>
      <trkpt lat="48.04026" lon="7.10357">
        <ele>650.2</ele>
        <time>2023-08-12T10:14:33Z</time>
      </trkpt>
      <trkpt lat="48.04026" lon="7.10355">
        <ele>650.4</ele>
        <time>2023-08-12T10:14:34Z</time>
      </trkpt>
      <trkpt lat="48.04027" lon="7.10352">
        <ele>650.7</ele>
        <time>2023-08-12T10:14:35Z</time>
      </trkpt>
      <trkpt lat="48.04027" lon="7.10349">
        <ele>651</ele>
        <time>2023-08-12T10:14:36Z</time>
      </trkpt>
      <trkpt lat="48.04027" lon="7.10347">
        <ele>651.3</ele>
        <time>2023-08-12T10:14:37Z</time>
      </trkpt>
      <trkpt lat="48.04028" lon="7.10345">
        <ele>651.5</ele>
        <time>2023-08-12T10:14:38Z</time>
      </trkpt>
      <trkpt lat="48.04029" lon="7.10343">
        <ele>651.8</ele>
        <time>2023-08-12T10:14:39Z</time>
      </trkpt>
      <trkpt lat="48.04029" lon="7.1034">
        <ele>652</ele>
        <time>2023-08-12T10:14:40Z</time>
      </trkpt>
      <trkpt lat="48.0403" lon="7.10338">
        <ele>652.3</ele>
        <time>2023-08-12T10:14:41Z</time>
      </trkpt>
      <trkpt lat="48.04031" lon="7.10336">
        <ele>652.6</ele>
        <time>2023-08-12T10:14:42Z</time>
      </trkpt>
      <trkpt lat="48.04031" lon="7.10333">
        <ele>652.8</ele>
        <time>2023-08-12T10:14:43Z</time>
      </trkpt>
      <trkpt lat="48.04031" lon="7.10331">
        <ele>653</ele>
        <time>2023-08-12T10:14:44Z</time>
      </trkpt>
      <trkpt lat="48.04031" lon="7.10329">
        <ele>653.3</ele>
        <time>2023-08-12T10:14:45Z</time>
      </trkpt>
      <trkpt lat="48.04031" lon="7.10328">
        <ele>653.4</ele>
        <time>2023-08-12T10:14:46Z</time>
      </trkpt>
      <trkpt lat="48.04031" lon="7.10326">
        <ele>653.6</ele>
        <time>2023-08-12T10:14:47Z</time>
      </trkpt>
      <trkpt lat="48.04032" lon="7.10323">
        <ele>653.9</ele>
        <time>2023-08-12T10:14:48Z</time>
      </trkpt>
      <trkpt lat="48.04032" lon="7.1032">
        <ele>654.2</ele>
        <time>2023-08-12T10:14:49Z</time>
      </trkpt>
      <trkpt lat="48.04032" lon="7.10317">
        <ele>654.4</ele>
        <time>2023-08-12T10:14:50Z</time>
      </trkpt>
      <trkpt lat="48.04033" lon="7.10315">
        <ele>654.7</ele>
        <time>2023-08-12T10:14:51Z</time>
      </trkpt>
      <trkpt lat="48.04033" lon="7.10312">
        <ele>655</ele>
        <time>2023-08-12T10:14:52Z</time>
      </trkpt>
      <trkpt lat="48.04033" lon="7.1031">
        <ele>655.2</ele>
        <time>2023-08-12T10:14:53Z</time>
      </trkpt>
      <trkpt lat="48.04034" lon="7.10307">
        <ele>655.5</ele>
        <time>2023-08-12T10:14:54Z</time>
      </trkpt>
      <trkpt lat="48.04035" lon="7.10304">
        <ele>655.8</ele>
        <time>2023-08-12T10:14:55Z</time>
      </trkpt>
      <trkpt lat="48.04035" lon="7.10301">
        <ele>656</ele>
        <time>2023-08-12T10:14:56Z</time>
      </trkpt>
      <trkpt lat="48.04036" lon="7.10298">
        <ele>656.4</ele>
        <time>2023-08-12T10:14:57Z</time>
      </trkpt>
      <trkpt lat="48.04037" lon="7.10296">
        <ele>656.6</ele>
        <time>2023-08-12T10:14:58Z</time>
      </trkpt>
      <trkpt lat="48.04037" lon="7.10294">
        <ele>656.9</ele>
        <time>2023-08-12T10:14:59Z</time>
      </trkpt>
      <trkpt lat="48.04038" lon="7.10291">
        <ele>657.1</ele>
        <time>2023-08-12T10:15:00Z</time>
      </trkpt>
      <trkpt lat="48.04039" lon="7.1029">
        <ele>657.3</ele>
        <time>2023-08-12T10:15:01Z</time>
      </trkpt>
      <trkpt lat="48.04038" lon="7.10287">
        <ele>657.6</ele>
        <time>2023-08-12T10:15:02Z</time>
      </trkpt>
      <trkpt lat="48.04038" lon="7.10286">
        <ele>657.7</ele>
        <time>2023-08-12T10:15:03Z</time>
      </trkpt>
      <trkpt lat="48.04038" lon="7.10285">
        <ele>657.8</ele>
        <time>2023-08-12T10:15:04Z</time>
      </trkpt>
      <trkpt lat="48.04039" lon="7.10283">
        <ele>658</ele>
        <time>2023-08-12T10:15:05Z</time>
      </trkpt>
      <trkpt lat="48.0404" lon="7.10281">
        <ele>658.3</ele>
        <time>2023-08-12T10:15:06Z</time>
      </trkpt>
      <trkpt lat="48.04042" lon="7.10277">
        <ele>658.7</ele>
        <time>2023-08-12T10:15:07Z</time>
      </trkpt>
      <trkpt lat="48.04042" lon="7.10273">
        <ele>659.1</ele>
        <time>2023-08-12T10:15:08Z</time>
      </trkpt>
      <trkpt lat="48.04041" lon="7.1027">
        <ele>659.4</ele>
        <time>2023-08-12T10:15:09Z</time>
      </trkpt>
      <trkpt lat="48.04041" lon="7.10268">
        <ele>659.7</ele>
        <time>2023-08-12T10:15:10Z</time>
      </trkpt>
      <trkpt lat="48.0404" lon="7.10264">
        <ele>660.1</ele>
        <time>2023-08-12T10:15:11Z</time>
      </trkpt>
      <trkpt lat="48.04038" lon="7.1026">
        <ele>660.6</ele>
        <time>2023-08-12T10:15:12Z</time>
      </trkpt>
      <trkpt lat="48.04037" lon="7.10257">
        <ele>660.9</ele>
        <time>2023-08-12T10:15:13Z</time>
      </trkpt>
      <trkpt lat="48.04036" lon="7.10255">
        <ele>661.2</ele>
        <time>2023-08-12T10:15:14Z</time>
      </trkpt>
      <trkpt lat="48.04033" lon="7.10251">
        <ele>661.7</ele>
        <time>2023-08-12T10:15:15Z</time>
      </trkpt>
      <trkpt lat="48.04033" lon="7.10248">
        <ele>662</ele>
        <time>2023-08-12T10:15:16Z</time>
      </trkpt>
      <trkpt lat="48.04034" lon="7.10246">
        <ele>662.3</ele>
        <time>2023-08-12T10:15:17Z</time>
      </trkpt>
      <trkpt lat="48.04035" lon="7.10244">
        <ele>662.6</ele>
        <time>2023-08-12T10:15:18Z</time>
      </trkpt>
      <trkpt lat="48.04036" lon="7.1024">
        <ele>663</ele>
        <time>2023-08-12T10:15:19Z</time>
      </trkpt>
      <trkpt lat="48.04037" lon="7.10236">
        <ele>663.5</ele>
        <time>2023-08-12T10:15:20Z</time>
      </trkpt>
      <trkpt lat="48.04037" lon="7.10232">
        <ele>663.9</ele>
        <time>2023-08-12T10:15:21Z</time>
      </trkpt>
      <trkpt lat="48.04035" lon="7.10228">
        <ele>664.5</ele>
        <time>2023-08-12T10:15:22Z</time>
      </trkpt>
      <trkpt lat="48.04035" lon="7.10226">
        <ele>664.8</ele>
        <time>2023-08-12T10:15:23Z</time>
      </trkpt>
      <trkpt lat="48.04036" lon="7.10222">
        <ele>665.2</ele>
        <time>2023-08-12T10:15:24Z</time>
      </trkpt>
      <trkpt lat="48.04037" lon="7.10219">
        <ele>665.6</ele>
        <time>2023-08-12T10:15:25Z</time>
      </trkpt>
      <trkpt lat="48.04035" lon="7.10215">
        <ele>666</ele>
        <time>2023-08-12T10:15:26Z</time>
      </trkpt>
      <trkpt lat="48.04035" lon="7.10213">
        <ele>666.3</ele>
        <time>2023-08-12T10:15:27Z</time>
      </trkpt>
      <trkpt lat="48.04036" lon="7.1021">
        <ele>666.6</ele>
        <time>2023-08-12T10:15:28Z</time>
      </trkpt>
      <trkpt lat="48.04037" lon="7.10208">
        <ele>666.8</ele>
        <time>2023-08-12T10:15:29Z</time>
      </trkpt>
      <trkpt lat="48.04038" lon="7.10205">
        <ele>667.1</ele>
        <time>2023-08-12T10:15:30Z</time>
      </trkpt>
      <trkpt lat="48.04039" lon="7.10202">
        <ele>667.4</ele>
        <time>2023-08-12T10:15:31Z</time>
      </trkpt>
      <trkpt lat="48.0404" lon="7.10199">
        <ele>667.8</ele>
        <time>2023-08-12T10:15:32Z</time>
      </trkpt>
      <trkpt lat="48.04039" lon="7.10195">
        <ele>668.2</ele>
        <time>2023-08-12T10:15:33Z</time>
      </trkpt>
      <trkpt lat="48.04039" lon="7.10191">
        <ele>668.5</ele>
        <time>2023-08-12T10:15:34Z</time>
      </trkpt>
      <trkpt lat="48.04038" lon="7.10187">
        <ele>669.1</ele>
        <time>2023-08-12T10:15:35Z</time>
      </trkpt>
      <trkpt lat="48.04037" lon="7.10183">
        <ele>669.4</ele>
        <time>2023-08-12T10:15:36Z</time>
      </trkpt>
      <trkpt lat="48.04037" lon="7.10181">
        <ele>669.6</ele>
        <time>2023-08-12T10:15:37Z</time>
      </trkpt>
      <trkpt lat="48.04038" lon="7.10179">
        <ele>669.8</ele>
        <time>2023-08-12T10:15:38Z</time>
      </trkpt>
      <trkpt lat="48.04039" lon="7.10176">
        <ele>670.2</ele>
        <time>2023-08-12T10:15:39Z</time>
      </trkpt>
      <trkpt lat="48.04039" lon="7.10173">
        <ele>670.5</ele>
        <time>2023-08-12T10:15:40Z</time>
      </trkpt>
      <trkpt lat="48.04041" lon="7.10169">
        <ele>671.1</ele>
        <time>2023-08-12T10:15:41Z</time>
      </trkpt>
      <trkpt lat="48.0404" lon="7.10167">
        <ele>671.4</ele>
        <time>2023-08-12T10:15:42Z</time>
      </trkpt>
      <trkpt lat="48.04039" lon="7.10164">
        <ele>671.7</ele>
        <time>2023-08-12T10:15:43Z</time>
      </trkpt>
      <trkpt lat="48.04038" lon="7.1016">
        <ele>672.1</ele>
        <time>2023-08-12T10:15:44Z</time>
      </trkpt>
      <trkpt lat="48.04038" lon="7.10158">
        <ele>672.4</ele>
        <time>2023-08-12T10:15:45Z</time>
      </trkpt>
      <trkpt lat="48.04039" lon="7.10155">
        <ele>672.6</ele>
        <time>2023-08-12T10:15:46Z</time>
      </trkpt>
      <trkpt lat="48.04037" lon="7.10153">
        <ele>672.9</ele>
        <time>2023-08-12T10:15:47Z</time>
      </trkpt>
      <trkpt lat="48.04037" lon="7.10151">
        <ele>673.2</ele>
        <time>2023-08-12T10:15:48Z</time>
      </trkpt>
      <trkpt lat="48.04038" lon="7.10148">
        <ele>673.6</ele>
        <time>2023-08-12T10:15:49Z</time>
      </trkpt>
      <trkpt lat="48.0404" lon="7.10146">
        <ele>673.9</ele>
        <time>2023-08-12T10:15:50Z</time>
      </trkpt>
      <trkpt lat="48.04041" lon="7.10143">
        <ele>674.2</ele>
        <time>2023-08-12T10:15:51Z</time>
      </trkpt>
      <trkpt lat="48.04042" lon="7.10141">
        <ele>674.5</ele>
        <time>2023-08-12T10:15:52Z</time>
      </trkpt>
      <trkpt lat="48.04042" lon="7.10139">
        <ele>674.7</ele>
        <time>2023-08-12T10:15:53Z</time>
      </trkpt>
      <trkpt lat="48.04043" lon="7.10137">
        <ele>674.9</ele>
        <time>2023-08-12T10:15:54Z</time>
      </trkpt>
      <trkpt lat="48.04044" lon="7.10136">
        <ele>675.2</ele>
        <time>2023-08-12T10:15:55Z</time>
      </trkpt>
      <trkpt lat="48.04045" lon="7.10134">
        <ele>675.4</ele>
        <time>2023-08-12T10:15:56Z</time>
      </trkpt>
      <trkpt lat="48.04046" lon="7.10132">
        <ele>675.7</ele>
        <time>2023-08-12T10:15:57Z</time>
      </trkpt>
      <trkpt lat="48.04047" lon="7.1013">
        <ele>675.9</ele>
        <time>2023-08-12T10:15:58Z</time>
      </trkpt>
      <trkpt lat="48.04048" lon="7.10127">
        <ele>676.2</ele>
        <time>2023-08-12T10:15:59Z</time>
      </trkpt>
      <trkpt lat="48.04049" lon="7.10125">
        <ele>676.4</ele>
        <time>2023-08-12T10:16:00Z</time>
      </trkpt>
      <trkpt lat="48.04049" lon="7.10124">
        <ele>676.7</ele>
        <time>2023-08-12T10:16:01Z</time>
      </trkpt>
      <trkpt lat="48.0405" lon="7.10122">
        <ele>676.9</ele>
        <time>2023-08-12T10:16:02Z</time>
      </trkpt>
      <trkpt lat="48.04051" lon="7.1012">
        <ele>677.1</ele>
        <time>2023-08-12T10:16:03Z</time>
      </trkpt>
      <trkpt lat="48.04053" lon="7.10118">
        <ele>677.4</ele>
        <time>2023-08-12T10:16:04Z</time>
      </trkpt>
      <trkpt lat="48.04054" lon="7.10116">
        <ele>677.7</ele>
        <time>2023-08-12T10:16:05Z</time>
      </trkpt>
      <trkpt lat="48.04055" lon="7.10115">
        <ele>678</ele>
        <time>2023-08-12T10:16:06Z</time>
      </trkpt>
      <trkpt lat="48.04057" lon="7.10113">
        <ele>678.4</ele>
        <time>2023-08-12T10:16:07Z</time>
      </trkpt>
      <trkpt lat="48.04059" lon="7.10112">
        <ele>678.7</ele>
        <time>2023-08-12T10:16:08Z</time>
      </trkpt>
      <trkpt lat="48.04061" lon="7.1011">
        <ele>679.1</ele>
        <time>2023-08-12T10:16:09Z</time>
      </trkpt>
      <trkpt lat="48.04062" lon="7.10107">
        <ele>679.4</ele>
        <time>2023-08-12T10:16:10Z</time>
      </trkpt>
      <trkpt lat="48.04063" lon="7.10104">
        <ele>679.8</ele>
        <time>2023-08-12T10:16:11Z</time>
      </trkpt>
      <trkpt lat="48.04066" lon="7.10101">
        <ele>680.3</ele>
        <time>2023-08-12T10:16:12Z</time>
      </trkpt>
      <trkpt lat="48.04067" lon="7.10099">
        <ele>680.6</ele>
        <time>2023-08-12T10:16:13Z</time>
      </trkpt>
      <trkpt lat="48.04069" lon="7.10098">
        <ele>680.9</ele>
        <time>2023-08-12T10:16:14Z</time>
      </trkpt>
      <trkpt lat="48.0407" lon="7.10096">
        <ele>681.1</ele>
        <time>2023-08-12T10:16:15Z</time>
      </trkpt>
      <trkpt lat="48.04071" lon="7.10094">
        <ele>681.3</ele>
        <time>2023-08-12T10:16:16Z</time>
      </trkpt>
      <trkpt lat="48.04072" lon="7.10093">
        <ele>681.6</ele>
        <time>2023-08-12T10:16:17Z</time>
      </trkpt>
      <trkpt lat="48.04073" lon="7.10092">
        <ele>681.7</ele>
        <time>2023-08-12T10:16:18Z</time>
      </trkpt>
      <trkpt lat="48.04074" lon="7.10092">
        <ele>681.8</ele>
        <time>2023-08-12T10:16:19Z</time>
      </trkpt>
      <trkpt lat="48.04076" lon="7.10091">
        <ele>682.1</ele>
        <time>2023-08-12T10:16:20Z</time>
      </trkpt>
      <trkpt lat="48.04077" lon="7.1009">
        <ele>682.4</ele>
        <time>2023-08-12T10:16:21Z</time>
      </trkpt>
      <trkpt lat="48.04079" lon="7.1009">
        <ele>682.7</ele>
        <time>2023-08-12T10:16:22Z</time>
      </trkpt>
      <trkpt lat="48.04081" lon="7.1009">
        <ele>683</ele>
        <time>2023-08-12T10:16:23Z</time>
      </trkpt>
      <trkpt lat="48.04084" lon="7.1009">
        <ele>683.3</ele>
        <time>2023-08-12T10:16:24Z</time>
      </trkpt>
      <trkpt lat="48.04085" lon="7.1009">
        <ele>683.6</ele>
        <time>2023-08-12T10:16:25Z</time>
      </trkpt>
      <trkpt lat="48.04087" lon="7.1009">
        <ele>683.8</ele>
        <time>2023-08-12T10:16:26Z</time>
      </trkpt>
      <trkpt lat="48.04088" lon="7.10089">
        <ele>684</ele>
        <time>2023-08-12T10:16:27Z</time>
      </trkpt>
      <trkpt lat="48.0409" lon="7.10089">
        <ele>684.3</ele>
        <time>2023-08-12T10:16:28Z</time>
      </trkpt>
      <trkpt lat="48.04092" lon="7.1009">
        <ele>684.5</ele>
        <time>2023-08-12T10:16:29Z</time>
      </trkpt>
      <trkpt lat="48.04094" lon="7.1009">
        <ele>684.8</ele>
        <time>2023-08-12T10:16:30Z</time>
      </trkpt>
      <trkpt lat="48.04095" lon="7.10092">
        <ele>685.1</ele>
        <time>2023-08-12T10:16:31Z</time>
      </trkpt>
      <trkpt lat="48.04097" lon="7.10093">
        <ele>685.5</ele>
        <time>2023-08-12T10:16:32Z</time>
      </trkpt>
      <trkpt lat="48.04099" lon="7.10094">
        <ele>685.8</ele>
        <time>2023-08-12T10:16:33Z</time>
      </trkpt>
      <trkpt lat="48.04102" lon="7.10094">
        <ele>686.2</ele>
        <time>2023-08-12T10:16:34Z</time>
      </trkpt>
      <trkpt lat="48.04104" lon="7.10093">
        <ele>686.3</ele>
        <time>2023-08-12T10:16:35Z</time>
      </trkpt>
      <trkpt lat="48.04106" lon="7.10093">
        <ele>686.4</ele>
        <time>2023-08-12T10:16:36Z</time>
      </trkpt>
      <trkpt lat="48.04108" lon="7.10092">
        <ele>686.5</ele>
        <time>2023-08-12T10:16:37Z</time>
      </trkpt>
      <trkpt lat="48.0411" lon="7.10092">
        <ele>686.7</ele>
        <time>2023-08-12T10:16:38Z</time>
      </trkpt>
      <trkpt lat="48.04111" lon="7.10091">
        <ele>686.8</ele>
        <time>2023-08-12T10:16:39Z</time>
      </trkpt>
      <trkpt lat="48.04113" lon="7.10091">
        <ele>686.9</ele>
        <time>2023-08-12T10:16:40Z</time>
      </trkpt>
      <trkpt lat="48.04115" lon="7.10091">
        <ele>687</ele>
        <time>2023-08-12T10:16:41Z</time>
      </trkpt>
      <trkpt lat="48.04117" lon="7.10092">
        <ele>687.2</ele>
        <time>2023-08-12T10:16:42Z</time>
      </trkpt>
      <trkpt lat="48.04119" lon="7.10092">
        <ele>687.3</ele>
        <time>2023-08-12T10:16:43Z</time>
      </trkpt>
      <trkpt lat="48.04121" lon="7.10095">
        <ele>687.4</ele>
        <time>2023-08-12T10:16:44Z</time>
      </trkpt>
      <trkpt lat="48.04122" lon="7.10097">
        <ele>687.6</ele>
        <time>2023-08-12T10:16:45Z</time>
      </trkpt>
      <trkpt lat="48.04124" lon="7.10097">
        <ele>687.7</ele>
        <time>2023-08-12T10:16:46Z</time>
      </trkpt>
      <trkpt lat="48.04127" lon="7.10097">
        <ele>687.9</ele>
        <time>2023-08-12T10:16:47Z</time>
      </trkpt>
      <trkpt lat="48.0413" lon="7.10096">
        <ele>688.1</ele>
        <time>2023-08-12T10:16:48Z</time>
      </trkpt>
      <trkpt lat="48.04133" lon="7.10095">
        <ele>688.2</ele>
        <time>2023-08-12T10:16:49Z</time>
      </trkpt>
      <trkpt lat="48.04135" lon="7.10096">
        <ele>688.4</ele>
        <time>2023-08-12T10:16:50Z</time>
      </trkpt>
      <trkpt lat="48.04135" lon="7.10098">
        <ele>688.5</ele>
        <time>2023-08-12T10:16:51Z</time>
      </trkpt>
      <trkpt lat="48.04137" lon="7.10098">
        <ele>688.6</ele>
        <time>2023-08-12T10:16:52Z</time>
      </trkpt>
      <trkpt lat="48.04139" lon="7.10099">
        <ele>688.7</ele>
        <time>2023-08-12T10:16:53Z</time>
      </trkpt>
      <trkpt lat="48.0414" lon="7.10099">
        <ele>688.8</ele>
        <time>2023-08-12T10:16:54Z</time>
      </trkpt>
      <trkpt lat="48.04143" lon="7.10099">
        <ele>689</ele>
        <time>2023-08-12T10:16:55Z</time>
      </trkpt>
      <trkpt lat="48.04145" lon="7.10101">
        <ele>689.1</ele>
        <time>2023-08-12T10:16:56Z</time>
      </trkpt>
      <trkpt lat="48.04145" lon="7.10102">
        <ele>689.2</ele>
        <time>2023-08-12T10:16:57Z</time>
      </trkpt>
      <trkpt lat="48.04147" lon="7.10102">
        <ele>689.3</ele>
        <time>2023-08-12T10:16:58Z</time>
      </trkpt>
      <trkpt lat="48.04148" lon="7.10108">
        <ele>689.6</ele>
        <time>2023-08-12T10:16:59Z</time>
      </trkpt>
      <trkpt lat="48.04151" lon="7.1011">
        <ele>689.8</ele>
        <time>2023-08-12T10:17:00Z</time>
      </trkpt>
      <trkpt lat="48.04153" lon="7.10114">
        <ele>690</ele>
        <time>2023-08-12T10:17:01Z</time>
      </trkpt>
      <trkpt lat="48.04155" lon="7.10117">
        <ele>690.1</ele>
        <time>2023-08-12T10:17:02Z</time>
      </trkpt>
      <trkpt lat="48.04157" lon="7.10118">
        <ele>690.2</ele>
        <time>2023-08-12T10:17:03Z</time>
      </trkpt>
      <trkpt lat="48.04158" lon="7.10119">
        <ele>690.3</ele>
        <time>2023-08-12T10:17:04Z</time>
      </trkpt>
      <trkpt lat="48.04158" lon="7.1012">
        <ele>690.4</ele>
        <time>2023-08-12T10:17:05Z</time>
      </trkpt>
      <trkpt lat="48.0416" lon="7.10121">
        <ele>690.5</ele>
        <time>2023-08-12T10:17:06Z</time>
      </trkpt>
      <trkpt lat="48.04161" lon="7.10125">
        <ele>690.6</ele>
        <time>2023-08-12T10:17:07Z</time>
      </trkpt>
      <trkpt lat="48.04164" lon="7.10124">
        <ele>690.8</ele>
        <time>2023-08-12T10:17:08Z</time>
      </trkpt>
      <trkpt lat="48.04165" lon="7.10126">
        <ele>690.8</ele>
        <time>2023-08-12T10:17:09Z</time>
      </trkpt>
      <trkpt lat="48.04166" lon="7.10128">
        <ele>690.9</ele>
        <time>2023-08-12T10:17:10Z</time>
      </trkpt>
      <trkpt lat="48.04167" lon="7.1013">
        <ele>691</ele>
        <time>2023-08-12T10:17:11Z</time>
      </trkpt>
      <trkpt lat="48.04169" lon="7.10131">
        <ele>691.1</ele>
        <time>2023-08-12T10:17:12Z</time>
      </trkpt>
      <trkpt lat="48.04171" lon="7.10132">
        <ele>691.2</ele>
        <time>2023-08-12T10:17:13Z</time>
      </trkpt>
      <trkpt lat="48.04172" lon="7.10133">
        <ele>691.3</ele>
        <time>2023-08-12T10:17:14Z</time>
      </trkpt>
      <trkpt lat="48.04174" lon="7.10134">
        <ele>691.4</ele>
        <time>2023-08-12T10:17:15Z</time>
      </trkpt>
      <trkpt lat="48.04175" lon="7.10135">
        <ele>691.5</ele>
        <time>2023-08-12T10:17:16Z</time>
      </trkpt>
      <trkpt lat="48.04176" lon="7.10138">
        <ele>691.6</ele>
        <time>2023-08-12T10:17:17Z</time>
      </trkpt>
      <trkpt lat="48.04177" lon="7.1014">
        <ele>691.7</ele>
        <time>2023-08-12T10:17:18Z</time>
      </trkpt>
      <trkpt lat="48.04178" lon="7.10142">
        <ele>691.8</ele>
        <time>2023-08-12T10:17:19Z</time>
      </trkpt>
      <trkpt lat="48.0418" lon="7.10144">
        <ele>691.9</ele>
        <time>2023-08-12T10:17:20Z</time>
      </trkpt>
      <trkpt lat="48.04181" lon="7.10145">
        <ele>692</ele>
        <time>2023-08-12T10:17:21Z</time>
      </trkpt>
      <trkpt lat="48.04183" lon="7.10147">
        <ele>692.1</ele>
        <time>2023-08-12T10:17:22Z</time>
      </trkpt>
      <trkpt lat="48.04185" lon="7.10149">
        <ele>692.2</ele>
        <time>2023-08-12T10:17:23Z</time>
      </trkpt>
      <trkpt lat="48.04186" lon="7.10151">
        <ele>692.3</ele>
        <time>2023-08-12T10:17:24Z</time>
      </trkpt>
      <trkpt lat="48.04187" lon="7.10152">
        <ele>692.4</ele>
        <time>2023-08-12T10:17:25Z</time>
      </trkpt>
      <trkpt lat="48.04188" lon="7.10154">
        <ele>692.5</ele>
        <time>2023-08-12T10:17:26Z</time>
      </trkpt>
      <trkpt lat="48.0419" lon="7.10156">
        <ele>692.6</ele>
        <time>2023-08-12T10:17:27Z</time>
      </trkpt>
      <trkpt lat="48.04191" lon="7.10158">
        <ele>692.7</ele>
        <time>2023-08-12T10:17:28Z</time>
      </trkpt>
      <trkpt lat="48.04193" lon="7.1016">
        <ele>692.9</ele>
        <time>2023-08-12T10:17:29Z</time>
      </trkpt>
      <trkpt lat="48.04194" lon="7.10162">
        <ele>693</ele>
        <time>2023-08-12T10:17:30Z</time>
      </trkpt>
      <trkpt lat="48.04195" lon="7.10163">
        <ele>693.1</ele>
        <time>2023-08-12T10:17:31Z</time>
      </trkpt>
      <trkpt lat="48.04196" lon="7.10164">
        <ele>693.2</ele>
        <time>2023-08-12T10:17:32Z</time>
      </trkpt>
      <trkpt lat="48.04197" lon="7.10166">
        <ele>693.3</ele>
        <time>2023-08-12T10:17:33Z</time>
      </trkpt>
      <trkpt lat="48.04198" lon="7.10167">
        <ele>693.4</ele>
        <time>2023-08-12T10:17:34Z</time>
      </trkpt>
      <trkpt lat="48.042" lon="7.10168">
        <ele>693.5</ele>
        <time>2023-08-12T10:17:35Z</time>
      </trkpt>
      <trkpt lat="48.04202" lon="7.1017">
        <ele>693.6</ele>
        <time>2023-08-12T10:17:36Z</time>
      </trkpt>
      <trkpt lat="48.04203" lon="7.10172">
        <ele>693.7</ele>
        <time>2023-08-12T10:17:37Z</time>
      </trkpt>
      <trkpt lat="48.04204" lon="7.10173">
        <ele>693.8</ele>
        <time>2023-08-12T10:17:38Z</time>
      </trkpt>
      <trkpt lat="48.04205" lon="7.10174">
        <ele>693.9</ele>
        <time>2023-08-12T10:17:39Z</time>
      </trkpt>
      <trkpt lat="48.04206" lon="7.10175">
        <ele>694</ele>
        <time>2023-08-12T10:17:40Z</time>
      </trkpt>
      <trkpt lat="48.04207" lon="7.10177">
        <ele>694.1</ele>
        <time>2023-08-12T10:17:41Z</time>
      </trkpt>
      <trkpt lat="48.04209" lon="7.10179">
        <ele>694.2</ele>
        <time>2023-08-12T10:17:42Z</time>
      </trkpt>
      <trkpt lat="48.04211" lon="7.10181">
        <ele>694.4</ele>
        <time>2023-08-12T10:17:43Z</time>
      </trkpt>
      <trkpt lat="48.04212" lon="7.10183">
        <ele>694.5</ele>
        <time>2023-08-12T10:17:44Z</time>
      </trkpt>
      <trkpt lat="48.04214" lon="7.10185">
        <ele>694.6</ele>
        <time>2023-08-12T10:17:45Z</time>
      </trkpt>
      <trkpt lat="48.04215" lon="7.10187">
        <ele>694.7</ele>
        <time>2023-08-12T10:17:46Z</time>
      </trkpt>
      <trkpt lat="48.04217" lon="7.10189">
        <ele>694.8</ele>
        <time>2023-08-12T10:17:47Z</time>
      </trkpt>
      <trkpt lat="48.04219" lon="7.1019">
        <ele>694.9</ele>
        <time>2023-08-12T10:17:48Z</time>
      </trkpt>
      <trkpt lat="48.04221" lon="7.10191">
        <ele>695.1</ele>
        <time>2023-08-12T10:17:49Z</time>
      </trkpt>
      <trkpt lat="48.04223" lon="7.10193">
        <ele>695.2</ele>
        <time>2023-08-12T10:17:50Z</time>
      </trkpt>
      <trkpt lat="48.04224" lon="7.10195">
        <ele>695.4</ele>
        <time>2023-08-12T10:17:51Z</time>
      </trkpt>
      <trkpt lat="48.04226" lon="7.10198">
        <ele>695.5</ele>
        <time>2023-08-12T10:17:52Z</time>
      </trkpt>
      <trkpt lat="48.04228" lon="7.10201">
        <ele>695.6</ele>
        <time>2023-08-12T10:17:53Z</time>
      </trkpt>
      <trkpt lat="48.0423" lon="7.10204">
        <ele>695.8</ele>
        <time>2023-08-12T10:17:54Z</time>
      </trkpt>
      <trkpt lat="48.04232" lon="7.10207">
        <ele>696</ele>
        <time>2023-08-12T10:17:55Z</time>
      </trkpt>
      <trkpt lat="48.04234" lon="7.10209">
        <ele>696</ele>
        <time>2023-08-12T10:17:56Z</time>
      </trkpt>
      <trkpt lat="48.04235" lon="7.10211">
        <ele>696.1</ele>
        <time>2023-08-12T10:17:57Z</time>
      </trkpt>
      <trkpt lat="48.04237" lon="7.10213">
        <ele>696.1</ele>
        <time>2023-08-12T10:17:58Z</time>
      </trkpt>
      <trkpt lat="48.04238" lon="7.10214">
        <ele>696.1</ele>
        <time>2023-08-12T10:17:59Z</time>
      </trkpt>
      <trkpt lat="48.0424" lon="7.10216">
        <ele>696.2</ele>
        <time>2023-08-12T10:18:00Z</time>
      </trkpt>
      <trkpt lat="48.04241" lon="7.10217">
        <ele>696.2</ele>
        <time>2023-08-12T10:18:01Z</time>
      </trkpt>
      <trkpt lat="48.04241" lon="7.10218">
        <ele>696.2</ele>
        <time>2023-08-12T10:18:02Z</time>
      </trkpt>
      <trkpt lat="48.04243" lon="7.1022">
        <ele>696.2</ele>
        <time>2023-08-12T10:18:03Z</time>
      </trkpt>
      <trkpt lat="48.04244" lon="7.10224">
        <ele>696.3</ele>
        <time>2023-08-12T10:18:04Z</time>
      </trkpt>
      <trkpt lat="48.04246" lon="7.10227">
        <ele>696.3</ele>
        <time>2023-08-12T10:18:05Z</time>
      </trkpt>
      <trkpt lat="48.04247" lon="7.1023">
        <ele>696.4</ele>
        <time>2023-08-12T10:18:06Z</time>
      </trkpt>
      <trkpt lat="48.0425" lon="7.10232">
        <ele>696.4</ele>
        <time>2023-08-12T10:18:07Z</time>
      </trkpt>
      <trkpt lat="48.04252" lon="7.10233">
        <ele>696.5</ele>
        <time>2023-08-12T10:18:08Z</time>
      </trkpt>
      <trkpt lat="48.04253" lon="7.10235">
        <ele>696.5</ele>
        <time>2023-08-12T10:18:09Z</time>
      </trkpt>
      <trkpt lat="48.04255" lon="7.10237">
        <ele>696.5</ele>
        <time>2023-08-12T10:18:10Z</time>
      </trkpt>
      <trkpt lat="48.04257" lon="7.10239">
        <ele>696.6</ele>
        <time>2023-08-12T10:18:11Z</time>
      </trkpt>
      <trkpt lat="48.04258" lon="7.10241">
        <ele>696.6</ele>
        <time>2023-08-12T10:18:12Z</time>
      </trkpt>
      <trkpt lat="48.04259" lon="7.10244">
        <ele>696.6</ele>
        <time>2023-08-12T10:18:13Z</time>
      </trkpt>
      <trkpt lat="48.04262" lon="7.10246">
        <ele>696.7</ele>
        <time>2023-08-12T10:18:14Z</time>
      </trkpt>
      <trkpt lat="48.04264" lon="7.10249">
        <ele>696.7</ele>
        <time>2023-08-12T10:18:15Z</time>
      </trkpt>
      <trkpt lat="48.04266" lon="7.10253">
        <ele>696.8</ele>
        <time>2023-08-12T10:18:16Z</time>
      </trkpt>
      <trkpt lat="48.04268" lon="7.10256">
        <ele>696.8</ele>
        <time>2023-08-12T10:18:17Z</time>
      </trkpt>
      <trkpt lat="48.04269" lon="7.1026">
        <ele>696.9</ele>
        <time>2023-08-12T10:18:18Z</time>
      </trkpt>
      <trkpt lat="48.0427" lon="7.10263">
        <ele>696.9</ele>
        <time>2023-08-12T10:18:19Z</time>
      </trkpt>
      <trkpt lat="48.04271" lon="7.10265">
        <ele>696.9</ele>
        <time>2023-08-12T10:18:20Z</time>
      </trkpt>
      <trkpt lat="48.04273" lon="7.10266">
        <ele>697</ele>
        <time>2023-08-12T10:18:21Z</time>
      </trkpt>
      <trkpt lat="48.04273" lon="7.10267">
        <ele>697</ele>
        <time>2023-08-12T10:18:22Z</time>
      </trkpt>
      <trkpt lat="48.04274" lon="7.10269">
        <ele>697</ele>
        <time>2023-08-12T10:18:23Z</time>
      </trkpt>
      <trkpt lat="48.04276" lon="7.10271">
        <ele>697.1</ele>
        <time>2023-08-12T10:18:24Z</time>
      </trkpt>
      <trkpt lat="48.04277" lon="7.10272">
        <ele>697.2</ele>
        <time>2023-08-12T10:18:25Z</time>
      </trkpt>
      <trkpt lat="48.04279" lon="7.10274">
        <ele>697.2</ele>
        <time>2023-08-12T10:18:26Z</time>
      </trkpt>
      <trkpt lat="48.0428" lon="7.10276">
        <ele>697.3</ele>
        <time>2023-08-12T10:18:27Z</time>
      </trkpt>
      <trkpt lat="48.04281" lon="7.10277">
        <ele>697.3</ele>
        <time>2023-08-12T10:18:28Z</time>
      </trkpt>
      <trkpt lat="48.04283" lon="7.10278">
        <ele>697.4</ele>
        <time>2023-08-12T10:18:29Z</time>
      </trkpt>
      <trkpt lat="48.04284" lon="7.10278">
        <ele>697.4</ele>
        <time>2023-08-12T10:18:30Z</time>
      </trkpt>
      <trkpt lat="48.04285" lon="7.10279">
        <ele>697.5</ele>
        <time>2023-08-12T10:18:31Z</time>
      </trkpt>
      <trkpt lat="48.04286" lon="7.10281">
        <ele>697.5</ele>
        <time>2023-08-12T10:18:32Z</time>
      </trkpt>
      <trkpt lat="48.04288" lon="7.10282">
        <ele>697.6</ele>
        <time>2023-08-12T10:18:33Z</time>
      </trkpt>
      <trkpt lat="48.0429" lon="7.10285">
        <ele>697.7</ele>
        <time>2023-08-12T10:18:34Z</time>
      </trkpt>
      <trkpt lat="48.04292" lon="7.10287">
        <ele>697.8</ele>
        <time>2023-08-12T10:18:35Z</time>
      </trkpt>
      <trkpt lat="48.04294" lon="7.10288">
        <ele>697.8</ele>
        <time>2023-08-12T10:18:36Z</time>
      </trkpt>
      <trkpt lat="48.04296" lon="7.1029">
        <ele>697.9</ele>
        <time>2023-08-12T10:18:37Z</time>
      </trkpt>
      <trkpt lat="48.04298" lon="7.10291">
        <ele>698</ele>
        <time>2023-08-12T10:18:38Z</time>
      </trkpt>
      <trkpt lat="48.043" lon="7.10293">
        <ele>698</ele>
        <time>2023-08-12T10:18:39Z</time>
      </trkpt>
      <trkpt lat="48.04302" lon="7.10294">
        <ele>698.1</ele>
        <time>2023-08-12T10:18:40Z</time>
      </trkpt>
      <trkpt lat="48.04303" lon="7.10296">
        <ele>698.1</ele>
        <time>2023-08-12T10:18:41Z</time>
      </trkpt>
      <trkpt lat="48.04305" lon="7.10298">
        <ele>698.2</ele>
        <time>2023-08-12T10:18:42Z</time>
      </trkpt>
      <trkpt lat="48.04307" lon="7.10299">
        <ele>698.3</ele>
        <time>2023-08-12T10:18:43Z</time>
      </trkpt>
      <trkpt lat="48.04309" lon="7.10299">
        <ele>698.3</ele>
        <time>2023-08-12T10:18:44Z</time>
      </trkpt>
      <trkpt lat="48.04311" lon="7.103">
        <ele>698.4</ele>
        <time>2023-08-12T10:18:45Z</time>
      </trkpt>
      <trkpt lat="48.04311" lon="7.10301">
        <ele>698.4</ele>
        <time>2023-08-12T10:18:46Z</time>
      </trkpt>
      <trkpt lat="48.04313" lon="7.10303">
        <ele>698.5</ele>
        <time>2023-08-12T10:18:47Z</time>
      </trkpt>
      <trkpt lat="48.04315" lon="7.10306">
        <ele>698.5</ele>
        <time>2023-08-12T10:18:48Z</time>
      </trkpt>
      <trkpt lat="48.04317" lon="7.10308">
        <ele>698.6</ele>
        <time>2023-08-12T10:18:49Z</time>
      </trkpt>
      <trkpt lat="48.04318" lon="7.1031">
        <ele>698.7</ele>
        <time>2023-08-12T10:18:50Z</time>
      </trkpt>
      <trkpt lat="48.0432" lon="7.10311">
        <ele>698.7</ele>
        <time>2023-08-12T10:18:51Z</time>
      </trkpt>
      <trkpt lat="48.04323" lon="7.10313">
        <ele>698.8</ele>
        <time>2023-08-12T10:18:52Z</time>
      </trkpt>
      <trkpt lat="48.04326" lon="7.10314">
        <ele>698.9</ele>
        <time>2023-08-12T10:18:53Z</time>
      </trkpt>
      <trkpt lat="48.04327" lon="7.10314">
        <ele>698.9</ele>
        <time>2023-08-12T10:18:54Z</time>
      </trkpt>
      <trkpt lat="48.04329" lon="7.10315">
        <ele>699</ele>
        <time>2023-08-12T10:18:55Z</time>
      </trkpt>
      <trkpt lat="48.04332" lon="7.10314">
        <ele>699</ele>
        <time>2023-08-12T10:18:56Z</time>
      </trkpt>
      <trkpt lat="48.04334" lon="7.10315">
        <ele>699.1</ele>
        <time>2023-08-12T10:18:57Z</time>
      </trkpt>
      <trkpt lat="48.04336" lon="7.10316">
        <ele>699.2</ele>
        <time>2023-08-12T10:18:58Z</time>
      </trkpt>
      <trkpt lat="48.04337" lon="7.10317">
        <ele>699.2</ele>
        <time>2023-08-12T10:18:59Z</time>
      </trkpt>
      <trkpt lat="48.0434" lon="7.10318">
        <ele>699.3</ele>
        <time>2023-08-12T10:19:00Z</time>
      </trkpt>
      <trkpt lat="48.04343" lon="7.10319">
        <ele>699.3</ele>
        <time>2023-08-12T10:19:01Z</time>
      </trkpt>
      <trkpt lat="48.04345" lon="7.10318">
        <ele>699.4</ele>
        <time>2023-08-12T10:19:02Z</time>
      </trkpt>
      <trkpt lat="48.0435" lon="7.10317">
        <ele>699.5</ele>
        <time>2023-08-12T10:19:03Z</time>
      </trkpt>
      <trkpt lat="48.04352" lon="7.10317">
        <ele>699.5</ele>
        <time>2023-08-12T10:19:04Z</time>
      </trkpt>
      <trkpt lat="48.04354" lon="7.10318">
        <ele>699.5</ele>
        <time>2023-08-12T10:19:05Z</time>
      </trkpt>
      <trkpt lat="48.04355" lon="7.10319">
        <ele>699.6</ele>
        <time>2023-08-12T10:19:06Z</time>
      </trkpt>
      <trkpt lat="48.04356" lon="7.10319">
        <ele>699.6</ele>
        <time>2023-08-12T10:19:07Z</time>
      </trkpt>
      <trkpt lat="48.04358" lon="7.1032">
        <ele>699.7</ele>
        <time>2023-08-12T10:19:08Z</time>
      </trkpt>
      <trkpt lat="48.0436" lon="7.1032">
        <ele>699.7</ele>
        <time>2023-08-12T10:19:09Z</time>
      </trkpt>
      <trkpt lat="48.04362" lon="7.1032">
        <ele>699.8</ele>
        <time>2023-08-12T10:19:10Z</time>
      </trkpt>
      <trkpt lat="48.04363" lon="7.1032">
        <ele>699.8</ele>
        <time>2023-08-12T10:19:11Z</time>
      </trkpt>
      <trkpt lat="48.04365" lon="7.1032">
        <ele>699.8</ele>
        <time>2023-08-12T10:19:12Z</time>
      </trkpt>
      <trkpt lat="48.04366" lon="7.1032">
        <ele>699.9</ele>
        <time>2023-08-12T10:19:13Z</time>
      </trkpt>
      <trkpt lat="48.04368" lon="7.10319">
        <ele>700</ele>
        <time>2023-08-12T10:19:14Z</time>
      </trkpt>
      <trkpt lat="48.04369" lon="7.10319">
        <ele>700</ele>
        <time>2023-08-12T10:19:15Z</time>
      </trkpt>
      <trkpt lat="48.04371" lon="7.10318">
        <ele>700.1</ele>
        <time>2023-08-12T10:19:16Z</time>
      </trkpt>
      <trkpt lat="48.04373" lon="7.10318">
        <ele>700.2</ele>
        <time>2023-08-12T10:19:17Z</time>
      </trkpt>
      <trkpt lat="48.04375" lon="7.10318">
        <ele>700.2</ele>
        <time>2023-08-12T10:19:18Z</time>
      </trkpt>
      <trkpt lat="48.04376" lon="7.10319">
        <ele>700.3</ele>
        <time>2023-08-12T10:19:19Z</time>
      </trkpt>
      <trkpt lat="48.04378" lon="7.10319">
        <ele>700.4</ele>
        <time>2023-08-12T10:19:20Z</time>
      </trkpt>
      <trkpt lat="48.04379" lon="7.10319">
        <ele>700.4</ele>
        <time>2023-08-12T10:19:21Z</time>
      </trkpt>
      <trkpt lat="48.04381" lon="7.1032">
        <ele>700.5</ele>
        <time>2023-08-12T10:19:22Z</time>
      </trkpt>
      <trkpt lat="48.04383" lon="7.10319">
        <ele>700.5</ele>
        <time>2023-08-12T10:19:23Z</time>
      </trkpt>
      <trkpt lat="48.04384" lon="7.10318">
        <ele>700.6</ele>
        <time>2023-08-12T10:19:24Z</time>
      </trkpt>
      <trkpt lat="48.04386" lon="7.10318">
        <ele>700.7</ele>
        <time>2023-08-12T10:19:25Z</time>
      </trkpt>
      <trkpt lat="48.04387" lon="7.10317">
        <ele>700.7</ele>
        <time>2023-08-12T10:19:26Z</time>
      </trkpt>
      <trkpt lat="48.04389" lon="7.10317">
        <ele>700.8</ele>
        <time>2023-08-12T10:19:27Z</time>
      </trkpt>
      <trkpt lat="48.0439" lon="7.10317">
        <ele>700.8</ele>
        <time>2023-08-12T10:19:28Z</time>
      </trkpt>
      <trkpt lat="48.04392" lon="7.10317">
        <ele>700.9</ele>
        <time>2023-08-12T10:19:29Z</time>
      </trkpt>
      <trkpt lat="48.04394" lon="7.10316">
        <ele>700.9</ele>
        <time>2023-08-12T10:19:30Z</time>
      </trkpt>
      <trkpt lat="48.04396" lon="7.10316">
        <ele>701</ele>
        <time>2023-08-12T10:19:31Z</time>
      </trkpt>
      <trkpt lat="48.04398" lon="7.10316">
        <ele>701.1</ele>
        <time>2023-08-12T10:19:32Z</time>
      </trkpt>
      <trkpt lat="48.044" lon="7.10316">
        <ele>701.1</ele>
        <time>2023-08-12T10:19:33Z</time>
      </trkpt>
      <trkpt lat="48.04401" lon="7.10316">
        <ele>701.2</ele>
        <time>2023-08-12T10:19:34Z</time>
      </trkpt>
      <trkpt lat="48.04403" lon="7.10317">
        <ele>701.2</ele>
        <time>2023-08-12T10:19:35Z</time>
      </trkpt>
      <trkpt lat="48.04406" lon="7.10319">
        <ele>701.3</ele>
        <time>2023-08-12T10:19:36Z</time>
      </trkpt>
      <trkpt lat="48.04409" lon="7.10319">
        <ele>701.4</ele>
        <time>2023-08-12T10:19:37Z</time>
      </trkpt>
      <trkpt lat="48.04411" lon="7.1032">
        <ele>701.4</ele>
        <time>2023-08-12T10:19:38Z</time>
      </trkpt>
      <trkpt lat="48.04413" lon="7.1032">
        <ele>701.5</ele>
        <time>2023-08-12T10:19:39Z</time>
      </trkpt>
      <trkpt lat="48.04415" lon="7.1032">
        <ele>701.5</ele>
        <time>2023-08-12T10:19:40Z</time>
      </trkpt>
      <trkpt lat="48.04417" lon="7.10321">
        <ele>701.6</ele>
        <time>2023-08-12T10:19:41Z</time>
      </trkpt>
      <trkpt lat="48.0442" lon="7.10321">
        <ele>701.7</ele>
        <time>2023-08-12T10:19:42Z</time>
      </trkpt>
      <trkpt lat="48.04423" lon="7.10321">
        <ele>701.8</ele>
        <time>2023-08-12T10:19:43Z</time>
      </trkpt>
      <trkpt lat="48.04425" lon="7.10321">
        <ele>701.8</ele>
        <time>2023-08-12T10:19:44Z</time>
      </trkpt>
      <trkpt lat="48.04428" lon="7.10322">
        <ele>701.9</ele>
        <time>2023-08-12T10:19:45Z</time>
      </trkpt>
      <trkpt lat="48.04432" lon="7.10322">
        <ele>702</ele>
        <time>2023-08-12T10:19:46Z</time>
      </trkpt>
      <trkpt lat="48.04435" lon="7.10321">
        <ele>702.1</ele>
        <time>2023-08-12T10:19:47Z</time>
      </trkpt>
      <trkpt lat="48.04436" lon="7.10321">
        <ele>702.2</ele>
        <time>2023-08-12T10:19:48Z</time>
      </trkpt>
      <trkpt lat="48.04437" lon="7.1032">
        <ele>702.2</ele>
        <time>2023-08-12T10:19:49Z</time>
      </trkpt>
      <trkpt lat="48.04439" lon="7.10321">
        <ele>702.2</ele>
        <time>2023-08-12T10:19:50Z</time>
      </trkpt>
      <trkpt lat="48.04441" lon="7.10322">
        <ele>702.3</ele>
        <time>2023-08-12T10:19:51Z</time>
      </trkpt>
      <trkpt lat="48.04443" lon="7.10323">
        <ele>702.3</ele>
        <time>2023-08-12T10:19:52Z</time>
      </trkpt>
      <trkpt lat="48.04445" lon="7.10324">
        <ele>702.4</ele>
        <time>2023-08-12T10:19:53Z</time>
      </trkpt>
      <trkpt lat="48.04447" lon="7.10323">
        <ele>702.4</ele>
        <time>2023-08-12T10:19:54Z</time>
      </trkpt>
      <trkpt lat="48.04449" lon="7.10321">
        <ele>702.5</ele>
        <time>2023-08-12T10:19:55Z</time>
      </trkpt>
      <trkpt lat="48.04451" lon="7.1032">
        <ele>702.6</ele>
        <time>2023-08-12T10:19:56Z</time>
      </trkpt>
      <trkpt lat="48.04452" lon="7.1032">
        <ele>702.6</ele>
        <time>2023-08-12T10:19:57Z</time>
      </trkpt>
      <trkpt lat="48.04453" lon="7.10319">
        <ele>702.6</ele>
        <time>2023-08-12T10:19:58Z</time>
      </trkpt>
      <trkpt lat="48.04455" lon="7.10319">
        <ele>702.7</ele>
        <time>2023-08-12T10:19:59Z</time>
      </trkpt>
      <trkpt lat="48.04456" lon="7.10318">
        <ele>702.7</ele>
        <time>2023-08-12T10:20:00Z</time>
      </trkpt>
      <trkpt lat="48.04458" lon="7.10317">
        <ele>702.8</ele>
        <time>2023-08-12T10:20:01Z</time>
      </trkpt>
      <trkpt lat="48.0446" lon="7.10316">
        <ele>702.8</ele>
        <time>2023-08-12T10:20:02Z</time>
      </trkpt>
      <trkpt lat="48.04462" lon="7.10316">
        <ele>702.9</ele>
        <time>2023-08-12T10:20:03Z</time>
      </trkpt>
      <trkpt lat="48.04463" lon="7.10315">
        <ele>702.9</ele>
        <time>2023-08-12T10:20:04Z</time>
      </trkpt>
      <trkpt lat="48.04465" lon="7.10314">
        <ele>702.9</ele>
        <time>2023-08-12T10:20:05Z</time>
      </trkpt>
      <trkpt lat="48.04466" lon="7.10313">
        <ele>703</ele>
        <time>2023-08-12T10:20:06Z</time>
      </trkpt>
      <trkpt lat="48.04468" lon="7.10312">
        <ele>703</ele>
        <time>2023-08-12T10:20:07Z</time>
      </trkpt>
      <trkpt lat="48.04469" lon="7.1031">
        <ele>703.1</ele>
        <time>2023-08-12T10:20:08Z</time>
      </trkpt>
      <trkpt lat="48.04471" lon="7.10308">
        <ele>703.1</ele>
        <time>2023-08-12T10:20:09Z</time>
      </trkpt>
      <trkpt lat="48.04472" lon="7.10306">
        <ele>703.1</ele>
        <time>2023-08-12T10:20:10Z</time>
      </trkpt>
      <trkpt lat="48.04473" lon="7.10304">
        <ele>703.2</ele>
        <time>2023-08-12T10:20:11Z</time>
      </trkpt>
      <trkpt lat="48.04475" lon="7.10301">
        <ele>703.2</ele>
        <time>2023-08-12T10:20:12Z</time>
      </trkpt>
      <trkpt lat="48.04476" lon="7.10299">
        <ele>703.3</ele>
        <time>2023-08-12T10:20:13Z</time>
      </trkpt>
      <trkpt lat="48.04478" lon="7.10296">
        <ele>703.4</ele>
        <time>2023-08-12T10:20:14Z</time>
      </trkpt>
      <trkpt lat="48.0448" lon="7.10294">
        <ele>703.4</ele>
        <time>2023-08-12T10:20:15Z</time>
      </trkpt>
      <trkpt lat="48.04481" lon="7.10291">
        <ele>703.5</ele>
        <time>2023-08-12T10:20:16Z</time>
      </trkpt>
      <trkpt lat="48.04482" lon="7.10288">
        <ele>703.5</ele>
        <time>2023-08-12T10:20:17Z</time>
      </trkpt>
      <trkpt lat="48.04484" lon="7.10285">
        <ele>703.6</ele>
        <time>2023-08-12T10:20:18Z</time>
      </trkpt>
      <trkpt lat="48.04485" lon="7.10282">
        <ele>703.6</ele>
        <time>2023-08-12T10:20:19Z</time>
      </trkpt>
      <trkpt lat="48.04485" lon="7.10279">
        <ele>703.7</ele>
        <time>2023-08-12T10:20:20Z</time>
      </trkpt>
      <trkpt lat="48.04486" lon="7.10276">
        <ele>703.8</ele>
        <time>2023-08-12T10:20:21Z</time>
      </trkpt>
      <trkpt lat="48.04488" lon="7.10273">
        <ele>703.8</ele>
        <time>2023-08-12T10:20:22Z</time>
      </trkpt>
      <trkpt lat="48.04491" lon="7.1027">
        <ele>703.9</ele>
        <time>2023-08-12T10:20:23Z</time>
      </trkpt>
      <trkpt lat="48.04492" lon="7.10268">
        <ele>704</ele>
        <time>2023-08-12T10:20:24Z</time>
      </trkpt>
      <trkpt lat="48.04494" lon="7.10265">
        <ele>704.1</ele>
        <time>2023-08-12T10:20:25Z</time>
      </trkpt>
      <trkpt lat="48.04495" lon="7.10262">
        <ele>704.2</ele>
        <time>2023-08-12T10:20:26Z</time>
      </trkpt>
      <trkpt lat="48.04497" lon="7.1026">
        <ele>704.2</ele>
        <time>2023-08-12T10:20:27Z</time>
      </trkpt>
      <trkpt lat="48.04498" lon="7.10257">
        <ele>704.3</ele>
        <time>2023-08-12T10:20:28Z</time>
      </trkpt>
      <trkpt lat="48.04499" lon="7.10254">
        <ele>704.3</ele>
        <time>2023-08-12T10:20:29Z</time>
      </trkpt>
      <trkpt lat="48.045" lon="7.10252">
        <ele>704.4</ele>
        <time>2023-08-12T10:20:30Z</time>
      </trkpt>
      <trkpt lat="48.04502" lon="7.1025">
        <ele>704.4</ele>
        <time>2023-08-12T10:20:31Z</time>
      </trkpt>
      <trkpt lat="48.04503" lon="7.10248">
        <ele>704.5</ele>
        <time>2023-08-12T10:20:32Z</time>
      </trkpt>
      <trkpt lat="48.04504" lon="7.10245">
        <ele>704.5</ele>
        <time>2023-08-12T10:20:33Z</time>
      </trkpt>
      <trkpt lat="48.04505" lon="7.10242">
        <ele>704.6</ele>
        <time>2023-08-12T10:20:34Z</time>
      </trkpt>
      <trkpt lat="48.04506" lon="7.1024">
        <ele>704.6</ele>
        <time>2023-08-12T10:20:35Z</time>
      </trkpt>
      <trkpt lat="48.04507" lon="7.10238">
        <ele>704.7</ele>
        <time>2023-08-12T10:20:36Z</time>
      </trkpt>
      <trkpt lat="48.04508" lon="7.10235">
        <ele>704.7</ele>
        <time>2023-08-12T10:20:37Z</time>
      </trkpt>
      <trkpt lat="48.04509" lon="7.10232">
        <ele>704.8</ele>
        <time>2023-08-12T10:20:38Z</time>
      </trkpt>
      <trkpt lat="48.0451" lon="7.1023">
        <ele>704.9</ele>
        <time>2023-08-12T10:20:39Z</time>
      </trkpt>
      <trkpt lat="48.04512" lon="7.10227">
        <ele>704.9</ele>
        <time>2023-08-12T10:20:40Z</time>
      </trkpt>
      <trkpt lat="48.04512" lon="7.10225">
        <ele>705</ele>
        <time>2023-08-12T10:20:41Z</time>
      </trkpt>
      <trkpt lat="48.04513" lon="7.10222">
        <ele>705</ele>
        <time>2023-08-12T10:20:42Z</time>
      </trkpt>
      <trkpt lat="48.04514" lon="7.1022">
        <ele>705.1</ele>
        <time>2023-08-12T10:20:43Z</time>
      </trkpt>
      <trkpt lat="48.04515" lon="7.10217">
        <ele>705.2</ele>
        <time>2023-08-12T10:20:44Z</time>
      </trkpt>
      <trkpt lat="48.04516" lon="7.10214">
        <ele>705.2</ele>
        <time>2023-08-12T10:20:45Z</time>
      </trkpt>
      <trkpt lat="48.04517" lon="7.10213">
        <ele>705.3</ele>
        <time>2023-08-12T10:20:46Z</time>
      </trkpt>
      <trkpt lat="48.04517" lon="7.10211">
        <ele>705.3</ele>
        <time>2023-08-12T10:20:47Z</time>
      </trkpt>
      <trkpt lat="48.04517" lon="7.10209">
        <ele>705.3</ele>
        <time>2023-08-12T10:20:48Z</time>
      </trkpt>
      <trkpt lat="48.04517" lon="7.10206">
        <ele>705.4</ele>
        <time>2023-08-12T10:20:49Z</time>
      </trkpt>
      <trkpt lat="48.04517" lon="7.10204">
        <ele>705.4</ele>
        <time>2023-08-12T10:20:50Z</time>
      </trkpt>
      <trkpt lat="48.04518" lon="7.10201">
        <ele>705.5</ele>
        <time>2023-08-12T10:20:51Z</time>
      </trkpt>
      <trkpt lat="48.04519" lon="7.10198">
        <ele>705.6</ele>
        <time>2023-08-12T10:20:52Z</time>
      </trkpt>
      <trkpt lat="48.0452" lon="7.10195">
        <ele>705.6</ele>
        <time>2023-08-12T10:20:53Z</time>
      </trkpt>
      <trkpt lat="48.0452" lon="7.10193">
        <ele>705.7</ele>
        <time>2023-08-12T10:20:54Z</time>
      </trkpt>
      <trkpt lat="48.0452" lon="7.10191">
        <ele>705.7</ele>
        <time>2023-08-12T10:20:55Z</time>
      </trkpt>
      <trkpt lat="48.0452" lon="7.10188">
        <ele>705.7</ele>
        <time>2023-08-12T10:20:56Z</time>
      </trkpt>
      <trkpt lat="48.0452" lon="7.10185">
        <ele>705.8</ele>
        <time>2023-08-12T10:20:57Z</time>
      </trkpt>
      <trkpt lat="48.0452" lon="7.10182">
        <ele>705.8</ele>
        <time>2023-08-12T10:20:58Z</time>
      </trkpt>
      <trkpt lat="48.04521" lon="7.10178">
        <ele>705.9</ele>
        <time>2023-08-12T10:20:59Z</time>
      </trkpt>
      <trkpt lat="48.04521" lon="7.10174">
        <ele>705.9</ele>
        <time>2023-08-12T10:21:00Z</time>
      </trkpt>
      <trkpt lat="48.04522" lon="7.10171">
        <ele>706</ele>
        <time>2023-08-12T10:21:01Z</time>
      </trkpt>
      <trkpt lat="48.04522" lon="7.10168">
        <ele>706.1</ele>
        <time>2023-08-12T10:21:02Z</time>
      </trkpt>
      <trkpt lat="48.04522" lon="7.10164">
        <ele>706.1</ele>
        <time>2023-08-12T10:21:03Z</time>
      </trkpt>
      <trkpt lat="48.04522" lon="7.10161">
        <ele>706.2</ele>
        <time>2023-08-12T10:21:04Z</time>
      </trkpt>
      <trkpt lat="48.04522" lon="7.10158">
        <ele>706.2</ele>
        <time>2023-08-12T10:21:05Z</time>
      </trkpt>
      <trkpt lat="48.04523" lon="7.10154">
        <ele>706.3</ele>
        <time>2023-08-12T10:21:06Z</time>
      </trkpt>
      <trkpt lat="48.04524" lon="7.10151">
        <ele>706.4</ele>
        <time>2023-08-12T10:21:07Z</time>
      </trkpt>
      <trkpt lat="48.04524" lon="7.10148">
        <ele>706.4</ele>
        <time>2023-08-12T10:21:08Z</time>
      </trkpt>
      <trkpt lat="48.04525" lon="7.10144">
        <ele>706.5</ele>
        <time>2023-08-12T10:21:09Z</time>
      </trkpt>
      <trkpt lat="48.04526" lon="7.10141">
        <ele>706.6</ele>
        <time>2023-08-12T10:21:10Z</time>
      </trkpt>
      <trkpt lat="48.04527" lon="7.10138">
        <ele>706.6</ele>
        <time>2023-08-12T10:21:11Z</time>
      </trkpt>
      <trkpt lat="48.04527" lon="7.10134">
        <ele>706.7</ele>
        <time>2023-08-12T10:21:12Z</time>
      </trkpt>
      <trkpt lat="48.04526" lon="7.1013">
        <ele>706.8</ele>
        <time>2023-08-12T10:21:13Z</time>
      </trkpt>
      <trkpt lat="48.04526" lon="7.10126">
        <ele>706.9</ele>
        <time>2023-08-12T10:21:14Z</time>
      </trkpt>
      <trkpt lat="48.04526" lon="7.10123">
        <ele>706.9</ele>
        <time>2023-08-12T10:21:15Z</time>
      </trkpt>
      <trkpt lat="48.04527" lon="7.1012">
        <ele>707</ele>
        <time>2023-08-12T10:21:16Z</time>
      </trkpt>
      <trkpt lat="48.04526" lon="7.10117">
        <ele>707</ele>
        <time>2023-08-12T10:21:17Z</time>
      </trkpt>
      <trkpt lat="48.04526" lon="7.10114">
        <ele>707.1</ele>
        <time>2023-08-12T10:21:18Z</time>
      </trkpt>
      <trkpt lat="48.04525" lon="7.10111">
        <ele>707.2</ele>
        <time>2023-08-12T10:21:19Z</time>
      </trkpt>
      <trkpt lat="48.04525" lon="7.10108">
        <ele>707.2</ele>
        <time>2023-08-12T10:21:20Z</time>
      </trkpt>
      <trkpt lat="48.04525" lon="7.10105">
        <ele>707.2</ele>
        <time>2023-08-12T10:21:21Z</time>
      </trkpt>
      <trkpt lat="48.04526" lon="7.10102">
        <ele>707.3</ele>
        <time>2023-08-12T10:21:22Z</time>
      </trkpt>
      <trkpt lat="48.04526" lon="7.10099">
        <ele>707.4</ele>
        <time>2023-08-12T10:21:23Z</time>
      </trkpt>
      <trkpt lat="48.04526" lon="7.10097">
        <ele>707.4</ele>
        <time>2023-08-12T10:21:24Z</time>
      </trkpt>
      <trkpt lat="48.04525" lon="7.10093">
        <ele>707.5</ele>
        <time>2023-08-12T10:21:25Z</time>
      </trkpt>
      <trkpt lat="48.04525" lon="7.1009">
        <ele>707.5</ele>
        <time>2023-08-12T10:21:26Z</time>
      </trkpt>
      <trkpt lat="48.04524" lon="7.10088">
        <ele>707.6</ele>
        <time>2023-08-12T10:21:27Z</time>
      </trkpt>
      <trkpt lat="48.04524" lon="7.10085">
        <ele>707.6</ele>
        <time>2023-08-12T10:21:28Z</time>
      </trkpt>
      <trkpt lat="48.04524" lon="7.10083">
        <ele>707.6</ele>
        <time>2023-08-12T10:21:29Z</time>
      </trkpt>
      <trkpt lat="48.04523" lon="7.10081">
        <ele>707.7</ele>
        <time>2023-08-12T10:21:30Z</time>
      </trkpt>
      <trkpt lat="48.04522" lon="7.10078">
        <ele>707.7</ele>
        <time>2023-08-12T10:21:31Z</time>
      </trkpt>
      <trkpt lat="48.04521" lon="7.10075">
        <ele>707.8</ele>
        <time>2023-08-12T10:21:32Z</time>
      </trkpt>
      <trkpt lat="48.0452" lon="7.10073">
        <ele>707.8</ele>
        <time>2023-08-12T10:21:33Z</time>
      </trkpt>
      <trkpt lat="48.04519" lon="7.1007">
        <ele>707.9</ele>
        <time>2023-08-12T10:21:34Z</time>
      </trkpt>
      <trkpt lat="48.04518" lon="7.10068">
        <ele>707.9</ele>
        <time>2023-08-12T10:21:35Z</time>
      </trkpt>
      <trkpt lat="48.04517" lon="7.10065">
        <ele>708</ele>
        <time>2023-08-12T10:21:36Z</time>
      </trkpt>
      <trkpt lat="48.04517" lon="7.10063">
        <ele>708</ele>
        <time>2023-08-12T10:21:37Z</time>
      </trkpt>
      <trkpt lat="48.04516" lon="7.10061">
        <ele>708.1</ele>
        <time>2023-08-12T10:21:38Z</time>
      </trkpt>
      <trkpt lat="48.04514" lon="7.10058">
        <ele>708.1</ele>
        <time>2023-08-12T10:21:39Z</time>
      </trkpt>
      <trkpt lat="48.04514" lon="7.10055">
        <ele>708.2</ele>
        <time>2023-08-12T10:21:40Z</time>
      </trkpt>
      <trkpt lat="48.04514" lon="7.10053">
        <ele>708.2</ele>
        <time>2023-08-12T10:21:41Z</time>
      </trkpt>
      <trkpt lat="48.04514" lon="7.1005">
        <ele>708.3</ele>
        <time>2023-08-12T10:21:42Z</time>
      </trkpt>
      <trkpt lat="48.04513" lon="7.10047">
        <ele>708.3</ele>
        <time>2023-08-12T10:21:43Z</time>
      </trkpt>
      <trkpt lat="48.04512" lon="7.10043">
        <ele>708.4</ele>
        <time>2023-08-12T10:21:44Z</time>
      </trkpt>
      <trkpt lat="48.04511" lon="7.1004">
        <ele>708.5</ele>
        <time>2023-08-12T10:21:45Z</time>
      </trkpt>
      <trkpt lat="48.04511" lon="7.10037">
        <ele>708.5</ele>
        <time>2023-08-12T10:21:46Z</time>
      </trkpt>
      <trkpt lat="48.0451" lon="7.10034">
        <ele>708.6</ele>
        <time>2023-08-12T10:21:47Z</time>
      </trkpt>
      <trkpt lat="48.0451" lon="7.10031">
        <ele>708.6</ele>
        <time>2023-08-12T10:21:48Z</time>
      </trkpt>
      <trkpt lat="48.04509" lon="7.10028">
        <ele>708.7</ele>
        <time>2023-08-12T10:21:49Z</time>
      </trkpt>
      <trkpt lat="48.04508" lon="7.10026">
        <ele>708.8</ele>
        <time>2023-08-12T10:21:50Z</time>
      </trkpt>
      <trkpt lat="48.04505" lon="7.10022">
        <ele>708.9</ele>
        <time>2023-08-12T10:21:51Z</time>
      </trkpt>
      <trkpt lat="48.04506" lon="7.10019">
        <ele>708.9</ele>
        <time>2023-08-12T10:21:52Z</time>
      </trkpt>
      <trkpt lat="48.04504" lon="7.10015">
        <ele>709</ele>
        <time>2023-08-12T10:21:53Z</time>
      </trkpt>
      <trkpt lat="48.04504" lon="7.10012">
        <ele>709.1</ele>
        <time>2023-08-12T10:21:54Z</time>
      </trkpt>
      <trkpt lat="48.04504" lon="7.10009">
        <ele>709.1</ele>
        <time>2023-08-12T10:21:55Z</time>
      </trkpt>
      <trkpt lat="48.04504" lon="7.10006">
        <ele>709.2</ele>
        <time>2023-08-12T10:21:56Z</time>
      </trkpt>
      <trkpt lat="48.04503" lon="7.10004">
        <ele>709.3</ele>
        <time>2023-08-12T10:21:57Z</time>
      </trkpt>
      <trkpt lat="48.04501" lon="7.09998">
        <ele>709.4</ele>
        <time>2023-08-12T10:21:58Z</time>
      </trkpt>
      <trkpt lat="48.045" lon="7.09994">
        <ele>709.5</ele>
        <time>2023-08-12T10:21:59Z</time>
      </trkpt>
      <trkpt lat="48.04498" lon="7.09992">
        <ele>709.5</ele>
        <time>2023-08-12T10:22:00Z</time>
      </trkpt>
      <trkpt lat="48.04498" lon="7.0999">
        <ele>709.6</ele>
        <time>2023-08-12T10:22:01Z</time>
      </trkpt>
      <trkpt lat="48.04497" lon="7.09988">
        <ele>709.6</ele>
        <time>2023-08-12T10:22:02Z</time>
      </trkpt>
      <trkpt lat="48.04496" lon="7.09984">
        <ele>709.7</ele>
        <time>2023-08-12T10:22:03Z</time>
      </trkpt>
      <trkpt lat="48.04495" lon="7.09982">
        <ele>709.8</ele>
        <time>2023-08-12T10:22:04Z</time>
      </trkpt>
      <trkpt lat="48.04495" lon="7.09978">
        <ele>709.8</ele>
        <time>2023-08-12T10:22:05Z</time>
      </trkpt>
      <trkpt lat="48.04494" lon="7.09975">
        <ele>709.9</ele>
        <time>2023-08-12T10:22:06Z</time>
      </trkpt>
      <trkpt lat="48.04492" lon="7.09974">
        <ele>709.9</ele>
        <time>2023-08-12T10:22:07Z</time>
      </trkpt>
      <trkpt lat="48.04489" lon="7.09972">
        <ele>710</ele>
        <time>2023-08-12T10:22:08Z</time>
      </trkpt>
      <trkpt lat="48.04486" lon="7.09969">
        <ele>710.1</ele>
        <time>2023-08-12T10:22:09Z</time>
      </trkpt>
      <trkpt lat="48.04483" lon="7.09965">
        <ele>710.2</ele>
        <time>2023-08-12T10:22:10Z</time>
      </trkpt>
      <trkpt lat="48.04482" lon="7.09963">
        <ele>710.2</ele>
        <time>2023-08-12T10:22:11Z</time>
      </trkpt>
      <trkpt lat="48.04481" lon="7.0996">
        <ele>710.3</ele>
        <time>2023-08-12T10:22:12Z</time>
      </trkpt>
      <trkpt lat="48.04478" lon="7.09959">
        <ele>710.3</ele>
        <time>2023-08-12T10:22:13Z</time>
      </trkpt>
      <trkpt lat="48.04476" lon="7.09957">
        <ele>710.4</ele>
        <time>2023-08-12T10:22:14Z</time>
      </trkpt>
      <trkpt lat="48.04475" lon="7.09956">
        <ele>710.4</ele>
        <time>2023-08-12T10:22:15Z</time>
      </trkpt>
      <trkpt lat="48.04474" lon="7.09955">
        <ele>710.4</ele>
        <time>2023-08-12T10:22:16Z</time>
      </trkpt>
      <trkpt lat="48.04473" lon="7.09953">
        <ele>710.4</ele>
        <time>2023-08-12T10:22:17Z</time>
      </trkpt>
      <trkpt lat="48.04472" lon="7.09952">
        <ele>710.5</ele>
        <time>2023-08-12T10:22:18Z</time>
      </trkpt>
      <trkpt lat="48.0447" lon="7.0995">
        <ele>710.5</ele>
        <time>2023-08-12T10:22:19Z</time>
      </trkpt>
      <trkpt lat="48.04468" lon="7.09949">
        <ele>710.6</ele>
        <time>2023-08-12T10:22:20Z</time>
      </trkpt>
      <trkpt lat="48.04466" lon="7.09948">
        <ele>710.6</ele>
        <time>2023-08-12T10:22:21Z</time>
      </trkpt>
      <trkpt lat="48.04464" lon="7.09947">
        <ele>710.7</ele>
        <time>2023-08-12T10:22:22Z</time>
      </trkpt>
      <trkpt lat="48.04462" lon="7.09946">
        <ele>710.7</ele>
        <time>2023-08-12T10:22:23Z</time>
      </trkpt>
      <trkpt lat="48.0446" lon="7.09945">
        <ele>710.8</ele>
        <time>2023-08-12T10:22:24Z</time>
      </trkpt>
      <trkpt lat="48.04458" lon="7.09944">
        <ele>710.8</ele>
        <time>2023-08-12T10:22:25Z</time>
      </trkpt>
      <trkpt lat="48.04456" lon="7.09944">
        <ele>710.8</ele>
        <time>2023-08-12T10:22:26Z</time>
      </trkpt>
      <trkpt lat="48.04454" lon="7.09943">
        <ele>710.9</ele>
        <time>2023-08-12T10:22:27Z</time>
      </trkpt>
      <trkpt lat="48.04453" lon="7.09943">
        <ele>710.9</ele>
        <time>2023-08-12T10:22:28Z</time>
      </trkpt>
      <trkpt lat="48.04451" lon="7.09942">
        <ele>710.9</ele>
        <time>2023-08-12T10:22:29Z</time>
      </trkpt>
      <trkpt lat="48.0445" lon="7.09942">
        <ele>711</ele>
        <time>2023-08-12T10:22:30Z</time>
      </trkpt>
      <trkpt lat="48.04448" lon="7.09941">
        <ele>711</ele>
        <time>2023-08-12T10:22:31Z</time>
      </trkpt>
      <trkpt lat="48.04446" lon="7.09942">
        <ele>711</ele>
        <time>2023-08-12T10:22:32Z</time>
      </trkpt>
      <trkpt lat="48.04444" lon="7.09942">
        <ele>711.1</ele>
        <time>2023-08-12T10:22:33Z</time>
      </trkpt>
      <trkpt lat="48.04442" lon="7.09942">
        <ele>711.1</ele>
        <time>2023-08-12T10:22:34Z</time>
      </trkpt>
      <trkpt lat="48.0444" lon="7.09943">
        <ele>711.2</ele>
        <time>2023-08-12T10:22:35Z</time>
      </trkpt>
      <trkpt lat="48.04438" lon="7.09944">
        <ele>711.2</ele>
        <time>2023-08-12T10:22:36Z</time>
      </trkpt>
      <trkpt lat="48.04435" lon="7.09944">
        <ele>711.3</ele>
        <time>2023-08-12T10:22:37Z</time>
      </trkpt>
      <trkpt lat="48.04433" lon="7.09944">
        <ele>711.3</ele>
        <time>2023-08-12T10:22:38Z</time>
      </trkpt>
      <trkpt lat="48.04431" lon="7.09944">
        <ele>711.4</ele>
        <time>2023-08-12T10:22:39Z</time>
      </trkpt>
      <trkpt lat="48.04429" lon="7.09944">
        <ele>711.4</ele>
        <time>2023-08-12T10:22:40Z</time>
      </trkpt>
      <trkpt lat="48.04427" lon="7.09944">
        <ele>711.4</ele>
        <time>2023-08-12T10:22:41Z</time>
      </trkpt>
      <trkpt lat="48.04424" lon="7.09944">
        <ele>711.5</ele>
        <time>2023-08-12T10:22:42Z</time>
      </trkpt>
      <trkpt lat="48.04422" lon="7.09944">
        <ele>711.6</ele>
        <time>2023-08-12T10:22:43Z</time>
      </trkpt>
      <trkpt lat="48.04419" lon="7.09944">
        <ele>711.8</ele>
        <time>2023-08-12T10:22:44Z</time>
      </trkpt>
      <trkpt lat="48.04417" lon="7.09943">
        <ele>711.9</ele>
        <time>2023-08-12T10:22:45Z</time>
      </trkpt>
      <trkpt lat="48.04415" lon="7.09943">
        <ele>712</ele>
        <time>2023-08-12T10:22:46Z</time>
      </trkpt>
      <trkpt lat="48.04413" lon="7.09943">
        <ele>712.1</ele>
        <time>2023-08-12T10:22:47Z</time>
      </trkpt>
      <trkpt lat="48.0441" lon="7.09942">
        <ele>712.3</ele>
        <time>2023-08-12T10:22:48Z</time>
      </trkpt>
      <trkpt lat="48.04408" lon="7.09941">
        <ele>712.4</ele>
        <time>2023-08-12T10:22:49Z</time>
      </trkpt>
      <trkpt lat="48.04407" lon="7.0994">
        <ele>712.5</ele>
        <time>2023-08-12T10:22:50Z</time>
      </trkpt>
      <trkpt lat="48.04405" lon="7.09939">
        <ele>712.6</ele>
        <time>2023-08-12T10:22:51Z</time>
      </trkpt>
      <trkpt lat="48.04403" lon="7.09937">
        <ele>712.7</ele>
        <time>2023-08-12T10:22:52Z</time>
      </trkpt>
      <trkpt lat="48.04401" lon="7.09936">
        <ele>712.8</ele>
        <time>2023-08-12T10:22:53Z</time>
      </trkpt>
      <trkpt lat="48.04399" lon="7.09935">
        <ele>712.9</ele>
        <time>2023-08-12T10:22:54Z</time>
      </trkpt>
      <trkpt lat="48.04397" lon="7.09934">
        <ele>713</ele>
        <time>2023-08-12T10:22:55Z</time>
      </trkpt>
      <trkpt lat="48.04396" lon="7.09932">
        <ele>713</ele>
        <time>2023-08-12T10:22:56Z</time>
      </trkpt>
      <trkpt lat="48.04395" lon="7.09931">
        <ele>713.1</ele>
        <time>2023-08-12T10:22:57Z</time>
      </trkpt>
      <trkpt lat="48.04394" lon="7.09929">
        <ele>713.2</ele>
        <time>2023-08-12T10:22:58Z</time>
      </trkpt>
      <trkpt lat="48.04392" lon="7.09928">
        <ele>713.3</ele>
        <time>2023-08-12T10:22:59Z</time>
      </trkpt>
      <trkpt lat="48.04391" lon="7.09926">
        <ele>713.3</ele>
        <time>2023-08-12T10:23:00Z</time>
      </trkpt>
      <trkpt lat="48.0439" lon="7.09924">
        <ele>713.4</ele>
        <time>2023-08-12T10:23:01Z</time>
      </trkpt>
      <trkpt lat="48.04388" lon="7.09922">
        <ele>713.5</ele>
        <time>2023-08-12T10:23:02Z</time>
      </trkpt>
      <trkpt lat="48.04387" lon="7.0992">
        <ele>713.6</ele>
        <time>2023-08-12T10:23:03Z</time>
      </trkpt>
      <trkpt lat="48.04385" lon="7.09919">
        <ele>713.6</ele>
        <time>2023-08-12T10:23:04Z</time>
      </trkpt>
      <trkpt lat="48.04384" lon="7.09916">
        <ele>713.7</ele>
        <time>2023-08-12T10:23:05Z</time>
      </trkpt>
      <trkpt lat="48.04383" lon="7.09915">
        <ele>713.8</ele>
        <time>2023-08-12T10:23:06Z</time>
      </trkpt>
      <trkpt lat="48.04382" lon="7.09913">
        <ele>713.8</ele>
        <time>2023-08-12T10:23:07Z</time>
      </trkpt>
      <trkpt lat="48.04381" lon="7.09911">
        <ele>713.9</ele>
        <time>2023-08-12T10:23:08Z</time>
      </trkpt>
      <trkpt lat="48.04381" lon="7.09909">
        <ele>714</ele>
        <time>2023-08-12T10:23:09Z</time>
      </trkpt>
      <trkpt lat="48.0438" lon="7.09906">
        <ele>714</ele>
        <time>2023-08-12T10:23:10Z</time>
      </trkpt>
      <trkpt lat="48.0438" lon="7.09904">
        <ele>714.1</ele>
        <time>2023-08-12T10:23:11Z</time>
      </trkpt>
      <trkpt lat="48.0438" lon="7.09902">
        <ele>714.2</ele>
        <time>2023-08-12T10:23:12Z</time>
      </trkpt>
      <trkpt lat="48.0438" lon="7.099">
        <ele>714.2</ele>
        <time>2023-08-12T10:23:13Z</time>
      </trkpt>
      <trkpt lat="48.04379" lon="7.09897">
        <ele>714.3</ele>
        <time>2023-08-12T10:23:14Z</time>
      </trkpt>
      <trkpt lat="48.04378" lon="7.09894">
        <ele>714.4</ele>
        <time>2023-08-12T10:23:15Z</time>
      </trkpt>
      <trkpt lat="48.04378" lon="7.09892">
        <ele>714.5</ele>
        <time>2023-08-12T10:23:16Z</time>
      </trkpt>
      <trkpt lat="48.04378" lon="7.09889">
        <ele>714.6</ele>
        <time>2023-08-12T10:23:17Z</time>
      </trkpt>
      <trkpt lat="48.04377" lon="7.09886">
        <ele>714.7</ele>
        <time>2023-08-12T10:23:18Z</time>
      </trkpt>
      <trkpt lat="48.04377" lon="7.09883">
        <ele>714.8</ele>
        <time>2023-08-12T10:23:19Z</time>
      </trkpt>
      <trkpt lat="48.04377" lon="7.0988">
        <ele>714.9</ele>
        <time>2023-08-12T10:23:20Z</time>
      </trkpt>
      <trkpt lat="48.04376" lon="7.09876">
        <ele>715</ele>
        <time>2023-08-12T10:23:21Z</time>
      </trkpt>
      <trkpt lat="48.04374" lon="7.09873">
        <ele>715.1</ele>
        <time>2023-08-12T10:23:22Z</time>
      </trkpt>
      <trkpt lat="48.04374" lon="7.0987">
        <ele>715.2</ele>
        <time>2023-08-12T10:23:23Z</time>
      </trkpt>
      <trkpt lat="48.04372" lon="7.09868">
        <ele>715.3</ele>
        <time>2023-08-12T10:23:24Z</time>
      </trkpt>
      <trkpt lat="48.0437" lon="7.09865">
        <ele>715.4</ele>
        <time>2023-08-12T10:23:25Z</time>
      </trkpt>
      <trkpt lat="48.04367" lon="7.09863">
        <ele>715.6</ele>
        <time>2023-08-12T10:23:26Z</time>
      </trkpt>
      <trkpt lat="48.04366" lon="7.0986">
        <ele>715.7</ele>
        <time>2023-08-12T10:23:27Z</time>
      </trkpt>
      <trkpt lat="48.04364" lon="7.09857">
        <ele>715.8</ele>
        <time>2023-08-12T10:23:28Z</time>
      </trkpt>
      <trkpt lat="48.04362" lon="7.09854">
        <ele>715.9</ele>
        <time>2023-08-12T10:23:29Z</time>
      </trkpt>
      <trkpt lat="48.0436" lon="7.09851">
        <ele>716</ele>
        <time>2023-08-12T10:23:30Z</time>
      </trkpt>
      <trkpt lat="48.04358" lon="7.09849">
        <ele>716</ele>
        <time>2023-08-12T10:23:31Z</time>
      </trkpt>
      <trkpt lat="48.04358" lon="7.09847">
        <ele>716.1</ele>
        <time>2023-08-12T10:23:32Z</time>
      </trkpt>
      <trkpt lat="48.04356" lon="7.09846">
        <ele>716.1</ele>
        <time>2023-08-12T10:23:33Z</time>
      </trkpt>
      <trkpt lat="48.04354" lon="7.09846">
        <ele>716.2</ele>
        <time>2023-08-12T10:23:34Z</time>
      </trkpt>
      <trkpt lat="48.04351" lon="7.09846">
        <ele>716.3</ele>
        <time>2023-08-12T10:23:35Z</time>
      </trkpt>
      <trkpt lat="48.04349" lon="7.09844">
        <ele>716.4</ele>
        <time>2023-08-12T10:23:36Z</time>
      </trkpt>
      <trkpt lat="48.04345" lon="7.09841">
        <ele>716.5</ele>
        <time>2023-08-12T10:23:37Z</time>
      </trkpt>
      <trkpt lat="48.04342" lon="7.0984">
        <ele>716.6</ele>
        <time>2023-08-12T10:23:38Z</time>
      </trkpt>
      <trkpt lat="48.04339" lon="7.09839">
        <ele>716.7</ele>
        <time>2023-08-12T10:23:39Z</time>
      </trkpt>
      <trkpt lat="48.04337" lon="7.09837">
        <ele>716.8</ele>
        <time>2023-08-12T10:23:40Z</time>
      </trkpt>
      <trkpt lat="48.04335" lon="7.09836">
        <ele>716.8</ele>
        <time>2023-08-12T10:23:41Z</time>
      </trkpt>
      <trkpt lat="48.04334" lon="7.09835">
        <ele>716.9</ele>
        <time>2023-08-12T10:23:42Z</time>
      </trkpt>
      <trkpt lat="48.04331" lon="7.09833">
        <ele>717</ele>
        <time>2023-08-12T10:23:43Z</time>
      </trkpt>
      <trkpt lat="48.04329" lon="7.09832">
        <ele>717</ele>
        <time>2023-08-12T10:23:44Z</time>
      </trkpt>
      <trkpt lat="48.04327" lon="7.0983">
        <ele>717.1</ele>
        <time>2023-08-12T10:23:45Z</time>
      </trkpt>
      <trkpt lat="48.04325" lon="7.09828">
        <ele>717.2</ele>
        <time>2023-08-12T10:23:46Z</time>
      </trkpt>
      <trkpt lat="48.04323" lon="7.09827">
        <ele>717.3</ele>
        <time>2023-08-12T10:23:47Z</time>
      </trkpt>
      <trkpt lat="48.0432" lon="7.09825">
        <ele>717.3</ele>
        <time>2023-08-12T10:23:48Z</time>
      </trkpt>
      <trkpt lat="48.04318" lon="7.09824">
        <ele>717.4</ele>
        <time>2023-08-12T10:23:49Z</time>
      </trkpt>
      <trkpt lat="48.04316" lon="7.09822">
        <ele>717.5</ele>
        <time>2023-08-12T10:23:50Z</time>
      </trkpt>
      <trkpt lat="48.04314" lon="7.09821">
        <ele>717.5</ele>
        <time>2023-08-12T10:23:51Z</time>
      </trkpt>
      <trkpt lat="48.04311" lon="7.09819">
        <ele>717.6</ele>
        <time>2023-08-12T10:23:52Z</time>
      </trkpt>
      <trkpt lat="48.04309" lon="7.09818">
        <ele>717.7</ele>
        <time>2023-08-12T10:23:53Z</time>
      </trkpt>
      <trkpt lat="48.04306" lon="7.09816">
        <ele>717.8</ele>
        <time>2023-08-12T10:23:54Z</time>
      </trkpt>
      <trkpt lat="48.04304" lon="7.09815">
        <ele>717.9</ele>
        <time>2023-08-12T10:23:55Z</time>
      </trkpt>
      <trkpt lat="48.04293" lon="7.09808">
        <ele>718.3</ele>
        <time>2023-08-12T10:23:59Z</time>
      </trkpt>
      <trkpt lat="48.04291" lon="7.09807">
        <ele>718.4</ele>
        <time>2023-08-12T10:24:00Z</time>
      </trkpt>
      <trkpt lat="48.04289" lon="7.09806">
        <ele>718.4</ele>
        <time>2023-08-12T10:24:01Z</time>
      </trkpt>
      <trkpt lat="48.04288" lon="7.09804">
        <ele>718.5</ele>
        <time>2023-08-12T10:24:02Z</time>
      </trkpt>
      <trkpt lat="48.04287" lon="7.09803">
        <ele>718.6</ele>
        <time>2023-08-12T10:24:03Z</time>
      </trkpt>
      <trkpt lat="48.04286" lon="7.09802">
        <ele>718.7</ele>
        <time>2023-08-12T10:24:04Z</time>
      </trkpt>
      <trkpt lat="48.04283" lon="7.098">
        <ele>718.8</ele>
        <time>2023-08-12T10:24:05Z</time>
      </trkpt>
      <trkpt lat="48.04282" lon="7.09798">
        <ele>718.9</ele>
        <time>2023-08-12T10:24:06Z</time>
      </trkpt>
      <trkpt lat="48.0428" lon="7.09796">
        <ele>719</ele>
        <time>2023-08-12T10:24:07Z</time>
      </trkpt>
      <trkpt lat="48.04278" lon="7.09794">
        <ele>719.1</ele>
        <time>2023-08-12T10:24:08Z</time>
      </trkpt>
      <trkpt lat="48.04275" lon="7.09791">
        <ele>719.2</ele>
        <time>2023-08-12T10:24:09Z</time>
      </trkpt>
      <trkpt lat="48.04272" lon="7.09788">
        <ele>719.4</ele>
        <time>2023-08-12T10:24:10Z</time>
      </trkpt>
      <trkpt lat="48.04269" lon="7.09785">
        <ele>719.6</ele>
        <time>2023-08-12T10:24:11Z</time>
      </trkpt>
      <trkpt lat="48.04268" lon="7.09783">
        <ele>719.7</ele>
        <time>2023-08-12T10:24:12Z</time>
      </trkpt>
      <trkpt lat="48.04267" lon="7.0978">
        <ele>719.8</ele>
        <time>2023-08-12T10:24:13Z</time>
      </trkpt>
      <trkpt lat="48.04266" lon="7.09778">
        <ele>719.9</ele>
        <time>2023-08-12T10:24:14Z</time>
      </trkpt>
      <trkpt lat="48.04264" lon="7.09776">
        <ele>720</ele>
        <time>2023-08-12T10:24:15Z</time>
      </trkpt>
      <trkpt lat="48.04262" lon="7.09774">
        <ele>720.2</ele>
        <time>2023-08-12T10:24:16Z</time>
      </trkpt>
      <trkpt lat="48.04259" lon="7.09771">
        <ele>720.4</ele>
        <time>2023-08-12T10:24:17Z</time>
      </trkpt>
      <trkpt lat="48.04256" lon="7.09768">
        <ele>720.6</ele>
        <time>2023-08-12T10:24:18Z</time>
      </trkpt>
      <trkpt lat="48.04254" lon="7.09765">
        <ele>720.8</ele>
        <time>2023-08-12T10:24:19Z</time>
      </trkpt>
      <trkpt lat="48.04253" lon="7.09763">
        <ele>720.9</ele>
        <time>2023-08-12T10:24:20Z</time>
      </trkpt>
      <trkpt lat="48.04252" lon="7.09761">
        <ele>721</ele>
        <time>2023-08-12T10:24:21Z</time>
      </trkpt>
      <trkpt lat="48.0425" lon="7.09759">
        <ele>721.1</ele>
        <time>2023-08-12T10:24:22Z</time>
      </trkpt>
      <trkpt lat="48.04249" lon="7.09757">
        <ele>721.2</ele>
        <time>2023-08-12T10:24:23Z</time>
      </trkpt>
      <trkpt lat="48.04248" lon="7.09754">
        <ele>721.4</ele>
        <time>2023-08-12T10:24:24Z</time>
      </trkpt>
      <trkpt lat="48.04247" lon="7.09752">
        <ele>721.5</ele>
        <time>2023-08-12T10:24:25Z</time>
      </trkpt>
      <trkpt lat="48.04247" lon="7.09749">
        <ele>721.6</ele>
        <time>2023-08-12T10:24:26Z</time>
      </trkpt>
      <trkpt lat="48.04246" lon="7.09747">
        <ele>721.6</ele>
        <time>2023-08-12T10:24:27Z</time>
      </trkpt>
      <trkpt lat="48.04246" lon="7.09746">
        <ele>721.7</ele>
        <time>2023-08-12T10:24:28Z</time>
      </trkpt>
      <trkpt lat="48.04245" lon="7.09743">
        <ele>721.8</ele>
        <time>2023-08-12T10:24:29Z</time>
      </trkpt>
      <trkpt lat="48.04245" lon="7.09741">
        <ele>721.9</ele>
        <time>2023-08-12T10:24:30Z</time>
      </trkpt>
      <trkpt lat="48.04244" lon="7.09738">
        <ele>722</ele>
        <time>2023-08-12T10:24:31Z</time>
      </trkpt>
      <trkpt lat="48.04243" lon="7.09736">
        <ele>722.1</ele>
        <time>2023-08-12T10:24:32Z</time>
      </trkpt>
      <trkpt lat="48.04243" lon="7.09733">
        <ele>722.2</ele>
        <time>2023-08-12T10:24:33Z</time>
      </trkpt>
      <trkpt lat="48.04242" lon="7.0973">
        <ele>722.3</ele>
        <time>2023-08-12T10:24:34Z</time>
      </trkpt>
      <trkpt lat="48.04241" lon="7.09727">
        <ele>722.4</ele>
        <time>2023-08-12T10:24:35Z</time>
      </trkpt>
      <trkpt lat="48.04241" lon="7.09725">
        <ele>722.5</ele>
        <time>2023-08-12T10:24:36Z</time>
      </trkpt>
      <trkpt lat="48.04241" lon="7.09722">
        <ele>722.6</ele>
        <time>2023-08-12T10:24:37Z</time>
      </trkpt>
      <trkpt lat="48.04241" lon="7.09719">
        <ele>722.7</ele>
        <time>2023-08-12T10:24:38Z</time>
      </trkpt>
      <trkpt lat="48.04241" lon="7.09716">
        <ele>722.7</ele>
        <time>2023-08-12T10:24:39Z</time>
      </trkpt>
      <trkpt lat="48.04241" lon="7.09713">
        <ele>722.8</ele>
        <time>2023-08-12T10:24:40Z</time>
      </trkpt>
      <trkpt lat="48.04241" lon="7.09709">
        <ele>722.9</ele>
        <time>2023-08-12T10:24:41Z</time>
      </trkpt>
      <trkpt lat="48.04241" lon="7.09705">
        <ele>723</ele>
        <time>2023-08-12T10:24:42Z</time>
      </trkpt>
      <trkpt lat="48.04239" lon="7.09702">
        <ele>723.1</ele>
        <time>2023-08-12T10:24:43Z</time>
      </trkpt>
      <trkpt lat="48.04238" lon="7.09698">
        <ele>723.2</ele>
        <time>2023-08-12T10:24:44Z</time>
      </trkpt>
      <trkpt lat="48.04236" lon="7.09694">
        <ele>723.3</ele>
        <time>2023-08-12T10:24:45Z</time>
      </trkpt>
      <trkpt lat="48.04235" lon="7.0969">
        <ele>723.4</ele>
        <time>2023-08-12T10:24:46Z</time>
      </trkpt>
      <trkpt lat="48.04234" lon="7.09686">
        <ele>723.5</ele>
        <time>2023-08-12T10:24:47Z</time>
      </trkpt>
      <trkpt lat="48.04232" lon="7.09682">
        <ele>723.6</ele>
        <time>2023-08-12T10:24:48Z</time>
      </trkpt>
      <trkpt lat="48.0423" lon="7.09677">
        <ele>723.7</ele>
        <time>2023-08-12T10:24:49Z</time>
      </trkpt>
      <trkpt lat="48.04228" lon="7.09673">
        <ele>723.8</ele>
        <time>2023-08-12T10:24:50Z</time>
      </trkpt>
      <trkpt lat="48.04227" lon="7.09668">
        <ele>723.9</ele>
        <time>2023-08-12T10:24:51Z</time>
      </trkpt>
      <trkpt lat="48.04225" lon="7.09664">
        <ele>724</ele>
        <time>2023-08-12T10:24:52Z</time>
      </trkpt>
      <trkpt lat="48.04225" lon="7.0966">
        <ele>724.1</ele>
        <time>2023-08-12T10:24:53Z</time>
      </trkpt>
      <trkpt lat="48.04224" lon="7.09656">
        <ele>724.1</ele>
        <time>2023-08-12T10:24:54Z</time>
      </trkpt>
      <trkpt lat="48.04217" lon="7.09633">
        <ele>724.6</ele>
        <time>2023-08-12T10:25:00Z</time>
      </trkpt>
      <trkpt lat="48.04213" lon="7.09629">
        <ele>724.7</ele>
        <time>2023-08-12T10:25:01Z</time>
      </trkpt>
      <trkpt lat="48.04211" lon="7.09627">
        <ele>724.7</ele>
        <time>2023-08-12T10:25:02Z</time>
      </trkpt>
      <trkpt lat="48.04209" lon="7.09624">
        <ele>724.8</ele>
        <time>2023-08-12T10:25:03Z</time>
      </trkpt>
      <trkpt lat="48.04206" lon="7.09621">
        <ele>724.9</ele>
        <time>2023-08-12T10:25:04Z</time>
      </trkpt>
      <trkpt lat="48.04204" lon="7.09614">
        <ele>725</ele>
        <time>2023-08-12T10:25:06Z</time>
      </trkpt>
      <trkpt lat="48.04202" lon="7.09611">
        <ele>725.1</ele>
        <time>2023-08-12T10:25:07Z</time>
      </trkpt>
      <trkpt lat="48.042" lon="7.09608">
        <ele>725.1</ele>
        <time>2023-08-12T10:25:08Z</time>
      </trkpt>
      <trkpt lat="48.04198" lon="7.09605">
        <ele>725.2</ele>
        <time>2023-08-12T10:25:09Z</time>
      </trkpt>
      <trkpt lat="48.04195" lon="7.09603">
        <ele>725.3</ele>
        <time>2023-08-12T10:25:10Z</time>
      </trkpt>
      <trkpt lat="48.04193" lon="7.096">
        <ele>725.3</ele>
        <time>2023-08-12T10:25:11Z</time>
      </trkpt>
      <trkpt lat="48.04186" lon="7.09592">
        <ele>725.5</ele>
        <time>2023-08-12T10:25:14Z</time>
      </trkpt>
      <trkpt lat="48.0418" lon="7.09587">
        <ele>725.7</ele>
        <time>2023-08-12T10:25:16Z</time>
      </trkpt>
      <trkpt lat="48.04179" lon="7.09585">
        <ele>725.7</ele>
        <time>2023-08-12T10:25:17Z</time>
      </trkpt>
      <trkpt lat="48.04177" lon="7.09582">
        <ele>725.7</ele>
        <time>2023-08-12T10:25:18Z</time>
      </trkpt>
      <trkpt lat="48.04175" lon="7.09579">
        <ele>725.8</ele>
        <time>2023-08-12T10:25:19Z</time>
      </trkpt>
      <trkpt lat="48.04172" lon="7.09577">
        <ele>725.8</ele>
        <time>2023-08-12T10:25:20Z</time>
      </trkpt>
      <trkpt lat="48.04164" lon="7.0957">
        <ele>725.9</ele>
        <time>2023-08-12T10:25:22Z</time>
      </trkpt>
      <trkpt lat="48.04153" lon="7.0956">
        <ele>725.9</ele>
        <time>2023-08-12T10:25:25Z</time>
      </trkpt>
      <trkpt lat="48.04149" lon="7.09557">
        <ele>726</ele>
        <time>2023-08-12T10:25:26Z</time>
      </trkpt>
      <trkpt lat="48.04147" lon="7.09553">
        <ele>726</ele>
        <time>2023-08-12T10:25:27Z</time>
      </trkpt>
      <trkpt lat="48.04143" lon="7.0955">
        <ele>726.1</ele>
        <time>2023-08-12T10:25:28Z</time>
      </trkpt>
      <trkpt lat="48.04141" lon="7.09548">
        <ele>726.1</ele>
        <time>2023-08-12T10:25:29Z</time>
      </trkpt>
      <trkpt lat="48.04132" lon="7.09539">
        <ele>726.2</ele>
        <time>2023-08-12T10:25:32Z</time>
      </trkpt>
      <trkpt lat="48.0411" lon="7.09514">
        <ele>726.6</ele>
        <time>2023-08-12T10:25:38Z</time>
      </trkpt>
      <trkpt lat="48.041" lon="7.09501">
        <ele>726.9</ele>
        <time>2023-08-12T10:25:42Z</time>
      </trkpt>
      <trkpt lat="48.04097" lon="7.09498">
        <ele>727</ele>
        <time>2023-08-12T10:25:43Z</time>
      </trkpt>
      <trkpt lat="48.04096" lon="7.09495">
        <ele>727.1</ele>
        <time>2023-08-12T10:25:44Z</time>
      </trkpt>
      <trkpt lat="48.04095" lon="7.09492">
        <ele>727.1</ele>
        <time>2023-08-12T10:25:45Z</time>
      </trkpt>
      <trkpt lat="48.04094" lon="7.09489">
        <ele>727.2</ele>
        <time>2023-08-12T10:25:46Z</time>
      </trkpt>
      <trkpt lat="48.04092" lon="7.09486">
        <ele>727.2</ele>
        <time>2023-08-12T10:25:47Z</time>
      </trkpt>
      <trkpt lat="48.04088" lon="7.0948">
        <ele>727.3</ele>
        <time>2023-08-12T10:25:49Z</time>
      </trkpt>
      <trkpt lat="48.04086" lon="7.09477">
        <ele>727.3</ele>
        <time>2023-08-12T10:25:50Z</time>
      </trkpt>
      <trkpt lat="48.04085" lon="7.09473">
        <ele>727.3</ele>
        <time>2023-08-12T10:25:51Z</time>
      </trkpt>
      <trkpt lat="48.04081" lon="7.09466">
        <ele>727.3</ele>
        <time>2023-08-12T10:25:53Z</time>
      </trkpt>
      <trkpt lat="48.04072" lon="7.09449">
        <ele>727.1</ele>
        <time>2023-08-12T10:25:58Z</time>
      </trkpt>
      <trkpt lat="48.04053" lon="7.09425">
        <ele>727</ele>
        <time>2023-08-12T10:26:04Z</time>
      </trkpt>
      <trkpt lat="48.04047" lon="7.09416">
        <ele>727</ele>
        <time>2023-08-12T10:26:06Z</time>
      </trkpt>
      <trkpt lat="48.04044" lon="7.09412">
        <ele>727</ele>
        <time>2023-08-12T10:26:07Z</time>
      </trkpt>
      <trkpt lat="48.04043" lon="7.0941">
        <ele>727</ele>
        <time>2023-08-12T10:26:08Z</time>
      </trkpt>
      <trkpt lat="48.04041" lon="7.09406">
        <ele>727.1</ele>
        <time>2023-08-12T10:26:09Z</time>
      </trkpt>
      <trkpt lat="48.0404" lon="7.09404">
        <ele>727.1</ele>
        <time>2023-08-12T10:26:10Z</time>
      </trkpt>
      <trkpt lat="48.04038" lon="7.09401">
        <ele>727.1</ele>
        <time>2023-08-12T10:26:11Z</time>
      </trkpt>
      <trkpt lat="48.04036" lon="7.09398">
        <ele>727.1</ele>
        <time>2023-08-12T10:26:12Z</time>
      </trkpt>
      <trkpt lat="48.04033" lon="7.09395">
        <ele>727.2</ele>
        <time>2023-08-12T10:26:13Z</time>
      </trkpt>
      <trkpt lat="48.04032" lon="7.09393">
        <ele>727.2</ele>
        <time>2023-08-12T10:26:14Z</time>
      </trkpt>
      <trkpt lat="48.04029" lon="7.0939">
        <ele>727.2</ele>
        <time>2023-08-12T10:26:15Z</time>
      </trkpt>
      <trkpt lat="48.04026" lon="7.09387">
        <ele>727.3</ele>
        <time>2023-08-12T10:26:16Z</time>
      </trkpt>
      <trkpt lat="48.04019" lon="7.09374">
        <ele>727.4</ele>
        <time>2023-08-12T10:26:19Z</time>
      </trkpt>
      <trkpt lat="48.04017" lon="7.0937">
        <ele>727.5</ele>
        <time>2023-08-12T10:26:20Z</time>
      </trkpt>
      <trkpt lat="48.04012" lon="7.09361">
        <ele>727.6</ele>
        <time>2023-08-12T10:26:22Z</time>
      </trkpt>
      <trkpt lat="48.0401" lon="7.09358">
        <ele>727.6</ele>
        <time>2023-08-12T10:26:23Z</time>
      </trkpt>
      <trkpt lat="48.04008" lon="7.09354">
        <ele>727.7</ele>
        <time>2023-08-12T10:26:24Z</time>
      </trkpt>
      <trkpt lat="48.04005" lon="7.09343">
        <ele>727.9</ele>
        <time>2023-08-12T10:26:27Z</time>
      </trkpt>
      <trkpt lat="48.04005" lon="7.09341">
        <ele>727.9</ele>
        <time>2023-08-12T10:26:28Z</time>
      </trkpt>
      <trkpt lat="48.04005" lon="7.09337">
        <ele>727.9</ele>
        <time>2023-08-12T10:26:29Z</time>
      </trkpt>
      <trkpt lat="48.04004" lon="7.09334">
        <ele>728</ele>
        <time>2023-08-12T10:26:30Z</time>
      </trkpt>
      <trkpt lat="48.04003" lon="7.0933">
        <ele>728</ele>
        <time>2023-08-12T10:26:31Z</time>
      </trkpt>
      <trkpt lat="48.04002" lon="7.09325">
        <ele>728.1</ele>
        <time>2023-08-12T10:26:32Z</time>
      </trkpt>
      <trkpt lat="48.04" lon="7.09321">
        <ele>728.1</ele>
        <time>2023-08-12T10:26:33Z</time>
      </trkpt>
      <trkpt lat="48.03999" lon="7.09318">
        <ele>728.2</ele>
        <time>2023-08-12T10:26:34Z</time>
      </trkpt>
      <trkpt lat="48.03999" lon="7.0931">
        <ele>728.3</ele>
        <time>2023-08-12T10:26:36Z</time>
      </trkpt>
      <trkpt lat="48.03999" lon="7.09306">
        <ele>728.4</ele>
        <time>2023-08-12T10:26:37Z</time>
      </trkpt>
      <trkpt lat="48.03999" lon="7.09302">
        <ele>728.4</ele>
        <time>2023-08-12T10:26:38Z</time>
      </trkpt>
      <trkpt lat="48.03996" lon="7.09295">
        <ele>728.5</ele>
        <time>2023-08-12T10:26:39Z</time>
      </trkpt>
      <trkpt lat="48.03994" lon="7.0929">
        <ele>728.6</ele>
        <time>2023-08-12T10:26:40Z</time>
      </trkpt>
      <trkpt lat="48.03992" lon="7.09285">
        <ele>728.7</ele>
        <time>2023-08-12T10:26:41Z</time>
      </trkpt>
      <trkpt lat="48.0399" lon="7.0928">
        <ele>728.8</ele>
        <time>2023-08-12T10:26:42Z</time>
      </trkpt>
      <trkpt lat="48.03988" lon="7.09265">
        <ele>729</ele>
        <time>2023-08-12T10:26:45Z</time>
      </trkpt>
      <trkpt lat="48.03988" lon="7.09257">
        <ele>729.1</ele>
        <time>2023-08-12T10:26:47Z</time>
      </trkpt>
      <trkpt lat="48.03985" lon="7.09251">
        <ele>729.2</ele>
        <time>2023-08-12T10:26:48Z</time>
      </trkpt>
      <trkpt lat="48.03981" lon="7.09244">
        <ele>729.4</ele>
        <time>2023-08-12T10:26:49Z</time>
      </trkpt>
      <trkpt lat="48.03978" lon="7.09238">
        <ele>729.6</ele>
        <time>2023-08-12T10:26:50Z</time>
      </trkpt>
      <trkpt lat="48.03977" lon="7.09232">
        <ele>729.7</ele>
        <time>2023-08-12T10:26:51Z</time>
      </trkpt>
      <trkpt lat="48.03976" lon="7.09229">
        <ele>729.8</ele>
        <time>2023-08-12T10:26:52Z</time>
      </trkpt>
      <trkpt lat="48.03973" lon="7.09224">
        <ele>729.9</ele>
        <time>2023-08-12T10:26:53Z</time>
      </trkpt>
      <trkpt lat="48.03973" lon="7.0922">
        <ele>730</ele>
        <time>2023-08-12T10:26:54Z</time>
      </trkpt>
      <trkpt lat="48.03971" lon="7.09215">
        <ele>730.2</ele>
        <time>2023-08-12T10:26:55Z</time>
      </trkpt>
      <trkpt lat="48.03971" lon="7.09212">
        <ele>730.3</ele>
        <time>2023-08-12T10:26:56Z</time>
      </trkpt>
      <trkpt lat="48.03972" lon="7.09209">
        <ele>730.4</ele>
        <time>2023-08-12T10:26:57Z</time>
      </trkpt>
      <trkpt lat="48.03973" lon="7.09202">
        <ele>730.6</ele>
        <time>2023-08-12T10:26:59Z</time>
      </trkpt>
      <trkpt lat="48.03973" lon="7.09195">
        <ele>730.7</ele>
        <time>2023-08-12T10:27:00Z</time>
      </trkpt>
      <trkpt lat="48.03971" lon="7.09189">
        <ele>730.9</ele>
        <time>2023-08-12T10:27:01Z</time>
      </trkpt>
      <trkpt lat="48.03969" lon="7.09184">
        <ele>731.1</ele>
        <time>2023-08-12T10:27:02Z</time>
      </trkpt>
      <trkpt lat="48.03966" lon="7.09179">
        <ele>731.3</ele>
        <time>2023-08-12T10:27:03Z</time>
      </trkpt>
      <trkpt lat="48.03965" lon="7.09174">
        <ele>731.5</ele>
        <time>2023-08-12T10:27:04Z</time>
      </trkpt>
      <trkpt lat="48.03965" lon="7.09167">
        <ele>731.7</ele>
        <time>2023-08-12T10:27:05Z</time>
      </trkpt>
      <trkpt lat="48.03967" lon="7.09162">
        <ele>731.8</ele>
        <time>2023-08-12T10:27:06Z</time>
      </trkpt>
      <trkpt lat="48.03968" lon="7.09157">
        <ele>732</ele>
        <time>2023-08-12T10:27:07Z</time>
      </trkpt>
      <trkpt lat="48.03969" lon="7.09154">
        <ele>732.1</ele>
        <time>2023-08-12T10:27:08Z</time>
      </trkpt>
      <trkpt lat="48.03969" lon="7.09148">
        <ele>732.2</ele>
        <time>2023-08-12T10:27:09Z</time>
      </trkpt>
      <trkpt lat="48.0397" lon="7.09144">
        <ele>732.3</ele>
        <time>2023-08-12T10:27:10Z</time>
      </trkpt>
      <trkpt lat="48.0397" lon="7.0914">
        <ele>732.4</ele>
        <time>2023-08-12T10:27:11Z</time>
      </trkpt>
      <trkpt lat="48.0397" lon="7.09138">
        <ele>732.5</ele>
        <time>2023-08-12T10:27:12Z</time>
      </trkpt>
      <trkpt lat="48.0397" lon="7.09134">
        <ele>732.6</ele>
        <time>2023-08-12T10:27:13Z</time>
      </trkpt>
      <trkpt lat="48.03967" lon="7.09128">
        <ele>732.8</ele>
        <time>2023-08-12T10:27:14Z</time>
      </trkpt>
      <trkpt lat="48.03966" lon="7.09125">
        <ele>732.9</ele>
        <time>2023-08-12T10:27:15Z</time>
      </trkpt>
      <trkpt lat="48.03966" lon="7.09122">
        <ele>732.9</ele>
        <time>2023-08-12T10:27:16Z</time>
      </trkpt>
      <trkpt lat="48.03964" lon="7.09117">
        <ele>733.1</ele>
        <time>2023-08-12T10:27:17Z</time>
      </trkpt>
      <trkpt lat="48.03965" lon="7.09113">
        <ele>733.1</ele>
        <time>2023-08-12T10:27:18Z</time>
      </trkpt>
      <trkpt lat="48.03965" lon="7.09109">
        <ele>733.2</ele>
        <time>2023-08-12T10:27:19Z</time>
      </trkpt>
      <trkpt lat="48.03966" lon="7.09104">
        <ele>733.3</ele>
        <time>2023-08-12T10:27:20Z</time>
      </trkpt>
      <trkpt lat="48.03967" lon="7.09101">
        <ele>733.4</ele>
        <time>2023-08-12T10:27:21Z</time>
      </trkpt>
      <trkpt lat="48.03969" lon="7.09098">
        <ele>733.4</ele>
        <time>2023-08-12T10:27:22Z</time>
      </trkpt>
      <trkpt lat="48.03969" lon="7.09095">
        <ele>733.5</ele>
        <time>2023-08-12T10:27:23Z</time>
      </trkpt>
      <trkpt lat="48.03968" lon="7.0909">
        <ele>733.6</ele>
        <time>2023-08-12T10:27:24Z</time>
      </trkpt>
      <trkpt lat="48.03967" lon="7.09087">
        <ele>733.6</ele>
        <time>2023-08-12T10:27:25Z</time>
      </trkpt>
      <trkpt lat="48.03966" lon="7.09083">
        <ele>733.7</ele>
        <time>2023-08-12T10:27:26Z</time>
      </trkpt>
      <trkpt lat="48.03965" lon="7.09079">
        <ele>733.8</ele>
        <time>2023-08-12T10:27:27Z</time>
      </trkpt>
      <trkpt lat="48.03963" lon="7.09075">
        <ele>733.9</ele>
        <time>2023-08-12T10:27:28Z</time>
      </trkpt>
      <trkpt lat="48.0396" lon="7.0907">
        <ele>734</ele>
        <time>2023-08-12T10:27:29Z</time>
      </trkpt>
      <trkpt lat="48.03955" lon="7.09064">
        <ele>734.1</ele>
        <time>2023-08-12T10:27:30Z</time>
      </trkpt>
      <trkpt lat="48.03955" lon="7.09059">
        <ele>734.2</ele>
        <time>2023-08-12T10:27:31Z</time>
      </trkpt>
      <trkpt lat="48.03955" lon="7.09055">
        <ele>734.2</ele>
        <time>2023-08-12T10:27:32Z</time>
      </trkpt>
      <trkpt lat="48.03954" lon="7.09051">
        <ele>734.3</ele>
        <time>2023-08-12T10:27:33Z</time>
      </trkpt>
      <trkpt lat="48.03953" lon="7.09047">
        <ele>734.3</ele>
        <time>2023-08-12T10:27:34Z</time>
      </trkpt>
      <trkpt lat="48.03952" lon="7.09042">
        <ele>734.4</ele>
        <time>2023-08-12T10:27:35Z</time>
      </trkpt>
      <trkpt lat="48.03952" lon="7.09039">
        <ele>734.4</ele>
        <time>2023-08-12T10:27:36Z</time>
      </trkpt>
      <trkpt lat="48.03949" lon="7.09035">
        <ele>734.4</ele>
        <time>2023-08-12T10:27:37Z</time>
      </trkpt>
      <trkpt lat="48.03948" lon="7.09031">
        <ele>734.5</ele>
        <time>2023-08-12T10:27:38Z</time>
      </trkpt>
      <trkpt lat="48.03949" lon="7.09027">
        <ele>734.6</ele>
        <time>2023-08-12T10:27:39Z</time>
      </trkpt>
      <trkpt lat="48.03948" lon="7.09018">
        <ele>734.7</ele>
        <time>2023-08-12T10:27:41Z</time>
      </trkpt>
      <trkpt lat="48.03946" lon="7.09014">
        <ele>734.8</ele>
        <time>2023-08-12T10:27:42Z</time>
      </trkpt>
      <trkpt lat="48.03945" lon="7.09009">
        <ele>734.9</ele>
        <time>2023-08-12T10:27:43Z</time>
      </trkpt>
      <trkpt lat="48.03944" lon="7.09004">
        <ele>735</ele>
        <time>2023-08-12T10:27:44Z</time>
      </trkpt>
      <trkpt lat="48.03941" lon="7.08995">
        <ele>735.2</ele>
        <time>2023-08-12T10:27:46Z</time>
      </trkpt>
      <trkpt lat="48.03941" lon="7.0899">
        <ele>735.3</ele>
        <time>2023-08-12T10:27:47Z</time>
      </trkpt>
      <trkpt lat="48.03938" lon="7.08985">
        <ele>735.4</ele>
        <time>2023-08-12T10:27:48Z</time>
      </trkpt>
      <trkpt lat="48.03935" lon="7.08981">
        <ele>735.5</ele>
        <time>2023-08-12T10:27:49Z</time>
      </trkpt>
      <trkpt lat="48.03932" lon="7.08977">
        <ele>735.7</ele>
        <time>2023-08-12T10:27:50Z</time>
      </trkpt>
      <trkpt lat="48.0393" lon="7.08971">
        <ele>735.8</ele>
        <time>2023-08-12T10:27:51Z</time>
      </trkpt>
      <trkpt lat="48.03928" lon="7.08967">
        <ele>735.9</ele>
        <time>2023-08-12T10:27:52Z</time>
      </trkpt>
      <trkpt lat="48.03923" lon="7.08961">
        <ele>736</ele>
        <time>2023-08-12T10:27:53Z</time>
      </trkpt>
      <trkpt lat="48.03919" lon="7.08956">
        <ele>736.2</ele>
        <time>2023-08-12T10:27:54Z</time>
      </trkpt>
      <trkpt lat="48.03918" lon="7.08952">
        <ele>736.2</ele>
        <time>2023-08-12T10:27:55Z</time>
      </trkpt>
      <trkpt lat="48.03917" lon="7.08948">
        <ele>736.3</ele>
        <time>2023-08-12T10:27:56Z</time>
      </trkpt>
      <trkpt lat="48.03917" lon="7.08945">
        <ele>736.3</ele>
        <time>2023-08-12T10:27:57Z</time>
      </trkpt>
      <trkpt lat="48.03916" lon="7.08941">
        <ele>736.3</ele>
        <time>2023-08-12T10:27:58Z</time>
      </trkpt>
      <trkpt lat="48.03916" lon="7.08936">
        <ele>736.4</ele>
        <time>2023-08-12T10:27:59Z</time>
      </trkpt>
      <trkpt lat="48.03915" lon="7.08932">
        <ele>736.4</ele>
        <time>2023-08-12T10:28:00Z</time>
      </trkpt>
      <trkpt lat="48.03914" lon="7.08928">
        <ele>736.5</ele>
        <time>2023-08-12T10:28:01Z</time>
      </trkpt>
      <trkpt lat="48.03909" lon="7.08918">
        <ele>736.5</ele>
        <time>2023-08-12T10:28:03Z</time>
      </trkpt>
      <trkpt lat="48.03905" lon="7.08913">
        <ele>736.6</ele>
        <time>2023-08-12T10:28:04Z</time>
      </trkpt>
      <trkpt lat="48.03903" lon="7.08909">
        <ele>736.6</ele>
        <time>2023-08-12T10:28:05Z</time>
      </trkpt>
      <trkpt lat="48.03902" lon="7.08901">
        <ele>736.6</ele>
        <time>2023-08-12T10:28:07Z</time>
      </trkpt>
      <trkpt lat="48.03902" lon="7.08898">
        <ele>736.5</ele>
        <time>2023-08-12T10:28:08Z</time>
      </trkpt>
      <trkpt lat="48.03903" lon="7.08893">
        <ele>736.5</ele>
        <time>2023-08-12T10:28:09Z</time>
      </trkpt>
      <trkpt lat="48.03904" lon="7.08887">
        <ele>736.5</ele>
        <time>2023-08-12T10:28:10Z</time>
      </trkpt>
      <trkpt lat="48.03903" lon="7.08881">
        <ele>736.4</ele>
        <time>2023-08-12T10:28:11Z</time>
      </trkpt>
      <trkpt lat="48.03901" lon="7.08875">
        <ele>736.4</ele>
        <time>2023-08-12T10:28:12Z</time>
      </trkpt>
      <trkpt lat="48.039" lon="7.08871">
        <ele>736.4</ele>
        <time>2023-08-12T10:28:13Z</time>
      </trkpt>
      <trkpt lat="48.03899" lon="7.08866">
        <ele>736.3</ele>
        <time>2023-08-12T10:28:14Z</time>
      </trkpt>
      <trkpt lat="48.03898" lon="7.08863">
        <ele>736.3</ele>
        <time>2023-08-12T10:28:15Z</time>
      </trkpt>
      <trkpt lat="48.03896" lon="7.08859">
        <ele>736.3</ele>
        <time>2023-08-12T10:28:16Z</time>
      </trkpt>
      <trkpt lat="48.03892" lon="7.08853">
        <ele>736.4</ele>
        <time>2023-08-12T10:28:17Z</time>
      </trkpt>
      <trkpt lat="48.03891" lon="7.0885">
        <ele>736.4</ele>
        <time>2023-08-12T10:28:18Z</time>
      </trkpt>
      <trkpt lat="48.03884" lon="7.08838">
        <ele>736.5</ele>
        <time>2023-08-12T10:28:20Z</time>
      </trkpt>
      <trkpt lat="48.03874" lon="7.08822">
        <ele>736.6</ele>
        <time>2023-08-12T10:28:22Z</time>
      </trkpt>
      <trkpt lat="48.03869" lon="7.0881">
        <ele>736.7</ele>
        <time>2023-08-12T10:28:24Z</time>
      </trkpt>
      <trkpt lat="48.03868" lon="7.08806">
        <ele>736.8</ele>
        <time>2023-08-12T10:28:25Z</time>
      </trkpt>
      <trkpt lat="48.03868" lon="7.08802">
        <ele>736.8</ele>
        <time>2023-08-12T10:28:26Z</time>
      </trkpt>
      <trkpt lat="48.0387" lon="7.08799">
        <ele>736.8</ele>
        <time>2023-08-12T10:28:27Z</time>
      </trkpt>
      <trkpt lat="48.03872" lon="7.08797">
        <ele>736.8</ele>
        <time>2023-08-12T10:28:28Z</time>
      </trkpt>
      <trkpt lat="48.03871" lon="7.08793">
        <ele>736.8</ele>
        <time>2023-08-12T10:28:29Z</time>
      </trkpt>
      <trkpt lat="48.03871" lon="7.08789">
        <ele>736.8</ele>
        <time>2023-08-12T10:28:30Z</time>
      </trkpt>
      <trkpt lat="48.03869" lon="7.08786">
        <ele>736.8</ele>
        <time>2023-08-12T10:28:31Z</time>
      </trkpt>
      <trkpt lat="48.03868" lon="7.08782">
        <ele>736.7</ele>
        <time>2023-08-12T10:28:32Z</time>
      </trkpt>
      <trkpt lat="48.03867" lon="7.08765">
        <ele>736.7</ele>
        <time>2023-08-12T10:28:35Z</time>
      </trkpt>
      <trkpt lat="48.03867" lon="7.0876">
        <ele>736.8</ele>
        <time>2023-08-12T10:28:36Z</time>
      </trkpt>
      <trkpt lat="48.03865" lon="7.08755">
        <ele>736.8</ele>
        <time>2023-08-12T10:28:37Z</time>
      </trkpt>
      <trkpt lat="48.03865" lon="7.0875">
        <ele>737</ele>
        <time>2023-08-12T10:28:38Z</time>
      </trkpt>
      <trkpt lat="48.03865" lon="7.08746">
        <ele>737</ele>
        <time>2023-08-12T10:28:39Z</time>
      </trkpt>
      <trkpt lat="48.03865" lon="7.08743">
        <ele>737</ele>
        <time>2023-08-12T10:28:40Z</time>
      </trkpt>
      <trkpt lat="48.03866" lon="7.08739">
        <ele>737.8</ele>
        <time>2023-08-12T10:28:41Z</time>
      </trkpt>
      <trkpt lat="48.03866" lon="7.08734">
        <ele>737.9</ele>
        <time>2023-08-12T10:28:42Z</time>
      </trkpt>
      <trkpt lat="48.03867" lon="7.08726">
        <ele>738.1</ele>
        <time>2023-08-12T10:28:44Z</time>
      </trkpt>
      <trkpt lat="48.03868" lon="7.08722">
        <ele>738.2</ele>
        <time>2023-08-12T10:28:45Z</time>
      </trkpt>
      <trkpt lat="48.03869" lon="7.08717">
        <ele>738.4</ele>
        <time>2023-08-12T10:28:46Z</time>
      </trkpt>
      <trkpt lat="48.0387" lon="7.08713">
        <ele>738.5</ele>
        <time>2023-08-12T10:28:47Z</time>
      </trkpt>
      <trkpt lat="48.03872" lon="7.08709">
        <ele>738.7</ele>
        <time>2023-08-12T10:28:48Z</time>
      </trkpt>
      <trkpt lat="48.03877" lon="7.08692">
        <ele>739.3</ele>
        <time>2023-08-12T10:28:52Z</time>
      </trkpt>
      <trkpt lat="48.03879" lon="7.08684">
        <ele>739.7</ele>
        <time>2023-08-12T10:28:54Z</time>
      </trkpt>
      <trkpt lat="48.03881" lon="7.08676">
        <ele>740.1</ele>
        <time>2023-08-12T10:28:56Z</time>
      </trkpt>
      <trkpt lat="48.03883" lon="7.08669">
        <ele>740.5</ele>
        <time>2023-08-12T10:28:58Z</time>
      </trkpt>
      <trkpt lat="48.03885" lon="7.08667">
        <ele>740.7</ele>
        <time>2023-08-12T10:28:59Z</time>
      </trkpt>
      <trkpt lat="48.03887" lon="7.08664">
        <ele>740.9</ele>
        <time>2023-08-12T10:29:00Z</time>
      </trkpt>
      <trkpt lat="48.03888" lon="7.08661">
        <ele>741.1</ele>
        <time>2023-08-12T10:29:01Z</time>
      </trkpt>
      <trkpt lat="48.0389" lon="7.08659">
        <ele>741.2</ele>
        <time>2023-08-12T10:29:02Z</time>
      </trkpt>
      <trkpt lat="48.03891" lon="7.08657">
        <ele>741.3</ele>
        <time>2023-08-12T10:29:03Z</time>
      </trkpt>
      <trkpt lat="48.03892" lon="7.08654">
        <ele>741.5</ele>
        <time>2023-08-12T10:29:04Z</time>
      </trkpt>
      <trkpt lat="48.03894" lon="7.08651">
        <ele>741.7</ele>
        <time>2023-08-12T10:29:05Z</time>
      </trkpt>
      <trkpt lat="48.03894" lon="7.08649">
        <ele>741.9</ele>
        <time>2023-08-12T10:29:06Z</time>
      </trkpt>
      <trkpt lat="48.03895" lon="7.08646">
        <ele>742.1</ele>
        <time>2023-08-12T10:29:07Z</time>
      </trkpt>
      <trkpt lat="48.03896" lon="7.08644">
        <ele>742.2</ele>
        <time>2023-08-12T10:29:08Z</time>
      </trkpt>
      <trkpt lat="48.03897" lon="7.08642">
        <ele>742.4</ele>
        <time>2023-08-12T10:29:09Z</time>
      </trkpt>
      <trkpt lat="48.03898" lon="7.0864">
        <ele>742.6</ele>
        <time>2023-08-12T10:29:10Z</time>
      </trkpt>
      <trkpt lat="48.03899" lon="7.08638">
        <ele>742.8</ele>
        <time>2023-08-12T10:29:11Z</time>
      </trkpt>
      <trkpt lat="48.03901" lon="7.08635">
        <ele>743</ele>
        <time>2023-08-12T10:29:12Z</time>
      </trkpt>
      <trkpt lat="48.03902" lon="7.08633">
        <ele>743.2</ele>
        <time>2023-08-12T10:29:13Z</time>
      </trkpt>
      <trkpt lat="48.03903" lon="7.08631">
        <ele>743.4</ele>
        <time>2023-08-12T10:29:14Z</time>
      </trkpt>
      <trkpt lat="48.03907" lon="7.08624">
        <ele>744</ele>
        <time>2023-08-12T10:29:17Z</time>
      </trkpt>
      <trkpt lat="48.03909" lon="7.08622">
        <ele>744.2</ele>
        <time>2023-08-12T10:29:18Z</time>
      </trkpt>
      <trkpt lat="48.0391" lon="7.0862">
        <ele>744.4</ele>
        <time>2023-08-12T10:29:19Z</time>
      </trkpt>
      <trkpt lat="48.03912" lon="7.08619">
        <ele>744.5</ele>
        <time>2023-08-12T10:29:20Z</time>
      </trkpt>
      <trkpt lat="48.03913" lon="7.08617">
        <ele>744.7</ele>
        <time>2023-08-12T10:29:21Z</time>
      </trkpt>
      <trkpt lat="48.03914" lon="7.08615">
        <ele>744.9</ele>
        <time>2023-08-12T10:29:22Z</time>
      </trkpt>
      <trkpt lat="48.03915" lon="7.08613">
        <ele>745</ele>
        <time>2023-08-12T10:29:23Z</time>
      </trkpt>
      <trkpt lat="48.03916" lon="7.08611">
        <ele>745.2</ele>
        <time>2023-08-12T10:29:24Z</time>
      </trkpt>
      <trkpt lat="48.03917" lon="7.08609">
        <ele>745.4</ele>
        <time>2023-08-12T10:29:25Z</time>
      </trkpt>
      <trkpt lat="48.03919" lon="7.08608">
        <ele>745.5</ele>
        <time>2023-08-12T10:29:26Z</time>
      </trkpt>
      <trkpt lat="48.0392" lon="7.08606">
        <ele>745.7</ele>
        <time>2023-08-12T10:29:27Z</time>
      </trkpt>
      <trkpt lat="48.03921" lon="7.08604">
        <ele>745.9</ele>
        <time>2023-08-12T10:29:28Z</time>
      </trkpt>
      <trkpt lat="48.03922" lon="7.08602">
        <ele>746.1</ele>
        <time>2023-08-12T10:29:29Z</time>
      </trkpt>
      <trkpt lat="48.03923" lon="7.086">
        <ele>746.3</ele>
        <time>2023-08-12T10:29:30Z</time>
      </trkpt>
      <trkpt lat="48.03924" lon="7.08599">
        <ele>746.4</ele>
        <time>2023-08-12T10:29:31Z</time>
      </trkpt>
      <trkpt lat="48.03926" lon="7.08598">
        <ele>746.6</ele>
        <time>2023-08-12T10:29:32Z</time>
      </trkpt>
      <trkpt lat="48.03927" lon="7.08597">
        <ele>746.8</ele>
        <time>2023-08-12T10:29:33Z</time>
      </trkpt>
      <trkpt lat="48.03928" lon="7.08595">
        <ele>747</ele>
        <time>2023-08-12T10:29:34Z</time>
      </trkpt>
      <trkpt lat="48.03929" lon="7.08593">
        <ele>747.2</ele>
        <time>2023-08-12T10:29:35Z</time>
      </trkpt>
      <trkpt lat="48.03931" lon="7.08591">
        <ele>747.5</ele>
        <time>2023-08-12T10:29:36Z</time>
      </trkpt>
      <trkpt lat="48.03932" lon="7.0859">
        <ele>747.6</ele>
        <time>2023-08-12T10:29:37Z</time>
      </trkpt>
      <trkpt lat="48.03932" lon="7.0859">
        <ele>747.7</ele>
        <time>2023-08-12T10:29:38Z</time>
      </trkpt>
      <trkpt lat="48.03933" lon="7.08588">
        <ele>747.9</ele>
        <time>2023-08-12T10:29:39Z</time>
      </trkpt>
      <trkpt lat="48.03934" lon="7.08587">
        <ele>748</ele>
        <time>2023-08-12T10:29:40Z</time>
      </trkpt>
      <trkpt lat="48.03935" lon="7.08587">
        <ele>748.2</ele>
        <time>2023-08-12T10:29:41Z</time>
      </trkpt>
      <trkpt lat="48.03936" lon="7.08586">
        <ele>748.3</ele>
        <time>2023-08-12T10:29:42Z</time>
      </trkpt>
      <trkpt lat="48.03936" lon="7.08585">
        <ele>748.4</ele>
        <time>2023-08-12T10:29:43Z</time>
      </trkpt>
      <trkpt lat="48.03937" lon="7.08584">
        <ele>748.6</ele>
        <time>2023-08-12T10:29:44Z</time>
      </trkpt>
      <trkpt lat="48.03939" lon="7.08582">
        <ele>748.9</ele>
        <time>2023-08-12T10:29:45Z</time>
      </trkpt>
      <trkpt lat="48.0394" lon="7.08582">
        <ele>749.1</ele>
        <time>2023-08-12T10:29:46Z</time>
      </trkpt>
      <trkpt lat="48.03941" lon="7.08582">
        <ele>749.2</ele>
        <time>2023-08-12T10:29:47Z</time>
      </trkpt>
      <trkpt lat="48.03942" lon="7.08582">
        <ele>749.4</ele>
        <time>2023-08-12T10:29:48Z</time>
      </trkpt>
      <trkpt lat="48.03943" lon="7.08581">
        <ele>749.6</ele>
        <time>2023-08-12T10:29:49Z</time>
      </trkpt>
      <trkpt lat="48.03945" lon="7.0858">
        <ele>749.8</ele>
        <time>2023-08-12T10:29:50Z</time>
      </trkpt>
      <trkpt lat="48.03946" lon="7.08579">
        <ele>749.9</ele>
        <time>2023-08-12T10:29:51Z</time>
      </trkpt>
      <trkpt lat="48.03947" lon="7.08579">
        <ele>750.1</ele>
        <time>2023-08-12T10:29:52Z</time>
      </trkpt>
      <trkpt lat="48.03949" lon="7.08579">
        <ele>750.4</ele>
        <time>2023-08-12T10:29:53Z</time>
      </trkpt>
      <trkpt lat="48.0395" lon="7.08579">
        <ele>750.6</ele>
        <time>2023-08-12T10:29:54Z</time>
      </trkpt>
      <trkpt lat="48.03951" lon="7.08579">
        <ele>750.7</ele>
        <time>2023-08-12T10:29:55Z</time>
      </trkpt>
      <trkpt lat="48.03952" lon="7.08578">
        <ele>750.9</ele>
        <time>2023-08-12T10:29:56Z</time>
      </trkpt>
      <trkpt lat="48.03954" lon="7.08578">
        <ele>751</ele>
        <time>2023-08-12T10:29:57Z</time>
      </trkpt>
      <trkpt lat="48.03956" lon="7.08578">
        <ele>751.3</ele>
        <time>2023-08-12T10:29:58Z</time>
      </trkpt>
      <trkpt lat="48.03958" lon="7.08578">
        <ele>751.5</ele>
        <time>2023-08-12T10:29:59Z</time>
      </trkpt>
      <trkpt lat="48.03959" lon="7.08578">
        <ele>751.8</ele>
        <time>2023-08-12T10:30:00Z</time>
      </trkpt>
      <trkpt lat="48.03962" lon="7.0858">
        <ele>752</ele>
        <time>2023-08-12T10:30:01Z</time>
      </trkpt>
      <trkpt lat="48.03964" lon="7.08581">
        <ele>752.3</ele>
        <time>2023-08-12T10:30:02Z</time>
      </trkpt>
      <trkpt lat="48.03965" lon="7.08582">
        <ele>752.5</ele>
        <time>2023-08-12T10:30:03Z</time>
      </trkpt>
      <trkpt lat="48.03967" lon="7.08582">
        <ele>752.7</ele>
        <time>2023-08-12T10:30:04Z</time>
      </trkpt>
      <trkpt lat="48.03969" lon="7.08582">
        <ele>752.9</ele>
        <time>2023-08-12T10:30:05Z</time>
      </trkpt>
      <trkpt lat="48.03972" lon="7.08582">
        <ele>753.1</ele>
        <time>2023-08-12T10:30:06Z</time>
      </trkpt>
      <trkpt lat="48.03974" lon="7.08581">
        <ele>753.3</ele>
        <time>2023-08-12T10:30:07Z</time>
      </trkpt>
      <trkpt lat="48.03976" lon="7.0858">
        <ele>753.5</ele>
        <time>2023-08-12T10:30:08Z</time>
      </trkpt>
      <trkpt lat="48.03979" lon="7.08579">
        <ele>753.7</ele>
        <time>2023-08-12T10:30:09Z</time>
      </trkpt>
      <trkpt lat="48.03981" lon="7.08579">
        <ele>753.9</ele>
        <time>2023-08-12T10:30:10Z</time>
      </trkpt>
      <trkpt lat="48.03984" lon="7.08578">
        <ele>754.1</ele>
        <time>2023-08-12T10:30:11Z</time>
      </trkpt>
      <trkpt lat="48.03986" lon="7.08577">
        <ele>754.2</ele>
        <time>2023-08-12T10:30:12Z</time>
      </trkpt>
      <trkpt lat="48.03989" lon="7.08576">
        <ele>754.4</ele>
        <time>2023-08-12T10:30:13Z</time>
      </trkpt>
      <trkpt lat="48.03992" lon="7.08577">
        <ele>754.5</ele>
        <time>2023-08-12T10:30:14Z</time>
      </trkpt>
      <trkpt lat="48.03995" lon="7.08578">
        <ele>754.6</ele>
        <time>2023-08-12T10:30:15Z</time>
      </trkpt>
      <trkpt lat="48.03998" lon="7.08578">
        <ele>754.8</ele>
        <time>2023-08-12T10:30:16Z</time>
      </trkpt>
      <trkpt lat="48.04" lon="7.08579">
        <ele>754.9</ele>
        <time>2023-08-12T10:30:17Z</time>
      </trkpt>
      <trkpt lat="48.04003" lon="7.08578">
        <ele>755</ele>
        <time>2023-08-12T10:30:18Z</time>
      </trkpt>
      <trkpt lat="48.04006" lon="7.08577">
        <ele>755.1</ele>
        <time>2023-08-12T10:30:19Z</time>
      </trkpt>
      <trkpt lat="48.0401" lon="7.08577">
        <ele>755.2</ele>
        <time>2023-08-12T10:30:20Z</time>
      </trkpt>
      <trkpt lat="48.04014" lon="7.08579">
        <ele>755.4</ele>
        <time>2023-08-12T10:30:21Z</time>
      </trkpt>
      <trkpt lat="48.04017" lon="7.08582">
        <ele>755.5</ele>
        <time>2023-08-12T10:30:22Z</time>
      </trkpt>
      <trkpt lat="48.04021" lon="7.08582">
        <ele>755.7</ele>
        <time>2023-08-12T10:30:23Z</time>
      </trkpt>
      <trkpt lat="48.04025" lon="7.08581">
        <ele>755.9</ele>
        <time>2023-08-12T10:30:24Z</time>
      </trkpt>
      <trkpt lat="48.04028" lon="7.0858">
        <ele>756</ele>
        <time>2023-08-12T10:30:25Z</time>
      </trkpt>
      <trkpt lat="48.04029" lon="7.08581">
        <ele>756.1</ele>
        <time>2023-08-12T10:30:26Z</time>
      </trkpt>
      <trkpt lat="48.0403" lon="7.08581">
        <ele>756.1</ele>
        <time>2023-08-12T10:30:27Z</time>
      </trkpt>
      <trkpt lat="48.04031" lon="7.08581">
        <ele>756.2</ele>
        <time>2023-08-12T10:30:28Z</time>
      </trkpt>
      <trkpt lat="48.04034" lon="7.08582">
        <ele>756.3</ele>
        <time>2023-08-12T10:30:29Z</time>
      </trkpt>
      <trkpt lat="48.04037" lon="7.08582">
        <ele>756.4</ele>
        <time>2023-08-12T10:30:30Z</time>
      </trkpt>
      <trkpt lat="48.04038" lon="7.08583">
        <ele>756.5</ele>
        <time>2023-08-12T10:30:31Z</time>
      </trkpt>
      <trkpt lat="48.04041" lon="7.08584">
        <ele>756.6</ele>
        <time>2023-08-12T10:30:32Z</time>
      </trkpt>
      <trkpt lat="48.04043" lon="7.08584">
        <ele>756.7</ele>
        <time>2023-08-12T10:30:33Z</time>
      </trkpt>
      <trkpt lat="48.04046" lon="7.08583">
        <ele>756.8</ele>
        <time>2023-08-12T10:30:34Z</time>
      </trkpt>
      <trkpt lat="48.04048" lon="7.08583">
        <ele>757</ele>
        <time>2023-08-12T10:30:35Z</time>
      </trkpt>
      <trkpt lat="48.04051" lon="7.08584">
        <ele>757.1</ele>
        <time>2023-08-12T10:30:36Z</time>
      </trkpt>
      <trkpt lat="48.04053" lon="7.08585">
        <ele>757.2</ele>
        <time>2023-08-12T10:30:37Z</time>
      </trkpt>
      <trkpt lat="48.04055" lon="7.08588">
        <ele>757.4</ele>
        <time>2023-08-12T10:30:38Z</time>
      </trkpt>
      <trkpt lat="48.04055" lon="7.08592">
        <ele>757.5</ele>
        <time>2023-08-12T10:30:39Z</time>
      </trkpt>
      <trkpt lat="48.04057" lon="7.08593">
        <ele>757.6</ele>
        <time>2023-08-12T10:30:40Z</time>
      </trkpt>
      <trkpt lat="48.04059" lon="7.08593">
        <ele>757.8</ele>
        <time>2023-08-12T10:30:41Z</time>
      </trkpt>
      <trkpt lat="48.04062" lon="7.08595">
        <ele>757.9</ele>
        <time>2023-08-12T10:30:42Z</time>
      </trkpt>
      <trkpt lat="48.04065" lon="7.08595">
        <ele>758.1</ele>
        <time>2023-08-12T10:30:43Z</time>
      </trkpt>
      <trkpt lat="48.04067" lon="7.08595">
        <ele>758.2</ele>
        <time>2023-08-12T10:30:44Z</time>
      </trkpt>
      <trkpt lat="48.04069" lon="7.08596">
        <ele>758.3</ele>
        <time>2023-08-12T10:30:45Z</time>
      </trkpt>
      <trkpt lat="48.04071" lon="7.08597">
        <ele>758.4</ele>
        <time>2023-08-12T10:30:46Z</time>
      </trkpt>
      <trkpt lat="48.04074" lon="7.08597">
        <ele>758.6</ele>
        <time>2023-08-12T10:30:47Z</time>
      </trkpt>
      <trkpt lat="48.04077" lon="7.08596">
        <ele>758.7</ele>
        <time>2023-08-12T10:30:48Z</time>
      </trkpt>
      <trkpt lat="48.04079" lon="7.08596">
        <ele>758.9</ele>
        <time>2023-08-12T10:30:49Z</time>
      </trkpt>
      <trkpt lat="48.04081" lon="7.08597">
        <ele>759</ele>
        <time>2023-08-12T10:30:50Z</time>
      </trkpt>
      <trkpt lat="48.04083" lon="7.08597">
        <ele>759.1</ele>
        <time>2023-08-12T10:30:51Z</time>
      </trkpt>
      <trkpt lat="48.04085" lon="7.08598">
        <ele>759.2</ele>
        <time>2023-08-12T10:30:52Z</time>
      </trkpt>
      <trkpt lat="48.04088" lon="7.08599">
        <ele>759.3</ele>
        <time>2023-08-12T10:30:53Z</time>
      </trkpt>
      <trkpt lat="48.0409" lon="7.086">
        <ele>759.4</ele>
        <time>2023-08-12T10:30:54Z</time>
      </trkpt>
      <trkpt lat="48.04093" lon="7.086">
        <ele>759.5</ele>
        <time>2023-08-12T10:30:55Z</time>
      </trkpt>
      <trkpt lat="48.04095" lon="7.08601">
        <ele>759.6</ele>
        <time>2023-08-12T10:30:56Z</time>
      </trkpt>
      <trkpt lat="48.04096" lon="7.08601">
        <ele>759.7</ele>
        <time>2023-08-12T10:30:57Z</time>
      </trkpt>
      <trkpt lat="48.04099" lon="7.08602">
        <ele>759.8</ele>
        <time>2023-08-12T10:30:58Z</time>
      </trkpt>
      <trkpt lat="48.041" lon="7.08602">
        <ele>759.9</ele>
        <time>2023-08-12T10:30:59Z</time>
      </trkpt>
      <trkpt lat="48.04102" lon="7.08603">
        <ele>760</ele>
        <time>2023-08-12T10:31:00Z</time>
      </trkpt>
      <trkpt lat="48.04104" lon="7.08603">
        <ele>760.1</ele>
        <time>2023-08-12T10:31:01Z</time>
      </trkpt>
      <trkpt lat="48.04106" lon="7.08604">
        <ele>760.2</ele>
        <time>2023-08-12T10:31:02Z</time>
      </trkpt>
      <trkpt lat="48.04108" lon="7.08605">
        <ele>760.3</ele>
        <time>2023-08-12T10:31:03Z</time>
      </trkpt>
      <trkpt lat="48.04109" lon="7.08606">
        <ele>760.4</ele>
        <time>2023-08-12T10:31:04Z</time>
      </trkpt>
      <trkpt lat="48.04111" lon="7.08608">
        <ele>760.6</ele>
        <time>2023-08-12T10:31:05Z</time>
      </trkpt>
      <trkpt lat="48.04113" lon="7.08609">
        <ele>760.7</ele>
        <time>2023-08-12T10:31:06Z</time>
      </trkpt>
      <trkpt lat="48.04115" lon="7.08608">
        <ele>760.8</ele>
        <time>2023-08-12T10:31:07Z</time>
      </trkpt>
      <trkpt lat="48.04118" lon="7.08608">
        <ele>761</ele>
        <time>2023-08-12T10:31:08Z</time>
      </trkpt>
      <trkpt lat="48.04121" lon="7.08608">
        <ele>761.1</ele>
        <time>2023-08-12T10:31:09Z</time>
      </trkpt>
      <trkpt lat="48.04123" lon="7.0861">
        <ele>761.3</ele>
        <time>2023-08-12T10:31:10Z</time>
      </trkpt>
      <trkpt lat="48.04125" lon="7.08612">
        <ele>761.5</ele>
        <time>2023-08-12T10:31:11Z</time>
      </trkpt>
      <trkpt lat="48.04128" lon="7.08613">
        <ele>761.7</ele>
        <time>2023-08-12T10:31:12Z</time>
      </trkpt>
      <trkpt lat="48.04131" lon="7.08614">
        <ele>761.8</ele>
        <time>2023-08-12T10:31:13Z</time>
      </trkpt>
      <trkpt lat="48.04134" lon="7.08613">
        <ele>762</ele>
        <time>2023-08-12T10:31:14Z</time>
      </trkpt>
      <trkpt lat="48.04137" lon="7.08612">
        <ele>762.2</ele>
        <time>2023-08-12T10:31:15Z</time>
      </trkpt>
      <trkpt lat="48.0414" lon="7.08611">
        <ele>762.4</ele>
        <time>2023-08-12T10:31:16Z</time>
      </trkpt>
      <trkpt lat="48.04141" lon="7.0861">
        <ele>762.5</ele>
        <time>2023-08-12T10:31:17Z</time>
      </trkpt>
      <trkpt lat="48.04142" lon="7.08609">
        <ele>762.6</ele>
        <time>2023-08-12T10:31:18Z</time>
      </trkpt>
      <trkpt lat="48.04144" lon="7.08608">
        <ele>762.8</ele>
        <time>2023-08-12T10:31:19Z</time>
      </trkpt>
      <trkpt lat="48.04146" lon="7.08606">
        <ele>763</ele>
        <time>2023-08-12T10:31:20Z</time>
      </trkpt>
      <trkpt lat="48.04148" lon="7.08605">
        <ele>763.1</ele>
        <time>2023-08-12T10:31:21Z</time>
      </trkpt>
      <trkpt lat="48.04149" lon="7.08604">
        <ele>763.2</ele>
        <time>2023-08-12T10:31:22Z</time>
      </trkpt>
      <trkpt lat="48.0415" lon="7.08604">
        <ele>763.3</ele>
        <time>2023-08-12T10:31:23Z</time>
      </trkpt>
      <trkpt lat="48.04152" lon="7.08604">
        <ele>763.5</ele>
        <time>2023-08-12T10:31:24Z</time>
      </trkpt>
      <trkpt lat="48.04154" lon="7.08602">
        <ele>763.6</ele>
        <time>2023-08-12T10:31:25Z</time>
      </trkpt>
      <trkpt lat="48.04157" lon="7.08601">
        <ele>763.9</ele>
        <time>2023-08-12T10:31:26Z</time>
      </trkpt>
      <trkpt lat="48.04159" lon="7.08599">
        <ele>764.1</ele>
        <time>2023-08-12T10:31:27Z</time>
      </trkpt>
      <trkpt lat="48.04162" lon="7.08598">
        <ele>764.4</ele>
        <time>2023-08-12T10:31:28Z</time>
      </trkpt>
      <trkpt lat="48.04165" lon="7.08595">
        <ele>764.8</ele>
        <time>2023-08-12T10:31:29Z</time>
      </trkpt>
      <trkpt lat="48.04169" lon="7.08593">
        <ele>765.2</ele>
        <time>2023-08-12T10:31:30Z</time>
      </trkpt>
      <trkpt lat="48.04171" lon="7.08593">
        <ele>765.5</ele>
        <time>2023-08-12T10:31:31Z</time>
      </trkpt>
      <trkpt lat="48.04172" lon="7.08592">
        <ele>765.7</ele>
        <time>2023-08-12T10:31:32Z</time>
      </trkpt>
      <trkpt lat="48.04175" lon="7.08591">
        <ele>766</ele>
        <time>2023-08-12T10:31:33Z</time>
      </trkpt>
      <trkpt lat="48.04175" lon="7.0859">
        <ele>766.1</ele>
        <time>2023-08-12T10:31:34Z</time>
      </trkpt>
      <trkpt lat="48.04177" lon="7.0859">
        <ele>766.3</ele>
        <time>2023-08-12T10:31:35Z</time>
      </trkpt>
      <trkpt lat="48.04178" lon="7.08588">
        <ele>766.5</ele>
        <time>2023-08-12T10:31:36Z</time>
      </trkpt>
      <trkpt lat="48.04179" lon="7.08587">
        <ele>766.6</ele>
        <time>2023-08-12T10:31:37Z</time>
      </trkpt>
      <trkpt lat="48.0418" lon="7.08585">
        <ele>766.8</ele>
        <time>2023-08-12T10:31:38Z</time>
      </trkpt>
      <trkpt lat="48.04182" lon="7.08583">
        <ele>767.2</ele>
        <time>2023-08-12T10:31:39Z</time>
      </trkpt>
      <trkpt lat="48.04184" lon="7.08581">
        <ele>767.4</ele>
        <time>2023-08-12T10:31:40Z</time>
      </trkpt>
      <trkpt lat="48.04185" lon="7.0858">
        <ele>767.6</ele>
        <time>2023-08-12T10:31:41Z</time>
      </trkpt>
      <trkpt lat="48.04187" lon="7.08579">
        <ele>767.8</ele>
        <time>2023-08-12T10:31:42Z</time>
      </trkpt>
      <trkpt lat="48.04188" lon="7.08578">
        <ele>768</ele>
        <time>2023-08-12T10:31:43Z</time>
      </trkpt>
      <trkpt lat="48.04189" lon="7.08576">
        <ele>768.2</ele>
        <time>2023-08-12T10:31:44Z</time>
      </trkpt>
      <trkpt lat="48.04191" lon="7.08575">
        <ele>768.3</ele>
        <time>2023-08-12T10:31:45Z</time>
      </trkpt>
      <trkpt lat="48.04192" lon="7.08573">
        <ele>768.6</ele>
        <time>2023-08-12T10:31:46Z</time>
      </trkpt>
      <trkpt lat="48.04194" lon="7.08572">
        <ele>768.8</ele>
        <time>2023-08-12T10:31:47Z</time>
      </trkpt>
      <trkpt lat="48.04195" lon="7.0857">
        <ele>769</ele>
        <time>2023-08-12T10:31:48Z</time>
      </trkpt>
      <trkpt lat="48.04197" lon="7.08569">
        <ele>769.4</ele>
        <time>2023-08-12T10:31:49Z</time>
      </trkpt>
      <trkpt lat="48.04198" lon="7.08568">
        <ele>769.5</ele>
        <time>2023-08-12T10:31:50Z</time>
      </trkpt>
      <trkpt lat="48.04201" lon="7.08568">
        <ele>769.7</ele>
        <time>2023-08-12T10:31:51Z</time>
      </trkpt>
      <trkpt lat="48.04202" lon="7.08568">
        <ele>769.9</ele>
        <time>2023-08-12T10:31:52Z</time>
      </trkpt>
      <trkpt lat="48.04204" lon="7.08567">
        <ele>770.1</ele>
        <time>2023-08-12T10:31:53Z</time>
      </trkpt>
      <trkpt lat="48.04206" lon="7.08565">
        <ele>770.3</ele>
        <time>2023-08-12T10:31:54Z</time>
      </trkpt>
      <trkpt lat="48.04209" lon="7.08562">
        <ele>770.6</ele>
        <time>2023-08-12T10:31:55Z</time>
      </trkpt>
      <trkpt lat="48.04212" lon="7.08559">
        <ele>770.9</ele>
        <time>2023-08-12T10:31:56Z</time>
      </trkpt>
      <trkpt lat="48.04214" lon="7.08557">
        <ele>771.1</ele>
        <time>2023-08-12T10:31:57Z</time>
      </trkpt>
      <trkpt lat="48.04217" lon="7.08554">
        <ele>771.4</ele>
        <time>2023-08-12T10:31:59Z</time>
      </trkpt>
      <trkpt lat="48.04219" lon="7.08553">
        <ele>771.6</ele>
        <time>2023-08-12T10:32:00Z</time>
      </trkpt>
      <trkpt lat="48.04222" lon="7.08552">
        <ele>771.8</ele>
        <time>2023-08-12T10:32:02Z</time>
      </trkpt>
      <trkpt lat="48.04224" lon="7.08551">
        <ele>772</ele>
        <time>2023-08-12T10:32:03Z</time>
      </trkpt>
      <trkpt lat="48.04228" lon="7.08549">
        <ele>772.3</ele>
        <time>2023-08-12T10:32:05Z</time>
      </trkpt>
      <trkpt lat="48.04231" lon="7.08546">
        <ele>772.5</ele>
        <time>2023-08-12T10:32:06Z</time>
      </trkpt>
      <trkpt lat="48.04233" lon="7.08544">
        <ele>772.7</ele>
        <time>2023-08-12T10:32:07Z</time>
      </trkpt>
      <trkpt lat="48.04234" lon="7.08542">
        <ele>772.8</ele>
        <time>2023-08-12T10:32:08Z</time>
      </trkpt>
      <trkpt lat="48.04235" lon="7.0854">
        <ele>773</ele>
        <time>2023-08-12T10:32:09Z</time>
      </trkpt>
      <trkpt lat="48.04237" lon="7.08537">
        <ele>773.2</ele>
        <time>2023-08-12T10:32:10Z</time>
      </trkpt>
      <trkpt lat="48.0424" lon="7.08533">
        <ele>773.4</ele>
        <time>2023-08-12T10:32:11Z</time>
      </trkpt>
      <trkpt lat="48.04243" lon="7.08532">
        <ele>773.6</ele>
        <time>2023-08-12T10:32:12Z</time>
      </trkpt>
      <trkpt lat="48.04245" lon="7.08531">
        <ele>773.9</ele>
        <time>2023-08-12T10:32:13Z</time>
      </trkpt>
      <trkpt lat="48.04247" lon="7.08529">
        <ele>774</ele>
        <time>2023-08-12T10:32:14Z</time>
      </trkpt>
      <trkpt lat="48.04248" lon="7.08528">
        <ele>774.1</ele>
        <time>2023-08-12T10:32:15Z</time>
      </trkpt>
      <trkpt lat="48.0425" lon="7.08528">
        <ele>774.3</ele>
        <time>2023-08-12T10:32:16Z</time>
      </trkpt>
      <trkpt lat="48.04251" lon="7.08529">
        <ele>774.4</ele>
        <time>2023-08-12T10:32:17Z</time>
      </trkpt>
      <trkpt lat="48.04253" lon="7.08529">
        <ele>774.5</ele>
        <time>2023-08-12T10:32:18Z</time>
      </trkpt>
      <trkpt lat="48.04255" lon="7.08528">
        <ele>774.7</ele>
        <time>2023-08-12T10:32:19Z</time>
      </trkpt>
      <trkpt lat="48.04257" lon="7.08527">
        <ele>774.9</ele>
        <time>2023-08-12T10:32:20Z</time>
      </trkpt>
      <trkpt lat="48.04259" lon="7.08526">
        <ele>775</ele>
        <time>2023-08-12T10:32:21Z</time>
      </trkpt>
      <trkpt lat="48.04261" lon="7.08525">
        <ele>775.2</ele>
        <time>2023-08-12T10:32:22Z</time>
      </trkpt>
      <trkpt lat="48.04263" lon="7.08524">
        <ele>775.4</ele>
        <time>2023-08-12T10:32:23Z</time>
      </trkpt>
      <trkpt lat="48.04264" lon="7.08523">
        <ele>775.5</ele>
        <time>2023-08-12T10:32:24Z</time>
      </trkpt>
      <trkpt lat="48.04267" lon="7.08523">
        <ele>775.7</ele>
        <time>2023-08-12T10:32:25Z</time>
      </trkpt>
      <trkpt lat="48.04268" lon="7.08522">
        <ele>775.9</ele>
        <time>2023-08-12T10:32:26Z</time>
      </trkpt>
      <trkpt lat="48.0427" lon="7.08521">
        <ele>776</ele>
        <time>2023-08-12T10:32:27Z</time>
      </trkpt>
      <trkpt lat="48.04273" lon="7.08518">
        <ele>776.4</ele>
        <time>2023-08-12T10:32:29Z</time>
      </trkpt>
      <trkpt lat="48.04277" lon="7.08516">
        <ele>776.7</ele>
        <time>2023-08-12T10:32:31Z</time>
      </trkpt>
      <trkpt lat="48.04278" lon="7.08516">
        <ele>776.8</ele>
        <time>2023-08-12T10:32:32Z</time>
      </trkpt>
      <trkpt lat="48.0428" lon="7.08515">
        <ele>777</ele>
        <time>2023-08-12T10:32:33Z</time>
      </trkpt>
      <trkpt lat="48.04281" lon="7.08515">
        <ele>777.1</ele>
        <time>2023-08-12T10:32:34Z</time>
      </trkpt>
      <trkpt lat="48.04284" lon="7.08513">
        <ele>777.4</ele>
        <time>2023-08-12T10:32:35Z</time>
      </trkpt>
      <trkpt lat="48.04287" lon="7.08511">
        <ele>777.7</ele>
        <time>2023-08-12T10:32:36Z</time>
      </trkpt>
      <trkpt lat="48.043" lon="7.08499">
        <ele>779.2</ele>
        <time>2023-08-12T10:32:43Z</time>
      </trkpt>
      <trkpt lat="48.04302" lon="7.08497">
        <ele>779.4</ele>
        <time>2023-08-12T10:32:44Z</time>
      </trkpt>
      <trkpt lat="48.04303" lon="7.08495">
        <ele>779.6</ele>
        <time>2023-08-12T10:32:45Z</time>
      </trkpt>
      <trkpt lat="48.04304" lon="7.08492">
        <ele>779.8</ele>
        <time>2023-08-12T10:32:46Z</time>
      </trkpt>
      <trkpt lat="48.0431" lon="7.08486">
        <ele>780.5</ele>
        <time>2023-08-12T10:32:49Z</time>
      </trkpt>
      <trkpt lat="48.04316" lon="7.08479">
        <ele>781.4</ele>
        <time>2023-08-12T10:32:53Z</time>
      </trkpt>
      <trkpt lat="48.04319" lon="7.08478">
        <ele>781.7</ele>
        <time>2023-08-12T10:32:54Z</time>
      </trkpt>
      <trkpt lat="48.04323" lon="7.08468">
        <ele>782.6</ele>
        <time>2023-08-12T10:32:58Z</time>
      </trkpt>
      <trkpt lat="48.04323" lon="7.08465">
        <ele>782.8</ele>
        <time>2023-08-12T10:32:59Z</time>
      </trkpt>
      <trkpt lat="48.04323" lon="7.08462">
        <ele>783</ele>
        <time>2023-08-12T10:33:00Z</time>
      </trkpt>
      <trkpt lat="48.04325" lon="7.08459">
        <ele>783.3</ele>
        <time>2023-08-12T10:33:01Z</time>
      </trkpt>
      <trkpt lat="48.04325" lon="7.08457">
        <ele>783.5</ele>
        <time>2023-08-12T10:33:02Z</time>
      </trkpt>
      <trkpt lat="48.04326" lon="7.08454">
        <ele>783.7</ele>
        <time>2023-08-12T10:33:03Z</time>
      </trkpt>
      <trkpt lat="48.04327" lon="7.08452">
        <ele>783.9</ele>
        <time>2023-08-12T10:33:04Z</time>
      </trkpt>
      <trkpt lat="48.04329" lon="7.0845">
        <ele>784.2</ele>
        <time>2023-08-12T10:33:05Z</time>
      </trkpt>
      <trkpt lat="48.04329" lon="7.08448">
        <ele>784.3</ele>
        <time>2023-08-12T10:33:06Z</time>
      </trkpt>
      <trkpt lat="48.04329" lon="7.08445">
        <ele>784.5</ele>
        <time>2023-08-12T10:33:07Z</time>
      </trkpt>
      <trkpt lat="48.0433" lon="7.08443">
        <ele>784.7</ele>
        <time>2023-08-12T10:33:08Z</time>
      </trkpt>
      <trkpt lat="48.0433" lon="7.08441">
        <ele>784.9</ele>
        <time>2023-08-12T10:33:09Z</time>
      </trkpt>
      <trkpt lat="48.04331" lon="7.08438">
        <ele>785.1</ele>
        <time>2023-08-12T10:33:10Z</time>
      </trkpt>
      <trkpt lat="48.04331" lon="7.08436">
        <ele>785.3</ele>
        <time>2023-08-12T10:33:11Z</time>
      </trkpt>
      <trkpt lat="48.04332" lon="7.08433">
        <ele>785.4</ele>
        <time>2023-08-12T10:33:12Z</time>
      </trkpt>
      <trkpt lat="48.04333" lon="7.08431">
        <ele>785.6</ele>
        <time>2023-08-12T10:33:13Z</time>
      </trkpt>
      <trkpt lat="48.04334" lon="7.0843">
        <ele>785.8</ele>
        <time>2023-08-12T10:33:14Z</time>
      </trkpt>
      <trkpt lat="48.04334" lon="7.08428">
        <ele>785.9</ele>
        <time>2023-08-12T10:33:15Z</time>
      </trkpt>
      <trkpt lat="48.04333" lon="7.08425">
        <ele>786.1</ele>
        <time>2023-08-12T10:33:16Z</time>
      </trkpt>
      <trkpt lat="48.04333" lon="7.08423">
        <ele>786.3</ele>
        <time>2023-08-12T10:33:17Z</time>
      </trkpt>
      <trkpt lat="48.04334" lon="7.0842">
        <ele>786.5</ele>
        <time>2023-08-12T10:33:18Z</time>
      </trkpt>
      <trkpt lat="48.04334" lon="7.08417">
        <ele>786.7</ele>
        <time>2023-08-12T10:33:19Z</time>
      </trkpt>
      <trkpt lat="48.04335" lon="7.08414">
        <ele>786.9</ele>
        <time>2023-08-12T10:33:20Z</time>
      </trkpt>
      <trkpt lat="48.04336" lon="7.08411">
        <ele>787.1</ele>
        <time>2023-08-12T10:33:21Z</time>
      </trkpt>
      <trkpt lat="48.04336" lon="7.08408">
        <ele>787.2</ele>
        <time>2023-08-12T10:33:22Z</time>
      </trkpt>
      <trkpt lat="48.04336" lon="7.08405">
        <ele>787.4</ele>
        <time>2023-08-12T10:33:23Z</time>
      </trkpt>
      <trkpt lat="48.04337" lon="7.08402">
        <ele>787.5</ele>
        <time>2023-08-12T10:33:24Z</time>
      </trkpt>
      <trkpt lat="48.04338" lon="7.084">
        <ele>787.7</ele>
        <time>2023-08-12T10:33:25Z</time>
      </trkpt>
      <trkpt lat="48.04338" lon="7.08397">
        <ele>787.8</ele>
        <time>2023-08-12T10:33:26Z</time>
      </trkpt>
      <trkpt lat="48.04339" lon="7.08394">
        <ele>787.9</ele>
        <time>2023-08-12T10:33:27Z</time>
      </trkpt>
      <trkpt lat="48.04339" lon="7.0839">
        <ele>788.1</ele>
        <time>2023-08-12T10:33:28Z</time>
      </trkpt>
      <trkpt lat="48.0434" lon="7.08387">
        <ele>788.2</ele>
        <time>2023-08-12T10:33:29Z</time>
      </trkpt>
      <trkpt lat="48.04341" lon="7.08384">
        <ele>788.4</ele>
        <time>2023-08-12T10:33:30Z</time>
      </trkpt>
      <trkpt lat="48.04342" lon="7.08381">
        <ele>788.5</ele>
        <time>2023-08-12T10:33:31Z</time>
      </trkpt>
      <trkpt lat="48.04343" lon="7.08378">
        <ele>788.6</ele>
        <time>2023-08-12T10:33:32Z</time>
      </trkpt>
      <trkpt lat="48.04344" lon="7.08376">
        <ele>788.8</ele>
        <time>2023-08-12T10:33:33Z</time>
      </trkpt>
      <trkpt lat="48.04345" lon="7.08373">
        <ele>788.9</ele>
        <time>2023-08-12T10:33:34Z</time>
      </trkpt>
      <trkpt lat="48.04346" lon="7.0837">
        <ele>789</ele>
        <time>2023-08-12T10:33:35Z</time>
      </trkpt>
      <trkpt lat="48.04346" lon="7.08367">
        <ele>789.1</ele>
        <time>2023-08-12T10:33:36Z</time>
      </trkpt>
      <trkpt lat="48.04347" lon="7.08364">
        <ele>789.3</ele>
        <time>2023-08-12T10:33:37Z</time>
      </trkpt>
      <trkpt lat="48.04347" lon="7.0836">
        <ele>789.4</ele>
        <time>2023-08-12T10:33:38Z</time>
      </trkpt>
      <trkpt lat="48.04347" lon="7.08357">
        <ele>789.6</ele>
        <time>2023-08-12T10:33:39Z</time>
      </trkpt>
      <trkpt lat="48.04348" lon="7.08354">
        <ele>789.7</ele>
        <time>2023-08-12T10:33:40Z</time>
      </trkpt>
      <trkpt lat="48.04349" lon="7.08351">
        <ele>789.9</ele>
        <time>2023-08-12T10:33:41Z</time>
      </trkpt>
      <trkpt lat="48.0435" lon="7.08348">
        <ele>790</ele>
        <time>2023-08-12T10:33:42Z</time>
      </trkpt>
      <trkpt lat="48.04351" lon="7.08345">
        <ele>790.1</ele>
        <time>2023-08-12T10:33:43Z</time>
      </trkpt>
      <trkpt lat="48.04351" lon="7.08342">
        <ele>790.3</ele>
        <time>2023-08-12T10:33:44Z</time>
      </trkpt>
      <trkpt lat="48.04352" lon="7.08339">
        <ele>790.4</ele>
        <time>2023-08-12T10:33:45Z</time>
      </trkpt>
      <trkpt lat="48.04352" lon="7.08336">
        <ele>790.5</ele>
        <time>2023-08-12T10:33:46Z</time>
      </trkpt>
      <trkpt lat="48.04352" lon="7.08333">
        <ele>790.6</ele>
        <time>2023-08-12T10:33:47Z</time>
      </trkpt>
      <trkpt lat="48.04352" lon="7.08331">
        <ele>790.7</ele>
        <time>2023-08-12T10:33:48Z</time>
      </trkpt>
      <trkpt lat="48.04353" lon="7.08328">
        <ele>790.9</ele>
        <time>2023-08-12T10:33:49Z</time>
      </trkpt>
      <trkpt lat="48.04353" lon="7.08326">
        <ele>790.9</ele>
        <time>2023-08-12T10:33:50Z</time>
      </trkpt>
      <trkpt lat="48.04353" lon="7.08325">
        <ele>791</ele>
        <time>2023-08-12T10:33:51Z</time>
      </trkpt>
      <trkpt lat="48.04352" lon="7.08322">
        <ele>791.1</ele>
        <time>2023-08-12T10:33:52Z</time>
      </trkpt>
      <trkpt lat="48.04352" lon="7.08319">
        <ele>791.2</ele>
        <time>2023-08-12T10:33:53Z</time>
      </trkpt>
      <trkpt lat="48.04353" lon="7.08316">
        <ele>791.4</ele>
        <time>2023-08-12T10:33:54Z</time>
      </trkpt>
      <trkpt lat="48.04354" lon="7.08313">
        <ele>791.5</ele>
        <time>2023-08-12T10:33:55Z</time>
      </trkpt>
      <trkpt lat="48.04354" lon="7.08309">
        <ele>791.6</ele>
        <time>2023-08-12T10:33:56Z</time>
      </trkpt>
      <trkpt lat="48.04354" lon="7.08305">
        <ele>791.8</ele>
        <time>2023-08-12T10:33:57Z</time>
      </trkpt>
      <trkpt lat="48.04355" lon="7.08302">
        <ele>791.9</ele>
        <time>2023-08-12T10:33:58Z</time>
      </trkpt>
      <trkpt lat="48.04355" lon="7.08299">
        <ele>792</ele>
        <time>2023-08-12T10:33:59Z</time>
      </trkpt>
      <trkpt lat="48.04356" lon="7.08296">
        <ele>792.1</ele>
        <time>2023-08-12T10:34:00Z</time>
      </trkpt>
      <trkpt lat="48.04356" lon="7.08293">
        <ele>792.3</ele>
        <time>2023-08-12T10:34:01Z</time>
      </trkpt>
      <trkpt lat="48.04355" lon="7.0829">
        <ele>792.4</ele>
        <time>2023-08-12T10:34:02Z</time>
      </trkpt>
      <trkpt lat="48.04356" lon="7.08287">
        <ele>792.6</ele>
        <time>2023-08-12T10:34:03Z</time>
      </trkpt>
      <trkpt lat="48.04356" lon="7.08283">
        <ele>792.7</ele>
        <time>2023-08-12T10:34:04Z</time>
      </trkpt>
      <trkpt lat="48.04356" lon="7.08279">
        <ele>792.9</ele>
        <time>2023-08-12T10:34:05Z</time>
      </trkpt>
      <trkpt lat="48.04357" lon="7.08276">
        <ele>793.1</ele>
        <time>2023-08-12T10:34:06Z</time>
      </trkpt>
      <trkpt lat="48.04357" lon="7.08273">
        <ele>793.3</ele>
        <time>2023-08-12T10:34:07Z</time>
      </trkpt>
      <trkpt lat="48.04357" lon="7.0827">
        <ele>793.4</ele>
        <time>2023-08-12T10:34:08Z</time>
      </trkpt>
      <trkpt lat="48.04357" lon="7.08267">
        <ele>793.5</ele>
        <time>2023-08-12T10:34:09Z</time>
      </trkpt>
      <trkpt lat="48.04357" lon="7.08265">
        <ele>793.6</ele>
        <time>2023-08-12T10:34:10Z</time>
      </trkpt>
      <trkpt lat="48.04357" lon="7.08262">
        <ele>793.8</ele>
        <time>2023-08-12T10:34:11Z</time>
      </trkpt>
      <trkpt lat="48.04357" lon="7.08259">
        <ele>793.9</ele>
        <time>2023-08-12T10:34:12Z</time>
      </trkpt>
      <trkpt lat="48.04358" lon="7.08257">
        <ele>794</ele>
        <time>2023-08-12T10:34:13Z</time>
      </trkpt>
      <trkpt lat="48.04358" lon="7.08254">
        <ele>794.2</ele>
        <time>2023-08-12T10:34:14Z</time>
      </trkpt>
      <trkpt lat="48.04359" lon="7.08251">
        <ele>794.4</ele>
        <time>2023-08-12T10:34:15Z</time>
      </trkpt>
      <trkpt lat="48.0436" lon="7.08248">
        <ele>794.5</ele>
        <time>2023-08-12T10:34:16Z</time>
      </trkpt>
      <trkpt lat="48.04361" lon="7.08246">
        <ele>794.7</ele>
        <time>2023-08-12T10:34:17Z</time>
      </trkpt>
      <trkpt lat="48.04361" lon="7.08243">
        <ele>794.8</ele>
        <time>2023-08-12T10:34:18Z</time>
      </trkpt>
      <trkpt lat="48.04361" lon="7.0824">
        <ele>795</ele>
        <time>2023-08-12T10:34:19Z</time>
      </trkpt>
      <trkpt lat="48.04361" lon="7.08237">
        <ele>795.2</ele>
        <time>2023-08-12T10:34:20Z</time>
      </trkpt>
      <trkpt lat="48.04362" lon="7.08235">
        <ele>795.3</ele>
        <time>2023-08-12T10:34:21Z</time>
      </trkpt>
      <trkpt lat="48.04362" lon="7.08232">
        <ele>795.5</ele>
        <time>2023-08-12T10:34:22Z</time>
      </trkpt>
      <trkpt lat="48.04362" lon="7.0823">
        <ele>795.7</ele>
        <time>2023-08-12T10:34:23Z</time>
      </trkpt>
      <trkpt lat="48.04362" lon="7.08228">
        <ele>795.8</ele>
        <time>2023-08-12T10:34:24Z</time>
      </trkpt>
      <trkpt lat="48.04362" lon="7.08224">
        <ele>796</ele>
        <time>2023-08-12T10:34:25Z</time>
      </trkpt>
      <trkpt lat="48.04363" lon="7.08221">
        <ele>796.2</ele>
        <time>2023-08-12T10:34:26Z</time>
      </trkpt>
      <trkpt lat="48.04363" lon="7.08218">
        <ele>796.5</ele>
        <time>2023-08-12T10:34:27Z</time>
      </trkpt>
      <trkpt lat="48.04364" lon="7.08215">
        <ele>796.7</ele>
        <time>2023-08-12T10:34:28Z</time>
      </trkpt>
      <trkpt lat="48.04364" lon="7.08213">
        <ele>796.9</ele>
        <time>2023-08-12T10:34:29Z</time>
      </trkpt>
      <trkpt lat="48.04364" lon="7.08211">
        <ele>797</ele>
        <time>2023-08-12T10:34:30Z</time>
      </trkpt>
      <trkpt lat="48.04365" lon="7.08208">
        <ele>797.2</ele>
        <time>2023-08-12T10:34:31Z</time>
      </trkpt>
      <trkpt lat="48.04366" lon="7.08205">
        <ele>797.4</ele>
        <time>2023-08-12T10:34:32Z</time>
      </trkpt>
      <trkpt lat="48.04367" lon="7.08203">
        <ele>797.6</ele>
        <time>2023-08-12T10:34:33Z</time>
      </trkpt>
      <trkpt lat="48.04367" lon="7.08199">
        <ele>797.9</ele>
        <time>2023-08-12T10:34:34Z</time>
      </trkpt>
      <trkpt lat="48.04368" lon="7.08196">
        <ele>798</ele>
        <time>2023-08-12T10:34:35Z</time>
      </trkpt>
      <trkpt lat="48.04368" lon="7.08193">
        <ele>798.2</ele>
        <time>2023-08-12T10:34:36Z</time>
      </trkpt>
      <trkpt lat="48.04368" lon="7.08191">
        <ele>798.4</ele>
        <time>2023-08-12T10:34:37Z</time>
      </trkpt>
      <trkpt lat="48.04369" lon="7.08185">
        <ele>798.9</ele>
        <time>2023-08-12T10:34:39Z</time>
      </trkpt>
      <trkpt lat="48.0437" lon="7.08178">
        <ele>799.3</ele>
        <time>2023-08-12T10:34:41Z</time>
      </trkpt>
      <trkpt lat="48.04371" lon="7.08175">
        <ele>799.6</ele>
        <time>2023-08-12T10:34:42Z</time>
      </trkpt>
      <trkpt lat="48.04374" lon="7.0817">
        <ele>800.1</ele>
        <time>2023-08-12T10:34:44Z</time>
      </trkpt>
      <trkpt lat="48.04376" lon="7.08167">
        <ele>800.3</ele>
        <time>2023-08-12T10:34:45Z</time>
      </trkpt>
      <trkpt lat="48.04377" lon="7.08165">
        <ele>800.6</ele>
        <time>2023-08-12T10:34:46Z</time>
      </trkpt>
      <trkpt lat="48.04378" lon="7.0816">
        <ele>800.9</ele>
        <time>2023-08-12T10:34:48Z</time>
      </trkpt>
      <trkpt lat="48.04378" lon="7.08156">
        <ele>801.1</ele>
        <time>2023-08-12T10:34:49Z</time>
      </trkpt>
      <trkpt lat="48.04377" lon="7.08154">
        <ele>801.3</ele>
        <time>2023-08-12T10:34:50Z</time>
      </trkpt>
      <trkpt lat="48.04379" lon="7.08148">
        <ele>801.8</ele>
        <time>2023-08-12T10:34:52Z</time>
      </trkpt>
      <trkpt lat="48.0438" lon="7.08142">
        <ele>802.2</ele>
        <time>2023-08-12T10:34:54Z</time>
      </trkpt>
      <trkpt lat="48.04381" lon="7.08139">
        <ele>802.4</ele>
        <time>2023-08-12T10:34:55Z</time>
      </trkpt>
      <trkpt lat="48.04381" lon="7.08137">
        <ele>802.6</ele>
        <time>2023-08-12T10:34:56Z</time>
      </trkpt>
      <trkpt lat="48.04383" lon="7.08132">
        <ele>802.9</ele>
        <time>2023-08-12T10:34:58Z</time>
      </trkpt>
      <trkpt lat="48.04383" lon="7.0813">
        <ele>803.1</ele>
        <time>2023-08-12T10:34:59Z</time>
      </trkpt>
      <trkpt lat="48.04384" lon="7.08127">
        <ele>803.3</ele>
        <time>2023-08-12T10:35:00Z</time>
      </trkpt>
      <trkpt lat="48.04386" lon="7.08122">
        <ele>803.6</ele>
        <time>2023-08-12T10:35:02Z</time>
      </trkpt>
      <trkpt lat="48.04387" lon="7.08119">
        <ele>803.8</ele>
        <time>2023-08-12T10:35:03Z</time>
      </trkpt>
      <trkpt lat="48.04388" lon="7.08117">
        <ele>804</ele>
        <time>2023-08-12T10:35:04Z</time>
      </trkpt>
      <trkpt lat="48.04388" lon="7.08111">
        <ele>804.4</ele>
        <time>2023-08-12T10:35:06Z</time>
      </trkpt>
      <trkpt lat="48.04388" lon="7.08109">
        <ele>804.5</ele>
        <time>2023-08-12T10:35:07Z</time>
      </trkpt>
      <trkpt lat="48.04388" lon="7.08106">
        <ele>804.7</ele>
        <time>2023-08-12T10:35:08Z</time>
      </trkpt>
      <trkpt lat="48.04388" lon="7.08102">
        <ele>805.1</ele>
        <time>2023-08-12T10:35:10Z</time>
      </trkpt>
      <trkpt lat="48.04388" lon="7.08099">
        <ele>805.3</ele>
        <time>2023-08-12T10:35:11Z</time>
      </trkpt>
      <trkpt lat="48.04388" lon="7.08093">
        <ele>805.7</ele>
        <time>2023-08-12T10:35:13Z</time>
      </trkpt>
      <trkpt lat="48.04389" lon="7.0809">
        <ele>805.9</ele>
        <time>2023-08-12T10:35:14Z</time>
      </trkpt>
      <trkpt lat="48.0439" lon="7.08087">
        <ele>806.1</ele>
        <time>2023-08-12T10:35:15Z</time>
      </trkpt>
      <trkpt lat="48.04389" lon="7.08084">
        <ele>806.3</ele>
        <time>2023-08-12T10:35:16Z</time>
      </trkpt>
      <trkpt lat="48.0439" lon="7.08082">
        <ele>806.5</ele>
        <time>2023-08-12T10:35:17Z</time>
      </trkpt>
      <trkpt lat="48.04389" lon="7.08079">
        <ele>806.7</ele>
        <time>2023-08-12T10:35:18Z</time>
      </trkpt>
      <trkpt lat="48.04389" lon="7.08077">
        <ele>806.9</ele>
        <time>2023-08-12T10:35:19Z</time>
      </trkpt>
      <trkpt lat="48.0439" lon="7.08074">
        <ele>807.1</ele>
        <time>2023-08-12T10:35:20Z</time>
      </trkpt>
      <trkpt lat="48.0439" lon="7.08071">
        <ele>807.4</ele>
        <time>2023-08-12T10:35:21Z</time>
      </trkpt>
      <trkpt lat="48.04391" lon="7.08069">
        <ele>807.6</ele>
        <time>2023-08-12T10:35:22Z</time>
      </trkpt>
      <trkpt lat="48.04392" lon="7.08067">
        <ele>807.8</ele>
        <time>2023-08-12T10:35:23Z</time>
      </trkpt>
      <trkpt lat="48.04393" lon="7.08065">
        <ele>808</ele>
        <time>2023-08-12T10:35:24Z</time>
      </trkpt>
      <trkpt lat="48.04392" lon="7.08062">
        <ele>808.3</ele>
        <time>2023-08-12T10:35:25Z</time>
      </trkpt>
      <trkpt lat="48.04393" lon="7.08059">
        <ele>808.5</ele>
        <time>2023-08-12T10:35:26Z</time>
      </trkpt>
      <trkpt lat="48.04393" lon="7.08056">
        <ele>808.7</ele>
        <time>2023-08-12T10:35:27Z</time>
      </trkpt>
      <trkpt lat="48.04393" lon="7.08054">
        <ele>808.9</ele>
        <time>2023-08-12T10:35:28Z</time>
      </trkpt>
      <trkpt lat="48.04393" lon="7.08052">
        <ele>809.1</ele>
        <time>2023-08-12T10:35:29Z</time>
      </trkpt>
      <trkpt lat="48.04392" lon="7.0805">
        <ele>809.3</ele>
        <time>2023-08-12T10:35:30Z</time>
      </trkpt>
      <trkpt lat="48.04391" lon="7.08048">
        <ele>809.6</ele>
        <time>2023-08-12T10:35:31Z</time>
      </trkpt>
      <trkpt lat="48.04391" lon="7.08046">
        <ele>809.7</ele>
        <time>2023-08-12T10:35:32Z</time>
      </trkpt>
      <trkpt lat="48.04391" lon="7.08044">
        <ele>809.9</ele>
        <time>2023-08-12T10:35:33Z</time>
      </trkpt>
      <trkpt lat="48.04391" lon="7.08042">
        <ele>810.1</ele>
        <time>2023-08-12T10:35:34Z</time>
      </trkpt>
      <trkpt lat="48.04392" lon="7.0804">
        <ele>810.3</ele>
        <time>2023-08-12T10:35:35Z</time>
      </trkpt>
      <trkpt lat="48.04393" lon="7.08038">
        <ele>810.4</ele>
        <time>2023-08-12T10:35:36Z</time>
      </trkpt>
      <trkpt lat="48.04392" lon="7.08036">
        <ele>810.6</ele>
        <time>2023-08-12T10:35:37Z</time>
      </trkpt>
      <trkpt lat="48.04392" lon="7.08034">
        <ele>810.8</ele>
        <time>2023-08-12T10:35:38Z</time>
      </trkpt>
      <trkpt lat="48.04392" lon="7.08032">
        <ele>811</ele>
        <time>2023-08-12T10:35:39Z</time>
      </trkpt>
      <trkpt lat="48.04391" lon="7.0803">
        <ele>811.2</ele>
        <time>2023-08-12T10:35:40Z</time>
      </trkpt>
      <trkpt lat="48.0439" lon="7.08026">
        <ele>811.5</ele>
        <time>2023-08-12T10:35:41Z</time>
      </trkpt>
      <trkpt lat="48.0439" lon="7.08024">
        <ele>811.8</ele>
        <time>2023-08-12T10:35:42Z</time>
      </trkpt>
      <trkpt lat="48.0439" lon="7.08021">
        <ele>812</ele>
        <time>2023-08-12T10:35:43Z</time>
      </trkpt>
      <trkpt lat="48.0439" lon="7.08017">
        <ele>812.3</ele>
        <time>2023-08-12T10:35:44Z</time>
      </trkpt>
      <trkpt lat="48.04391" lon="7.08014">
        <ele>812.5</ele>
        <time>2023-08-12T10:35:45Z</time>
      </trkpt>
      <trkpt lat="48.04391" lon="7.08011">
        <ele>812.7</ele>
        <time>2023-08-12T10:35:46Z</time>
      </trkpt>
      <trkpt lat="48.04392" lon="7.08008">
        <ele>812.9</ele>
        <time>2023-08-12T10:35:47Z</time>
      </trkpt>
      <trkpt lat="48.04394" lon="7.08005">
        <ele>813.2</ele>
        <time>2023-08-12T10:35:48Z</time>
      </trkpt>
      <trkpt lat="48.04395" lon="7.08002">
        <ele>813.3</ele>
        <time>2023-08-12T10:35:49Z</time>
      </trkpt>
      <trkpt lat="48.04396" lon="7.07999">
        <ele>813.5</ele>
        <time>2023-08-12T10:35:50Z</time>
      </trkpt>
      <trkpt lat="48.04396" lon="7.07997">
        <ele>813.7</ele>
        <time>2023-08-12T10:35:51Z</time>
      </trkpt>
      <trkpt lat="48.04395" lon="7.07995">
        <ele>813.8</ele>
        <time>2023-08-12T10:35:52Z</time>
      </trkpt>
      <trkpt lat="48.04395" lon="7.07992">
        <ele>813.9</ele>
        <time>2023-08-12T10:35:53Z</time>
      </trkpt>
      <trkpt lat="48.04395" lon="7.07988">
        <ele>814.1</ele>
        <time>2023-08-12T10:35:54Z</time>
      </trkpt>
      <trkpt lat="48.04395" lon="7.07985">
        <ele>814.2</ele>
        <time>2023-08-12T10:35:55Z</time>
      </trkpt>
      <trkpt lat="48.04395" lon="7.07982">
        <ele>814.4</ele>
        <time>2023-08-12T10:35:56Z</time>
      </trkpt>
      <trkpt lat="48.04395" lon="7.0798">
        <ele>814.5</ele>
        <time>2023-08-12T10:35:57Z</time>
      </trkpt>
      <trkpt lat="48.04395" lon="7.07977">
        <ele>814.7</ele>
        <time>2023-08-12T10:35:58Z</time>
      </trkpt>
      <trkpt lat="48.04396" lon="7.07974">
        <ele>814.8</ele>
        <time>2023-08-12T10:35:59Z</time>
      </trkpt>
      <trkpt lat="48.04397" lon="7.07972">
        <ele>815</ele>
        <time>2023-08-12T10:36:00Z</time>
      </trkpt>
      <trkpt lat="48.04397" lon="7.07969">
        <ele>815.1</ele>
        <time>2023-08-12T10:36:01Z</time>
      </trkpt>
      <trkpt lat="48.04397" lon="7.07966">
        <ele>815.2</ele>
        <time>2023-08-12T10:36:02Z</time>
      </trkpt>
      <trkpt lat="48.04397" lon="7.07963">
        <ele>815.4</ele>
        <time>2023-08-12T10:36:03Z</time>
      </trkpt>
      <trkpt lat="48.04397" lon="7.0796">
        <ele>815.5</ele>
        <time>2023-08-12T10:36:04Z</time>
      </trkpt>
      <trkpt lat="48.04398" lon="7.07957">
        <ele>815.7</ele>
        <time>2023-08-12T10:36:05Z</time>
      </trkpt>
      <trkpt lat="48.04398" lon="7.07955">
        <ele>815.8</ele>
        <time>2023-08-12T10:36:06Z</time>
      </trkpt>
      <trkpt lat="48.044" lon="7.07952">
        <ele>816</ele>
        <time>2023-08-12T10:36:07Z</time>
      </trkpt>
      <trkpt lat="48.04401" lon="7.0795">
        <ele>816.1</ele>
        <time>2023-08-12T10:36:08Z</time>
      </trkpt>
      <trkpt lat="48.04401" lon="7.07947">
        <ele>816.3</ele>
        <time>2023-08-12T10:36:09Z</time>
      </trkpt>
      <trkpt lat="48.04401" lon="7.07944">
        <ele>816.4</ele>
        <time>2023-08-12T10:36:10Z</time>
      </trkpt>
      <trkpt lat="48.04401" lon="7.07941">
        <ele>816.5</ele>
        <time>2023-08-12T10:36:11Z</time>
      </trkpt>
      <trkpt lat="48.04401" lon="7.07939">
        <ele>816.7</ele>
        <time>2023-08-12T10:36:12Z</time>
      </trkpt>
      <trkpt lat="48.044" lon="7.07936">
        <ele>816.8</ele>
        <time>2023-08-12T10:36:13Z</time>
      </trkpt>
      <trkpt lat="48.044" lon="7.07933">
        <ele>816.9</ele>
        <time>2023-08-12T10:36:14Z</time>
      </trkpt>
      <trkpt lat="48.044" lon="7.07931">
        <ele>817.1</ele>
        <time>2023-08-12T10:36:15Z</time>
      </trkpt>
      <trkpt lat="48.044" lon="7.07928">
        <ele>817.2</ele>
        <time>2023-08-12T10:36:16Z</time>
      </trkpt>
      <trkpt lat="48.044" lon="7.07926">
        <ele>817.3</ele>
        <time>2023-08-12T10:36:17Z</time>
      </trkpt>
      <trkpt lat="48.044" lon="7.07924">
        <ele>817.4</ele>
        <time>2023-08-12T10:36:18Z</time>
      </trkpt>
      <trkpt lat="48.044" lon="7.07921">
        <ele>817.5</ele>
        <time>2023-08-12T10:36:19Z</time>
      </trkpt>
      <trkpt lat="48.04399" lon="7.07918">
        <ele>817.7</ele>
        <time>2023-08-12T10:36:20Z</time>
      </trkpt>
      <trkpt lat="48.04398" lon="7.07916">
        <ele>817.8</ele>
        <time>2023-08-12T10:36:21Z</time>
      </trkpt>
      <trkpt lat="48.04398" lon="7.07913">
        <ele>817.9</ele>
        <time>2023-08-12T10:36:22Z</time>
      </trkpt>
      <trkpt lat="48.04397" lon="7.0791">
        <ele>818</ele>
        <time>2023-08-12T10:36:23Z</time>
      </trkpt>
      <trkpt lat="48.04397" lon="7.07907">
        <ele>818.1</ele>
        <time>2023-08-12T10:36:24Z</time>
      </trkpt>
      <trkpt lat="48.04397" lon="7.07905">
        <ele>818.3</ele>
        <time>2023-08-12T10:36:25Z</time>
      </trkpt>
      <trkpt lat="48.04396" lon="7.07902">
        <ele>818.5</ele>
        <time>2023-08-12T10:36:26Z</time>
      </trkpt>
      <trkpt lat="48.04394" lon="7.07898">
        <ele>818.6</ele>
        <time>2023-08-12T10:36:27Z</time>
      </trkpt>
      <trkpt lat="48.04394" lon="7.07895">
        <ele>818.8</ele>
        <time>2023-08-12T10:36:28Z</time>
      </trkpt>
      <trkpt lat="48.04393" lon="7.07893">
        <ele>818.9</ele>
        <time>2023-08-12T10:36:29Z</time>
      </trkpt>
      <trkpt lat="48.04393" lon="7.0789">
        <ele>819</ele>
        <time>2023-08-12T10:36:30Z</time>
      </trkpt>
      <trkpt lat="48.04393" lon="7.07888">
        <ele>819.1</ele>
        <time>2023-08-12T10:36:31Z</time>
      </trkpt>
      <trkpt lat="48.04393" lon="7.07885">
        <ele>819.3</ele>
        <time>2023-08-12T10:36:32Z</time>
      </trkpt>
      <trkpt lat="48.04392" lon="7.07882">
        <ele>819.4</ele>
        <time>2023-08-12T10:36:33Z</time>
      </trkpt>
      <trkpt lat="48.04392" lon="7.07879">
        <ele>819.5</ele>
        <time>2023-08-12T10:36:34Z</time>
      </trkpt>
      <trkpt lat="48.04391" lon="7.07875">
        <ele>819.7</ele>
        <time>2023-08-12T10:36:35Z</time>
      </trkpt>
      <trkpt lat="48.0439" lon="7.07871">
        <ele>819.9</ele>
        <time>2023-08-12T10:36:36Z</time>
      </trkpt>
      <trkpt lat="48.04389" lon="7.07867">
        <ele>820.1</ele>
        <time>2023-08-12T10:36:37Z</time>
      </trkpt>
      <trkpt lat="48.04388" lon="7.07864">
        <ele>820.2</ele>
        <time>2023-08-12T10:36:38Z</time>
      </trkpt>
      <trkpt lat="48.04388" lon="7.07861">
        <ele>820.4</ele>
        <time>2023-08-12T10:36:39Z</time>
      </trkpt>
      <trkpt lat="48.04387" lon="7.07858">
        <ele>820.5</ele>
        <time>2023-08-12T10:36:40Z</time>
      </trkpt>
      <trkpt lat="48.04387" lon="7.07854">
        <ele>820.7</ele>
        <time>2023-08-12T10:36:41Z</time>
      </trkpt>
      <trkpt lat="48.04386" lon="7.07851">
        <ele>820.9</ele>
        <time>2023-08-12T10:36:42Z</time>
      </trkpt>
      <trkpt lat="48.04386" lon="7.07847">
        <ele>821</ele>
        <time>2023-08-12T10:36:43Z</time>
      </trkpt>
      <trkpt lat="48.04385" lon="7.07845">
        <ele>821.2</ele>
        <time>2023-08-12T10:36:44Z</time>
      </trkpt>
      <trkpt lat="48.04386" lon="7.07843">
        <ele>821.3</ele>
        <time>2023-08-12T10:36:45Z</time>
      </trkpt>
      <trkpt lat="48.04384" lon="7.07841">
        <ele>821.4</ele>
        <time>2023-08-12T10:36:46Z</time>
      </trkpt>
      <trkpt lat="48.04383" lon="7.0784">
        <ele>821.5</ele>
        <time>2023-08-12T10:36:47Z</time>
      </trkpt>
      <trkpt lat="48.04384" lon="7.07836">
        <ele>821.7</ele>
        <time>2023-08-12T10:36:48Z</time>
      </trkpt>
      <trkpt lat="48.04384" lon="7.07832">
        <ele>821.9</ele>
        <time>2023-08-12T10:36:49Z</time>
      </trkpt>
      <trkpt lat="48.04384" lon="7.07829">
        <ele>822.1</ele>
        <time>2023-08-12T10:36:50Z</time>
      </trkpt>
      <trkpt lat="48.04383" lon="7.07826">
        <ele>822.2</ele>
        <time>2023-08-12T10:36:51Z</time>
      </trkpt>
      <trkpt lat="48.04381" lon="7.07823">
        <ele>822.4</ele>
        <time>2023-08-12T10:36:52Z</time>
      </trkpt>
      <trkpt lat="48.0438" lon="7.07821">
        <ele>822.5</ele>
        <time>2023-08-12T10:36:53Z</time>
      </trkpt>
      <trkpt lat="48.0438" lon="7.07819">
        <ele>822.6</ele>
        <time>2023-08-12T10:36:54Z</time>
      </trkpt>
      <trkpt lat="48.04379" lon="7.07818">
        <ele>822.7</ele>
        <time>2023-08-12T10:36:55Z</time>
      </trkpt>
      <trkpt lat="48.04381" lon="7.07814">
        <ele>822.9</ele>
        <time>2023-08-12T10:36:56Z</time>
      </trkpt>
      <trkpt lat="48.04382" lon="7.0781">
        <ele>823.1</ele>
        <time>2023-08-12T10:36:57Z</time>
      </trkpt>
      <trkpt lat="48.04383" lon="7.07806">
        <ele>823.3</ele>
        <time>2023-08-12T10:36:58Z</time>
      </trkpt>
      <trkpt lat="48.04382" lon="7.07803">
        <ele>823.5</ele>
        <time>2023-08-12T10:36:59Z</time>
      </trkpt>
      <trkpt lat="48.04382" lon="7.078">
        <ele>823.6</ele>
        <time>2023-08-12T10:37:00Z</time>
      </trkpt>
      <trkpt lat="48.04382" lon="7.07798">
        <ele>823.8</ele>
        <time>2023-08-12T10:37:01Z</time>
      </trkpt>
      <trkpt lat="48.04381" lon="7.07795">
        <ele>823.9</ele>
        <time>2023-08-12T10:37:02Z</time>
      </trkpt>
      <trkpt lat="48.04381" lon="7.07793">
        <ele>824</ele>
        <time>2023-08-12T10:37:03Z</time>
      </trkpt>
      <trkpt lat="48.0438" lon="7.07791">
        <ele>824.1</ele>
        <time>2023-08-12T10:37:04Z</time>
      </trkpt>
      <trkpt lat="48.0438" lon="7.07789">
        <ele>824.3</ele>
        <time>2023-08-12T10:37:05Z</time>
      </trkpt>
      <trkpt lat="48.0438" lon="7.07786">
        <ele>824.4</ele>
        <time>2023-08-12T10:37:06Z</time>
      </trkpt>
      <trkpt lat="48.04381" lon="7.07783">
        <ele>824.5</ele>
        <time>2023-08-12T10:37:07Z</time>
      </trkpt>
      <trkpt lat="48.04381" lon="7.0778">
        <ele>824.7</ele>
        <time>2023-08-12T10:37:08Z</time>
      </trkpt>
      <trkpt lat="48.04381" lon="7.07777">
        <ele>824.8</ele>
        <time>2023-08-12T10:37:09Z</time>
      </trkpt>
      <trkpt lat="48.0438" lon="7.07775">
        <ele>825</ele>
        <time>2023-08-12T10:37:10Z</time>
      </trkpt>
      <trkpt lat="48.0438" lon="7.07772">
        <ele>825.1</ele>
        <time>2023-08-12T10:37:11Z</time>
      </trkpt>
      <trkpt lat="48.04381" lon="7.0777">
        <ele>825.2</ele>
        <time>2023-08-12T10:37:12Z</time>
      </trkpt>
      <trkpt lat="48.04381" lon="7.07769">
        <ele>825.3</ele>
        <time>2023-08-12T10:37:13Z</time>
      </trkpt>
      <trkpt lat="48.0438" lon="7.07766">
        <ele>825.5</ele>
        <time>2023-08-12T10:37:14Z</time>
      </trkpt>
      <trkpt lat="48.0438" lon="7.07763">
        <ele>825.6</ele>
        <time>2023-08-12T10:37:15Z</time>
      </trkpt>
      <trkpt lat="48.04381" lon="7.07761">
        <ele>825.7</ele>
        <time>2023-08-12T10:37:16Z</time>
      </trkpt>
      <trkpt lat="48.0438" lon="7.07758">
        <ele>825.9</ele>
        <time>2023-08-12T10:37:17Z</time>
      </trkpt>
      <trkpt lat="48.04378" lon="7.07754">
        <ele>826.1</ele>
        <time>2023-08-12T10:37:18Z</time>
      </trkpt>
      <trkpt lat="48.04377" lon="7.0775">
        <ele>826.3</ele>
        <time>2023-08-12T10:37:19Z</time>
      </trkpt>
      <trkpt lat="48.04377" lon="7.07746">
        <ele>826.4</ele>
        <time>2023-08-12T10:37:20Z</time>
      </trkpt>
      <trkpt lat="48.04377" lon="7.07742">
        <ele>826.6</ele>
        <time>2023-08-12T10:37:21Z</time>
      </trkpt>
      <trkpt lat="48.04376" lon="7.07739">
        <ele>826.7</ele>
        <time>2023-08-12T10:37:22Z</time>
      </trkpt>
      <trkpt lat="48.04374" lon="7.07736">
        <ele>826.8</ele>
        <time>2023-08-12T10:37:23Z</time>
      </trkpt>
      <trkpt lat="48.04373" lon="7.07733">
        <ele>827</ele>
        <time>2023-08-12T10:37:24Z</time>
      </trkpt>
      <trkpt lat="48.04372" lon="7.0773">
        <ele>827.1</ele>
        <time>2023-08-12T10:37:25Z</time>
      </trkpt>
      <trkpt lat="48.04373" lon="7.07726">
        <ele>827.2</ele>
        <time>2023-08-12T10:37:26Z</time>
      </trkpt>
      <trkpt lat="48.04374" lon="7.07722">
        <ele>827.4</ele>
        <time>2023-08-12T10:37:27Z</time>
      </trkpt>
      <trkpt lat="48.04375" lon="7.07718">
        <ele>827.5</ele>
        <time>2023-08-12T10:37:28Z</time>
      </trkpt>
      <trkpt lat="48.04374" lon="7.07714">
        <ele>827.7</ele>
        <time>2023-08-12T10:37:29Z</time>
      </trkpt>
      <trkpt lat="48.04372" lon="7.0771">
        <ele>827.9</ele>
        <time>2023-08-12T10:37:30Z</time>
      </trkpt>
      <trkpt lat="48.04371" lon="7.07708">
        <ele>828</ele>
        <time>2023-08-12T10:37:31Z</time>
      </trkpt>
      <trkpt lat="48.04369" lon="7.07704">
        <ele>828.2</ele>
        <time>2023-08-12T10:37:32Z</time>
      </trkpt>
      <trkpt lat="48.04366" lon="7.07701">
        <ele>828.4</ele>
        <time>2023-08-12T10:37:33Z</time>
      </trkpt>
      <trkpt lat="48.04363" lon="7.07698">
        <ele>828.6</ele>
        <time>2023-08-12T10:37:34Z</time>
      </trkpt>
      <trkpt lat="48.04359" lon="7.07694">
        <ele>829</ele>
        <time>2023-08-12T10:37:35Z</time>
      </trkpt>
      <trkpt lat="48.04356" lon="7.07691">
        <ele>829.1</ele>
        <time>2023-08-12T10:37:36Z</time>
      </trkpt>
      <trkpt lat="48.04356" lon="7.07688">
        <ele>829.3</ele>
        <time>2023-08-12T10:37:37Z</time>
      </trkpt>
      <trkpt lat="48.04355" lon="7.07686">
        <ele>829.4</ele>
        <time>2023-08-12T10:37:38Z</time>
      </trkpt>
      <trkpt lat="48.04355" lon="7.07682">
        <ele>829.6</ele>
        <time>2023-08-12T10:37:39Z</time>
      </trkpt>
      <trkpt lat="48.04355" lon="7.0768">
        <ele>829.7</ele>
        <time>2023-08-12T10:37:40Z</time>
      </trkpt>
      <trkpt lat="48.04355" lon="7.07677">
        <ele>829.9</ele>
        <time>2023-08-12T10:37:41Z</time>
      </trkpt>
      <trkpt lat="48.04357" lon="7.07674">
        <ele>830</ele>
        <time>2023-08-12T10:37:42Z</time>
      </trkpt>
      <trkpt lat="48.04357" lon="7.07671">
        <ele>830.2</ele>
        <time>2023-08-12T10:37:43Z</time>
      </trkpt>
      <trkpt lat="48.04356" lon="7.07669">
        <ele>830.4</ele>
        <time>2023-08-12T10:37:44Z</time>
      </trkpt>
      <trkpt lat="48.04355" lon="7.07666">
        <ele>830.5</ele>
        <time>2023-08-12T10:37:45Z</time>
      </trkpt>
      <trkpt lat="48.04355" lon="7.07663">
        <ele>830.6</ele>
        <time>2023-08-12T10:37:46Z</time>
      </trkpt>
      <trkpt lat="48.04354" lon="7.07661">
        <ele>830.8</ele>
        <time>2023-08-12T10:37:47Z</time>
      </trkpt>
      <trkpt lat="48.04354" lon="7.07658">
        <ele>830.9</ele>
        <time>2023-08-12T10:37:48Z</time>
      </trkpt>
      <trkpt lat="48.04354" lon="7.07655">
        <ele>831.1</ele>
        <time>2023-08-12T10:37:49Z</time>
      </trkpt>
      <trkpt lat="48.04354" lon="7.07652">
        <ele>831.2</ele>
        <time>2023-08-12T10:37:50Z</time>
      </trkpt>
      <trkpt lat="48.04354" lon="7.07649">
        <ele>831.4</ele>
        <time>2023-08-12T10:37:51Z</time>
      </trkpt>
      <trkpt lat="48.04353" lon="7.07647">
        <ele>831.5</ele>
        <time>2023-08-12T10:37:52Z</time>
      </trkpt>
      <trkpt lat="48.04353" lon="7.07644">
        <ele>831.7</ele>
        <time>2023-08-12T10:37:53Z</time>
      </trkpt>
      <trkpt lat="48.04353" lon="7.07641">
        <ele>831.8</ele>
        <time>2023-08-12T10:37:54Z</time>
      </trkpt>
      <trkpt lat="48.04353" lon="7.07638">
        <ele>832</ele>
        <time>2023-08-12T10:37:55Z</time>
      </trkpt>
      <trkpt lat="48.04354" lon="7.07635">
        <ele>832.1</ele>
        <time>2023-08-12T10:37:56Z</time>
      </trkpt>
      <trkpt lat="48.04354" lon="7.07633">
        <ele>832.3</ele>
        <time>2023-08-12T10:37:57Z</time>
      </trkpt>
      <trkpt lat="48.04355" lon="7.07631">
        <ele>832.4</ele>
        <time>2023-08-12T10:37:58Z</time>
      </trkpt>
      <trkpt lat="48.04356" lon="7.07629">
        <ele>832.5</ele>
        <time>2023-08-12T10:37:59Z</time>
      </trkpt>
      <trkpt lat="48.04355" lon="7.07625">
        <ele>832.7</ele>
        <time>2023-08-12T10:38:00Z</time>
      </trkpt>
      <trkpt lat="48.04355" lon="7.07623">
        <ele>832.8</ele>
        <time>2023-08-12T10:38:01Z</time>
      </trkpt>
      <trkpt lat="48.04354" lon="7.0762">
        <ele>833</ele>
        <time>2023-08-12T10:38:02Z</time>
      </trkpt>
      <trkpt lat="48.04354" lon="7.07616">
        <ele>833.2</ele>
        <time>2023-08-12T10:38:03Z</time>
      </trkpt>
      <trkpt lat="48.04354" lon="7.07613">
        <ele>833.4</ele>
        <time>2023-08-12T10:38:04Z</time>
      </trkpt>
      <trkpt lat="48.04355" lon="7.0761">
        <ele>833.5</ele>
        <time>2023-08-12T10:38:05Z</time>
      </trkpt>
      <trkpt lat="48.04355" lon="7.07607">
        <ele>833.7</ele>
        <time>2023-08-12T10:38:06Z</time>
      </trkpt>
      <trkpt lat="48.04356" lon="7.07604">
        <ele>833.8</ele>
        <time>2023-08-12T10:38:07Z</time>
      </trkpt>
      <trkpt lat="48.04356" lon="7.07601">
        <ele>834</ele>
        <time>2023-08-12T10:38:08Z</time>
      </trkpt>
      <trkpt lat="48.04356" lon="7.07597">
        <ele>834.2</ele>
        <time>2023-08-12T10:38:09Z</time>
      </trkpt>
      <trkpt lat="48.04356" lon="7.07594">
        <ele>834.3</ele>
        <time>2023-08-12T10:38:10Z</time>
      </trkpt>
      <trkpt lat="48.04357" lon="7.07591">
        <ele>834.5</ele>
        <time>2023-08-12T10:38:11Z</time>
      </trkpt>
      <trkpt lat="48.04357" lon="7.07588">
        <ele>834.6</ele>
        <time>2023-08-12T10:38:12Z</time>
      </trkpt>
      <trkpt lat="48.04357" lon="7.07585">
        <ele>834.8</ele>
        <time>2023-08-12T10:38:13Z</time>
      </trkpt>
      <trkpt lat="48.04357" lon="7.07581">
        <ele>834.9</ele>
        <time>2023-08-12T10:38:14Z</time>
      </trkpt>
      <trkpt lat="48.04356" lon="7.07579">
        <ele>835</ele>
        <time>2023-08-12T10:38:15Z</time>
      </trkpt>
      <trkpt lat="48.04356" lon="7.07576">
        <ele>835.1</ele>
        <time>2023-08-12T10:38:16Z</time>
      </trkpt>
      <trkpt lat="48.04356" lon="7.07573">
        <ele>835.3</ele>
        <time>2023-08-12T10:38:17Z</time>
      </trkpt>
      <trkpt lat="48.04356" lon="7.0757">
        <ele>835.5</ele>
        <time>2023-08-12T10:38:18Z</time>
      </trkpt>
      <trkpt lat="48.04355" lon="7.07567">
        <ele>835.6</ele>
        <time>2023-08-12T10:38:19Z</time>
      </trkpt>
      <trkpt lat="48.04351" lon="7.07563">
        <ele>835.9</ele>
        <time>2023-08-12T10:38:20Z</time>
      </trkpt>
      <trkpt lat="48.0435" lon="7.07559">
        <ele>836.2</ele>
        <time>2023-08-12T10:38:21Z</time>
      </trkpt>
      <trkpt lat="48.04348" lon="7.07557">
        <ele>836.3</ele>
        <time>2023-08-12T10:38:22Z</time>
      </trkpt>
      <trkpt lat="48.04348" lon="7.07556">
        <ele>836.4</ele>
        <time>2023-08-12T10:38:23Z</time>
      </trkpt>
      <trkpt lat="48.04349" lon="7.07553">
        <ele>836.6</ele>
        <time>2023-08-12T10:38:24Z</time>
      </trkpt>
      <trkpt lat="48.0435" lon="7.0755">
        <ele>836.7</ele>
        <time>2023-08-12T10:38:25Z</time>
      </trkpt>
      <trkpt lat="48.04347" lon="7.07547">
        <ele>837</ele>
        <time>2023-08-12T10:38:26Z</time>
      </trkpt>
      <trkpt lat="48.04349" lon="7.07544">
        <ele>837.3</ele>
        <time>2023-08-12T10:38:27Z</time>
      </trkpt>
      <trkpt lat="48.04352" lon="7.07541">
        <ele>837.6</ele>
        <time>2023-08-12T10:38:28Z</time>
      </trkpt>
      <trkpt lat="48.04353" lon="7.07539">
        <ele>837.8</ele>
        <time>2023-08-12T10:38:29Z</time>
      </trkpt>
      <trkpt lat="48.04353" lon="7.07536">
        <ele>837.9</ele>
        <time>2023-08-12T10:38:30Z</time>
      </trkpt>
      <trkpt lat="48.04354" lon="7.07534">
        <ele>838</ele>
        <time>2023-08-12T10:38:31Z</time>
      </trkpt>
      <trkpt lat="48.04354" lon="7.07532">
        <ele>838.2</ele>
        <time>2023-08-12T10:38:32Z</time>
      </trkpt>
      <trkpt lat="48.04353" lon="7.0753">
        <ele>838.3</ele>
        <time>2023-08-12T10:38:33Z</time>
      </trkpt>
      <trkpt lat="48.04353" lon="7.07527">
        <ele>838.5</ele>
        <time>2023-08-12T10:38:34Z</time>
      </trkpt>
      <trkpt lat="48.04353" lon="7.07524">
        <ele>838.6</ele>
        <time>2023-08-12T10:38:35Z</time>
      </trkpt>
      <trkpt lat="48.04354" lon="7.07521">
        <ele>838.8</ele>
        <time>2023-08-12T10:38:36Z</time>
      </trkpt>
      <trkpt lat="48.04354" lon="7.07519">
        <ele>838.9</ele>
        <time>2023-08-12T10:38:37Z</time>
      </trkpt>
      <trkpt lat="48.04355" lon="7.07516">
        <ele>839.1</ele>
        <time>2023-08-12T10:38:38Z</time>
      </trkpt>
      <trkpt lat="48.04355" lon="7.07513">
        <ele>839.2</ele>
        <time>2023-08-12T10:38:39Z</time>
      </trkpt>
      <trkpt lat="48.04356" lon="7.0751">
        <ele>839.4</ele>
        <time>2023-08-12T10:38:40Z</time>
      </trkpt>
      <trkpt lat="48.04356" lon="7.07507">
        <ele>839.5</ele>
        <time>2023-08-12T10:38:41Z</time>
      </trkpt>
      <trkpt lat="48.04356" lon="7.07504">
        <ele>839.7</ele>
        <time>2023-08-12T10:38:42Z</time>
      </trkpt>
      <trkpt lat="48.04357" lon="7.075">
        <ele>839.8</ele>
        <time>2023-08-12T10:38:43Z</time>
      </trkpt>
      <trkpt lat="48.04355" lon="7.07497">
        <ele>840</ele>
        <time>2023-08-12T10:38:44Z</time>
      </trkpt>
      <trkpt lat="48.04356" lon="7.07493">
        <ele>840.1</ele>
        <time>2023-08-12T10:38:45Z</time>
      </trkpt>
      <trkpt lat="48.04356" lon="7.0749">
        <ele>840.3</ele>
        <time>2023-08-12T10:38:46Z</time>
      </trkpt>
      <trkpt lat="48.04356" lon="7.07486">
        <ele>840.5</ele>
        <time>2023-08-12T10:38:47Z</time>
      </trkpt>
      <trkpt lat="48.04356" lon="7.07483">
        <ele>840.6</ele>
        <time>2023-08-12T10:38:48Z</time>
      </trkpt>
      <trkpt lat="48.04355" lon="7.0748">
        <ele>840.7</ele>
        <time>2023-08-12T10:38:49Z</time>
      </trkpt>
      <trkpt lat="48.04355" lon="7.07477">
        <ele>840.8</ele>
        <time>2023-08-12T10:38:50Z</time>
      </trkpt>
      <trkpt lat="48.04354" lon="7.07475">
        <ele>840.9</ele>
        <time>2023-08-12T10:38:51Z</time>
      </trkpt>
      <trkpt lat="48.04354" lon="7.07472">
        <ele>841.1</ele>
        <time>2023-08-12T10:38:52Z</time>
      </trkpt>
      <trkpt lat="48.04354" lon="7.07469">
        <ele>841.2</ele>
        <time>2023-08-12T10:38:53Z</time>
      </trkpt>
      <trkpt lat="48.04354" lon="7.07465">
        <ele>841.3</ele>
        <time>2023-08-12T10:38:54Z</time>
      </trkpt>
      <trkpt lat="48.04354" lon="7.0746">
        <ele>841.5</ele>
        <time>2023-08-12T10:38:55Z</time>
      </trkpt>
      <trkpt lat="48.04355" lon="7.07457">
        <ele>841.6</ele>
        <time>2023-08-12T10:38:56Z</time>
      </trkpt>
      <trkpt lat="48.04356" lon="7.07454">
        <ele>841.8</ele>
        <time>2023-08-12T10:38:57Z</time>
      </trkpt>
      <trkpt lat="48.04358" lon="7.07453">
        <ele>841.9</ele>
        <time>2023-08-12T10:38:58Z</time>
      </trkpt>
      <trkpt lat="48.04358" lon="7.07449">
        <ele>842.1</ele>
        <time>2023-08-12T10:38:59Z</time>
      </trkpt>
      <trkpt lat="48.04356" lon="7.07445">
        <ele>842.2</ele>
        <time>2023-08-12T10:39:00Z</time>
      </trkpt>
      <trkpt lat="48.04355" lon="7.07441">
        <ele>842.4</ele>
        <time>2023-08-12T10:39:01Z</time>
      </trkpt>
      <trkpt lat="48.04354" lon="7.07436">
        <ele>842.6</ele>
        <time>2023-08-12T10:39:02Z</time>
      </trkpt>
      <trkpt lat="48.04354" lon="7.07432">
        <ele>842.7</ele>
        <time>2023-08-12T10:39:03Z</time>
      </trkpt>
      <trkpt lat="48.04355" lon="7.0743">
        <ele>842.9</ele>
        <time>2023-08-12T10:39:04Z</time>
      </trkpt>
      <trkpt lat="48.04356" lon="7.07428">
        <ele>843</ele>
        <time>2023-08-12T10:39:05Z</time>
      </trkpt>
      <trkpt lat="48.04357" lon="7.07425">
        <ele>843.1</ele>
        <time>2023-08-12T10:39:06Z</time>
      </trkpt>
      <trkpt lat="48.04358" lon="7.07422">
        <ele>843.3</ele>
        <time>2023-08-12T10:39:07Z</time>
      </trkpt>
      <trkpt lat="48.04359" lon="7.07419">
        <ele>843.4</ele>
        <time>2023-08-12T10:39:08Z</time>
      </trkpt>
      <trkpt lat="48.04359" lon="7.07416">
        <ele>843.6</ele>
        <time>2023-08-12T10:39:09Z</time>
      </trkpt>
      <trkpt lat="48.04359" lon="7.07412">
        <ele>843.7</ele>
        <time>2023-08-12T10:39:10Z</time>
      </trkpt>
      <trkpt lat="48.04359" lon="7.07409">
        <ele>843.9</ele>
        <time>2023-08-12T10:39:11Z</time>
      </trkpt>
      <trkpt lat="48.04358" lon="7.07406">
        <ele>844</ele>
        <time>2023-08-12T10:39:12Z</time>
      </trkpt>
      <trkpt lat="48.04359" lon="7.07404">
        <ele>844.1</ele>
        <time>2023-08-12T10:39:13Z</time>
      </trkpt>
      <trkpt lat="48.04359" lon="7.07401">
        <ele>844.3</ele>
        <time>2023-08-12T10:39:14Z</time>
      </trkpt>
      <trkpt lat="48.0436" lon="7.07399">
        <ele>844.4</ele>
        <time>2023-08-12T10:39:15Z</time>
      </trkpt>
      <trkpt lat="48.0436" lon="7.07396">
        <ele>844.5</ele>
        <time>2023-08-12T10:39:16Z</time>
      </trkpt>
      <trkpt lat="48.04361" lon="7.07393">
        <ele>844.7</ele>
        <time>2023-08-12T10:39:17Z</time>
      </trkpt>
      <trkpt lat="48.04361" lon="7.07391">
        <ele>844.8</ele>
        <time>2023-08-12T10:39:18Z</time>
      </trkpt>
      <trkpt lat="48.04362" lon="7.07388">
        <ele>845</ele>
        <time>2023-08-12T10:39:19Z</time>
      </trkpt>
      <trkpt lat="48.04362" lon="7.07384">
        <ele>845.1</ele>
        <time>2023-08-12T10:39:20Z</time>
      </trkpt>
      <trkpt lat="48.04362" lon="7.07381">
        <ele>845.3</ele>
        <time>2023-08-12T10:39:21Z</time>
      </trkpt>
      <trkpt lat="48.04361" lon="7.07378">
        <ele>845.4</ele>
        <time>2023-08-12T10:39:22Z</time>
      </trkpt>
      <trkpt lat="48.04361" lon="7.07375">
        <ele>845.6</ele>
        <time>2023-08-12T10:39:23Z</time>
      </trkpt>
      <trkpt lat="48.04361" lon="7.07371">
        <ele>845.7</ele>
        <time>2023-08-12T10:39:24Z</time>
      </trkpt>
      <trkpt lat="48.04361" lon="7.07368">
        <ele>845.9</ele>
        <time>2023-08-12T10:39:25Z</time>
      </trkpt>
      <trkpt lat="48.04362" lon="7.07366">
        <ele>846</ele>
        <time>2023-08-12T10:39:26Z</time>
      </trkpt>
      <trkpt lat="48.04362" lon="7.07363">
        <ele>846.1</ele>
        <time>2023-08-12T10:39:27Z</time>
      </trkpt>
      <trkpt lat="48.04363" lon="7.07361">
        <ele>846.2</ele>
        <time>2023-08-12T10:39:28Z</time>
      </trkpt>
      <trkpt lat="48.04363" lon="7.07358">
        <ele>846.3</ele>
        <time>2023-08-12T10:39:29Z</time>
      </trkpt>
      <trkpt lat="48.04364" lon="7.07355">
        <ele>846.4</ele>
        <time>2023-08-12T10:39:30Z</time>
      </trkpt>
      <trkpt lat="48.04365" lon="7.07353">
        <ele>846.5</ele>
        <time>2023-08-12T10:39:31Z</time>
      </trkpt>
      <trkpt lat="48.04366" lon="7.07349">
        <ele>846.7</ele>
        <time>2023-08-12T10:39:32Z</time>
      </trkpt>
      <trkpt lat="48.04367" lon="7.07346">
        <ele>846.8</ele>
        <time>2023-08-12T10:39:33Z</time>
      </trkpt>
      <trkpt lat="48.04367" lon="7.07342">
        <ele>846.9</ele>
        <time>2023-08-12T10:39:34Z</time>
      </trkpt>
      <trkpt lat="48.04367" lon="7.07338">
        <ele>847.1</ele>
        <time>2023-08-12T10:39:35Z</time>
      </trkpt>
      <trkpt lat="48.04368" lon="7.07335">
        <ele>847.2</ele>
        <time>2023-08-12T10:39:36Z</time>
      </trkpt>
      <trkpt lat="48.04367" lon="7.07331">
        <ele>847.3</ele>
        <time>2023-08-12T10:39:37Z</time>
      </trkpt>
      <trkpt lat="48.04367" lon="7.07327">
        <ele>847.5</ele>
        <time>2023-08-12T10:39:38Z</time>
      </trkpt>
      <trkpt lat="48.04368" lon="7.07324">
        <ele>847.6</ele>
        <time>2023-08-12T10:39:39Z</time>
      </trkpt>
      <trkpt lat="48.04368" lon="7.07321">
        <ele>847.7</ele>
        <time>2023-08-12T10:39:40Z</time>
      </trkpt>
      <trkpt lat="48.04369" lon="7.07318">
        <ele>847.8</ele>
        <time>2023-08-12T10:39:41Z</time>
      </trkpt>
      <trkpt lat="48.04369" lon="7.07315">
        <ele>847.9</ele>
        <time>2023-08-12T10:39:42Z</time>
      </trkpt>
      <trkpt lat="48.04369" lon="7.07313">
        <ele>848</ele>
        <time>2023-08-12T10:39:43Z</time>
      </trkpt>
      <trkpt lat="48.0437" lon="7.07309">
        <ele>848.1</ele>
        <time>2023-08-12T10:39:44Z</time>
      </trkpt>
      <trkpt lat="48.0437" lon="7.07306">
        <ele>848.2</ele>
        <time>2023-08-12T10:39:45Z</time>
      </trkpt>
      <trkpt lat="48.04372" lon="7.07304">
        <ele>848.4</ele>
        <time>2023-08-12T10:39:46Z</time>
      </trkpt>
      <trkpt lat="48.04373" lon="7.07301">
        <ele>848.5</ele>
        <time>2023-08-12T10:39:47Z</time>
      </trkpt>
      <trkpt lat="48.04374" lon="7.07298">
        <ele>848.6</ele>
        <time>2023-08-12T10:39:48Z</time>
      </trkpt>
      <trkpt lat="48.04375" lon="7.07295">
        <ele>848.7</ele>
        <time>2023-08-12T10:39:49Z</time>
      </trkpt>
      <trkpt lat="48.04377" lon="7.07292">
        <ele>848.8</ele>
        <time>2023-08-12T10:39:50Z</time>
      </trkpt>
      <trkpt lat="48.04378" lon="7.07289">
        <ele>848.9</ele>
        <time>2023-08-12T10:39:51Z</time>
      </trkpt>
      <trkpt lat="48.04379" lon="7.07286">
        <ele>849.1</ele>
        <time>2023-08-12T10:39:52Z</time>
      </trkpt>
      <trkpt lat="48.04381" lon="7.07283">
        <ele>849.2</ele>
        <time>2023-08-12T10:39:53Z</time>
      </trkpt>
      <trkpt lat="48.04381" lon="7.0728">
        <ele>849.3</ele>
        <time>2023-08-12T10:39:54Z</time>
      </trkpt>
      <trkpt lat="48.04381" lon="7.07276">
        <ele>849.4</ele>
        <time>2023-08-12T10:39:55Z</time>
      </trkpt>
      <trkpt lat="48.04379" lon="7.07273">
        <ele>849.5</ele>
        <time>2023-08-12T10:39:56Z</time>
      </trkpt>
      <trkpt lat="48.0438" lon="7.0727">
        <ele>849.7</ele>
        <time>2023-08-12T10:39:57Z</time>
      </trkpt>
      <trkpt lat="48.0438" lon="7.07266">
        <ele>849.8</ele>
        <time>2023-08-12T10:39:58Z</time>
      </trkpt>
      <trkpt lat="48.04381" lon="7.07263">
        <ele>849.9</ele>
        <time>2023-08-12T10:39:59Z</time>
      </trkpt>
      <trkpt lat="48.04382" lon="7.0726">
        <ele>850</ele>
        <time>2023-08-12T10:40:00Z</time>
      </trkpt>
      <trkpt lat="48.04383" lon="7.07258">
        <ele>850.1</ele>
        <time>2023-08-12T10:40:01Z</time>
      </trkpt>
      <trkpt lat="48.04384" lon="7.07255">
        <ele>850.2</ele>
        <time>2023-08-12T10:40:02Z</time>
      </trkpt>
      <trkpt lat="48.04384" lon="7.07252">
        <ele>850.3</ele>
        <time>2023-08-12T10:40:03Z</time>
      </trkpt>
      <trkpt lat="48.04386" lon="7.07249">
        <ele>850.4</ele>
        <time>2023-08-12T10:40:04Z</time>
      </trkpt>
      <trkpt lat="48.04387" lon="7.07246">
        <ele>850.5</ele>
        <time>2023-08-12T10:40:05Z</time>
      </trkpt>
      <trkpt lat="48.04388" lon="7.07243">
        <ele>850.7</ele>
        <time>2023-08-12T10:40:06Z</time>
      </trkpt>
      <trkpt lat="48.04389" lon="7.0724">
        <ele>850.8</ele>
        <time>2023-08-12T10:40:07Z</time>
      </trkpt>
      <trkpt lat="48.0439" lon="7.07237">
        <ele>850.9</ele>
        <time>2023-08-12T10:40:08Z</time>
      </trkpt>
      <trkpt lat="48.04391" lon="7.07234">
        <ele>851.1</ele>
        <time>2023-08-12T10:40:09Z</time>
      </trkpt>
      <trkpt lat="48.04392" lon="7.07231">
        <ele>851.2</ele>
        <time>2023-08-12T10:40:10Z</time>
      </trkpt>
      <trkpt lat="48.04393" lon="7.07228">
        <ele>851.4</ele>
        <time>2023-08-12T10:40:11Z</time>
      </trkpt>
      <trkpt lat="48.04393" lon="7.07224">
        <ele>851.5</ele>
        <time>2023-08-12T10:40:12Z</time>
      </trkpt>
      <trkpt lat="48.04394" lon="7.07222">
        <ele>851.6</ele>
        <time>2023-08-12T10:40:13Z</time>
      </trkpt>
      <trkpt lat="48.04395" lon="7.07219">
        <ele>851.8</ele>
        <time>2023-08-12T10:40:14Z</time>
      </trkpt>
      <trkpt lat="48.04396" lon="7.07216">
        <ele>851.9</ele>
        <time>2023-08-12T10:40:15Z</time>
      </trkpt>
      <trkpt lat="48.04397" lon="7.07213">
        <ele>852.1</ele>
        <time>2023-08-12T10:40:16Z</time>
      </trkpt>
      <trkpt lat="48.04398" lon="7.0721">
        <ele>852.2</ele>
        <time>2023-08-12T10:40:17Z</time>
      </trkpt>
      <trkpt lat="48.044" lon="7.07207">
        <ele>852.4</ele>
        <time>2023-08-12T10:40:18Z</time>
      </trkpt>
      <trkpt lat="48.04401" lon="7.07203">
        <ele>852.6</ele>
        <time>2023-08-12T10:40:19Z</time>
      </trkpt>
      <trkpt lat="48.04403" lon="7.072">
        <ele>852.7</ele>
        <time>2023-08-12T10:40:20Z</time>
      </trkpt>
      <trkpt lat="48.04404" lon="7.07197">
        <ele>852.9</ele>
        <time>2023-08-12T10:40:21Z</time>
      </trkpt>
      <trkpt lat="48.04406" lon="7.07194">
        <ele>853.1</ele>
        <time>2023-08-12T10:40:22Z</time>
      </trkpt>
      <trkpt lat="48.04407" lon="7.07192">
        <ele>853.2</ele>
        <time>2023-08-12T10:40:23Z</time>
      </trkpt>
      <trkpt lat="48.04408" lon="7.07189">
        <ele>853.3</ele>
        <time>2023-08-12T10:40:24Z</time>
      </trkpt>
      <trkpt lat="48.04409" lon="7.07187">
        <ele>853.4</ele>
        <time>2023-08-12T10:40:25Z</time>
      </trkpt>
      <trkpt lat="48.0441" lon="7.07184">
        <ele>853.5</ele>
        <time>2023-08-12T10:40:26Z</time>
      </trkpt>
      <trkpt lat="48.04411" lon="7.07182">
        <ele>853.7</ele>
        <time>2023-08-12T10:40:27Z</time>
      </trkpt>
      <trkpt lat="48.04412" lon="7.0718">
        <ele>853.8</ele>
        <time>2023-08-12T10:40:28Z</time>
      </trkpt>
      <trkpt lat="48.04413" lon="7.07177">
        <ele>853.9</ele>
        <time>2023-08-12T10:40:29Z</time>
      </trkpt>
      <trkpt lat="48.04415" lon="7.07175">
        <ele>854</ele>
        <time>2023-08-12T10:40:30Z</time>
      </trkpt>
      <trkpt lat="48.04417" lon="7.07173">
        <ele>854.2</ele>
        <time>2023-08-12T10:40:31Z</time>
      </trkpt>
      <trkpt lat="48.04418" lon="7.0717">
        <ele>854.3</ele>
        <time>2023-08-12T10:40:32Z</time>
      </trkpt>
      <trkpt lat="48.0442" lon="7.07168">
        <ele>854.4</ele>
        <time>2023-08-12T10:40:33Z</time>
      </trkpt>
      <trkpt lat="48.04422" lon="7.07165">
        <ele>854.6</ele>
        <time>2023-08-12T10:40:34Z</time>
      </trkpt>
      <trkpt lat="48.04424" lon="7.07163">
        <ele>854.7</ele>
        <time>2023-08-12T10:40:35Z</time>
      </trkpt>
      <trkpt lat="48.04426" lon="7.07161">
        <ele>854.8</ele>
        <time>2023-08-12T10:40:36Z</time>
      </trkpt>
      <trkpt lat="48.04428" lon="7.07158">
        <ele>855</ele>
        <time>2023-08-12T10:40:37Z</time>
      </trkpt>
      <trkpt lat="48.04429" lon="7.07156">
        <ele>855.1</ele>
        <time>2023-08-12T10:40:38Z</time>
      </trkpt>
      <trkpt lat="48.04431" lon="7.07154">
        <ele>855.2</ele>
        <time>2023-08-12T10:40:39Z</time>
      </trkpt>
      <trkpt lat="48.04433" lon="7.07152">
        <ele>855.3</ele>
        <time>2023-08-12T10:40:40Z</time>
      </trkpt>
      <trkpt lat="48.04434" lon="7.0715">
        <ele>855.5</ele>
        <time>2023-08-12T10:40:41Z</time>
      </trkpt>
      <trkpt lat="48.04436" lon="7.07148">
        <ele>855.6</ele>
        <time>2023-08-12T10:40:42Z</time>
      </trkpt>
      <trkpt lat="48.04438" lon="7.07146">
        <ele>855.7</ele>
        <time>2023-08-12T10:40:43Z</time>
      </trkpt>
      <trkpt lat="48.04439" lon="7.07144">
        <ele>855.8</ele>
        <time>2023-08-12T10:40:44Z</time>
      </trkpt>
      <trkpt lat="48.04441" lon="7.07143">
        <ele>855.9</ele>
        <time>2023-08-12T10:40:45Z</time>
      </trkpt>
      <trkpt lat="48.04443" lon="7.07141">
        <ele>856</ele>
        <time>2023-08-12T10:40:46Z</time>
      </trkpt>
      <trkpt lat="48.04445" lon="7.07139">
        <ele>856.2</ele>
        <time>2023-08-12T10:40:47Z</time>
      </trkpt>
      <trkpt lat="48.04446" lon="7.07137">
        <ele>856.3</ele>
        <time>2023-08-12T10:40:48Z</time>
      </trkpt>
      <trkpt lat="48.04448" lon="7.07135">
        <ele>856.4</ele>
        <time>2023-08-12T10:40:49Z</time>
      </trkpt>
      <trkpt lat="48.0445" lon="7.07133">
        <ele>856.5</ele>
        <time>2023-08-12T10:40:50Z</time>
      </trkpt>
      <trkpt lat="48.04451" lon="7.07131">
        <ele>856.6</ele>
        <time>2023-08-12T10:40:51Z</time>
      </trkpt>
      <trkpt lat="48.04453" lon="7.07129">
        <ele>856.7</ele>
        <time>2023-08-12T10:40:52Z</time>
      </trkpt>
      <trkpt lat="48.04454" lon="7.07127">
        <ele>856.8</ele>
        <time>2023-08-12T10:40:53Z</time>
      </trkpt>
      <trkpt lat="48.04456" lon="7.07125">
        <ele>856.9</ele>
        <time>2023-08-12T10:40:54Z</time>
      </trkpt>
      <trkpt lat="48.04457" lon="7.07123">
        <ele>857.1</ele>
        <time>2023-08-12T10:40:55Z</time>
      </trkpt>
      <trkpt lat="48.04459" lon="7.07121">
        <ele>857.2</ele>
        <time>2023-08-12T10:40:56Z</time>
      </trkpt>
      <trkpt lat="48.0446" lon="7.07119">
        <ele>857.3</ele>
        <time>2023-08-12T10:40:57Z</time>
      </trkpt>
      <trkpt lat="48.04462" lon="7.07117">
        <ele>857.4</ele>
        <time>2023-08-12T10:40:58Z</time>
      </trkpt>
      <trkpt lat="48.04464" lon="7.07116">
        <ele>857.6</ele>
        <time>2023-08-12T10:40:59Z</time>
      </trkpt>
      <trkpt lat="48.04465" lon="7.07114">
        <ele>857.7</ele>
        <time>2023-08-12T10:41:00Z</time>
      </trkpt>
      <trkpt lat="48.04467" lon="7.07113">
        <ele>857.8</ele>
        <time>2023-08-12T10:41:01Z</time>
      </trkpt>
      <trkpt lat="48.04468" lon="7.0711">
        <ele>858</ele>
        <time>2023-08-12T10:41:02Z</time>
      </trkpt>
      <trkpt lat="48.0447" lon="7.07108">
        <ele>858.1</ele>
        <time>2023-08-12T10:41:03Z</time>
      </trkpt>
      <trkpt lat="48.04471" lon="7.07106">
        <ele>858.3</ele>
        <time>2023-08-12T10:41:04Z</time>
      </trkpt>
      <trkpt lat="48.04473" lon="7.07103">
        <ele>858.5</ele>
        <time>2023-08-12T10:41:05Z</time>
      </trkpt>
      <trkpt lat="48.04475" lon="7.07101">
        <ele>858.7</ele>
        <time>2023-08-12T10:41:06Z</time>
      </trkpt>
      <trkpt lat="48.04476" lon="7.07099">
        <ele>858.8</ele>
        <time>2023-08-12T10:41:07Z</time>
      </trkpt>
      <trkpt lat="48.04478" lon="7.07096">
        <ele>859</ele>
        <time>2023-08-12T10:41:08Z</time>
      </trkpt>
      <trkpt lat="48.0448" lon="7.07095">
        <ele>859.2</ele>
        <time>2023-08-12T10:41:09Z</time>
      </trkpt>
      <trkpt lat="48.04482" lon="7.07093">
        <ele>859.4</ele>
        <time>2023-08-12T10:41:10Z</time>
      </trkpt>
      <trkpt lat="48.04484" lon="7.07091">
        <ele>859.6</ele>
        <time>2023-08-12T10:41:11Z</time>
      </trkpt>
      <trkpt lat="48.04486" lon="7.0709">
        <ele>859.8</ele>
        <time>2023-08-12T10:41:12Z</time>
      </trkpt>
      <trkpt lat="48.04488" lon="7.07088">
        <ele>859.9</ele>
        <time>2023-08-12T10:41:13Z</time>
      </trkpt>
      <trkpt lat="48.04489" lon="7.07086">
        <ele>860.1</ele>
        <time>2023-08-12T10:41:14Z</time>
      </trkpt>
      <trkpt lat="48.04491" lon="7.07084">
        <ele>860.3</ele>
        <time>2023-08-12T10:41:15Z</time>
      </trkpt>
      <trkpt lat="48.04493" lon="7.07082">
        <ele>860.5</ele>
        <time>2023-08-12T10:41:16Z</time>
      </trkpt>
      <trkpt lat="48.04495" lon="7.07081">
        <ele>860.7</ele>
        <time>2023-08-12T10:41:17Z</time>
      </trkpt>
      <trkpt lat="48.04496" lon="7.07079">
        <ele>860.8</ele>
        <time>2023-08-12T10:41:18Z</time>
      </trkpt>
      <trkpt lat="48.04497" lon="7.07076">
        <ele>861</ele>
        <time>2023-08-12T10:41:19Z</time>
      </trkpt>
      <trkpt lat="48.04499" lon="7.07074">
        <ele>861.2</ele>
        <time>2023-08-12T10:41:20Z</time>
      </trkpt>
      <trkpt lat="48.045" lon="7.07072">
        <ele>861.3</ele>
        <time>2023-08-12T10:41:21Z</time>
      </trkpt>
      <trkpt lat="48.04501" lon="7.0707">
        <ele>861.5</ele>
        <time>2023-08-12T10:41:22Z</time>
      </trkpt>
      <trkpt lat="48.04502" lon="7.07069">
        <ele>861.6</ele>
        <time>2023-08-12T10:41:23Z</time>
      </trkpt>
      <trkpt lat="48.04503" lon="7.07067">
        <ele>861.8</ele>
        <time>2023-08-12T10:41:24Z</time>
      </trkpt>
      <trkpt lat="48.04505" lon="7.07065">
        <ele>862</ele>
        <time>2023-08-12T10:41:25Z</time>
      </trkpt>
      <trkpt lat="48.04506" lon="7.07063">
        <ele>862.1</ele>
        <time>2023-08-12T10:41:26Z</time>
      </trkpt>
      <trkpt lat="48.04508" lon="7.07062">
        <ele>862.3</ele>
        <time>2023-08-12T10:41:27Z</time>
      </trkpt>
      <trkpt lat="48.04509" lon="7.0706">
        <ele>862.5</ele>
        <time>2023-08-12T10:41:28Z</time>
      </trkpt>
      <trkpt lat="48.04511" lon="7.07058">
        <ele>862.7</ele>
        <time>2023-08-12T10:41:29Z</time>
      </trkpt>
      <trkpt lat="48.04512" lon="7.07056">
        <ele>862.9</ele>
        <time>2023-08-12T10:41:30Z</time>
      </trkpt>
      <trkpt lat="48.04514" lon="7.07055">
        <ele>863.1</ele>
        <time>2023-08-12T10:41:31Z</time>
      </trkpt>
      <trkpt lat="48.04516" lon="7.07053">
        <ele>863.3</ele>
        <time>2023-08-12T10:41:32Z</time>
      </trkpt>
      <trkpt lat="48.04517" lon="7.07051">
        <ele>863.5</ele>
        <time>2023-08-12T10:41:33Z</time>
      </trkpt>
      <trkpt lat="48.04519" lon="7.07049">
        <ele>863.7</ele>
        <time>2023-08-12T10:41:34Z</time>
      </trkpt>
      <trkpt lat="48.04521" lon="7.07047">
        <ele>864</ele>
        <time>2023-08-12T10:41:35Z</time>
      </trkpt>
      <trkpt lat="48.04523" lon="7.07045">
        <ele>864.2</ele>
        <time>2023-08-12T10:41:36Z</time>
      </trkpt>
      <trkpt lat="48.04524" lon="7.07043">
        <ele>864.4</ele>
        <time>2023-08-12T10:41:37Z</time>
      </trkpt>
      <trkpt lat="48.04526" lon="7.07042">
        <ele>864.6</ele>
        <time>2023-08-12T10:41:38Z</time>
      </trkpt>
      <trkpt lat="48.04528" lon="7.0704">
        <ele>864.7</ele>
        <time>2023-08-12T10:41:39Z</time>
      </trkpt>
      <trkpt lat="48.04529" lon="7.07039">
        <ele>864.9</ele>
        <time>2023-08-12T10:41:40Z</time>
      </trkpt>
      <trkpt lat="48.04531" lon="7.07037">
        <ele>865.1</ele>
        <time>2023-08-12T10:41:41Z</time>
      </trkpt>
      <trkpt lat="48.04532" lon="7.07035">
        <ele>865.2</ele>
        <time>2023-08-12T10:41:42Z</time>
      </trkpt>
      <trkpt lat="48.04533" lon="7.07033">
        <ele>865.3</ele>
        <time>2023-08-12T10:41:43Z</time>
      </trkpt>
      <trkpt lat="48.04535" lon="7.07032">
        <ele>865.5</ele>
        <time>2023-08-12T10:41:44Z</time>
      </trkpt>
      <trkpt lat="48.04536" lon="7.07031">
        <ele>865.6</ele>
        <time>2023-08-12T10:41:45Z</time>
      </trkpt>
      <trkpt lat="48.04538" lon="7.07029">
        <ele>865.8</ele>
        <time>2023-08-12T10:41:46Z</time>
      </trkpt>
      <trkpt lat="48.04539" lon="7.07027">
        <ele>866</ele>
        <time>2023-08-12T10:41:47Z</time>
      </trkpt>
      <trkpt lat="48.04541" lon="7.07025">
        <ele>866.1</ele>
        <time>2023-08-12T10:41:48Z</time>
      </trkpt>
      <trkpt lat="48.04543" lon="7.07023">
        <ele>866.3</ele>
        <time>2023-08-12T10:41:49Z</time>
      </trkpt>
      <trkpt lat="48.04544" lon="7.07021">
        <ele>866.4</ele>
        <time>2023-08-12T10:41:50Z</time>
      </trkpt>
      <trkpt lat="48.04545" lon="7.07019">
        <ele>866.6</ele>
        <time>2023-08-12T10:41:51Z</time>
      </trkpt>
      <trkpt lat="48.04547" lon="7.07016">
        <ele>866.8</ele>
        <time>2023-08-12T10:41:52Z</time>
      </trkpt>
      <trkpt lat="48.04548" lon="7.07014">
        <ele>866.9</ele>
        <time>2023-08-12T10:41:53Z</time>
      </trkpt>
      <trkpt lat="48.04549" lon="7.07011">
        <ele>867.1</ele>
        <time>2023-08-12T10:41:54Z</time>
      </trkpt>
      <trkpt lat="48.04551" lon="7.07013">
        <ele>867.2</ele>
        <time>2023-08-12T10:41:55Z</time>
      </trkpt>
      <trkpt lat="48.04552" lon="7.07012">
        <ele>867.4</ele>
        <time>2023-08-12T10:41:56Z</time>
      </trkpt>
      <trkpt lat="48.04553" lon="7.07011">
        <ele>867.5</ele>
        <time>2023-08-12T10:41:57Z</time>
      </trkpt>
      <trkpt lat="48.04554" lon="7.0701">
        <ele>867.6</ele>
        <time>2023-08-12T10:41:58Z</time>
      </trkpt>
      <trkpt lat="48.04555" lon="7.07008">
        <ele>867.7</ele>
        <time>2023-08-12T10:41:59Z</time>
      </trkpt>
      <trkpt lat="48.04555" lon="7.07007">
        <ele>867.8</ele>
        <time>2023-08-12T10:42:00Z</time>
      </trkpt>
      <trkpt lat="48.04556" lon="7.07004">
        <ele>867.9</ele>
        <time>2023-08-12T10:42:02Z</time>
      </trkpt>
      <trkpt lat="48.04556" lon="7.07004">
        <ele>867.9</ele>
        <time>2023-08-12T10:42:06Z</time>
      </trkpt>
      <trkpt lat="48.04556" lon="7.07004">
        <ele>868</ele>
        <time>2023-08-12T10:42:10Z</time>
      </trkpt>
      <trkpt lat="48.04557" lon="7.07003">
        <ele>868.1</ele>
        <time>2023-08-12T10:42:25Z</time>
      </trkpt>
      <trkpt lat="48.04558" lon="7.07003">
        <ele>868.1</ele>
        <time>2023-08-12T10:42:28Z</time>
      </trkpt>
      <trkpt lat="48.0456" lon="7.07004">
        <ele>868.3</ele>
        <time>2023-08-12T10:42:34Z</time>
      </trkpt>
      <trkpt lat="48.0456" lon="7.07004">
        <ele>868.3</ele>
        <time>2023-08-12T10:42:35Z</time>
      </trkpt>
      <trkpt lat="48.0456" lon="7.07004">
        <ele>868.3</ele>
        <time>2023-08-12T10:42:36Z</time>
      </trkpt>
      <trkpt lat="48.0456" lon="7.07004">
        <ele>868.3</ele>
        <time>2023-08-12T10:42:43Z</time>
      </trkpt>
      <trkpt lat="48.0456" lon="7.07004">
        <ele>868.3</ele>
        <time>2023-08-12T10:42:46Z</time>
      </trkpt>
      <trkpt lat="48.0456" lon="7.07004">
        <ele>868.3</ele>
        <time>2023-08-12T10:42:50Z</time>
      </trkpt>
      <trkpt lat="48.04556" lon="7.07002">
        <ele>868.7</ele>
        <time>2023-08-12T10:43:33Z</time>
      </trkpt>
      <trkpt lat="48.04563" lon="7.07004">
        <ele>868.7</ele>
        <time>2023-08-12T10:43:36Z</time>
      </trkpt>
      <trkpt lat="48.04566" lon="7.07008">
        <ele>868.3</ele>
        <time>2023-08-12T10:43:37Z</time>
      </trkpt>
      <trkpt lat="48.04572" lon="7.0702">
        <ele>867.2</ele>
        <time>2023-08-12T10:43:39Z</time>
      </trkpt>
      <trkpt lat="48.04577" lon="7.07025">
        <ele>866.4</ele>
        <time>2023-08-12T10:43:40Z</time>
      </trkpt>
      <trkpt lat="48.04582" lon="7.07028">
        <ele>865.8</ele>
        <time>2023-08-12T10:43:41Z</time>
      </trkpt>
      <trkpt lat="48.0459" lon="7.07032">
        <ele>864.9</ele>
        <time>2023-08-12T10:43:42Z</time>
      </trkpt>
      <trkpt lat="48.04595" lon="7.07035">
        <ele>864.3</ele>
        <time>2023-08-12T10:43:43Z</time>
      </trkpt>
      <trkpt lat="48.04601" lon="7.07038">
        <ele>863.5</ele>
        <time>2023-08-12T10:43:44Z</time>
      </trkpt>
      <trkpt lat="48.04605" lon="7.07042">
        <ele>862.7</ele>
        <time>2023-08-12T10:43:45Z</time>
      </trkpt>
      <trkpt lat="48.0461" lon="7.07049">
        <ele>861.7</ele>
        <time>2023-08-12T10:43:46Z</time>
      </trkpt>
      <trkpt lat="48.04614" lon="7.07056">
        <ele>860.7</ele>
        <time>2023-08-12T10:43:47Z</time>
      </trkpt>
      <trkpt lat="48.04619" lon="7.07059">
        <ele>859.8</ele>
        <time>2023-08-12T10:43:48Z</time>
      </trkpt>
      <trkpt lat="48.04624" lon="7.07062">
        <ele>858.8</ele>
        <time>2023-08-12T10:43:49Z</time>
      </trkpt>
      <trkpt lat="48.0463" lon="7.07066">
        <ele>857.8</ele>
        <time>2023-08-12T10:43:50Z</time>
      </trkpt>
      <trkpt lat="48.04635" lon="7.07072">
        <ele>856.7</ele>
        <time>2023-08-12T10:43:51Z</time>
      </trkpt>
      <trkpt lat="48.04641" lon="7.07078">
        <ele>855.6</ele>
        <time>2023-08-12T10:43:52Z</time>
      </trkpt>
      <trkpt lat="48.04645" lon="7.07088">
        <ele>854.4</ele>
        <time>2023-08-12T10:43:53Z</time>
      </trkpt>
      <trkpt lat="48.04648" lon="7.07097">
        <ele>853.5</ele>
        <time>2023-08-12T10:43:54Z</time>
      </trkpt>
      <trkpt lat="48.04651" lon="7.07109">
        <ele>852.4</ele>
        <time>2023-08-12T10:43:55Z</time>
      </trkpt>
      <trkpt lat="48.04655" lon="7.07121">
        <ele>851.3</ele>
        <time>2023-08-12T10:43:56Z</time>
      </trkpt>
      <trkpt lat="48.04658" lon="7.07127">
        <ele>850.4</ele>
        <time>2023-08-12T10:43:57Z</time>
      </trkpt>
      <trkpt lat="48.04661" lon="7.07135">
        <ele>849.5</ele>
        <time>2023-08-12T10:43:58Z</time>
      </trkpt>
      <trkpt lat="48.04664" lon="7.07144">
        <ele>848.4</ele>
        <time>2023-08-12T10:43:59Z</time>
      </trkpt>
      <trkpt lat="48.04666" lon="7.0715">
        <ele>847.5</ele>
        <time>2023-08-12T10:44:00Z</time>
      </trkpt>
      <trkpt lat="48.04671" lon="7.07155">
        <ele>846.3</ele>
        <time>2023-08-12T10:44:01Z</time>
      </trkpt>
      <trkpt lat="48.04676" lon="7.07157">
        <ele>845.2</ele>
        <time>2023-08-12T10:44:02Z</time>
      </trkpt>
      <trkpt lat="48.0468" lon="7.07157">
        <ele>844.4</ele>
        <time>2023-08-12T10:44:03Z</time>
      </trkpt>
      <trkpt lat="48.04685" lon="7.07156">
        <ele>843.4</ele>
        <time>2023-08-12T10:44:04Z</time>
      </trkpt>
      <trkpt lat="48.04689" lon="7.07159">
        <ele>842.3</ele>
        <time>2023-08-12T10:44:05Z</time>
      </trkpt>
      <trkpt lat="48.04692" lon="7.07162">
        <ele>841.6</ele>
        <time>2023-08-12T10:44:06Z</time>
      </trkpt>
      <trkpt lat="48.04693" lon="7.0717">
        <ele>840.5</ele>
        <time>2023-08-12T10:44:07Z</time>
      </trkpt>
      <trkpt lat="48.04695" lon="7.07177">
        <ele>839.7</ele>
        <time>2023-08-12T10:44:08Z</time>
      </trkpt>
      <trkpt lat="48.04698" lon="7.07182">
        <ele>838.9</ele>
        <time>2023-08-12T10:44:09Z</time>
      </trkpt>
      <trkpt lat="48.04704" lon="7.0719">
        <ele>837.4</ele>
        <time>2023-08-12T10:44:11Z</time>
      </trkpt>
      <trkpt lat="48.04707" lon="7.07194">
        <ele>836.6</ele>
        <time>2023-08-12T10:44:12Z</time>
      </trkpt>
      <trkpt lat="48.04708" lon="7.07201">
        <ele>835.6</ele>
        <time>2023-08-12T10:44:13Z</time>
      </trkpt>
      <trkpt lat="48.04711" lon="7.07209">
        <ele>834</ele>
        <time>2023-08-12T10:44:14Z</time>
      </trkpt>
      <trkpt lat="48.04714" lon="7.07214">
        <ele>832.8</ele>
        <time>2023-08-12T10:44:15Z</time>
      </trkpt>
      <trkpt lat="48.04718" lon="7.07218">
        <ele>831.9</ele>
        <time>2023-08-12T10:44:16Z</time>
      </trkpt>
      <trkpt lat="48.04723" lon="7.07222">
        <ele>830.6</ele>
        <time>2023-08-12T10:44:17Z</time>
      </trkpt>
      <trkpt lat="48.04728" lon="7.07226">
        <ele>829.5</ele>
        <time>2023-08-12T10:44:18Z</time>
      </trkpt>
      <trkpt lat="48.04734" lon="7.07231">
        <ele>827.9</ele>
        <time>2023-08-12T10:44:19Z</time>
      </trkpt>
      <trkpt lat="48.04741" lon="7.07233">
        <ele>826.5</ele>
        <time>2023-08-12T10:44:20Z</time>
      </trkpt>
      <trkpt lat="48.04746" lon="7.07234">
        <ele>825.4</ele>
        <time>2023-08-12T10:44:21Z</time>
      </trkpt>
      <trkpt lat="48.04752" lon="7.07235">
        <ele>824.2</ele>
        <time>2023-08-12T10:44:22Z</time>
      </trkpt>
      <trkpt lat="48.04758" lon="7.07237">
        <ele>822.9</ele>
        <time>2023-08-12T10:44:23Z</time>
      </trkpt>
      <trkpt lat="48.04762" lon="7.07242">
        <ele>821.7</ele>
        <time>2023-08-12T10:44:24Z</time>
      </trkpt>
      <trkpt lat="48.04766" lon="7.0725">
        <ele>820.3</ele>
        <time>2023-08-12T10:44:25Z</time>
      </trkpt>
      <trkpt lat="48.04768" lon="7.07257">
        <ele>819.1</ele>
        <time>2023-08-12T10:44:26Z</time>
      </trkpt>
      <trkpt lat="48.04768" lon="7.07266">
        <ele>817.7</ele>
        <time>2023-08-12T10:44:27Z</time>
      </trkpt>
      <trkpt lat="48.0477" lon="7.07274">
        <ele>816.4</ele>
        <time>2023-08-12T10:44:28Z</time>
      </trkpt>
      <trkpt lat="48.04771" lon="7.07282">
        <ele>815</ele>
        <time>2023-08-12T10:44:29Z</time>
      </trkpt>
      <trkpt lat="48.04773" lon="7.07288">
        <ele>813.9</ele>
        <time>2023-08-12T10:44:30Z</time>
      </trkpt>
      <trkpt lat="48.04773" lon="7.07295">
        <ele>812.7</ele>
        <time>2023-08-12T10:44:31Z</time>
      </trkpt>
      <trkpt lat="48.04773" lon="7.07302">
        <ele>811.6</ele>
        <time>2023-08-12T10:44:32Z</time>
      </trkpt>
      <trkpt lat="48.04774" lon="7.07309">
        <ele>810.3</ele>
        <time>2023-08-12T10:44:33Z</time>
      </trkpt>
      <trkpt lat="48.04778" lon="7.07313">
        <ele>809.2</ele>
        <time>2023-08-12T10:44:34Z</time>
      </trkpt>
      <trkpt lat="48.04784" lon="7.07317">
        <ele>807.6</ele>
        <time>2023-08-12T10:44:35Z</time>
      </trkpt>
      <trkpt lat="48.04792" lon="7.07323">
        <ele>805.5</ele>
        <time>2023-08-12T10:44:36Z</time>
      </trkpt>
      <trkpt lat="48.04801" lon="7.07329">
        <ele>802.9</ele>
        <time>2023-08-12T10:44:37Z</time>
      </trkpt>
      <trkpt lat="48.04808" lon="7.07333">
        <ele>801.2</ele>
        <time>2023-08-12T10:44:38Z</time>
      </trkpt>
      <trkpt lat="48.04811" lon="7.07337">
        <ele>800.1</ele>
        <time>2023-08-12T10:44:39Z</time>
      </trkpt>
      <trkpt lat="48.04812" lon="7.07342">
        <ele>799.3</ele>
        <time>2023-08-12T10:44:40Z</time>
      </trkpt>
      <trkpt lat="48.04816" lon="7.0735">
        <ele>797.6</ele>
        <time>2023-08-12T10:44:41Z</time>
      </trkpt>
      <trkpt lat="48.04823" lon="7.07359">
        <ele>795.3</ele>
        <time>2023-08-12T10:44:42Z</time>
      </trkpt>
      <trkpt lat="48.04829" lon="7.07365">
        <ele>794</ele>
        <time>2023-08-12T10:44:43Z</time>
      </trkpt>
      <trkpt lat="48.04835" lon="7.07371">
        <ele>792.3</ele>
        <time>2023-08-12T10:44:44Z</time>
      </trkpt>
      <trkpt lat="48.04842" lon="7.07379">
        <ele>790.2</ele>
        <time>2023-08-12T10:44:45Z</time>
      </trkpt>
      <trkpt lat="48.04849" lon="7.07385">
        <ele>788.4</ele>
        <time>2023-08-12T10:44:46Z</time>
      </trkpt>
      <trkpt lat="48.04853" lon="7.07389">
        <ele>787.2</ele>
        <time>2023-08-12T10:44:47Z</time>
      </trkpt>
      <trkpt lat="48.04857" lon="7.07396">
        <ele>785.8</ele>
        <time>2023-08-12T10:44:48Z</time>
      </trkpt>
      <trkpt lat="48.04859" lon="7.07402">
        <ele>784.7</ele>
        <time>2023-08-12T10:44:49Z</time>
      </trkpt>
      <trkpt lat="48.04864" lon="7.07409">
        <ele>783.2</ele>
        <time>2023-08-12T10:44:50Z</time>
      </trkpt>
      <trkpt lat="48.04869" lon="7.07416">
        <ele>781.6</ele>
        <time>2023-08-12T10:44:51Z</time>
      </trkpt>
      <trkpt lat="48.04874" lon="7.07425">
        <ele>779.8</ele>
        <time>2023-08-12T10:44:52Z</time>
      </trkpt>
      <trkpt lat="48.04879" lon="7.07433">
        <ele>778.1</ele>
        <time>2023-08-12T10:44:53Z</time>
      </trkpt>
      <trkpt lat="48.04882" lon="7.07441">
        <ele>776.7</ele>
        <time>2023-08-12T10:44:54Z</time>
      </trkpt>
      <trkpt lat="48.04883" lon="7.07451">
        <ele>775.2</ele>
        <time>2023-08-12T10:44:55Z</time>
      </trkpt>
      <trkpt lat="48.04881" lon="7.07458">
        <ele>774</ele>
        <time>2023-08-12T10:44:56Z</time>
      </trkpt>
      <trkpt lat="48.0488" lon="7.07464">
        <ele>772.9</ele>
        <time>2023-08-12T10:44:57Z</time>
      </trkpt>
      <trkpt lat="48.0488" lon="7.0747">
        <ele>771.9</ele>
        <time>2023-08-12T10:44:58Z</time>
      </trkpt>
      <trkpt lat="48.0488" lon="7.07478">
        <ele>770.7</ele>
        <time>2023-08-12T10:44:59Z</time>
      </trkpt>
      <trkpt lat="48.0488" lon="7.07485">
        <ele>769.5</ele>
        <time>2023-08-12T10:45:00Z</time>
      </trkpt>
      <trkpt lat="48.04879" lon="7.0749">
        <ele>768.6</ele>
        <time>2023-08-12T10:45:01Z</time>
      </trkpt>
      <trkpt lat="48.04878" lon="7.07495">
        <ele>767.7</ele>
        <time>2023-08-12T10:45:02Z</time>
      </trkpt>
      <trkpt lat="48.04876" lon="7.07498">
        <ele>766.9</ele>
        <time>2023-08-12T10:45:03Z</time>
      </trkpt>
      <trkpt lat="48.04873" lon="7.07504">
        <ele>765.7</ele>
        <time>2023-08-12T10:45:04Z</time>
      </trkpt>
      <trkpt lat="48.04869" lon="7.07508">
        <ele>764.6</ele>
        <time>2023-08-12T10:45:05Z</time>
      </trkpt>
      <trkpt lat="48.04866" lon="7.07511">
        <ele>763.6</ele>
        <time>2023-08-12T10:45:06Z</time>
      </trkpt>
      <trkpt lat="48.04864" lon="7.07513">
        <ele>762.9</ele>
        <time>2023-08-12T10:45:07Z</time>
      </trkpt>
      <trkpt lat="48.04862" lon="7.07515">
        <ele>762.2</ele>
        <time>2023-08-12T10:45:08Z</time>
      </trkpt>
      <trkpt lat="48.04861" lon="7.0752">
        <ele>761.3</ele>
        <time>2023-08-12T10:45:09Z</time>
      </trkpt>
      <trkpt lat="48.04861" lon="7.07527">
        <ele>759.9</ele>
        <time>2023-08-12T10:45:10Z</time>
      </trkpt>
      <trkpt lat="48.04859" lon="7.0754">
        <ele>757.4</ele>
        <time>2023-08-12T10:45:12Z</time>
      </trkpt>
      <trkpt lat="48.04857" lon="7.07549">
        <ele>755.6</ele>
        <time>2023-08-12T10:45:13Z</time>
      </trkpt>
      <trkpt lat="48.04855" lon="7.07558">
        <ele>753.7</ele>
        <time>2023-08-12T10:45:14Z</time>
      </trkpt>
      <trkpt lat="48.04852" lon="7.07569">
        <ele>753.6</ele>
        <time>2023-08-12T10:45:15Z</time>
      </trkpt>
      <trkpt lat="48.0485" lon="7.07577">
        <ele>748.9</ele>
        <time>2023-08-12T10:45:16Z</time>
      </trkpt>
      <trkpt lat="48.04848" lon="7.07586">
        <ele>747.8</ele>
        <time>2023-08-12T10:45:17Z</time>
      </trkpt>
      <trkpt lat="48.04846" lon="7.07597">
        <ele>742.3</ele>
        <time>2023-08-12T10:45:18Z</time>
      </trkpt>
      <trkpt lat="48.04846" lon="7.07607">
        <ele>736.7</ele>
        <time>2023-08-12T10:45:19Z</time>
      </trkpt>
      <trkpt lat="48.04847" lon="7.07618">
        <ele>736.6</ele>
        <time>2023-08-12T10:45:20Z</time>
      </trkpt>
      <trkpt lat="48.04848" lon="7.07626">
        <ele>733.3</ele>
        <time>2023-08-12T10:45:21Z</time>
      </trkpt>
      <trkpt lat="48.04847" lon="7.07635">
        <ele>731.2</ele>
        <time>2023-08-12T10:45:22Z</time>
      </trkpt>
      <trkpt lat="48.04844" lon="7.07644">
        <ele>725.5</ele>
        <time>2023-08-12T10:45:23Z</time>
      </trkpt>
      <trkpt lat="48.04843" lon="7.07651">
        <ele>725.4</ele>
        <time>2023-08-12T10:45:24Z</time>
      </trkpt>
      <trkpt lat="48.04842" lon="7.07657">
        <ele>720.5</ele>
        <time>2023-08-12T10:45:25Z</time>
      </trkpt>
      <trkpt lat="48.04841" lon="7.07663">
        <ele>720.4</ele>
        <time>2023-08-12T10:45:26Z</time>
      </trkpt>
      <trkpt lat="48.0484" lon="7.07667">
        <ele>720.3</ele>
        <time>2023-08-12T10:45:27Z</time>
      </trkpt>
      <trkpt lat="48.04837" lon="7.0767">
        <ele>720.2</ele>
        <time>2023-08-12T10:45:28Z</time>
      </trkpt>
      <trkpt lat="48.04835" lon="7.07672">
        <ele>718.2</ele>
        <time>2023-08-12T10:45:29Z</time>
      </trkpt>
      <trkpt lat="48.04833" lon="7.07672">
        <ele>718.1</ele>
        <time>2023-08-12T10:45:30Z</time>
      </trkpt>
      <trkpt lat="48.0483" lon="7.07672">
        <ele>717.9</ele>
        <time>2023-08-12T10:45:31Z</time>
      </trkpt>
      <trkpt lat="48.0483" lon="7.07673">
        <ele>717.8</ele>
        <time>2023-08-12T10:45:32Z</time>
      </trkpt>
      <trkpt lat="48.0483" lon="7.07674">
        <ele>717.7</ele>
        <time>2023-08-12T10:45:33Z</time>
      </trkpt>
      <trkpt lat="48.0483" lon="7.07675">
        <ele>713</ele>
        <time>2023-08-12T10:45:34Z</time>
      </trkpt>
      <trkpt lat="48.04831" lon="7.07675">
        <ele>712.9</ele>
        <time>2023-08-12T10:45:35Z</time>
      </trkpt>
      <trkpt lat="48.04831" lon="7.07676">
        <ele>712.8</ele>
        <time>2023-08-12T10:45:37Z</time>
      </trkpt>
      <trkpt lat="48.04831" lon="7.07677">
        <ele>712.7</ele>
        <time>2023-08-12T10:45:39Z</time>
      </trkpt>
      <trkpt lat="48.04832" lon="7.07678">
        <ele>712.6</ele>
        <time>2023-08-12T10:45:41Z</time>
      </trkpt>
      <trkpt lat="48.04832" lon="7.07679">
        <ele>712.5</ele>
        <time>2023-08-12T10:46:00Z</time>
      </trkpt>
      <trkpt lat="48.04832" lon="7.0768">
        <ele>712.3</ele>
        <time>2023-08-12T10:46:22Z</time>
      </trkpt>
      <trkpt lat="48.04832" lon="7.0768">
        <ele>712.2</ele>
        <time>2023-08-12T10:46:23Z</time>
      </trkpt>
      <trkpt lat="48.04835" lon="7.07685">
        <ele>712.1</ele>
        <time>2023-08-12T10:46:24Z</time>
      </trkpt>
      <trkpt lat="48.04838" lon="7.0769">
        <ele>713.9</ele>
        <time>2023-08-12T10:46:25Z</time>
      </trkpt>
      <trkpt lat="48.04842" lon="7.07697">
        <ele>709.4</ele>
        <time>2023-08-12T10:46:26Z</time>
      </trkpt>
      <trkpt lat="48.04844" lon="7.07701">
        <ele>709.3</ele>
        <time>2023-08-12T10:46:27Z</time>
      </trkpt>
      <trkpt lat="48.04843" lon="7.07703">
        <ele>709.2</ele>
        <time>2023-08-12T10:46:28Z</time>
      </trkpt>
      <trkpt lat="48.04841" lon="7.07705">
        <ele>709.1</ele>
        <time>2023-08-12T10:46:29Z</time>
      </trkpt>
      <trkpt lat="48.04838" lon="7.07706">
        <ele>709</ele>
        <time>2023-08-12T10:46:30Z</time>
      </trkpt>
      <trkpt lat="48.04832" lon="7.07709">
        <ele>704</ele>
        <time>2023-08-12T10:46:32Z</time>
      </trkpt>
      <trkpt lat="48.0483" lon="7.07711">
        <ele>703.9</ele>
        <time>2023-08-12T10:46:33Z</time>
      </trkpt>
      <trkpt lat="48.0483" lon="7.07714">
        <ele>703.7</ele>
        <time>2023-08-12T10:46:34Z</time>
      </trkpt>
      <trkpt lat="48.0483" lon="7.07718">
        <ele>703.6</ele>
        <time>2023-08-12T10:46:35Z</time>
      </trkpt>
      <trkpt lat="48.0483" lon="7.07722">
        <ele>703.5</ele>
        <time>2023-08-12T10:46:36Z</time>
      </trkpt>
      <trkpt lat="48.04833" lon="7.07728">
        <ele>702.7</ele>
        <time>2023-08-12T10:46:37Z</time>
      </trkpt>
      <trkpt lat="48.04836" lon="7.07733">
        <ele>702</ele>
        <time>2023-08-12T10:46:38Z</time>
      </trkpt>
      <trkpt lat="48.04841" lon="7.07738">
        <ele>701.1</ele>
        <time>2023-08-12T10:46:39Z</time>
      </trkpt>
      <trkpt lat="48.04849" lon="7.07743">
        <ele>699.9</ele>
        <time>2023-08-12T10:46:40Z</time>
      </trkpt>
      <trkpt lat="48.04864" lon="7.07752">
        <ele>697.6</ele>
        <time>2023-08-12T10:46:42Z</time>
      </trkpt>
      <trkpt lat="48.04871" lon="7.07755">
        <ele>696.5</ele>
        <time>2023-08-12T10:46:43Z</time>
      </trkpt>
      <trkpt lat="48.04877" lon="7.07757">
        <ele>695.6</ele>
        <time>2023-08-12T10:46:44Z</time>
      </trkpt>
      <trkpt lat="48.04888" lon="7.07763">
        <ele>694.2</ele>
        <time>2023-08-12T10:46:45Z</time>
      </trkpt>
      <trkpt lat="48.04898" lon="7.07765">
        <ele>693.1</ele>
        <time>2023-08-12T10:46:46Z</time>
      </trkpt>
      <trkpt lat="48.04908" lon="7.07766">
        <ele>692.2</ele>
        <time>2023-08-12T10:46:47Z</time>
      </trkpt>
      <trkpt lat="48.04929" lon="7.07771">
        <ele>690.6</ele>
        <time>2023-08-12T10:46:49Z</time>
      </trkpt>
      <trkpt lat="48.04949" lon="7.07781">
        <ele>689.4</ele>
        <time>2023-08-12T10:46:51Z</time>
      </trkpt>
      <trkpt lat="48.0496" lon="7.07786">
        <ele>688.9</ele>
        <time>2023-08-12T10:46:52Z</time>
      </trkpt>
      <trkpt lat="48.04969" lon="7.07793">
        <ele>688.4</ele>
        <time>2023-08-12T10:46:53Z</time>
      </trkpt>
      <trkpt lat="48.04977" lon="7.07798">
        <ele>687.8</ele>
        <time>2023-08-12T10:46:54Z</time>
      </trkpt>
      <trkpt lat="48.04985" lon="7.07804">
        <ele>687.1</ele>
        <time>2023-08-12T10:46:55Z</time>
      </trkpt>
      <trkpt lat="48.04992" lon="7.07809">
        <ele>686.4</ele>
        <time>2023-08-12T10:46:56Z</time>
      </trkpt>
      <trkpt lat="48.04998" lon="7.07813">
        <ele>685.6</ele>
        <time>2023-08-12T10:46:57Z</time>
      </trkpt>
      <trkpt lat="48.05003" lon="7.07817">
        <ele>684.9</ele>
        <time>2023-08-12T10:46:58Z</time>
      </trkpt>
      <trkpt lat="48.05008" lon="7.0782">
        <ele>684.1</ele>
        <time>2023-08-12T10:46:59Z</time>
      </trkpt>
      <trkpt lat="48.05014" lon="7.07823">
        <ele>683.2</ele>
        <time>2023-08-12T10:47:00Z</time>
      </trkpt>
      <trkpt lat="48.05025" lon="7.07831">
        <ele>681.5</ele>
        <time>2023-08-12T10:47:02Z</time>
      </trkpt>
      <trkpt lat="48.05031" lon="7.07835">
        <ele>680.8</ele>
        <time>2023-08-12T10:47:03Z</time>
      </trkpt>
      <trkpt lat="48.05036" lon="7.07838">
        <ele>680.1</ele>
        <time>2023-08-12T10:47:04Z</time>
      </trkpt>
      <trkpt lat="48.05042" lon="7.07842">
        <ele>679.4</ele>
        <time>2023-08-12T10:47:05Z</time>
      </trkpt>
      <trkpt lat="48.05048" lon="7.07846">
        <ele>678.7</ele>
        <time>2023-08-12T10:47:06Z</time>
      </trkpt>
      <trkpt lat="48.05055" lon="7.07851">
        <ele>677.8</ele>
        <time>2023-08-12T10:47:07Z</time>
      </trkpt>
      <trkpt lat="48.05068" lon="7.07861">
        <ele>675.3</ele>
        <time>2023-08-12T10:47:09Z</time>
      </trkpt>
      <trkpt lat="48.05072" lon="7.07866">
        <ele>673.8</ele>
        <time>2023-08-12T10:47:10Z</time>
      </trkpt>
      <trkpt lat="48.05075" lon="7.07869">
        <ele>672.8</ele>
        <time>2023-08-12T10:47:11Z</time>
      </trkpt>
      <trkpt lat="48.05078" lon="7.07873">
        <ele>671.6</ele>
        <time>2023-08-12T10:47:12Z</time>
      </trkpt>
      <trkpt lat="48.05078" lon="7.07876">
        <ele>671</ele>
        <time>2023-08-12T10:47:13Z</time>
      </trkpt>
      <trkpt lat="48.05077" lon="7.07878">
        <ele>670.5</ele>
        <time>2023-08-12T10:47:14Z</time>
      </trkpt>
      <trkpt lat="48.05075" lon="7.0788">
        <ele>669.8</ele>
        <time>2023-08-12T10:47:15Z</time>
      </trkpt>
      <trkpt lat="48.05074" lon="7.07883">
        <ele>669.1</ele>
        <time>2023-08-12T10:47:16Z</time>
      </trkpt>
      <trkpt lat="48.05074" lon="7.07891">
        <ele>667.3</ele>
        <time>2023-08-12T10:47:18Z</time>
      </trkpt>
      <trkpt lat="48.05076" lon="7.07896">
        <ele>666.4</ele>
        <time>2023-08-12T10:47:19Z</time>
      </trkpt>
      <trkpt lat="48.05077" lon="7.07899">
        <ele>665.6</ele>
        <time>2023-08-12T10:47:20Z</time>
      </trkpt>
      <trkpt lat="48.05079" lon="7.07901">
        <ele>665.2</ele>
        <time>2023-08-12T10:47:21Z</time>
      </trkpt>
      <trkpt lat="48.0508" lon="7.07903">
        <ele>664.5</ele>
        <time>2023-08-12T10:47:22Z</time>
      </trkpt>
      <trkpt lat="48.05082" lon="7.07909">
        <ele>663.5</ele>
        <time>2023-08-12T10:47:23Z</time>
      </trkpt>
      <trkpt lat="48.05082" lon="7.07914">
        <ele>662.6</ele>
        <time>2023-08-12T10:47:24Z</time>
      </trkpt>
      <trkpt lat="48.05082" lon="7.07921">
        <ele>661.4</ele>
        <time>2023-08-12T10:47:25Z</time>
      </trkpt>
      <trkpt lat="48.05083" lon="7.07925">
        <ele>660.5</ele>
        <time>2023-08-12T10:47:26Z</time>
      </trkpt>
      <trkpt lat="48.05085" lon="7.07928">
        <ele>659.9</ele>
        <time>2023-08-12T10:47:27Z</time>
      </trkpt>
      <trkpt lat="48.05088" lon="7.0793">
        <ele>659.2</ele>
        <time>2023-08-12T10:47:28Z</time>
      </trkpt>
      <trkpt lat="48.05093" lon="7.07942">
        <ele>656.9</ele>
        <time>2023-08-12T10:47:30Z</time>
      </trkpt>
      <trkpt lat="48.05096" lon="7.07951">
        <ele>653.6</ele>
        <time>2023-08-12T10:47:31Z</time>
      </trkpt>
      <trkpt lat="48.05098" lon="7.07957">
        <ele>652.5</ele>
        <time>2023-08-12T10:47:32Z</time>
      </trkpt>
      <trkpt lat="48.051" lon="7.07962">
        <ele>651.6</ele>
        <time>2023-08-12T10:47:33Z</time>
      </trkpt>
      <trkpt lat="48.05101" lon="7.07967">
        <ele>650.7</ele>
        <time>2023-08-12T10:47:34Z</time>
      </trkpt>
      <trkpt lat="48.05104" lon="7.07971">
        <ele>649.8</ele>
        <time>2023-08-12T10:47:35Z</time>
      </trkpt>
      <trkpt lat="48.05105" lon="7.07974">
        <ele>649.1</ele>
        <time>2023-08-12T10:47:36Z</time>
      </trkpt>
      <trkpt lat="48.05108" lon="7.07979">
        <ele>648</ele>
        <time>2023-08-12T10:47:37Z</time>
      </trkpt>
      <trkpt lat="48.05111" lon="7.07982">
        <ele>647.1</ele>
        <time>2023-08-12T10:47:38Z</time>
      </trkpt>
      <trkpt lat="48.05115" lon="7.07985">
        <ele>646</ele>
        <time>2023-08-12T10:47:39Z</time>
      </trkpt>
      <trkpt lat="48.05118" lon="7.0799">
        <ele>644.9</ele>
        <time>2023-08-12T10:47:40Z</time>
      </trkpt>
      <trkpt lat="48.05121" lon="7.07993">
        <ele>644.2</ele>
        <time>2023-08-12T10:47:42Z</time>
      </trkpt>
      <trkpt lat="48.05121" lon="7.07993">
        <ele>644.2</ele>
        <time>2023-08-12T10:47:43Z</time>
      </trkpt>
      <trkpt lat="48.05121" lon="7.07993">
        <ele>644.2</ele>
        <time>2023-08-12T10:47:44Z</time>
      </trkpt>
      <trkpt lat="48.05121" lon="7.07993">
        <ele>644.2</ele>
        <time>2023-08-12T10:47:50Z</time>
      </trkpt>
      <trkpt lat="48.05121" lon="7.07993">
        <ele>644.2</ele>
        <time>2023-08-12T10:47:53Z</time>
      </trkpt>
      <trkpt lat="48.05124" lon="7.07995">
        <ele>643.3</ele>
        <time>2023-08-12T10:47:56Z</time>
      </trkpt>
      <trkpt lat="48.05126" lon="7.07997">
        <ele>642.8</ele>
        <time>2023-08-12T10:47:57Z</time>
      </trkpt>
      <trkpt lat="48.05128" lon="7.07999">
        <ele>642.2</ele>
        <time>2023-08-12T10:47:58Z</time>
      </trkpt>
      <trkpt lat="48.0514" lon="7.08013">
        <ele>638.4</ele>
        <time>2023-08-12T10:48:02Z</time>
      </trkpt>
      <trkpt lat="48.05145" lon="7.08017">
        <ele>637.2</ele>
        <time>2023-08-12T10:48:03Z</time>
      </trkpt>
      <trkpt lat="48.05148" lon="7.08019">
        <ele>636.5</ele>
        <time>2023-08-12T10:48:04Z</time>
      </trkpt>
      <trkpt lat="48.05149" lon="7.08023">
        <ele>636.1</ele>
        <time>2023-08-12T10:48:05Z</time>
      </trkpt>
      <trkpt lat="48.0515" lon="7.08026">
        <ele>635.8</ele>
        <time>2023-08-12T10:48:06Z</time>
      </trkpt>
      <trkpt lat="48.05152" lon="7.0803">
        <ele>635.4</ele>
        <time>2023-08-12T10:48:07Z</time>
      </trkpt>
      <trkpt lat="48.05155" lon="7.08034">
        <ele>634.9</ele>
        <time>2023-08-12T10:48:08Z</time>
      </trkpt>
      <trkpt lat="48.05159" lon="7.08038">
        <ele>634.3</ele>
        <time>2023-08-12T10:48:09Z</time>
      </trkpt>
      <trkpt lat="48.0516" lon="7.08042">
        <ele>634</ele>
        <time>2023-08-12T10:48:10Z</time>
      </trkpt>
      <trkpt lat="48.05162" lon="7.08046">
        <ele>633.5</ele>
        <time>2023-08-12T10:48:11Z</time>
      </trkpt>
      <trkpt lat="48.05163" lon="7.0805">
        <ele>633.2</ele>
        <time>2023-08-12T10:48:12Z</time>
      </trkpt>
      <trkpt lat="48.05164" lon="7.08053">
        <ele>632.9</ele>
        <time>2023-08-12T10:48:13Z</time>
      </trkpt>
      <trkpt lat="48.05164" lon="7.08055">
        <ele>632.8</ele>
        <time>2023-08-12T10:48:14Z</time>
      </trkpt>
      <trkpt lat="48.05164" lon="7.08057">
        <ele>632.6</ele>
        <time>2023-08-12T10:48:15Z</time>
      </trkpt>
      <trkpt lat="48.05165" lon="7.08059">
        <ele>632.4</ele>
        <time>2023-08-12T10:48:16Z</time>
      </trkpt>
      <trkpt lat="48.05169" lon="7.08061">
        <ele>632</ele>
        <time>2023-08-12T10:48:17Z</time>
      </trkpt>
      <trkpt lat="48.05171" lon="7.08063">
        <ele>631.7</ele>
        <time>2023-08-12T10:48:18Z</time>
      </trkpt>
      <trkpt lat="48.05172" lon="7.08067">
        <ele>631.3</ele>
        <time>2023-08-12T10:48:19Z</time>
      </trkpt>
      <trkpt lat="48.05174" lon="7.08082">
        <ele>630.2</ele>
        <time>2023-08-12T10:48:21Z</time>
      </trkpt>
      <trkpt lat="48.05175" lon="7.08088">
        <ele>629.7</ele>
        <time>2023-08-12T10:48:22Z</time>
      </trkpt>
      <trkpt lat="48.05176" lon="7.08092">
        <ele>629.3</ele>
        <time>2023-08-12T10:48:23Z</time>
      </trkpt>
      <trkpt lat="48.05179" lon="7.08097">
        <ele>628.8</ele>
        <time>2023-08-12T10:48:24Z</time>
      </trkpt>
      <trkpt lat="48.0518" lon="7.08102">
        <ele>628.5</ele>
        <time>2023-08-12T10:48:25Z</time>
      </trkpt>
      <trkpt lat="48.05182" lon="7.08106">
        <ele>628.1</ele>
        <time>2023-08-12T10:48:26Z</time>
      </trkpt>
      <trkpt lat="48.05183" lon="7.08109">
        <ele>627.8</ele>
        <time>2023-08-12T10:48:27Z</time>
      </trkpt>
      <trkpt lat="48.05183" lon="7.08113">
        <ele>627.5</ele>
        <time>2023-08-12T10:48:28Z</time>
      </trkpt>
      <trkpt lat="48.05183" lon="7.08118">
        <ele>627.1</ele>
        <time>2023-08-12T10:48:29Z</time>
      </trkpt>
      <trkpt lat="48.05183" lon="7.08123">
        <ele>626.8</ele>
        <time>2023-08-12T10:48:30Z</time>
      </trkpt>
      <trkpt lat="48.05182" lon="7.08127">
        <ele>626.5</ele>
        <time>2023-08-12T10:48:31Z</time>
      </trkpt>
      <trkpt lat="48.0518" lon="7.08147">
        <ele>625.1</ele>
        <time>2023-08-12T10:48:34Z</time>
      </trkpt>
      <trkpt lat="48.05181" lon="7.08153">
        <ele>624.7</ele>
        <time>2023-08-12T10:48:35Z</time>
      </trkpt>
      <trkpt lat="48.0518" lon="7.08158">
        <ele>624.3</ele>
        <time>2023-08-12T10:48:36Z</time>
      </trkpt>
      <trkpt lat="48.05179" lon="7.08163">
        <ele>623.9</ele>
        <time>2023-08-12T10:48:37Z</time>
      </trkpt>
      <trkpt lat="48.05178" lon="7.08168">
        <ele>623.5</ele>
        <time>2023-08-12T10:48:38Z</time>
      </trkpt>
      <trkpt lat="48.05177" lon="7.08171">
        <ele>623.1</ele>
        <time>2023-08-12T10:48:39Z</time>
      </trkpt>
      <trkpt lat="48.05178" lon="7.08186">
        <ele>621.7</ele>
        <time>2023-08-12T10:48:41Z</time>
      </trkpt>
      <trkpt lat="48.05178" lon="7.08192">
        <ele>625.6</ele>
        <time>2023-08-12T10:48:42Z</time>
      </trkpt>
      <trkpt lat="48.05179" lon="7.08198">
        <ele>626.5</ele>
        <time>2023-08-12T10:48:43Z</time>
      </trkpt>
      <trkpt lat="48.05178" lon="7.08206">
        <ele>627.3</ele>
        <time>2023-08-12T10:48:44Z</time>
      </trkpt>
      <trkpt lat="48.05174" lon="7.08212">
        <ele>628.2</ele>
        <time>2023-08-12T10:48:45Z</time>
      </trkpt>
      <trkpt lat="48.05172" lon="7.08218">
        <ele>628.6</ele>
        <time>2023-08-12T10:48:46Z</time>
      </trkpt>
      <trkpt lat="48.05172" lon="7.08224">
        <ele>628.3</ele>
        <time>2023-08-12T10:48:47Z</time>
      </trkpt>
      <trkpt lat="48.05169" lon="7.08231">
        <ele>627.9</ele>
        <time>2023-08-12T10:48:48Z</time>
      </trkpt>
      <trkpt lat="48.05171" lon="7.08237">
        <ele>627.5</ele>
        <time>2023-08-12T10:48:49Z</time>
      </trkpt>
      <trkpt lat="48.05171" lon="7.08244">
        <ele>627.2</ele>
        <time>2023-08-12T10:48:50Z</time>
      </trkpt>
      <trkpt lat="48.05171" lon="7.08248">
        <ele>627</ele>
        <time>2023-08-12T10:48:51Z</time>
      </trkpt>
      <trkpt lat="48.05171" lon="7.08248">
        <ele>626.9</ele>
        <time>2023-08-12T10:48:52Z</time>
      </trkpt>
      <trkpt lat="48.05173" lon="7.08246">
        <ele>626.7</ele>
        <time>2023-08-12T10:48:53Z</time>
      </trkpt>
      <trkpt lat="48.05181" lon="7.08237">
        <ele>625.8</ele>
        <time>2023-08-12T10:48:55Z</time>
      </trkpt>
      <trkpt lat="48.05184" lon="7.08232">
        <ele>625.5</ele>
        <time>2023-08-12T10:48:56Z</time>
      </trkpt>
      <trkpt lat="48.05187" lon="7.08227">
        <ele>625</ele>
        <time>2023-08-12T10:48:57Z</time>
      </trkpt>
      <trkpt lat="48.0519" lon="7.08221">
        <ele>624.6</ele>
        <time>2023-08-12T10:48:58Z</time>
      </trkpt>
      <trkpt lat="48.05192" lon="7.08214">
        <ele>624.2</ele>
        <time>2023-08-12T10:48:59Z</time>
      </trkpt>
      <trkpt lat="48.05193" lon="7.08208">
        <ele>623.8</ele>
        <time>2023-08-12T10:49:00Z</time>
      </trkpt>
      <trkpt lat="48.05194" lon="7.08205">
        <ele>623.6</ele>
        <time>2023-08-12T10:49:01Z</time>
      </trkpt>
      <trkpt lat="48.05196" lon="7.08203">
        <ele>623.4</ele>
        <time>2023-08-12T10:49:02Z</time>
      </trkpt>
      <trkpt lat="48.05198" lon="7.08204">
        <ele>620.4</ele>
        <time>2023-08-12T10:49:03Z</time>
      </trkpt>
      <trkpt lat="48.05199" lon="7.08207">
        <ele>620</ele>
        <time>2023-08-12T10:49:04Z</time>
      </trkpt>
      <trkpt lat="48.05199" lon="7.08211">
        <ele>619.5</ele>
        <time>2023-08-12T10:49:05Z</time>
      </trkpt>
      <trkpt lat="48.052" lon="7.08214">
        <ele>619.1</ele>
        <time>2023-08-12T10:49:06Z</time>
      </trkpt>
      <trkpt lat="48.05202" lon="7.08216">
        <ele>618.6</ele>
        <time>2023-08-12T10:49:07Z</time>
      </trkpt>
      <trkpt lat="48.05204" lon="7.08215">
        <ele>618.4</ele>
        <time>2023-08-12T10:49:08Z</time>
      </trkpt>
      <trkpt lat="48.05205" lon="7.08213">
        <ele>618</ele>
        <time>2023-08-12T10:49:09Z</time>
      </trkpt>
      <trkpt lat="48.05206" lon="7.08211">
        <ele>617.6</ele>
        <time>2023-08-12T10:49:10Z</time>
      </trkpt>
      <trkpt lat="48.05207" lon="7.08208">
        <ele>617.1</ele>
        <time>2023-08-12T10:49:11Z</time>
      </trkpt>
      <trkpt lat="48.0521" lon="7.08202">
        <ele>616.1</ele>
        <time>2023-08-12T10:49:12Z</time>
      </trkpt>
      <trkpt lat="48.05211" lon="7.08198">
        <ele>615.4</ele>
        <time>2023-08-12T10:49:13Z</time>
      </trkpt>
      <trkpt lat="48.05214" lon="7.08179">
        <ele>612.8</ele>
        <time>2023-08-12T10:49:16Z</time>
      </trkpt>
      <trkpt lat="48.05215" lon="7.08171">
        <ele>611.8</ele>
        <time>2023-08-12T10:49:17Z</time>
      </trkpt>
      <trkpt lat="48.05217" lon="7.08164">
        <ele>610.9</ele>
        <time>2023-08-12T10:49:18Z</time>
      </trkpt>
      <trkpt lat="48.0522" lon="7.08145">
        <ele>608.6</ele>
        <time>2023-08-12T10:49:20Z</time>
      </trkpt>
      <trkpt lat="48.05223" lon="7.08134">
        <ele>606.7</ele>
        <time>2023-08-12T10:49:21Z</time>
      </trkpt>
      <trkpt lat="48.05225" lon="7.08123">
        <ele>604.3</ele>
        <time>2023-08-12T10:49:22Z</time>
      </trkpt>
      <trkpt lat="48.05227" lon="7.08113">
        <ele>601.5</ele>
        <time>2023-08-12T10:49:23Z</time>
      </trkpt>
      <trkpt lat="48.05229" lon="7.08104">
        <ele>598.8</ele>
        <time>2023-08-12T10:49:24Z</time>
      </trkpt>
      <trkpt lat="48.05231" lon="7.08096">
        <ele>596.3</ele>
        <time>2023-08-12T10:49:25Z</time>
      </trkpt>
      <trkpt lat="48.05232" lon="7.08089">
        <ele>594.2</ele>
        <time>2023-08-12T10:49:26Z</time>
      </trkpt>
      <trkpt lat="48.05233" lon="7.08083">
        <ele>592.3</ele>
        <time>2023-08-12T10:49:27Z</time>
      </trkpt>
      <trkpt lat="48.05235" lon="7.08079">
        <ele>592.3</ele>
        <time>2023-08-12T10:49:28Z</time>
      </trkpt>
      <trkpt lat="48.05235" lon="7.08078">
        <ele>592.3</ele>
        <time>2023-08-12T10:49:29Z</time>
      </trkpt>
      <trkpt lat="48.05236" lon="7.08079">
        <ele>592.3</ele>
        <time>2023-08-12T10:49:30Z</time>
      </trkpt>
      <trkpt lat="48.05237" lon="7.08081">
        <ele>592.4</ele>
        <time>2023-08-12T10:49:31Z</time>
      </trkpt>
      <trkpt lat="48.05239" lon="7.08083">
        <ele>585.7</ele>
        <time>2023-08-12T10:49:32Z</time>
      </trkpt>
      <trkpt lat="48.05242" lon="7.08091">
        <ele>587.9</ele>
        <time>2023-08-12T10:49:34Z</time>
      </trkpt>
      <trkpt lat="48.05244" lon="7.08094">
        <ele>587.9</ele>
        <time>2023-08-12T10:49:35Z</time>
      </trkpt>
      <trkpt lat="48.05246" lon="7.08092">
        <ele>587.9</ele>
        <time>2023-08-12T10:49:36Z</time>
      </trkpt>
      <trkpt lat="48.05248" lon="7.08089">
        <ele>587.9</ele>
        <time>2023-08-12T10:49:37Z</time>
      </trkpt>
      <trkpt lat="48.05248" lon="7.08087">
        <ele>587.9</ele>
        <time>2023-08-12T10:49:38Z</time>
      </trkpt>
      <trkpt lat="48.05249" lon="7.08086">
        <ele>585.8</ele>
        <time>2023-08-12T10:49:39Z</time>
      </trkpt>
      <trkpt lat="48.05254" lon="7.08091">
        <ele>580.5</ele>
        <time>2023-08-12T10:49:41Z</time>
      </trkpt>
      <trkpt lat="48.0526" lon="7.08103">
        <ele>580.5</ele>
        <time>2023-08-12T10:49:43Z</time>
      </trkpt>
      <trkpt lat="48.05265" lon="7.08112">
        <ele>579.7</ele>
        <time>2023-08-12T10:49:45Z</time>
      </trkpt>
      <trkpt lat="48.05267" lon="7.08117">
        <ele>579.3</ele>
        <time>2023-08-12T10:49:46Z</time>
      </trkpt>
      <trkpt lat="48.05269" lon="7.08123">
        <ele>578.9</ele>
        <time>2023-08-12T10:49:47Z</time>
      </trkpt>
      <trkpt lat="48.05271" lon="7.08128">
        <ele>578.5</ele>
        <time>2023-08-12T10:49:48Z</time>
      </trkpt>
      <trkpt lat="48.05272" lon="7.08129">
        <ele>578.4</ele>
        <time>2023-08-12T10:49:49Z</time>
      </trkpt>
      <trkpt lat="48.05271" lon="7.08126">
        <ele>578.2</ele>
        <time>2023-08-12T10:49:50Z</time>
      </trkpt>
      <trkpt lat="48.05271" lon="7.08121">
        <ele>577.8</ele>
        <time>2023-08-12T10:49:51Z</time>
      </trkpt>
      <trkpt lat="48.05269" lon="7.08117">
        <ele>577.5</ele>
        <time>2023-08-12T10:49:52Z</time>
      </trkpt>
      <trkpt lat="48.05269" lon="7.08109">
        <ele>577</ele>
        <time>2023-08-12T10:49:54Z</time>
      </trkpt>
      <trkpt lat="48.05269" lon="7.08108">
        <ele>576.9</ele>
        <time>2023-08-12T10:49:55Z</time>
      </trkpt>
      <trkpt lat="48.05269" lon="7.08107">
        <ele>576.8</ele>
        <time>2023-08-12T10:49:56Z</time>
      </trkpt>
      <trkpt lat="48.0527" lon="7.08105">
        <ele>576.7</ele>
        <time>2023-08-12T10:49:57Z</time>
      </trkpt>
      <trkpt lat="48.0527" lon="7.08102">
        <ele>576.5</ele>
        <time>2023-08-12T10:49:58Z</time>
      </trkpt>
      <trkpt lat="48.0527" lon="7.08095">
        <ele>576</ele>
        <time>2023-08-12T10:50:00Z</time>
      </trkpt>
      <trkpt lat="48.0527" lon="7.0809">
        <ele>575.7</ele>
        <time>2023-08-12T10:50:01Z</time>
      </trkpt>
      <trkpt lat="48.0527" lon="7.08085">
        <ele>575.4</ele>
        <time>2023-08-12T10:50:02Z</time>
      </trkpt>
      <trkpt lat="48.05269" lon="7.08062">
        <ele>573.9</ele>
        <time>2023-08-12T10:50:05Z</time>
      </trkpt>
      <trkpt lat="48.05269" lon="7.08046">
        <ele>572.9</ele>
        <time>2023-08-12T10:50:07Z</time>
      </trkpt>
      <trkpt lat="48.05268" lon="7.08028">
        <ele>572.2</ele>
        <time>2023-08-12T10:50:09Z</time>
      </trkpt>
      <trkpt lat="48.05269" lon="7.08019">
        <ele>572.2</ele>
        <time>2023-08-12T10:50:10Z</time>
      </trkpt>
      <trkpt lat="48.05271" lon="7.08009">
        <ele>572.1</ele>
        <time>2023-08-12T10:50:11Z</time>
      </trkpt>
      <trkpt lat="48.05275" lon="7.08">
        <ele>572</ele>
        <time>2023-08-12T10:50:12Z</time>
      </trkpt>
      <trkpt lat="48.05279" lon="7.07993">
        <ele>571.9</ele>
        <time>2023-08-12T10:50:13Z</time>
      </trkpt>
      <trkpt lat="48.05283" lon="7.07988">
        <ele>571.8</ele>
        <time>2023-08-12T10:50:14Z</time>
      </trkpt>
      <trkpt lat="48.05288" lon="7.07983">
        <ele>571.7</ele>
        <time>2023-08-12T10:50:15Z</time>
      </trkpt>
      <trkpt lat="48.05294" lon="7.07978">
        <ele>571.6</ele>
        <time>2023-08-12T10:50:16Z</time>
      </trkpt>
      <trkpt lat="48.05297" lon="7.07974">
        <ele>571.5</ele>
        <time>2023-08-12T10:50:17Z</time>
      </trkpt>
      <trkpt lat="48.05299" lon="7.07971">
        <ele>571.5</ele>
        <time>2023-08-12T10:50:18Z</time>
      </trkpt>
      <trkpt lat="48.05302" lon="7.07967">
        <ele>571.4</ele>
        <time>2023-08-12T10:50:19Z</time>
      </trkpt>
      <trkpt lat="48.05305" lon="7.07965">
        <ele>571.4</ele>
        <time>2023-08-12T10:50:20Z</time>
      </trkpt>
      <trkpt lat="48.05307" lon="7.07963">
        <ele>568.6</ele>
        <time>2023-08-12T10:50:21Z</time>
      </trkpt>
      <trkpt lat="48.05308" lon="7.07964">
        <ele>568.3</ele>
        <time>2023-08-12T10:50:22Z</time>
      </trkpt>
      <trkpt lat="48.05308" lon="7.07964">
        <ele>568.2</ele>
        <time>2023-08-12T10:50:23Z</time>
      </trkpt>
      <trkpt lat="48.05308" lon="7.07964">
        <ele>568.2</ele>
        <time>2023-08-12T10:50:26Z</time>
      </trkpt>
      <trkpt lat="48.05308" lon="7.07964">
        <ele>568.2</ele>
        <time>2023-08-12T10:50:31Z</time>
      </trkpt>
      <trkpt lat="48.05308" lon="7.07964">
        <ele>568.2</ele>
        <time>2023-08-12T10:50:32Z</time>
      </trkpt>
      <trkpt lat="48.05308" lon="7.07965">
        <ele>568</ele>
        <time>2023-08-12T10:50:40Z</time>
      </trkpt>
      <trkpt lat="48.05307" lon="7.07965">
        <ele>567.9</ele>
        <time>2023-08-12T10:50:42Z</time>
      </trkpt>
      <trkpt lat="48.05306" lon="7.07972">
        <ele>566.1</ele>
        <time>2023-08-12T10:50:45Z</time>
      </trkpt>
      <trkpt lat="48.05307" lon="7.07974">
        <ele>565.5</ele>
        <time>2023-08-12T10:50:46Z</time>
      </trkpt>
      <trkpt lat="48.0531" lon="7.07974">
        <ele>564.5</ele>
        <time>2023-08-12T10:50:47Z</time>
      </trkpt>
      <trkpt lat="48.05316" lon="7.07974">
        <ele>562.1</ele>
        <time>2023-08-12T10:50:49Z</time>
      </trkpt>
      <trkpt lat="48.05317" lon="7.07975">
        <ele>561.7</ele>
        <time>2023-08-12T10:50:50Z</time>
      </trkpt>
      <trkpt lat="48.05319" lon="7.07977">
        <ele>560.9</ele>
        <time>2023-08-12T10:50:51Z</time>
      </trkpt>
      <trkpt lat="48.05319" lon="7.07979">
        <ele>560.5</ele>
        <time>2023-08-12T10:50:52Z</time>
      </trkpt>
      <trkpt lat="48.05319" lon="7.07979">
        <ele>560.4</ele>
        <time>2023-08-12T10:50:53Z</time>
      </trkpt>
      <trkpt lat="48.05319" lon="7.07979">
        <ele>560.4</ele>
        <time>2023-08-12T10:50:54Z</time>
      </trkpt>
      <trkpt lat="48.0532" lon="7.07979">
        <ele>560.1</ele>
        <time>2023-08-12T10:50:55Z</time>
      </trkpt>
      <trkpt lat="48.05321" lon="7.07979">
        <ele>559.6</ele>
        <time>2023-08-12T10:50:56Z</time>
      </trkpt>
      <trkpt lat="48.05323" lon="7.07978">
        <ele>558.8</ele>
        <time>2023-08-12T10:50:57Z</time>
      </trkpt>
      <trkpt lat="48.05325" lon="7.07977">
        <ele>558.1</ele>
        <time>2023-08-12T10:50:58Z</time>
      </trkpt>
      <trkpt lat="48.05327" lon="7.07976">
        <ele>557.1</ele>
        <time>2023-08-12T10:50:59Z</time>
      </trkpt>
      <trkpt lat="48.0533" lon="7.07979">
        <ele>556</ele>
        <time>2023-08-12T10:51:01Z</time>
      </trkpt>
      <trkpt lat="48.0533" lon="7.07979">
        <ele>555.8</ele>
        <time>2023-08-12T10:51:02Z</time>
      </trkpt>
      <trkpt lat="48.0533" lon="7.07982">
        <ele>555.3</ele>
        <time>2023-08-12T10:51:03Z</time>
      </trkpt>
      <trkpt lat="48.05329" lon="7.07986">
        <ele>554.2</ele>
        <time>2023-08-12T10:51:04Z</time>
      </trkpt>
      <trkpt lat="48.05329" lon="7.0799">
        <ele>553.4</ele>
        <time>2023-08-12T10:51:05Z</time>
      </trkpt>
      <trkpt lat="48.05329" lon="7.07995">
        <ele>552.2</ele>
        <time>2023-08-12T10:51:06Z</time>
      </trkpt>
      <trkpt lat="48.05328" lon="7.07998">
        <ele>551.6</ele>
        <time>2023-08-12T10:51:07Z</time>
      </trkpt>
      <trkpt lat="48.0533" lon="7.08001">
        <ele>550.9</ele>
        <time>2023-08-12T10:51:08Z</time>
      </trkpt>
      <trkpt lat="48.05333" lon="7.08003">
        <ele>549.7</ele>
        <time>2023-08-12T10:51:09Z</time>
      </trkpt>
      <trkpt lat="48.05343" lon="7.08004">
        <ele>546.8</ele>
        <time>2023-08-12T10:51:11Z</time>
      </trkpt>
      <trkpt lat="48.05351" lon="7.07998">
        <ele>544</ele>
        <time>2023-08-12T10:51:12Z</time>
      </trkpt>
      <trkpt lat="48.05354" lon="7.07995">
        <ele>542.9</ele>
        <time>2023-08-12T10:51:13Z</time>
      </trkpt>
      <trkpt lat="48.05357" lon="7.07995">
        <ele>542</ele>
        <time>2023-08-12T10:51:14Z</time>
      </trkpt>
      <trkpt lat="48.05357" lon="7.07994">
        <ele>541.8</ele>
        <time>2023-08-12T10:51:15Z</time>
      </trkpt>
      <trkpt lat="48.05359" lon="7.07993">
        <ele>541.1</ele>
        <time>2023-08-12T10:51:16Z</time>
      </trkpt>
      <trkpt lat="48.05366" lon="7.07993">
        <ele>538.9</ele>
        <time>2023-08-12T10:51:18Z</time>
      </trkpt>
      <trkpt lat="48.05365" lon="7.07994">
        <ele>538.7</ele>
        <time>2023-08-12T10:51:19Z</time>
      </trkpt>
      <trkpt lat="48.05365" lon="7.07996">
        <ele>538.2</ele>
        <time>2023-08-12T10:51:20Z</time>
      </trkpt>
      <trkpt lat="48.05365" lon="7.07999">
        <ele>537.6</ele>
        <time>2023-08-12T10:51:21Z</time>
      </trkpt>
      <trkpt lat="48.05364" lon="7.08003">
        <ele>536.7</ele>
        <time>2023-08-12T10:51:22Z</time>
      </trkpt>
      <trkpt lat="48.05366" lon="7.08007">
        <ele>535.8</ele>
        <time>2023-08-12T10:51:23Z</time>
      </trkpt>
      <trkpt lat="48.0537" lon="7.08009">
        <ele>534.3</ele>
        <time>2023-08-12T10:51:24Z</time>
      </trkpt>
      <trkpt lat="48.05371" lon="7.0801">
        <ele>533.9</ele>
        <time>2023-08-12T10:51:25Z</time>
      </trkpt>
      <trkpt lat="48.05373" lon="7.08008">
        <ele>533.3</ele>
        <time>2023-08-12T10:51:26Z</time>
      </trkpt>
      <trkpt lat="48.05375" lon="7.08007">
        <ele>532.6</ele>
        <time>2023-08-12T10:51:27Z</time>
      </trkpt>
      <trkpt lat="48.05377" lon="7.08005">
        <ele>531.8</ele>
        <time>2023-08-12T10:51:28Z</time>
      </trkpt>
      <trkpt lat="48.05379" lon="7.08002">
        <ele>530.8</ele>
        <time>2023-08-12T10:51:29Z</time>
      </trkpt>
      <trkpt lat="48.05382" lon="7.08">
        <ele>529.9</ele>
        <time>2023-08-12T10:51:30Z</time>
      </trkpt>
      <trkpt lat="48.05384" lon="7.08">
        <ele>529.3</ele>
        <time>2023-08-12T10:51:31Z</time>
      </trkpt>
      <trkpt lat="48.05385" lon="7.08002">
        <ele>528.8</ele>
        <time>2023-08-12T10:51:32Z</time>
      </trkpt>
      <trkpt lat="48.05386" lon="7.08006">
        <ele>527.7</ele>
        <time>2023-08-12T10:51:33Z</time>
      </trkpt>
      <trkpt lat="48.05385" lon="7.08012">
        <ele>526.5</ele>
        <time>2023-08-12T10:51:34Z</time>
      </trkpt>
      <trkpt lat="48.05387" lon="7.08021">
        <ele>524.3</ele>
        <time>2023-08-12T10:51:36Z</time>
      </trkpt>
      <trkpt lat="48.05389" lon="7.08023">
        <ele>523.4</ele>
        <time>2023-08-12T10:51:37Z</time>
      </trkpt>
      <trkpt lat="48.05393" lon="7.08024">
        <ele>522.1</ele>
        <time>2023-08-12T10:51:38Z</time>
      </trkpt>
      <trkpt lat="48.05396" lon="7.08026">
        <ele>520.9</ele>
        <time>2023-08-12T10:51:39Z</time>
      </trkpt>
      <trkpt lat="48.05399" lon="7.08027">
        <ele>520</ele>
        <time>2023-08-12T10:51:40Z</time>
      </trkpt>
      <trkpt lat="48.05401" lon="7.08027">
        <ele>519.3</ele>
        <time>2023-08-12T10:51:41Z</time>
      </trkpt>
      <trkpt lat="48.05405" lon="7.08028">
        <ele>518</ele>
        <time>2023-08-12T10:51:42Z</time>
      </trkpt>
      <trkpt lat="48.05408" lon="7.08027">
        <ele>517.3</ele>
        <time>2023-08-12T10:51:43Z</time>
      </trkpt>
      <trkpt lat="48.05409" lon="7.08026">
        <ele>517</ele>
        <time>2023-08-12T10:51:44Z</time>
      </trkpt>
      <trkpt lat="48.0541" lon="7.08024">
        <ele>516.7</ele>
        <time>2023-08-12T10:51:45Z</time>
      </trkpt>
      <trkpt lat="48.0541" lon="7.08024">
        <ele>516.6</ele>
        <time>2023-08-12T10:51:46Z</time>
      </trkpt>
      <trkpt lat="48.0541" lon="7.08024">
        <ele>516.6</ele>
        <time>2023-08-12T10:51:47Z</time>
      </trkpt>
      <trkpt lat="48.05411" lon="7.08024">
        <ele>516.2</ele>
        <time>2023-08-12T10:51:49Z</time>
      </trkpt>
      <trkpt lat="48.05412" lon="7.08023">
        <ele>516.2</ele>
        <time>2023-08-12T10:51:50Z</time>
      </trkpt>
      <trkpt lat="48.05412" lon="7.08023">
        <ele>516.2</ele>
        <time>2023-08-12T10:51:51Z</time>
      </trkpt>
      <trkpt lat="48.05412" lon="7.08023">
        <ele>516.2</ele>
        <time>2023-08-12T10:51:53Z</time>
      </trkpt>
      <trkpt lat="48.05412" lon="7.08023">
        <ele>516</ele>
        <time>2023-08-12T10:51:56Z</time>
      </trkpt>
      <trkpt lat="48.05412" lon="7.08023">
        <ele>516</ele>
        <time>2023-08-12T10:51:58Z</time>
      </trkpt>
      <trkpt lat="48.05413" lon="7.08023">
        <ele>515.7</ele>
        <time>2023-08-12T10:52:06Z</time>
      </trkpt>
      <trkpt lat="48.05416" lon="7.08021">
        <ele>515</ele>
        <time>2023-08-12T10:52:07Z</time>
      </trkpt>
      <trkpt lat="48.05421" lon="7.08013">
        <ele>513.5</ele>
        <time>2023-08-12T10:52:10Z</time>
      </trkpt>
      <trkpt lat="48.05433" lon="7.07998">
        <ele>510.7</ele>
        <time>2023-08-12T10:52:14Z</time>
      </trkpt>
      <trkpt lat="48.05435" lon="7.07994">
        <ele>510.1</ele>
        <time>2023-08-12T10:52:15Z</time>
      </trkpt>
      <trkpt lat="48.0544" lon="7.07982">
        <ele>508.7</ele>
        <time>2023-08-12T10:52:17Z</time>
      </trkpt>
      <trkpt lat="48.05441" lon="7.07974">
        <ele>507.9</ele>
        <time>2023-08-12T10:52:18Z</time>
      </trkpt>
      <trkpt lat="48.05442" lon="7.07965">
        <ele>507</ele>
        <time>2023-08-12T10:52:19Z</time>
      </trkpt>
      <trkpt lat="48.05445" lon="7.0795">
        <ele>505.4</ele>
        <time>2023-08-12T10:52:21Z</time>
      </trkpt>
      <trkpt lat="48.05446" lon="7.07943">
        <ele>504.7</ele>
        <time>2023-08-12T10:52:22Z</time>
      </trkpt>
      <trkpt lat="48.05447" lon="7.07939">
        <ele>504.3</ele>
        <time>2023-08-12T10:52:23Z</time>
      </trkpt>
      <trkpt lat="48.05448" lon="7.07934">
        <ele>503.8</ele>
        <time>2023-08-12T10:52:24Z</time>
      </trkpt>
      <trkpt lat="48.0545" lon="7.07927">
        <ele>503.1</ele>
        <time>2023-08-12T10:52:25Z</time>
      </trkpt>
      <trkpt lat="48.05452" lon="7.0792">
        <ele>502.4</ele>
        <time>2023-08-12T10:52:26Z</time>
      </trkpt>
      <trkpt lat="48.05455" lon="7.07912">
        <ele>501.6</ele>
        <time>2023-08-12T10:52:27Z</time>
      </trkpt>
      <trkpt lat="48.05457" lon="7.07907">
        <ele>501.1</ele>
        <time>2023-08-12T10:52:28Z</time>
      </trkpt>
      <trkpt lat="48.05458" lon="7.07904">
        <ele>500.8</ele>
        <time>2023-08-12T10:52:29Z</time>
      </trkpt>
      <trkpt lat="48.05459" lon="7.07904">
        <ele>500.7</ele>
        <time>2023-08-12T10:52:30Z</time>
      </trkpt>
      <trkpt lat="48.05458" lon="7.07905">
        <ele>500.6</ele>
        <time>2023-08-12T10:52:31Z</time>
      </trkpt>
      <trkpt lat="48.0546" lon="7.07903">
        <ele>500.3</ele>
        <time>2023-08-12T10:52:32Z</time>
      </trkpt>
      <trkpt lat="48.05463" lon="7.07898">
        <ele>499.6</ele>
        <time>2023-08-12T10:52:34Z</time>
      </trkpt>
      <trkpt lat="48.05465" lon="7.07892">
        <ele>499</ele>
        <time>2023-08-12T10:52:36Z</time>
      </trkpt>
      <trkpt lat="48.05473" lon="7.07887">
        <ele>498.5</ele>
        <time>2023-08-12T10:52:39Z</time>
      </trkpt>
      <trkpt lat="48.05475" lon="7.07885">
        <ele>497.4</ele>
        <time>2023-08-12T10:52:40Z</time>
      </trkpt>
      <trkpt lat="48.05478" lon="7.07884">
        <ele>497.4</ele>
        <time>2023-08-12T10:52:41Z</time>
      </trkpt>
      <trkpt lat="48.05481" lon="7.07885">
        <ele>497.4</ele>
        <time>2023-08-12T10:52:42Z</time>
      </trkpt>
      <trkpt lat="48.05484" lon="7.07887">
        <ele>497.4</ele>
        <time>2023-08-12T10:52:43Z</time>
      </trkpt>
      <trkpt lat="48.05488" lon="7.07889">
        <ele>497</ele>
        <time>2023-08-12T10:52:44Z</time>
      </trkpt>
      <trkpt lat="48.0549" lon="7.0789">
        <ele>496.8</ele>
        <time>2023-08-12T10:52:45Z</time>
      </trkpt>
      <trkpt lat="48.055" lon="7.07891">
        <ele>496.6</ele>
        <time>2023-08-12T10:52:48Z</time>
      </trkpt>
      <trkpt lat="48.05503" lon="7.0789">
        <ele>496.5</ele>
        <time>2023-08-12T10:52:49Z</time>
      </trkpt>
      <trkpt lat="48.05506" lon="7.0789">
        <ele>496.4</ele>
        <time>2023-08-12T10:52:50Z</time>
      </trkpt>
      <trkpt lat="48.05507" lon="7.0789">
        <ele>496.4</ele>
        <time>2023-08-12T10:52:51Z</time>
      </trkpt>
      <trkpt lat="48.0551" lon="7.0789">
        <ele>496.3</ele>
        <time>2023-08-12T10:52:52Z</time>
      </trkpt>
      <trkpt lat="48.05512" lon="7.07891">
        <ele>496.3</ele>
        <time>2023-08-12T10:52:53Z</time>
      </trkpt>
      <trkpt lat="48.05513" lon="7.07891">
        <ele>496.2</ele>
        <time>2023-08-12T10:52:54Z</time>
      </trkpt>
      <trkpt lat="48.05515" lon="7.07891">
        <ele>496.2</ele>
        <time>2023-08-12T10:52:55Z</time>
      </trkpt>
      <trkpt lat="48.05516" lon="7.07891">
        <ele>496.2</ele>
        <time>2023-08-12T10:52:56Z</time>
      </trkpt>
      <trkpt lat="48.05517" lon="7.07891">
        <ele>496.2</ele>
        <time>2023-08-12T10:52:57Z</time>
      </trkpt>
      <trkpt lat="48.0552" lon="7.07892">
        <ele>496.2</ele>
        <time>2023-08-12T10:52:59Z</time>
      </trkpt>
      <trkpt lat="48.05522" lon="7.07893">
        <ele>496.1</ele>
        <time>2023-08-12T10:53:00Z</time>
      </trkpt>
      <trkpt lat="48.05523" lon="7.07893">
        <ele>496.1</ele>
        <time>2023-08-12T10:53:01Z</time>
      </trkpt>
      <trkpt lat="48.05525" lon="7.07894">
        <ele>496.1</ele>
        <time>2023-08-12T10:53:02Z</time>
      </trkpt>
      <trkpt lat="48.05538" lon="7.07899">
        <ele>495.9</ele>
        <time>2023-08-12T10:53:08Z</time>
      </trkpt>
      <trkpt lat="48.05542" lon="7.07903">
        <ele>495.9</ele>
        <time>2023-08-12T10:53:10Z</time>
      </trkpt>
      <trkpt lat="48.05544" lon="7.07907">
        <ele>495.8</ele>
        <time>2023-08-12T10:53:11Z</time>
      </trkpt>
      <trkpt lat="48.05546" lon="7.07911">
        <ele>495.7</ele>
        <time>2023-08-12T10:53:12Z</time>
      </trkpt>
      <trkpt lat="48.05548" lon="7.07914">
        <ele>495.7</ele>
        <time>2023-08-12T10:53:13Z</time>
      </trkpt>
      <trkpt lat="48.05555" lon="7.07939">
        <ele>495.5</ele>
        <time>2023-08-12T10:53:20Z</time>
      </trkpt>
      <trkpt lat="48.05556" lon="7.07942">
        <ele>495.5</ele>
        <time>2023-08-12T10:53:21Z</time>
      </trkpt>
      <trkpt lat="48.05558" lon="7.07945">
        <ele>495.5</ele>
        <time>2023-08-12T10:53:22Z</time>
      </trkpt>
      <trkpt lat="48.05559" lon="7.07949">
        <ele>495.5</ele>
        <time>2023-08-12T10:53:23Z</time>
      </trkpt>
      <trkpt lat="48.05564" lon="7.07967">
        <ele>495.5</ele>
        <time>2023-08-12T10:53:28Z</time>
      </trkpt>
      <trkpt lat="48.05574" lon="7.08">
        <ele>495.4</ele>
        <time>2023-08-12T10:53:36Z</time>
      </trkpt>
      <trkpt lat="48.05589" lon="7.08037">
        <ele>495.2</ele>
        <time>2023-08-12T10:53:45Z</time>
      </trkpt>
      <trkpt lat="48.05593" lon="7.08068">
        <ele>494.5</ele>
        <time>2023-08-12T10:53:51Z</time>
      </trkpt>
      <trkpt lat="48.05593" lon="7.08075">
        <ele>494.4</ele>
        <time>2023-08-12T10:53:52Z</time>
      </trkpt>
      <trkpt lat="48.05594" lon="7.08081">
        <ele>494.2</ele>
        <time>2023-08-12T10:53:53Z</time>
      </trkpt>
      <trkpt lat="48.05596" lon="7.08086">
        <ele>494.1</ele>
        <time>2023-08-12T10:53:54Z</time>
      </trkpt>
      <trkpt lat="48.05599" lon="7.08088">
        <ele>493.7</ele>
        <time>2023-08-12T10:53:55Z</time>
      </trkpt>
      <trkpt lat="48.05602" lon="7.08087">
        <ele>493.6</ele>
        <time>2023-08-12T10:53:56Z</time>
      </trkpt>
      <trkpt lat="48.05603" lon="7.08085">
        <ele>493.5</ele>
        <time>2023-08-12T10:53:57Z</time>
      </trkpt>
      <trkpt lat="48.05604" lon="7.08082">
        <ele>493.4</ele>
        <time>2023-08-12T10:53:58Z</time>
      </trkpt>
      <trkpt lat="48.05606" lon="7.08081">
        <ele>493.4</ele>
        <time>2023-08-12T10:53:59Z</time>
      </trkpt>
      <trkpt lat="48.05606" lon="7.0808">
        <ele>493.6</ele>
        <time>2023-08-12T10:54:00Z</time>
      </trkpt>
      <trkpt lat="48.05607" lon="7.08079">
        <ele>493.7</ele>
        <time>2023-08-12T10:54:01Z</time>
      </trkpt>
      <trkpt lat="48.05608" lon="7.08078">
        <ele>493.9</ele>
        <time>2023-08-12T10:54:02Z</time>
      </trkpt>
      <trkpt lat="48.05609" lon="7.08077">
        <ele>494</ele>
        <time>2023-08-12T10:54:03Z</time>
      </trkpt>
      <trkpt lat="48.05611" lon="7.08073">
        <ele>494.3</ele>
        <time>2023-08-12T10:54:05Z</time>
      </trkpt>
      <trkpt lat="48.05612" lon="7.08073">
        <ele>494.5</ele>
        <time>2023-08-12T10:54:06Z</time>
      </trkpt>
      <trkpt lat="48.05613" lon="7.08072">
        <ele>494.6</ele>
        <time>2023-08-12T10:54:07Z</time>
      </trkpt>
      <trkpt lat="48.05615" lon="7.08071">
        <ele>494.8</ele>
        <time>2023-08-12T10:54:08Z</time>
      </trkpt>
      <trkpt lat="48.05616" lon="7.0807">
        <ele>495.3</ele>
        <time>2023-08-12T10:54:09Z</time>
      </trkpt>
      <trkpt lat="48.05622" lon="7.08065">
        <ele>497.2</ele>
        <time>2023-08-12T10:54:13Z</time>
      </trkpt>
      <trkpt lat="48.05623" lon="7.08064">
        <ele>497.6</ele>
        <time>2023-08-12T10:54:14Z</time>
      </trkpt>
      <trkpt lat="48.05625" lon="7.08063">
        <ele>498.1</ele>
        <time>2023-08-12T10:54:15Z</time>
      </trkpt>
      <trkpt lat="48.05626" lon="7.08062">
        <ele>498.1</ele>
        <time>2023-08-12T10:54:16Z</time>
      </trkpt>
      <trkpt lat="48.05628" lon="7.08062">
        <ele>498.3</ele>
        <time>2023-08-12T10:54:17Z</time>
      </trkpt>
      <trkpt lat="48.05629" lon="7.08062">
        <ele>498.4</ele>
        <time>2023-08-12T10:54:18Z</time>
      </trkpt>
      <trkpt lat="48.0563" lon="7.08062">
        <ele>498.5</ele>
        <time>2023-08-12T10:54:19Z</time>
      </trkpt>
      <trkpt lat="48.05631" lon="7.08061">
        <ele>498.7</ele>
        <time>2023-08-12T10:54:20Z</time>
      </trkpt>
      <trkpt lat="48.05632" lon="7.0806">
        <ele>498.8</ele>
        <time>2023-08-12T10:54:21Z</time>
      </trkpt>
      <trkpt lat="48.05633" lon="7.08059">
        <ele>498.9</ele>
        <time>2023-08-12T10:54:22Z</time>
      </trkpt>
      <trkpt lat="48.05635" lon="7.08058">
        <ele>499.1</ele>
        <time>2023-08-12T10:54:23Z</time>
      </trkpt>
      <trkpt lat="48.05636" lon="7.08057">
        <ele>499.2</ele>
        <time>2023-08-12T10:54:24Z</time>
      </trkpt>
      <trkpt lat="48.05638" lon="7.08057">
        <ele>499.4</ele>
        <time>2023-08-12T10:54:25Z</time>
      </trkpt>
      <trkpt lat="48.0564" lon="7.08056">
        <ele>499.5</ele>
        <time>2023-08-12T10:54:26Z</time>
      </trkpt>
      <trkpt lat="48.05641" lon="7.08055">
        <ele>499.7</ele>
        <time>2023-08-12T10:54:27Z</time>
      </trkpt>
      <trkpt lat="48.05643" lon="7.08055">
        <ele>499.8</ele>
        <time>2023-08-12T10:54:28Z</time>
      </trkpt>
      <trkpt lat="48.05644" lon="7.08053">
        <ele>499.8</ele>
        <time>2023-08-12T10:54:29Z</time>
      </trkpt>
      <trkpt lat="48.05644" lon="7.08052">
        <ele>499.9</ele>
        <time>2023-08-12T10:54:30Z</time>
      </trkpt>
      <trkpt lat="48.05645" lon="7.08051">
        <ele>499.9</ele>
        <time>2023-08-12T10:54:31Z</time>
      </trkpt>
      <trkpt lat="48.05645" lon="7.08051">
        <ele>499.9</ele>
        <time>2023-08-12T10:54:32Z</time>
      </trkpt>
      <trkpt lat="48.05645" lon="7.08051">
        <ele>499.9</ele>
        <time>2023-08-12T10:54:35Z</time>
      </trkpt>
      <trkpt lat="48.05645" lon="7.08051">
        <ele>499.9</ele>
        <time>2023-08-12T10:54:42Z</time>
      </trkpt>
      <trkpt lat="48.05645" lon="7.08051">
        <ele>499.9</ele>
        <time>2023-08-12T10:54:44Z</time>
      </trkpt>
      <trkpt lat="48.05645" lon="7.08051">
        <ele>499.9</ele>
        <time>2023-08-12T10:54:45Z</time>
      </trkpt>
      <trkpt lat="48.05646" lon="7.08051">
        <ele>499.9</ele>
        <time>2023-08-12T10:55:04Z</time>
      </trkpt>
      <trkpt lat="48.05648" lon="7.08053">
        <ele>500.2</ele>
        <time>2023-08-12T10:55:06Z</time>
      </trkpt>
      <trkpt lat="48.05649" lon="7.08054">
        <ele>500.3</ele>
        <time>2023-08-12T10:55:07Z</time>
      </trkpt>
      <trkpt lat="48.0565" lon="7.08054">
        <ele>500.4</ele>
        <time>2023-08-12T10:55:08Z</time>
      </trkpt>
      <trkpt lat="48.0565" lon="7.08054">
        <ele>500.4</ele>
        <time>2023-08-12T10:55:12Z</time>
      </trkpt>
      <trkpt lat="48.0565" lon="7.08056">
        <ele>500.6</ele>
        <time>2023-08-12T10:55:24Z</time>
      </trkpt>
      <trkpt lat="48.0565" lon="7.08056">
        <ele>500.6</ele>
        <time>2023-08-12T10:55:52Z</time>
      </trkpt>
      <trkpt lat="48.0565" lon="7.08056">
        <ele>500.6</ele>
        <time>2023-08-12T10:55:55Z</time>
      </trkpt>
      <trkpt lat="48.05652" lon="7.08055">
        <ele>500.8</ele>
        <time>2023-08-12T10:56:12Z</time>
      </trkpt>
      <trkpt lat="48.05657" lon="7.08055">
        <ele>501.5</ele>
        <time>2023-08-12T10:56:15Z</time>
      </trkpt>
      <trkpt lat="48.05662" lon="7.08055">
        <ele>502.1</ele>
        <time>2023-08-12T10:56:17Z</time>
      </trkpt>
      <trkpt lat="48.05663" lon="7.08055">
        <ele>502.3</ele>
        <time>2023-08-12T10:56:18Z</time>
      </trkpt>
      <trkpt lat="48.05669" lon="7.08057">
        <ele>502.8</ele>
        <time>2023-08-12T10:56:21Z</time>
      </trkpt>
      <trkpt lat="48.05674" lon="7.0806">
        <ele>503.2</ele>
        <time>2023-08-12T10:56:24Z</time>
      </trkpt>
      <trkpt lat="48.05677" lon="7.08063">
        <ele>503.4</ele>
        <time>2023-08-12T10:56:26Z</time>
      </trkpt>
      <trkpt lat="48.0568" lon="7.08066">
        <ele>503.6</ele>
        <time>2023-08-12T10:56:28Z</time>
      </trkpt>
      <trkpt lat="48.05692" lon="7.08078">
        <ele>504.2</ele>
        <time>2023-08-12T10:56:34Z</time>
      </trkpt>
      <trkpt lat="48.05693" lon="7.0808">
        <ele>504.3</ele>
        <time>2023-08-12T10:56:35Z</time>
      </trkpt>
      <trkpt lat="48.05696" lon="7.08081">
        <ele>504.4</ele>
        <time>2023-08-12T10:56:36Z</time>
      </trkpt>
      <trkpt lat="48.05698" lon="7.08082">
        <ele>504.5</ele>
        <time>2023-08-12T10:56:37Z</time>
      </trkpt>
      <trkpt lat="48.057" lon="7.08083">
        <ele>504.5</ele>
        <time>2023-08-12T10:56:38Z</time>
      </trkpt>
      <trkpt lat="48.05703" lon="7.08084">
        <ele>504.6</ele>
        <time>2023-08-12T10:56:39Z</time>
      </trkpt>
      <trkpt lat="48.05705" lon="7.08085">
        <ele>504.7</ele>
        <time>2023-08-12T10:56:40Z</time>
      </trkpt>
      <trkpt lat="48.05707" lon="7.08086">
        <ele>504.7</ele>
        <time>2023-08-12T10:56:41Z</time>
      </trkpt>
      <trkpt lat="48.0571" lon="7.08087">
        <ele>504.8</ele>
        <time>2023-08-12T10:56:42Z</time>
      </trkpt>
      <trkpt lat="48.05712" lon="7.08087">
        <ele>504.9</ele>
        <time>2023-08-12T10:56:43Z</time>
      </trkpt>
      <trkpt lat="48.05715" lon="7.08088">
        <ele>505</ele>
        <time>2023-08-12T10:56:44Z</time>
      </trkpt>
      <trkpt lat="48.05717" lon="7.08088">
        <ele>505.1</ele>
        <time>2023-08-12T10:56:45Z</time>
      </trkpt>
      <trkpt lat="48.0572" lon="7.08089">
        <ele>505.3</ele>
        <time>2023-08-12T10:56:46Z</time>
      </trkpt>
      <trkpt lat="48.05722" lon="7.0809">
        <ele>505.4</ele>
        <time>2023-08-12T10:56:47Z</time>
      </trkpt>
      <trkpt lat="48.05727" lon="7.08092">
        <ele>505.7</ele>
        <time>2023-08-12T10:56:49Z</time>
      </trkpt>
      <trkpt lat="48.05729" lon="7.08093">
        <ele>505.8</ele>
        <time>2023-08-12T10:56:50Z</time>
      </trkpt>
      <trkpt lat="48.05735" lon="7.08097">
        <ele>506.2</ele>
        <time>2023-08-12T10:56:53Z</time>
      </trkpt>
      <trkpt lat="48.05737" lon="7.08099">
        <ele>506.4</ele>
        <time>2023-08-12T10:56:54Z</time>
      </trkpt>
      <trkpt lat="48.05739" lon="7.08101">
        <ele>506.5</ele>
        <time>2023-08-12T10:56:55Z</time>
      </trkpt>
      <trkpt lat="48.0574" lon="7.08103">
        <ele>506.7</ele>
        <time>2023-08-12T10:56:56Z</time>
      </trkpt>
      <trkpt lat="48.05741" lon="7.08106">
        <ele>506.9</ele>
        <time>2023-08-12T10:56:57Z</time>
      </trkpt>
      <trkpt lat="48.05745" lon="7.08115">
        <ele>507.5</ele>
        <time>2023-08-12T10:57:00Z</time>
      </trkpt>
      <trkpt lat="48.05746" lon="7.08117">
        <ele>507.7</ele>
        <time>2023-08-12T10:57:01Z</time>
      </trkpt>
      <trkpt lat="48.05747" lon="7.08119">
        <ele>507.9</ele>
        <time>2023-08-12T10:57:02Z</time>
      </trkpt>
      <trkpt lat="48.05749" lon="7.08122">
        <ele>508</ele>
        <time>2023-08-12T10:57:03Z</time>
      </trkpt>
      <trkpt lat="48.0575" lon="7.08124">
        <ele>508.2</ele>
        <time>2023-08-12T10:57:04Z</time>
      </trkpt>
      <trkpt lat="48.05751" lon="7.08126">
        <ele>508.4</ele>
        <time>2023-08-12T10:57:05Z</time>
      </trkpt>
      <trkpt lat="48.05753" lon="7.08128">
        <ele>508.6</ele>
        <time>2023-08-12T10:57:06Z</time>
      </trkpt>
      <trkpt lat="48.05754" lon="7.0813">
        <ele>508.9</ele>
        <time>2023-08-12T10:57:07Z</time>
      </trkpt>
      <trkpt lat="48.05755" lon="7.08132">
        <ele>509.1</ele>
        <time>2023-08-12T10:57:08Z</time>
      </trkpt>
      <trkpt lat="48.05756" lon="7.08134">
        <ele>509.3</ele>
        <time>2023-08-12T10:57:09Z</time>
      </trkpt>
      <trkpt lat="48.05757" lon="7.08136">
        <ele>509.5</ele>
        <time>2023-08-12T10:57:10Z</time>
      </trkpt>
      <trkpt lat="48.05758" lon="7.08138">
        <ele>509.7</ele>
        <time>2023-08-12T10:57:11Z</time>
      </trkpt>
      <trkpt lat="48.05759" lon="7.0814">
        <ele>509.9</ele>
        <time>2023-08-12T10:57:12Z</time>
      </trkpt>
      <trkpt lat="48.05761" lon="7.08142">
        <ele>510.2</ele>
        <time>2023-08-12T10:57:13Z</time>
      </trkpt>
      <trkpt lat="48.05762" lon="7.08144">
        <ele>510.4</ele>
        <time>2023-08-12T10:57:14Z</time>
      </trkpt>
      <trkpt lat="48.05763" lon="7.08146">
        <ele>510.6</ele>
        <time>2023-08-12T10:57:15Z</time>
      </trkpt>
      <trkpt lat="48.05764" lon="7.08149">
        <ele>510.8</ele>
        <time>2023-08-12T10:57:16Z</time>
      </trkpt>
      <trkpt lat="48.05764" lon="7.08151">
        <ele>511</ele>
        <time>2023-08-12T10:57:17Z</time>
      </trkpt>
      <trkpt lat="48.05765" lon="7.08153">
        <ele>511.2</ele>
        <time>2023-08-12T10:57:18Z</time>
      </trkpt>
      <trkpt lat="48.05766" lon="7.08155">
        <ele>511.4</ele>
        <time>2023-08-12T10:57:19Z</time>
      </trkpt>
      <trkpt lat="48.05766" lon="7.08158">
        <ele>511.7</ele>
        <time>2023-08-12T10:57:20Z</time>
      </trkpt>
      <trkpt lat="48.05767" lon="7.0816">
        <ele>511.9</ele>
        <time>2023-08-12T10:57:21Z</time>
      </trkpt>
      <trkpt lat="48.05768" lon="7.08163">
        <ele>512.2</ele>
        <time>2023-08-12T10:57:22Z</time>
      </trkpt>
      <trkpt lat="48.05768" lon="7.08165">
        <ele>512.4</ele>
        <time>2023-08-12T10:57:23Z</time>
      </trkpt>
      <trkpt lat="48.05769" lon="7.08168">
        <ele>512.6</ele>
        <time>2023-08-12T10:57:24Z</time>
      </trkpt>
      <trkpt lat="48.0577" lon="7.0817">
        <ele>512.9</ele>
        <time>2023-08-12T10:57:25Z</time>
      </trkpt>
      <trkpt lat="48.0577" lon="7.08173">
        <ele>513.1</ele>
        <time>2023-08-12T10:57:26Z</time>
      </trkpt>
      <trkpt lat="48.05771" lon="7.08176">
        <ele>513.4</ele>
        <time>2023-08-12T10:57:27Z</time>
      </trkpt>
      <trkpt lat="48.05772" lon="7.08179">
        <ele>513.6</ele>
        <time>2023-08-12T10:57:28Z</time>
      </trkpt>
      <trkpt lat="48.05772" lon="7.08181">
        <ele>513.9</ele>
        <time>2023-08-12T10:57:29Z</time>
      </trkpt>
      <trkpt lat="48.05773" lon="7.08184">
        <ele>514.1</ele>
        <time>2023-08-12T10:57:30Z</time>
      </trkpt>
      <trkpt lat="48.05773" lon="7.08187">
        <ele>514.4</ele>
        <time>2023-08-12T10:57:31Z</time>
      </trkpt>
      <trkpt lat="48.05774" lon="7.08189">
        <ele>514.6</ele>
        <time>2023-08-12T10:57:32Z</time>
      </trkpt>
      <trkpt lat="48.05774" lon="7.08192">
        <ele>514.9</ele>
        <time>2023-08-12T10:57:33Z</time>
      </trkpt>
      <trkpt lat="48.05774" lon="7.08195">
        <ele>515.1</ele>
        <time>2023-08-12T10:57:34Z</time>
      </trkpt>
      <trkpt lat="48.05775" lon="7.08198">
        <ele>515.4</ele>
        <time>2023-08-12T10:57:35Z</time>
      </trkpt>
      <trkpt lat="48.05775" lon="7.082">
        <ele>515.7</ele>
        <time>2023-08-12T10:57:36Z</time>
      </trkpt>
      <trkpt lat="48.05775" lon="7.08203">
        <ele>515.9</ele>
        <time>2023-08-12T10:57:37Z</time>
      </trkpt>
      <trkpt lat="48.05775" lon="7.08205">
        <ele>516.1</ele>
        <time>2023-08-12T10:57:38Z</time>
      </trkpt>
      <trkpt lat="48.05775" lon="7.08208">
        <ele>516.4</ele>
        <time>2023-08-12T10:57:39Z</time>
      </trkpt>
      <trkpt lat="48.05776" lon="7.0821">
        <ele>516.6</ele>
        <time>2023-08-12T10:57:40Z</time>
      </trkpt>
      <trkpt lat="48.05776" lon="7.08213">
        <ele>516.9</ele>
        <time>2023-08-12T10:57:41Z</time>
      </trkpt>
      <trkpt lat="48.05777" lon="7.08216">
        <ele>517.1</ele>
        <time>2023-08-12T10:57:42Z</time>
      </trkpt>
      <trkpt lat="48.05778" lon="7.08218">
        <ele>517.4</ele>
        <time>2023-08-12T10:57:43Z</time>
      </trkpt>
      <trkpt lat="48.05779" lon="7.0822">
        <ele>517.6</ele>
        <time>2023-08-12T10:57:44Z</time>
      </trkpt>
      <trkpt lat="48.0578" lon="7.08223">
        <ele>517.9</ele>
        <time>2023-08-12T10:57:45Z</time>
      </trkpt>
      <trkpt lat="48.05782" lon="7.08224">
        <ele>518.1</ele>
        <time>2023-08-12T10:57:46Z</time>
      </trkpt>
      <trkpt lat="48.05784" lon="7.08225">
        <ele>518.4</ele>
        <time>2023-08-12T10:57:47Z</time>
      </trkpt>
      <trkpt lat="48.05786" lon="7.08224">
        <ele>519.5</ele>
        <time>2023-08-12T10:57:48Z</time>
      </trkpt>
      <trkpt lat="48.05787" lon="7.08222">
        <ele>519.7</ele>
        <time>2023-08-12T10:57:49Z</time>
      </trkpt>
      <trkpt lat="48.05788" lon="7.08218">
        <ele>519.9</ele>
        <time>2023-08-12T10:57:50Z</time>
      </trkpt>
      <trkpt lat="48.05789" lon="7.08215">
        <ele>520.1</ele>
        <time>2023-08-12T10:57:51Z</time>
      </trkpt>
      <trkpt lat="48.0579" lon="7.08212">
        <ele>520.3</ele>
        <time>2023-08-12T10:57:52Z</time>
      </trkpt>
      <trkpt lat="48.05791" lon="7.08209">
        <ele>520.5</ele>
        <time>2023-08-12T10:57:53Z</time>
      </trkpt>
      <trkpt lat="48.05791" lon="7.08205">
        <ele>520.7</ele>
        <time>2023-08-12T10:57:54Z</time>
      </trkpt>
      <trkpt lat="48.05791" lon="7.08202">
        <ele>521</ele>
        <time>2023-08-12T10:57:55Z</time>
      </trkpt>
      <trkpt lat="48.05791" lon="7.08199">
        <ele>521.2</ele>
        <time>2023-08-12T10:57:56Z</time>
      </trkpt>
      <trkpt lat="48.05791" lon="7.08196">
        <ele>521.4</ele>
        <time>2023-08-12T10:57:57Z</time>
      </trkpt>
      <trkpt lat="48.05791" lon="7.08193">
        <ele>521.6</ele>
        <time>2023-08-12T10:57:58Z</time>
      </trkpt>
      <trkpt lat="48.05791" lon="7.0819">
        <ele>521.8</ele>
        <time>2023-08-12T10:57:59Z</time>
      </trkpt>
      <trkpt lat="48.05791" lon="7.08187">
        <ele>522.1</ele>
        <time>2023-08-12T10:58:00Z</time>
      </trkpt>
      <trkpt lat="48.05791" lon="7.08184">
        <ele>522.3</ele>
        <time>2023-08-12T10:58:01Z</time>
      </trkpt>
      <trkpt lat="48.05792" lon="7.08181">
        <ele>522.5</ele>
        <time>2023-08-12T10:58:02Z</time>
      </trkpt>
      <trkpt lat="48.05791" lon="7.08178">
        <ele>522.8</ele>
        <time>2023-08-12T10:58:03Z</time>
      </trkpt>
      <trkpt lat="48.05791" lon="7.08176">
        <ele>523</ele>
        <time>2023-08-12T10:58:04Z</time>
      </trkpt>
      <trkpt lat="48.05792" lon="7.08173">
        <ele>523.2</ele>
        <time>2023-08-12T10:58:05Z</time>
      </trkpt>
      <trkpt lat="48.05792" lon="7.0817">
        <ele>523.4</ele>
        <time>2023-08-12T10:58:06Z</time>
      </trkpt>
      <trkpt lat="48.05792" lon="7.08167">
        <ele>523.6</ele>
        <time>2023-08-12T10:58:07Z</time>
      </trkpt>
      <trkpt lat="48.05792" lon="7.08164">
        <ele>523.9</ele>
        <time>2023-08-12T10:58:08Z</time>
      </trkpt>
      <trkpt lat="48.05792" lon="7.08161">
        <ele>524.1</ele>
        <time>2023-08-12T10:58:09Z</time>
      </trkpt>
      <trkpt lat="48.05792" lon="7.08159">
        <ele>524.3</ele>
        <time>2023-08-12T10:58:10Z</time>
      </trkpt>
      <trkpt lat="48.05793" lon="7.08156">
        <ele>524.6</ele>
        <time>2023-08-12T10:58:11Z</time>
      </trkpt>
      <trkpt lat="48.05793" lon="7.08153">
        <ele>524.8</ele>
        <time>2023-08-12T10:58:12Z</time>
      </trkpt>
      <trkpt lat="48.05793" lon="7.0815">
        <ele>525.1</ele>
        <time>2023-08-12T10:58:13Z</time>
      </trkpt>
      <trkpt lat="48.05793" lon="7.08147">
        <ele>525.3</ele>
        <time>2023-08-12T10:58:14Z</time>
      </trkpt>
      <trkpt lat="48.05793" lon="7.08144">
        <ele>525.6</ele>
        <time>2023-08-12T10:58:15Z</time>
      </trkpt>
      <trkpt lat="48.05794" lon="7.08141">
        <ele>525.8</ele>
        <time>2023-08-12T10:58:16Z</time>
      </trkpt>
      <trkpt lat="48.05794" lon="7.08139">
        <ele>526</ele>
        <time>2023-08-12T10:58:17Z</time>
      </trkpt>
      <trkpt lat="48.05795" lon="7.08136">
        <ele>526.3</ele>
        <time>2023-08-12T10:58:18Z</time>
      </trkpt>
      <trkpt lat="48.05795" lon="7.08134">
        <ele>526.5</ele>
        <time>2023-08-12T10:58:19Z</time>
      </trkpt>
      <trkpt lat="48.05795" lon="7.08131">
        <ele>526.7</ele>
        <time>2023-08-12T10:58:20Z</time>
      </trkpt>
      <trkpt lat="48.05796" lon="7.08128">
        <ele>527</ele>
        <time>2023-08-12T10:58:21Z</time>
      </trkpt>
      <trkpt lat="48.05796" lon="7.08124">
        <ele>527.2</ele>
        <time>2023-08-12T10:58:22Z</time>
      </trkpt>
      <trkpt lat="48.05796" lon="7.08121">
        <ele>527.5</ele>
        <time>2023-08-12T10:58:23Z</time>
      </trkpt>
      <trkpt lat="48.05797" lon="7.08119">
        <ele>527.7</ele>
        <time>2023-08-12T10:58:24Z</time>
      </trkpt>
      <trkpt lat="48.05798" lon="7.08116">
        <ele>527.9</ele>
        <time>2023-08-12T10:58:25Z</time>
      </trkpt>
      <trkpt lat="48.05799" lon="7.08113">
        <ele>528.2</ele>
        <time>2023-08-12T10:58:26Z</time>
      </trkpt>
      <trkpt lat="48.05799" lon="7.0811">
        <ele>528.4</ele>
        <time>2023-08-12T10:58:27Z</time>
      </trkpt>
      <trkpt lat="48.05799" lon="7.08107">
        <ele>528.7</ele>
        <time>2023-08-12T10:58:28Z</time>
      </trkpt>
      <trkpt lat="48.058" lon="7.08104">
        <ele>528.9</ele>
        <time>2023-08-12T10:58:29Z</time>
      </trkpt>
      <trkpt lat="48.05801" lon="7.08101">
        <ele>529.1</ele>
        <time>2023-08-12T10:58:30Z</time>
      </trkpt>
      <trkpt lat="48.05801" lon="7.08098">
        <ele>529.4</ele>
        <time>2023-08-12T10:58:31Z</time>
      </trkpt>
      <trkpt lat="48.05801" lon="7.08095">
        <ele>529.6</ele>
        <time>2023-08-12T10:58:32Z</time>
      </trkpt>
      <trkpt lat="48.05801" lon="7.08093">
        <ele>529.9</ele>
        <time>2023-08-12T10:58:33Z</time>
      </trkpt>
      <trkpt lat="48.05802" lon="7.0809">
        <ele>530.1</ele>
        <time>2023-08-12T10:58:34Z</time>
      </trkpt>
      <trkpt lat="48.05802" lon="7.08087">
        <ele>530.3</ele>
        <time>2023-08-12T10:58:35Z</time>
      </trkpt>
      <trkpt lat="48.05802" lon="7.08084">
        <ele>530.5</ele>
        <time>2023-08-12T10:58:36Z</time>
      </trkpt>
      <trkpt lat="48.05802" lon="7.08082">
        <ele>530.8</ele>
        <time>2023-08-12T10:58:37Z</time>
      </trkpt>
      <trkpt lat="48.05803" lon="7.0808">
        <ele>530.9</ele>
        <time>2023-08-12T10:58:38Z</time>
      </trkpt>
      <trkpt lat="48.05803" lon="7.08077">
        <ele>531.2</ele>
        <time>2023-08-12T10:58:39Z</time>
      </trkpt>
      <trkpt lat="48.05803" lon="7.08074">
        <ele>531.4</ele>
        <time>2023-08-12T10:58:40Z</time>
      </trkpt>
      <trkpt lat="48.05804" lon="7.08072">
        <ele>531.6</ele>
        <time>2023-08-12T10:58:41Z</time>
      </trkpt>
      <trkpt lat="48.05805" lon="7.0807">
        <ele>531.8</ele>
        <time>2023-08-12T10:58:42Z</time>
      </trkpt>
      <trkpt lat="48.05805" lon="7.08068">
        <ele>532.1</ele>
        <time>2023-08-12T10:58:43Z</time>
      </trkpt>
      <trkpt lat="48.05806" lon="7.08065">
        <ele>532.3</ele>
        <time>2023-08-12T10:58:44Z</time>
      </trkpt>
      <trkpt lat="48.05806" lon="7.08063">
        <ele>532.5</ele>
        <time>2023-08-12T10:58:45Z</time>
      </trkpt>
      <trkpt lat="48.05807" lon="7.08061">
        <ele>532.7</ele>
        <time>2023-08-12T10:58:46Z</time>
      </trkpt>
      <trkpt lat="48.05807" lon="7.08058">
        <ele>532.9</ele>
        <time>2023-08-12T10:58:47Z</time>
      </trkpt>
      <trkpt lat="48.05807" lon="7.08057">
        <ele>533.1</ele>
        <time>2023-08-12T10:58:48Z</time>
      </trkpt>
      <trkpt lat="48.05807" lon="7.08054">
        <ele>533.4</ele>
        <time>2023-08-12T10:58:49Z</time>
      </trkpt>
      <trkpt lat="48.05807" lon="7.08051">
        <ele>533.6</ele>
        <time>2023-08-12T10:58:50Z</time>
      </trkpt>
      <trkpt lat="48.05807" lon="7.08049">
        <ele>533.8</ele>
        <time>2023-08-12T10:58:51Z</time>
      </trkpt>
      <trkpt lat="48.05807" lon="7.08046">
        <ele>534</ele>
        <time>2023-08-12T10:58:52Z</time>
      </trkpt>
      <trkpt lat="48.05807" lon="7.08044">
        <ele>534.3</ele>
        <time>2023-08-12T10:58:53Z</time>
      </trkpt>
      <trkpt lat="48.05807" lon="7.08042">
        <ele>534.5</ele>
        <time>2023-08-12T10:58:54Z</time>
      </trkpt>
      <trkpt lat="48.05807" lon="7.0804">
        <ele>534.7</ele>
        <time>2023-08-12T10:58:55Z</time>
      </trkpt>
      <trkpt lat="48.05808" lon="7.08037">
        <ele>534.9</ele>
        <time>2023-08-12T10:58:56Z</time>
      </trkpt>
      <trkpt lat="48.05808" lon="7.08035">
        <ele>535.2</ele>
        <time>2023-08-12T10:58:57Z</time>
      </trkpt>
      <trkpt lat="48.05808" lon="7.08032">
        <ele>535.4</ele>
        <time>2023-08-12T10:58:58Z</time>
      </trkpt>
      <trkpt lat="48.05808" lon="7.0803">
        <ele>535.6</ele>
        <time>2023-08-12T10:58:59Z</time>
      </trkpt>
      <trkpt lat="48.05809" lon="7.08028">
        <ele>535.8</ele>
        <time>2023-08-12T10:59:00Z</time>
      </trkpt>
      <trkpt lat="48.05809" lon="7.08025">
        <ele>536.1</ele>
        <time>2023-08-12T10:59:01Z</time>
      </trkpt>
      <trkpt lat="48.05809" lon="7.08023">
        <ele>536.3</ele>
        <time>2023-08-12T10:59:02Z</time>
      </trkpt>
      <trkpt lat="48.0581" lon="7.0802">
        <ele>536.5</ele>
        <time>2023-08-12T10:59:03Z</time>
      </trkpt>
      <trkpt lat="48.05811" lon="7.08018">
        <ele>536.8</ele>
        <time>2023-08-12T10:59:04Z</time>
      </trkpt>
      <trkpt lat="48.05811" lon="7.08016">
        <ele>537</ele>
        <time>2023-08-12T10:59:05Z</time>
      </trkpt>
      <trkpt lat="48.05811" lon="7.08013">
        <ele>537.2</ele>
        <time>2023-08-12T10:59:06Z</time>
      </trkpt>
      <trkpt lat="48.05811" lon="7.08011">
        <ele>537.5</ele>
        <time>2023-08-12T10:59:07Z</time>
      </trkpt>
      <trkpt lat="48.05812" lon="7.08009">
        <ele>537.7</ele>
        <time>2023-08-12T10:59:08Z</time>
      </trkpt>
      <trkpt lat="48.05812" lon="7.08007">
        <ele>537.8</ele>
        <time>2023-08-12T10:59:09Z</time>
      </trkpt>
      <trkpt lat="48.05812" lon="7.08004">
        <ele>538</ele>
        <time>2023-08-12T10:59:10Z</time>
      </trkpt>
      <trkpt lat="48.05813" lon="7.08002">
        <ele>538.2</ele>
        <time>2023-08-12T10:59:11Z</time>
      </trkpt>
      <trkpt lat="48.05813" lon="7.08">
        <ele>538.4</ele>
        <time>2023-08-12T10:59:12Z</time>
      </trkpt>
      <trkpt lat="48.05813" lon="7.07998">
        <ele>538.6</ele>
        <time>2023-08-12T10:59:13Z</time>
      </trkpt>
      <trkpt lat="48.05814" lon="7.07996">
        <ele>538.8</ele>
        <time>2023-08-12T10:59:14Z</time>
      </trkpt>
      <trkpt lat="48.05814" lon="7.07993">
        <ele>539</ele>
        <time>2023-08-12T10:59:15Z</time>
      </trkpt>
      <trkpt lat="48.05815" lon="7.0799">
        <ele>539.2</ele>
        <time>2023-08-12T10:59:16Z</time>
      </trkpt>
      <trkpt lat="48.05815" lon="7.07988">
        <ele>539.4</ele>
        <time>2023-08-12T10:59:17Z</time>
      </trkpt>
      <trkpt lat="48.05815" lon="7.07985">
        <ele>539.6</ele>
        <time>2023-08-12T10:59:18Z</time>
      </trkpt>
      <trkpt lat="48.05816" lon="7.07982">
        <ele>539.8</ele>
        <time>2023-08-12T10:59:19Z</time>
      </trkpt>
      <trkpt lat="48.05816" lon="7.07979">
        <ele>540</ele>
        <time>2023-08-12T10:59:20Z</time>
      </trkpt>
      <trkpt lat="48.05816" lon="7.07977">
        <ele>540.2</ele>
        <time>2023-08-12T10:59:21Z</time>
      </trkpt>
      <trkpt lat="48.05817" lon="7.07974">
        <ele>540.4</ele>
        <time>2023-08-12T10:59:22Z</time>
      </trkpt>
      <trkpt lat="48.05817" lon="7.07971">
        <ele>540.6</ele>
        <time>2023-08-12T10:59:23Z</time>
      </trkpt>
      <trkpt lat="48.05819" lon="7.07968">
        <ele>540.8</ele>
        <time>2023-08-12T10:59:24Z</time>
      </trkpt>
      <trkpt lat="48.05819" lon="7.07966">
        <ele>541</ele>
        <time>2023-08-12T10:59:25Z</time>
      </trkpt>
      <trkpt lat="48.0582" lon="7.07963">
        <ele>541.2</ele>
        <time>2023-08-12T10:59:26Z</time>
      </trkpt>
      <trkpt lat="48.0582" lon="7.0796">
        <ele>541.4</ele>
        <time>2023-08-12T10:59:27Z</time>
      </trkpt>
      <trkpt lat="48.05821" lon="7.07958">
        <ele>541.6</ele>
        <time>2023-08-12T10:59:28Z</time>
      </trkpt>
      <trkpt lat="48.05821" lon="7.07956">
        <ele>541.7</ele>
        <time>2023-08-12T10:59:29Z</time>
      </trkpt>
      <trkpt lat="48.05821" lon="7.07953">
        <ele>541.9</ele>
        <time>2023-08-12T10:59:30Z</time>
      </trkpt>
      <trkpt lat="48.05822" lon="7.07951">
        <ele>542</ele>
        <time>2023-08-12T10:59:31Z</time>
      </trkpt>
      <trkpt lat="48.05823" lon="7.07949">
        <ele>542.3</ele>
        <time>2023-08-12T10:59:32Z</time>
      </trkpt>
      <trkpt lat="48.05823" lon="7.07946">
        <ele>542.5</ele>
        <time>2023-08-12T10:59:33Z</time>
      </trkpt>
      <trkpt lat="48.05824" lon="7.07943">
        <ele>542.7</ele>
        <time>2023-08-12T10:59:34Z</time>
      </trkpt>
      <trkpt lat="48.05824" lon="7.07941">
        <ele>542.8</ele>
        <time>2023-08-12T10:59:35Z</time>
      </trkpt>
      <trkpt lat="48.05824" lon="7.0794">
        <ele>543</ele>
        <time>2023-08-12T10:59:36Z</time>
      </trkpt>
      <trkpt lat="48.05825" lon="7.07938">
        <ele>543.1</ele>
        <time>2023-08-12T10:59:37Z</time>
      </trkpt>
      <trkpt lat="48.05826" lon="7.07936">
        <ele>543.3</ele>
        <time>2023-08-12T10:59:38Z</time>
      </trkpt>
      <trkpt lat="48.05827" lon="7.07934">
        <ele>543.5</ele>
        <time>2023-08-12T10:59:39Z</time>
      </trkpt>
      <trkpt lat="48.05828" lon="7.07931">
        <ele>543.7</ele>
        <time>2023-08-12T10:59:40Z</time>
      </trkpt>
      <trkpt lat="48.05829" lon="7.07929">
        <ele>543.9</ele>
        <time>2023-08-12T10:59:41Z</time>
      </trkpt>
      <trkpt lat="48.0583" lon="7.07927">
        <ele>544.1</ele>
        <time>2023-08-12T10:59:42Z</time>
      </trkpt>
      <trkpt lat="48.05832" lon="7.07925">
        <ele>544.3</ele>
        <time>2023-08-12T10:59:43Z</time>
      </trkpt>
      <trkpt lat="48.05833" lon="7.07923">
        <ele>544.5</ele>
        <time>2023-08-12T10:59:44Z</time>
      </trkpt>
      <trkpt lat="48.05834" lon="7.07921">
        <ele>544.7</ele>
        <time>2023-08-12T10:59:45Z</time>
      </trkpt>
      <trkpt lat="48.05835" lon="7.07919">
        <ele>544.8</ele>
        <time>2023-08-12T10:59:46Z</time>
      </trkpt>
      <trkpt lat="48.05836" lon="7.07916">
        <ele>545.1</ele>
        <time>2023-08-12T10:59:47Z</time>
      </trkpt>
      <trkpt lat="48.05836" lon="7.07914">
        <ele>545.2</ele>
        <time>2023-08-12T10:59:48Z</time>
      </trkpt>
      <trkpt lat="48.05837" lon="7.07912">
        <ele>545.4</ele>
        <time>2023-08-12T10:59:49Z</time>
      </trkpt>
      <trkpt lat="48.05838" lon="7.0791">
        <ele>545.6</ele>
        <time>2023-08-12T10:59:50Z</time>
      </trkpt>
      <trkpt lat="48.0584" lon="7.07907">
        <ele>545.8</ele>
        <time>2023-08-12T10:59:51Z</time>
      </trkpt>
      <trkpt lat="48.05841" lon="7.07905">
        <ele>546</ele>
        <time>2023-08-12T10:59:52Z</time>
      </trkpt>
      <trkpt lat="48.05842" lon="7.07903">
        <ele>546.2</ele>
        <time>2023-08-12T10:59:53Z</time>
      </trkpt>
      <trkpt lat="48.05842" lon="7.079">
        <ele>546.4</ele>
        <time>2023-08-12T10:59:54Z</time>
      </trkpt>
      <trkpt lat="48.05843" lon="7.07897">
        <ele>546.6</ele>
        <time>2023-08-12T10:59:55Z</time>
      </trkpt>
      <trkpt lat="48.05844" lon="7.07894">
        <ele>546.8</ele>
        <time>2023-08-12T10:59:56Z</time>
      </trkpt>
      <trkpt lat="48.05844" lon="7.07892">
        <ele>547</ele>
        <time>2023-08-12T10:59:57Z</time>
      </trkpt>
      <trkpt lat="48.05844" lon="7.07889">
        <ele>547.2</ele>
        <time>2023-08-12T10:59:58Z</time>
      </trkpt>
      <trkpt lat="48.05844" lon="7.07887">
        <ele>547.3</ele>
        <time>2023-08-12T10:59:59Z</time>
      </trkpt>
      <trkpt lat="48.05844" lon="7.07884">
        <ele>547.5</ele>
        <time>2023-08-12T11:00:00Z</time>
      </trkpt>
      <trkpt lat="48.05844" lon="7.07881">
        <ele>547.7</ele>
        <time>2023-08-12T11:00:01Z</time>
      </trkpt>
      <trkpt lat="48.05844" lon="7.07879">
        <ele>547.8</ele>
        <time>2023-08-12T11:00:02Z</time>
      </trkpt>
      <trkpt lat="48.05844" lon="7.07876">
        <ele>548</ele>
        <time>2023-08-12T11:00:03Z</time>
      </trkpt>
      <trkpt lat="48.05843" lon="7.07874">
        <ele>548.2</ele>
        <time>2023-08-12T11:00:04Z</time>
      </trkpt>
      <trkpt lat="48.05842" lon="7.07871">
        <ele>548.4</ele>
        <time>2023-08-12T11:00:05Z</time>
      </trkpt>
      <trkpt lat="48.05842" lon="7.07869">
        <ele>548.5</ele>
        <time>2023-08-12T11:00:06Z</time>
      </trkpt>
      <trkpt lat="48.05841" lon="7.07867">
        <ele>548.7</ele>
        <time>2023-08-12T11:00:07Z</time>
      </trkpt>
      <trkpt lat="48.0584" lon="7.07864">
        <ele>548.9</ele>
        <time>2023-08-12T11:00:08Z</time>
      </trkpt>
      <trkpt lat="48.05839" lon="7.07862">
        <ele>549.1</ele>
        <time>2023-08-12T11:00:09Z</time>
      </trkpt>
      <trkpt lat="48.05838" lon="7.0786">
        <ele>549.2</ele>
        <time>2023-08-12T11:00:10Z</time>
      </trkpt>
      <trkpt lat="48.05836" lon="7.07859">
        <ele>549.4</ele>
        <time>2023-08-12T11:00:11Z</time>
      </trkpt>
      <trkpt lat="48.05835" lon="7.07857">
        <ele>549.6</ele>
        <time>2023-08-12T11:00:12Z</time>
      </trkpt>
      <trkpt lat="48.05834" lon="7.07856">
        <ele>549.7</ele>
        <time>2023-08-12T11:00:13Z</time>
      </trkpt>
      <trkpt lat="48.05833" lon="7.07855">
        <ele>549.8</ele>
        <time>2023-08-12T11:00:14Z</time>
      </trkpt>
      <trkpt lat="48.05833" lon="7.07853">
        <ele>550</ele>
        <time>2023-08-12T11:00:15Z</time>
      </trkpt>
      <trkpt lat="48.05832" lon="7.07852">
        <ele>550.1</ele>
        <time>2023-08-12T11:00:16Z</time>
      </trkpt>
      <trkpt lat="48.0583" lon="7.0785">
        <ele>550.3</ele>
        <time>2023-08-12T11:00:17Z</time>
      </trkpt>
      <trkpt lat="48.05829" lon="7.07848">
        <ele>550.5</ele>
        <time>2023-08-12T11:00:18Z</time>
      </trkpt>
      <trkpt lat="48.05829" lon="7.07846">
        <ele>550.6</ele>
        <time>2023-08-12T11:00:19Z</time>
      </trkpt>
      <trkpt lat="48.05828" lon="7.07845">
        <ele>550.8</ele>
        <time>2023-08-12T11:00:20Z</time>
      </trkpt>
      <trkpt lat="48.05827" lon="7.07844">
        <ele>550.9</ele>
        <time>2023-08-12T11:00:21Z</time>
      </trkpt>
      <trkpt lat="48.05825" lon="7.07842">
        <ele>551.1</ele>
        <time>2023-08-12T11:00:22Z</time>
      </trkpt>
      <trkpt lat="48.05825" lon="7.07841">
        <ele>551.2</ele>
        <time>2023-08-12T11:00:23Z</time>
      </trkpt>
      <trkpt lat="48.05823" lon="7.07839">
        <ele>551.4</ele>
        <time>2023-08-12T11:00:24Z</time>
      </trkpt>
      <trkpt lat="48.05822" lon="7.07836">
        <ele>551.6</ele>
        <time>2023-08-12T11:00:25Z</time>
      </trkpt>
      <trkpt lat="48.05821" lon="7.07834">
        <ele>551.8</ele>
        <time>2023-08-12T11:00:26Z</time>
      </trkpt>
      <trkpt lat="48.0582" lon="7.07831">
        <ele>552</ele>
        <time>2023-08-12T11:00:27Z</time>
      </trkpt>
      <trkpt lat="48.0582" lon="7.0783">
        <ele>552.1</ele>
        <time>2023-08-12T11:00:28Z</time>
      </trkpt>
      <trkpt lat="48.05819" lon="7.07828">
        <ele>552.3</ele>
        <time>2023-08-12T11:00:29Z</time>
      </trkpt>
      <trkpt lat="48.05818" lon="7.07826">
        <ele>552.4</ele>
        <time>2023-08-12T11:00:30Z</time>
      </trkpt>
      <trkpt lat="48.05817" lon="7.07824">
        <ele>552.6</ele>
        <time>2023-08-12T11:00:31Z</time>
      </trkpt>
      <trkpt lat="48.05816" lon="7.07822">
        <ele>552.7</ele>
        <time>2023-08-12T11:00:32Z</time>
      </trkpt>
      <trkpt lat="48.05816" lon="7.07819">
        <ele>552.9</ele>
        <time>2023-08-12T11:00:33Z</time>
      </trkpt>
      <trkpt lat="48.05815" lon="7.07817">
        <ele>553.1</ele>
        <time>2023-08-12T11:00:34Z</time>
      </trkpt>
      <trkpt lat="48.05815" lon="7.07814">
        <ele>553.3</ele>
        <time>2023-08-12T11:00:35Z</time>
      </trkpt>
      <trkpt lat="48.05814" lon="7.07811">
        <ele>553.5</ele>
        <time>2023-08-12T11:00:36Z</time>
      </trkpt>
      <trkpt lat="48.05813" lon="7.07807">
        <ele>553.9</ele>
        <time>2023-08-12T11:00:37Z</time>
      </trkpt>
      <trkpt lat="48.05813" lon="7.07805">
        <ele>554</ele>
        <time>2023-08-12T11:00:38Z</time>
      </trkpt>
      <trkpt lat="48.05813" lon="7.07802">
        <ele>554.2</ele>
        <time>2023-08-12T11:00:39Z</time>
      </trkpt>
      <trkpt lat="48.05812" lon="7.07799">
        <ele>554.4</ele>
        <time>2023-08-12T11:00:40Z</time>
      </trkpt>
      <trkpt lat="48.05812" lon="7.07796">
        <ele>554.5</ele>
        <time>2023-08-12T11:00:41Z</time>
      </trkpt>
      <trkpt lat="48.05811" lon="7.07793">
        <ele>554.8</ele>
        <time>2023-08-12T11:00:42Z</time>
      </trkpt>
      <trkpt lat="48.0581" lon="7.07789">
        <ele>555</ele>
        <time>2023-08-12T11:00:43Z</time>
      </trkpt>
      <trkpt lat="48.0581" lon="7.07787">
        <ele>555.1</ele>
        <time>2023-08-12T11:00:44Z</time>
      </trkpt>
      <trkpt lat="48.05809" lon="7.07783">
        <ele>555.4</ele>
        <time>2023-08-12T11:00:45Z</time>
      </trkpt>
      <trkpt lat="48.05809" lon="7.0778">
        <ele>555.6</ele>
        <time>2023-08-12T11:00:46Z</time>
      </trkpt>
      <trkpt lat="48.05808" lon="7.07776">
        <ele>555.9</ele>
        <time>2023-08-12T11:00:47Z</time>
      </trkpt>
      <trkpt lat="48.05808" lon="7.07773">
        <ele>556.1</ele>
        <time>2023-08-12T11:00:48Z</time>
      </trkpt>
      <trkpt lat="48.05807" lon="7.07769">
        <ele>556.3</ele>
        <time>2023-08-12T11:00:49Z</time>
      </trkpt>
      <trkpt lat="48.05807" lon="7.07767">
        <ele>556.4</ele>
        <time>2023-08-12T11:00:50Z</time>
      </trkpt>
      <trkpt lat="48.05807" lon="7.07763">
        <ele>556.7</ele>
        <time>2023-08-12T11:00:51Z</time>
      </trkpt>
      <trkpt lat="48.05806" lon="7.07758">
        <ele>557</ele>
        <time>2023-08-12T11:00:52Z</time>
      </trkpt>
      <trkpt lat="48.05806" lon="7.07754">
        <ele>557.2</ele>
        <time>2023-08-12T11:00:53Z</time>
      </trkpt>
      <trkpt lat="48.05805" lon="7.07751">
        <ele>557.5</ele>
        <time>2023-08-12T11:00:54Z</time>
      </trkpt>
      <trkpt lat="48.05806" lon="7.07748">
        <ele>557.6</ele>
        <time>2023-08-12T11:00:55Z</time>
      </trkpt>
      <trkpt lat="48.05807" lon="7.07746">
        <ele>557.8</ele>
        <time>2023-08-12T11:00:56Z</time>
      </trkpt>
      <trkpt lat="48.05807" lon="7.07743">
        <ele>558</ele>
        <time>2023-08-12T11:00:57Z</time>
      </trkpt>
      <trkpt lat="48.05807" lon="7.07741">
        <ele>558.2</ele>
        <time>2023-08-12T11:00:58Z</time>
      </trkpt>
      <trkpt lat="48.05807" lon="7.07738">
        <ele>558.3</ele>
        <time>2023-08-12T11:00:59Z</time>
      </trkpt>
      <trkpt lat="48.05807" lon="7.07735">
        <ele>558.5</ele>
        <time>2023-08-12T11:01:00Z</time>
      </trkpt>
      <trkpt lat="48.05807" lon="7.07733">
        <ele>558.7</ele>
        <time>2023-08-12T11:01:01Z</time>
      </trkpt>
      <trkpt lat="48.05807" lon="7.0773">
        <ele>558.9</ele>
        <time>2023-08-12T11:01:02Z</time>
      </trkpt>
      <trkpt lat="48.05806" lon="7.07728">
        <ele>559</ele>
        <time>2023-08-12T11:01:03Z</time>
      </trkpt>
      <trkpt lat="48.05806" lon="7.07725">
        <ele>559.2</ele>
        <time>2023-08-12T11:01:04Z</time>
      </trkpt>
      <trkpt lat="48.05806" lon="7.07723">
        <ele>559.4</ele>
        <time>2023-08-12T11:01:05Z</time>
      </trkpt>
      <trkpt lat="48.05806" lon="7.0772">
        <ele>559.6</ele>
        <time>2023-08-12T11:01:06Z</time>
      </trkpt>
      <trkpt lat="48.05806" lon="7.07718">
        <ele>559.8</ele>
        <time>2023-08-12T11:01:07Z</time>
      </trkpt>
      <trkpt lat="48.05806" lon="7.07715">
        <ele>560</ele>
        <time>2023-08-12T11:01:08Z</time>
      </trkpt>
      <trkpt lat="48.05806" lon="7.07713">
        <ele>560.1</ele>
        <time>2023-08-12T11:01:09Z</time>
      </trkpt>
      <trkpt lat="48.05806" lon="7.07711">
        <ele>560.3</ele>
        <time>2023-08-12T11:01:10Z</time>
      </trkpt>
      <trkpt lat="48.05806" lon="7.07708">
        <ele>560.5</ele>
        <time>2023-08-12T11:01:11Z</time>
      </trkpt>
      <trkpt lat="48.05806" lon="7.07706">
        <ele>560.6</ele>
        <time>2023-08-12T11:01:12Z</time>
      </trkpt>
      <trkpt lat="48.05807" lon="7.07703">
        <ele>560.8</ele>
        <time>2023-08-12T11:01:13Z</time>
      </trkpt>
      <trkpt lat="48.05806" lon="7.07701">
        <ele>561</ele>
        <time>2023-08-12T11:01:14Z</time>
      </trkpt>
      <trkpt lat="48.05806" lon="7.07698">
        <ele>561.2</ele>
        <time>2023-08-12T11:01:15Z</time>
      </trkpt>
      <trkpt lat="48.05806" lon="7.07696">
        <ele>561.3</ele>
        <time>2023-08-12T11:01:16Z</time>
      </trkpt>
      <trkpt lat="48.05806" lon="7.07694">
        <ele>561.5</ele>
        <time>2023-08-12T11:01:17Z</time>
      </trkpt>
      <trkpt lat="48.05806" lon="7.07691">
        <ele>561.7</ele>
        <time>2023-08-12T11:01:18Z</time>
      </trkpt>
      <trkpt lat="48.05807" lon="7.07688">
        <ele>561.9</ele>
        <time>2023-08-12T11:01:19Z</time>
      </trkpt>
      <trkpt lat="48.05807" lon="7.07685">
        <ele>562.1</ele>
        <time>2023-08-12T11:01:20Z</time>
      </trkpt>
      <trkpt lat="48.05807" lon="7.07682">
        <ele>562.3</ele>
        <time>2023-08-12T11:01:21Z</time>
      </trkpt>
      <trkpt lat="48.05807" lon="7.07679">
        <ele>562.4</ele>
        <time>2023-08-12T11:01:22Z</time>
      </trkpt>
      <trkpt lat="48.05807" lon="7.07676">
        <ele>562.6</ele>
        <time>2023-08-12T11:01:23Z</time>
      </trkpt>
      <trkpt lat="48.05808" lon="7.07674">
        <ele>562.8</ele>
        <time>2023-08-12T11:01:24Z</time>
      </trkpt>
      <trkpt lat="48.05808" lon="7.07671">
        <ele>563</ele>
        <time>2023-08-12T11:01:25Z</time>
      </trkpt>
      <trkpt lat="48.05808" lon="7.07667">
        <ele>563.2</ele>
        <time>2023-08-12T11:01:26Z</time>
      </trkpt>
      <trkpt lat="48.05809" lon="7.07665">
        <ele>563.4</ele>
        <time>2023-08-12T11:01:27Z</time>
      </trkpt>
      <trkpt lat="48.05809" lon="7.07662">
        <ele>563.5</ele>
        <time>2023-08-12T11:01:28Z</time>
      </trkpt>
      <trkpt lat="48.05809" lon="7.07659">
        <ele>563.7</ele>
        <time>2023-08-12T11:01:29Z</time>
      </trkpt>
      <trkpt lat="48.05809" lon="7.07656">
        <ele>563.9</ele>
        <time>2023-08-12T11:01:30Z</time>
      </trkpt>
      <trkpt lat="48.0581" lon="7.07653">
        <ele>564.1</ele>
        <time>2023-08-12T11:01:31Z</time>
      </trkpt>
      <trkpt lat="48.0581" lon="7.0765">
        <ele>564.2</ele>
        <time>2023-08-12T11:01:32Z</time>
      </trkpt>
      <trkpt lat="48.05811" lon="7.07647">
        <ele>564.4</ele>
        <time>2023-08-12T11:01:33Z</time>
      </trkpt>
      <trkpt lat="48.05811" lon="7.07644">
        <ele>564.6</ele>
        <time>2023-08-12T11:01:34Z</time>
      </trkpt>
      <trkpt lat="48.05811" lon="7.07642">
        <ele>564.8</ele>
        <time>2023-08-12T11:01:35Z</time>
      </trkpt>
      <trkpt lat="48.05811" lon="7.07639">
        <ele>564.9</ele>
        <time>2023-08-12T11:01:36Z</time>
      </trkpt>
      <trkpt lat="48.05811" lon="7.07637">
        <ele>565.1</ele>
        <time>2023-08-12T11:01:37Z</time>
      </trkpt>
      <trkpt lat="48.05811" lon="7.07634">
        <ele>565.2</ele>
        <time>2023-08-12T11:01:38Z</time>
      </trkpt>
      <trkpt lat="48.05812" lon="7.07632">
        <ele>565.4</ele>
        <time>2023-08-12T11:01:39Z</time>
      </trkpt>
      <trkpt lat="48.05812" lon="7.0763">
        <ele>565.5</ele>
        <time>2023-08-12T11:01:40Z</time>
      </trkpt>
      <trkpt lat="48.05812" lon="7.07627">
        <ele>565.7</ele>
        <time>2023-08-12T11:01:41Z</time>
      </trkpt>
      <trkpt lat="48.05813" lon="7.07624">
        <ele>565.9</ele>
        <time>2023-08-12T11:01:42Z</time>
      </trkpt>
      <trkpt lat="48.05813" lon="7.07622">
        <ele>566.1</ele>
        <time>2023-08-12T11:01:43Z</time>
      </trkpt>
      <trkpt lat="48.05813" lon="7.0762">
        <ele>566.2</ele>
        <time>2023-08-12T11:01:44Z</time>
      </trkpt>
      <trkpt lat="48.05814" lon="7.07617">
        <ele>566.4</ele>
        <time>2023-08-12T11:01:45Z</time>
      </trkpt>
      <trkpt lat="48.05815" lon="7.07614">
        <ele>566.6</ele>
        <time>2023-08-12T11:01:46Z</time>
      </trkpt>
      <trkpt lat="48.05815" lon="7.07611">
        <ele>566.8</ele>
        <time>2023-08-12T11:01:47Z</time>
      </trkpt>
      <trkpt lat="48.05815" lon="7.07609">
        <ele>567</ele>
        <time>2023-08-12T11:01:48Z</time>
      </trkpt>
      <trkpt lat="48.05815" lon="7.07606">
        <ele>567.2</ele>
        <time>2023-08-12T11:01:49Z</time>
      </trkpt>
      <trkpt lat="48.05816" lon="7.07603">
        <ele>567.3</ele>
        <time>2023-08-12T11:01:50Z</time>
      </trkpt>
      <trkpt lat="48.05817" lon="7.076">
        <ele>567.6</ele>
        <time>2023-08-12T11:01:51Z</time>
      </trkpt>
      <trkpt lat="48.05817" lon="7.07597">
        <ele>567.8</ele>
        <time>2023-08-12T11:01:52Z</time>
      </trkpt>
      <trkpt lat="48.05817" lon="7.07595">
        <ele>567.9</ele>
        <time>2023-08-12T11:01:53Z</time>
      </trkpt>
      <trkpt lat="48.05817" lon="7.07592">
        <ele>568.1</ele>
        <time>2023-08-12T11:01:54Z</time>
      </trkpt>
      <trkpt lat="48.05817" lon="7.07589">
        <ele>568.3</ele>
        <time>2023-08-12T11:01:55Z</time>
      </trkpt>
      <trkpt lat="48.05818" lon="7.07587">
        <ele>568.5</ele>
        <time>2023-08-12T11:01:56Z</time>
      </trkpt>
      <trkpt lat="48.05818" lon="7.07584">
        <ele>568.7</ele>
        <time>2023-08-12T11:01:57Z</time>
      </trkpt>
      <trkpt lat="48.05818" lon="7.07581">
        <ele>568.9</ele>
        <time>2023-08-12T11:01:58Z</time>
      </trkpt>
      <trkpt lat="48.05818" lon="7.07579">
        <ele>569</ele>
        <time>2023-08-12T11:01:59Z</time>
      </trkpt>
      <trkpt lat="48.05818" lon="7.07576">
        <ele>569.2</ele>
        <time>2023-08-12T11:02:00Z</time>
      </trkpt>
      <trkpt lat="48.05818" lon="7.07573">
        <ele>569.4</ele>
        <time>2023-08-12T11:02:01Z</time>
      </trkpt>
      <trkpt lat="48.05819" lon="7.0757">
        <ele>569.6</ele>
        <time>2023-08-12T11:02:02Z</time>
      </trkpt>
      <trkpt lat="48.05819" lon="7.07567">
        <ele>569.8</ele>
        <time>2023-08-12T11:02:03Z</time>
      </trkpt>
      <trkpt lat="48.0582" lon="7.07565">
        <ele>570</ele>
        <time>2023-08-12T11:02:04Z</time>
      </trkpt>
      <trkpt lat="48.0582" lon="7.07562">
        <ele>570.2</ele>
        <time>2023-08-12T11:02:05Z</time>
      </trkpt>
      <trkpt lat="48.0582" lon="7.07559">
        <ele>570.4</ele>
        <time>2023-08-12T11:02:06Z</time>
      </trkpt>
      <trkpt lat="48.05821" lon="7.07557">
        <ele>570.5</ele>
        <time>2023-08-12T11:02:07Z</time>
      </trkpt>
      <trkpt lat="48.05821" lon="7.07554">
        <ele>570.7</ele>
        <time>2023-08-12T11:02:08Z</time>
      </trkpt>
      <trkpt lat="48.05821" lon="7.07551">
        <ele>570.9</ele>
        <time>2023-08-12T11:02:09Z</time>
      </trkpt>
      <trkpt lat="48.05821" lon="7.07549">
        <ele>571.1</ele>
        <time>2023-08-12T11:02:10Z</time>
      </trkpt>
      <trkpt lat="48.05822" lon="7.07545">
        <ele>571.4</ele>
        <time>2023-08-12T11:02:11Z</time>
      </trkpt>
      <trkpt lat="48.05822" lon="7.07543">
        <ele>571.5</ele>
        <time>2023-08-12T11:02:12Z</time>
      </trkpt>
      <trkpt lat="48.05822" lon="7.0754">
        <ele>571.7</ele>
        <time>2023-08-12T11:02:13Z</time>
      </trkpt>
      <trkpt lat="48.05822" lon="7.07538">
        <ele>571.9</ele>
        <time>2023-08-12T11:02:14Z</time>
      </trkpt>
      <trkpt lat="48.05822" lon="7.07535">
        <ele>572.1</ele>
        <time>2023-08-12T11:02:15Z</time>
      </trkpt>
      <trkpt lat="48.05822" lon="7.07532">
        <ele>572.4</ele>
        <time>2023-08-12T11:02:16Z</time>
      </trkpt>
      <trkpt lat="48.05823" lon="7.07529">
        <ele>572.6</ele>
        <time>2023-08-12T11:02:17Z</time>
      </trkpt>
      <trkpt lat="48.05823" lon="7.07527">
        <ele>572.7</ele>
        <time>2023-08-12T11:02:18Z</time>
      </trkpt>
      <trkpt lat="48.05824" lon="7.07524">
        <ele>572.9</ele>
        <time>2023-08-12T11:02:19Z</time>
      </trkpt>
      <trkpt lat="48.05824" lon="7.07521">
        <ele>573.1</ele>
        <time>2023-08-12T11:02:20Z</time>
      </trkpt>
      <trkpt lat="48.05824" lon="7.07518">
        <ele>573.4</ele>
        <time>2023-08-12T11:02:21Z</time>
      </trkpt>
      <trkpt lat="48.05824" lon="7.07516">
        <ele>573.6</ele>
        <time>2023-08-12T11:02:22Z</time>
      </trkpt>
      <trkpt lat="48.05825" lon="7.07513">
        <ele>573.8</ele>
        <time>2023-08-12T11:02:23Z</time>
      </trkpt>
      <trkpt lat="48.05825" lon="7.07511">
        <ele>573.9</ele>
        <time>2023-08-12T11:02:24Z</time>
      </trkpt>
      <trkpt lat="48.05826" lon="7.07508">
        <ele>574.1</ele>
        <time>2023-08-12T11:02:25Z</time>
      </trkpt>
      <trkpt lat="48.05826" lon="7.07504">
        <ele>574.4</ele>
        <time>2023-08-12T11:02:26Z</time>
      </trkpt>
      <trkpt lat="48.05826" lon="7.07502">
        <ele>574.5</ele>
        <time>2023-08-12T11:02:27Z</time>
      </trkpt>
      <trkpt lat="48.05827" lon="7.075">
        <ele>574.7</ele>
        <time>2023-08-12T11:02:28Z</time>
      </trkpt>
      <trkpt lat="48.05827" lon="7.07497">
        <ele>574.9</ele>
        <time>2023-08-12T11:02:29Z</time>
      </trkpt>
      <trkpt lat="48.05827" lon="7.07494">
        <ele>575.1</ele>
        <time>2023-08-12T11:02:30Z</time>
      </trkpt>
      <trkpt lat="48.05828" lon="7.0749">
        <ele>575.3</ele>
        <time>2023-08-12T11:02:31Z</time>
      </trkpt>
      <trkpt lat="48.05828" lon="7.07487">
        <ele>575.5</ele>
        <time>2023-08-12T11:02:32Z</time>
      </trkpt>
      <trkpt lat="48.05828" lon="7.07484">
        <ele>575.7</ele>
        <time>2023-08-12T11:02:33Z</time>
      </trkpt>
      <trkpt lat="48.05828" lon="7.07482">
        <ele>575.8</ele>
        <time>2023-08-12T11:02:34Z</time>
      </trkpt>
      <trkpt lat="48.05829" lon="7.07479">
        <ele>576</ele>
        <time>2023-08-12T11:02:35Z</time>
      </trkpt>
      <trkpt lat="48.05829" lon="7.07476">
        <ele>576.2</ele>
        <time>2023-08-12T11:02:36Z</time>
      </trkpt>
      <trkpt lat="48.05829" lon="7.07473">
        <ele>576.4</ele>
        <time>2023-08-12T11:02:37Z</time>
      </trkpt>
      <trkpt lat="48.05829" lon="7.07471">
        <ele>576.6</ele>
        <time>2023-08-12T11:02:38Z</time>
      </trkpt>
      <trkpt lat="48.0583" lon="7.07467">
        <ele>576.8</ele>
        <time>2023-08-12T11:02:39Z</time>
      </trkpt>
      <trkpt lat="48.0583" lon="7.07465">
        <ele>577</ele>
        <time>2023-08-12T11:02:40Z</time>
      </trkpt>
      <trkpt lat="48.0583" lon="7.07462">
        <ele>577.2</ele>
        <time>2023-08-12T11:02:41Z</time>
      </trkpt>
      <trkpt lat="48.05831" lon="7.07459">
        <ele>577.4</ele>
        <time>2023-08-12T11:02:42Z</time>
      </trkpt>
      <trkpt lat="48.05832" lon="7.07456">
        <ele>577.6</ele>
        <time>2023-08-12T11:02:43Z</time>
      </trkpt>
      <trkpt lat="48.05832" lon="7.07454">
        <ele>577.8</ele>
        <time>2023-08-12T11:02:44Z</time>
      </trkpt>
      <trkpt lat="48.05832" lon="7.07452">
        <ele>577.9</ele>
        <time>2023-08-12T11:02:45Z</time>
      </trkpt>
      <trkpt lat="48.05832" lon="7.07449">
        <ele>578.1</ele>
        <time>2023-08-12T11:02:46Z</time>
      </trkpt>
      <trkpt lat="48.05833" lon="7.07447">
        <ele>578.3</ele>
        <time>2023-08-12T11:02:47Z</time>
      </trkpt>
      <trkpt lat="48.05833" lon="7.07446">
        <ele>578.4</ele>
        <time>2023-08-12T11:02:48Z</time>
      </trkpt>
      <trkpt lat="48.05833" lon="7.07444">
        <ele>578.5</ele>
        <time>2023-08-12T11:02:49Z</time>
      </trkpt>
      <trkpt lat="48.05833" lon="7.07442">
        <ele>578.6</ele>
        <time>2023-08-12T11:02:50Z</time>
      </trkpt>
      <trkpt lat="48.05834" lon="7.0744">
        <ele>578.8</ele>
        <time>2023-08-12T11:02:51Z</time>
      </trkpt>
      <trkpt lat="48.05834" lon="7.07437">
        <ele>579</ele>
        <time>2023-08-12T11:02:52Z</time>
      </trkpt>
      <trkpt lat="48.05834" lon="7.07435">
        <ele>579.2</ele>
        <time>2023-08-12T11:02:53Z</time>
      </trkpt>
      <trkpt lat="48.05834" lon="7.07431">
        <ele>579.4</ele>
        <time>2023-08-12T11:02:54Z</time>
      </trkpt>
      <trkpt lat="48.05834" lon="7.07427">
        <ele>579.7</ele>
        <time>2023-08-12T11:02:55Z</time>
      </trkpt>
      <trkpt lat="48.05835" lon="7.07424">
        <ele>579.9</ele>
        <time>2023-08-12T11:02:56Z</time>
      </trkpt>
      <trkpt lat="48.05835" lon="7.07421">
        <ele>580.2</ele>
        <time>2023-08-12T11:02:57Z</time>
      </trkpt>
      <trkpt lat="48.05836" lon="7.07417">
        <ele>580.4</ele>
        <time>2023-08-12T11:02:58Z</time>
      </trkpt>
      <trkpt lat="48.05837" lon="7.07416">
        <ele>580.5</ele>
        <time>2023-08-12T11:02:59Z</time>
      </trkpt>
      <trkpt lat="48.05837" lon="7.07412">
        <ele>580.8</ele>
        <time>2023-08-12T11:03:00Z</time>
      </trkpt>
      <trkpt lat="48.05837" lon="7.07409">
        <ele>581</ele>
        <time>2023-08-12T11:03:01Z</time>
      </trkpt>
      <trkpt lat="48.05838" lon="7.07406">
        <ele>581.2</ele>
        <time>2023-08-12T11:03:02Z</time>
      </trkpt>
      <trkpt lat="48.05839" lon="7.07403">
        <ele>581.4</ele>
        <time>2023-08-12T11:03:03Z</time>
      </trkpt>
      <trkpt lat="48.05839" lon="7.07402">
        <ele>581.5</ele>
        <time>2023-08-12T11:03:04Z</time>
      </trkpt>
      <trkpt lat="48.0584" lon="7.074">
        <ele>581.7</ele>
        <time>2023-08-12T11:03:05Z</time>
      </trkpt>
      <trkpt lat="48.05841" lon="7.07397">
        <ele>581.9</ele>
        <time>2023-08-12T11:03:06Z</time>
      </trkpt>
      <trkpt lat="48.05842" lon="7.07395">
        <ele>582.1</ele>
        <time>2023-08-12T11:03:07Z</time>
      </trkpt>
      <trkpt lat="48.05842" lon="7.07392">
        <ele>582.2</ele>
        <time>2023-08-12T11:03:08Z</time>
      </trkpt>
      <trkpt lat="48.05842" lon="7.0739">
        <ele>582.4</ele>
        <time>2023-08-12T11:03:09Z</time>
      </trkpt>
      <trkpt lat="48.05843" lon="7.07388">
        <ele>582.6</ele>
        <time>2023-08-12T11:03:10Z</time>
      </trkpt>
      <trkpt lat="48.05843" lon="7.07386">
        <ele>582.7</ele>
        <time>2023-08-12T11:03:11Z</time>
      </trkpt>
      <trkpt lat="48.05844" lon="7.07384">
        <ele>582.8</ele>
        <time>2023-08-12T11:03:12Z</time>
      </trkpt>
      <trkpt lat="48.05844" lon="7.07381">
        <ele>583</ele>
        <time>2023-08-12T11:03:13Z</time>
      </trkpt>
      <trkpt lat="48.05844" lon="7.07379">
        <ele>583.2</ele>
        <time>2023-08-12T11:03:14Z</time>
      </trkpt>
      <trkpt lat="48.05844" lon="7.07375">
        <ele>583.4</ele>
        <time>2023-08-12T11:03:15Z</time>
      </trkpt>
      <trkpt lat="48.05845" lon="7.07372">
        <ele>583.6</ele>
        <time>2023-08-12T11:03:16Z</time>
      </trkpt>
      <trkpt lat="48.05845" lon="7.07369">
        <ele>583.8</ele>
        <time>2023-08-12T11:03:17Z</time>
      </trkpt>
      <trkpt lat="48.05846" lon="7.07367">
        <ele>583.9</ele>
        <time>2023-08-12T11:03:18Z</time>
      </trkpt>
      <trkpt lat="48.05846" lon="7.07365">
        <ele>584</ele>
        <time>2023-08-12T11:03:19Z</time>
      </trkpt>
      <trkpt lat="48.05846" lon="7.07362">
        <ele>584.2</ele>
        <time>2023-08-12T11:03:20Z</time>
      </trkpt>
      <trkpt lat="48.05847" lon="7.0736">
        <ele>584.3</ele>
        <time>2023-08-12T11:03:21Z</time>
      </trkpt>
      <trkpt lat="48.05847" lon="7.07358">
        <ele>584.5</ele>
        <time>2023-08-12T11:03:22Z</time>
      </trkpt>
      <trkpt lat="48.05847" lon="7.07356">
        <ele>584.6</ele>
        <time>2023-08-12T11:03:23Z</time>
      </trkpt>
      <trkpt lat="48.05848" lon="7.07354">
        <ele>584.7</ele>
        <time>2023-08-12T11:03:24Z</time>
      </trkpt>
      <trkpt lat="48.05849" lon="7.07352">
        <ele>584.9</ele>
        <time>2023-08-12T11:03:25Z</time>
      </trkpt>
      <trkpt lat="48.0585" lon="7.07349">
        <ele>585.1</ele>
        <time>2023-08-12T11:03:26Z</time>
      </trkpt>
      <trkpt lat="48.0585" lon="7.07346">
        <ele>585.3</ele>
        <time>2023-08-12T11:03:27Z</time>
      </trkpt>
      <trkpt lat="48.0585" lon="7.07342">
        <ele>585.5</ele>
        <time>2023-08-12T11:03:28Z</time>
      </trkpt>
      <trkpt lat="48.0585" lon="7.07338">
        <ele>585.8</ele>
        <time>2023-08-12T11:03:29Z</time>
      </trkpt>
      <trkpt lat="48.05851" lon="7.07335">
        <ele>586</ele>
        <time>2023-08-12T11:03:30Z</time>
      </trkpt>
      <trkpt lat="48.05852" lon="7.07332">
        <ele>586.2</ele>
        <time>2023-08-12T11:03:31Z</time>
      </trkpt>
      <trkpt lat="48.05853" lon="7.07329">
        <ele>586.4</ele>
        <time>2023-08-12T11:03:32Z</time>
      </trkpt>
      <trkpt lat="48.05854" lon="7.07326">
        <ele>586.6</ele>
        <time>2023-08-12T11:03:33Z</time>
      </trkpt>
      <trkpt lat="48.05856" lon="7.07323">
        <ele>586.8</ele>
        <time>2023-08-12T11:03:34Z</time>
      </trkpt>
      <trkpt lat="48.05857" lon="7.07321">
        <ele>587</ele>
        <time>2023-08-12T11:03:35Z</time>
      </trkpt>
      <trkpt lat="48.05858" lon="7.07318">
        <ele>587.2</ele>
        <time>2023-08-12T11:03:36Z</time>
      </trkpt>
      <trkpt lat="48.05859" lon="7.07317">
        <ele>587.3</ele>
        <time>2023-08-12T11:03:37Z</time>
      </trkpt>
      <trkpt lat="48.05859" lon="7.07314">
        <ele>587.4</ele>
        <time>2023-08-12T11:03:38Z</time>
      </trkpt>
      <trkpt lat="48.0586" lon="7.07312">
        <ele>587.6</ele>
        <time>2023-08-12T11:03:39Z</time>
      </trkpt>
      <trkpt lat="48.0586" lon="7.07309">
        <ele>587.7</ele>
        <time>2023-08-12T11:03:40Z</time>
      </trkpt>
      <trkpt lat="48.05861" lon="7.07306">
        <ele>587.9</ele>
        <time>2023-08-12T11:03:41Z</time>
      </trkpt>
      <trkpt lat="48.05861" lon="7.07303">
        <ele>588.1</ele>
        <time>2023-08-12T11:03:42Z</time>
      </trkpt>
      <trkpt lat="48.05862" lon="7.07301">
        <ele>588.2</ele>
        <time>2023-08-12T11:03:43Z</time>
      </trkpt>
      <trkpt lat="48.05863" lon="7.07299">
        <ele>588.3</ele>
        <time>2023-08-12T11:03:44Z</time>
      </trkpt>
      <trkpt lat="48.05863" lon="7.07296">
        <ele>588.5</ele>
        <time>2023-08-12T11:03:45Z</time>
      </trkpt>
      <trkpt lat="48.05864" lon="7.07294">
        <ele>588.7</ele>
        <time>2023-08-12T11:03:46Z</time>
      </trkpt>
      <trkpt lat="48.05864" lon="7.07291">
        <ele>588.8</ele>
        <time>2023-08-12T11:03:47Z</time>
      </trkpt>
      <trkpt lat="48.05865" lon="7.07289">
        <ele>589</ele>
        <time>2023-08-12T11:03:48Z</time>
      </trkpt>
      <trkpt lat="48.05866" lon="7.07286">
        <ele>589.1</ele>
        <time>2023-08-12T11:03:49Z</time>
      </trkpt>
      <trkpt lat="48.05867" lon="7.07284">
        <ele>589.3</ele>
        <time>2023-08-12T11:03:50Z</time>
      </trkpt>
      <trkpt lat="48.05867" lon="7.07282">
        <ele>589.5</ele>
        <time>2023-08-12T11:03:51Z</time>
      </trkpt>
      <trkpt lat="48.05868" lon="7.07279">
        <ele>589.6</ele>
        <time>2023-08-12T11:03:52Z</time>
      </trkpt>
      <trkpt lat="48.05869" lon="7.07277">
        <ele>589.8</ele>
        <time>2023-08-12T11:03:53Z</time>
      </trkpt>
      <trkpt lat="48.0587" lon="7.07274">
        <ele>590</ele>
        <time>2023-08-12T11:03:54Z</time>
      </trkpt>
      <trkpt lat="48.0587" lon="7.07271">
        <ele>590.2</ele>
        <time>2023-08-12T11:03:55Z</time>
      </trkpt>
      <trkpt lat="48.05871" lon="7.07269">
        <ele>590.4</ele>
        <time>2023-08-12T11:03:56Z</time>
      </trkpt>
      <trkpt lat="48.05871" lon="7.07266">
        <ele>590.5</ele>
        <time>2023-08-12T11:03:57Z</time>
      </trkpt>
      <trkpt lat="48.05871" lon="7.07264">
        <ele>590.7</ele>
        <time>2023-08-12T11:03:58Z</time>
      </trkpt>
      <trkpt lat="48.05872" lon="7.07261">
        <ele>590.9</ele>
        <time>2023-08-12T11:03:59Z</time>
      </trkpt>
      <trkpt lat="48.05872" lon="7.0726">
        <ele>591</ele>
        <time>2023-08-12T11:04:00Z</time>
      </trkpt>
      <trkpt lat="48.05872" lon="7.07258">
        <ele>591.1</ele>
        <time>2023-08-12T11:04:01Z</time>
      </trkpt>
      <trkpt lat="48.05872" lon="7.07256">
        <ele>591.3</ele>
        <time>2023-08-12T11:04:02Z</time>
      </trkpt>
      <trkpt lat="48.05873" lon="7.07254">
        <ele>591.5</ele>
        <time>2023-08-12T11:04:03Z</time>
      </trkpt>
      <trkpt lat="48.05874" lon="7.07252">
        <ele>591.6</ele>
        <time>2023-08-12T11:04:04Z</time>
      </trkpt>
      <trkpt lat="48.05874" lon="7.0725">
        <ele>591.8</ele>
        <time>2023-08-12T11:04:05Z</time>
      </trkpt>
      <trkpt lat="48.05875" lon="7.07247">
        <ele>592</ele>
        <time>2023-08-12T11:04:06Z</time>
      </trkpt>
      <trkpt lat="48.05875" lon="7.07245">
        <ele>592.2</ele>
        <time>2023-08-12T11:04:07Z</time>
      </trkpt>
      <trkpt lat="48.05876" lon="7.07243">
        <ele>592.3</ele>
        <time>2023-08-12T11:04:08Z</time>
      </trkpt>
      <trkpt lat="48.05877" lon="7.0724">
        <ele>592.5</ele>
        <time>2023-08-12T11:04:09Z</time>
      </trkpt>
      <trkpt lat="48.05877" lon="7.07238">
        <ele>592.7</ele>
        <time>2023-08-12T11:04:10Z</time>
      </trkpt>
      <trkpt lat="48.05877" lon="7.07234">
        <ele>592.9</ele>
        <time>2023-08-12T11:04:11Z</time>
      </trkpt>
      <trkpt lat="48.05878" lon="7.07232">
        <ele>593.1</ele>
        <time>2023-08-12T11:04:12Z</time>
      </trkpt>
      <trkpt lat="48.05879" lon="7.07229">
        <ele>593.4</ele>
        <time>2023-08-12T11:04:13Z</time>
      </trkpt>
      <trkpt lat="48.0588" lon="7.07226">
        <ele>593.6</ele>
        <time>2023-08-12T11:04:14Z</time>
      </trkpt>
      <trkpt lat="48.05881" lon="7.07223">
        <ele>593.8</ele>
        <time>2023-08-12T11:04:15Z</time>
      </trkpt>
      <trkpt lat="48.05882" lon="7.07219">
        <ele>594</ele>
        <time>2023-08-12T11:04:16Z</time>
      </trkpt>
      <trkpt lat="48.05883" lon="7.07215">
        <ele>594.3</ele>
        <time>2023-08-12T11:04:17Z</time>
      </trkpt>
      <trkpt lat="48.05884" lon="7.07211">
        <ele>594.6</ele>
        <time>2023-08-12T11:04:18Z</time>
      </trkpt>
      <trkpt lat="48.05885" lon="7.07207">
        <ele>594.9</ele>
        <time>2023-08-12T11:04:19Z</time>
      </trkpt>
      <trkpt lat="48.05887" lon="7.07204">
        <ele>595.1</ele>
        <time>2023-08-12T11:04:20Z</time>
      </trkpt>
      <trkpt lat="48.05888" lon="7.07201">
        <ele>595.3</ele>
        <time>2023-08-12T11:04:21Z</time>
      </trkpt>
      <trkpt lat="48.05889" lon="7.07198">
        <ele>595.5</ele>
        <time>2023-08-12T11:04:22Z</time>
      </trkpt>
      <trkpt lat="48.05889" lon="7.07194">
        <ele>595.8</ele>
        <time>2023-08-12T11:04:23Z</time>
      </trkpt>
      <trkpt lat="48.0589" lon="7.07191">
        <ele>596</ele>
        <time>2023-08-12T11:04:24Z</time>
      </trkpt>
      <trkpt lat="48.0589" lon="7.07188">
        <ele>596.2</ele>
        <time>2023-08-12T11:04:25Z</time>
      </trkpt>
      <trkpt lat="48.0589" lon="7.07185">
        <ele>596.4</ele>
        <time>2023-08-12T11:04:26Z</time>
      </trkpt>
      <trkpt lat="48.0589" lon="7.07181">
        <ele>596.7</ele>
        <time>2023-08-12T11:04:27Z</time>
      </trkpt>
      <trkpt lat="48.05891" lon="7.07179">
        <ele>596.8</ele>
        <time>2023-08-12T11:04:28Z</time>
      </trkpt>
      <trkpt lat="48.05892" lon="7.07177">
        <ele>597</ele>
        <time>2023-08-12T11:04:29Z</time>
      </trkpt>
      <trkpt lat="48.05893" lon="7.07175">
        <ele>597.1</ele>
        <time>2023-08-12T11:04:30Z</time>
      </trkpt>
      <trkpt lat="48.05893" lon="7.07174">
        <ele>597.2</ele>
        <time>2023-08-12T11:04:31Z</time>
      </trkpt>
      <trkpt lat="48.05893" lon="7.07172">
        <ele>597.3</ele>
        <time>2023-08-12T11:04:32Z</time>
      </trkpt>
      <trkpt lat="48.05894" lon="7.0717">
        <ele>597.4</ele>
        <time>2023-08-12T11:04:33Z</time>
      </trkpt>
      <trkpt lat="48.05894" lon="7.07168">
        <ele>597.6</ele>
        <time>2023-08-12T11:04:34Z</time>
      </trkpt>
      <trkpt lat="48.05894" lon="7.07166">
        <ele>597.7</ele>
        <time>2023-08-12T11:04:35Z</time>
      </trkpt>
      <trkpt lat="48.05894" lon="7.07163">
        <ele>597.9</ele>
        <time>2023-08-12T11:04:36Z</time>
      </trkpt>
      <trkpt lat="48.05895" lon="7.0716">
        <ele>598.1</ele>
        <time>2023-08-12T11:04:37Z</time>
      </trkpt>
      <trkpt lat="48.05895" lon="7.07157">
        <ele>598.3</ele>
        <time>2023-08-12T11:04:38Z</time>
      </trkpt>
      <trkpt lat="48.05895" lon="7.07154">
        <ele>598.5</ele>
        <time>2023-08-12T11:04:39Z</time>
      </trkpt>
      <trkpt lat="48.05895" lon="7.07151">
        <ele>598.7</ele>
        <time>2023-08-12T11:04:40Z</time>
      </trkpt>
      <trkpt lat="48.05896" lon="7.07149">
        <ele>598.9</ele>
        <time>2023-08-12T11:04:41Z</time>
      </trkpt>
      <trkpt lat="48.05896" lon="7.07146">
        <ele>599</ele>
        <time>2023-08-12T11:04:42Z</time>
      </trkpt>
      <trkpt lat="48.05896" lon="7.07144">
        <ele>599.2</ele>
        <time>2023-08-12T11:04:43Z</time>
      </trkpt>
      <trkpt lat="48.05897" lon="7.07142">
        <ele>599.3</ele>
        <time>2023-08-12T11:04:44Z</time>
      </trkpt>
      <trkpt lat="48.05897" lon="7.07139">
        <ele>599.5</ele>
        <time>2023-08-12T11:04:45Z</time>
      </trkpt>
      <trkpt lat="48.05897" lon="7.07139">
        <ele>599.5</ele>
        <time>2023-08-12T11:04:46Z</time>
      </trkpt>
      <trkpt lat="48.05897" lon="7.07138">
        <ele>599.6</ele>
        <time>2023-08-12T11:04:47Z</time>
      </trkpt>
      <trkpt lat="48.05897" lon="7.07137">
        <ele>599.7</ele>
        <time>2023-08-12T11:04:48Z</time>
      </trkpt>
      <trkpt lat="48.05897" lon="7.07135">
        <ele>599.8</ele>
        <time>2023-08-12T11:04:49Z</time>
      </trkpt>
      <trkpt lat="48.05897" lon="7.07133">
        <ele>599.9</ele>
        <time>2023-08-12T11:04:50Z</time>
      </trkpt>
      <trkpt lat="48.05898" lon="7.07131">
        <ele>600.1</ele>
        <time>2023-08-12T11:04:51Z</time>
      </trkpt>
      <trkpt lat="48.05898" lon="7.07129">
        <ele>600.2</ele>
        <time>2023-08-12T11:04:52Z</time>
      </trkpt>
      <trkpt lat="48.05898" lon="7.07127">
        <ele>600.3</ele>
        <time>2023-08-12T11:04:53Z</time>
      </trkpt>
      <trkpt lat="48.05899" lon="7.07124">
        <ele>600.5</ele>
        <time>2023-08-12T11:04:54Z</time>
      </trkpt>
      <trkpt lat="48.05898" lon="7.0712">
        <ele>600.8</ele>
        <time>2023-08-12T11:04:55Z</time>
      </trkpt>
      <trkpt lat="48.05898" lon="7.07117">
        <ele>601</ele>
        <time>2023-08-12T11:04:56Z</time>
      </trkpt>
      <trkpt lat="48.05898" lon="7.07114">
        <ele>601.2</ele>
        <time>2023-08-12T11:04:57Z</time>
      </trkpt>
      <trkpt lat="48.05898" lon="7.07112">
        <ele>601.3</ele>
        <time>2023-08-12T11:04:58Z</time>
      </trkpt>
      <trkpt lat="48.05899" lon="7.07109">
        <ele>601.5</ele>
        <time>2023-08-12T11:04:59Z</time>
      </trkpt>
      <trkpt lat="48.05898" lon="7.07107">
        <ele>601.7</ele>
        <time>2023-08-12T11:05:00Z</time>
      </trkpt>
      <trkpt lat="48.05897" lon="7.07105">
        <ele>601.8</ele>
        <time>2023-08-12T11:05:01Z</time>
      </trkpt>
      <trkpt lat="48.05897" lon="7.07102">
        <ele>602</ele>
        <time>2023-08-12T11:05:02Z</time>
      </trkpt>
      <trkpt lat="48.05896" lon="7.071">
        <ele>602.2</ele>
        <time>2023-08-12T11:05:03Z</time>
      </trkpt>
      <trkpt lat="48.05896" lon="7.07095">
        <ele>602.6</ele>
        <time>2023-08-12T11:05:04Z</time>
      </trkpt>
      <trkpt lat="48.05897" lon="7.07091">
        <ele>602.8</ele>
        <time>2023-08-12T11:05:05Z</time>
      </trkpt>
      <trkpt lat="48.05898" lon="7.07088">
        <ele>603.1</ele>
        <time>2023-08-12T11:05:06Z</time>
      </trkpt>
      <trkpt lat="48.05897" lon="7.07084">
        <ele>603.3</ele>
        <time>2023-08-12T11:05:07Z</time>
      </trkpt>
      <trkpt lat="48.05896" lon="7.0708">
        <ele>603.7</ele>
        <time>2023-08-12T11:05:08Z</time>
      </trkpt>
      <trkpt lat="48.05895" lon="7.07075">
        <ele>604</ele>
        <time>2023-08-12T11:05:09Z</time>
      </trkpt>
      <trkpt lat="48.05894" lon="7.07072">
        <ele>604.3</ele>
        <time>2023-08-12T11:05:10Z</time>
      </trkpt>
      <trkpt lat="48.05895" lon="7.07068">
        <ele>604.5</ele>
        <time>2023-08-12T11:05:11Z</time>
      </trkpt>
      <trkpt lat="48.05897" lon="7.07067">
        <ele>604.7</ele>
        <time>2023-08-12T11:05:12Z</time>
      </trkpt>
      <trkpt lat="48.05898" lon="7.07065">
        <ele>604.9</ele>
        <time>2023-08-12T11:05:13Z</time>
      </trkpt>
      <trkpt lat="48.05899" lon="7.07063">
        <ele>605.1</ele>
        <time>2023-08-12T11:05:14Z</time>
      </trkpt>
      <trkpt lat="48.05899" lon="7.07063">
        <ele>605.1</ele>
        <time>2023-08-12T11:05:15Z</time>
      </trkpt>
      <trkpt lat="48.059" lon="7.0706">
        <ele>605.3</ele>
        <time>2023-08-12T11:05:16Z</time>
      </trkpt>
      <trkpt lat="48.05901" lon="7.07055">
        <ele>605.7</ele>
        <time>2023-08-12T11:05:17Z</time>
      </trkpt>
      <trkpt lat="48.05901" lon="7.07051">
        <ele>605.9</ele>
        <time>2023-08-12T11:05:18Z</time>
      </trkpt>
      <trkpt lat="48.059" lon="7.07049">
        <ele>606.1</ele>
        <time>2023-08-12T11:05:19Z</time>
      </trkpt>
      <trkpt lat="48.05899" lon="7.07047">
        <ele>606.2</ele>
        <time>2023-08-12T11:05:20Z</time>
      </trkpt>
      <trkpt lat="48.05899" lon="7.07047">
        <ele>606.2</ele>
        <time>2023-08-12T11:05:21Z</time>
      </trkpt>
      <trkpt lat="48.05898" lon="7.07043">
        <ele>606.5</ele>
        <time>2023-08-12T11:05:22Z</time>
      </trkpt>
      <trkpt lat="48.05897" lon="7.07041">
        <ele>606.6</ele>
        <time>2023-08-12T11:05:23Z</time>
      </trkpt>
      <trkpt lat="48.05897" lon="7.07039">
        <ele>606.8</ele>
        <time>2023-08-12T11:05:24Z</time>
      </trkpt>
      <trkpt lat="48.05896" lon="7.07037">
        <ele>606.9</ele>
        <time>2023-08-12T11:05:25Z</time>
      </trkpt>
      <trkpt lat="48.05896" lon="7.07037">
        <ele>606.9</ele>
        <time>2023-08-12T11:05:26Z</time>
      </trkpt>
      <trkpt lat="48.05896" lon="7.07032">
        <ele>607.3</ele>
        <time>2023-08-12T11:05:27Z</time>
      </trkpt>
      <trkpt lat="48.05896" lon="7.07029">
        <ele>607.4</ele>
        <time>2023-08-12T11:05:28Z</time>
      </trkpt>
      <trkpt lat="48.05896" lon="7.07026">
        <ele>607.6</ele>
        <time>2023-08-12T11:05:29Z</time>
      </trkpt>
      <trkpt lat="48.05895" lon="7.07024">
        <ele>607.7</ele>
        <time>2023-08-12T11:05:30Z</time>
      </trkpt>
      <trkpt lat="48.05895" lon="7.07022">
        <ele>607.9</ele>
        <time>2023-08-12T11:05:31Z</time>
      </trkpt>
      <trkpt lat="48.05895" lon="7.07021">
        <ele>608</ele>
        <time>2023-08-12T11:05:32Z</time>
      </trkpt>
      <trkpt lat="48.05894" lon="7.07018">
        <ele>608.1</ele>
        <time>2023-08-12T11:05:33Z</time>
      </trkpt>
      <trkpt lat="48.05895" lon="7.07016">
        <ele>608.3</ele>
        <time>2023-08-12T11:05:34Z</time>
      </trkpt>
      <trkpt lat="48.05895" lon="7.07016">
        <ele>608.3</ele>
        <time>2023-08-12T11:05:35Z</time>
      </trkpt>
      <trkpt lat="48.05895" lon="7.07014">
        <ele>608.4</ele>
        <time>2023-08-12T11:05:36Z</time>
      </trkpt>
      <trkpt lat="48.05895" lon="7.07011">
        <ele>608.6</ele>
        <time>2023-08-12T11:05:37Z</time>
      </trkpt>
      <trkpt lat="48.05895" lon="7.07009">
        <ele>608.7</ele>
        <time>2023-08-12T11:05:38Z</time>
      </trkpt>
      <trkpt lat="48.05895" lon="7.07009">
        <ele>608.7</ele>
        <time>2023-08-12T11:05:39Z</time>
      </trkpt>
      <trkpt lat="48.05895" lon="7.07007">
        <ele>608.9</ele>
        <time>2023-08-12T11:05:40Z</time>
      </trkpt>
      <trkpt lat="48.05895" lon="7.07003">
        <ele>609.1</ele>
        <time>2023-08-12T11:05:41Z</time>
      </trkpt>
      <trkpt lat="48.05895" lon="7.07">
        <ele>609.3</ele>
        <time>2023-08-12T11:05:42Z</time>
      </trkpt>
      <trkpt lat="48.05895" lon="7.06997">
        <ele>609.5</ele>
        <time>2023-08-12T11:05:43Z</time>
      </trkpt>
      <trkpt lat="48.05895" lon="7.06994">
        <ele>609.7</ele>
        <time>2023-08-12T11:05:44Z</time>
      </trkpt>
      <trkpt lat="48.05895" lon="7.06991">
        <ele>609.9</ele>
        <time>2023-08-12T11:05:45Z</time>
      </trkpt>
      <trkpt lat="48.05896" lon="7.06987">
        <ele>610.2</ele>
        <time>2023-08-12T11:05:46Z</time>
      </trkpt>
      <trkpt lat="48.05896" lon="7.06982">
        <ele>610.5</ele>
        <time>2023-08-12T11:05:47Z</time>
      </trkpt>
      <trkpt lat="48.05896" lon="7.06979">
        <ele>610.7</ele>
        <time>2023-08-12T11:05:48Z</time>
      </trkpt>
      <trkpt lat="48.05895" lon="7.06976">
        <ele>610.9</ele>
        <time>2023-08-12T11:05:49Z</time>
      </trkpt>
      <trkpt lat="48.05895" lon="7.06972">
        <ele>611.1</ele>
        <time>2023-08-12T11:05:50Z</time>
      </trkpt>
      <trkpt lat="48.05896" lon="7.06968">
        <ele>611.4</ele>
        <time>2023-08-12T11:05:51Z</time>
      </trkpt>
      <trkpt lat="48.05896" lon="7.06965">
        <ele>611.5</ele>
        <time>2023-08-12T11:05:52Z</time>
      </trkpt>
      <trkpt lat="48.05896" lon="7.06964">
        <ele>611.7</ele>
        <time>2023-08-12T11:05:53Z</time>
      </trkpt>
      <trkpt lat="48.05896" lon="7.06961">
        <ele>611.8</ele>
        <time>2023-08-12T11:05:54Z</time>
      </trkpt>
      <trkpt lat="48.05896" lon="7.06957">
        <ele>612</ele>
        <time>2023-08-12T11:05:55Z</time>
      </trkpt>
      <trkpt lat="48.05896" lon="7.06957">
        <ele>612</ele>
        <time>2023-08-12T11:05:56Z</time>
      </trkpt>
      <trkpt lat="48.05896" lon="7.06952">
        <ele>612.4</ele>
        <time>2023-08-12T11:05:57Z</time>
      </trkpt>
      <trkpt lat="48.05895" lon="7.0695">
        <ele>612.5</ele>
        <time>2023-08-12T11:05:58Z</time>
      </trkpt>
      <trkpt lat="48.05895" lon="7.06947">
        <ele>612.7</ele>
        <time>2023-08-12T11:05:59Z</time>
      </trkpt>
      <trkpt lat="48.05894" lon="7.06945">
        <ele>612.8</ele>
        <time>2023-08-12T11:06:00Z</time>
      </trkpt>
      <trkpt lat="48.05895" lon="7.06943">
        <ele>613</ele>
        <time>2023-08-12T11:06:01Z</time>
      </trkpt>
      <trkpt lat="48.05896" lon="7.0694">
        <ele>613.2</ele>
        <time>2023-08-12T11:06:02Z</time>
      </trkpt>
      <trkpt lat="48.05897" lon="7.06935">
        <ele>613.5</ele>
        <time>2023-08-12T11:06:03Z</time>
      </trkpt>
      <trkpt lat="48.05897" lon="7.06933">
        <ele>613.7</ele>
        <time>2023-08-12T11:06:04Z</time>
      </trkpt>
      <trkpt lat="48.05897" lon="7.06931">
        <ele>613.8</ele>
        <time>2023-08-12T11:06:05Z</time>
      </trkpt>
      <trkpt lat="48.05896" lon="7.06928">
        <ele>614</ele>
        <time>2023-08-12T11:06:06Z</time>
      </trkpt>
      <trkpt lat="48.05894" lon="7.06926">
        <ele>614.2</ele>
        <time>2023-08-12T11:06:07Z</time>
      </trkpt>
      <trkpt lat="48.05893" lon="7.06923">
        <ele>614.4</ele>
        <time>2023-08-12T11:06:08Z</time>
      </trkpt>
      <trkpt lat="48.05892" lon="7.06921">
        <ele>614.5</ele>
        <time>2023-08-12T11:06:09Z</time>
      </trkpt>
      <trkpt lat="48.05891" lon="7.0692">
        <ele>614.7</ele>
        <time>2023-08-12T11:06:10Z</time>
      </trkpt>
      <trkpt lat="48.05891" lon="7.06917">
        <ele>614.9</ele>
        <time>2023-08-12T11:06:11Z</time>
      </trkpt>
      <trkpt lat="48.0589" lon="7.06914">
        <ele>615</ele>
        <time>2023-08-12T11:06:12Z</time>
      </trkpt>
      <trkpt lat="48.0589" lon="7.06911">
        <ele>615.2</ele>
        <time>2023-08-12T11:06:13Z</time>
      </trkpt>
      <trkpt lat="48.0589" lon="7.06908">
        <ele>615.4</ele>
        <time>2023-08-12T11:06:14Z</time>
      </trkpt>
      <trkpt lat="48.05889" lon="7.06904">
        <ele>615.7</ele>
        <time>2023-08-12T11:06:15Z</time>
      </trkpt>
      <trkpt lat="48.05889" lon="7.06901">
        <ele>615.9</ele>
        <time>2023-08-12T11:06:16Z</time>
      </trkpt>
      <trkpt lat="48.05889" lon="7.06897">
        <ele>616.1</ele>
        <time>2023-08-12T11:06:17Z</time>
      </trkpt>
      <trkpt lat="48.05889" lon="7.06894">
        <ele>616.3</ele>
        <time>2023-08-12T11:06:18Z</time>
      </trkpt>
      <trkpt lat="48.05889" lon="7.0689">
        <ele>616.5</ele>
        <time>2023-08-12T11:06:19Z</time>
      </trkpt>
      <trkpt lat="48.05889" lon="7.06887">
        <ele>616.7</ele>
        <time>2023-08-12T11:06:20Z</time>
      </trkpt>
      <trkpt lat="48.05888" lon="7.06884">
        <ele>616.9</ele>
        <time>2023-08-12T11:06:21Z</time>
      </trkpt>
      <trkpt lat="48.05887" lon="7.0688">
        <ele>617.1</ele>
        <time>2023-08-12T11:06:22Z</time>
      </trkpt>
      <trkpt lat="48.05886" lon="7.06877">
        <ele>617.3</ele>
        <time>2023-08-12T11:06:23Z</time>
      </trkpt>
      <trkpt lat="48.05885" lon="7.06874">
        <ele>617.6</ele>
        <time>2023-08-12T11:06:24Z</time>
      </trkpt>
      <trkpt lat="48.05885" lon="7.06874">
        <ele>617.6</ele>
        <time>2023-08-12T11:06:25Z</time>
      </trkpt>
      <trkpt lat="48.05885" lon="7.0687">
        <ele>617.8</ele>
        <time>2023-08-12T11:06:26Z</time>
      </trkpt>
      <trkpt lat="48.05885" lon="7.06866">
        <ele>618.1</ele>
        <time>2023-08-12T11:06:27Z</time>
      </trkpt>
      <trkpt lat="48.05885" lon="7.06863">
        <ele>618.3</ele>
        <time>2023-08-12T11:06:28Z</time>
      </trkpt>
      <trkpt lat="48.05886" lon="7.06861">
        <ele>618.4</ele>
        <time>2023-08-12T11:06:29Z</time>
      </trkpt>
      <trkpt lat="48.05886" lon="7.06861">
        <ele>618.4</ele>
        <time>2023-08-12T11:06:30Z</time>
      </trkpt>
      <trkpt lat="48.05887" lon="7.06857">
        <ele>618.7</ele>
        <time>2023-08-12T11:06:31Z</time>
      </trkpt>
      <trkpt lat="48.05886" lon="7.06854">
        <ele>618.9</ele>
        <time>2023-08-12T11:06:32Z</time>
      </trkpt>
      <trkpt lat="48.05888" lon="7.06851">
        <ele>619.2</ele>
        <time>2023-08-12T11:06:33Z</time>
      </trkpt>
      <trkpt lat="48.05889" lon="7.06846">
        <ele>619.5</ele>
        <time>2023-08-12T11:06:34Z</time>
      </trkpt>
      <trkpt lat="48.05888" lon="7.06843">
        <ele>619.8</ele>
        <time>2023-08-12T11:06:35Z</time>
      </trkpt>
      <trkpt lat="48.05888" lon="7.0684">
        <ele>620</ele>
        <time>2023-08-12T11:06:36Z</time>
      </trkpt>
      <trkpt lat="48.05888" lon="7.06835">
        <ele>620.2</ele>
        <time>2023-08-12T11:06:37Z</time>
      </trkpt>
      <trkpt lat="48.05888" lon="7.06832">
        <ele>620.5</ele>
        <time>2023-08-12T11:06:38Z</time>
      </trkpt>
      <trkpt lat="48.05888" lon="7.0683">
        <ele>620.6</ele>
        <time>2023-08-12T11:06:39Z</time>
      </trkpt>
      <trkpt lat="48.05887" lon="7.06826">
        <ele>620.8</ele>
        <time>2023-08-12T11:06:40Z</time>
      </trkpt>
      <trkpt lat="48.05886" lon="7.06823">
        <ele>621.1</ele>
        <time>2023-08-12T11:06:41Z</time>
      </trkpt>
      <trkpt lat="48.05885" lon="7.0682">
        <ele>621.2</ele>
        <time>2023-08-12T11:06:42Z</time>
      </trkpt>
      <trkpt lat="48.05885" lon="7.06817">
        <ele>621.4</ele>
        <time>2023-08-12T11:06:43Z</time>
      </trkpt>
      <trkpt lat="48.05884" lon="7.06813">
        <ele>621.7</ele>
        <time>2023-08-12T11:06:44Z</time>
      </trkpt>
      <trkpt lat="48.05884" lon="7.0681">
        <ele>621.8</ele>
        <time>2023-08-12T11:06:45Z</time>
      </trkpt>
      <trkpt lat="48.05883" lon="7.06808">
        <ele>622</ele>
        <time>2023-08-12T11:06:46Z</time>
      </trkpt>
      <trkpt lat="48.05883" lon="7.06807">
        <ele>622.1</ele>
        <time>2023-08-12T11:06:47Z</time>
      </trkpt>
      <trkpt lat="48.05883" lon="7.06804">
        <ele>622.3</ele>
        <time>2023-08-12T11:06:48Z</time>
      </trkpt>
      <trkpt lat="48.05883" lon="7.06802">
        <ele>622.4</ele>
        <time>2023-08-12T11:06:49Z</time>
      </trkpt>
      <trkpt lat="48.05883" lon="7.068">
        <ele>622.5</ele>
        <time>2023-08-12T11:06:50Z</time>
      </trkpt>
      <trkpt lat="48.05884" lon="7.06798">
        <ele>622.6</ele>
        <time>2023-08-12T11:06:51Z</time>
      </trkpt>
      <trkpt lat="48.05884" lon="7.06796">
        <ele>622.7</ele>
        <time>2023-08-12T11:06:52Z</time>
      </trkpt>
      <trkpt lat="48.05884" lon="7.06794">
        <ele>622.9</ele>
        <time>2023-08-12T11:06:53Z</time>
      </trkpt>
      <trkpt lat="48.05883" lon="7.06792">
        <ele>623</ele>
        <time>2023-08-12T11:06:54Z</time>
      </trkpt>
      <trkpt lat="48.05883" lon="7.0679">
        <ele>623.1</ele>
        <time>2023-08-12T11:06:55Z</time>
      </trkpt>
      <trkpt lat="48.05883" lon="7.06787">
        <ele>623.3</ele>
        <time>2023-08-12T11:06:56Z</time>
      </trkpt>
      <trkpt lat="48.05882" lon="7.06783">
        <ele>623.5</ele>
        <time>2023-08-12T11:06:57Z</time>
      </trkpt>
      <trkpt lat="48.05882" lon="7.06781">
        <ele>623.6</ele>
        <time>2023-08-12T11:06:58Z</time>
      </trkpt>
      <trkpt lat="48.05881" lon="7.0678">
        <ele>623.8</ele>
        <time>2023-08-12T11:06:59Z</time>
      </trkpt>
      <trkpt lat="48.05881" lon="7.06777">
        <ele>623.9</ele>
        <time>2023-08-12T11:07:00Z</time>
      </trkpt>
      <trkpt lat="48.0588" lon="7.06775">
        <ele>624.1</ele>
        <time>2023-08-12T11:07:01Z</time>
      </trkpt>
      <trkpt lat="48.0588" lon="7.06773">
        <ele>624.2</ele>
        <time>2023-08-12T11:07:02Z</time>
      </trkpt>
      <trkpt lat="48.05879" lon="7.0677">
        <ele>624.4</ele>
        <time>2023-08-12T11:07:03Z</time>
      </trkpt>
      <trkpt lat="48.05879" lon="7.0677">
        <ele>624.4</ele>
        <time>2023-08-12T11:07:04Z</time>
      </trkpt>
      <trkpt lat="48.05879" lon="7.06764">
        <ele>624.7</ele>
        <time>2023-08-12T11:07:05Z</time>
      </trkpt>
      <trkpt lat="48.05879" lon="7.06762">
        <ele>624.9</ele>
        <time>2023-08-12T11:07:06Z</time>
      </trkpt>
      <trkpt lat="48.05879" lon="7.06758">
        <ele>625.1</ele>
        <time>2023-08-12T11:07:07Z</time>
      </trkpt>
      <trkpt lat="48.05879" lon="7.06756">
        <ele>625.2</ele>
        <time>2023-08-12T11:07:08Z</time>
      </trkpt>
      <trkpt lat="48.05879" lon="7.06756">
        <ele>625.2</ele>
        <time>2023-08-12T11:07:09Z</time>
      </trkpt>
      <trkpt lat="48.05878" lon="7.06752">
        <ele>625.5</ele>
        <time>2023-08-12T11:07:10Z</time>
      </trkpt>
      <trkpt lat="48.05878" lon="7.06749">
        <ele>625.7</ele>
        <time>2023-08-12T11:07:11Z</time>
      </trkpt>
      <trkpt lat="48.05878" lon="7.06745">
        <ele>625.9</ele>
        <time>2023-08-12T11:07:12Z</time>
      </trkpt>
      <trkpt lat="48.05877" lon="7.06742">
        <ele>626.2</ele>
        <time>2023-08-12T11:07:13Z</time>
      </trkpt>
      <trkpt lat="48.05877" lon="7.06737">
        <ele>626.4</ele>
        <time>2023-08-12T11:07:14Z</time>
      </trkpt>
      <trkpt lat="48.05877" lon="7.06733">
        <ele>626.7</ele>
        <time>2023-08-12T11:07:15Z</time>
      </trkpt>
      <trkpt lat="48.05877" lon="7.06729">
        <ele>627</ele>
        <time>2023-08-12T11:07:16Z</time>
      </trkpt>
      <trkpt lat="48.05877" lon="7.06726">
        <ele>627.1</ele>
        <time>2023-08-12T11:07:17Z</time>
      </trkpt>
      <trkpt lat="48.05877" lon="7.06724">
        <ele>627.3</ele>
        <time>2023-08-12T11:07:18Z</time>
      </trkpt>
      <trkpt lat="48.05877" lon="7.06724">
        <ele>627.3</ele>
        <time>2023-08-12T11:07:19Z</time>
      </trkpt>
      <trkpt lat="48.05877" lon="7.06721">
        <ele>627.5</ele>
        <time>2023-08-12T11:07:20Z</time>
      </trkpt>
      <trkpt lat="48.05878" lon="7.06715">
        <ele>627.9</ele>
        <time>2023-08-12T11:07:21Z</time>
      </trkpt>
      <trkpt lat="48.05879" lon="7.06712">
        <ele>628.1</ele>
        <time>2023-08-12T11:07:22Z</time>
      </trkpt>
      <trkpt lat="48.05879" lon="7.06709">
        <ele>628.3</ele>
        <time>2023-08-12T11:07:23Z</time>
      </trkpt>
      <trkpt lat="48.0588" lon="7.06707">
        <ele>628.4</ele>
        <time>2023-08-12T11:07:24Z</time>
      </trkpt>
      <trkpt lat="48.05881" lon="7.06706">
        <ele>628.6</ele>
        <time>2023-08-12T11:07:25Z</time>
      </trkpt>
      <trkpt lat="48.05881" lon="7.06704">
        <ele>628.7</ele>
        <time>2023-08-12T11:07:26Z</time>
      </trkpt>
      <trkpt lat="48.05881" lon="7.06703">
        <ele>628.7</ele>
        <time>2023-08-12T11:07:27Z</time>
      </trkpt>
      <trkpt lat="48.05881" lon="7.067">
        <ele>629</ele>
        <time>2023-08-12T11:07:28Z</time>
      </trkpt>
      <trkpt lat="48.05882" lon="7.06698">
        <ele>629.2</ele>
        <time>2023-08-12T11:07:29Z</time>
      </trkpt>
      <trkpt lat="48.05882" lon="7.06695">
        <ele>629.4</ele>
        <time>2023-08-12T11:07:30Z</time>
      </trkpt>
      <trkpt lat="48.05883" lon="7.06692">
        <ele>629.6</ele>
        <time>2023-08-12T11:07:31Z</time>
      </trkpt>
      <trkpt lat="48.05883" lon="7.0669">
        <ele>629.7</ele>
        <time>2023-08-12T11:07:32Z</time>
      </trkpt>
      <trkpt lat="48.05884" lon="7.06689">
        <ele>629.9</ele>
        <time>2023-08-12T11:07:33Z</time>
      </trkpt>
      <trkpt lat="48.05884" lon="7.06687">
        <ele>630</ele>
        <time>2023-08-12T11:07:34Z</time>
      </trkpt>
      <trkpt lat="48.05885" lon="7.06685">
        <ele>630.2</ele>
        <time>2023-08-12T11:07:35Z</time>
      </trkpt>
      <trkpt lat="48.05885" lon="7.06682">
        <ele>630.3</ele>
        <time>2023-08-12T11:07:36Z</time>
      </trkpt>
      <trkpt lat="48.05886" lon="7.06681">
        <ele>630.4</ele>
        <time>2023-08-12T11:07:37Z</time>
      </trkpt>
      <trkpt lat="48.05886" lon="7.06681">
        <ele>630.4</ele>
        <time>2023-08-12T11:07:38Z</time>
      </trkpt>
      <trkpt lat="48.05886" lon="7.06679">
        <ele>630.6</ele>
        <time>2023-08-12T11:07:39Z</time>
      </trkpt>
      <trkpt lat="48.05887" lon="7.06676">
        <ele>630.8</ele>
        <time>2023-08-12T11:07:40Z</time>
      </trkpt>
      <trkpt lat="48.05888" lon="7.06675">
        <ele>631</ele>
        <time>2023-08-12T11:07:41Z</time>
      </trkpt>
      <trkpt lat="48.05888" lon="7.06673">
        <ele>631.1</ele>
        <time>2023-08-12T11:07:42Z</time>
      </trkpt>
      <trkpt lat="48.05889" lon="7.0667">
        <ele>631.3</ele>
        <time>2023-08-12T11:07:43Z</time>
      </trkpt>
      <trkpt lat="48.0589" lon="7.06667">
        <ele>631.5</ele>
        <time>2023-08-12T11:07:44Z</time>
      </trkpt>
      <trkpt lat="48.05891" lon="7.06665">
        <ele>631.7</ele>
        <time>2023-08-12T11:07:45Z</time>
      </trkpt>
      <trkpt lat="48.05891" lon="7.06661">
        <ele>632</ele>
        <time>2023-08-12T11:07:46Z</time>
      </trkpt>
      <trkpt lat="48.05892" lon="7.06658">
        <ele>632.2</ele>
        <time>2023-08-12T11:07:47Z</time>
      </trkpt>
      <trkpt lat="48.05893" lon="7.06656">
        <ele>632.4</ele>
        <time>2023-08-12T11:07:48Z</time>
      </trkpt>
      <trkpt lat="48.05894" lon="7.06654">
        <ele>632.5</ele>
        <time>2023-08-12T11:07:49Z</time>
      </trkpt>
      <trkpt lat="48.05895" lon="7.06652">
        <ele>632.7</ele>
        <time>2023-08-12T11:07:50Z</time>
      </trkpt>
      <trkpt lat="48.05896" lon="7.0665">
        <ele>632.8</ele>
        <time>2023-08-12T11:07:51Z</time>
      </trkpt>
      <trkpt lat="48.05896" lon="7.06647">
        <ele>633</ele>
        <time>2023-08-12T11:07:52Z</time>
      </trkpt>
      <trkpt lat="48.05897" lon="7.06644">
        <ele>633.2</ele>
        <time>2023-08-12T11:07:53Z</time>
      </trkpt>
      <trkpt lat="48.05897" lon="7.0664">
        <ele>633.4</ele>
        <time>2023-08-12T11:07:54Z</time>
      </trkpt>
      <trkpt lat="48.05896" lon="7.06637">
        <ele>633.6</ele>
        <time>2023-08-12T11:07:55Z</time>
      </trkpt>
      <trkpt lat="48.05896" lon="7.06634">
        <ele>633.8</ele>
        <time>2023-08-12T11:07:56Z</time>
      </trkpt>
      <trkpt lat="48.05896" lon="7.06631">
        <ele>633.9</ele>
        <time>2023-08-12T11:07:57Z</time>
      </trkpt>
      <trkpt lat="48.05895" lon="7.06628">
        <ele>634.1</ele>
        <time>2023-08-12T11:07:58Z</time>
      </trkpt>
      <trkpt lat="48.05895" lon="7.06625">
        <ele>634.3</ele>
        <time>2023-08-12T11:07:59Z</time>
      </trkpt>
      <trkpt lat="48.05895" lon="7.06622">
        <ele>634.5</ele>
        <time>2023-08-12T11:08:00Z</time>
      </trkpt>
      <trkpt lat="48.05897" lon="7.06618">
        <ele>634.8</ele>
        <time>2023-08-12T11:08:01Z</time>
      </trkpt>
      <trkpt lat="48.05897" lon="7.06614">
        <ele>635</ele>
        <time>2023-08-12T11:08:02Z</time>
      </trkpt>
      <trkpt lat="48.05897" lon="7.06614">
        <ele>635</ele>
        <time>2023-08-12T11:08:03Z</time>
      </trkpt>
      <trkpt lat="48.05897" lon="7.0661">
        <ele>635.2</ele>
        <time>2023-08-12T11:08:04Z</time>
      </trkpt>
      <trkpt lat="48.05895" lon="7.06599">
        <ele>635.8</ele>
        <time>2023-08-12T11:08:05Z</time>
      </trkpt>
      <trkpt lat="48.05896" lon="7.06596">
        <ele>636</ele>
        <time>2023-08-12T11:08:06Z</time>
      </trkpt>
      <trkpt lat="48.05897" lon="7.06592">
        <ele>636.2</ele>
        <time>2023-08-12T11:08:07Z</time>
      </trkpt>
      <trkpt lat="48.05897" lon="7.06588">
        <ele>636.4</ele>
        <time>2023-08-12T11:08:08Z</time>
      </trkpt>
      <trkpt lat="48.05897" lon="7.06585">
        <ele>636.6</ele>
        <time>2023-08-12T11:08:09Z</time>
      </trkpt>
      <trkpt lat="48.05897" lon="7.06583">
        <ele>636.7</ele>
        <time>2023-08-12T11:08:10Z</time>
      </trkpt>
      <trkpt lat="48.05898" lon="7.06582">
        <ele>636.8</ele>
        <time>2023-08-12T11:08:11Z</time>
      </trkpt>
      <trkpt lat="48.05899" lon="7.0658">
        <ele>636.9</ele>
        <time>2023-08-12T11:08:12Z</time>
      </trkpt>
      <trkpt lat="48.059" lon="7.06579">
        <ele>637</ele>
        <time>2023-08-12T11:08:13Z</time>
      </trkpt>
      <trkpt lat="48.05901" lon="7.06576">
        <ele>637.2</ele>
        <time>2023-08-12T11:08:14Z</time>
      </trkpt>
      <trkpt lat="48.05902" lon="7.06574">
        <ele>637.3</ele>
        <time>2023-08-12T11:08:15Z</time>
      </trkpt>
      <trkpt lat="48.05902" lon="7.06573">
        <ele>637.4</ele>
        <time>2023-08-12T11:08:16Z</time>
      </trkpt>
      <trkpt lat="48.05903" lon="7.06571">
        <ele>637.6</ele>
        <time>2023-08-12T11:08:17Z</time>
      </trkpt>
      <trkpt lat="48.05903" lon="7.06568">
        <ele>637.7</ele>
        <time>2023-08-12T11:08:18Z</time>
      </trkpt>
      <trkpt lat="48.05903" lon="7.06564">
        <ele>638</ele>
        <time>2023-08-12T11:08:19Z</time>
      </trkpt>
      <trkpt lat="48.05903" lon="7.0656">
        <ele>638.2</ele>
        <time>2023-08-12T11:08:20Z</time>
      </trkpt>
      <trkpt lat="48.05903" lon="7.06558">
        <ele>638.3</ele>
        <time>2023-08-12T11:08:21Z</time>
      </trkpt>
      <trkpt lat="48.05903" lon="7.06555">
        <ele>638.5</ele>
        <time>2023-08-12T11:08:22Z</time>
      </trkpt>
      <trkpt lat="48.05903" lon="7.06552">
        <ele>638.7</ele>
        <time>2023-08-12T11:08:23Z</time>
      </trkpt>
      <trkpt lat="48.05904" lon="7.06549">
        <ele>638.9</ele>
        <time>2023-08-12T11:08:24Z</time>
      </trkpt>
      <trkpt lat="48.05904" lon="7.06547">
        <ele>639</ele>
        <time>2023-08-12T11:08:25Z</time>
      </trkpt>
      <trkpt lat="48.05904" lon="7.06545">
        <ele>639.2</ele>
        <time>2023-08-12T11:08:26Z</time>
      </trkpt>
      <trkpt lat="48.05904" lon="7.06542">
        <ele>639.4</ele>
        <time>2023-08-12T11:08:27Z</time>
      </trkpt>
      <trkpt lat="48.05904" lon="7.06539">
        <ele>639.6</ele>
        <time>2023-08-12T11:08:28Z</time>
      </trkpt>
      <trkpt lat="48.05904" lon="7.06539">
        <ele>639.6</ele>
        <time>2023-08-12T11:08:29Z</time>
      </trkpt>
      <trkpt lat="48.05905" lon="7.06534">
        <ele>639.9</ele>
        <time>2023-08-12T11:08:30Z</time>
      </trkpt>
      <trkpt lat="48.05905" lon="7.06531">
        <ele>640.1</ele>
        <time>2023-08-12T11:08:31Z</time>
      </trkpt>
      <trkpt lat="48.05906" lon="7.06529">
        <ele>640.2</ele>
        <time>2023-08-12T11:08:32Z</time>
      </trkpt>
      <trkpt lat="48.05907" lon="7.06527">
        <ele>640.4</ele>
        <time>2023-08-12T11:08:33Z</time>
      </trkpt>
      <trkpt lat="48.05908" lon="7.06525">
        <ele>640.6</ele>
        <time>2023-08-12T11:08:34Z</time>
      </trkpt>
      <trkpt lat="48.05908" lon="7.06522">
        <ele>640.7</ele>
        <time>2023-08-12T11:08:35Z</time>
      </trkpt>
      <trkpt lat="48.05908" lon="7.06521">
        <ele>640.9</ele>
        <time>2023-08-12T11:08:36Z</time>
      </trkpt>
      <trkpt lat="48.05908" lon="7.06518">
        <ele>641</ele>
        <time>2023-08-12T11:08:37Z</time>
      </trkpt>
      <trkpt lat="48.05908" lon="7.06516">
        <ele>641.2</ele>
        <time>2023-08-12T11:08:38Z</time>
      </trkpt>
      <trkpt lat="48.05909" lon="7.06513">
        <ele>641.3</ele>
        <time>2023-08-12T11:08:39Z</time>
      </trkpt>
      <trkpt lat="48.05909" lon="7.06513">
        <ele>641.3</ele>
        <time>2023-08-12T11:08:40Z</time>
      </trkpt>
      <trkpt lat="48.05908" lon="7.06508">
        <ele>641.6</ele>
        <time>2023-08-12T11:08:41Z</time>
      </trkpt>
      <trkpt lat="48.05909" lon="7.06506">
        <ele>641.8</ele>
        <time>2023-08-12T11:08:42Z</time>
      </trkpt>
      <trkpt lat="48.05909" lon="7.06503">
        <ele>641.9</ele>
        <time>2023-08-12T11:08:43Z</time>
      </trkpt>
      <trkpt lat="48.05908" lon="7.065">
        <ele>642.1</ele>
        <time>2023-08-12T11:08:44Z</time>
      </trkpt>
      <trkpt lat="48.05908" lon="7.06498">
        <ele>642.2</ele>
        <time>2023-08-12T11:08:45Z</time>
      </trkpt>
      <trkpt lat="48.05907" lon="7.06496">
        <ele>642.3</ele>
        <time>2023-08-12T11:08:46Z</time>
      </trkpt>
      <trkpt lat="48.05907" lon="7.06496">
        <ele>642.3</ele>
        <time>2023-08-12T11:08:47Z</time>
      </trkpt>
      <trkpt lat="48.05906" lon="7.06493">
        <ele>642.5</ele>
        <time>2023-08-12T11:08:48Z</time>
      </trkpt>
      <trkpt lat="48.05905" lon="7.06491">
        <ele>642.7</ele>
        <time>2023-08-12T11:08:49Z</time>
      </trkpt>
      <trkpt lat="48.05905" lon="7.06488">
        <ele>642.9</ele>
        <time>2023-08-12T11:08:50Z</time>
      </trkpt>
      <trkpt lat="48.05905" lon="7.06485">
        <ele>643</ele>
        <time>2023-08-12T11:08:51Z</time>
      </trkpt>
      <trkpt lat="48.05904" lon="7.06482">
        <ele>643.2</ele>
        <time>2023-08-12T11:08:52Z</time>
      </trkpt>
      <trkpt lat="48.05904" lon="7.06479">
        <ele>643.4</ele>
        <time>2023-08-12T11:08:53Z</time>
      </trkpt>
      <trkpt lat="48.05903" lon="7.06475">
        <ele>643.6</ele>
        <time>2023-08-12T11:08:54Z</time>
      </trkpt>
      <trkpt lat="48.05903" lon="7.06475">
        <ele>643.6</ele>
        <time>2023-08-12T11:08:55Z</time>
      </trkpt>
      <trkpt lat="48.05903" lon="7.06472">
        <ele>643.8</ele>
        <time>2023-08-12T11:08:56Z</time>
      </trkpt>
      <trkpt lat="48.05903" lon="7.0647">
        <ele>643.9</ele>
        <time>2023-08-12T11:08:57Z</time>
      </trkpt>
      <trkpt lat="48.05903" lon="7.06468">
        <ele>644.1</ele>
        <time>2023-08-12T11:08:58Z</time>
      </trkpt>
      <trkpt lat="48.05904" lon="7.06465">
        <ele>644.3</ele>
        <time>2023-08-12T11:08:59Z</time>
      </trkpt>
      <trkpt lat="48.05903" lon="7.06462">
        <ele>644.5</ele>
        <time>2023-08-12T11:09:00Z</time>
      </trkpt>
      <trkpt lat="48.05903" lon="7.06459">
        <ele>644.7</ele>
        <time>2023-08-12T11:09:01Z</time>
      </trkpt>
      <trkpt lat="48.05902" lon="7.06455">
        <ele>644.9</ele>
        <time>2023-08-12T11:09:02Z</time>
      </trkpt>
      <trkpt lat="48.05901" lon="7.06452">
        <ele>645.1</ele>
        <time>2023-08-12T11:09:03Z</time>
      </trkpt>
      <trkpt lat="48.059" lon="7.0645">
        <ele>645.3</ele>
        <time>2023-08-12T11:09:04Z</time>
      </trkpt>
      <trkpt lat="48.05901" lon="7.06447">
        <ele>645.5</ele>
        <time>2023-08-12T11:09:05Z</time>
      </trkpt>
      <trkpt lat="48.05901" lon="7.06444">
        <ele>645.7</ele>
        <time>2023-08-12T11:09:06Z</time>
      </trkpt>
      <trkpt lat="48.05901" lon="7.0644">
        <ele>645.9</ele>
        <time>2023-08-12T11:09:07Z</time>
      </trkpt>
      <trkpt lat="48.05902" lon="7.06437">
        <ele>646.1</ele>
        <time>2023-08-12T11:09:08Z</time>
      </trkpt>
      <trkpt lat="48.05901" lon="7.06435">
        <ele>646.3</ele>
        <time>2023-08-12T11:09:09Z</time>
      </trkpt>
      <trkpt lat="48.059" lon="7.06432">
        <ele>646.4</ele>
        <time>2023-08-12T11:09:10Z</time>
      </trkpt>
      <trkpt lat="48.059" lon="7.0643">
        <ele>646.5</ele>
        <time>2023-08-12T11:09:11Z</time>
      </trkpt>
      <trkpt lat="48.059" lon="7.06427">
        <ele>646.8</ele>
        <time>2023-08-12T11:09:12Z</time>
      </trkpt>
      <trkpt lat="48.05901" lon="7.0642">
        <ele>647.1</ele>
        <time>2023-08-12T11:09:13Z</time>
      </trkpt>
      <trkpt lat="48.059" lon="7.06418">
        <ele>647.3</ele>
        <time>2023-08-12T11:09:14Z</time>
      </trkpt>
      <trkpt lat="48.05899" lon="7.06416">
        <ele>647.4</ele>
        <time>2023-08-12T11:09:15Z</time>
      </trkpt>
      <trkpt lat="48.05898" lon="7.06415">
        <ele>647.6</ele>
        <time>2023-08-12T11:09:16Z</time>
      </trkpt>
      <trkpt lat="48.05897" lon="7.06413">
        <ele>647.7</ele>
        <time>2023-08-12T11:09:17Z</time>
      </trkpt>
      <trkpt lat="48.05896" lon="7.06411">
        <ele>647.8</ele>
        <time>2023-08-12T11:09:18Z</time>
      </trkpt>
      <trkpt lat="48.05896" lon="7.06408">
        <ele>648</ele>
        <time>2023-08-12T11:09:19Z</time>
      </trkpt>
      <trkpt lat="48.05896" lon="7.06406">
        <ele>648.1</ele>
        <time>2023-08-12T11:09:20Z</time>
      </trkpt>
      <trkpt lat="48.05896" lon="7.06404">
        <ele>648.2</ele>
        <time>2023-08-12T11:09:21Z</time>
      </trkpt>
      <trkpt lat="48.05896" lon="7.06402">
        <ele>648.4</ele>
        <time>2023-08-12T11:09:22Z</time>
      </trkpt>
      <trkpt lat="48.05896" lon="7.06399">
        <ele>648.5</ele>
        <time>2023-08-12T11:09:23Z</time>
      </trkpt>
      <trkpt lat="48.05895" lon="7.06397">
        <ele>648.7</ele>
        <time>2023-08-12T11:09:24Z</time>
      </trkpt>
      <trkpt lat="48.05895" lon="7.06394">
        <ele>648.9</ele>
        <time>2023-08-12T11:09:25Z</time>
      </trkpt>
      <trkpt lat="48.05895" lon="7.06391">
        <ele>649</ele>
        <time>2023-08-12T11:09:26Z</time>
      </trkpt>
      <trkpt lat="48.05894" lon="7.06389">
        <ele>649.2</ele>
        <time>2023-08-12T11:09:27Z</time>
      </trkpt>
      <trkpt lat="48.05894" lon="7.06385">
        <ele>649.4</ele>
        <time>2023-08-12T11:09:28Z</time>
      </trkpt>
      <trkpt lat="48.05895" lon="7.06382">
        <ele>649.6</ele>
        <time>2023-08-12T11:09:29Z</time>
      </trkpt>
      <trkpt lat="48.05895" lon="7.0638">
        <ele>649.8</ele>
        <time>2023-08-12T11:09:30Z</time>
      </trkpt>
      <trkpt lat="48.05896" lon="7.06377">
        <ele>649.9</ele>
        <time>2023-08-12T11:09:31Z</time>
      </trkpt>
      <trkpt lat="48.05896" lon="7.06374">
        <ele>650.1</ele>
        <time>2023-08-12T11:09:32Z</time>
      </trkpt>
      <trkpt lat="48.05897" lon="7.06372">
        <ele>650.3</ele>
        <time>2023-08-12T11:09:33Z</time>
      </trkpt>
      <trkpt lat="48.05898" lon="7.06369">
        <ele>650.5</ele>
        <time>2023-08-12T11:09:34Z</time>
      </trkpt>
      <trkpt lat="48.05898" lon="7.06365">
        <ele>650.7</ele>
        <time>2023-08-12T11:09:35Z</time>
      </trkpt>
      <trkpt lat="48.05899" lon="7.06362">
        <ele>650.9</ele>
        <time>2023-08-12T11:09:36Z</time>
      </trkpt>
      <trkpt lat="48.05898" lon="7.06359">
        <ele>651.1</ele>
        <time>2023-08-12T11:09:37Z</time>
      </trkpt>
      <trkpt lat="48.05898" lon="7.06355">
        <ele>651.3</ele>
        <time>2023-08-12T11:09:38Z</time>
      </trkpt>
      <trkpt lat="48.05898" lon="7.06351">
        <ele>651.6</ele>
        <time>2023-08-12T11:09:39Z</time>
      </trkpt>
      <trkpt lat="48.05899" lon="7.06348">
        <ele>651.8</ele>
        <time>2023-08-12T11:09:40Z</time>
      </trkpt>
      <trkpt lat="48.05899" lon="7.06346">
        <ele>651.9</ele>
        <time>2023-08-12T11:09:41Z</time>
      </trkpt>
      <trkpt lat="48.05899" lon="7.06342">
        <ele>652.1</ele>
        <time>2023-08-12T11:09:42Z</time>
      </trkpt>
      <trkpt lat="48.059" lon="7.06339">
        <ele>652.3</ele>
        <time>2023-08-12T11:09:43Z</time>
      </trkpt>
      <trkpt lat="48.059" lon="7.06337">
        <ele>652.4</ele>
        <time>2023-08-12T11:09:44Z</time>
      </trkpt>
      <trkpt lat="48.05901" lon="7.06335">
        <ele>652.5</ele>
        <time>2023-08-12T11:09:45Z</time>
      </trkpt>
      <trkpt lat="48.05901" lon="7.06332">
        <ele>652.7</ele>
        <time>2023-08-12T11:09:46Z</time>
      </trkpt>
      <trkpt lat="48.05902" lon="7.0633">
        <ele>652.9</ele>
        <time>2023-08-12T11:09:47Z</time>
      </trkpt>
      <trkpt lat="48.05903" lon="7.06328">
        <ele>653</ele>
        <time>2023-08-12T11:09:48Z</time>
      </trkpt>
      <trkpt lat="48.05903" lon="7.06324">
        <ele>653.2</ele>
        <time>2023-08-12T11:09:49Z</time>
      </trkpt>
      <trkpt lat="48.05904" lon="7.06321">
        <ele>653.4</ele>
        <time>2023-08-12T11:09:50Z</time>
      </trkpt>
      <trkpt lat="48.05903" lon="7.06317">
        <ele>653.7</ele>
        <time>2023-08-12T11:09:51Z</time>
      </trkpt>
      <trkpt lat="48.05902" lon="7.06315">
        <ele>653.8</ele>
        <time>2023-08-12T11:09:52Z</time>
      </trkpt>
      <trkpt lat="48.05902" lon="7.06313">
        <ele>653.9</ele>
        <time>2023-08-12T11:09:53Z</time>
      </trkpt>
      <trkpt lat="48.05902" lon="7.0631">
        <ele>654.1</ele>
        <time>2023-08-12T11:09:54Z</time>
      </trkpt>
      <trkpt lat="48.05903" lon="7.06308">
        <ele>654.2</ele>
        <time>2023-08-12T11:09:55Z</time>
      </trkpt>
      <trkpt lat="48.05903" lon="7.06306">
        <ele>654.3</ele>
        <time>2023-08-12T11:09:56Z</time>
      </trkpt>
      <trkpt lat="48.05903" lon="7.06304">
        <ele>654.5</ele>
        <time>2023-08-12T11:09:57Z</time>
      </trkpt>
      <trkpt lat="48.05904" lon="7.06302">
        <ele>654.6</ele>
        <time>2023-08-12T11:09:58Z</time>
      </trkpt>
      <trkpt lat="48.05903" lon="7.06301">
        <ele>654.7</ele>
        <time>2023-08-12T11:09:59Z</time>
      </trkpt>
      <trkpt lat="48.05903" lon="7.06299">
        <ele>654.8</ele>
        <time>2023-08-12T11:10:00Z</time>
      </trkpt>
      <trkpt lat="48.05903" lon="7.06298">
        <ele>654.9</ele>
        <time>2023-08-12T11:10:01Z</time>
      </trkpt>
      <trkpt lat="48.05903" lon="7.06295">
        <ele>655</ele>
        <time>2023-08-12T11:10:02Z</time>
      </trkpt>
      <trkpt lat="48.05903" lon="7.06292">
        <ele>655.2</ele>
        <time>2023-08-12T11:10:03Z</time>
      </trkpt>
      <trkpt lat="48.05904" lon="7.06289">
        <ele>655.4</ele>
        <time>2023-08-12T11:10:04Z</time>
      </trkpt>
      <trkpt lat="48.05904" lon="7.06286">
        <ele>655.6</ele>
        <time>2023-08-12T11:10:05Z</time>
      </trkpt>
      <trkpt lat="48.05903" lon="7.06283">
        <ele>655.9</ele>
        <time>2023-08-12T11:10:06Z</time>
      </trkpt>
      <trkpt lat="48.05903" lon="7.06281">
        <ele>656</ele>
        <time>2023-08-12T11:10:07Z</time>
      </trkpt>
      <trkpt lat="48.05903" lon="7.06279">
        <ele>656.2</ele>
        <time>2023-08-12T11:10:08Z</time>
      </trkpt>
      <trkpt lat="48.05904" lon="7.06277">
        <ele>656.3</ele>
        <time>2023-08-12T11:10:09Z</time>
      </trkpt>
      <trkpt lat="48.05904" lon="7.06274">
        <ele>656.5</ele>
        <time>2023-08-12T11:10:10Z</time>
      </trkpt>
      <trkpt lat="48.05904" lon="7.0627">
        <ele>656.8</ele>
        <time>2023-08-12T11:10:11Z</time>
      </trkpt>
      <trkpt lat="48.05905" lon="7.06265">
        <ele>657.1</ele>
        <time>2023-08-12T11:10:12Z</time>
      </trkpt>
      <trkpt lat="48.05906" lon="7.06263">
        <ele>657.2</ele>
        <time>2023-08-12T11:10:13Z</time>
      </trkpt>
      <trkpt lat="48.05906" lon="7.06261">
        <ele>657.4</ele>
        <time>2023-08-12T11:10:14Z</time>
      </trkpt>
      <trkpt lat="48.05906" lon="7.06259">
        <ele>657.5</ele>
        <time>2023-08-12T11:10:15Z</time>
      </trkpt>
      <trkpt lat="48.05906" lon="7.06256">
        <ele>657.7</ele>
        <time>2023-08-12T11:10:16Z</time>
      </trkpt>
      <trkpt lat="48.05907" lon="7.06254">
        <ele>657.9</ele>
        <time>2023-08-12T11:10:17Z</time>
      </trkpt>
      <trkpt lat="48.05907" lon="7.06251">
        <ele>658</ele>
        <time>2023-08-12T11:10:18Z</time>
      </trkpt>
      <trkpt lat="48.05908" lon="7.06246">
        <ele>658.3</ele>
        <time>2023-08-12T11:10:19Z</time>
      </trkpt>
      <trkpt lat="48.0591" lon="7.06244">
        <ele>658.6</ele>
        <time>2023-08-12T11:10:20Z</time>
      </trkpt>
      <trkpt lat="48.05911" lon="7.06241">
        <ele>658.7</ele>
        <time>2023-08-12T11:10:21Z</time>
      </trkpt>
      <trkpt lat="48.05911" lon="7.06238">
        <ele>658.9</ele>
        <time>2023-08-12T11:10:22Z</time>
      </trkpt>
      <trkpt lat="48.05912" lon="7.06236">
        <ele>659.1</ele>
        <time>2023-08-12T11:10:23Z</time>
      </trkpt>
      <trkpt lat="48.05913" lon="7.06233">
        <ele>659.2</ele>
        <time>2023-08-12T11:10:24Z</time>
      </trkpt>
      <trkpt lat="48.05913" lon="7.0623">
        <ele>659.5</ele>
        <time>2023-08-12T11:10:25Z</time>
      </trkpt>
      <trkpt lat="48.05914" lon="7.06226">
        <ele>659.7</ele>
        <time>2023-08-12T11:10:26Z</time>
      </trkpt>
      <trkpt lat="48.05913" lon="7.06221">
        <ele>660</ele>
        <time>2023-08-12T11:10:27Z</time>
      </trkpt>
      <trkpt lat="48.05913" lon="7.06217">
        <ele>660.2</ele>
        <time>2023-08-12T11:10:28Z</time>
      </trkpt>
      <trkpt lat="48.05912" lon="7.06214">
        <ele>660.4</ele>
        <time>2023-08-12T11:10:29Z</time>
      </trkpt>
      <trkpt lat="48.05912" lon="7.06211">
        <ele>660.6</ele>
        <time>2023-08-12T11:10:30Z</time>
      </trkpt>
      <trkpt lat="48.05912" lon="7.06208">
        <ele>660.8</ele>
        <time>2023-08-12T11:10:31Z</time>
      </trkpt>
      <trkpt lat="48.05913" lon="7.06206">
        <ele>660.9</ele>
        <time>2023-08-12T11:10:32Z</time>
      </trkpt>
      <trkpt lat="48.05913" lon="7.06203">
        <ele>661.1</ele>
        <time>2023-08-12T11:10:33Z</time>
      </trkpt>
      <trkpt lat="48.05913" lon="7.06203">
        <ele>661.1</ele>
        <time>2023-08-12T11:10:34Z</time>
      </trkpt>
      <trkpt lat="48.05912" lon="7.06199">
        <ele>661.3</ele>
        <time>2023-08-12T11:10:35Z</time>
      </trkpt>
      <trkpt lat="48.05912" lon="7.06198">
        <ele>661.4</ele>
        <time>2023-08-12T11:10:36Z</time>
      </trkpt>
      <trkpt lat="48.05913" lon="7.06194">
        <ele>661.6</ele>
        <time>2023-08-12T11:10:37Z</time>
      </trkpt>
      <trkpt lat="48.05913" lon="7.06191">
        <ele>661.9</ele>
        <time>2023-08-12T11:10:38Z</time>
      </trkpt>
      <trkpt lat="48.05915" lon="7.06187">
        <ele>662.1</ele>
        <time>2023-08-12T11:10:39Z</time>
      </trkpt>
      <trkpt lat="48.05915" lon="7.06182">
        <ele>662.4</ele>
        <time>2023-08-12T11:10:40Z</time>
      </trkpt>
      <trkpt lat="48.05915" lon="7.06178">
        <ele>662.6</ele>
        <time>2023-08-12T11:10:41Z</time>
      </trkpt>
      <trkpt lat="48.05915" lon="7.06173">
        <ele>662.9</ele>
        <time>2023-08-12T11:10:42Z</time>
      </trkpt>
      <trkpt lat="48.05914" lon="7.0617">
        <ele>663.1</ele>
        <time>2023-08-12T11:10:43Z</time>
      </trkpt>
      <trkpt lat="48.05914" lon="7.06165">
        <ele>663.4</ele>
        <time>2023-08-12T11:10:44Z</time>
      </trkpt>
      <trkpt lat="48.05914" lon="7.06163">
        <ele>663.5</ele>
        <time>2023-08-12T11:10:45Z</time>
      </trkpt>
      <trkpt lat="48.05913" lon="7.06159">
        <ele>663.7</ele>
        <time>2023-08-12T11:10:46Z</time>
      </trkpt>
      <trkpt lat="48.05913" lon="7.06157">
        <ele>663.8</ele>
        <time>2023-08-12T11:10:47Z</time>
      </trkpt>
      <trkpt lat="48.05914" lon="7.06155">
        <ele>664</ele>
        <time>2023-08-12T11:10:48Z</time>
      </trkpt>
      <trkpt lat="48.05914" lon="7.06152">
        <ele>664.1</ele>
        <time>2023-08-12T11:10:49Z</time>
      </trkpt>
      <trkpt lat="48.05916" lon="7.06151">
        <ele>664.3</ele>
        <time>2023-08-12T11:10:50Z</time>
      </trkpt>
      <trkpt lat="48.05917" lon="7.06149">
        <ele>664.5</ele>
        <time>2023-08-12T11:10:51Z</time>
      </trkpt>
      <trkpt lat="48.05917" lon="7.06147">
        <ele>664.6</ele>
        <time>2023-08-12T11:10:52Z</time>
      </trkpt>
      <trkpt lat="48.05917" lon="7.06144">
        <ele>664.8</ele>
        <time>2023-08-12T11:10:53Z</time>
      </trkpt>
      <trkpt lat="48.05918" lon="7.06141">
        <ele>665</ele>
        <time>2023-08-12T11:10:54Z</time>
      </trkpt>
      <trkpt lat="48.05919" lon="7.06139">
        <ele>665.2</ele>
        <time>2023-08-12T11:10:55Z</time>
      </trkpt>
      <trkpt lat="48.0592" lon="7.06137">
        <ele>665.4</ele>
        <time>2023-08-12T11:10:56Z</time>
      </trkpt>
      <trkpt lat="48.05921" lon="7.06135">
        <ele>665.5</ele>
        <time>2023-08-12T11:10:57Z</time>
      </trkpt>
      <trkpt lat="48.05922" lon="7.06135">
        <ele>665.6</ele>
        <time>2023-08-12T11:10:58Z</time>
      </trkpt>
      <trkpt lat="48.05924" lon="7.06133">
        <ele>665.8</ele>
        <time>2023-08-12T11:10:59Z</time>
      </trkpt>
      <trkpt lat="48.05925" lon="7.06131">
        <ele>665.9</ele>
        <time>2023-08-12T11:11:00Z</time>
      </trkpt>
      <trkpt lat="48.05926" lon="7.0613">
        <ele>666.1</ele>
        <time>2023-08-12T11:11:01Z</time>
      </trkpt>
      <trkpt lat="48.05927" lon="7.06128">
        <ele>666.3</ele>
        <time>2023-08-12T11:11:02Z</time>
      </trkpt>
      <trkpt lat="48.05928" lon="7.06126">
        <ele>666.5</ele>
        <time>2023-08-12T11:11:03Z</time>
      </trkpt>
      <trkpt lat="48.0593" lon="7.06123">
        <ele>666.7</ele>
        <time>2023-08-12T11:11:04Z</time>
      </trkpt>
      <trkpt lat="48.05934" lon="7.06122">
        <ele>667.1</ele>
        <time>2023-08-12T11:11:06Z</time>
      </trkpt>
      <trkpt lat="48.05935" lon="7.06122">
        <ele>667.3</ele>
        <time>2023-08-12T11:11:07Z</time>
      </trkpt>
      <trkpt lat="48.05937" lon="7.06121">
        <ele>667.5</ele>
        <time>2023-08-12T11:11:08Z</time>
      </trkpt>
      <trkpt lat="48.05939" lon="7.0612">
        <ele>667.7</ele>
        <time>2023-08-12T11:11:09Z</time>
      </trkpt>
      <trkpt lat="48.05943" lon="7.06119">
        <ele>668.2</ele>
        <time>2023-08-12T11:11:12Z</time>
      </trkpt>
      <trkpt lat="48.05945" lon="7.06119">
        <ele>668.3</ele>
        <time>2023-08-12T11:11:13Z</time>
      </trkpt>
      <trkpt lat="48.05947" lon="7.06119">
        <ele>668.5</ele>
        <time>2023-08-12T11:11:14Z</time>
      </trkpt>
      <trkpt lat="48.0595" lon="7.06121">
        <ele>668.9</ele>
        <time>2023-08-12T11:11:16Z</time>
      </trkpt>
      <trkpt lat="48.05951" lon="7.06121">
        <ele>669.1</ele>
        <time>2023-08-12T11:11:17Z</time>
      </trkpt>
      <trkpt lat="48.05953" lon="7.06121">
        <ele>669.3</ele>
        <time>2023-08-12T11:11:18Z</time>
      </trkpt>
      <trkpt lat="48.05954" lon="7.06122">
        <ele>669.4</ele>
        <time>2023-08-12T11:11:19Z</time>
      </trkpt>
      <trkpt lat="48.05956" lon="7.06122">
        <ele>669.5</ele>
        <time>2023-08-12T11:11:20Z</time>
      </trkpt>
      <trkpt lat="48.05957" lon="7.06122">
        <ele>669.7</ele>
        <time>2023-08-12T11:11:21Z</time>
      </trkpt>
      <trkpt lat="48.05963" lon="7.06125">
        <ele>670.3</ele>
        <time>2023-08-12T11:11:24Z</time>
      </trkpt>
      <trkpt lat="48.05967" lon="7.06124">
        <ele>670.7</ele>
        <time>2023-08-12T11:11:26Z</time>
      </trkpt>
      <trkpt lat="48.05969" lon="7.06123">
        <ele>670.9</ele>
        <time>2023-08-12T11:11:27Z</time>
      </trkpt>
      <trkpt lat="48.05971" lon="7.06122">
        <ele>671.1</ele>
        <time>2023-08-12T11:11:28Z</time>
      </trkpt>
      <trkpt lat="48.05972" lon="7.06122">
        <ele>671.2</ele>
        <time>2023-08-12T11:11:29Z</time>
      </trkpt>
      <trkpt lat="48.05975" lon="7.0612">
        <ele>671.5</ele>
        <time>2023-08-12T11:11:30Z</time>
      </trkpt>
      <trkpt lat="48.05979" lon="7.06117">
        <ele>671.9</ele>
        <time>2023-08-12T11:11:34Z</time>
      </trkpt>
      <trkpt lat="48.05981" lon="7.06114">
        <ele>672.2</ele>
        <time>2023-08-12T11:11:35Z</time>
      </trkpt>
      <trkpt lat="48.05982" lon="7.06112">
        <ele>672.4</ele>
        <time>2023-08-12T11:11:36Z</time>
      </trkpt>
      <trkpt lat="48.05984" lon="7.0611">
        <ele>672.5</ele>
        <time>2023-08-12T11:11:37Z</time>
      </trkpt>
      <trkpt lat="48.05985" lon="7.06108">
        <ele>672.7</ele>
        <time>2023-08-12T11:11:38Z</time>
      </trkpt>
      <trkpt lat="48.05986" lon="7.06107">
        <ele>672.8</ele>
        <time>2023-08-12T11:11:39Z</time>
      </trkpt>
      <trkpt lat="48.05988" lon="7.06106">
        <ele>673</ele>
        <time>2023-08-12T11:11:40Z</time>
      </trkpt>
      <trkpt lat="48.0599" lon="7.06102">
        <ele>673.3</ele>
        <time>2023-08-12T11:11:41Z</time>
      </trkpt>
      <trkpt lat="48.05992" lon="7.06099">
        <ele>673.6</ele>
        <time>2023-08-12T11:11:42Z</time>
      </trkpt>
      <trkpt lat="48.05996" lon="7.06097">
        <ele>674</ele>
        <time>2023-08-12T11:11:43Z</time>
      </trkpt>
      <trkpt lat="48.05999" lon="7.06096">
        <ele>674.3</ele>
        <time>2023-08-12T11:11:44Z</time>
      </trkpt>
      <trkpt lat="48.06002" lon="7.06096">
        <ele>674.5</ele>
        <time>2023-08-12T11:11:45Z</time>
      </trkpt>
      <trkpt lat="48.06004" lon="7.06094">
        <ele>674.7</ele>
        <time>2023-08-12T11:11:46Z</time>
      </trkpt>
      <trkpt lat="48.06005" lon="7.06092">
        <ele>674.8</ele>
        <time>2023-08-12T11:11:47Z</time>
      </trkpt>
      <trkpt lat="48.06008" lon="7.06088">
        <ele>675.2</ele>
        <time>2023-08-12T11:11:48Z</time>
      </trkpt>
      <trkpt lat="48.0601" lon="7.06085">
        <ele>675.5</ele>
        <time>2023-08-12T11:11:49Z</time>
      </trkpt>
      <trkpt lat="48.06012" lon="7.06083">
        <ele>675.7</ele>
        <time>2023-08-12T11:11:50Z</time>
      </trkpt>
      <trkpt lat="48.06012" lon="7.06081">
        <ele>675.8</ele>
        <time>2023-08-12T11:11:51Z</time>
      </trkpt>
      <trkpt lat="48.06014" lon="7.06081">
        <ele>675.9</ele>
        <time>2023-08-12T11:11:52Z</time>
      </trkpt>
      <trkpt lat="48.06014" lon="7.06082">
        <ele>676</ele>
        <time>2023-08-12T11:11:53Z</time>
      </trkpt>
      <trkpt lat="48.06015" lon="7.06082">
        <ele>676</ele>
        <time>2023-08-12T11:11:54Z</time>
      </trkpt>
      <trkpt lat="48.06015" lon="7.06082">
        <ele>676</ele>
        <time>2023-08-12T11:11:55Z</time>
      </trkpt>
      <trkpt lat="48.06018" lon="7.06083">
        <ele>676.3</ele>
        <time>2023-08-12T11:11:56Z</time>
      </trkpt>
      <trkpt lat="48.0602" lon="7.06083">
        <ele>676.4</ele>
        <time>2023-08-12T11:11:57Z</time>
      </trkpt>
      <trkpt lat="48.06021" lon="7.06082">
        <ele>676.5</ele>
        <time>2023-08-12T11:11:58Z</time>
      </trkpt>
      <trkpt lat="48.06022" lon="7.0608">
        <ele>676.7</ele>
        <time>2023-08-12T11:11:59Z</time>
      </trkpt>
      <trkpt lat="48.06024" lon="7.06078">
        <ele>676.9</ele>
        <time>2023-08-12T11:12:00Z</time>
      </trkpt>
      <trkpt lat="48.06026" lon="7.06076">
        <ele>677.1</ele>
        <time>2023-08-12T11:12:01Z</time>
      </trkpt>
      <trkpt lat="48.06027" lon="7.06076">
        <ele>677.2</ele>
        <time>2023-08-12T11:12:02Z</time>
      </trkpt>
      <trkpt lat="48.06028" lon="7.06077">
        <ele>677.3</ele>
        <time>2023-08-12T11:12:03Z</time>
      </trkpt>
      <trkpt lat="48.0603" lon="7.06077">
        <ele>677.5</ele>
        <time>2023-08-12T11:12:04Z</time>
      </trkpt>
      <trkpt lat="48.06033" lon="7.06075">
        <ele>677.7</ele>
        <time>2023-08-12T11:12:05Z</time>
      </trkpt>
      <trkpt lat="48.06034" lon="7.06074">
        <ele>677.8</ele>
        <time>2023-08-12T11:12:06Z</time>
      </trkpt>
      <trkpt lat="48.06035" lon="7.06073">
        <ele>677.9</ele>
        <time>2023-08-12T11:12:07Z</time>
      </trkpt>
      <trkpt lat="48.06037" lon="7.06072">
        <ele>678</ele>
        <time>2023-08-12T11:12:08Z</time>
      </trkpt>
      <trkpt lat="48.06038" lon="7.06071">
        <ele>678.2</ele>
        <time>2023-08-12T11:12:09Z</time>
      </trkpt>
      <trkpt lat="48.06041" lon="7.06066">
        <ele>678.5</ele>
        <time>2023-08-12T11:12:10Z</time>
      </trkpt>
      <trkpt lat="48.06042" lon="7.06064">
        <ele>678.7</ele>
        <time>2023-08-12T11:12:11Z</time>
      </trkpt>
      <trkpt lat="48.06045" lon="7.06061">
        <ele>678.9</ele>
        <time>2023-08-12T11:12:12Z</time>
      </trkpt>
      <trkpt lat="48.06047" lon="7.0606">
        <ele>679.1</ele>
        <time>2023-08-12T11:12:13Z</time>
      </trkpt>
      <trkpt lat="48.06049" lon="7.06059">
        <ele>679.2</ele>
        <time>2023-08-12T11:12:14Z</time>
      </trkpt>
      <trkpt lat="48.0605" lon="7.06059">
        <ele>679.3</ele>
        <time>2023-08-12T11:12:15Z</time>
      </trkpt>
      <trkpt lat="48.06052" lon="7.0606">
        <ele>679.4</ele>
        <time>2023-08-12T11:12:16Z</time>
      </trkpt>
      <trkpt lat="48.06054" lon="7.06058">
        <ele>679.6</ele>
        <time>2023-08-12T11:12:17Z</time>
      </trkpt>
      <trkpt lat="48.06055" lon="7.06056">
        <ele>679.7</ele>
        <time>2023-08-12T11:12:18Z</time>
      </trkpt>
      <trkpt lat="48.06058" lon="7.06053">
        <ele>680</ele>
        <time>2023-08-12T11:12:19Z</time>
      </trkpt>
      <trkpt lat="48.0606" lon="7.06052">
        <ele>680.2</ele>
        <time>2023-08-12T11:12:20Z</time>
      </trkpt>
      <trkpt lat="48.06063" lon="7.06048">
        <ele>680.5</ele>
        <time>2023-08-12T11:12:21Z</time>
      </trkpt>
      <trkpt lat="48.06065" lon="7.06046">
        <ele>680.7</ele>
        <time>2023-08-12T11:12:22Z</time>
      </trkpt>
      <trkpt lat="48.06067" lon="7.06044">
        <ele>680.9</ele>
        <time>2023-08-12T11:12:23Z</time>
      </trkpt>
      <trkpt lat="48.06069" lon="7.06043">
        <ele>681</ele>
        <time>2023-08-12T11:12:24Z</time>
      </trkpt>
      <trkpt lat="48.0607" lon="7.06041">
        <ele>681.2</ele>
        <time>2023-08-12T11:12:25Z</time>
      </trkpt>
      <trkpt lat="48.06072" lon="7.0604">
        <ele>681.3</ele>
        <time>2023-08-12T11:12:26Z</time>
      </trkpt>
      <trkpt lat="48.06073" lon="7.0604">
        <ele>681.5</ele>
        <time>2023-08-12T11:12:27Z</time>
      </trkpt>
      <trkpt lat="48.06075" lon="7.06039">
        <ele>681.7</ele>
        <time>2023-08-12T11:12:28Z</time>
      </trkpt>
      <trkpt lat="48.06077" lon="7.06037">
        <ele>681.9</ele>
        <time>2023-08-12T11:12:29Z</time>
      </trkpt>
      <trkpt lat="48.06078" lon="7.06035">
        <ele>682</ele>
        <time>2023-08-12T11:12:30Z</time>
      </trkpt>
      <trkpt lat="48.0608" lon="7.06032">
        <ele>682.3</ele>
        <time>2023-08-12T11:12:31Z</time>
      </trkpt>
      <trkpt lat="48.06082" lon="7.06028">
        <ele>682.7</ele>
        <time>2023-08-12T11:12:32Z</time>
      </trkpt>
      <trkpt lat="48.06085" lon="7.06025">
        <ele>683</ele>
        <time>2023-08-12T11:12:33Z</time>
      </trkpt>
      <trkpt lat="48.06086" lon="7.06023">
        <ele>683.2</ele>
        <time>2023-08-12T11:12:34Z</time>
      </trkpt>
      <trkpt lat="48.06087" lon="7.06022">
        <ele>683.3</ele>
        <time>2023-08-12T11:12:35Z</time>
      </trkpt>
      <trkpt lat="48.06088" lon="7.06021">
        <ele>683.5</ele>
        <time>2023-08-12T11:12:36Z</time>
      </trkpt>
      <trkpt lat="48.06089" lon="7.06021">
        <ele>683.6</ele>
        <time>2023-08-12T11:12:37Z</time>
      </trkpt>
      <trkpt lat="48.06089" lon="7.06021">
        <ele>683.6</ele>
        <time>2023-08-12T11:12:38Z</time>
      </trkpt>
      <trkpt lat="48.06089" lon="7.06021">
        <ele>683.6</ele>
        <time>2023-08-12T11:12:39Z</time>
      </trkpt>
      <trkpt lat="48.06089" lon="7.0602">
        <ele>683.7</ele>
        <time>2023-08-12T11:12:40Z</time>
      </trkpt>
      <trkpt lat="48.06089" lon="7.06018">
        <ele>683.8</ele>
        <time>2023-08-12T11:12:41Z</time>
      </trkpt>
      <trkpt lat="48.06091" lon="7.06018">
        <ele>684.1</ele>
        <time>2023-08-12T11:12:42Z</time>
      </trkpt>
      <trkpt lat="48.06092" lon="7.06017">
        <ele>684.2</ele>
        <time>2023-08-12T11:12:43Z</time>
      </trkpt>
      <trkpt lat="48.06093" lon="7.06015">
        <ele>684.4</ele>
        <time>2023-08-12T11:12:44Z</time>
      </trkpt>
      <trkpt lat="48.06095" lon="7.06014">
        <ele>684.6</ele>
        <time>2023-08-12T11:12:45Z</time>
      </trkpt>
      <trkpt lat="48.06096" lon="7.06012">
        <ele>684.8</ele>
        <time>2023-08-12T11:12:46Z</time>
      </trkpt>
      <trkpt lat="48.06098" lon="7.06011">
        <ele>685</ele>
        <time>2023-08-12T11:12:47Z</time>
      </trkpt>
      <trkpt lat="48.061" lon="7.06009">
        <ele>685.2</ele>
        <time>2023-08-12T11:12:48Z</time>
      </trkpt>
      <trkpt lat="48.06101" lon="7.06007">
        <ele>685.5</ele>
        <time>2023-08-12T11:12:49Z</time>
      </trkpt>
      <trkpt lat="48.06104" lon="7.06004">
        <ele>685.9</ele>
        <time>2023-08-12T11:12:50Z</time>
      </trkpt>
      <trkpt lat="48.06106" lon="7.06002">
        <ele>686.1</ele>
        <time>2023-08-12T11:12:51Z</time>
      </trkpt>
      <trkpt lat="48.06107" lon="7.06">
        <ele>686.3</ele>
        <time>2023-08-12T11:12:52Z</time>
      </trkpt>
      <trkpt lat="48.06109" lon="7.05997">
        <ele>686.6</ele>
        <time>2023-08-12T11:12:53Z</time>
      </trkpt>
      <trkpt lat="48.06111" lon="7.05995">
        <ele>686.8</ele>
        <time>2023-08-12T11:12:54Z</time>
      </trkpt>
      <trkpt lat="48.06112" lon="7.05994">
        <ele>687</ele>
        <time>2023-08-12T11:12:55Z</time>
      </trkpt>
      <trkpt lat="48.06113" lon="7.05992">
        <ele>687.2</ele>
        <time>2023-08-12T11:12:56Z</time>
      </trkpt>
      <trkpt lat="48.06115" lon="7.05989">
        <ele>687.4</ele>
        <time>2023-08-12T11:12:57Z</time>
      </trkpt>
      <trkpt lat="48.06116" lon="7.05988">
        <ele>687.6</ele>
        <time>2023-08-12T11:12:58Z</time>
      </trkpt>
      <trkpt lat="48.06119" lon="7.05984">
        <ele>687.9</ele>
        <time>2023-08-12T11:12:59Z</time>
      </trkpt>
      <trkpt lat="48.06122" lon="7.05981">
        <ele>688.4</ele>
        <time>2023-08-12T11:13:00Z</time>
      </trkpt>
      <trkpt lat="48.06124" lon="7.05979">
        <ele>688.6</ele>
        <time>2023-08-12T11:13:01Z</time>
      </trkpt>
      <trkpt lat="48.06125" lon="7.05977">
        <ele>688.8</ele>
        <time>2023-08-12T11:13:02Z</time>
      </trkpt>
      <trkpt lat="48.06126" lon="7.05975">
        <ele>689</ele>
        <time>2023-08-12T11:13:03Z</time>
      </trkpt>
      <trkpt lat="48.06128" lon="7.05972">
        <ele>689.2</ele>
        <time>2023-08-12T11:13:04Z</time>
      </trkpt>
      <trkpt lat="48.06129" lon="7.0597">
        <ele>689.5</ele>
        <time>2023-08-12T11:13:05Z</time>
      </trkpt>
      <trkpt lat="48.06131" lon="7.05965">
        <ele>689.9</ele>
        <time>2023-08-12T11:13:06Z</time>
      </trkpt>
      <trkpt lat="48.06133" lon="7.05962">
        <ele>690.1</ele>
        <time>2023-08-12T11:13:07Z</time>
      </trkpt>
      <trkpt lat="48.06133" lon="7.0596">
        <ele>690.3</ele>
        <time>2023-08-12T11:13:08Z</time>
      </trkpt>
      <trkpt lat="48.06134" lon="7.0596">
        <ele>690.4</ele>
        <time>2023-08-12T11:13:09Z</time>
      </trkpt>
      <trkpt lat="48.06135" lon="7.0596">
        <ele>690.6</ele>
        <time>2023-08-12T11:13:10Z</time>
      </trkpt>
      <trkpt lat="48.06136" lon="7.05959">
        <ele>690.7</ele>
        <time>2023-08-12T11:13:11Z</time>
      </trkpt>
      <trkpt lat="48.06137" lon="7.05958">
        <ele>690.8</ele>
        <time>2023-08-12T11:13:12Z</time>
      </trkpt>
      <trkpt lat="48.06138" lon="7.05957">
        <ele>691</ele>
        <time>2023-08-12T11:13:13Z</time>
      </trkpt>
      <trkpt lat="48.06139" lon="7.05954">
        <ele>691.2</ele>
        <time>2023-08-12T11:13:14Z</time>
      </trkpt>
      <trkpt lat="48.0614" lon="7.05952">
        <ele>691.4</ele>
        <time>2023-08-12T11:13:15Z</time>
      </trkpt>
      <trkpt lat="48.06142" lon="7.05951">
        <ele>691.7</ele>
        <time>2023-08-12T11:13:16Z</time>
      </trkpt>
      <trkpt lat="48.06144" lon="7.05948">
        <ele>692</ele>
        <time>2023-08-12T11:13:17Z</time>
      </trkpt>
      <trkpt lat="48.06146" lon="7.05946">
        <ele>692.3</ele>
        <time>2023-08-12T11:13:18Z</time>
      </trkpt>
      <trkpt lat="48.06149" lon="7.05941">
        <ele>692.8</ele>
        <time>2023-08-12T11:13:19Z</time>
      </trkpt>
      <trkpt lat="48.06151" lon="7.05936">
        <ele>693.3</ele>
        <time>2023-08-12T11:13:20Z</time>
      </trkpt>
      <trkpt lat="48.06153" lon="7.05934">
        <ele>693.6</ele>
        <time>2023-08-12T11:13:21Z</time>
      </trkpt>
      <trkpt lat="48.06156" lon="7.05932">
        <ele>693.9</ele>
        <time>2023-08-12T11:13:22Z</time>
      </trkpt>
      <trkpt lat="48.06158" lon="7.05932">
        <ele>694.2</ele>
        <time>2023-08-12T11:13:23Z</time>
      </trkpt>
      <trkpt lat="48.06158" lon="7.05929">
        <ele>694.5</ele>
        <time>2023-08-12T11:13:24Z</time>
      </trkpt>
      <trkpt lat="48.06159" lon="7.05919">
        <ele>695.4</ele>
        <time>2023-08-12T11:13:25Z</time>
      </trkpt>
      <trkpt lat="48.0616" lon="7.05907">
        <ele>696.5</ele>
        <time>2023-08-12T11:13:26Z</time>
      </trkpt>
      <trkpt lat="48.06161" lon="7.05906">
        <ele>696.7</ele>
        <time>2023-08-12T11:13:27Z</time>
      </trkpt>
      <trkpt lat="48.06162" lon="7.05906">
        <ele>696.8</ele>
        <time>2023-08-12T11:13:28Z</time>
      </trkpt>
      <trkpt lat="48.06163" lon="7.05906">
        <ele>696.9</ele>
        <time>2023-08-12T11:13:29Z</time>
      </trkpt>
      <trkpt lat="48.06165" lon="7.05908">
        <ele>697.3</ele>
        <time>2023-08-12T11:13:30Z</time>
      </trkpt>
      <trkpt lat="48.06166" lon="7.0591">
        <ele>697.5</ele>
        <time>2023-08-12T11:13:31Z</time>
      </trkpt>
      <trkpt lat="48.06166" lon="7.05909">
        <ele>697.5</ele>
        <time>2023-08-12T11:13:32Z</time>
      </trkpt>
      <trkpt lat="48.06167" lon="7.0591">
        <ele>697.7</ele>
        <time>2023-08-12T11:13:33Z</time>
      </trkpt>
      <trkpt lat="48.06168" lon="7.0591">
        <ele>697.8</ele>
        <time>2023-08-12T11:13:34Z</time>
      </trkpt>
      <trkpt lat="48.06169" lon="7.0591">
        <ele>697.9</ele>
        <time>2023-08-12T11:13:35Z</time>
      </trkpt>
      <trkpt lat="48.0617" lon="7.05909">
        <ele>698.1</ele>
        <time>2023-08-12T11:13:36Z</time>
      </trkpt>
      <trkpt lat="48.0617" lon="7.05909">
        <ele>698.2</ele>
        <time>2023-08-12T11:13:37Z</time>
      </trkpt>
      <trkpt lat="48.06171" lon="7.05908">
        <ele>698.3</ele>
        <time>2023-08-12T11:13:38Z</time>
      </trkpt>
      <trkpt lat="48.06172" lon="7.05906">
        <ele>698.5</ele>
        <time>2023-08-12T11:13:39Z</time>
      </trkpt>
      <trkpt lat="48.06173" lon="7.05905">
        <ele>698.7</ele>
        <time>2023-08-12T11:13:40Z</time>
      </trkpt>
      <trkpt lat="48.06175" lon="7.05903">
        <ele>698.9</ele>
        <time>2023-08-12T11:13:41Z</time>
      </trkpt>
      <trkpt lat="48.06176" lon="7.05901">
        <ele>699.1</ele>
        <time>2023-08-12T11:13:42Z</time>
      </trkpt>
      <trkpt lat="48.06177" lon="7.059">
        <ele>699.4</ele>
        <time>2023-08-12T11:13:43Z</time>
      </trkpt>
      <trkpt lat="48.06179" lon="7.05898">
        <ele>699.6</ele>
        <time>2023-08-12T11:13:44Z</time>
      </trkpt>
      <trkpt lat="48.0618" lon="7.05895">
        <ele>699.9</ele>
        <time>2023-08-12T11:13:45Z</time>
      </trkpt>
      <trkpt lat="48.06181" lon="7.05893">
        <ele>700.1</ele>
        <time>2023-08-12T11:13:46Z</time>
      </trkpt>
      <trkpt lat="48.06181" lon="7.05893">
        <ele>700.1</ele>
        <time>2023-08-12T11:13:47Z</time>
      </trkpt>
      <trkpt lat="48.06181" lon="7.05892">
        <ele>700.2</ele>
        <time>2023-08-12T11:13:48Z</time>
      </trkpt>
      <trkpt lat="48.06182" lon="7.0589">
        <ele>700.3</ele>
        <time>2023-08-12T11:13:49Z</time>
      </trkpt>
      <trkpt lat="48.06183" lon="7.05889">
        <ele>700.5</ele>
        <time>2023-08-12T11:13:50Z</time>
      </trkpt>
      <trkpt lat="48.06184" lon="7.05887">
        <ele>700.7</ele>
        <time>2023-08-12T11:13:51Z</time>
      </trkpt>
      <trkpt lat="48.06185" lon="7.05884">
        <ele>701</ele>
        <time>2023-08-12T11:13:52Z</time>
      </trkpt>
      <trkpt lat="48.06186" lon="7.05879">
        <ele>701.4</ele>
        <time>2023-08-12T11:13:53Z</time>
      </trkpt>
      <trkpt lat="48.06188" lon="7.05876">
        <ele>701.8</ele>
        <time>2023-08-12T11:13:54Z</time>
      </trkpt>
      <trkpt lat="48.06188" lon="7.05874">
        <ele>701.9</ele>
        <time>2023-08-12T11:13:55Z</time>
      </trkpt>
      <trkpt lat="48.06189" lon="7.05871">
        <ele>702.2</ele>
        <time>2023-08-12T11:13:56Z</time>
      </trkpt>
      <trkpt lat="48.06189" lon="7.05869">
        <ele>702.3</ele>
        <time>2023-08-12T11:13:57Z</time>
      </trkpt>
      <trkpt lat="48.0619" lon="7.05868">
        <ele>702.5</ele>
        <time>2023-08-12T11:13:58Z</time>
      </trkpt>
      <trkpt lat="48.0619" lon="7.05868">
        <ele>702.5</ele>
        <time>2023-08-12T11:13:59Z</time>
      </trkpt>
      <trkpt lat="48.0619" lon="7.05868">
        <ele>702.5</ele>
        <time>2023-08-12T11:14:00Z</time>
      </trkpt>
      <trkpt lat="48.0619" lon="7.05868">
        <ele>702.5</ele>
        <time>2023-08-12T11:14:01Z</time>
      </trkpt>
      <trkpt lat="48.0619" lon="7.05868">
        <ele>702.5</ele>
        <time>2023-08-12T11:14:02Z</time>
      </trkpt>
      <trkpt lat="48.0619" lon="7.05868">
        <ele>702.5</ele>
        <time>2023-08-12T11:14:04Z</time>
      </trkpt>
      <trkpt lat="48.0619" lon="7.05868">
        <ele>702.5</ele>
        <time>2023-08-12T11:14:11Z</time>
      </trkpt>
      <trkpt lat="48.0619" lon="7.05868">
        <ele>702.5</ele>
        <time>2023-08-12T11:14:23Z</time>
      </trkpt>
      <trkpt lat="48.0619" lon="7.05868">
        <ele>702.5</ele>
        <time>2023-08-12T11:14:24Z</time>
      </trkpt>
      <trkpt lat="48.0619" lon="7.05868">
        <ele>702.5</ele>
        <time>2023-08-12T11:14:25Z</time>
      </trkpt>
      <trkpt lat="48.0619" lon="7.05868">
        <ele>702.5</ele>
        <time>2023-08-12T11:14:34Z</time>
      </trkpt>
      <trkpt lat="48.0619" lon="7.05868">
        <ele>702.5</ele>
        <time>2023-08-12T11:14:37Z</time>
      </trkpt>
      <trkpt lat="48.0619" lon="7.05868">
        <ele>702.5</ele>
        <time>2023-08-12T11:14:40Z</time>
      </trkpt>
      <trkpt lat="48.0619" lon="7.05868">
        <ele>702.5</ele>
        <time>2023-08-12T11:14:57Z</time>
      </trkpt>
      <trkpt lat="48.0619" lon="7.05868">
        <ele>702.5</ele>
        <time>2023-08-12T11:15:45Z</time>
      </trkpt>
      <trkpt lat="48.06192" lon="7.05867">
        <ele>702.8</ele>
        <time>2023-08-12T11:16:20Z</time>
      </trkpt>
      <trkpt lat="48.06195" lon="7.05865">
        <ele>703.2</ele>
        <time>2023-08-12T11:16:22Z</time>
      </trkpt>
      <trkpt lat="48.06198" lon="7.05863">
        <ele>705.5</ele>
        <time>2023-08-12T11:16:24Z</time>
      </trkpt>
      <trkpt lat="48.06199" lon="7.05861">
        <ele>705.9</ele>
        <time>2023-08-12T11:16:25Z</time>
      </trkpt>
      <trkpt lat="48.06201" lon="7.05861">
        <ele>706.2</ele>
        <time>2023-08-12T11:16:26Z</time>
      </trkpt>
      <trkpt lat="48.06203" lon="7.05861">
        <ele>706.5</ele>
        <time>2023-08-12T11:16:27Z</time>
      </trkpt>
      <trkpt lat="48.06206" lon="7.05865">
        <ele>707.3</ele>
        <time>2023-08-12T11:16:31Z</time>
      </trkpt>
      <trkpt lat="48.06207" lon="7.05869">
        <ele>707.9</ele>
        <time>2023-08-12T11:16:32Z</time>
      </trkpt>
      <trkpt lat="48.06207" lon="7.0587">
        <ele>708.1</ele>
        <time>2023-08-12T11:16:33Z</time>
      </trkpt>
      <trkpt lat="48.06207" lon="7.05872">
        <ele>708.3</ele>
        <time>2023-08-12T11:16:34Z</time>
      </trkpt>
      <trkpt lat="48.06207" lon="7.05875">
        <ele>708.7</ele>
        <time>2023-08-12T11:16:36Z</time>
      </trkpt>
      <trkpt lat="48.06207" lon="7.05875">
        <ele>708.8</ele>
        <time>2023-08-12T11:16:37Z</time>
      </trkpt>
      <trkpt lat="48.06206" lon="7.05876">
        <ele>709</ele>
        <time>2023-08-12T11:16:38Z</time>
      </trkpt>
      <trkpt lat="48.06206" lon="7.05877">
        <ele>709.2</ele>
        <time>2023-08-12T11:16:39Z</time>
      </trkpt>
      <trkpt lat="48.06204" lon="7.0588">
        <ele>709.6</ele>
        <time>2023-08-12T11:16:41Z</time>
      </trkpt>
      <trkpt lat="48.06204" lon="7.05881">
        <ele>709.8</ele>
        <time>2023-08-12T11:16:42Z</time>
      </trkpt>
      <trkpt lat="48.06202" lon="7.05883">
        <ele>710.2</ele>
        <time>2023-08-12T11:16:44Z</time>
      </trkpt>
      <trkpt lat="48.06202" lon="7.05885">
        <ele>710.4</ele>
        <time>2023-08-12T11:16:45Z</time>
      </trkpt>
      <trkpt lat="48.06201" lon="7.05885">
        <ele>710.6</ele>
        <time>2023-08-12T11:16:46Z</time>
      </trkpt>
      <trkpt lat="48.062" lon="7.05886">
        <ele>710.7</ele>
        <time>2023-08-12T11:16:47Z</time>
      </trkpt>
      <trkpt lat="48.062" lon="7.05887">
        <ele>710.9</ele>
        <time>2023-08-12T11:16:48Z</time>
      </trkpt>
      <trkpt lat="48.062" lon="7.05889">
        <ele>711.1</ele>
        <time>2023-08-12T11:16:49Z</time>
      </trkpt>
      <trkpt lat="48.062" lon="7.05891">
        <ele>711.5</ele>
        <time>2023-08-12T11:16:50Z</time>
      </trkpt>
      <trkpt lat="48.062" lon="7.05894">
        <ele>711.8</ele>
        <time>2023-08-12T11:16:51Z</time>
      </trkpt>
      <trkpt lat="48.062" lon="7.05896">
        <ele>712</ele>
        <time>2023-08-12T11:16:52Z</time>
      </trkpt>
      <trkpt lat="48.062" lon="7.05898">
        <ele>712.2</ele>
        <time>2023-08-12T11:16:53Z</time>
      </trkpt>
      <trkpt lat="48.062" lon="7.05898">
        <ele>712.2</ele>
        <time>2023-08-12T11:16:54Z</time>
      </trkpt>
      <trkpt lat="48.06199" lon="7.05902">
        <ele>712.8</ele>
        <time>2023-08-12T11:16:55Z</time>
      </trkpt>
      <trkpt lat="48.06198" lon="7.05904">
        <ele>713.1</ele>
        <time>2023-08-12T11:16:56Z</time>
      </trkpt>
      <trkpt lat="48.06197" lon="7.05906">
        <ele>713.3</ele>
        <time>2023-08-12T11:16:57Z</time>
      </trkpt>
      <trkpt lat="48.06197" lon="7.05907">
        <ele>713.5</ele>
        <time>2023-08-12T11:16:58Z</time>
      </trkpt>
      <trkpt lat="48.06196" lon="7.0591">
        <ele>713.8</ele>
        <time>2023-08-12T11:16:59Z</time>
      </trkpt>
      <trkpt lat="48.06196" lon="7.05911">
        <ele>714</ele>
        <time>2023-08-12T11:17:00Z</time>
      </trkpt>
      <trkpt lat="48.06196" lon="7.05913">
        <ele>714.2</ele>
        <time>2023-08-12T11:17:01Z</time>
      </trkpt>
      <trkpt lat="48.06195" lon="7.05916">
        <ele>714.6</ele>
        <time>2023-08-12T11:17:02Z</time>
      </trkpt>
      <trkpt lat="48.06195" lon="7.05919">
        <ele>714.9</ele>
        <time>2023-08-12T11:17:03Z</time>
      </trkpt>
      <trkpt lat="48.06194" lon="7.05921">
        <ele>715.2</ele>
        <time>2023-08-12T11:17:04Z</time>
      </trkpt>
      <trkpt lat="48.06194" lon="7.05923">
        <ele>715.4</ele>
        <time>2023-08-12T11:17:05Z</time>
      </trkpt>
      <trkpt lat="48.06194" lon="7.05924">
        <ele>715.6</ele>
        <time>2023-08-12T11:17:06Z</time>
      </trkpt>
      <trkpt lat="48.06193" lon="7.05927">
        <ele>716</ele>
        <time>2023-08-12T11:17:07Z</time>
      </trkpt>
      <trkpt lat="48.06192" lon="7.05929">
        <ele>716.2</ele>
        <time>2023-08-12T11:17:08Z</time>
      </trkpt>
      <trkpt lat="48.06192" lon="7.05931">
        <ele>716.5</ele>
        <time>2023-08-12T11:17:09Z</time>
      </trkpt>
      <trkpt lat="48.06192" lon="7.05933">
        <ele>716.7</ele>
        <time>2023-08-12T11:17:10Z</time>
      </trkpt>
      <trkpt lat="48.06192" lon="7.05933">
        <ele>716.7</ele>
        <time>2023-08-12T11:17:11Z</time>
      </trkpt>
      <trkpt lat="48.06192" lon="7.05937">
        <ele>717.2</ele>
        <time>2023-08-12T11:17:12Z</time>
      </trkpt>
      <trkpt lat="48.06192" lon="7.0594">
        <ele>717.5</ele>
        <time>2023-08-12T11:17:13Z</time>
      </trkpt>
      <trkpt lat="48.06191" lon="7.05943">
        <ele>717.9</ele>
        <time>2023-08-12T11:17:14Z</time>
      </trkpt>
      <trkpt lat="48.06191" lon="7.05945">
        <ele>718.1</ele>
        <time>2023-08-12T11:17:15Z</time>
      </trkpt>
      <trkpt lat="48.0619" lon="7.05945">
        <ele>718.3</ele>
        <time>2023-08-12T11:17:16Z</time>
      </trkpt>
      <trkpt lat="48.0619" lon="7.05948">
        <ele>718.5</ele>
        <time>2023-08-12T11:17:17Z</time>
      </trkpt>
      <trkpt lat="48.06189" lon="7.0595">
        <ele>718.9</ele>
        <time>2023-08-12T11:17:18Z</time>
      </trkpt>
      <trkpt lat="48.0619" lon="7.05953">
        <ele>719.2</ele>
        <time>2023-08-12T11:17:19Z</time>
      </trkpt>
      <trkpt lat="48.06189" lon="7.05955">
        <ele>719.5</ele>
        <time>2023-08-12T11:17:20Z</time>
      </trkpt>
      <trkpt lat="48.06189" lon="7.05958">
        <ele>720</ele>
        <time>2023-08-12T11:17:21Z</time>
      </trkpt>
      <trkpt lat="48.0619" lon="7.05961">
        <ele>720.4</ele>
        <time>2023-08-12T11:17:22Z</time>
      </trkpt>
      <trkpt lat="48.0619" lon="7.05964">
        <ele>720.7</ele>
        <time>2023-08-12T11:17:23Z</time>
      </trkpt>
      <trkpt lat="48.0619" lon="7.05966">
        <ele>720.9</ele>
        <time>2023-08-12T11:17:24Z</time>
      </trkpt>
      <trkpt lat="48.0619" lon="7.05966">
        <ele>721</ele>
        <time>2023-08-12T11:17:25Z</time>
      </trkpt>
      <trkpt lat="48.06188" lon="7.05967">
        <ele>721.3</ele>
        <time>2023-08-12T11:17:26Z</time>
      </trkpt>
      <trkpt lat="48.06187" lon="7.05968">
        <ele>721.7</ele>
        <time>2023-08-12T11:17:27Z</time>
      </trkpt>
      <trkpt lat="48.06186" lon="7.05969">
        <ele>721.8</ele>
        <time>2023-08-12T11:17:28Z</time>
      </trkpt>
      <trkpt lat="48.06185" lon="7.05969">
        <ele>722</ele>
        <time>2023-08-12T11:17:29Z</time>
      </trkpt>
      <trkpt lat="48.06185" lon="7.05971">
        <ele>722.2</ele>
        <time>2023-08-12T11:17:30Z</time>
      </trkpt>
      <trkpt lat="48.06184" lon="7.05973">
        <ele>722.4</ele>
        <time>2023-08-12T11:17:31Z</time>
      </trkpt>
      <trkpt lat="48.06184" lon="7.05974">
        <ele>722.6</ele>
        <time>2023-08-12T11:17:32Z</time>
      </trkpt>
      <trkpt lat="48.06184" lon="7.05976">
        <ele>722.9</ele>
        <time>2023-08-12T11:17:33Z</time>
      </trkpt>
      <trkpt lat="48.06183" lon="7.05978">
        <ele>723.1</ele>
        <time>2023-08-12T11:17:34Z</time>
      </trkpt>
      <trkpt lat="48.06183" lon="7.05979">
        <ele>723.4</ele>
        <time>2023-08-12T11:17:35Z</time>
      </trkpt>
      <trkpt lat="48.06182" lon="7.0598">
        <ele>723.4</ele>
        <time>2023-08-12T11:17:36Z</time>
      </trkpt>
      <trkpt lat="48.06182" lon="7.05981">
        <ele>723.6</ele>
        <time>2023-08-12T11:17:37Z</time>
      </trkpt>
      <trkpt lat="48.06181" lon="7.05984">
        <ele>724</ele>
        <time>2023-08-12T11:17:38Z</time>
      </trkpt>
      <trkpt lat="48.0618" lon="7.05987">
        <ele>724.4</ele>
        <time>2023-08-12T11:17:39Z</time>
      </trkpt>
      <trkpt lat="48.0618" lon="7.05989">
        <ele>724.7</ele>
        <time>2023-08-12T11:17:40Z</time>
      </trkpt>
      <trkpt lat="48.06179" lon="7.05992">
        <ele>725.1</ele>
        <time>2023-08-12T11:17:41Z</time>
      </trkpt>
      <trkpt lat="48.06179" lon="7.05994">
        <ele>725.3</ele>
        <time>2023-08-12T11:17:42Z</time>
      </trkpt>
      <trkpt lat="48.06178" lon="7.05995">
        <ele>725.5</ele>
        <time>2023-08-12T11:17:43Z</time>
      </trkpt>
      <trkpt lat="48.06178" lon="7.05996">
        <ele>725.6</ele>
        <time>2023-08-12T11:17:44Z</time>
      </trkpt>
      <trkpt lat="48.06173" lon="7.06013">
        <ele>727.9</ele>
        <time>2023-08-12T11:17:51Z</time>
      </trkpt>
      <trkpt lat="48.06172" lon="7.06015">
        <ele>728.3</ele>
        <time>2023-08-12T11:17:52Z</time>
      </trkpt>
      <trkpt lat="48.06171" lon="7.06019">
        <ele>728.7</ele>
        <time>2023-08-12T11:17:53Z</time>
      </trkpt>
      <trkpt lat="48.0617" lon="7.06029">
        <ele>730</ele>
        <time>2023-08-12T11:17:57Z</time>
      </trkpt>
      <trkpt lat="48.06169" lon="7.0603">
        <ele>730.2</ele>
        <time>2023-08-12T11:17:58Z</time>
      </trkpt>
      <trkpt lat="48.06168" lon="7.06032">
        <ele>730.5</ele>
        <time>2023-08-12T11:17:59Z</time>
      </trkpt>
      <trkpt lat="48.06168" lon="7.06032">
        <ele>730.6</ele>
        <time>2023-08-12T11:18:00Z</time>
      </trkpt>
      <trkpt lat="48.06167" lon="7.06034">
        <ele>730.8</ele>
        <time>2023-08-12T11:18:01Z</time>
      </trkpt>
      <trkpt lat="48.06166" lon="7.06036">
        <ele>731.2</ele>
        <time>2023-08-12T11:18:02Z</time>
      </trkpt>
      <trkpt lat="48.06165" lon="7.06037">
        <ele>731.4</ele>
        <time>2023-08-12T11:18:03Z</time>
      </trkpt>
      <trkpt lat="48.06165" lon="7.06038">
        <ele>731.5</ele>
        <time>2023-08-12T11:18:04Z</time>
      </trkpt>
      <trkpt lat="48.06165" lon="7.06038">
        <ele>731.6</ele>
        <time>2023-08-12T11:18:05Z</time>
      </trkpt>
      <trkpt lat="48.06163" lon="7.06038">
        <ele>731.8</ele>
        <time>2023-08-12T11:18:06Z</time>
      </trkpt>
      <trkpt lat="48.06164" lon="7.06042">
        <ele>732.4</ele>
        <time>2023-08-12T11:18:07Z</time>
      </trkpt>
      <trkpt lat="48.06165" lon="7.06046">
        <ele>732.9</ele>
        <time>2023-08-12T11:18:08Z</time>
      </trkpt>
      <trkpt lat="48.06164" lon="7.06049">
        <ele>733.3</ele>
        <time>2023-08-12T11:18:10Z</time>
      </trkpt>
      <trkpt lat="48.06163" lon="7.06049">
        <ele>733.5</ele>
        <time>2023-08-12T11:18:11Z</time>
      </trkpt>
      <trkpt lat="48.06161" lon="7.0605">
        <ele>733.8</ele>
        <time>2023-08-12T11:18:12Z</time>
      </trkpt>
      <trkpt lat="48.0616" lon="7.06052">
        <ele>734.2</ele>
        <time>2023-08-12T11:18:14Z</time>
      </trkpt>
      <trkpt lat="48.0616" lon="7.06054">
        <ele>734.4</ele>
        <time>2023-08-12T11:18:15Z</time>
      </trkpt>
      <trkpt lat="48.0616" lon="7.06056">
        <ele>734.7</ele>
        <time>2023-08-12T11:18:16Z</time>
      </trkpt>
      <trkpt lat="48.06158" lon="7.0606">
        <ele>735.3</ele>
        <time>2023-08-12T11:18:19Z</time>
      </trkpt>
      <trkpt lat="48.06158" lon="7.06062">
        <ele>735.5</ele>
        <time>2023-08-12T11:18:20Z</time>
      </trkpt>
      <trkpt lat="48.06157" lon="7.06064">
        <ele>735.9</ele>
        <time>2023-08-12T11:18:21Z</time>
      </trkpt>
      <trkpt lat="48.06156" lon="7.06067">
        <ele>736.2</ele>
        <time>2023-08-12T11:18:22Z</time>
      </trkpt>
      <trkpt lat="48.06155" lon="7.06068">
        <ele>736.3</ele>
        <time>2023-08-12T11:18:23Z</time>
      </trkpt>
      <trkpt lat="48.06155" lon="7.06069">
        <ele>736.5</ele>
        <time>2023-08-12T11:18:24Z</time>
      </trkpt>
      <trkpt lat="48.06154" lon="7.06069">
        <ele>736.7</ele>
        <time>2023-08-12T11:18:25Z</time>
      </trkpt>
      <trkpt lat="48.06153" lon="7.0607">
        <ele>736.9</ele>
        <time>2023-08-12T11:18:26Z</time>
      </trkpt>
      <trkpt lat="48.06152" lon="7.06072">
        <ele>737.2</ele>
        <time>2023-08-12T11:18:27Z</time>
      </trkpt>
      <trkpt lat="48.06151" lon="7.06073">
        <ele>737.4</ele>
        <time>2023-08-12T11:18:28Z</time>
      </trkpt>
      <trkpt lat="48.0615" lon="7.06076">
        <ele>737.8</ele>
        <time>2023-08-12T11:18:29Z</time>
      </trkpt>
      <trkpt lat="48.0615" lon="7.06079">
        <ele>738.1</ele>
        <time>2023-08-12T11:18:30Z</time>
      </trkpt>
      <trkpt lat="48.06149" lon="7.0608">
        <ele>738.4</ele>
        <time>2023-08-12T11:18:31Z</time>
      </trkpt>
      <trkpt lat="48.06149" lon="7.06081">
        <ele>738.5</ele>
        <time>2023-08-12T11:18:32Z</time>
      </trkpt>
      <trkpt lat="48.06148" lon="7.06082">
        <ele>738.7</ele>
        <time>2023-08-12T11:18:33Z</time>
      </trkpt>
      <trkpt lat="48.06145" lon="7.06097">
        <ele>740.6</ele>
        <time>2023-08-12T11:18:38Z</time>
      </trkpt>
      <trkpt lat="48.06144" lon="7.06097">
        <ele>740.8</ele>
        <time>2023-08-12T11:18:40Z</time>
      </trkpt>
      <trkpt lat="48.06143" lon="7.06099">
        <ele>741</ele>
        <time>2023-08-12T11:18:41Z</time>
      </trkpt>
      <trkpt lat="48.06143" lon="7.06099">
        <ele>741</ele>
        <time>2023-08-12T11:18:42Z</time>
      </trkpt>
      <trkpt lat="48.06143" lon="7.06101">
        <ele>741.2</ele>
        <time>2023-08-12T11:18:43Z</time>
      </trkpt>
      <trkpt lat="48.06143" lon="7.06105">
        <ele>741.8</ele>
        <time>2023-08-12T11:18:44Z</time>
      </trkpt>
      <trkpt lat="48.06143" lon="7.0611">
        <ele>742.3</ele>
        <time>2023-08-12T11:18:45Z</time>
      </trkpt>
      <trkpt lat="48.06142" lon="7.06114">
        <ele>742.9</ele>
        <time>2023-08-12T11:18:47Z</time>
      </trkpt>
      <trkpt lat="48.0614" lon="7.06115">
        <ele>743.3</ele>
        <time>2023-08-12T11:18:48Z</time>
      </trkpt>
      <trkpt lat="48.06138" lon="7.06119">
        <ele>743.8</ele>
        <time>2023-08-12T11:18:49Z</time>
      </trkpt>
      <trkpt lat="48.06137" lon="7.06122">
        <ele>744.3</ele>
        <time>2023-08-12T11:18:50Z</time>
      </trkpt>
      <trkpt lat="48.06137" lon="7.06124">
        <ele>744.6</ele>
        <time>2023-08-12T11:18:51Z</time>
      </trkpt>
      <trkpt lat="48.06135" lon="7.06125">
        <ele>744.8</ele>
        <time>2023-08-12T11:18:52Z</time>
      </trkpt>
      <trkpt lat="48.06134" lon="7.06127">
        <ele>745.1</ele>
        <time>2023-08-12T11:18:53Z</time>
      </trkpt>
      <trkpt lat="48.06134" lon="7.06128">
        <ele>745.2</ele>
        <time>2023-08-12T11:18:54Z</time>
      </trkpt>
      <trkpt lat="48.06134" lon="7.06128">
        <ele>745.2</ele>
        <time>2023-08-12T11:18:55Z</time>
      </trkpt>
      <trkpt lat="48.06133" lon="7.0613">
        <ele>745.5</ele>
        <time>2023-08-12T11:18:56Z</time>
      </trkpt>
      <trkpt lat="48.06133" lon="7.06135">
        <ele>746</ele>
        <time>2023-08-12T11:18:57Z</time>
      </trkpt>
      <trkpt lat="48.06131" lon="7.06137">
        <ele>746.4</ele>
        <time>2023-08-12T11:18:58Z</time>
      </trkpt>
      <trkpt lat="48.0613" lon="7.06138">
        <ele>746.6</ele>
        <time>2023-08-12T11:18:59Z</time>
      </trkpt>
      <trkpt lat="48.0613" lon="7.0614">
        <ele>746.8</ele>
        <time>2023-08-12T11:19:00Z</time>
      </trkpt>
      <trkpt lat="48.0613" lon="7.0614">
        <ele>746.8</ele>
        <time>2023-08-12T11:19:01Z</time>
      </trkpt>
      <trkpt lat="48.06127" lon="7.06143">
        <ele>747.3</ele>
        <time>2023-08-12T11:19:02Z</time>
      </trkpt>
      <trkpt lat="48.06126" lon="7.06146">
        <ele>747.8</ele>
        <time>2023-08-12T11:19:03Z</time>
      </trkpt>
      <trkpt lat="48.06124" lon="7.06149">
        <ele>748.2</ele>
        <time>2023-08-12T11:19:04Z</time>
      </trkpt>
      <trkpt lat="48.06124" lon="7.06152">
        <ele>748.6</ele>
        <time>2023-08-12T11:19:05Z</time>
      </trkpt>
      <trkpt lat="48.06123" lon="7.06154">
        <ele>748.9</ele>
        <time>2023-08-12T11:19:06Z</time>
      </trkpt>
      <trkpt lat="48.06122" lon="7.06155">
        <ele>749.1</ele>
        <time>2023-08-12T11:19:07Z</time>
      </trkpt>
      <trkpt lat="48.0612" lon="7.06157">
        <ele>749.4</ele>
        <time>2023-08-12T11:19:08Z</time>
      </trkpt>
      <trkpt lat="48.0612" lon="7.0616">
        <ele>749.8</ele>
        <time>2023-08-12T11:19:09Z</time>
      </trkpt>
      <trkpt lat="48.06119" lon="7.06162">
        <ele>750.1</ele>
        <time>2023-08-12T11:19:10Z</time>
      </trkpt>
      <trkpt lat="48.06117" lon="7.06163">
        <ele>750.5</ele>
        <time>2023-08-12T11:19:11Z</time>
      </trkpt>
      <trkpt lat="48.06114" lon="7.06165">
        <ele>751</ele>
        <time>2023-08-12T11:19:12Z</time>
      </trkpt>
      <trkpt lat="48.06112" lon="7.06166">
        <ele>751.3</ele>
        <time>2023-08-12T11:19:13Z</time>
      </trkpt>
      <trkpt lat="48.06111" lon="7.06167">
        <ele>751.6</ele>
        <time>2023-08-12T11:19:14Z</time>
      </trkpt>
      <trkpt lat="48.06111" lon="7.06168">
        <ele>751.7</ele>
        <time>2023-08-12T11:19:15Z</time>
      </trkpt>
      <trkpt lat="48.0611" lon="7.06168">
        <ele>751.8</ele>
        <time>2023-08-12T11:19:16Z</time>
      </trkpt>
      <trkpt lat="48.0611" lon="7.06169">
        <ele>751.9</ele>
        <time>2023-08-12T11:19:17Z</time>
      </trkpt>
      <trkpt lat="48.06109" lon="7.0617">
        <ele>752.1</ele>
        <time>2023-08-12T11:19:18Z</time>
      </trkpt>
      <trkpt lat="48.06109" lon="7.06173">
        <ele>752.4</ele>
        <time>2023-08-12T11:19:19Z</time>
      </trkpt>
      <trkpt lat="48.06109" lon="7.06174">
        <ele>752.6</ele>
        <time>2023-08-12T11:19:20Z</time>
      </trkpt>
      <trkpt lat="48.06108" lon="7.06175">
        <ele>752.7</ele>
        <time>2023-08-12T11:19:21Z</time>
      </trkpt>
      <trkpt lat="48.06108" lon="7.06176">
        <ele>752.9</ele>
        <time>2023-08-12T11:19:22Z</time>
      </trkpt>
      <trkpt lat="48.06107" lon="7.06178">
        <ele>753.1</ele>
        <time>2023-08-12T11:19:23Z</time>
      </trkpt>
      <trkpt lat="48.06106" lon="7.06179">
        <ele>753.3</ele>
        <time>2023-08-12T11:19:24Z</time>
      </trkpt>
      <trkpt lat="48.06105" lon="7.0618">
        <ele>753.6</ele>
        <time>2023-08-12T11:19:25Z</time>
      </trkpt>
      <trkpt lat="48.06104" lon="7.06181">
        <ele>753.8</ele>
        <time>2023-08-12T11:19:26Z</time>
      </trkpt>
      <trkpt lat="48.06104" lon="7.06182">
        <ele>753.9</ele>
        <time>2023-08-12T11:19:27Z</time>
      </trkpt>
      <trkpt lat="48.06104" lon="7.06182">
        <ele>754</ele>
        <time>2023-08-12T11:19:28Z</time>
      </trkpt>
      <trkpt lat="48.06102" lon="7.06184">
        <ele>754.2</ele>
        <time>2023-08-12T11:19:29Z</time>
      </trkpt>
      <trkpt lat="48.06101" lon="7.06185">
        <ele>754.6</ele>
        <time>2023-08-12T11:19:30Z</time>
      </trkpt>
      <trkpt lat="48.061" lon="7.06187">
        <ele>754.8</ele>
        <time>2023-08-12T11:19:31Z</time>
      </trkpt>
      <trkpt lat="48.061" lon="7.06188">
        <ele>755</ele>
        <time>2023-08-12T11:19:32Z</time>
      </trkpt>
      <trkpt lat="48.06099" lon="7.06189">
        <ele>755.2</ele>
        <time>2023-08-12T11:19:33Z</time>
      </trkpt>
      <trkpt lat="48.06099" lon="7.0619">
        <ele>755.3</ele>
        <time>2023-08-12T11:19:34Z</time>
      </trkpt>
      <trkpt lat="48.06098" lon="7.06191">
        <ele>755.4</ele>
        <time>2023-08-12T11:19:35Z</time>
      </trkpt>
      <trkpt lat="48.06097" lon="7.06191">
        <ele>755.6</ele>
        <time>2023-08-12T11:19:36Z</time>
      </trkpt>
      <trkpt lat="48.06097" lon="7.06192">
        <ele>755.8</ele>
        <time>2023-08-12T11:19:37Z</time>
      </trkpt>
      <trkpt lat="48.06096" lon="7.06193">
        <ele>755.9</ele>
        <time>2023-08-12T11:19:38Z</time>
      </trkpt>
      <trkpt lat="48.06095" lon="7.06194">
        <ele>756.1</ele>
        <time>2023-08-12T11:19:39Z</time>
      </trkpt>
      <trkpt lat="48.06095" lon="7.06195">
        <ele>756.3</ele>
        <time>2023-08-12T11:19:40Z</time>
      </trkpt>
      <trkpt lat="48.06094" lon="7.06196">
        <ele>756.5</ele>
        <time>2023-08-12T11:19:41Z</time>
      </trkpt>
      <trkpt lat="48.06094" lon="7.06197">
        <ele>756.7</ele>
        <time>2023-08-12T11:19:42Z</time>
      </trkpt>
      <trkpt lat="48.06093" lon="7.06199">
        <ele>757</ele>
        <time>2023-08-12T11:19:43Z</time>
      </trkpt>
      <trkpt lat="48.06092" lon="7.06201">
        <ele>757.2</ele>
        <time>2023-08-12T11:19:44Z</time>
      </trkpt>
      <trkpt lat="48.06091" lon="7.06202">
        <ele>757.4</ele>
        <time>2023-08-12T11:19:45Z</time>
      </trkpt>
      <trkpt lat="48.06091" lon="7.06203">
        <ele>757.6</ele>
        <time>2023-08-12T11:19:46Z</time>
      </trkpt>
      <trkpt lat="48.0609" lon="7.06204">
        <ele>757.7</ele>
        <time>2023-08-12T11:19:47Z</time>
      </trkpt>
      <trkpt lat="48.0609" lon="7.06206">
        <ele>757.9</ele>
        <time>2023-08-12T11:19:48Z</time>
      </trkpt>
      <trkpt lat="48.06089" lon="7.06207">
        <ele>758.1</ele>
        <time>2023-08-12T11:19:49Z</time>
      </trkpt>
      <trkpt lat="48.06089" lon="7.06207">
        <ele>758.2</ele>
        <time>2023-08-12T11:19:50Z</time>
      </trkpt>
      <trkpt lat="48.06088" lon="7.06209">
        <ele>758.4</ele>
        <time>2023-08-12T11:19:51Z</time>
      </trkpt>
      <trkpt lat="48.06088" lon="7.06211">
        <ele>758.6</ele>
        <time>2023-08-12T11:19:52Z</time>
      </trkpt>
      <trkpt lat="48.06088" lon="7.06212">
        <ele>758.8</ele>
        <time>2023-08-12T11:19:53Z</time>
      </trkpt>
      <trkpt lat="48.06087" lon="7.06213">
        <ele>759</ele>
        <time>2023-08-12T11:19:54Z</time>
      </trkpt>
      <trkpt lat="48.06086" lon="7.06215">
        <ele>759.3</ele>
        <time>2023-08-12T11:19:55Z</time>
      </trkpt>
      <trkpt lat="48.06085" lon="7.06217">
        <ele>759.6</ele>
        <time>2023-08-12T11:19:56Z</time>
      </trkpt>
      <trkpt lat="48.06084" lon="7.0622">
        <ele>760</ele>
        <time>2023-08-12T11:19:57Z</time>
      </trkpt>
      <trkpt lat="48.06083" lon="7.06222">
        <ele>760.2</ele>
        <time>2023-08-12T11:19:58Z</time>
      </trkpt>
      <trkpt lat="48.06083" lon="7.06224">
        <ele>760.5</ele>
        <time>2023-08-12T11:19:59Z</time>
      </trkpt>
      <trkpt lat="48.06082" lon="7.06227">
        <ele>760.8</ele>
        <time>2023-08-12T11:20:00Z</time>
      </trkpt>
      <trkpt lat="48.06082" lon="7.06229">
        <ele>761.1</ele>
        <time>2023-08-12T11:20:01Z</time>
      </trkpt>
      <trkpt lat="48.06082" lon="7.06231">
        <ele>761.3</ele>
        <time>2023-08-12T11:20:02Z</time>
      </trkpt>
      <trkpt lat="48.0608" lon="7.06233">
        <ele>761.7</ele>
        <time>2023-08-12T11:20:03Z</time>
      </trkpt>
      <trkpt lat="48.06078" lon="7.06236">
        <ele>762.2</ele>
        <time>2023-08-12T11:20:04Z</time>
      </trkpt>
      <trkpt lat="48.06077" lon="7.06238">
        <ele>762.5</ele>
        <time>2023-08-12T11:20:05Z</time>
      </trkpt>
      <trkpt lat="48.06078" lon="7.06241">
        <ele>762.8</ele>
        <time>2023-08-12T11:20:06Z</time>
      </trkpt>
      <trkpt lat="48.06079" lon="7.06245">
        <ele>763.2</ele>
        <time>2023-08-12T11:20:07Z</time>
      </trkpt>
      <trkpt lat="48.0608" lon="7.06248">
        <ele>763.6</ele>
        <time>2023-08-12T11:20:08Z</time>
      </trkpt>
      <trkpt lat="48.06081" lon="7.0625">
        <ele>763.9</ele>
        <time>2023-08-12T11:20:09Z</time>
      </trkpt>
      <trkpt lat="48.06082" lon="7.06252">
        <ele>764.2</ele>
        <time>2023-08-12T11:20:10Z</time>
      </trkpt>
      <trkpt lat="48.06082" lon="7.06254">
        <ele>764.4</ele>
        <time>2023-08-12T11:20:11Z</time>
      </trkpt>
      <trkpt lat="48.06082" lon="7.06258">
        <ele>764.9</ele>
        <time>2023-08-12T11:20:12Z</time>
      </trkpt>
      <trkpt lat="48.06081" lon="7.06261">
        <ele>765.2</ele>
        <time>2023-08-12T11:20:13Z</time>
      </trkpt>
      <trkpt lat="48.06081" lon="7.06265">
        <ele>765.6</ele>
        <time>2023-08-12T11:20:14Z</time>
      </trkpt>
      <trkpt lat="48.06079" lon="7.06268">
        <ele>766.1</ele>
        <time>2023-08-12T11:20:15Z</time>
      </trkpt>
      <trkpt lat="48.0608" lon="7.0627">
        <ele>766.2</ele>
        <time>2023-08-12T11:20:16Z</time>
      </trkpt>
      <trkpt lat="48.0608" lon="7.06271">
        <ele>766.3</ele>
        <time>2023-08-12T11:20:17Z</time>
      </trkpt>
      <trkpt lat="48.0608" lon="7.06272">
        <ele>766.4</ele>
        <time>2023-08-12T11:20:18Z</time>
      </trkpt>
      <trkpt lat="48.06081" lon="7.06274">
        <ele>766.6</ele>
        <time>2023-08-12T11:20:19Z</time>
      </trkpt>
      <trkpt lat="48.06081" lon="7.06275">
        <ele>766.8</ele>
        <time>2023-08-12T11:20:20Z</time>
      </trkpt>
      <trkpt lat="48.06082" lon="7.06276">
        <ele>766.9</ele>
        <time>2023-08-12T11:20:21Z</time>
      </trkpt>
      <trkpt lat="48.06083" lon="7.06277">
        <ele>767</ele>
        <time>2023-08-12T11:20:22Z</time>
      </trkpt>
      <trkpt lat="48.06083" lon="7.06279">
        <ele>767.2</ele>
        <time>2023-08-12T11:20:23Z</time>
      </trkpt>
      <trkpt lat="48.06084" lon="7.0628">
        <ele>767.3</ele>
        <time>2023-08-12T11:20:24Z</time>
      </trkpt>
      <trkpt lat="48.06085" lon="7.06281">
        <ele>767.5</ele>
        <time>2023-08-12T11:20:25Z</time>
      </trkpt>
      <trkpt lat="48.06086" lon="7.06284">
        <ele>767.8</ele>
        <time>2023-08-12T11:20:26Z</time>
      </trkpt>
      <trkpt lat="48.06087" lon="7.06285">
        <ele>768</ele>
        <time>2023-08-12T11:20:27Z</time>
      </trkpt>
      <trkpt lat="48.06088" lon="7.06288">
        <ele>768.2</ele>
        <time>2023-08-12T11:20:28Z</time>
      </trkpt>
      <trkpt lat="48.06088" lon="7.0629">
        <ele>768.4</ele>
        <time>2023-08-12T11:20:29Z</time>
      </trkpt>
      <trkpt lat="48.06089" lon="7.06292">
        <ele>768.7</ele>
        <time>2023-08-12T11:20:30Z</time>
      </trkpt>
      <trkpt lat="48.06092" lon="7.06301">
        <ele>769.7</ele>
        <time>2023-08-12T11:20:35Z</time>
      </trkpt>
      <trkpt lat="48.06096" lon="7.06309">
        <ele>770.6</ele>
        <time>2023-08-12T11:20:40Z</time>
      </trkpt>
      <trkpt lat="48.06098" lon="7.06314">
        <ele>771.2</ele>
        <time>2023-08-12T11:20:43Z</time>
      </trkpt>
      <trkpt lat="48.06099" lon="7.06316">
        <ele>771.4</ele>
        <time>2023-08-12T11:20:44Z</time>
      </trkpt>
      <trkpt lat="48.061" lon="7.06317">
        <ele>771.6</ele>
        <time>2023-08-12T11:20:45Z</time>
      </trkpt>
      <trkpt lat="48.061" lon="7.06319">
        <ele>771.8</ele>
        <time>2023-08-12T11:20:46Z</time>
      </trkpt>
      <trkpt lat="48.06104" lon="7.06329">
        <ele>772.9</ele>
        <time>2023-08-12T11:20:52Z</time>
      </trkpt>
      <trkpt lat="48.06111" lon="7.06344">
        <ele>774.6</ele>
        <time>2023-08-12T11:21:00Z</time>
      </trkpt>
      <trkpt lat="48.06112" lon="7.06347">
        <ele>774.9</ele>
        <time>2023-08-12T11:21:02Z</time>
      </trkpt>
      <trkpt lat="48.06113" lon="7.06348">
        <ele>775.1</ele>
        <time>2023-08-12T11:21:03Z</time>
      </trkpt>
      <trkpt lat="48.06116" lon="7.06355">
        <ele>775.9</ele>
        <time>2023-08-12T11:21:07Z</time>
      </trkpt>
      <trkpt lat="48.06118" lon="7.0636">
        <ele>776.4</ele>
        <time>2023-08-12T11:21:10Z</time>
      </trkpt>
      <trkpt lat="48.06119" lon="7.06361">
        <ele>776.6</ele>
        <time>2023-08-12T11:21:11Z</time>
      </trkpt>
      <trkpt lat="48.0612" lon="7.06363">
        <ele>776.7</ele>
        <time>2023-08-12T11:21:12Z</time>
      </trkpt>
      <trkpt lat="48.06121" lon="7.06364">
        <ele>776.9</ele>
        <time>2023-08-12T11:21:13Z</time>
      </trkpt>
      <trkpt lat="48.06124" lon="7.06367">
        <ele>777.3</ele>
        <time>2023-08-12T11:21:15Z</time>
      </trkpt>
      <trkpt lat="48.06124" lon="7.06368">
        <ele>777.5</ele>
        <time>2023-08-12T11:21:16Z</time>
      </trkpt>
      <trkpt lat="48.06125" lon="7.06369">
        <ele>777.7</ele>
        <time>2023-08-12T11:21:17Z</time>
      </trkpt>
      <trkpt lat="48.06126" lon="7.06371">
        <ele>777.8</ele>
        <time>2023-08-12T11:21:18Z</time>
      </trkpt>
      <trkpt lat="48.06129" lon="7.06373">
        <ele>778.2</ele>
        <time>2023-08-12T11:21:20Z</time>
      </trkpt>
      <trkpt lat="48.0613" lon="7.06373">
        <ele>778.3</ele>
        <time>2023-08-12T11:21:21Z</time>
      </trkpt>
      <trkpt lat="48.0613" lon="7.06374">
        <ele>778.5</ele>
        <time>2023-08-12T11:21:22Z</time>
      </trkpt>
      <trkpt lat="48.06131" lon="7.06376">
        <ele>778.6</ele>
        <time>2023-08-12T11:21:23Z</time>
      </trkpt>
      <trkpt lat="48.06132" lon="7.06377">
        <ele>778.9</ele>
        <time>2023-08-12T11:21:24Z</time>
      </trkpt>
      <trkpt lat="48.06133" lon="7.0638">
        <ele>779.1</ele>
        <time>2023-08-12T11:21:25Z</time>
      </trkpt>
      <trkpt lat="48.06134" lon="7.06381">
        <ele>779.2</ele>
        <time>2023-08-12T11:21:26Z</time>
      </trkpt>
      <trkpt lat="48.06135" lon="7.06382">
        <ele>779.4</ele>
        <time>2023-08-12T11:21:27Z</time>
      </trkpt>
      <trkpt lat="48.06136" lon="7.06383">
        <ele>779.5</ele>
        <time>2023-08-12T11:21:28Z</time>
      </trkpt>
      <trkpt lat="48.06137" lon="7.06385">
        <ele>779.7</ele>
        <time>2023-08-12T11:21:29Z</time>
      </trkpt>
      <trkpt lat="48.06138" lon="7.06387">
        <ele>780</ele>
        <time>2023-08-12T11:21:30Z</time>
      </trkpt>
      <trkpt lat="48.06139" lon="7.06388">
        <ele>780.1</ele>
        <time>2023-08-12T11:21:31Z</time>
      </trkpt>
      <trkpt lat="48.0614" lon="7.0639">
        <ele>780.3</ele>
        <time>2023-08-12T11:21:32Z</time>
      </trkpt>
      <trkpt lat="48.06141" lon="7.06391">
        <ele>780.5</ele>
        <time>2023-08-12T11:21:33Z</time>
      </trkpt>
      <trkpt lat="48.06142" lon="7.06392">
        <ele>780.7</ele>
        <time>2023-08-12T11:21:34Z</time>
      </trkpt>
      <trkpt lat="48.06143" lon="7.06393">
        <ele>780.9</ele>
        <time>2023-08-12T11:21:35Z</time>
      </trkpt>
      <trkpt lat="48.06144" lon="7.06395">
        <ele>781.1</ele>
        <time>2023-08-12T11:21:36Z</time>
      </trkpt>
      <trkpt lat="48.06145" lon="7.06396">
        <ele>781.3</ele>
        <time>2023-08-12T11:21:37Z</time>
      </trkpt>
      <trkpt lat="48.06146" lon="7.06398">
        <ele>781.5</ele>
        <time>2023-08-12T11:21:38Z</time>
      </trkpt>
      <trkpt lat="48.06147" lon="7.064">
        <ele>781.7</ele>
        <time>2023-08-12T11:21:39Z</time>
      </trkpt>
      <trkpt lat="48.06148" lon="7.06401">
        <ele>781.8</ele>
        <time>2023-08-12T11:21:40Z</time>
      </trkpt>
      <trkpt lat="48.06149" lon="7.06402">
        <ele>782</ele>
        <time>2023-08-12T11:21:41Z</time>
      </trkpt>
      <trkpt lat="48.0615" lon="7.06403">
        <ele>782.2</ele>
        <time>2023-08-12T11:21:42Z</time>
      </trkpt>
      <trkpt lat="48.06151" lon="7.06405">
        <ele>782.4</ele>
        <time>2023-08-12T11:21:43Z</time>
      </trkpt>
      <trkpt lat="48.06152" lon="7.06406">
        <ele>782.5</ele>
        <time>2023-08-12T11:21:44Z</time>
      </trkpt>
      <trkpt lat="48.06153" lon="7.06407">
        <ele>782.7</ele>
        <time>2023-08-12T11:21:45Z</time>
      </trkpt>
      <trkpt lat="48.06154" lon="7.06408">
        <ele>782.9</ele>
        <time>2023-08-12T11:21:46Z</time>
      </trkpt>
      <trkpt lat="48.06155" lon="7.06409">
        <ele>783.1</ele>
        <time>2023-08-12T11:21:47Z</time>
      </trkpt>
      <trkpt lat="48.06156" lon="7.0641">
        <ele>783.3</ele>
        <time>2023-08-12T11:21:48Z</time>
      </trkpt>
      <trkpt lat="48.06157" lon="7.06411">
        <ele>783.5</ele>
        <time>2023-08-12T11:21:49Z</time>
      </trkpt>
      <trkpt lat="48.06158" lon="7.06413">
        <ele>783.6</ele>
        <time>2023-08-12T11:21:50Z</time>
      </trkpt>
      <trkpt lat="48.06159" lon="7.06414">
        <ele>783.8</ele>
        <time>2023-08-12T11:21:51Z</time>
      </trkpt>
      <trkpt lat="48.0616" lon="7.06415">
        <ele>784</ele>
        <time>2023-08-12T11:21:52Z</time>
      </trkpt>
      <trkpt lat="48.06161" lon="7.06416">
        <ele>784.1</ele>
        <time>2023-08-12T11:21:53Z</time>
      </trkpt>
      <trkpt lat="48.06162" lon="7.06417">
        <ele>784.3</ele>
        <time>2023-08-12T11:21:54Z</time>
      </trkpt>
      <trkpt lat="48.06163" lon="7.06418">
        <ele>784.5</ele>
        <time>2023-08-12T11:21:55Z</time>
      </trkpt>
      <trkpt lat="48.06165" lon="7.0642">
        <ele>784.7</ele>
        <time>2023-08-12T11:21:56Z</time>
      </trkpt>
      <trkpt lat="48.06166" lon="7.06421">
        <ele>784.9</ele>
        <time>2023-08-12T11:21:57Z</time>
      </trkpt>
      <trkpt lat="48.06167" lon="7.06421">
        <ele>785.1</ele>
        <time>2023-08-12T11:21:58Z</time>
      </trkpt>
      <trkpt lat="48.06168" lon="7.06423">
        <ele>785.3</ele>
        <time>2023-08-12T11:21:59Z</time>
      </trkpt>
      <trkpt lat="48.06169" lon="7.06423">
        <ele>785.5</ele>
        <time>2023-08-12T11:22:00Z</time>
      </trkpt>
      <trkpt lat="48.0617" lon="7.06424">
        <ele>785.7</ele>
        <time>2023-08-12T11:22:01Z</time>
      </trkpt>
      <trkpt lat="48.06171" lon="7.06425">
        <ele>785.8</ele>
        <time>2023-08-12T11:22:02Z</time>
      </trkpt>
      <trkpt lat="48.06172" lon="7.06426">
        <ele>786</ele>
        <time>2023-08-12T11:22:03Z</time>
      </trkpt>
      <trkpt lat="48.06174" lon="7.06426">
        <ele>786.2</ele>
        <time>2023-08-12T11:22:04Z</time>
      </trkpt>
      <trkpt lat="48.06175" lon="7.06427">
        <ele>786.4</ele>
        <time>2023-08-12T11:22:05Z</time>
      </trkpt>
      <trkpt lat="48.06176" lon="7.06428">
        <ele>786.6</ele>
        <time>2023-08-12T11:22:06Z</time>
      </trkpt>
      <trkpt lat="48.06178" lon="7.06429">
        <ele>786.8</ele>
        <time>2023-08-12T11:22:07Z</time>
      </trkpt>
      <trkpt lat="48.06179" lon="7.0643">
        <ele>787</ele>
        <time>2023-08-12T11:22:08Z</time>
      </trkpt>
      <trkpt lat="48.0618" lon="7.06431">
        <ele>787.1</ele>
        <time>2023-08-12T11:22:09Z</time>
      </trkpt>
      <trkpt lat="48.06181" lon="7.06431">
        <ele>787.3</ele>
        <time>2023-08-12T11:22:10Z</time>
      </trkpt>
      <trkpt lat="48.06183" lon="7.06431">
        <ele>787.5</ele>
        <time>2023-08-12T11:22:11Z</time>
      </trkpt>
      <trkpt lat="48.06184" lon="7.06432">
        <ele>787.7</ele>
        <time>2023-08-12T11:22:12Z</time>
      </trkpt>
      <trkpt lat="48.06185" lon="7.06432">
        <ele>787.9</ele>
        <time>2023-08-12T11:22:13Z</time>
      </trkpt>
      <trkpt lat="48.06186" lon="7.06433">
        <ele>788.1</ele>
        <time>2023-08-12T11:22:14Z</time>
      </trkpt>
      <trkpt lat="48.06188" lon="7.06434">
        <ele>788.3</ele>
        <time>2023-08-12T11:22:15Z</time>
      </trkpt>
      <trkpt lat="48.06189" lon="7.06435">
        <ele>788.4</ele>
        <time>2023-08-12T11:22:16Z</time>
      </trkpt>
      <trkpt lat="48.0619" lon="7.06435">
        <ele>788.6</ele>
        <time>2023-08-12T11:22:17Z</time>
      </trkpt>
      <trkpt lat="48.06191" lon="7.06436">
        <ele>788.8</ele>
        <time>2023-08-12T11:22:18Z</time>
      </trkpt>
      <trkpt lat="48.06192" lon="7.06437">
        <ele>789</ele>
        <time>2023-08-12T11:22:19Z</time>
      </trkpt>
      <trkpt lat="48.06194" lon="7.06438">
        <ele>789.2</ele>
        <time>2023-08-12T11:22:20Z</time>
      </trkpt>
      <trkpt lat="48.06195" lon="7.06438">
        <ele>789.3</ele>
        <time>2023-08-12T11:22:21Z</time>
      </trkpt>
      <trkpt lat="48.06196" lon="7.06439">
        <ele>789.5</ele>
        <time>2023-08-12T11:22:22Z</time>
      </trkpt>
      <trkpt lat="48.06197" lon="7.06439">
        <ele>789.6</ele>
        <time>2023-08-12T11:22:23Z</time>
      </trkpt>
      <trkpt lat="48.06198" lon="7.0644">
        <ele>789.8</ele>
        <time>2023-08-12T11:22:24Z</time>
      </trkpt>
      <trkpt lat="48.06199" lon="7.06441">
        <ele>790</ele>
        <time>2023-08-12T11:22:25Z</time>
      </trkpt>
      <trkpt lat="48.06201" lon="7.06441">
        <ele>790.2</ele>
        <time>2023-08-12T11:22:26Z</time>
      </trkpt>
      <trkpt lat="48.06202" lon="7.06442">
        <ele>790.4</ele>
        <time>2023-08-12T11:22:27Z</time>
      </trkpt>
      <trkpt lat="48.06203" lon="7.06443">
        <ele>790.6</ele>
        <time>2023-08-12T11:22:28Z</time>
      </trkpt>
      <trkpt lat="48.06204" lon="7.06444">
        <ele>790.8</ele>
        <time>2023-08-12T11:22:29Z</time>
      </trkpt>
      <trkpt lat="48.06206" lon="7.06445">
        <ele>790.9</ele>
        <time>2023-08-12T11:22:30Z</time>
      </trkpt>
      <trkpt lat="48.06207" lon="7.06446">
        <ele>791.1</ele>
        <time>2023-08-12T11:22:31Z</time>
      </trkpt>
      <trkpt lat="48.06208" lon="7.06448">
        <ele>791.3</ele>
        <time>2023-08-12T11:22:32Z</time>
      </trkpt>
      <trkpt lat="48.06209" lon="7.06449">
        <ele>791.5</ele>
        <time>2023-08-12T11:22:33Z</time>
      </trkpt>
      <trkpt lat="48.0621" lon="7.06449">
        <ele>791.6</ele>
        <time>2023-08-12T11:22:34Z</time>
      </trkpt>
      <trkpt lat="48.06211" lon="7.0645">
        <ele>791.8</ele>
        <time>2023-08-12T11:22:35Z</time>
      </trkpt>
      <trkpt lat="48.06212" lon="7.06451">
        <ele>792</ele>
        <time>2023-08-12T11:22:36Z</time>
      </trkpt>
      <trkpt lat="48.06213" lon="7.06452">
        <ele>792.1</ele>
        <time>2023-08-12T11:22:37Z</time>
      </trkpt>
      <trkpt lat="48.06214" lon="7.06454">
        <ele>792.3</ele>
        <time>2023-08-12T11:22:38Z</time>
      </trkpt>
      <trkpt lat="48.06215" lon="7.06454">
        <ele>792.5</ele>
        <time>2023-08-12T11:22:39Z</time>
      </trkpt>
      <trkpt lat="48.06216" lon="7.06455">
        <ele>792.6</ele>
        <time>2023-08-12T11:22:40Z</time>
      </trkpt>
      <trkpt lat="48.06217" lon="7.06455">
        <ele>792.8</ele>
        <time>2023-08-12T11:22:41Z</time>
      </trkpt>
      <trkpt lat="48.06218" lon="7.06456">
        <ele>792.9</ele>
        <time>2023-08-12T11:22:42Z</time>
      </trkpt>
      <trkpt lat="48.06219" lon="7.06457">
        <ele>793.1</ele>
        <time>2023-08-12T11:22:43Z</time>
      </trkpt>
      <trkpt lat="48.0622" lon="7.06459">
        <ele>793.3</ele>
        <time>2023-08-12T11:22:44Z</time>
      </trkpt>
      <trkpt lat="48.06221" lon="7.0646">
        <ele>793.5</ele>
        <time>2023-08-12T11:22:45Z</time>
      </trkpt>
      <trkpt lat="48.06223" lon="7.06462">
        <ele>793.7</ele>
        <time>2023-08-12T11:22:46Z</time>
      </trkpt>
      <trkpt lat="48.06224" lon="7.06464">
        <ele>794</ele>
        <time>2023-08-12T11:22:47Z</time>
      </trkpt>
      <trkpt lat="48.06225" lon="7.06465">
        <ele>794.2</ele>
        <time>2023-08-12T11:22:48Z</time>
      </trkpt>
      <trkpt lat="48.06226" lon="7.06467">
        <ele>794.4</ele>
        <time>2023-08-12T11:22:49Z</time>
      </trkpt>
      <trkpt lat="48.06227" lon="7.06468">
        <ele>794.5</ele>
        <time>2023-08-12T11:22:50Z</time>
      </trkpt>
      <trkpt lat="48.06228" lon="7.06469">
        <ele>794.7</ele>
        <time>2023-08-12T11:22:51Z</time>
      </trkpt>
      <trkpt lat="48.06229" lon="7.06471">
        <ele>794.9</ele>
        <time>2023-08-12T11:22:52Z</time>
      </trkpt>
      <trkpt lat="48.0623" lon="7.06472">
        <ele>795.1</ele>
        <time>2023-08-12T11:22:53Z</time>
      </trkpt>
      <trkpt lat="48.06231" lon="7.06473">
        <ele>795.2</ele>
        <time>2023-08-12T11:22:54Z</time>
      </trkpt>
      <trkpt lat="48.06233" lon="7.06475">
        <ele>795.4</ele>
        <time>2023-08-12T11:22:55Z</time>
      </trkpt>
      <trkpt lat="48.06234" lon="7.06477">
        <ele>795.6</ele>
        <time>2023-08-12T11:22:56Z</time>
      </trkpt>
      <trkpt lat="48.06235" lon="7.06478">
        <ele>795.8</ele>
        <time>2023-08-12T11:22:57Z</time>
      </trkpt>
      <trkpt lat="48.06236" lon="7.0648">
        <ele>796</ele>
        <time>2023-08-12T11:22:58Z</time>
      </trkpt>
      <trkpt lat="48.06237" lon="7.06482">
        <ele>796.2</ele>
        <time>2023-08-12T11:22:59Z</time>
      </trkpt>
      <trkpt lat="48.06239" lon="7.06484">
        <ele>796.4</ele>
        <time>2023-08-12T11:23:00Z</time>
      </trkpt>
      <trkpt lat="48.0624" lon="7.06486">
        <ele>796.6</ele>
        <time>2023-08-12T11:23:01Z</time>
      </trkpt>
      <trkpt lat="48.06241" lon="7.06487">
        <ele>796.7</ele>
        <time>2023-08-12T11:23:02Z</time>
      </trkpt>
      <trkpt lat="48.06242" lon="7.06489">
        <ele>796.9</ele>
        <time>2023-08-12T11:23:03Z</time>
      </trkpt>
      <trkpt lat="48.06243" lon="7.0649">
        <ele>797</ele>
        <time>2023-08-12T11:23:04Z</time>
      </trkpt>
      <trkpt lat="48.06244" lon="7.06492">
        <ele>797.1</ele>
        <time>2023-08-12T11:23:05Z</time>
      </trkpt>
      <trkpt lat="48.06245" lon="7.06493">
        <ele>797.3</ele>
        <time>2023-08-12T11:23:06Z</time>
      </trkpt>
      <trkpt lat="48.06246" lon="7.06496">
        <ele>797.5</ele>
        <time>2023-08-12T11:23:07Z</time>
      </trkpt>
      <trkpt lat="48.06248" lon="7.06498">
        <ele>797.6</ele>
        <time>2023-08-12T11:23:08Z</time>
      </trkpt>
      <trkpt lat="48.06249" lon="7.065">
        <ele>797.8</ele>
        <time>2023-08-12T11:23:09Z</time>
      </trkpt>
      <trkpt lat="48.0625" lon="7.06501">
        <ele>797.9</ele>
        <time>2023-08-12T11:23:10Z</time>
      </trkpt>
      <trkpt lat="48.06251" lon="7.06503">
        <ele>798.1</ele>
        <time>2023-08-12T11:23:11Z</time>
      </trkpt>
      <trkpt lat="48.06252" lon="7.06505">
        <ele>798.2</ele>
        <time>2023-08-12T11:23:12Z</time>
      </trkpt>
      <trkpt lat="48.06253" lon="7.06507">
        <ele>798.4</ele>
        <time>2023-08-12T11:23:13Z</time>
      </trkpt>
      <trkpt lat="48.06254" lon="7.06509">
        <ele>798.5</ele>
        <time>2023-08-12T11:23:14Z</time>
      </trkpt>
      <trkpt lat="48.06255" lon="7.06511">
        <ele>798.7</ele>
        <time>2023-08-12T11:23:15Z</time>
      </trkpt>
      <trkpt lat="48.06256" lon="7.06514">
        <ele>798.8</ele>
        <time>2023-08-12T11:23:16Z</time>
      </trkpt>
      <trkpt lat="48.06258" lon="7.06516">
        <ele>799</ele>
        <time>2023-08-12T11:23:17Z</time>
      </trkpt>
      <trkpt lat="48.06259" lon="7.06519">
        <ele>799.1</ele>
        <time>2023-08-12T11:23:18Z</time>
      </trkpt>
      <trkpt lat="48.0626" lon="7.06521">
        <ele>799.3</ele>
        <time>2023-08-12T11:23:19Z</time>
      </trkpt>
      <trkpt lat="48.06261" lon="7.06523">
        <ele>799.4</ele>
        <time>2023-08-12T11:23:20Z</time>
      </trkpt>
      <trkpt lat="48.06262" lon="7.06526">
        <ele>799.5</ele>
        <time>2023-08-12T11:23:21Z</time>
      </trkpt>
      <trkpt lat="48.06263" lon="7.06528">
        <ele>799.6</ele>
        <time>2023-08-12T11:23:22Z</time>
      </trkpt>
      <trkpt lat="48.06264" lon="7.0653">
        <ele>799.8</ele>
        <time>2023-08-12T11:23:23Z</time>
      </trkpt>
      <trkpt lat="48.06265" lon="7.06532">
        <ele>799.9</ele>
        <time>2023-08-12T11:23:24Z</time>
      </trkpt>
      <trkpt lat="48.06267" lon="7.06535">
        <ele>800</ele>
        <time>2023-08-12T11:23:25Z</time>
      </trkpt>
      <trkpt lat="48.06268" lon="7.06538">
        <ele>800.2</ele>
        <time>2023-08-12T11:23:26Z</time>
      </trkpt>
      <trkpt lat="48.06269" lon="7.06541">
        <ele>800.3</ele>
        <time>2023-08-12T11:23:27Z</time>
      </trkpt>
      <trkpt lat="48.06271" lon="7.06544">
        <ele>800.4</ele>
        <time>2023-08-12T11:23:28Z</time>
      </trkpt>
      <trkpt lat="48.06272" lon="7.06547">
        <ele>800.5</ele>
        <time>2023-08-12T11:23:29Z</time>
      </trkpt>
      <trkpt lat="48.06274" lon="7.06549">
        <ele>800.7</ele>
        <time>2023-08-12T11:23:30Z</time>
      </trkpt>
      <trkpt lat="48.06275" lon="7.06552">
        <ele>800.8</ele>
        <time>2023-08-12T11:23:31Z</time>
      </trkpt>
      <trkpt lat="48.06276" lon="7.06555">
        <ele>801</ele>
        <time>2023-08-12T11:23:32Z</time>
      </trkpt>
      <trkpt lat="48.06278" lon="7.06558">
        <ele>801.1</ele>
        <time>2023-08-12T11:23:33Z</time>
      </trkpt>
      <trkpt lat="48.06279" lon="7.0656">
        <ele>801.2</ele>
        <time>2023-08-12T11:23:34Z</time>
      </trkpt>
      <trkpt lat="48.0628" lon="7.06563">
        <ele>801.4</ele>
        <time>2023-08-12T11:23:35Z</time>
      </trkpt>
      <trkpt lat="48.06281" lon="7.06565">
        <ele>801.5</ele>
        <time>2023-08-12T11:23:36Z</time>
      </trkpt>
      <trkpt lat="48.06282" lon="7.06568">
        <ele>801.6</ele>
        <time>2023-08-12T11:23:37Z</time>
      </trkpt>
      <trkpt lat="48.06283" lon="7.0657">
        <ele>801.7</ele>
        <time>2023-08-12T11:23:38Z</time>
      </trkpt>
      <trkpt lat="48.06284" lon="7.06573">
        <ele>801.9</ele>
        <time>2023-08-12T11:23:39Z</time>
      </trkpt>
      <trkpt lat="48.06286" lon="7.06576">
        <ele>802</ele>
        <time>2023-08-12T11:23:40Z</time>
      </trkpt>
      <trkpt lat="48.06287" lon="7.06578">
        <ele>802.2</ele>
        <time>2023-08-12T11:23:41Z</time>
      </trkpt>
      <trkpt lat="48.06288" lon="7.06581">
        <ele>802.3</ele>
        <time>2023-08-12T11:23:42Z</time>
      </trkpt>
      <trkpt lat="48.06289" lon="7.06583">
        <ele>802.4</ele>
        <time>2023-08-12T11:23:43Z</time>
      </trkpt>
      <trkpt lat="48.0629" lon="7.06586">
        <ele>802.6</ele>
        <time>2023-08-12T11:23:44Z</time>
      </trkpt>
      <trkpt lat="48.06292" lon="7.06589">
        <ele>802.8</ele>
        <time>2023-08-12T11:23:45Z</time>
      </trkpt>
      <trkpt lat="48.06293" lon="7.06591">
        <ele>802.9</ele>
        <time>2023-08-12T11:23:46Z</time>
      </trkpt>
      <trkpt lat="48.06295" lon="7.06593">
        <ele>803</ele>
        <time>2023-08-12T11:23:47Z</time>
      </trkpt>
      <trkpt lat="48.06296" lon="7.06596">
        <ele>803.2</ele>
        <time>2023-08-12T11:23:48Z</time>
      </trkpt>
      <trkpt lat="48.06298" lon="7.06599">
        <ele>803.3</ele>
        <time>2023-08-12T11:23:49Z</time>
      </trkpt>
      <trkpt lat="48.06299" lon="7.06601">
        <ele>803.5</ele>
        <time>2023-08-12T11:23:50Z</time>
      </trkpt>
      <trkpt lat="48.063" lon="7.06604">
        <ele>803.6</ele>
        <time>2023-08-12T11:23:51Z</time>
      </trkpt>
      <trkpt lat="48.06302" lon="7.06606">
        <ele>803.7</ele>
        <time>2023-08-12T11:23:52Z</time>
      </trkpt>
      <trkpt lat="48.06303" lon="7.06609">
        <ele>803.9</ele>
        <time>2023-08-12T11:23:53Z</time>
      </trkpt>
      <trkpt lat="48.06305" lon="7.06612">
        <ele>804</ele>
        <time>2023-08-12T11:23:54Z</time>
      </trkpt>
      <trkpt lat="48.06307" lon="7.06615">
        <ele>804.2</ele>
        <time>2023-08-12T11:23:55Z</time>
      </trkpt>
      <trkpt lat="48.06308" lon="7.06618">
        <ele>804.3</ele>
        <time>2023-08-12T11:23:56Z</time>
      </trkpt>
      <trkpt lat="48.0631" lon="7.06621">
        <ele>804.5</ele>
        <time>2023-08-12T11:23:57Z</time>
      </trkpt>
      <trkpt lat="48.0631" lon="7.06623">
        <ele>804.6</ele>
        <time>2023-08-12T11:23:58Z</time>
      </trkpt>
      <trkpt lat="48.06312" lon="7.06626">
        <ele>804.7</ele>
        <time>2023-08-12T11:23:59Z</time>
      </trkpt>
      <trkpt lat="48.06313" lon="7.06629">
        <ele>804.9</ele>
        <time>2023-08-12T11:24:00Z</time>
      </trkpt>
      <trkpt lat="48.06315" lon="7.06632">
        <ele>805</ele>
        <time>2023-08-12T11:24:01Z</time>
      </trkpt>
      <trkpt lat="48.06316" lon="7.06635">
        <ele>805.1</ele>
        <time>2023-08-12T11:24:02Z</time>
      </trkpt>
      <trkpt lat="48.06317" lon="7.06637">
        <ele>805.2</ele>
        <time>2023-08-12T11:24:03Z</time>
      </trkpt>
      <trkpt lat="48.06319" lon="7.0664">
        <ele>805.4</ele>
        <time>2023-08-12T11:24:04Z</time>
      </trkpt>
      <trkpt lat="48.0632" lon="7.06643">
        <ele>805.4</ele>
        <time>2023-08-12T11:24:05Z</time>
      </trkpt>
      <trkpt lat="48.06322" lon="7.06646">
        <ele>805.4</ele>
        <time>2023-08-12T11:24:06Z</time>
      </trkpt>
      <trkpt lat="48.06324" lon="7.06649">
        <ele>805.4</ele>
        <time>2023-08-12T11:24:07Z</time>
      </trkpt>
      <trkpt lat="48.06326" lon="7.06651">
        <ele>805.4</ele>
        <time>2023-08-12T11:24:08Z</time>
      </trkpt>
      <trkpt lat="48.06328" lon="7.06654">
        <ele>805.4</ele>
        <time>2023-08-12T11:24:09Z</time>
      </trkpt>
      <trkpt lat="48.06329" lon="7.06656">
        <ele>805.4</ele>
        <time>2023-08-12T11:24:10Z</time>
      </trkpt>
      <trkpt lat="48.06331" lon="7.06659">
        <ele>805.4</ele>
        <time>2023-08-12T11:24:11Z</time>
      </trkpt>
      <trkpt lat="48.06332" lon="7.06662">
        <ele>805.4</ele>
        <time>2023-08-12T11:24:12Z</time>
      </trkpt>
      <trkpt lat="48.06334" lon="7.06665">
        <ele>805.4</ele>
        <time>2023-08-12T11:24:13Z</time>
      </trkpt>
      <trkpt lat="48.06335" lon="7.06668">
        <ele>805.3</ele>
        <time>2023-08-12T11:24:14Z</time>
      </trkpt>
      <trkpt lat="48.06337" lon="7.06672">
        <ele>805.3</ele>
        <time>2023-08-12T11:24:15Z</time>
      </trkpt>
      <trkpt lat="48.06339" lon="7.06675">
        <ele>805.3</ele>
        <time>2023-08-12T11:24:16Z</time>
      </trkpt>
      <trkpt lat="48.0634" lon="7.06679">
        <ele>805.3</ele>
        <time>2023-08-12T11:24:17Z</time>
      </trkpt>
      <trkpt lat="48.06342" lon="7.06682">
        <ele>805.3</ele>
        <time>2023-08-12T11:24:18Z</time>
      </trkpt>
      <trkpt lat="48.06343" lon="7.06686">
        <ele>805.3</ele>
        <time>2023-08-12T11:24:19Z</time>
      </trkpt>
      <trkpt lat="48.06344" lon="7.06689">
        <ele>805.3</ele>
        <time>2023-08-12T11:24:20Z</time>
      </trkpt>
      <trkpt lat="48.06346" lon="7.06693">
        <ele>805.2</ele>
        <time>2023-08-12T11:24:21Z</time>
      </trkpt>
      <trkpt lat="48.06348" lon="7.06696">
        <ele>805.2</ele>
        <time>2023-08-12T11:24:22Z</time>
      </trkpt>
      <trkpt lat="48.0635" lon="7.067">
        <ele>805.1</ele>
        <time>2023-08-12T11:24:23Z</time>
      </trkpt>
      <trkpt lat="48.06352" lon="7.06704">
        <ele>805.1</ele>
        <time>2023-08-12T11:24:24Z</time>
      </trkpt>
      <trkpt lat="48.06354" lon="7.06708">
        <ele>805</ele>
        <time>2023-08-12T11:24:25Z</time>
      </trkpt>
      <trkpt lat="48.06355" lon="7.06711">
        <ele>805</ele>
        <time>2023-08-12T11:24:26Z</time>
      </trkpt>
      <trkpt lat="48.06357" lon="7.06715">
        <ele>805</ele>
        <time>2023-08-12T11:24:27Z</time>
      </trkpt>
      <trkpt lat="48.06358" lon="7.06718">
        <ele>804.9</ele>
        <time>2023-08-12T11:24:28Z</time>
      </trkpt>
      <trkpt lat="48.06359" lon="7.06722">
        <ele>804.9</ele>
        <time>2023-08-12T11:24:29Z</time>
      </trkpt>
      <trkpt lat="48.06361" lon="7.06726">
        <ele>804.9</ele>
        <time>2023-08-12T11:24:30Z</time>
      </trkpt>
      <trkpt lat="48.06362" lon="7.0673">
        <ele>804.9</ele>
        <time>2023-08-12T11:24:31Z</time>
      </trkpt>
      <trkpt lat="48.06363" lon="7.06734">
        <ele>804.9</ele>
        <time>2023-08-12T11:24:32Z</time>
      </trkpt>
      <trkpt lat="48.06364" lon="7.06737">
        <ele>804.9</ele>
        <time>2023-08-12T11:24:33Z</time>
      </trkpt>
      <trkpt lat="48.06365" lon="7.06741">
        <ele>804.8</ele>
        <time>2023-08-12T11:24:34Z</time>
      </trkpt>
      <trkpt lat="48.06367" lon="7.06745">
        <ele>804.8</ele>
        <time>2023-08-12T11:24:35Z</time>
      </trkpt>
      <trkpt lat="48.06368" lon="7.06749">
        <ele>804.8</ele>
        <time>2023-08-12T11:24:36Z</time>
      </trkpt>
      <trkpt lat="48.0637" lon="7.06753">
        <ele>804.7</ele>
        <time>2023-08-12T11:24:37Z</time>
      </trkpt>
      <trkpt lat="48.06371" lon="7.06757">
        <ele>804.7</ele>
        <time>2023-08-12T11:24:38Z</time>
      </trkpt>
      <trkpt lat="48.06373" lon="7.06761">
        <ele>804.6</ele>
        <time>2023-08-12T11:24:39Z</time>
      </trkpt>
      <trkpt lat="48.06374" lon="7.06766">
        <ele>804.6</ele>
        <time>2023-08-12T11:24:40Z</time>
      </trkpt>
      <trkpt lat="48.06376" lon="7.0677">
        <ele>804.6</ele>
        <time>2023-08-12T11:24:41Z</time>
      </trkpt>
      <trkpt lat="48.06377" lon="7.06773">
        <ele>804.6</ele>
        <time>2023-08-12T11:24:42Z</time>
      </trkpt>
      <trkpt lat="48.06378" lon="7.06777">
        <ele>804.5</ele>
        <time>2023-08-12T11:24:43Z</time>
      </trkpt>
      <trkpt lat="48.0638" lon="7.06781">
        <ele>804.5</ele>
        <time>2023-08-12T11:24:44Z</time>
      </trkpt>
      <trkpt lat="48.06381" lon="7.06784">
        <ele>804.5</ele>
        <time>2023-08-12T11:24:45Z</time>
      </trkpt>
      <trkpt lat="48.06382" lon="7.06788">
        <ele>804.5</ele>
        <time>2023-08-12T11:24:46Z</time>
      </trkpt>
      <trkpt lat="48.06384" lon="7.06792">
        <ele>804.4</ele>
        <time>2023-08-12T11:24:47Z</time>
      </trkpt>
      <trkpt lat="48.06384" lon="7.06795">
        <ele>804.4</ele>
        <time>2023-08-12T11:24:48Z</time>
      </trkpt>
      <trkpt lat="48.06385" lon="7.06799">
        <ele>804.4</ele>
        <time>2023-08-12T11:24:49Z</time>
      </trkpt>
      <trkpt lat="48.06387" lon="7.06804">
        <ele>804.3</ele>
        <time>2023-08-12T11:24:50Z</time>
      </trkpt>
      <trkpt lat="48.06388" lon="7.06808">
        <ele>804.3</ele>
        <time>2023-08-12T11:24:51Z</time>
      </trkpt>
      <trkpt lat="48.06392" lon="7.06817">
        <ele>804.2</ele>
        <time>2023-08-12T11:24:53Z</time>
      </trkpt>
      <trkpt lat="48.06395" lon="7.06825">
        <ele>804.2</ele>
        <time>2023-08-12T11:24:55Z</time>
      </trkpt>
      <trkpt lat="48.06405" lon="7.06864">
        <ele>804.1</ele>
        <time>2023-08-12T11:25:04Z</time>
      </trkpt>
      <trkpt lat="48.06409" lon="7.06896">
        <ele>804.4</ele>
        <time>2023-08-12T11:25:11Z</time>
      </trkpt>
      <trkpt lat="48.06411" lon="7.069">
        <ele>804.4</ele>
        <time>2023-08-12T11:25:12Z</time>
      </trkpt>
      <trkpt lat="48.06415" lon="7.0691">
        <ele>804.5</ele>
        <time>2023-08-12T11:25:15Z</time>
      </trkpt>
      <trkpt lat="48.06417" lon="7.06914">
        <ele>804.5</ele>
        <time>2023-08-12T11:25:16Z</time>
      </trkpt>
      <trkpt lat="48.06423" lon="7.06924">
        <ele>804.5</ele>
        <time>2023-08-12T11:25:19Z</time>
      </trkpt>
      <trkpt lat="48.06435" lon="7.06938">
        <ele>804.9</ele>
        <time>2023-08-12T11:25:24Z</time>
      </trkpt>
      <trkpt lat="48.06437" lon="7.0694">
        <ele>805.3</ele>
        <time>2023-08-12T11:25:25Z</time>
      </trkpt>
      <trkpt lat="48.0644" lon="7.06942">
        <ele>805.7</ele>
        <time>2023-08-12T11:25:26Z</time>
      </trkpt>
      <trkpt lat="48.06447" lon="7.06949">
        <ele>806.8</ele>
        <time>2023-08-12T11:25:29Z</time>
      </trkpt>
      <trkpt lat="48.0645" lon="7.06952">
        <ele>807.2</ele>
        <time>2023-08-12T11:25:30Z</time>
      </trkpt>
      <trkpt lat="48.06452" lon="7.06954">
        <ele>807.6</ele>
        <time>2023-08-12T11:25:31Z</time>
      </trkpt>
      <trkpt lat="48.06455" lon="7.06956">
        <ele>808.1</ele>
        <time>2023-08-12T11:25:32Z</time>
      </trkpt>
      <trkpt lat="48.06479" lon="7.06969">
        <ele>811.5</ele>
        <time>2023-08-12T11:25:41Z</time>
      </trkpt>
      <trkpt lat="48.06487" lon="7.06973">
        <ele>812.6</ele>
        <time>2023-08-12T11:25:44Z</time>
      </trkpt>
      <trkpt lat="48.0649" lon="7.06974">
        <ele>813</ele>
        <time>2023-08-12T11:25:45Z</time>
      </trkpt>
      <trkpt lat="48.06501" lon="7.06981">
        <ele>810.3</ele>
        <time>2023-08-12T11:25:49Z</time>
      </trkpt>
      <trkpt lat="48.06512" lon="7.06989">
        <ele>804</ele>
        <time>2023-08-12T11:25:53Z</time>
      </trkpt>
      <trkpt lat="48.06521" lon="7.06997">
        <ele>798.3</ele>
        <time>2023-08-12T11:25:57Z</time>
      </trkpt>
      <trkpt lat="48.06523" lon="7.06999">
        <ele>796.9</ele>
        <time>2023-08-12T11:25:58Z</time>
      </trkpt>
      <trkpt lat="48.06525" lon="7.07">
        <ele>795.8</ele>
        <time>2023-08-12T11:25:59Z</time>
      </trkpt>
      <trkpt lat="48.06527" lon="7.07001">
        <ele>794.7</ele>
        <time>2023-08-12T11:26:00Z</time>
      </trkpt>
      <trkpt lat="48.06528" lon="7.07002">
        <ele>794.1</ele>
        <time>2023-08-12T11:26:01Z</time>
      </trkpt>
      <trkpt lat="48.06529" lon="7.07002">
        <ele>793.5</ele>
        <time>2023-08-12T11:26:02Z</time>
      </trkpt>
      <trkpt lat="48.0653" lon="7.07002">
        <ele>792.9</ele>
        <time>2023-08-12T11:26:03Z</time>
      </trkpt>
      <trkpt lat="48.06531" lon="7.07001">
        <ele>792.5</ele>
        <time>2023-08-12T11:26:04Z</time>
      </trkpt>
      <trkpt lat="48.06531" lon="7.07001">
        <ele>792.3</ele>
        <time>2023-08-12T11:26:05Z</time>
      </trkpt>
      <trkpt lat="48.06532" lon="7.07001">
        <ele>792</ele>
        <time>2023-08-12T11:26:06Z</time>
      </trkpt>
      <trkpt lat="48.06532" lon="7.07001">
        <ele>792</ele>
        <time>2023-08-12T11:26:08Z</time>
      </trkpt>
      <trkpt lat="48.06533" lon="7.06999">
        <ele>791.2</ele>
        <time>2023-08-12T11:26:35Z</time>
      </trkpt>
      <trkpt lat="48.06533" lon="7.06996">
        <ele>790.1</ele>
        <time>2023-08-12T11:26:36Z</time>
      </trkpt>
      <trkpt lat="48.06533" lon="7.06992">
        <ele>790</ele>
        <time>2023-08-12T11:26:37Z</time>
      </trkpt>
      <trkpt lat="48.06528" lon="7.06978">
        <ele>793.9</ele>
        <time>2023-08-12T11:26:41Z</time>
      </trkpt>
      <trkpt lat="48.06526" lon="7.06976">
        <ele>794.8</ele>
        <time>2023-08-12T11:26:42Z</time>
      </trkpt>
      <trkpt lat="48.06525" lon="7.06973">
        <ele>795.7</ele>
        <time>2023-08-12T11:26:43Z</time>
      </trkpt>
      <trkpt lat="48.06524" lon="7.0697">
        <ele>796.4</ele>
        <time>2023-08-12T11:26:44Z</time>
      </trkpt>
      <trkpt lat="48.06524" lon="7.06968">
        <ele>797.1</ele>
        <time>2023-08-12T11:26:45Z</time>
      </trkpt>
      <trkpt lat="48.06523" lon="7.06966">
        <ele>797.8</ele>
        <time>2023-08-12T11:26:46Z</time>
      </trkpt>
      <trkpt lat="48.06522" lon="7.06963">
        <ele>798.6</ele>
        <time>2023-08-12T11:26:47Z</time>
      </trkpt>
      <trkpt lat="48.06522" lon="7.06961">
        <ele>799.2</ele>
        <time>2023-08-12T11:26:48Z</time>
      </trkpt>
      <trkpt lat="48.06521" lon="7.06959">
        <ele>799.9</ele>
        <time>2023-08-12T11:26:49Z</time>
      </trkpt>
      <trkpt lat="48.06521" lon="7.06957">
        <ele>800.5</ele>
        <time>2023-08-12T11:26:50Z</time>
      </trkpt>
      <trkpt lat="48.06521" lon="7.06955">
        <ele>800.9</ele>
        <time>2023-08-12T11:26:51Z</time>
      </trkpt>
      <trkpt lat="48.0652" lon="7.06952">
        <ele>801.8</ele>
        <time>2023-08-12T11:26:53Z</time>
      </trkpt>
      <trkpt lat="48.06519" lon="7.06951">
        <ele>802.4</ele>
        <time>2023-08-12T11:26:54Z</time>
      </trkpt>
      <trkpt lat="48.06518" lon="7.06949">
        <ele>803</ele>
        <time>2023-08-12T11:26:55Z</time>
      </trkpt>
      <trkpt lat="48.06518" lon="7.06948">
        <ele>803.4</ele>
        <time>2023-08-12T11:26:56Z</time>
      </trkpt>
      <trkpt lat="48.06517" lon="7.06947">
        <ele>803.9</ele>
        <time>2023-08-12T11:26:57Z</time>
      </trkpt>
      <trkpt lat="48.06516" lon="7.06946">
        <ele>804.4</ele>
        <time>2023-08-12T11:26:58Z</time>
      </trkpt>
      <trkpt lat="48.06515" lon="7.06945">
        <ele>804.9</ele>
        <time>2023-08-12T11:26:59Z</time>
      </trkpt>
      <trkpt lat="48.06514" lon="7.06943">
        <ele>805.5</ele>
        <time>2023-08-12T11:27:00Z</time>
      </trkpt>
      <trkpt lat="48.06513" lon="7.06941">
        <ele>806.1</ele>
        <time>2023-08-12T11:27:01Z</time>
      </trkpt>
      <trkpt lat="48.06512" lon="7.0694">
        <ele>806.8</ele>
        <time>2023-08-12T11:27:02Z</time>
      </trkpt>
      <trkpt lat="48.06511" lon="7.06938">
        <ele>807.4</ele>
        <time>2023-08-12T11:27:03Z</time>
      </trkpt>
      <trkpt lat="48.0651" lon="7.06936">
        <ele>808.1</ele>
        <time>2023-08-12T11:27:04Z</time>
      </trkpt>
      <trkpt lat="48.06509" lon="7.06934">
        <ele>808.8</ele>
        <time>2023-08-12T11:27:05Z</time>
      </trkpt>
      <trkpt lat="48.06508" lon="7.06933">
        <ele>809.3</ele>
        <time>2023-08-12T11:27:06Z</time>
      </trkpt>
      <trkpt lat="48.06507" lon="7.06931">
        <ele>810</ele>
        <time>2023-08-12T11:27:07Z</time>
      </trkpt>
      <trkpt lat="48.06506" lon="7.0693">
        <ele>810.6</ele>
        <time>2023-08-12T11:27:08Z</time>
      </trkpt>
      <trkpt lat="48.06505" lon="7.06928">
        <ele>811.3</ele>
        <time>2023-08-12T11:27:09Z</time>
      </trkpt>
      <trkpt lat="48.06504" lon="7.06926">
        <ele>812</ele>
        <time>2023-08-12T11:27:10Z</time>
      </trkpt>
      <trkpt lat="48.06503" lon="7.06924">
        <ele>812.8</ele>
        <time>2023-08-12T11:27:11Z</time>
      </trkpt>
      <trkpt lat="48.06502" lon="7.06922">
        <ele>813.4</ele>
        <time>2023-08-12T11:27:12Z</time>
      </trkpt>
      <trkpt lat="48.06501" lon="7.0692">
        <ele>814</ele>
        <time>2023-08-12T11:27:13Z</time>
      </trkpt>
      <trkpt lat="48.065" lon="7.06918">
        <ele>814.7</ele>
        <time>2023-08-12T11:27:14Z</time>
      </trkpt>
      <trkpt lat="48.06499" lon="7.06917">
        <ele>815.2</ele>
        <time>2023-08-12T11:27:15Z</time>
      </trkpt>
      <trkpt lat="48.06498" lon="7.06916">
        <ele>815.9</ele>
        <time>2023-08-12T11:27:16Z</time>
      </trkpt>
      <trkpt lat="48.06496" lon="7.06915">
        <ele>816.6</ele>
        <time>2023-08-12T11:27:17Z</time>
      </trkpt>
      <trkpt lat="48.06494" lon="7.06913">
        <ele>817.3</ele>
        <time>2023-08-12T11:27:18Z</time>
      </trkpt>
      <trkpt lat="48.06494" lon="7.06912">
        <ele>817.7</ele>
        <time>2023-08-12T11:27:19Z</time>
      </trkpt>
      <trkpt lat="48.06493" lon="7.06911">
        <ele>818.5</ele>
        <time>2023-08-12T11:27:20Z</time>
      </trkpt>
      <trkpt lat="48.06493" lon="7.06909">
        <ele>818.6</ele>
        <time>2023-08-12T11:27:21Z</time>
      </trkpt>
      <trkpt lat="48.06494" lon="7.06908">
        <ele>818.7</ele>
        <time>2023-08-12T11:27:22Z</time>
      </trkpt>
      <trkpt lat="48.06495" lon="7.06908">
        <ele>818.9</ele>
        <time>2023-08-12T11:27:23Z</time>
      </trkpt>
      <trkpt lat="48.06496" lon="7.06908">
        <ele>819</ele>
        <time>2023-08-12T11:27:24Z</time>
      </trkpt>
      <trkpt lat="48.06497" lon="7.06909">
        <ele>819.1</ele>
        <time>2023-08-12T11:27:25Z</time>
      </trkpt>
      <trkpt lat="48.06498" lon="7.06909">
        <ele>819.2</ele>
        <time>2023-08-12T11:27:26Z</time>
      </trkpt>
      <trkpt lat="48.06499" lon="7.06909">
        <ele>819.3</ele>
        <time>2023-08-12T11:27:27Z</time>
      </trkpt>
      <trkpt lat="48.06501" lon="7.06909">
        <ele>819.5</ele>
        <time>2023-08-12T11:27:28Z</time>
      </trkpt>
      <trkpt lat="48.06502" lon="7.06909">
        <ele>819.7</ele>
        <time>2023-08-12T11:27:29Z</time>
      </trkpt>
      <trkpt lat="48.06504" lon="7.06909">
        <ele>819.9</ele>
        <time>2023-08-12T11:27:30Z</time>
      </trkpt>
      <trkpt lat="48.06505" lon="7.06908">
        <ele>820.1</ele>
        <time>2023-08-12T11:27:31Z</time>
      </trkpt>
      <trkpt lat="48.06506" lon="7.06908">
        <ele>820.3</ele>
        <time>2023-08-12T11:27:32Z</time>
      </trkpt>
      <trkpt lat="48.06508" lon="7.06908">
        <ele>820.5</ele>
        <time>2023-08-12T11:27:33Z</time>
      </trkpt>
      <trkpt lat="48.06509" lon="7.06908">
        <ele>820.7</ele>
        <time>2023-08-12T11:27:34Z</time>
      </trkpt>
      <trkpt lat="48.06509" lon="7.06907">
        <ele>820.8</ele>
        <time>2023-08-12T11:27:35Z</time>
      </trkpt>
      <trkpt lat="48.0651" lon="7.06907">
        <ele>821</ele>
        <time>2023-08-12T11:27:36Z</time>
      </trkpt>
      <trkpt lat="48.06512" lon="7.06906">
        <ele>821.1</ele>
        <time>2023-08-12T11:27:37Z</time>
      </trkpt>
      <trkpt lat="48.06512" lon="7.06906">
        <ele>821.3</ele>
        <time>2023-08-12T11:27:38Z</time>
      </trkpt>
      <trkpt lat="48.06514" lon="7.06906">
        <ele>821.5</ele>
        <time>2023-08-12T11:27:39Z</time>
      </trkpt>
      <trkpt lat="48.06515" lon="7.06906">
        <ele>821.7</ele>
        <time>2023-08-12T11:27:40Z</time>
      </trkpt>
      <trkpt lat="48.06516" lon="7.06906">
        <ele>821.9</ele>
        <time>2023-08-12T11:27:41Z</time>
      </trkpt>
      <trkpt lat="48.06517" lon="7.06907">
        <ele>822</ele>
        <time>2023-08-12T11:27:42Z</time>
      </trkpt>
      <trkpt lat="48.06518" lon="7.06906">
        <ele>822.2</ele>
        <time>2023-08-12T11:27:43Z</time>
      </trkpt>
      <trkpt lat="48.06519" lon="7.06906">
        <ele>822.4</ele>
        <time>2023-08-12T11:27:44Z</time>
      </trkpt>
      <trkpt lat="48.0652" lon="7.06907">
        <ele>822.6</ele>
        <time>2023-08-12T11:27:45Z</time>
      </trkpt>
      <trkpt lat="48.06522" lon="7.06907">
        <ele>822.8</ele>
        <time>2023-08-12T11:27:46Z</time>
      </trkpt>
      <trkpt lat="48.06523" lon="7.06908">
        <ele>823</ele>
        <time>2023-08-12T11:27:47Z</time>
      </trkpt>
      <trkpt lat="48.06525" lon="7.06908">
        <ele>823.3</ele>
        <time>2023-08-12T11:27:48Z</time>
      </trkpt>
      <trkpt lat="48.06526" lon="7.06908">
        <ele>823.5</ele>
        <time>2023-08-12T11:27:49Z</time>
      </trkpt>
      <trkpt lat="48.06528" lon="7.06908">
        <ele>823.7</ele>
        <time>2023-08-12T11:27:50Z</time>
      </trkpt>
      <trkpt lat="48.06529" lon="7.06908">
        <ele>823.9</ele>
        <time>2023-08-12T11:27:51Z</time>
      </trkpt>
      <trkpt lat="48.0653" lon="7.06908">
        <ele>824</ele>
        <time>2023-08-12T11:27:52Z</time>
      </trkpt>
      <trkpt lat="48.06532" lon="7.06908">
        <ele>824.2</ele>
        <time>2023-08-12T11:27:53Z</time>
      </trkpt>
      <trkpt lat="48.06533" lon="7.06908">
        <ele>824.4</ele>
        <time>2023-08-12T11:27:54Z</time>
      </trkpt>
      <trkpt lat="48.06535" lon="7.06908">
        <ele>824.6</ele>
        <time>2023-08-12T11:27:55Z</time>
      </trkpt>
      <trkpt lat="48.06537" lon="7.06909">
        <ele>824.8</ele>
        <time>2023-08-12T11:27:56Z</time>
      </trkpt>
      <trkpt lat="48.06538" lon="7.06909">
        <ele>824.9</ele>
        <time>2023-08-12T11:27:57Z</time>
      </trkpt>
      <trkpt lat="48.06539" lon="7.06909">
        <ele>825</ele>
        <time>2023-08-12T11:27:58Z</time>
      </trkpt>
      <trkpt lat="48.0654" lon="7.0691">
        <ele>825.2</ele>
        <time>2023-08-12T11:27:59Z</time>
      </trkpt>
      <trkpt lat="48.06541" lon="7.0691">
        <ele>825.4</ele>
        <time>2023-08-12T11:28:00Z</time>
      </trkpt>
      <trkpt lat="48.06543" lon="7.06911">
        <ele>825.6</ele>
        <time>2023-08-12T11:28:01Z</time>
      </trkpt>
      <trkpt lat="48.06545" lon="7.06912">
        <ele>825.8</ele>
        <time>2023-08-12T11:28:02Z</time>
      </trkpt>
      <trkpt lat="48.06547" lon="7.06913">
        <ele>826</ele>
        <time>2023-08-12T11:28:03Z</time>
      </trkpt>
      <trkpt lat="48.06548" lon="7.06913">
        <ele>826.2</ele>
        <time>2023-08-12T11:28:04Z</time>
      </trkpt>
      <trkpt lat="48.06549" lon="7.06914">
        <ele>826.3</ele>
        <time>2023-08-12T11:28:05Z</time>
      </trkpt>
      <trkpt lat="48.06551" lon="7.06914">
        <ele>826.5</ele>
        <time>2023-08-12T11:28:06Z</time>
      </trkpt>
      <trkpt lat="48.06553" lon="7.06913">
        <ele>826.8</ele>
        <time>2023-08-12T11:28:07Z</time>
      </trkpt>
      <trkpt lat="48.06554" lon="7.06913">
        <ele>827</ele>
        <time>2023-08-12T11:28:08Z</time>
      </trkpt>
      <trkpt lat="48.06555" lon="7.06912">
        <ele>827.1</ele>
        <time>2023-08-12T11:28:09Z</time>
      </trkpt>
      <trkpt lat="48.06557" lon="7.06913">
        <ele>827.3</ele>
        <time>2023-08-12T11:28:10Z</time>
      </trkpt>
      <trkpt lat="48.06558" lon="7.06913">
        <ele>827.4</ele>
        <time>2023-08-12T11:28:11Z</time>
      </trkpt>
      <trkpt lat="48.06559" lon="7.06912">
        <ele>827.6</ele>
        <time>2023-08-12T11:28:12Z</time>
      </trkpt>
      <trkpt lat="48.06561" lon="7.06911">
        <ele>827.8</ele>
        <time>2023-08-12T11:28:13Z</time>
      </trkpt>
      <trkpt lat="48.06562" lon="7.06912">
        <ele>828</ele>
        <time>2023-08-12T11:28:14Z</time>
      </trkpt>
      <trkpt lat="48.06563" lon="7.06912">
        <ele>828.2</ele>
        <time>2023-08-12T11:28:15Z</time>
      </trkpt>
      <trkpt lat="48.06565" lon="7.06913">
        <ele>828.4</ele>
        <time>2023-08-12T11:28:16Z</time>
      </trkpt>
      <trkpt lat="48.06566" lon="7.06914">
        <ele>828.5</ele>
        <time>2023-08-12T11:28:17Z</time>
      </trkpt>
      <trkpt lat="48.06567" lon="7.06913">
        <ele>828.7</ele>
        <time>2023-08-12T11:28:18Z</time>
      </trkpt>
      <trkpt lat="48.06568" lon="7.06913">
        <ele>828.8</ele>
        <time>2023-08-12T11:28:19Z</time>
      </trkpt>
      <trkpt lat="48.06569" lon="7.06913">
        <ele>829</ele>
        <time>2023-08-12T11:28:20Z</time>
      </trkpt>
      <trkpt lat="48.06571" lon="7.06913">
        <ele>829.2</ele>
        <time>2023-08-12T11:28:21Z</time>
      </trkpt>
      <trkpt lat="48.06573" lon="7.06914">
        <ele>829.5</ele>
        <time>2023-08-12T11:28:22Z</time>
      </trkpt>
      <trkpt lat="48.06575" lon="7.06915">
        <ele>829.8</ele>
        <time>2023-08-12T11:28:23Z</time>
      </trkpt>
      <trkpt lat="48.06576" lon="7.06916">
        <ele>830</ele>
        <time>2023-08-12T11:28:24Z</time>
      </trkpt>
      <trkpt lat="48.06577" lon="7.06917">
        <ele>830.1</ele>
        <time>2023-08-12T11:28:25Z</time>
      </trkpt>
      <trkpt lat="48.06578" lon="7.06916">
        <ele>830.3</ele>
        <time>2023-08-12T11:28:26Z</time>
      </trkpt>
      <trkpt lat="48.06579" lon="7.06915">
        <ele>830.5</ele>
        <time>2023-08-12T11:28:27Z</time>
      </trkpt>
      <trkpt lat="48.0658" lon="7.06914">
        <ele>830.6</ele>
        <time>2023-08-12T11:28:28Z</time>
      </trkpt>
      <trkpt lat="48.06581" lon="7.06914">
        <ele>830.7</ele>
        <time>2023-08-12T11:28:29Z</time>
      </trkpt>
      <trkpt lat="48.06582" lon="7.06913">
        <ele>830.9</ele>
        <time>2023-08-12T11:28:30Z</time>
      </trkpt>
      <trkpt lat="48.06584" lon="7.06912">
        <ele>831.1</ele>
        <time>2023-08-12T11:28:31Z</time>
      </trkpt>
      <trkpt lat="48.06586" lon="7.0691">
        <ele>831.4</ele>
        <time>2023-08-12T11:28:32Z</time>
      </trkpt>
      <trkpt lat="48.06587" lon="7.06909">
        <ele>831.6</ele>
        <time>2023-08-12T11:28:33Z</time>
      </trkpt>
      <trkpt lat="48.06589" lon="7.06908">
        <ele>831.8</ele>
        <time>2023-08-12T11:28:34Z</time>
      </trkpt>
      <trkpt lat="48.06591" lon="7.06909">
        <ele>832</ele>
        <time>2023-08-12T11:28:35Z</time>
      </trkpt>
      <trkpt lat="48.06592" lon="7.06908">
        <ele>832.2</ele>
        <time>2023-08-12T11:28:36Z</time>
      </trkpt>
      <trkpt lat="48.06594" lon="7.06909">
        <ele>832.4</ele>
        <time>2023-08-12T11:28:37Z</time>
      </trkpt>
      <trkpt lat="48.06595" lon="7.06909">
        <ele>832.5</ele>
        <time>2023-08-12T11:28:38Z</time>
      </trkpt>
      <trkpt lat="48.06596" lon="7.0691">
        <ele>832.7</ele>
        <time>2023-08-12T11:28:39Z</time>
      </trkpt>
      <trkpt lat="48.06598" lon="7.06911">
        <ele>832.9</ele>
        <time>2023-08-12T11:28:40Z</time>
      </trkpt>
      <trkpt lat="48.06599" lon="7.06911">
        <ele>833</ele>
        <time>2023-08-12T11:28:41Z</time>
      </trkpt>
      <trkpt lat="48.06602" lon="7.06911">
        <ele>833.3</ele>
        <time>2023-08-12T11:28:42Z</time>
      </trkpt>
      <trkpt lat="48.06602" lon="7.06911">
        <ele>833.4</ele>
        <time>2023-08-12T11:28:43Z</time>
      </trkpt>
      <trkpt lat="48.06604" lon="7.06911">
        <ele>833.6</ele>
        <time>2023-08-12T11:28:44Z</time>
      </trkpt>
      <trkpt lat="48.06605" lon="7.06911">
        <ele>833.7</ele>
        <time>2023-08-12T11:28:45Z</time>
      </trkpt>
      <trkpt lat="48.06607" lon="7.06911">
        <ele>833.8</ele>
        <time>2023-08-12T11:28:46Z</time>
      </trkpt>
      <trkpt lat="48.06608" lon="7.06911">
        <ele>833.9</ele>
        <time>2023-08-12T11:28:47Z</time>
      </trkpt>
      <trkpt lat="48.06609" lon="7.06911">
        <ele>834</ele>
        <time>2023-08-12T11:28:48Z</time>
      </trkpt>
      <trkpt lat="48.0661" lon="7.06912">
        <ele>834.2</ele>
        <time>2023-08-12T11:28:49Z</time>
      </trkpt>
      <trkpt lat="48.06612" lon="7.06913">
        <ele>834.4</ele>
        <time>2023-08-12T11:28:50Z</time>
      </trkpt>
      <trkpt lat="48.06613" lon="7.06915">
        <ele>834.6</ele>
        <time>2023-08-12T11:28:51Z</time>
      </trkpt>
      <trkpt lat="48.06614" lon="7.06915">
        <ele>834.7</ele>
        <time>2023-08-12T11:28:52Z</time>
      </trkpt>
      <trkpt lat="48.06616" lon="7.06913">
        <ele>834.9</ele>
        <time>2023-08-12T11:28:53Z</time>
      </trkpt>
      <trkpt lat="48.06617" lon="7.06914">
        <ele>835</ele>
        <time>2023-08-12T11:28:54Z</time>
      </trkpt>
      <trkpt lat="48.06618" lon="7.06914">
        <ele>835.2</ele>
        <time>2023-08-12T11:28:55Z</time>
      </trkpt>
      <trkpt lat="48.06619" lon="7.06914">
        <ele>835.3</ele>
        <time>2023-08-12T11:28:56Z</time>
      </trkpt>
      <trkpt lat="48.06621" lon="7.06912">
        <ele>835.6</ele>
        <time>2023-08-12T11:28:57Z</time>
      </trkpt>
      <trkpt lat="48.06622" lon="7.06911">
        <ele>835.7</ele>
        <time>2023-08-12T11:28:58Z</time>
      </trkpt>
      <trkpt lat="48.06623" lon="7.06911">
        <ele>835.7</ele>
        <time>2023-08-12T11:28:59Z</time>
      </trkpt>
      <trkpt lat="48.06624" lon="7.06911">
        <ele>835.8</ele>
        <time>2023-08-12T11:29:00Z</time>
      </trkpt>
      <trkpt lat="48.06625" lon="7.06912">
        <ele>836</ele>
        <time>2023-08-12T11:29:01Z</time>
      </trkpt>
      <trkpt lat="48.06627" lon="7.06914">
        <ele>836.2</ele>
        <time>2023-08-12T11:29:02Z</time>
      </trkpt>
      <trkpt lat="48.06628" lon="7.06915">
        <ele>836.4</ele>
        <time>2023-08-12T11:29:03Z</time>
      </trkpt>
      <trkpt lat="48.0663" lon="7.06914">
        <ele>836.5</ele>
        <time>2023-08-12T11:29:04Z</time>
      </trkpt>
      <trkpt lat="48.06631" lon="7.06912">
        <ele>836.7</ele>
        <time>2023-08-12T11:29:05Z</time>
      </trkpt>
      <trkpt lat="48.06633" lon="7.06912">
        <ele>836.8</ele>
        <time>2023-08-12T11:29:06Z</time>
      </trkpt>
      <trkpt lat="48.06634" lon="7.06911">
        <ele>837</ele>
        <time>2023-08-12T11:29:07Z</time>
      </trkpt>
      <trkpt lat="48.06636" lon="7.06912">
        <ele>837.1</ele>
        <time>2023-08-12T11:29:08Z</time>
      </trkpt>
      <trkpt lat="48.06638" lon="7.06913">
        <ele>837.4</ele>
        <time>2023-08-12T11:29:09Z</time>
      </trkpt>
      <trkpt lat="48.0664" lon="7.06911">
        <ele>837.6</ele>
        <time>2023-08-12T11:29:10Z</time>
      </trkpt>
      <trkpt lat="48.06641" lon="7.0691">
        <ele>837.7</ele>
        <time>2023-08-12T11:29:11Z</time>
      </trkpt>
      <trkpt lat="48.06642" lon="7.06909">
        <ele>837.9</ele>
        <time>2023-08-12T11:29:12Z</time>
      </trkpt>
      <trkpt lat="48.06644" lon="7.06909">
        <ele>838</ele>
        <time>2023-08-12T11:29:13Z</time>
      </trkpt>
      <trkpt lat="48.06645" lon="7.06909">
        <ele>838.2</ele>
        <time>2023-08-12T11:29:14Z</time>
      </trkpt>
      <trkpt lat="48.06646" lon="7.06908">
        <ele>838.3</ele>
        <time>2023-08-12T11:29:15Z</time>
      </trkpt>
      <trkpt lat="48.06648" lon="7.06907">
        <ele>838.5</ele>
        <time>2023-08-12T11:29:16Z</time>
      </trkpt>
      <trkpt lat="48.06648" lon="7.06906">
        <ele>838.5</ele>
        <time>2023-08-12T11:29:17Z</time>
      </trkpt>
      <trkpt lat="48.06649" lon="7.06906">
        <ele>838.7</ele>
        <time>2023-08-12T11:29:18Z</time>
      </trkpt>
      <trkpt lat="48.06651" lon="7.06903">
        <ele>839</ele>
        <time>2023-08-12T11:29:19Z</time>
      </trkpt>
      <trkpt lat="48.06652" lon="7.06902">
        <ele>839.2</ele>
        <time>2023-08-12T11:29:20Z</time>
      </trkpt>
      <trkpt lat="48.06653" lon="7.06901">
        <ele>839.3</ele>
        <time>2023-08-12T11:29:21Z</time>
      </trkpt>
      <trkpt lat="48.06654" lon="7.069">
        <ele>839.4</ele>
        <time>2023-08-12T11:29:22Z</time>
      </trkpt>
      <trkpt lat="48.06655" lon="7.06899">
        <ele>839.6</ele>
        <time>2023-08-12T11:29:23Z</time>
      </trkpt>
      <trkpt lat="48.06656" lon="7.06898">
        <ele>839.8</ele>
        <time>2023-08-12T11:29:24Z</time>
      </trkpt>
      <trkpt lat="48.06657" lon="7.06897">
        <ele>840</ele>
        <time>2023-08-12T11:29:25Z</time>
      </trkpt>
      <trkpt lat="48.06658" lon="7.06896">
        <ele>840.1</ele>
        <time>2023-08-12T11:29:26Z</time>
      </trkpt>
      <trkpt lat="48.06659" lon="7.06895">
        <ele>840.3</ele>
        <time>2023-08-12T11:29:27Z</time>
      </trkpt>
      <trkpt lat="48.0666" lon="7.06894">
        <ele>840.4</ele>
        <time>2023-08-12T11:29:28Z</time>
      </trkpt>
      <trkpt lat="48.06661" lon="7.06893">
        <ele>840.6</ele>
        <time>2023-08-12T11:29:29Z</time>
      </trkpt>
      <trkpt lat="48.06661" lon="7.06893">
        <ele>840.7</ele>
        <time>2023-08-12T11:29:30Z</time>
      </trkpt>
      <trkpt lat="48.06662" lon="7.06892">
        <ele>840.9</ele>
        <time>2023-08-12T11:29:31Z</time>
      </trkpt>
      <trkpt lat="48.06663" lon="7.06891">
        <ele>841</ele>
        <time>2023-08-12T11:29:32Z</time>
      </trkpt>
      <trkpt lat="48.06664" lon="7.06891">
        <ele>841.2</ele>
        <time>2023-08-12T11:29:33Z</time>
      </trkpt>
      <trkpt lat="48.06665" lon="7.0689">
        <ele>841.4</ele>
        <time>2023-08-12T11:29:34Z</time>
      </trkpt>
      <trkpt lat="48.06666" lon="7.0689">
        <ele>841.5</ele>
        <time>2023-08-12T11:29:35Z</time>
      </trkpt>
      <trkpt lat="48.06667" lon="7.0689">
        <ele>841.6</ele>
        <time>2023-08-12T11:29:36Z</time>
      </trkpt>
      <trkpt lat="48.06668" lon="7.06889">
        <ele>841.8</ele>
        <time>2023-08-12T11:29:37Z</time>
      </trkpt>
      <trkpt lat="48.06669" lon="7.06889">
        <ele>842</ele>
        <time>2023-08-12T11:29:38Z</time>
      </trkpt>
      <trkpt lat="48.0667" lon="7.06888">
        <ele>842</ele>
        <time>2023-08-12T11:29:39Z</time>
      </trkpt>
      <trkpt lat="48.06671" lon="7.06888">
        <ele>842.2</ele>
        <time>2023-08-12T11:29:40Z</time>
      </trkpt>
      <trkpt lat="48.06671" lon="7.06887">
        <ele>842.2</ele>
        <time>2023-08-12T11:29:41Z</time>
      </trkpt>
      <trkpt lat="48.06672" lon="7.06886">
        <ele>842.4</ele>
        <time>2023-08-12T11:29:42Z</time>
      </trkpt>
      <trkpt lat="48.06673" lon="7.06886">
        <ele>842.5</ele>
        <time>2023-08-12T11:29:43Z</time>
      </trkpt>
      <trkpt lat="48.06674" lon="7.06887">
        <ele>842.7</ele>
        <time>2023-08-12T11:29:44Z</time>
      </trkpt>
      <trkpt lat="48.06674" lon="7.06887">
        <ele>842.7</ele>
        <time>2023-08-12T11:29:45Z</time>
      </trkpt>
      <trkpt lat="48.06675" lon="7.06884">
        <ele>843</ele>
        <time>2023-08-12T11:29:46Z</time>
      </trkpt>
      <trkpt lat="48.06677" lon="7.06884">
        <ele>843.2</ele>
        <time>2023-08-12T11:29:47Z</time>
      </trkpt>
      <trkpt lat="48.06679" lon="7.06883">
        <ele>843.5</ele>
        <time>2023-08-12T11:29:48Z</time>
      </trkpt>
      <trkpt lat="48.0668" lon="7.06883">
        <ele>843.6</ele>
        <time>2023-08-12T11:29:49Z</time>
      </trkpt>
      <trkpt lat="48.06682" lon="7.0688">
        <ele>843.9</ele>
        <time>2023-08-12T11:29:50Z</time>
      </trkpt>
      <trkpt lat="48.06685" lon="7.06875">
        <ele>844.4</ele>
        <time>2023-08-12T11:29:51Z</time>
      </trkpt>
      <trkpt lat="48.06686" lon="7.06874">
        <ele>844.5</ele>
        <time>2023-08-12T11:29:52Z</time>
      </trkpt>
      <trkpt lat="48.06688" lon="7.06874">
        <ele>844.7</ele>
        <time>2023-08-12T11:29:53Z</time>
      </trkpt>
      <trkpt lat="48.0669" lon="7.06873">
        <ele>844.9</ele>
        <time>2023-08-12T11:29:54Z</time>
      </trkpt>
      <trkpt lat="48.06691" lon="7.06872">
        <ele>845</ele>
        <time>2023-08-12T11:29:55Z</time>
      </trkpt>
      <trkpt lat="48.06692" lon="7.06869">
        <ele>845.2</ele>
        <time>2023-08-12T11:29:56Z</time>
      </trkpt>
      <trkpt lat="48.06694" lon="7.06869">
        <ele>845.4</ele>
        <time>2023-08-12T11:29:57Z</time>
      </trkpt>
      <trkpt lat="48.06695" lon="7.06867">
        <ele>845.6</ele>
        <time>2023-08-12T11:29:58Z</time>
      </trkpt>
      <trkpt lat="48.06697" lon="7.06865">
        <ele>845.8</ele>
        <time>2023-08-12T11:29:59Z</time>
      </trkpt>
      <trkpt lat="48.06699" lon="7.0686">
        <ele>846.3</ele>
        <time>2023-08-12T11:30:00Z</time>
      </trkpt>
      <trkpt lat="48.06701" lon="7.06858">
        <ele>846.5</ele>
        <time>2023-08-12T11:30:01Z</time>
      </trkpt>
      <trkpt lat="48.06702" lon="7.06857">
        <ele>846.6</ele>
        <time>2023-08-12T11:30:02Z</time>
      </trkpt>
      <trkpt lat="48.06704" lon="7.06855">
        <ele>846.9</ele>
        <time>2023-08-12T11:30:03Z</time>
      </trkpt>
      <trkpt lat="48.06706" lon="7.06854">
        <ele>847.1</ele>
        <time>2023-08-12T11:30:04Z</time>
      </trkpt>
      <trkpt lat="48.06708" lon="7.06853">
        <ele>847.4</ele>
        <time>2023-08-12T11:30:05Z</time>
      </trkpt>
      <trkpt lat="48.06709" lon="7.06852">
        <ele>847.5</ele>
        <time>2023-08-12T11:30:06Z</time>
      </trkpt>
      <trkpt lat="48.06711" lon="7.06852">
        <ele>847.7</ele>
        <time>2023-08-12T11:30:07Z</time>
      </trkpt>
      <trkpt lat="48.06712" lon="7.06852">
        <ele>847.8</ele>
        <time>2023-08-12T11:30:08Z</time>
      </trkpt>
      <trkpt lat="48.06713" lon="7.06852">
        <ele>848</ele>
        <time>2023-08-12T11:30:09Z</time>
      </trkpt>
      <trkpt lat="48.06715" lon="7.06853">
        <ele>848.3</ele>
        <time>2023-08-12T11:30:10Z</time>
      </trkpt>
      <trkpt lat="48.06717" lon="7.06852">
        <ele>848.5</ele>
        <time>2023-08-12T11:30:11Z</time>
      </trkpt>
      <trkpt lat="48.06718" lon="7.06852">
        <ele>848.7</ele>
        <time>2023-08-12T11:30:12Z</time>
      </trkpt>
      <trkpt lat="48.06719" lon="7.06851">
        <ele>848.7</ele>
        <time>2023-08-12T11:30:13Z</time>
      </trkpt>
      <trkpt lat="48.06719" lon="7.06849">
        <ele>848.9</ele>
        <time>2023-08-12T11:30:14Z</time>
      </trkpt>
      <trkpt lat="48.06721" lon="7.06847">
        <ele>849.2</ele>
        <time>2023-08-12T11:30:15Z</time>
      </trkpt>
      <trkpt lat="48.06723" lon="7.06845">
        <ele>849.6</ele>
        <time>2023-08-12T11:30:16Z</time>
      </trkpt>
      <trkpt lat="48.06725" lon="7.06844">
        <ele>849.9</ele>
        <time>2023-08-12T11:30:17Z</time>
      </trkpt>
      <trkpt lat="48.06727" lon="7.06844">
        <ele>850</ele>
        <time>2023-08-12T11:30:18Z</time>
      </trkpt>
      <trkpt lat="48.06728" lon="7.06843">
        <ele>850.3</ele>
        <time>2023-08-12T11:30:19Z</time>
      </trkpt>
      <trkpt lat="48.0673" lon="7.06842">
        <ele>850.5</ele>
        <time>2023-08-12T11:30:20Z</time>
      </trkpt>
      <trkpt lat="48.06731" lon="7.06842">
        <ele>850.6</ele>
        <time>2023-08-12T11:30:21Z</time>
      </trkpt>
      <trkpt lat="48.06732" lon="7.06842">
        <ele>850.7</ele>
        <time>2023-08-12T11:30:22Z</time>
      </trkpt>
      <trkpt lat="48.06733" lon="7.06844">
        <ele>850.9</ele>
        <time>2023-08-12T11:30:23Z</time>
      </trkpt>
      <trkpt lat="48.06733" lon="7.06844">
        <ele>851</ele>
        <time>2023-08-12T11:30:24Z</time>
      </trkpt>
      <trkpt lat="48.06734" lon="7.06844">
        <ele>851.1</ele>
        <time>2023-08-12T11:30:25Z</time>
      </trkpt>
      <trkpt lat="48.06736" lon="7.06843">
        <ele>851.3</ele>
        <time>2023-08-12T11:30:26Z</time>
      </trkpt>
      <trkpt lat="48.06736" lon="7.06842">
        <ele>851.4</ele>
        <time>2023-08-12T11:30:27Z</time>
      </trkpt>
      <trkpt lat="48.06737" lon="7.06841">
        <ele>851.6</ele>
        <time>2023-08-12T11:30:28Z</time>
      </trkpt>
      <trkpt lat="48.06739" lon="7.06839">
        <ele>851.8</ele>
        <time>2023-08-12T11:30:29Z</time>
      </trkpt>
      <trkpt lat="48.0674" lon="7.06837">
        <ele>852</ele>
        <time>2023-08-12T11:30:30Z</time>
      </trkpt>
      <trkpt lat="48.06741" lon="7.06836">
        <ele>852.2</ele>
        <time>2023-08-12T11:30:31Z</time>
      </trkpt>
      <trkpt lat="48.06742" lon="7.06835">
        <ele>852.4</ele>
        <time>2023-08-12T11:30:32Z</time>
      </trkpt>
      <trkpt lat="48.06744" lon="7.06834">
        <ele>852.5</ele>
        <time>2023-08-12T11:30:33Z</time>
      </trkpt>
      <trkpt lat="48.06745" lon="7.06833">
        <ele>852.7</ele>
        <time>2023-08-12T11:30:34Z</time>
      </trkpt>
      <trkpt lat="48.06746" lon="7.06832">
        <ele>852.8</ele>
        <time>2023-08-12T11:30:35Z</time>
      </trkpt>
      <trkpt lat="48.06746" lon="7.06832">
        <ele>852.9</ele>
        <time>2023-08-12T11:30:36Z</time>
      </trkpt>
      <trkpt lat="48.06747" lon="7.06831">
        <ele>853</ele>
        <time>2023-08-12T11:30:37Z</time>
      </trkpt>
      <trkpt lat="48.06748" lon="7.06831">
        <ele>853.1</ele>
        <time>2023-08-12T11:30:38Z</time>
      </trkpt>
      <trkpt lat="48.06749" lon="7.06831">
        <ele>853.2</ele>
        <time>2023-08-12T11:30:39Z</time>
      </trkpt>
      <trkpt lat="48.0675" lon="7.06829">
        <ele>853.4</ele>
        <time>2023-08-12T11:30:40Z</time>
      </trkpt>
      <trkpt lat="48.06752" lon="7.06826">
        <ele>853.7</ele>
        <time>2023-08-12T11:30:41Z</time>
      </trkpt>
      <trkpt lat="48.06754" lon="7.06826">
        <ele>853.9</ele>
        <time>2023-08-12T11:30:42Z</time>
      </trkpt>
      <trkpt lat="48.06755" lon="7.06825">
        <ele>854.1</ele>
        <time>2023-08-12T11:30:43Z</time>
      </trkpt>
      <trkpt lat="48.06756" lon="7.06825">
        <ele>854.2</ele>
        <time>2023-08-12T11:30:44Z</time>
      </trkpt>
      <trkpt lat="48.06757" lon="7.06824">
        <ele>854.3</ele>
        <time>2023-08-12T11:30:45Z</time>
      </trkpt>
      <trkpt lat="48.06758" lon="7.06824">
        <ele>854.5</ele>
        <time>2023-08-12T11:30:46Z</time>
      </trkpt>
      <trkpt lat="48.06759" lon="7.06823">
        <ele>854.5</ele>
        <time>2023-08-12T11:30:47Z</time>
      </trkpt>
      <trkpt lat="48.0676" lon="7.06821">
        <ele>854.7</ele>
        <time>2023-08-12T11:30:48Z</time>
      </trkpt>
      <trkpt lat="48.06761" lon="7.0682">
        <ele>854.8</ele>
        <time>2023-08-12T11:30:49Z</time>
      </trkpt>
      <trkpt lat="48.06762" lon="7.06818">
        <ele>855</ele>
        <time>2023-08-12T11:30:50Z</time>
      </trkpt>
      <trkpt lat="48.06763" lon="7.06818">
        <ele>855.1</ele>
        <time>2023-08-12T11:30:51Z</time>
      </trkpt>
      <trkpt lat="48.06765" lon="7.06818">
        <ele>855.3</ele>
        <time>2023-08-12T11:30:52Z</time>
      </trkpt>
      <trkpt lat="48.06767" lon="7.06818">
        <ele>855.4</ele>
        <time>2023-08-12T11:30:53Z</time>
      </trkpt>
      <trkpt lat="48.06768" lon="7.06818">
        <ele>855.6</ele>
        <time>2023-08-12T11:30:54Z</time>
      </trkpt>
      <trkpt lat="48.0677" lon="7.06817">
        <ele>855.7</ele>
        <time>2023-08-12T11:30:55Z</time>
      </trkpt>
      <trkpt lat="48.0677" lon="7.06816">
        <ele>855.8</ele>
        <time>2023-08-12T11:30:56Z</time>
      </trkpt>
      <trkpt lat="48.06771" lon="7.06816">
        <ele>855.8</ele>
        <time>2023-08-12T11:30:57Z</time>
      </trkpt>
      <trkpt lat="48.06772" lon="7.06817">
        <ele>856</ele>
        <time>2023-08-12T11:30:58Z</time>
      </trkpt>
      <trkpt lat="48.06775" lon="7.06818">
        <ele>856.2</ele>
        <time>2023-08-12T11:30:59Z</time>
      </trkpt>
      <trkpt lat="48.06777" lon="7.06817">
        <ele>856.5</ele>
        <time>2023-08-12T11:31:00Z</time>
      </trkpt>
      <trkpt lat="48.06779" lon="7.06815">
        <ele>856.7</ele>
        <time>2023-08-12T11:31:01Z</time>
      </trkpt>
      <trkpt lat="48.06781" lon="7.06813">
        <ele>856.9</ele>
        <time>2023-08-12T11:31:02Z</time>
      </trkpt>
      <trkpt lat="48.06783" lon="7.06809">
        <ele>857.3</ele>
        <time>2023-08-12T11:31:03Z</time>
      </trkpt>
      <trkpt lat="48.06787" lon="7.06803">
        <ele>857.8</ele>
        <time>2023-08-12T11:31:04Z</time>
      </trkpt>
      <trkpt lat="48.0679" lon="7.06801">
        <ele>858.1</ele>
        <time>2023-08-12T11:31:05Z</time>
      </trkpt>
      <trkpt lat="48.06791" lon="7.06801">
        <ele>858.2</ele>
        <time>2023-08-12T11:31:06Z</time>
      </trkpt>
      <trkpt lat="48.06792" lon="7.06802">
        <ele>858.3</ele>
        <time>2023-08-12T11:31:07Z</time>
      </trkpt>
      <trkpt lat="48.06792" lon="7.06801">
        <ele>858.4</ele>
        <time>2023-08-12T11:31:08Z</time>
      </trkpt>
      <trkpt lat="48.06794" lon="7.06802">
        <ele>858.5</ele>
        <time>2023-08-12T11:31:09Z</time>
      </trkpt>
      <trkpt lat="48.06796" lon="7.06802">
        <ele>858.8</ele>
        <time>2023-08-12T11:31:10Z</time>
      </trkpt>
      <trkpt lat="48.06798" lon="7.06802">
        <ele>858.9</ele>
        <time>2023-08-12T11:31:11Z</time>
      </trkpt>
      <trkpt lat="48.06799" lon="7.06802">
        <ele>859</ele>
        <time>2023-08-12T11:31:12Z</time>
      </trkpt>
      <trkpt lat="48.068" lon="7.06801">
        <ele>859.2</ele>
        <time>2023-08-12T11:31:13Z</time>
      </trkpt>
      <trkpt lat="48.06802" lon="7.068">
        <ele>859.3</ele>
        <time>2023-08-12T11:31:14Z</time>
      </trkpt>
      <trkpt lat="48.06803" lon="7.06799">
        <ele>859.5</ele>
        <time>2023-08-12T11:31:15Z</time>
      </trkpt>
      <trkpt lat="48.06804" lon="7.06798">
        <ele>859.6</ele>
        <time>2023-08-12T11:31:16Z</time>
      </trkpt>
      <trkpt lat="48.06805" lon="7.06796">
        <ele>859.8</ele>
        <time>2023-08-12T11:31:17Z</time>
      </trkpt>
      <trkpt lat="48.06806" lon="7.06796">
        <ele>859.9</ele>
        <time>2023-08-12T11:31:18Z</time>
      </trkpt>
      <trkpt lat="48.06808" lon="7.06796">
        <ele>860.1</ele>
        <time>2023-08-12T11:31:19Z</time>
      </trkpt>
      <trkpt lat="48.06809" lon="7.06796">
        <ele>860.2</ele>
        <time>2023-08-12T11:31:20Z</time>
      </trkpt>
      <trkpt lat="48.06811" lon="7.06796">
        <ele>860.4</ele>
        <time>2023-08-12T11:31:21Z</time>
      </trkpt>
      <trkpt lat="48.06812" lon="7.06796">
        <ele>860.5</ele>
        <time>2023-08-12T11:31:22Z</time>
      </trkpt>
      <trkpt lat="48.06813" lon="7.06796">
        <ele>860.7</ele>
        <time>2023-08-12T11:31:23Z</time>
      </trkpt>
      <trkpt lat="48.06815" lon="7.06796">
        <ele>860.9</ele>
        <time>2023-08-12T11:31:24Z</time>
      </trkpt>
      <trkpt lat="48.06816" lon="7.06797">
        <ele>861</ele>
        <time>2023-08-12T11:31:25Z</time>
      </trkpt>
      <trkpt lat="48.06818" lon="7.06797">
        <ele>861.2</ele>
        <time>2023-08-12T11:31:26Z</time>
      </trkpt>
      <trkpt lat="48.06819" lon="7.06796">
        <ele>861.3</ele>
        <time>2023-08-12T11:31:27Z</time>
      </trkpt>
      <trkpt lat="48.06821" lon="7.06794">
        <ele>861.5</ele>
        <time>2023-08-12T11:31:28Z</time>
      </trkpt>
      <trkpt lat="48.06823" lon="7.06794">
        <ele>861.8</ele>
        <time>2023-08-12T11:31:29Z</time>
      </trkpt>
      <trkpt lat="48.06823" lon="7.06794">
        <ele>861.8</ele>
        <time>2023-08-12T11:31:30Z</time>
      </trkpt>
      <trkpt lat="48.06825" lon="7.06794">
        <ele>862</ele>
        <time>2023-08-12T11:31:31Z</time>
      </trkpt>
      <trkpt lat="48.06826" lon="7.06794">
        <ele>862.2</ele>
        <time>2023-08-12T11:31:32Z</time>
      </trkpt>
      <trkpt lat="48.06827" lon="7.06793">
        <ele>862.3</ele>
        <time>2023-08-12T11:31:33Z</time>
      </trkpt>
      <trkpt lat="48.06829" lon="7.06792">
        <ele>862.5</ele>
        <time>2023-08-12T11:31:34Z</time>
      </trkpt>
      <trkpt lat="48.0683" lon="7.06791">
        <ele>862.6</ele>
        <time>2023-08-12T11:31:35Z</time>
      </trkpt>
      <trkpt lat="48.06831" lon="7.06791">
        <ele>862.7</ele>
        <time>2023-08-12T11:31:36Z</time>
      </trkpt>
      <trkpt lat="48.06832" lon="7.0679">
        <ele>862.8</ele>
        <time>2023-08-12T11:31:37Z</time>
      </trkpt>
      <trkpt lat="48.06834" lon="7.06789">
        <ele>863</ele>
        <time>2023-08-12T11:31:38Z</time>
      </trkpt>
      <trkpt lat="48.06836" lon="7.06789">
        <ele>863.1</ele>
        <time>2023-08-12T11:31:39Z</time>
      </trkpt>
      <trkpt lat="48.06837" lon="7.06789">
        <ele>863.3</ele>
        <time>2023-08-12T11:31:40Z</time>
      </trkpt>
      <trkpt lat="48.06839" lon="7.0679">
        <ele>863.5</ele>
        <time>2023-08-12T11:31:41Z</time>
      </trkpt>
      <trkpt lat="48.06841" lon="7.06791">
        <ele>863.6</ele>
        <time>2023-08-12T11:31:42Z</time>
      </trkpt>
      <trkpt lat="48.06842" lon="7.06792">
        <ele>863.7</ele>
        <time>2023-08-12T11:31:43Z</time>
      </trkpt>
      <trkpt lat="48.06842" lon="7.06792">
        <ele>863.7</ele>
        <time>2023-08-12T11:31:44Z</time>
      </trkpt>
      <trkpt lat="48.06844" lon="7.06791">
        <ele>863.8</ele>
        <time>2023-08-12T11:31:45Z</time>
      </trkpt>
      <trkpt lat="48.06847" lon="7.06785">
        <ele>864.2</ele>
        <time>2023-08-12T11:31:46Z</time>
      </trkpt>
      <trkpt lat="48.06849" lon="7.06785">
        <ele>864.4</ele>
        <time>2023-08-12T11:31:47Z</time>
      </trkpt>
      <trkpt lat="48.06852" lon="7.06786">
        <ele>864.6</ele>
        <time>2023-08-12T11:31:48Z</time>
      </trkpt>
      <trkpt lat="48.06854" lon="7.06788">
        <ele>864.8</ele>
        <time>2023-08-12T11:31:49Z</time>
      </trkpt>
      <trkpt lat="48.06857" lon="7.0679">
        <ele>865.1</ele>
        <time>2023-08-12T11:31:50Z</time>
      </trkpt>
      <trkpt lat="48.06859" lon="7.06789">
        <ele>865.2</ele>
        <time>2023-08-12T11:31:51Z</time>
      </trkpt>
      <trkpt lat="48.06861" lon="7.06788">
        <ele>865.4</ele>
        <time>2023-08-12T11:31:52Z</time>
      </trkpt>
      <trkpt lat="48.06862" lon="7.06787">
        <ele>865.5</ele>
        <time>2023-08-12T11:31:53Z</time>
      </trkpt>
      <trkpt lat="48.06863" lon="7.06786">
        <ele>865.6</ele>
        <time>2023-08-12T11:31:54Z</time>
      </trkpt>
      <trkpt lat="48.06864" lon="7.06786">
        <ele>865.7</ele>
        <time>2023-08-12T11:31:55Z</time>
      </trkpt>
      <trkpt lat="48.06866" lon="7.06786">
        <ele>865.9</ele>
        <time>2023-08-12T11:31:56Z</time>
      </trkpt>
      <trkpt lat="48.06868" lon="7.06787">
        <ele>866</ele>
        <time>2023-08-12T11:31:57Z</time>
      </trkpt>
      <trkpt lat="48.0687" lon="7.06789">
        <ele>866.2</ele>
        <time>2023-08-12T11:31:58Z</time>
      </trkpt>
      <trkpt lat="48.06872" lon="7.06788">
        <ele>866.4</ele>
        <time>2023-08-12T11:31:59Z</time>
      </trkpt>
      <trkpt lat="48.06874" lon="7.06788">
        <ele>866.5</ele>
        <time>2023-08-12T11:32:00Z</time>
      </trkpt>
      <trkpt lat="48.06876" lon="7.06788">
        <ele>866.7</ele>
        <time>2023-08-12T11:32:01Z</time>
      </trkpt>
      <trkpt lat="48.06877" lon="7.06788">
        <ele>866.8</ele>
        <time>2023-08-12T11:32:02Z</time>
      </trkpt>
      <trkpt lat="48.06878" lon="7.06788">
        <ele>866.9</ele>
        <time>2023-08-12T11:32:03Z</time>
      </trkpt>
      <trkpt lat="48.06879" lon="7.06787">
        <ele>867</ele>
        <time>2023-08-12T11:32:04Z</time>
      </trkpt>
      <trkpt lat="48.06881" lon="7.06785">
        <ele>867.2</ele>
        <time>2023-08-12T11:32:05Z</time>
      </trkpt>
      <trkpt lat="48.06882" lon="7.06785">
        <ele>867.4</ele>
        <time>2023-08-12T11:32:06Z</time>
      </trkpt>
      <trkpt lat="48.06883" lon="7.06785">
        <ele>867.5</ele>
        <time>2023-08-12T11:32:07Z</time>
      </trkpt>
      <trkpt lat="48.06884" lon="7.06784">
        <ele>867.6</ele>
        <time>2023-08-12T11:32:08Z</time>
      </trkpt>
      <trkpt lat="48.06886" lon="7.06784">
        <ele>867.8</ele>
        <time>2023-08-12T11:32:09Z</time>
      </trkpt>
      <trkpt lat="48.06887" lon="7.06784">
        <ele>868</ele>
        <time>2023-08-12T11:32:10Z</time>
      </trkpt>
      <trkpt lat="48.06888" lon="7.06784">
        <ele>868.1</ele>
        <time>2023-08-12T11:32:11Z</time>
      </trkpt>
      <trkpt lat="48.0689" lon="7.06784">
        <ele>868.2</ele>
        <time>2023-08-12T11:32:12Z</time>
      </trkpt>
      <trkpt lat="48.06891" lon="7.06784">
        <ele>868.3</ele>
        <time>2023-08-12T11:32:13Z</time>
      </trkpt>
      <trkpt lat="48.06892" lon="7.06784">
        <ele>868.5</ele>
        <time>2023-08-12T11:32:14Z</time>
      </trkpt>
      <trkpt lat="48.06893" lon="7.06784">
        <ele>868.6</ele>
        <time>2023-08-12T11:32:15Z</time>
      </trkpt>
      <trkpt lat="48.06894" lon="7.06784">
        <ele>868.7</ele>
        <time>2023-08-12T11:32:16Z</time>
      </trkpt>
      <trkpt lat="48.06896" lon="7.06785">
        <ele>868.9</ele>
        <time>2023-08-12T11:32:17Z</time>
      </trkpt>
      <trkpt lat="48.06897" lon="7.06785">
        <ele>869</ele>
        <time>2023-08-12T11:32:18Z</time>
      </trkpt>
      <trkpt lat="48.06898" lon="7.06785">
        <ele>869.2</ele>
        <time>2023-08-12T11:32:19Z</time>
      </trkpt>
      <trkpt lat="48.069" lon="7.06785">
        <ele>869.3</ele>
        <time>2023-08-12T11:32:20Z</time>
      </trkpt>
      <trkpt lat="48.06902" lon="7.06786">
        <ele>869.6</ele>
        <time>2023-08-12T11:32:21Z</time>
      </trkpt>
      <trkpt lat="48.06904" lon="7.06786">
        <ele>869.8</ele>
        <time>2023-08-12T11:32:22Z</time>
      </trkpt>
      <trkpt lat="48.06906" lon="7.06785">
        <ele>870.1</ele>
        <time>2023-08-12T11:32:23Z</time>
      </trkpt>
      <trkpt lat="48.06908" lon="7.06784">
        <ele>870.3</ele>
        <time>2023-08-12T11:32:24Z</time>
      </trkpt>
      <trkpt lat="48.0691" lon="7.06785">
        <ele>870.5</ele>
        <time>2023-08-12T11:32:25Z</time>
      </trkpt>
      <trkpt lat="48.06912" lon="7.06785">
        <ele>870.7</ele>
        <time>2023-08-12T11:32:26Z</time>
      </trkpt>
      <trkpt lat="48.06914" lon="7.06786">
        <ele>870.9</ele>
        <time>2023-08-12T11:32:27Z</time>
      </trkpt>
      <trkpt lat="48.06915" lon="7.06786">
        <ele>871</ele>
        <time>2023-08-12T11:32:28Z</time>
      </trkpt>
      <trkpt lat="48.06917" lon="7.06787">
        <ele>871.2</ele>
        <time>2023-08-12T11:32:29Z</time>
      </trkpt>
      <trkpt lat="48.06918" lon="7.06788">
        <ele>871.4</ele>
        <time>2023-08-12T11:32:30Z</time>
      </trkpt>
      <trkpt lat="48.0692" lon="7.06789">
        <ele>871.5</ele>
        <time>2023-08-12T11:32:31Z</time>
      </trkpt>
      <trkpt lat="48.06921" lon="7.0679">
        <ele>871.7</ele>
        <time>2023-08-12T11:32:32Z</time>
      </trkpt>
      <trkpt lat="48.06922" lon="7.0679">
        <ele>871.7</ele>
        <time>2023-08-12T11:32:33Z</time>
      </trkpt>
      <trkpt lat="48.06923" lon="7.06791">
        <ele>871.9</ele>
        <time>2023-08-12T11:32:34Z</time>
      </trkpt>
      <trkpt lat="48.06924" lon="7.06793">
        <ele>872.1</ele>
        <time>2023-08-12T11:32:35Z</time>
      </trkpt>
      <trkpt lat="48.06926" lon="7.06795">
        <ele>872.3</ele>
        <time>2023-08-12T11:32:36Z</time>
      </trkpt>
      <trkpt lat="48.06927" lon="7.06797">
        <ele>872.5</ele>
        <time>2023-08-12T11:32:37Z</time>
      </trkpt>
      <trkpt lat="48.06928" lon="7.06798">
        <ele>872.6</ele>
        <time>2023-08-12T11:32:38Z</time>
      </trkpt>
      <trkpt lat="48.06928" lon="7.06799">
        <ele>872.7</ele>
        <time>2023-08-12T11:32:39Z</time>
      </trkpt>
      <trkpt lat="48.06929" lon="7.06799">
        <ele>872.8</ele>
        <time>2023-08-12T11:32:40Z</time>
      </trkpt>
      <trkpt lat="48.06929" lon="7.06799">
        <ele>872.8</ele>
        <time>2023-08-12T11:32:41Z</time>
      </trkpt>
      <trkpt lat="48.06929" lon="7.068">
        <ele>872.8</ele>
        <time>2023-08-12T11:32:42Z</time>
      </trkpt>
      <trkpt lat="48.06929" lon="7.068">
        <ele>872.9</ele>
        <time>2023-08-12T11:32:45Z</time>
      </trkpt>
      <trkpt lat="48.0693" lon="7.06801">
        <ele>873</ele>
        <time>2023-08-12T11:32:46Z</time>
      </trkpt>
      <trkpt lat="48.06932" lon="7.06804">
        <ele>873.2</ele>
        <time>2023-08-12T11:32:47Z</time>
      </trkpt>
      <trkpt lat="48.06932" lon="7.06806">
        <ele>873.4</ele>
        <time>2023-08-12T11:32:48Z</time>
      </trkpt>
      <trkpt lat="48.06932" lon="7.06808">
        <ele>873.5</ele>
        <time>2023-08-12T11:32:49Z</time>
      </trkpt>
      <trkpt lat="48.06932" lon="7.0681">
        <ele>873.7</ele>
        <time>2023-08-12T11:32:50Z</time>
      </trkpt>
      <trkpt lat="48.06932" lon="7.0681">
        <ele>873.7</ele>
        <time>2023-08-12T11:32:51Z</time>
      </trkpt>
      <trkpt lat="48.06933" lon="7.06811">
        <ele>873.8</ele>
        <time>2023-08-12T11:32:52Z</time>
      </trkpt>
      <trkpt lat="48.06934" lon="7.06812">
        <ele>873.9</ele>
        <time>2023-08-12T11:32:53Z</time>
      </trkpt>
      <trkpt lat="48.06935" lon="7.06813">
        <ele>874.1</ele>
        <time>2023-08-12T11:32:54Z</time>
      </trkpt>
      <trkpt lat="48.06935" lon="7.06815">
        <ele>874.2</ele>
        <time>2023-08-12T11:32:55Z</time>
      </trkpt>
      <trkpt lat="48.06936" lon="7.06816">
        <ele>874.3</ele>
        <time>2023-08-12T11:32:56Z</time>
      </trkpt>
      <trkpt lat="48.06937" lon="7.06817">
        <ele>874.4</ele>
        <time>2023-08-12T11:32:57Z</time>
      </trkpt>
      <trkpt lat="48.06938" lon="7.06818">
        <ele>874.5</ele>
        <time>2023-08-12T11:32:58Z</time>
      </trkpt>
      <trkpt lat="48.06938" lon="7.0682">
        <ele>874.6</ele>
        <time>2023-08-12T11:32:59Z</time>
      </trkpt>
      <trkpt lat="48.06938" lon="7.06821">
        <ele>874.7</ele>
        <time>2023-08-12T11:33:00Z</time>
      </trkpt>
      <trkpt lat="48.06939" lon="7.06822">
        <ele>874.8</ele>
        <time>2023-08-12T11:33:01Z</time>
      </trkpt>
      <trkpt lat="48.0694" lon="7.06824">
        <ele>874.9</ele>
        <time>2023-08-12T11:33:02Z</time>
      </trkpt>
      <trkpt lat="48.0694" lon="7.06825">
        <ele>875</ele>
        <time>2023-08-12T11:33:03Z</time>
      </trkpt>
      <trkpt lat="48.06941" lon="7.06829">
        <ele>875.3</ele>
        <time>2023-08-12T11:33:04Z</time>
      </trkpt>
      <trkpt lat="48.06942" lon="7.06831">
        <ele>875.5</ele>
        <time>2023-08-12T11:33:05Z</time>
      </trkpt>
      <trkpt lat="48.06944" lon="7.06835">
        <ele>875.8</ele>
        <time>2023-08-12T11:33:06Z</time>
      </trkpt>
      <trkpt lat="48.06945" lon="7.06838">
        <ele>875.9</ele>
        <time>2023-08-12T11:33:07Z</time>
      </trkpt>
      <trkpt lat="48.06945" lon="7.06839">
        <ele>876</ele>
        <time>2023-08-12T11:33:08Z</time>
      </trkpt>
      <trkpt lat="48.06946" lon="7.06841">
        <ele>876.2</ele>
        <time>2023-08-12T11:33:09Z</time>
      </trkpt>
      <trkpt lat="48.06947" lon="7.06844">
        <ele>876.4</ele>
        <time>2023-08-12T11:33:10Z</time>
      </trkpt>
      <trkpt lat="48.06947" lon="7.06846">
        <ele>876.6</ele>
        <time>2023-08-12T11:33:11Z</time>
      </trkpt>
      <trkpt lat="48.06947" lon="7.06848">
        <ele>876.7</ele>
        <time>2023-08-12T11:33:12Z</time>
      </trkpt>
      <trkpt lat="48.06947" lon="7.06849">
        <ele>876.8</ele>
        <time>2023-08-12T11:33:13Z</time>
      </trkpt>
      <trkpt lat="48.06947" lon="7.0685">
        <ele>876.8</ele>
        <time>2023-08-12T11:33:14Z</time>
      </trkpt>
      <trkpt lat="48.06947" lon="7.06851">
        <ele>876.9</ele>
        <time>2023-08-12T11:33:15Z</time>
      </trkpt>
      <trkpt lat="48.06948" lon="7.06853">
        <ele>877.1</ele>
        <time>2023-08-12T11:33:16Z</time>
      </trkpt>
      <trkpt lat="48.0695" lon="7.06857">
        <ele>877.5</ele>
        <time>2023-08-12T11:33:17Z</time>
      </trkpt>
      <trkpt lat="48.06952" lon="7.06862">
        <ele>877.8</ele>
        <time>2023-08-12T11:33:18Z</time>
      </trkpt>
      <trkpt lat="48.06951" lon="7.06865">
        <ele>878.1</ele>
        <time>2023-08-12T11:33:19Z</time>
      </trkpt>
      <trkpt lat="48.06951" lon="7.06869">
        <ele>878.3</ele>
        <time>2023-08-12T11:33:20Z</time>
      </trkpt>
      <trkpt lat="48.0695" lon="7.0687">
        <ele>878.5</ele>
        <time>2023-08-12T11:33:21Z</time>
      </trkpt>
      <trkpt lat="48.06949" lon="7.0687">
        <ele>878.5</ele>
        <time>2023-08-12T11:33:22Z</time>
      </trkpt>
      <trkpt lat="48.06949" lon="7.06873">
        <ele>878.7</ele>
        <time>2023-08-12T11:33:23Z</time>
      </trkpt>
      <trkpt lat="48.0695" lon="7.06875">
        <ele>878.9</ele>
        <time>2023-08-12T11:33:24Z</time>
      </trkpt>
      <trkpt lat="48.06949" lon="7.06878">
        <ele>879.1</ele>
        <time>2023-08-12T11:33:25Z</time>
      </trkpt>
      <trkpt lat="48.06948" lon="7.06881">
        <ele>879.4</ele>
        <time>2023-08-12T11:33:26Z</time>
      </trkpt>
      <trkpt lat="48.06948" lon="7.06884">
        <ele>879.5</ele>
        <time>2023-08-12T11:33:27Z</time>
      </trkpt>
      <trkpt lat="48.06948" lon="7.06886">
        <ele>879.7</ele>
        <time>2023-08-12T11:33:28Z</time>
      </trkpt>
      <trkpt lat="48.06948" lon="7.06888">
        <ele>879.8</ele>
        <time>2023-08-12T11:33:29Z</time>
      </trkpt>
      <trkpt lat="48.06948" lon="7.0689">
        <ele>880</ele>
        <time>2023-08-12T11:33:30Z</time>
      </trkpt>
      <trkpt lat="48.0695" lon="7.06892">
        <ele>880.2</ele>
        <time>2023-08-12T11:33:31Z</time>
      </trkpt>
      <trkpt lat="48.06952" lon="7.06895">
        <ele>880.5</ele>
        <time>2023-08-12T11:33:32Z</time>
      </trkpt>
      <trkpt lat="48.06952" lon="7.06896">
        <ele>880.6</ele>
        <time>2023-08-12T11:33:33Z</time>
      </trkpt>
      <trkpt lat="48.06952" lon="7.06896">
        <ele>880.6</ele>
        <time>2023-08-12T11:33:34Z</time>
      </trkpt>
      <trkpt lat="48.06953" lon="7.06896">
        <ele>880.6</ele>
        <time>2023-08-12T11:33:35Z</time>
      </trkpt>
      <trkpt lat="48.06952" lon="7.06897">
        <ele>880.6</ele>
        <time>2023-08-12T11:33:36Z</time>
      </trkpt>
      <trkpt lat="48.06952" lon="7.06898">
        <ele>880.8</ele>
        <time>2023-08-12T11:33:37Z</time>
      </trkpt>
      <trkpt lat="48.06952" lon="7.069">
        <ele>880.9</ele>
        <time>2023-08-12T11:33:38Z</time>
      </trkpt>
      <trkpt lat="48.06952" lon="7.06902">
        <ele>881.1</ele>
        <time>2023-08-12T11:33:39Z</time>
      </trkpt>
      <trkpt lat="48.06952" lon="7.06904">
        <ele>881.2</ele>
        <time>2023-08-12T11:33:40Z</time>
      </trkpt>
      <trkpt lat="48.06953" lon="7.06906">
        <ele>881.4</ele>
        <time>2023-08-12T11:33:41Z</time>
      </trkpt>
      <trkpt lat="48.06953" lon="7.06908">
        <ele>881.6</ele>
        <time>2023-08-12T11:33:42Z</time>
      </trkpt>
      <trkpt lat="48.06953" lon="7.06911">
        <ele>881.9</ele>
        <time>2023-08-12T11:33:43Z</time>
      </trkpt>
      <trkpt lat="48.06954" lon="7.06913">
        <ele>882.1</ele>
        <time>2023-08-12T11:33:44Z</time>
      </trkpt>
      <trkpt lat="48.06953" lon="7.06915">
        <ele>882.2</ele>
        <time>2023-08-12T11:33:45Z</time>
      </trkpt>
      <trkpt lat="48.06954" lon="7.06916">
        <ele>882.3</ele>
        <time>2023-08-12T11:33:46Z</time>
      </trkpt>
      <trkpt lat="48.06954" lon="7.06917">
        <ele>882.4</ele>
        <time>2023-08-12T11:33:47Z</time>
      </trkpt>
      <trkpt lat="48.06954" lon="7.06919">
        <ele>882.6</ele>
        <time>2023-08-12T11:33:48Z</time>
      </trkpt>
      <trkpt lat="48.06954" lon="7.06921">
        <ele>882.8</ele>
        <time>2023-08-12T11:33:49Z</time>
      </trkpt>
      <trkpt lat="48.06954" lon="7.06922">
        <ele>882.9</ele>
        <time>2023-08-12T11:33:50Z</time>
      </trkpt>
      <trkpt lat="48.06954" lon="7.06925">
        <ele>883.2</ele>
        <time>2023-08-12T11:33:51Z</time>
      </trkpt>
      <trkpt lat="48.06954" lon="7.06928">
        <ele>883.4</ele>
        <time>2023-08-12T11:33:52Z</time>
      </trkpt>
      <trkpt lat="48.06955" lon="7.0693">
        <ele>883.6</ele>
        <time>2023-08-12T11:33:53Z</time>
      </trkpt>
      <trkpt lat="48.06956" lon="7.06932">
        <ele>883.8</ele>
        <time>2023-08-12T11:33:54Z</time>
      </trkpt>
      <trkpt lat="48.06956" lon="7.06934">
        <ele>884</ele>
        <time>2023-08-12T11:33:55Z</time>
      </trkpt>
      <trkpt lat="48.06956" lon="7.06936">
        <ele>884.2</ele>
        <time>2023-08-12T11:33:56Z</time>
      </trkpt>
      <trkpt lat="48.06956" lon="7.06937">
        <ele>884.3</ele>
        <time>2023-08-12T11:33:57Z</time>
      </trkpt>
      <trkpt lat="48.06956" lon="7.0694">
        <ele>884.5</ele>
        <time>2023-08-12T11:33:58Z</time>
      </trkpt>
      <trkpt lat="48.06956" lon="7.06942">
        <ele>884.8</ele>
        <time>2023-08-12T11:33:59Z</time>
      </trkpt>
      <trkpt lat="48.06957" lon="7.06942">
        <ele>884.8</ele>
        <time>2023-08-12T11:34:00Z</time>
      </trkpt>
      <trkpt lat="48.06956" lon="7.06945">
        <ele>885</ele>
        <time>2023-08-12T11:34:01Z</time>
      </trkpt>
      <trkpt lat="48.06956" lon="7.06947">
        <ele>885.3</ele>
        <time>2023-08-12T11:34:02Z</time>
      </trkpt>
      <trkpt lat="48.06956" lon="7.06949">
        <ele>885.4</ele>
        <time>2023-08-12T11:34:03Z</time>
      </trkpt>
      <trkpt lat="48.06956" lon="7.0695">
        <ele>885.6</ele>
        <time>2023-08-12T11:34:04Z</time>
      </trkpt>
      <trkpt lat="48.06959" lon="7.06955">
        <ele>886.2</ele>
        <time>2023-08-12T11:34:05Z</time>
      </trkpt>
      <trkpt lat="48.06961" lon="7.06964">
        <ele>887</ele>
        <time>2023-08-12T11:34:06Z</time>
      </trkpt>
      <trkpt lat="48.06961" lon="7.06968">
        <ele>887.4</ele>
        <time>2023-08-12T11:34:07Z</time>
      </trkpt>
      <trkpt lat="48.06962" lon="7.0697">
        <ele>887.6</ele>
        <time>2023-08-12T11:34:08Z</time>
      </trkpt>
      <trkpt lat="48.06963" lon="7.06972">
        <ele>887.9</ele>
        <time>2023-08-12T11:34:09Z</time>
      </trkpt>
      <trkpt lat="48.06963" lon="7.06975">
        <ele>888.1</ele>
        <time>2023-08-12T11:34:10Z</time>
      </trkpt>
      <trkpt lat="48.06964" lon="7.06978">
        <ele>888.3</ele>
        <time>2023-08-12T11:34:11Z</time>
      </trkpt>
      <trkpt lat="48.06965" lon="7.0698">
        <ele>888.5</ele>
        <time>2023-08-12T11:34:12Z</time>
      </trkpt>
      <trkpt lat="48.06966" lon="7.06983">
        <ele>888.8</ele>
        <time>2023-08-12T11:34:13Z</time>
      </trkpt>
      <trkpt lat="48.06968" lon="7.06985">
        <ele>889</ele>
        <time>2023-08-12T11:34:14Z</time>
      </trkpt>
      <trkpt lat="48.06969" lon="7.06987">
        <ele>889.2</ele>
        <time>2023-08-12T11:34:15Z</time>
      </trkpt>
      <trkpt lat="48.0697" lon="7.06989">
        <ele>889.4</ele>
        <time>2023-08-12T11:34:16Z</time>
      </trkpt>
      <trkpt lat="48.06971" lon="7.0699">
        <ele>889.6</ele>
        <time>2023-08-12T11:34:17Z</time>
      </trkpt>
      <trkpt lat="48.06975" lon="7.06994">
        <ele>890.1</ele>
        <time>2023-08-12T11:34:18Z</time>
      </trkpt>
      <trkpt lat="48.06975" lon="7.06995">
        <ele>890.1</ele>
        <time>2023-08-12T11:34:19Z</time>
      </trkpt>
      <trkpt lat="48.06976" lon="7.06996">
        <ele>890.3</ele>
        <time>2023-08-12T11:34:20Z</time>
      </trkpt>
      <trkpt lat="48.06977" lon="7.06998">
        <ele>890.4</ele>
        <time>2023-08-12T11:34:21Z</time>
      </trkpt>
      <trkpt lat="48.06977" lon="7.07">
        <ele>890.6</ele>
        <time>2023-08-12T11:34:22Z</time>
      </trkpt>
      <trkpt lat="48.06978" lon="7.07001">
        <ele>890.7</ele>
        <time>2023-08-12T11:34:23Z</time>
      </trkpt>
      <trkpt lat="48.06978" lon="7.07002">
        <ele>890.8</ele>
        <time>2023-08-12T11:34:24Z</time>
      </trkpt>
      <trkpt lat="48.06979" lon="7.07004">
        <ele>890.9</ele>
        <time>2023-08-12T11:34:25Z</time>
      </trkpt>
      <trkpt lat="48.06979" lon="7.07006">
        <ele>891.1</ele>
        <time>2023-08-12T11:34:26Z</time>
      </trkpt>
      <trkpt lat="48.0698" lon="7.07009">
        <ele>891.2</ele>
        <time>2023-08-12T11:34:27Z</time>
      </trkpt>
      <trkpt lat="48.0698" lon="7.07011">
        <ele>891.4</ele>
        <time>2023-08-12T11:34:28Z</time>
      </trkpt>
      <trkpt lat="48.06981" lon="7.07014">
        <ele>891.6</ele>
        <time>2023-08-12T11:34:29Z</time>
      </trkpt>
      <trkpt lat="48.06982" lon="7.07016">
        <ele>891.8</ele>
        <time>2023-08-12T11:34:30Z</time>
      </trkpt>
      <trkpt lat="48.06983" lon="7.07018">
        <ele>892</ele>
        <time>2023-08-12T11:34:31Z</time>
      </trkpt>
      <trkpt lat="48.06984" lon="7.07019">
        <ele>892.1</ele>
        <time>2023-08-12T11:34:32Z</time>
      </trkpt>
      <trkpt lat="48.06985" lon="7.07021">
        <ele>892.3</ele>
        <time>2023-08-12T11:34:33Z</time>
      </trkpt>
      <trkpt lat="48.06986" lon="7.07024">
        <ele>892.5</ele>
        <time>2023-08-12T11:34:34Z</time>
      </trkpt>
      <trkpt lat="48.06986" lon="7.07026">
        <ele>892.7</ele>
        <time>2023-08-12T11:34:35Z</time>
      </trkpt>
      <trkpt lat="48.06987" lon="7.07029">
        <ele>892.9</ele>
        <time>2023-08-12T11:34:36Z</time>
      </trkpt>
      <trkpt lat="48.06987" lon="7.07031">
        <ele>893.1</ele>
        <time>2023-08-12T11:34:37Z</time>
      </trkpt>
      <trkpt lat="48.06988" lon="7.07032">
        <ele>893.2</ele>
        <time>2023-08-12T11:34:38Z</time>
      </trkpt>
      <trkpt lat="48.06989" lon="7.07034">
        <ele>893.4</ele>
        <time>2023-08-12T11:34:39Z</time>
      </trkpt>
      <trkpt lat="48.0699" lon="7.07036">
        <ele>893.6</ele>
        <time>2023-08-12T11:34:40Z</time>
      </trkpt>
      <trkpt lat="48.0699" lon="7.07038">
        <ele>893.7</ele>
        <time>2023-08-12T11:34:41Z</time>
      </trkpt>
      <trkpt lat="48.06991" lon="7.0704">
        <ele>893.9</ele>
        <time>2023-08-12T11:34:42Z</time>
      </trkpt>
      <trkpt lat="48.06992" lon="7.07042">
        <ele>894.2</ele>
        <time>2023-08-12T11:34:43Z</time>
      </trkpt>
      <trkpt lat="48.06993" lon="7.07044">
        <ele>894.4</ele>
        <time>2023-08-12T11:34:44Z</time>
      </trkpt>
      <trkpt lat="48.06994" lon="7.07046">
        <ele>894.6</ele>
        <time>2023-08-12T11:34:45Z</time>
      </trkpt>
      <trkpt lat="48.06995" lon="7.07047">
        <ele>894.8</ele>
        <time>2023-08-12T11:34:46Z</time>
      </trkpt>
      <trkpt lat="48.06997" lon="7.07048">
        <ele>895</ele>
        <time>2023-08-12T11:34:47Z</time>
      </trkpt>
      <trkpt lat="48.06998" lon="7.0705">
        <ele>895.2</ele>
        <time>2023-08-12T11:34:48Z</time>
      </trkpt>
      <trkpt lat="48.06999" lon="7.07052">
        <ele>895.4</ele>
        <time>2023-08-12T11:34:49Z</time>
      </trkpt>
      <trkpt lat="48.06999" lon="7.07054">
        <ele>895.6</ele>
        <time>2023-08-12T11:34:50Z</time>
      </trkpt>
      <trkpt lat="48.07" lon="7.07056">
        <ele>895.9</ele>
        <time>2023-08-12T11:34:51Z</time>
      </trkpt>
      <trkpt lat="48.07001" lon="7.07059">
        <ele>896.2</ele>
        <time>2023-08-12T11:34:52Z</time>
      </trkpt>
      <trkpt lat="48.07002" lon="7.07061">
        <ele>896.4</ele>
        <time>2023-08-12T11:34:53Z</time>
      </trkpt>
      <trkpt lat="48.07002" lon="7.07061">
        <ele>896.6</ele>
        <time>2023-08-12T11:34:54Z</time>
      </trkpt>
      <trkpt lat="48.07003" lon="7.07063">
        <ele>896.7</ele>
        <time>2023-08-12T11:34:55Z</time>
      </trkpt>
      <trkpt lat="48.07003" lon="7.07065">
        <ele>896.9</ele>
        <time>2023-08-12T11:34:56Z</time>
      </trkpt>
      <trkpt lat="48.07003" lon="7.07067">
        <ele>897.1</ele>
        <time>2023-08-12T11:34:57Z</time>
      </trkpt>
      <trkpt lat="48.07005" lon="7.07068">
        <ele>897.4</ele>
        <time>2023-08-12T11:34:58Z</time>
      </trkpt>
      <trkpt lat="48.07006" lon="7.07069">
        <ele>897.7</ele>
        <time>2023-08-12T11:34:59Z</time>
      </trkpt>
      <trkpt lat="48.07006" lon="7.0707">
        <ele>897.8</ele>
        <time>2023-08-12T11:35:00Z</time>
      </trkpt>
      <trkpt lat="48.07007" lon="7.07071">
        <ele>897.8</ele>
        <time>2023-08-12T11:35:01Z</time>
      </trkpt>
      <trkpt lat="48.07006" lon="7.07071">
        <ele>897.9</ele>
        <time>2023-08-12T11:35:02Z</time>
      </trkpt>
      <trkpt lat="48.07007" lon="7.07072">
        <ele>898</ele>
        <time>2023-08-12T11:35:03Z</time>
      </trkpt>
      <trkpt lat="48.07008" lon="7.07073">
        <ele>898.2</ele>
        <time>2023-08-12T11:35:04Z</time>
      </trkpt>
      <trkpt lat="48.07008" lon="7.07074">
        <ele>898.3</ele>
        <time>2023-08-12T11:35:05Z</time>
      </trkpt>
      <trkpt lat="48.07008" lon="7.07076">
        <ele>898.5</ele>
        <time>2023-08-12T11:35:06Z</time>
      </trkpt>
      <trkpt lat="48.07009" lon="7.07077">
        <ele>898.6</ele>
        <time>2023-08-12T11:35:07Z</time>
      </trkpt>
      <trkpt lat="48.07009" lon="7.07078">
        <ele>898.8</ele>
        <time>2023-08-12T11:35:08Z</time>
      </trkpt>
      <trkpt lat="48.0701" lon="7.0708">
        <ele>899</ele>
        <time>2023-08-12T11:35:09Z</time>
      </trkpt>
      <trkpt lat="48.07011" lon="7.07082">
        <ele>899.3</ele>
        <time>2023-08-12T11:35:10Z</time>
      </trkpt>
      <trkpt lat="48.07011" lon="7.07083">
        <ele>899.4</ele>
        <time>2023-08-12T11:35:11Z</time>
      </trkpt>
      <trkpt lat="48.07013" lon="7.07084">
        <ele>899.7</ele>
        <time>2023-08-12T11:35:12Z</time>
      </trkpt>
      <trkpt lat="48.07014" lon="7.07086">
        <ele>900</ele>
        <time>2023-08-12T11:35:13Z</time>
      </trkpt>
      <trkpt lat="48.07015" lon="7.07089">
        <ele>900.4</ele>
        <time>2023-08-12T11:35:14Z</time>
      </trkpt>
      <trkpt lat="48.07016" lon="7.07091">
        <ele>900.6</ele>
        <time>2023-08-12T11:35:15Z</time>
      </trkpt>
      <trkpt lat="48.07017" lon="7.07092">
        <ele>900.8</ele>
        <time>2023-08-12T11:35:16Z</time>
      </trkpt>
      <trkpt lat="48.07018" lon="7.07094">
        <ele>901.1</ele>
        <time>2023-08-12T11:35:17Z</time>
      </trkpt>
      <trkpt lat="48.07019" lon="7.07096">
        <ele>901.3</ele>
        <time>2023-08-12T11:35:18Z</time>
      </trkpt>
      <trkpt lat="48.0702" lon="7.07097">
        <ele>901.6</ele>
        <time>2023-08-12T11:35:19Z</time>
      </trkpt>
      <trkpt lat="48.0702" lon="7.07098">
        <ele>901.7</ele>
        <time>2023-08-12T11:35:20Z</time>
      </trkpt>
      <trkpt lat="48.07021" lon="7.07099">
        <ele>901.8</ele>
        <time>2023-08-12T11:35:21Z</time>
      </trkpt>
      <trkpt lat="48.07021" lon="7.07099">
        <ele>901.8</ele>
        <time>2023-08-12T11:35:22Z</time>
      </trkpt>
      <trkpt lat="48.07021" lon="7.071">
        <ele>901.9</ele>
        <time>2023-08-12T11:35:23Z</time>
      </trkpt>
      <trkpt lat="48.07021" lon="7.071">
        <ele>902</ele>
        <time>2023-08-12T11:35:24Z</time>
      </trkpt>
      <trkpt lat="48.07022" lon="7.071">
        <ele>902</ele>
        <time>2023-08-12T11:35:25Z</time>
      </trkpt>
      <trkpt lat="48.07023" lon="7.07103">
        <ele>902.3</ele>
        <time>2023-08-12T11:35:26Z</time>
      </trkpt>
      <trkpt lat="48.07024" lon="7.07105">
        <ele>902.7</ele>
        <time>2023-08-12T11:35:27Z</time>
      </trkpt>
      <trkpt lat="48.07026" lon="7.07108">
        <ele>903</ele>
        <time>2023-08-12T11:35:28Z</time>
      </trkpt>
      <trkpt lat="48.07028" lon="7.07111">
        <ele>903.5</ele>
        <time>2023-08-12T11:35:29Z</time>
      </trkpt>
      <trkpt lat="48.0703" lon="7.07113">
        <ele>903.7</ele>
        <time>2023-08-12T11:35:30Z</time>
      </trkpt>
      <trkpt lat="48.07032" lon="7.07115">
        <ele>904.1</ele>
        <time>2023-08-12T11:35:31Z</time>
      </trkpt>
      <trkpt lat="48.07033" lon="7.07117">
        <ele>904.4</ele>
        <time>2023-08-12T11:35:32Z</time>
      </trkpt>
      <trkpt lat="48.07034" lon="7.07119">
        <ele>904.6</ele>
        <time>2023-08-12T11:35:33Z</time>
      </trkpt>
      <trkpt lat="48.07035" lon="7.0712">
        <ele>904.7</ele>
        <time>2023-08-12T11:35:34Z</time>
      </trkpt>
      <trkpt lat="48.07036" lon="7.07122">
        <ele>904.9</ele>
        <time>2023-08-12T11:35:35Z</time>
      </trkpt>
      <trkpt lat="48.07037" lon="7.07124">
        <ele>905.1</ele>
        <time>2023-08-12T11:35:36Z</time>
      </trkpt>
      <trkpt lat="48.0704" lon="7.07127">
        <ele>905.6</ele>
        <time>2023-08-12T11:35:37Z</time>
      </trkpt>
      <trkpt lat="48.07041" lon="7.0713">
        <ele>905.8</ele>
        <time>2023-08-12T11:35:38Z</time>
      </trkpt>
      <trkpt lat="48.07042" lon="7.07131">
        <ele>906</ele>
        <time>2023-08-12T11:35:39Z</time>
      </trkpt>
      <trkpt lat="48.07043" lon="7.07132">
        <ele>906.1</ele>
        <time>2023-08-12T11:35:40Z</time>
      </trkpt>
      <trkpt lat="48.07043" lon="7.07133">
        <ele>906.2</ele>
        <time>2023-08-12T11:35:41Z</time>
      </trkpt>
      <trkpt lat="48.07044" lon="7.07134">
        <ele>906.4</ele>
        <time>2023-08-12T11:35:42Z</time>
      </trkpt>
      <trkpt lat="48.07044" lon="7.07135">
        <ele>906.5</ele>
        <time>2023-08-12T11:35:43Z</time>
      </trkpt>
      <trkpt lat="48.07045" lon="7.07138">
        <ele>906.7</ele>
        <time>2023-08-12T11:35:44Z</time>
      </trkpt>
      <trkpt lat="48.07047" lon="7.0714">
        <ele>907.1</ele>
        <time>2023-08-12T11:35:45Z</time>
      </trkpt>
      <trkpt lat="48.07049" lon="7.07142">
        <ele>907.4</ele>
        <time>2023-08-12T11:35:46Z</time>
      </trkpt>
      <trkpt lat="48.0705" lon="7.07144">
        <ele>907.6</ele>
        <time>2023-08-12T11:35:47Z</time>
      </trkpt>
      <trkpt lat="48.0705" lon="7.07146">
        <ele>907.7</ele>
        <time>2023-08-12T11:35:48Z</time>
      </trkpt>
      <trkpt lat="48.07051" lon="7.07148">
        <ele>908</ele>
        <time>2023-08-12T11:35:49Z</time>
      </trkpt>
      <trkpt lat="48.07052" lon="7.07148">
        <ele>908</ele>
        <time>2023-08-12T11:35:50Z</time>
      </trkpt>
      <trkpt lat="48.07053" lon="7.07152">
        <ele>908.4</ele>
        <time>2023-08-12T11:35:51Z</time>
      </trkpt>
      <trkpt lat="48.07055" lon="7.07155">
        <ele>908.7</ele>
        <time>2023-08-12T11:35:52Z</time>
      </trkpt>
      <trkpt lat="48.07056" lon="7.07156">
        <ele>908.9</ele>
        <time>2023-08-12T11:35:53Z</time>
      </trkpt>
      <trkpt lat="48.07057" lon="7.07158">
        <ele>909.1</ele>
        <time>2023-08-12T11:35:54Z</time>
      </trkpt>
      <trkpt lat="48.07059" lon="7.07162">
        <ele>909.5</ele>
        <time>2023-08-12T11:35:55Z</time>
      </trkpt>
      <trkpt lat="48.07061" lon="7.07165">
        <ele>909.8</ele>
        <time>2023-08-12T11:35:56Z</time>
      </trkpt>
      <trkpt lat="48.07064" lon="7.07168">
        <ele>910.2</ele>
        <time>2023-08-12T11:35:57Z</time>
      </trkpt>
      <trkpt lat="48.07065" lon="7.07172">
        <ele>910.5</ele>
        <time>2023-08-12T11:35:58Z</time>
      </trkpt>
      <trkpt lat="48.07067" lon="7.07173">
        <ele>910.6</ele>
        <time>2023-08-12T11:35:59Z</time>
      </trkpt>
      <trkpt lat="48.07068" lon="7.07175">
        <ele>910.8</ele>
        <time>2023-08-12T11:36:00Z</time>
      </trkpt>
      <trkpt lat="48.0707" lon="7.07177">
        <ele>911</ele>
        <time>2023-08-12T11:36:01Z</time>
      </trkpt>
      <trkpt lat="48.07071" lon="7.0718">
        <ele>911.3</ele>
        <time>2023-08-12T11:36:02Z</time>
      </trkpt>
      <trkpt lat="48.07073" lon="7.07182">
        <ele>911.5</ele>
        <time>2023-08-12T11:36:03Z</time>
      </trkpt>
      <trkpt lat="48.07075" lon="7.07185">
        <ele>911.9</ele>
        <time>2023-08-12T11:36:04Z</time>
      </trkpt>
      <trkpt lat="48.07077" lon="7.07188">
        <ele>912.2</ele>
        <time>2023-08-12T11:36:05Z</time>
      </trkpt>
      <trkpt lat="48.07079" lon="7.07191">
        <ele>912.6</ele>
        <time>2023-08-12T11:36:06Z</time>
      </trkpt>
      <trkpt lat="48.07081" lon="7.07193">
        <ele>912.8</ele>
        <time>2023-08-12T11:36:07Z</time>
      </trkpt>
      <trkpt lat="48.07082" lon="7.07195">
        <ele>913</ele>
        <time>2023-08-12T11:36:08Z</time>
      </trkpt>
      <trkpt lat="48.07082" lon="7.07197">
        <ele>913.2</ele>
        <time>2023-08-12T11:36:09Z</time>
      </trkpt>
      <trkpt lat="48.07082" lon="7.07199">
        <ele>913.4</ele>
        <time>2023-08-12T11:36:10Z</time>
      </trkpt>
      <trkpt lat="48.07082" lon="7.072">
        <ele>913.5</ele>
        <time>2023-08-12T11:36:11Z</time>
      </trkpt>
      <trkpt lat="48.07084" lon="7.07202">
        <ele>913.7</ele>
        <time>2023-08-12T11:36:12Z</time>
      </trkpt>
      <trkpt lat="48.07085" lon="7.07203">
        <ele>913.9</ele>
        <time>2023-08-12T11:36:13Z</time>
      </trkpt>
      <trkpt lat="48.07086" lon="7.07205">
        <ele>914.2</ele>
        <time>2023-08-12T11:36:14Z</time>
      </trkpt>
      <trkpt lat="48.07087" lon="7.07206">
        <ele>914.3</ele>
        <time>2023-08-12T11:36:15Z</time>
      </trkpt>
      <trkpt lat="48.07088" lon="7.07208">
        <ele>914.6</ele>
        <time>2023-08-12T11:36:16Z</time>
      </trkpt>
      <trkpt lat="48.0709" lon="7.0721">
        <ele>914.8</ele>
        <time>2023-08-12T11:36:17Z</time>
      </trkpt>
      <trkpt lat="48.07091" lon="7.07211">
        <ele>915</ele>
        <time>2023-08-12T11:36:18Z</time>
      </trkpt>
      <trkpt lat="48.07092" lon="7.07212">
        <ele>915.2</ele>
        <time>2023-08-12T11:36:19Z</time>
      </trkpt>
      <trkpt lat="48.07093" lon="7.07213">
        <ele>915.3</ele>
        <time>2023-08-12T11:36:20Z</time>
      </trkpt>
      <trkpt lat="48.07094" lon="7.07214">
        <ele>915.5</ele>
        <time>2023-08-12T11:36:21Z</time>
      </trkpt>
      <trkpt lat="48.07094" lon="7.07216">
        <ele>915.6</ele>
        <time>2023-08-12T11:36:22Z</time>
      </trkpt>
      <trkpt lat="48.07095" lon="7.07217">
        <ele>915.8</ele>
        <time>2023-08-12T11:36:23Z</time>
      </trkpt>
      <trkpt lat="48.07096" lon="7.07218">
        <ele>916</ele>
        <time>2023-08-12T11:36:24Z</time>
      </trkpt>
      <trkpt lat="48.07097" lon="7.07219">
        <ele>916.1</ele>
        <time>2023-08-12T11:36:25Z</time>
      </trkpt>
      <trkpt lat="48.07099" lon="7.07221">
        <ele>916.4</ele>
        <time>2023-08-12T11:36:26Z</time>
      </trkpt>
      <trkpt lat="48.071" lon="7.07223">
        <ele>916.6</ele>
        <time>2023-08-12T11:36:27Z</time>
      </trkpt>
      <trkpt lat="48.07102" lon="7.07224">
        <ele>916.8</ele>
        <time>2023-08-12T11:36:28Z</time>
      </trkpt>
      <trkpt lat="48.07103" lon="7.07225">
        <ele>917</ele>
        <time>2023-08-12T11:36:29Z</time>
      </trkpt>
      <trkpt lat="48.07104" lon="7.07226">
        <ele>917.2</ele>
        <time>2023-08-12T11:36:30Z</time>
      </trkpt>
      <trkpt lat="48.07106" lon="7.07227">
        <ele>917.4</ele>
        <time>2023-08-12T11:36:31Z</time>
      </trkpt>
      <trkpt lat="48.07108" lon="7.07229">
        <ele>917.8</ele>
        <time>2023-08-12T11:36:32Z</time>
      </trkpt>
      <trkpt lat="48.0711" lon="7.07231">
        <ele>918.1</ele>
        <time>2023-08-12T11:36:33Z</time>
      </trkpt>
      <trkpt lat="48.07112" lon="7.07233">
        <ele>918.4</ele>
        <time>2023-08-12T11:36:34Z</time>
      </trkpt>
      <trkpt lat="48.07113" lon="7.07235">
        <ele>918.6</ele>
        <time>2023-08-12T11:36:35Z</time>
      </trkpt>
      <trkpt lat="48.07114" lon="7.07237">
        <ele>918.8</ele>
        <time>2023-08-12T11:36:36Z</time>
      </trkpt>
      <trkpt lat="48.07114" lon="7.07238">
        <ele>919</ele>
        <time>2023-08-12T11:36:37Z</time>
      </trkpt>
      <trkpt lat="48.07116" lon="7.07239">
        <ele>919.2</ele>
        <time>2023-08-12T11:36:38Z</time>
      </trkpt>
      <trkpt lat="48.07116" lon="7.0724">
        <ele>919.2</ele>
        <time>2023-08-12T11:36:39Z</time>
      </trkpt>
      <trkpt lat="48.07116" lon="7.0724">
        <ele>919.3</ele>
        <time>2023-08-12T11:36:40Z</time>
      </trkpt>
      <trkpt lat="48.07117" lon="7.07241">
        <ele>919.4</ele>
        <time>2023-08-12T11:36:41Z</time>
      </trkpt>
      <trkpt lat="48.07119" lon="7.07241">
        <ele>919.7</ele>
        <time>2023-08-12T11:36:42Z</time>
      </trkpt>
      <trkpt lat="48.0712" lon="7.07241">
        <ele>919.8</ele>
        <time>2023-08-12T11:36:43Z</time>
      </trkpt>
      <trkpt lat="48.07121" lon="7.07242">
        <ele>920</ele>
        <time>2023-08-12T11:36:44Z</time>
      </trkpt>
      <trkpt lat="48.07122" lon="7.07243">
        <ele>920.2</ele>
        <time>2023-08-12T11:36:45Z</time>
      </trkpt>
      <trkpt lat="48.07123" lon="7.07243">
        <ele>920.3</ele>
        <time>2023-08-12T11:36:46Z</time>
      </trkpt>
      <trkpt lat="48.07125" lon="7.07244">
        <ele>920.6</ele>
        <time>2023-08-12T11:36:47Z</time>
      </trkpt>
      <trkpt lat="48.07126" lon="7.07245">
        <ele>920.7</ele>
        <time>2023-08-12T11:36:48Z</time>
      </trkpt>
      <trkpt lat="48.07127" lon="7.07247">
        <ele>920.9</ele>
        <time>2023-08-12T11:36:49Z</time>
      </trkpt>
      <trkpt lat="48.07129" lon="7.07249">
        <ele>921.2</ele>
        <time>2023-08-12T11:36:50Z</time>
      </trkpt>
      <trkpt lat="48.0713" lon="7.0725">
        <ele>921.4</ele>
        <time>2023-08-12T11:36:51Z</time>
      </trkpt>
      <trkpt lat="48.07131" lon="7.07252">
        <ele>921.5</ele>
        <time>2023-08-12T11:36:52Z</time>
      </trkpt>
      <trkpt lat="48.07132" lon="7.07254">
        <ele>921.8</ele>
        <time>2023-08-12T11:36:53Z</time>
      </trkpt>
      <trkpt lat="48.07133" lon="7.07256">
        <ele>922</ele>
        <time>2023-08-12T11:36:54Z</time>
      </trkpt>
      <trkpt lat="48.07135" lon="7.07257">
        <ele>922.2</ele>
        <time>2023-08-12T11:36:55Z</time>
      </trkpt>
      <trkpt lat="48.07136" lon="7.07259">
        <ele>922.4</ele>
        <time>2023-08-12T11:36:56Z</time>
      </trkpt>
      <trkpt lat="48.07137" lon="7.0726">
        <ele>922.6</ele>
        <time>2023-08-12T11:36:57Z</time>
      </trkpt>
      <trkpt lat="48.07139" lon="7.07262">
        <ele>922.9</ele>
        <time>2023-08-12T11:36:58Z</time>
      </trkpt>
      <trkpt lat="48.0714" lon="7.07263">
        <ele>923.1</ele>
        <time>2023-08-12T11:36:59Z</time>
      </trkpt>
      <trkpt lat="48.07141" lon="7.07265">
        <ele>923.3</ele>
        <time>2023-08-12T11:37:00Z</time>
      </trkpt>
      <trkpt lat="48.07143" lon="7.07267">
        <ele>923.5</ele>
        <time>2023-08-12T11:37:01Z</time>
      </trkpt>
      <trkpt lat="48.07144" lon="7.07269">
        <ele>923.8</ele>
        <time>2023-08-12T11:37:02Z</time>
      </trkpt>
      <trkpt lat="48.07146" lon="7.0727">
        <ele>924</ele>
        <time>2023-08-12T11:37:03Z</time>
      </trkpt>
      <trkpt lat="48.07147" lon="7.07271">
        <ele>924.1</ele>
        <time>2023-08-12T11:37:04Z</time>
      </trkpt>
      <trkpt lat="48.07148" lon="7.07271">
        <ele>924.2</ele>
        <time>2023-08-12T11:37:05Z</time>
      </trkpt>
      <trkpt lat="48.07149" lon="7.07272">
        <ele>924.4</ele>
        <time>2023-08-12T11:37:06Z</time>
      </trkpt>
      <trkpt lat="48.07151" lon="7.07273">
        <ele>924.7</ele>
        <time>2023-08-12T11:37:07Z</time>
      </trkpt>
      <trkpt lat="48.07153" lon="7.07274">
        <ele>924.9</ele>
        <time>2023-08-12T11:37:08Z</time>
      </trkpt>
      <trkpt lat="48.07154" lon="7.07275">
        <ele>925.1</ele>
        <time>2023-08-12T11:37:09Z</time>
      </trkpt>
      <trkpt lat="48.07155" lon="7.07275">
        <ele>925.1</ele>
        <time>2023-08-12T11:37:11Z</time>
      </trkpt>
      <trkpt lat="48.07155" lon="7.07276">
        <ele>925.2</ele>
        <time>2023-08-12T11:37:12Z</time>
      </trkpt>
      <trkpt lat="48.07157" lon="7.07277">
        <ele>925.4</ele>
        <time>2023-08-12T11:37:13Z</time>
      </trkpt>
      <trkpt lat="48.07158" lon="7.07279">
        <ele>925.6</ele>
        <time>2023-08-12T11:37:14Z</time>
      </trkpt>
      <trkpt lat="48.0716" lon="7.07279">
        <ele>925.8</ele>
        <time>2023-08-12T11:37:15Z</time>
      </trkpt>
      <trkpt lat="48.07161" lon="7.07279">
        <ele>925.9</ele>
        <time>2023-08-12T11:37:16Z</time>
      </trkpt>
      <trkpt lat="48.07162" lon="7.07279">
        <ele>926</ele>
        <time>2023-08-12T11:37:17Z</time>
      </trkpt>
      <trkpt lat="48.07164" lon="7.07279">
        <ele>926.2</ele>
        <time>2023-08-12T11:37:18Z</time>
      </trkpt>
      <trkpt lat="48.07165" lon="7.0728">
        <ele>926.3</ele>
        <time>2023-08-12T11:37:19Z</time>
      </trkpt>
      <trkpt lat="48.07167" lon="7.07282">
        <ele>926.5</ele>
        <time>2023-08-12T11:37:20Z</time>
      </trkpt>
      <trkpt lat="48.07171" lon="7.07285">
        <ele>926.9</ele>
        <time>2023-08-12T11:37:21Z</time>
      </trkpt>
      <trkpt lat="48.07175" lon="7.07289">
        <ele>927.2</ele>
        <time>2023-08-12T11:37:22Z</time>
      </trkpt>
      <trkpt lat="48.07177" lon="7.07291">
        <ele>927.4</ele>
        <time>2023-08-12T11:37:23Z</time>
      </trkpt>
      <trkpt lat="48.07179" lon="7.07293">
        <ele>927.5</ele>
        <time>2023-08-12T11:37:24Z</time>
      </trkpt>
      <trkpt lat="48.07181" lon="7.07296">
        <ele>927.7</ele>
        <time>2023-08-12T11:37:25Z</time>
      </trkpt>
      <trkpt lat="48.07184" lon="7.07299">
        <ele>927.9</ele>
        <time>2023-08-12T11:37:26Z</time>
      </trkpt>
      <trkpt lat="48.07185" lon="7.073">
        <ele>927.9</ele>
        <time>2023-08-12T11:37:27Z</time>
      </trkpt>
      <trkpt lat="48.07186" lon="7.073">
        <ele>927.9</ele>
        <time>2023-08-12T11:37:28Z</time>
      </trkpt>
      <trkpt lat="48.07185" lon="7.07301">
        <ele>928</ele>
        <time>2023-08-12T11:37:29Z</time>
      </trkpt>
      <trkpt lat="48.07187" lon="7.07303">
        <ele>928.1</ele>
        <time>2023-08-12T11:37:30Z</time>
      </trkpt>
      <trkpt lat="48.0719" lon="7.07306">
        <ele>928.3</ele>
        <time>2023-08-12T11:37:31Z</time>
      </trkpt>
      <trkpt lat="48.07193" lon="7.07309">
        <ele>928.4</ele>
        <time>2023-08-12T11:37:32Z</time>
      </trkpt>
      <trkpt lat="48.07195" lon="7.07311">
        <ele>928.5</ele>
        <time>2023-08-12T11:37:33Z</time>
      </trkpt>
      <trkpt lat="48.07197" lon="7.07312">
        <ele>928.5</ele>
        <time>2023-08-12T11:37:34Z</time>
      </trkpt>
      <trkpt lat="48.07198" lon="7.07313">
        <ele>928.6</ele>
        <time>2023-08-12T11:37:35Z</time>
      </trkpt>
      <trkpt lat="48.07198" lon="7.07313">
        <ele>928.6</ele>
        <time>2023-08-12T11:37:36Z</time>
      </trkpt>
      <trkpt lat="48.07199" lon="7.07314">
        <ele>928.6</ele>
        <time>2023-08-12T11:37:37Z</time>
      </trkpt>
      <trkpt lat="48.072" lon="7.07313">
        <ele>928.7</ele>
        <time>2023-08-12T11:37:38Z</time>
      </trkpt>
      <trkpt lat="48.072" lon="7.07313">
        <ele>928.7</ele>
        <time>2023-08-12T11:37:39Z</time>
      </trkpt>
      <trkpt lat="48.07202" lon="7.07315">
        <ele>928.7</ele>
        <time>2023-08-12T11:37:40Z</time>
      </trkpt>
      <trkpt lat="48.07208" lon="7.07323">
        <ele>929</ele>
        <time>2023-08-12T11:37:44Z</time>
      </trkpt>
      <trkpt lat="48.07214" lon="7.0733">
        <ele>929.2</ele>
        <time>2023-08-12T11:37:48Z</time>
      </trkpt>
      <trkpt lat="48.07216" lon="7.0733">
        <ele>929.3</ele>
        <time>2023-08-12T11:37:49Z</time>
      </trkpt>
      <trkpt lat="48.07219" lon="7.07333">
        <ele>929.4</ele>
        <time>2023-08-12T11:37:50Z</time>
      </trkpt>
      <trkpt lat="48.07222" lon="7.07336">
        <ele>929.5</ele>
        <time>2023-08-12T11:37:51Z</time>
      </trkpt>
      <trkpt lat="48.07227" lon="7.07342">
        <ele>929.7</ele>
        <time>2023-08-12T11:37:53Z</time>
      </trkpt>
      <trkpt lat="48.07229" lon="7.07344">
        <ele>929.7</ele>
        <time>2023-08-12T11:37:54Z</time>
      </trkpt>
      <trkpt lat="48.07231" lon="7.07346">
        <ele>929.8</ele>
        <time>2023-08-12T11:37:55Z</time>
      </trkpt>
      <trkpt lat="48.07232" lon="7.07348">
        <ele>929.8</ele>
        <time>2023-08-12T11:37:56Z</time>
      </trkpt>
      <trkpt lat="48.07233" lon="7.07351">
        <ele>929.9</ele>
        <time>2023-08-12T11:37:57Z</time>
      </trkpt>
      <trkpt lat="48.07234" lon="7.07354">
        <ele>930</ele>
        <time>2023-08-12T11:37:58Z</time>
      </trkpt>
      <trkpt lat="48.07237" lon="7.07362">
        <ele>930.2</ele>
        <time>2023-08-12T11:38:00Z</time>
      </trkpt>
      <trkpt lat="48.07239" lon="7.07365">
        <ele>930.4</ele>
        <time>2023-08-12T11:38:01Z</time>
      </trkpt>
      <trkpt lat="48.07243" lon="7.07369">
        <ele>930.6</ele>
        <time>2023-08-12T11:38:02Z</time>
      </trkpt>
      <trkpt lat="48.07246" lon="7.07371">
        <ele>930.8</ele>
        <time>2023-08-12T11:38:03Z</time>
      </trkpt>
      <trkpt lat="48.07249" lon="7.07373">
        <ele>930.9</ele>
        <time>2023-08-12T11:38:04Z</time>
      </trkpt>
      <trkpt lat="48.07251" lon="7.07376">
        <ele>931.1</ele>
        <time>2023-08-12T11:38:05Z</time>
      </trkpt>
      <trkpt lat="48.07254" lon="7.07379">
        <ele>931.3</ele>
        <time>2023-08-12T11:38:06Z</time>
      </trkpt>
      <trkpt lat="48.07257" lon="7.07382">
        <ele>931.5</ele>
        <time>2023-08-12T11:38:07Z</time>
      </trkpt>
      <trkpt lat="48.0726" lon="7.07385">
        <ele>931.7</ele>
        <time>2023-08-12T11:38:08Z</time>
      </trkpt>
      <trkpt lat="48.07262" lon="7.07388">
        <ele>931.8</ele>
        <time>2023-08-12T11:38:09Z</time>
      </trkpt>
      <trkpt lat="48.07263" lon="7.07391">
        <ele>932</ele>
        <time>2023-08-12T11:38:10Z</time>
      </trkpt>
      <trkpt lat="48.07265" lon="7.07393">
        <ele>932.1</ele>
        <time>2023-08-12T11:38:11Z</time>
      </trkpt>
      <trkpt lat="48.07266" lon="7.07395">
        <ele>932.2</ele>
        <time>2023-08-12T11:38:12Z</time>
      </trkpt>
      <trkpt lat="48.07267" lon="7.07398">
        <ele>932.3</ele>
        <time>2023-08-12T11:38:13Z</time>
      </trkpt>
      <trkpt lat="48.0727" lon="7.07401">
        <ele>932.5</ele>
        <time>2023-08-12T11:38:14Z</time>
      </trkpt>
      <trkpt lat="48.07273" lon="7.07406">
        <ele>932.7</ele>
        <time>2023-08-12T11:38:15Z</time>
      </trkpt>
      <trkpt lat="48.07276" lon="7.07409">
        <ele>933</ele>
        <time>2023-08-12T11:38:16Z</time>
      </trkpt>
      <trkpt lat="48.07279" lon="7.07407">
        <ele>933.1</ele>
        <time>2023-08-12T11:38:17Z</time>
      </trkpt>
      <trkpt lat="48.0728" lon="7.07409">
        <ele>933.3</ele>
        <time>2023-08-12T11:38:18Z</time>
      </trkpt>
      <trkpt lat="48.07282" lon="7.07411">
        <ele>933.4</ele>
        <time>2023-08-12T11:38:19Z</time>
      </trkpt>
      <trkpt lat="48.07284" lon="7.07412">
        <ele>933.5</ele>
        <time>2023-08-12T11:38:20Z</time>
      </trkpt>
      <trkpt lat="48.07285" lon="7.07412">
        <ele>933.6</ele>
        <time>2023-08-12T11:38:21Z</time>
      </trkpt>
      <trkpt lat="48.07286" lon="7.07413">
        <ele>933.7</ele>
        <time>2023-08-12T11:38:22Z</time>
      </trkpt>
      <trkpt lat="48.07287" lon="7.07415">
        <ele>933.8</ele>
        <time>2023-08-12T11:38:23Z</time>
      </trkpt>
      <trkpt lat="48.07288" lon="7.07417">
        <ele>933.9</ele>
        <time>2023-08-12T11:38:24Z</time>
      </trkpt>
      <trkpt lat="48.0729" lon="7.07418">
        <ele>934.1</ele>
        <time>2023-08-12T11:38:25Z</time>
      </trkpt>
      <trkpt lat="48.07291" lon="7.07419">
        <ele>934.2</ele>
        <time>2023-08-12T11:38:26Z</time>
      </trkpt>
      <trkpt lat="48.07292" lon="7.07421">
        <ele>934.3</ele>
        <time>2023-08-12T11:38:27Z</time>
      </trkpt>
      <trkpt lat="48.07294" lon="7.07423">
        <ele>934.5</ele>
        <time>2023-08-12T11:38:28Z</time>
      </trkpt>
      <trkpt lat="48.07297" lon="7.07426">
        <ele>934.9</ele>
        <time>2023-08-12T11:38:30Z</time>
      </trkpt>
      <trkpt lat="48.07298" lon="7.07428">
        <ele>935.1</ele>
        <time>2023-08-12T11:38:31Z</time>
      </trkpt>
      <trkpt lat="48.07299" lon="7.0743">
        <ele>935.3</ele>
        <time>2023-08-12T11:38:32Z</time>
      </trkpt>
      <trkpt lat="48.07301" lon="7.07432">
        <ele>935.5</ele>
        <time>2023-08-12T11:38:33Z</time>
      </trkpt>
      <trkpt lat="48.07304" lon="7.07435">
        <ele>935.9</ele>
        <time>2023-08-12T11:38:35Z</time>
      </trkpt>
      <trkpt lat="48.07305" lon="7.07437">
        <ele>936.1</ele>
        <time>2023-08-12T11:38:36Z</time>
      </trkpt>
      <trkpt lat="48.07306" lon="7.07438">
        <ele>936.2</ele>
        <time>2023-08-12T11:38:37Z</time>
      </trkpt>
      <trkpt lat="48.07307" lon="7.07439">
        <ele>936.5</ele>
        <time>2023-08-12T11:38:38Z</time>
      </trkpt>
      <trkpt lat="48.0731" lon="7.07441">
        <ele>936.9</ele>
        <time>2023-08-12T11:38:39Z</time>
      </trkpt>
      <trkpt lat="48.07311" lon="7.07443">
        <ele>937.2</ele>
        <time>2023-08-12T11:38:40Z</time>
      </trkpt>
      <trkpt lat="48.07313" lon="7.07444">
        <ele>937.5</ele>
        <time>2023-08-12T11:38:41Z</time>
      </trkpt>
      <trkpt lat="48.07314" lon="7.07446">
        <ele>937.8</ele>
        <time>2023-08-12T11:38:42Z</time>
      </trkpt>
      <trkpt lat="48.07316" lon="7.07448">
        <ele>938.1</ele>
        <time>2023-08-12T11:38:43Z</time>
      </trkpt>
      <trkpt lat="48.07316" lon="7.07449">
        <ele>938.2</ele>
        <time>2023-08-12T11:38:44Z</time>
      </trkpt>
      <trkpt lat="48.07317" lon="7.0745">
        <ele>938.4</ele>
        <time>2023-08-12T11:38:45Z</time>
      </trkpt>
      <trkpt lat="48.07318" lon="7.07451">
        <ele>938.7</ele>
        <time>2023-08-12T11:38:46Z</time>
      </trkpt>
      <trkpt lat="48.0732" lon="7.0745">
        <ele>938.9</ele>
        <time>2023-08-12T11:38:47Z</time>
      </trkpt>
      <trkpt lat="48.07321" lon="7.07451">
        <ele>939.2</ele>
        <time>2023-08-12T11:38:48Z</time>
      </trkpt>
      <trkpt lat="48.07321" lon="7.07451">
        <ele>939.2</ele>
        <time>2023-08-12T11:38:49Z</time>
      </trkpt>
      <trkpt lat="48.07322" lon="7.07452">
        <ele>939.3</ele>
        <time>2023-08-12T11:38:50Z</time>
      </trkpt>
      <trkpt lat="48.07323" lon="7.07453">
        <ele>939.5</ele>
        <time>2023-08-12T11:38:51Z</time>
      </trkpt>
      <trkpt lat="48.07323" lon="7.07453">
        <ele>939.6</ele>
        <time>2023-08-12T11:38:52Z</time>
      </trkpt>
      <trkpt lat="48.07324" lon="7.07455">
        <ele>939.9</ele>
        <time>2023-08-12T11:38:53Z</time>
      </trkpt>
      <trkpt lat="48.07325" lon="7.07456">
        <ele>940.2</ele>
        <time>2023-08-12T11:38:54Z</time>
      </trkpt>
      <trkpt lat="48.07327" lon="7.07457">
        <ele>940.5</ele>
        <time>2023-08-12T11:38:55Z</time>
      </trkpt>
      <trkpt lat="48.07329" lon="7.07459">
        <ele>941</ele>
        <time>2023-08-12T11:38:56Z</time>
      </trkpt>
      <trkpt lat="48.07332" lon="7.07461">
        <ele>941.5</ele>
        <time>2023-08-12T11:38:57Z</time>
      </trkpt>
      <trkpt lat="48.07334" lon="7.07462">
        <ele>927.1</ele>
        <time>2023-08-12T11:38:58Z</time>
      </trkpt>
      <trkpt lat="48.07336" lon="7.07464">
        <ele>921</ele>
        <time>2023-08-12T11:38:59Z</time>
      </trkpt>
      <trkpt lat="48.07338" lon="7.07465">
        <ele>914.8</ele>
        <time>2023-08-12T11:39:00Z</time>
      </trkpt>
      <trkpt lat="48.07341" lon="7.07467">
        <ele>910.7</ele>
        <time>2023-08-12T11:39:01Z</time>
      </trkpt>
      <trkpt lat="48.07343" lon="7.07468">
        <ele>910.8</ele>
        <time>2023-08-12T11:39:02Z</time>
      </trkpt>
      <trkpt lat="48.07346" lon="7.0747">
        <ele>911</ele>
        <time>2023-08-12T11:39:03Z</time>
      </trkpt>
      <trkpt lat="48.07349" lon="7.07473">
        <ele>911.2</ele>
        <time>2023-08-12T11:39:04Z</time>
      </trkpt>
      <trkpt lat="48.07351" lon="7.07476">
        <ele>911.3</ele>
        <time>2023-08-12T11:39:05Z</time>
      </trkpt>
      <trkpt lat="48.07353" lon="7.07479">
        <ele>911.4</ele>
        <time>2023-08-12T11:39:06Z</time>
      </trkpt>
      <trkpt lat="48.07355" lon="7.07482">
        <ele>911.5</ele>
        <time>2023-08-12T11:39:07Z</time>
      </trkpt>
      <trkpt lat="48.07357" lon="7.07485">
        <ele>911.7</ele>
        <time>2023-08-12T11:39:08Z</time>
      </trkpt>
      <trkpt lat="48.07358" lon="7.07488">
        <ele>911.8</ele>
        <time>2023-08-12T11:39:09Z</time>
      </trkpt>
      <trkpt lat="48.0736" lon="7.07491">
        <ele>911.9</ele>
        <time>2023-08-12T11:39:10Z</time>
      </trkpt>
      <trkpt lat="48.07363" lon="7.07496">
        <ele>912.1</ele>
        <time>2023-08-12T11:39:12Z</time>
      </trkpt>
      <trkpt lat="48.07364" lon="7.07499">
        <ele>912.3</ele>
        <time>2023-08-12T11:39:13Z</time>
      </trkpt>
      <trkpt lat="48.07366" lon="7.07502">
        <ele>912.4</ele>
        <time>2023-08-12T11:39:14Z</time>
      </trkpt>
      <trkpt lat="48.07368" lon="7.07504">
        <ele>912.5</ele>
        <time>2023-08-12T11:39:15Z</time>
      </trkpt>
      <trkpt lat="48.07369" lon="7.07506">
        <ele>912.6</ele>
        <time>2023-08-12T11:39:16Z</time>
      </trkpt>
      <trkpt lat="48.0737" lon="7.07508">
        <ele>912.7</ele>
        <time>2023-08-12T11:39:17Z</time>
      </trkpt>
      <trkpt lat="48.07371" lon="7.0751">
        <ele>912.8</ele>
        <time>2023-08-12T11:39:18Z</time>
      </trkpt>
      <trkpt lat="48.07372" lon="7.07512">
        <ele>912.9</ele>
        <time>2023-08-12T11:39:19Z</time>
      </trkpt>
      <trkpt lat="48.07373" lon="7.07514">
        <ele>913</ele>
        <time>2023-08-12T11:39:20Z</time>
      </trkpt>
      <trkpt lat="48.07374" lon="7.07515">
        <ele>913.1</ele>
        <time>2023-08-12T11:39:21Z</time>
      </trkpt>
      <trkpt lat="48.07375" lon="7.07516">
        <ele>913.2</ele>
        <time>2023-08-12T11:39:22Z</time>
      </trkpt>
      <trkpt lat="48.07376" lon="7.07519">
        <ele>913.3</ele>
        <time>2023-08-12T11:39:23Z</time>
      </trkpt>
      <trkpt lat="48.07378" lon="7.07522">
        <ele>913.5</ele>
        <time>2023-08-12T11:39:24Z</time>
      </trkpt>
      <trkpt lat="48.07379" lon="7.07524">
        <ele>913.6</ele>
        <time>2023-08-12T11:39:25Z</time>
      </trkpt>
      <trkpt lat="48.07381" lon="7.07526">
        <ele>913.8</ele>
        <time>2023-08-12T11:39:26Z</time>
      </trkpt>
      <trkpt lat="48.07382" lon="7.07528">
        <ele>913.9</ele>
        <time>2023-08-12T11:39:27Z</time>
      </trkpt>
      <trkpt lat="48.07383" lon="7.0753">
        <ele>914</ele>
        <time>2023-08-12T11:39:28Z</time>
      </trkpt>
      <trkpt lat="48.07386" lon="7.07534">
        <ele>914.3</ele>
        <time>2023-08-12T11:39:30Z</time>
      </trkpt>
      <trkpt lat="48.07387" lon="7.07536">
        <ele>914.4</ele>
        <time>2023-08-12T11:39:31Z</time>
      </trkpt>
      <trkpt lat="48.07391" lon="7.07541">
        <ele>914.8</ele>
        <time>2023-08-12T11:39:34Z</time>
      </trkpt>
      <trkpt lat="48.07392" lon="7.07543">
        <ele>914.9</ele>
        <time>2023-08-12T11:39:35Z</time>
      </trkpt>
      <trkpt lat="48.07394" lon="7.07544">
        <ele>915</ele>
        <time>2023-08-12T11:39:36Z</time>
      </trkpt>
      <trkpt lat="48.07396" lon="7.07546">
        <ele>915.2</ele>
        <time>2023-08-12T11:39:37Z</time>
      </trkpt>
      <trkpt lat="48.07402" lon="7.07554">
        <ele>915.9</ele>
        <time>2023-08-12T11:39:41Z</time>
      </trkpt>
      <trkpt lat="48.07404" lon="7.07556">
        <ele>916</ele>
        <time>2023-08-12T11:39:42Z</time>
      </trkpt>
      <trkpt lat="48.07405" lon="7.07558">
        <ele>916.2</ele>
        <time>2023-08-12T11:39:43Z</time>
      </trkpt>
      <trkpt lat="48.07407" lon="7.07559">
        <ele>916.3</ele>
        <time>2023-08-12T11:39:44Z</time>
      </trkpt>
      <trkpt lat="48.07408" lon="7.07561">
        <ele>916.4</ele>
        <time>2023-08-12T11:39:45Z</time>
      </trkpt>
      <trkpt lat="48.07414" lon="7.0757">
        <ele>917.2</ele>
        <time>2023-08-12T11:39:49Z</time>
      </trkpt>
      <trkpt lat="48.07416" lon="7.07572">
        <ele>917.3</ele>
        <time>2023-08-12T11:39:50Z</time>
      </trkpt>
      <trkpt lat="48.07418" lon="7.07575">
        <ele>917.7</ele>
        <time>2023-08-12T11:39:52Z</time>
      </trkpt>
      <trkpt lat="48.0742" lon="7.07577">
        <ele>917.8</ele>
        <time>2023-08-12T11:39:53Z</time>
      </trkpt>
      <trkpt lat="48.07421" lon="7.07579">
        <ele>918</ele>
        <time>2023-08-12T11:39:54Z</time>
      </trkpt>
      <trkpt lat="48.07421" lon="7.07581">
        <ele>918.1</ele>
        <time>2023-08-12T11:39:55Z</time>
      </trkpt>
      <trkpt lat="48.07424" lon="7.07584">
        <ele>918.4</ele>
        <time>2023-08-12T11:39:57Z</time>
      </trkpt>
      <trkpt lat="48.07426" lon="7.07587">
        <ele>918.7</ele>
        <time>2023-08-12T11:39:58Z</time>
      </trkpt>
      <trkpt lat="48.07427" lon="7.07589">
        <ele>918.9</ele>
        <time>2023-08-12T11:39:59Z</time>
      </trkpt>
      <trkpt lat="48.0743" lon="7.07592">
        <ele>919.1</ele>
        <time>2023-08-12T11:40:00Z</time>
      </trkpt>
      <trkpt lat="48.07432" lon="7.07595">
        <ele>919.4</ele>
        <time>2023-08-12T11:40:01Z</time>
      </trkpt>
      <trkpt lat="48.07434" lon="7.07598">
        <ele>919.6</ele>
        <time>2023-08-12T11:40:02Z</time>
      </trkpt>
      <trkpt lat="48.07437" lon="7.07602">
        <ele>920.1</ele>
        <time>2023-08-12T11:40:04Z</time>
      </trkpt>
      <trkpt lat="48.07439" lon="7.07604">
        <ele>920.3</ele>
        <time>2023-08-12T11:40:05Z</time>
      </trkpt>
      <trkpt lat="48.0744" lon="7.07607">
        <ele>920.5</ele>
        <time>2023-08-12T11:40:06Z</time>
      </trkpt>
      <trkpt lat="48.07442" lon="7.0761">
        <ele>920.7</ele>
        <time>2023-08-12T11:40:07Z</time>
      </trkpt>
      <trkpt lat="48.07443" lon="7.07612">
        <ele>920.9</ele>
        <time>2023-08-12T11:40:08Z</time>
      </trkpt>
      <trkpt lat="48.07445" lon="7.07615">
        <ele>921.2</ele>
        <time>2023-08-12T11:40:09Z</time>
      </trkpt>
      <trkpt lat="48.07447" lon="7.07617">
        <ele>921.5</ele>
        <time>2023-08-12T11:40:10Z</time>
      </trkpt>
      <trkpt lat="48.07449" lon="7.0762">
        <ele>921.8</ele>
        <time>2023-08-12T11:40:11Z</time>
      </trkpt>
      <trkpt lat="48.07451" lon="7.07622">
        <ele>922</ele>
        <time>2023-08-12T11:40:12Z</time>
      </trkpt>
      <trkpt lat="48.07452" lon="7.07623">
        <ele>922.2</ele>
        <time>2023-08-12T11:40:13Z</time>
      </trkpt>
      <trkpt lat="48.07453" lon="7.07625">
        <ele>922.3</ele>
        <time>2023-08-12T11:40:14Z</time>
      </trkpt>
      <trkpt lat="48.07454" lon="7.07627">
        <ele>922.5</ele>
        <time>2023-08-12T11:40:15Z</time>
      </trkpt>
      <trkpt lat="48.07455" lon="7.07627">
        <ele>922.7</ele>
        <time>2023-08-12T11:40:16Z</time>
      </trkpt>
      <trkpt lat="48.07456" lon="7.07628">
        <ele>922.8</ele>
        <time>2023-08-12T11:40:17Z</time>
      </trkpt>
      <trkpt lat="48.07457" lon="7.0763">
        <ele>922.9</ele>
        <time>2023-08-12T11:40:18Z</time>
      </trkpt>
      <trkpt lat="48.07458" lon="7.07632">
        <ele>923.1</ele>
        <time>2023-08-12T11:40:19Z</time>
      </trkpt>
      <trkpt lat="48.07459" lon="7.07634">
        <ele>923.3</ele>
        <time>2023-08-12T11:40:20Z</time>
      </trkpt>
      <trkpt lat="48.0746" lon="7.07636">
        <ele>923.5</ele>
        <time>2023-08-12T11:40:21Z</time>
      </trkpt>
      <trkpt lat="48.07462" lon="7.07638">
        <ele>923.7</ele>
        <time>2023-08-12T11:40:22Z</time>
      </trkpt>
      <trkpt lat="48.07463" lon="7.0764">
        <ele>923.8</ele>
        <time>2023-08-12T11:40:23Z</time>
      </trkpt>
      <trkpt lat="48.07464" lon="7.07641">
        <ele>924</ele>
        <time>2023-08-12T11:40:24Z</time>
      </trkpt>
      <trkpt lat="48.07466" lon="7.07643">
        <ele>924.2</ele>
        <time>2023-08-12T11:40:25Z</time>
      </trkpt>
      <trkpt lat="48.07466" lon="7.07644">
        <ele>924.3</ele>
        <time>2023-08-12T11:40:26Z</time>
      </trkpt>
      <trkpt lat="48.07467" lon="7.07646">
        <ele>924.5</ele>
        <time>2023-08-12T11:40:27Z</time>
      </trkpt>
      <trkpt lat="48.07469" lon="7.07647">
        <ele>924.7</ele>
        <time>2023-08-12T11:40:28Z</time>
      </trkpt>
      <trkpt lat="48.07471" lon="7.07649">
        <ele>924.9</ele>
        <time>2023-08-12T11:40:29Z</time>
      </trkpt>
      <trkpt lat="48.07473" lon="7.07651">
        <ele>925.1</ele>
        <time>2023-08-12T11:40:30Z</time>
      </trkpt>
      <trkpt lat="48.07474" lon="7.07653">
        <ele>925.3</ele>
        <time>2023-08-12T11:40:31Z</time>
      </trkpt>
      <trkpt lat="48.07476" lon="7.07655">
        <ele>925.5</ele>
        <time>2023-08-12T11:40:32Z</time>
      </trkpt>
      <trkpt lat="48.07477" lon="7.07657">
        <ele>925.7</ele>
        <time>2023-08-12T11:40:33Z</time>
      </trkpt>
      <trkpt lat="48.07478" lon="7.07659">
        <ele>925.9</ele>
        <time>2023-08-12T11:40:34Z</time>
      </trkpt>
      <trkpt lat="48.07487" lon="7.07669">
        <ele>927</ele>
        <time>2023-08-12T11:40:41Z</time>
      </trkpt>
      <trkpt lat="48.07488" lon="7.07671">
        <ele>927.1</ele>
        <time>2023-08-12T11:40:42Z</time>
      </trkpt>
      <trkpt lat="48.07489" lon="7.07673">
        <ele>927.3</ele>
        <time>2023-08-12T11:40:43Z</time>
      </trkpt>
      <trkpt lat="48.0749" lon="7.07675">
        <ele>927.5</ele>
        <time>2023-08-12T11:40:44Z</time>
      </trkpt>
      <trkpt lat="48.0749" lon="7.07676">
        <ele>927.6</ele>
        <time>2023-08-12T11:40:45Z</time>
      </trkpt>
      <trkpt lat="48.07491" lon="7.07678">
        <ele>927.7</ele>
        <time>2023-08-12T11:40:46Z</time>
      </trkpt>
      <trkpt lat="48.07491" lon="7.07679">
        <ele>927.8</ele>
        <time>2023-08-12T11:40:47Z</time>
      </trkpt>
      <trkpt lat="48.07493" lon="7.0768">
        <ele>927.9</ele>
        <time>2023-08-12T11:40:48Z</time>
      </trkpt>
      <trkpt lat="48.07494" lon="7.07682">
        <ele>928.1</ele>
        <time>2023-08-12T11:40:49Z</time>
      </trkpt>
      <trkpt lat="48.07495" lon="7.07683">
        <ele>928.3</ele>
        <time>2023-08-12T11:40:50Z</time>
      </trkpt>
      <trkpt lat="48.07497" lon="7.07685">
        <ele>928.5</ele>
        <time>2023-08-12T11:40:51Z</time>
      </trkpt>
      <trkpt lat="48.07499" lon="7.07688">
        <ele>928.8</ele>
        <time>2023-08-12T11:40:52Z</time>
      </trkpt>
      <trkpt lat="48.07501" lon="7.0769">
        <ele>929</ele>
        <time>2023-08-12T11:40:53Z</time>
      </trkpt>
      <trkpt lat="48.07502" lon="7.07692">
        <ele>929.1</ele>
        <time>2023-08-12T11:40:54Z</time>
      </trkpt>
      <trkpt lat="48.07504" lon="7.07694">
        <ele>929.4</ele>
        <time>2023-08-12T11:40:55Z</time>
      </trkpt>
      <trkpt lat="48.07505" lon="7.07696">
        <ele>929.5</ele>
        <time>2023-08-12T11:40:56Z</time>
      </trkpt>
      <trkpt lat="48.07506" lon="7.07698">
        <ele>929.7</ele>
        <time>2023-08-12T11:40:57Z</time>
      </trkpt>
      <trkpt lat="48.07508" lon="7.07701">
        <ele>930</ele>
        <time>2023-08-12T11:40:58Z</time>
      </trkpt>
      <trkpt lat="48.0751" lon="7.07703">
        <ele>930.1</ele>
        <time>2023-08-12T11:40:59Z</time>
      </trkpt>
      <trkpt lat="48.07511" lon="7.07705">
        <ele>930.3</ele>
        <time>2023-08-12T11:41:00Z</time>
      </trkpt>
      <trkpt lat="48.07512" lon="7.07706">
        <ele>930.4</ele>
        <time>2023-08-12T11:41:01Z</time>
      </trkpt>
      <trkpt lat="48.07513" lon="7.07707">
        <ele>930.5</ele>
        <time>2023-08-12T11:41:02Z</time>
      </trkpt>
      <trkpt lat="48.07515" lon="7.0771">
        <ele>930.7</ele>
        <time>2023-08-12T11:41:03Z</time>
      </trkpt>
      <trkpt lat="48.07518" lon="7.07713">
        <ele>931</ele>
        <time>2023-08-12T11:41:04Z</time>
      </trkpt>
      <trkpt lat="48.0752" lon="7.07717">
        <ele>931.3</ele>
        <time>2023-08-12T11:41:05Z</time>
      </trkpt>
      <trkpt lat="48.07523" lon="7.0772">
        <ele>931.6</ele>
        <time>2023-08-12T11:41:06Z</time>
      </trkpt>
      <trkpt lat="48.07525" lon="7.07724">
        <ele>931.9</ele>
        <time>2023-08-12T11:41:07Z</time>
      </trkpt>
      <trkpt lat="48.07527" lon="7.07726">
        <ele>932.1</ele>
        <time>2023-08-12T11:41:08Z</time>
      </trkpt>
      <trkpt lat="48.07529" lon="7.0773">
        <ele>932.3</ele>
        <time>2023-08-12T11:41:09Z</time>
      </trkpt>
      <trkpt lat="48.07531" lon="7.07733">
        <ele>932.6</ele>
        <time>2023-08-12T11:41:10Z</time>
      </trkpt>
      <trkpt lat="48.07533" lon="7.07737">
        <ele>932.8</ele>
        <time>2023-08-12T11:41:11Z</time>
      </trkpt>
      <trkpt lat="48.07534" lon="7.07741">
        <ele>933.1</ele>
        <time>2023-08-12T11:41:12Z</time>
      </trkpt>
      <trkpt lat="48.07536" lon="7.07743">
        <ele>933.3</ele>
        <time>2023-08-12T11:41:13Z</time>
      </trkpt>
      <trkpt lat="48.07537" lon="7.07746">
        <ele>933.5</ele>
        <time>2023-08-12T11:41:14Z</time>
      </trkpt>
      <trkpt lat="48.0754" lon="7.07748">
        <ele>933.7</ele>
        <time>2023-08-12T11:41:15Z</time>
      </trkpt>
      <trkpt lat="48.07542" lon="7.07752">
        <ele>933.9</ele>
        <time>2023-08-12T11:41:16Z</time>
      </trkpt>
      <trkpt lat="48.07544" lon="7.07754">
        <ele>934.1</ele>
        <time>2023-08-12T11:41:17Z</time>
      </trkpt>
      <trkpt lat="48.07546" lon="7.07757">
        <ele>934.4</ele>
        <time>2023-08-12T11:41:18Z</time>
      </trkpt>
      <trkpt lat="48.07548" lon="7.07759">
        <ele>934.6</ele>
        <time>2023-08-12T11:41:19Z</time>
      </trkpt>
      <trkpt lat="48.0755" lon="7.07762">
        <ele>934.7</ele>
        <time>2023-08-12T11:41:20Z</time>
      </trkpt>
      <trkpt lat="48.07551" lon="7.07764">
        <ele>934.9</ele>
        <time>2023-08-12T11:41:21Z</time>
      </trkpt>
      <trkpt lat="48.07553" lon="7.07766">
        <ele>935.1</ele>
        <time>2023-08-12T11:41:22Z</time>
      </trkpt>
      <trkpt lat="48.07555" lon="7.07769">
        <ele>935.3</ele>
        <time>2023-08-12T11:41:23Z</time>
      </trkpt>
      <trkpt lat="48.07557" lon="7.07771">
        <ele>935.3</ele>
        <time>2023-08-12T11:41:24Z</time>
      </trkpt>
      <trkpt lat="48.07559" lon="7.07774">
        <ele>935.1</ele>
        <time>2023-08-12T11:41:25Z</time>
      </trkpt>
      <trkpt lat="48.07562" lon="7.07778">
        <ele>934.9</ele>
        <time>2023-08-12T11:41:26Z</time>
      </trkpt>
      <trkpt lat="48.07566" lon="7.07787">
        <ele>934.4</ele>
        <time>2023-08-12T11:41:28Z</time>
      </trkpt>
      <trkpt lat="48.07571" lon="7.07807">
        <ele>933.6</ele>
        <time>2023-08-12T11:41:31Z</time>
      </trkpt>
      <trkpt lat="48.07574" lon="7.07811">
        <ele>933.8</ele>
        <time>2023-08-12T11:41:32Z</time>
      </trkpt>
      <trkpt lat="48.07581" lon="7.07811">
        <ele>934</ele>
        <time>2023-08-12T11:41:34Z</time>
      </trkpt>
      <trkpt lat="48.07584" lon="7.07809">
        <ele>934.2</ele>
        <time>2023-08-12T11:41:35Z</time>
      </trkpt>
      <trkpt lat="48.07587" lon="7.07808">
        <ele>934.3</ele>
        <time>2023-08-12T11:41:36Z</time>
      </trkpt>
      <trkpt lat="48.07596" lon="7.07803">
        <ele>934.7</ele>
        <time>2023-08-12T11:41:39Z</time>
      </trkpt>
      <trkpt lat="48.07599" lon="7.07801">
        <ele>934.8</ele>
        <time>2023-08-12T11:41:40Z</time>
      </trkpt>
      <trkpt lat="48.07601" lon="7.078">
        <ele>934.9</ele>
        <time>2023-08-12T11:41:41Z</time>
      </trkpt>
      <trkpt lat="48.07605" lon="7.07799">
        <ele>935.1</ele>
        <time>2023-08-12T11:41:43Z</time>
      </trkpt>
      <trkpt lat="48.07608" lon="7.07799">
        <ele>935.2</ele>
        <time>2023-08-12T11:41:44Z</time>
      </trkpt>
      <trkpt lat="48.0761" lon="7.07798">
        <ele>935.4</ele>
        <time>2023-08-12T11:41:45Z</time>
      </trkpt>
      <trkpt lat="48.07612" lon="7.07796">
        <ele>935.5</ele>
        <time>2023-08-12T11:41:46Z</time>
      </trkpt>
      <trkpt lat="48.07614" lon="7.07794">
        <ele>935.7</ele>
        <time>2023-08-12T11:41:47Z</time>
      </trkpt>
      <trkpt lat="48.07616" lon="7.07792">
        <ele>935.8</ele>
        <time>2023-08-12T11:41:48Z</time>
      </trkpt>
      <trkpt lat="48.07618" lon="7.07789">
        <ele>936</ele>
        <time>2023-08-12T11:41:49Z</time>
      </trkpt>
      <trkpt lat="48.07619" lon="7.07787">
        <ele>936.1</ele>
        <time>2023-08-12T11:41:50Z</time>
      </trkpt>
      <trkpt lat="48.0762" lon="7.07786">
        <ele>936.2</ele>
        <time>2023-08-12T11:41:51Z</time>
      </trkpt>
      <trkpt lat="48.07621" lon="7.07786">
        <ele>936.3</ele>
        <time>2023-08-12T11:41:52Z</time>
      </trkpt>
      <trkpt lat="48.07623" lon="7.07785">
        <ele>936.4</ele>
        <time>2023-08-12T11:41:53Z</time>
      </trkpt>
      <trkpt lat="48.07624" lon="7.07784">
        <ele>936.5</ele>
        <time>2023-08-12T11:41:54Z</time>
      </trkpt>
      <trkpt lat="48.07626" lon="7.07782">
        <ele>936.6</ele>
        <time>2023-08-12T11:41:55Z</time>
      </trkpt>
      <trkpt lat="48.07628" lon="7.07779">
        <ele>936.8</ele>
        <time>2023-08-12T11:41:56Z</time>
      </trkpt>
      <trkpt lat="48.07629" lon="7.07776">
        <ele>936.9</ele>
        <time>2023-08-12T11:41:57Z</time>
      </trkpt>
      <trkpt lat="48.07631" lon="7.07775">
        <ele>937</ele>
        <time>2023-08-12T11:41:58Z</time>
      </trkpt>
      <trkpt lat="48.07633" lon="7.07772">
        <ele>937.1</ele>
        <time>2023-08-12T11:41:59Z</time>
      </trkpt>
      <trkpt lat="48.07636" lon="7.07768">
        <ele>937.2</ele>
        <time>2023-08-12T11:42:00Z</time>
      </trkpt>
      <trkpt lat="48.07644" lon="7.07756">
        <ele>937.2</ele>
        <time>2023-08-12T11:42:03Z</time>
      </trkpt>
      <trkpt lat="48.07659" lon="7.07735">
        <ele>936.9</ele>
        <time>2023-08-12T11:42:08Z</time>
      </trkpt>
      <trkpt lat="48.07662" lon="7.07733">
        <ele>936.9</ele>
        <time>2023-08-12T11:42:09Z</time>
      </trkpt>
      <trkpt lat="48.07671" lon="7.0773">
        <ele>936.8</ele>
        <time>2023-08-12T11:42:12Z</time>
      </trkpt>
      <trkpt lat="48.07674" lon="7.07725">
        <ele>936.8</ele>
        <time>2023-08-12T11:42:13Z</time>
      </trkpt>
      <trkpt lat="48.07678" lon="7.07718">
        <ele>936.9</ele>
        <time>2023-08-12T11:42:14Z</time>
      </trkpt>
      <trkpt lat="48.07683" lon="7.07712">
        <ele>937</ele>
        <time>2023-08-12T11:42:15Z</time>
      </trkpt>
      <trkpt lat="48.07688" lon="7.07706">
        <ele>937.2</ele>
        <time>2023-08-12T11:42:16Z</time>
      </trkpt>
      <trkpt lat="48.07691" lon="7.07704">
        <ele>937.3</ele>
        <time>2023-08-12T11:42:17Z</time>
      </trkpt>
      <trkpt lat="48.07694" lon="7.07703">
        <ele>937.4</ele>
        <time>2023-08-12T11:42:18Z</time>
      </trkpt>
      <trkpt lat="48.07696" lon="7.07701">
        <ele>937.5</ele>
        <time>2023-08-12T11:42:19Z</time>
      </trkpt>
      <trkpt lat="48.077" lon="7.07696">
        <ele>937.7</ele>
        <time>2023-08-12T11:42:20Z</time>
      </trkpt>
      <trkpt lat="48.07702" lon="7.07693">
        <ele>937.8</ele>
        <time>2023-08-12T11:42:21Z</time>
      </trkpt>
      <trkpt lat="48.07704" lon="7.07693">
        <ele>937.9</ele>
        <time>2023-08-12T11:42:22Z</time>
      </trkpt>
      <trkpt lat="48.07706" lon="7.07692">
        <ele>938</ele>
        <time>2023-08-12T11:42:23Z</time>
      </trkpt>
      <trkpt lat="48.07708" lon="7.07693">
        <ele>938.1</ele>
        <time>2023-08-12T11:42:24Z</time>
      </trkpt>
      <trkpt lat="48.0771" lon="7.07694">
        <ele>938.1</ele>
        <time>2023-08-12T11:42:25Z</time>
      </trkpt>
      <trkpt lat="48.07712" lon="7.07692">
        <ele>938.3</ele>
        <time>2023-08-12T11:42:26Z</time>
      </trkpt>
      <trkpt lat="48.07715" lon="7.07688">
        <ele>938.5</ele>
        <time>2023-08-12T11:42:27Z</time>
      </trkpt>
      <trkpt lat="48.07717" lon="7.07686">
        <ele>938.6</ele>
        <time>2023-08-12T11:42:28Z</time>
      </trkpt>
      <trkpt lat="48.07719" lon="7.07685">
        <ele>938.7</ele>
        <time>2023-08-12T11:42:29Z</time>
      </trkpt>
      <trkpt lat="48.07722" lon="7.07682">
        <ele>938.9</ele>
        <time>2023-08-12T11:42:30Z</time>
      </trkpt>
      <trkpt lat="48.07724" lon="7.07682">
        <ele>939</ele>
        <time>2023-08-12T11:42:31Z</time>
      </trkpt>
      <trkpt lat="48.07727" lon="7.07682">
        <ele>939.2</ele>
        <time>2023-08-12T11:42:32Z</time>
      </trkpt>
      <trkpt lat="48.07729" lon="7.0768">
        <ele>939.3</ele>
        <time>2023-08-12T11:42:33Z</time>
      </trkpt>
      <trkpt lat="48.0773" lon="7.0768">
        <ele>939.4</ele>
        <time>2023-08-12T11:42:34Z</time>
      </trkpt>
      <trkpt lat="48.07732" lon="7.07679">
        <ele>939.5</ele>
        <time>2023-08-12T11:42:35Z</time>
      </trkpt>
      <trkpt lat="48.07735" lon="7.07675">
        <ele>939.6</ele>
        <time>2023-08-12T11:42:36Z</time>
      </trkpt>
      <trkpt lat="48.07738" lon="7.07672">
        <ele>939.7</ele>
        <time>2023-08-12T11:42:37Z</time>
      </trkpt>
      <trkpt lat="48.07739" lon="7.0767">
        <ele>939.8</ele>
        <time>2023-08-12T11:42:38Z</time>
      </trkpt>
      <trkpt lat="48.07741" lon="7.07667">
        <ele>939.9</ele>
        <time>2023-08-12T11:42:39Z</time>
      </trkpt>
      <trkpt lat="48.07743" lon="7.07664">
        <ele>939.9</ele>
        <time>2023-08-12T11:42:40Z</time>
      </trkpt>
      <trkpt lat="48.07745" lon="7.07661">
        <ele>940</ele>
        <time>2023-08-12T11:42:41Z</time>
      </trkpt>
      <trkpt lat="48.07747" lon="7.07657">
        <ele>940</ele>
        <time>2023-08-12T11:42:42Z</time>
      </trkpt>
      <trkpt lat="48.07749" lon="7.07654">
        <ele>940.1</ele>
        <time>2023-08-12T11:42:43Z</time>
      </trkpt>
      <trkpt lat="48.07751" lon="7.07651">
        <ele>940.1</ele>
        <time>2023-08-12T11:42:44Z</time>
      </trkpt>
      <trkpt lat="48.07753" lon="7.07647">
        <ele>940.2</ele>
        <time>2023-08-12T11:42:45Z</time>
      </trkpt>
      <trkpt lat="48.07755" lon="7.07644">
        <ele>940.2</ele>
        <time>2023-08-12T11:42:46Z</time>
      </trkpt>
      <trkpt lat="48.07757" lon="7.0764">
        <ele>940.2</ele>
        <time>2023-08-12T11:42:47Z</time>
      </trkpt>
      <trkpt lat="48.07759" lon="7.07637">
        <ele>940.3</ele>
        <time>2023-08-12T11:42:48Z</time>
      </trkpt>
      <trkpt lat="48.07761" lon="7.07634">
        <ele>940.3</ele>
        <time>2023-08-12T11:42:49Z</time>
      </trkpt>
      <trkpt lat="48.07763" lon="7.07631">
        <ele>940.3</ele>
        <time>2023-08-12T11:42:50Z</time>
      </trkpt>
      <trkpt lat="48.07765" lon="7.07628">
        <ele>940.4</ele>
        <time>2023-08-12T11:42:51Z</time>
      </trkpt>
      <trkpt lat="48.07766" lon="7.07624">
        <ele>940.4</ele>
        <time>2023-08-12T11:42:52Z</time>
      </trkpt>
      <trkpt lat="48.07768" lon="7.0762">
        <ele>940.4</ele>
        <time>2023-08-12T11:42:53Z</time>
      </trkpt>
      <trkpt lat="48.0777" lon="7.07617">
        <ele>940.5</ele>
        <time>2023-08-12T11:42:54Z</time>
      </trkpt>
      <trkpt lat="48.07772" lon="7.07612">
        <ele>940.5</ele>
        <time>2023-08-12T11:42:55Z</time>
      </trkpt>
      <trkpt lat="48.07775" lon="7.07608">
        <ele>940.5</ele>
        <time>2023-08-12T11:42:56Z</time>
      </trkpt>
      <trkpt lat="48.07777" lon="7.07606">
        <ele>940.5</ele>
        <time>2023-08-12T11:42:57Z</time>
      </trkpt>
      <trkpt lat="48.07779" lon="7.07601">
        <ele>940.6</ele>
        <time>2023-08-12T11:42:58Z</time>
      </trkpt>
      <trkpt lat="48.07782" lon="7.07598">
        <ele>940.6</ele>
        <time>2023-08-12T11:42:59Z</time>
      </trkpt>
      <trkpt lat="48.07784" lon="7.07593">
        <ele>940.6</ele>
        <time>2023-08-12T11:43:00Z</time>
      </trkpt>
      <trkpt lat="48.07785" lon="7.0759">
        <ele>940.7</ele>
        <time>2023-08-12T11:43:01Z</time>
      </trkpt>
      <trkpt lat="48.07787" lon="7.07588">
        <ele>940.7</ele>
        <time>2023-08-12T11:43:02Z</time>
      </trkpt>
      <trkpt lat="48.07788" lon="7.07587">
        <ele>940.7</ele>
        <time>2023-08-12T11:43:03Z</time>
      </trkpt>
      <trkpt lat="48.0779" lon="7.07584">
        <ele>940.7</ele>
        <time>2023-08-12T11:43:04Z</time>
      </trkpt>
      <trkpt lat="48.07792" lon="7.07579">
        <ele>940.8</ele>
        <time>2023-08-12T11:43:05Z</time>
      </trkpt>
      <trkpt lat="48.07794" lon="7.07575">
        <ele>940.8</ele>
        <time>2023-08-12T11:43:06Z</time>
      </trkpt>
      <trkpt lat="48.07796" lon="7.07572">
        <ele>940.9</ele>
        <time>2023-08-12T11:43:07Z</time>
      </trkpt>
      <trkpt lat="48.07798" lon="7.07569">
        <ele>940.9</ele>
        <time>2023-08-12T11:43:08Z</time>
      </trkpt>
      <trkpt lat="48.07801" lon="7.07566">
        <ele>941</ele>
        <time>2023-08-12T11:43:09Z</time>
      </trkpt>
      <trkpt lat="48.07805" lon="7.07561">
        <ele>941.1</ele>
        <time>2023-08-12T11:43:11Z</time>
      </trkpt>
      <trkpt lat="48.07808" lon="7.07555">
        <ele>941.2</ele>
        <time>2023-08-12T11:43:12Z</time>
      </trkpt>
      <trkpt lat="48.07813" lon="7.07552">
        <ele>941.4</ele>
        <time>2023-08-12T11:43:14Z</time>
      </trkpt>
      <trkpt lat="48.0782" lon="7.07543">
        <ele>941.6</ele>
        <time>2023-08-12T11:43:17Z</time>
      </trkpt>
      <trkpt lat="48.07822" lon="7.07541">
        <ele>941.7</ele>
        <time>2023-08-12T11:43:18Z</time>
      </trkpt>
      <trkpt lat="48.07825" lon="7.07534">
        <ele>941.9</ele>
        <time>2023-08-12T11:43:20Z</time>
      </trkpt>
      <trkpt lat="48.07826" lon="7.07531">
        <ele>942</ele>
        <time>2023-08-12T11:43:21Z</time>
      </trkpt>
      <trkpt lat="48.07829" lon="7.07528">
        <ele>942.1</ele>
        <time>2023-08-12T11:43:22Z</time>
      </trkpt>
      <trkpt lat="48.07831" lon="7.07525">
        <ele>942.2</ele>
        <time>2023-08-12T11:43:23Z</time>
      </trkpt>
      <trkpt lat="48.07832" lon="7.07523">
        <ele>942.3</ele>
        <time>2023-08-12T11:43:24Z</time>
      </trkpt>
      <trkpt lat="48.07835" lon="7.07517">
        <ele>942.5</ele>
        <time>2023-08-12T11:43:25Z</time>
      </trkpt>
      <trkpt lat="48.07838" lon="7.07508">
        <ele>942.9</ele>
        <time>2023-08-12T11:43:27Z</time>
      </trkpt>
      <trkpt lat="48.0784" lon="7.07504">
        <ele>943.1</ele>
        <time>2023-08-12T11:43:28Z</time>
      </trkpt>
      <trkpt lat="48.07842" lon="7.07502">
        <ele>943.3</ele>
        <time>2023-08-12T11:43:29Z</time>
      </trkpt>
      <trkpt lat="48.07843" lon="7.07499">
        <ele>943.5</ele>
        <time>2023-08-12T11:43:30Z</time>
      </trkpt>
      <trkpt lat="48.07844" lon="7.07497">
        <ele>943.6</ele>
        <time>2023-08-12T11:43:31Z</time>
      </trkpt>
      <trkpt lat="48.07845" lon="7.07496">
        <ele>943.7</ele>
        <time>2023-08-12T11:43:32Z</time>
      </trkpt>
      <trkpt lat="48.07849" lon="7.07494">
        <ele>944.1</ele>
        <time>2023-08-12T11:43:36Z</time>
      </trkpt>
      <trkpt lat="48.0785" lon="7.07491">
        <ele>944.2</ele>
        <time>2023-08-12T11:43:37Z</time>
      </trkpt>
      <trkpt lat="48.07851" lon="7.07488">
        <ele>944.4</ele>
        <time>2023-08-12T11:43:38Z</time>
      </trkpt>
      <trkpt lat="48.07852" lon="7.07487">
        <ele>944.6</ele>
        <time>2023-08-12T11:43:39Z</time>
      </trkpt>
      <trkpt lat="48.07853" lon="7.07484">
        <ele>944.7</ele>
        <time>2023-08-12T11:43:40Z</time>
      </trkpt>
      <trkpt lat="48.07854" lon="7.07483">
        <ele>944.8</ele>
        <time>2023-08-12T11:43:41Z</time>
      </trkpt>
      <trkpt lat="48.07855" lon="7.07482">
        <ele>945</ele>
        <time>2023-08-12T11:43:42Z</time>
      </trkpt>
      <trkpt lat="48.07856" lon="7.0748">
        <ele>945.1</ele>
        <time>2023-08-12T11:43:43Z</time>
      </trkpt>
      <trkpt lat="48.07857" lon="7.07479">
        <ele>945.2</ele>
        <time>2023-08-12T11:43:44Z</time>
      </trkpt>
      <trkpt lat="48.07858" lon="7.07477">
        <ele>945.4</ele>
        <time>2023-08-12T11:43:45Z</time>
      </trkpt>
      <trkpt lat="48.0786" lon="7.07474">
        <ele>945.6</ele>
        <time>2023-08-12T11:43:46Z</time>
      </trkpt>
      <trkpt lat="48.07861" lon="7.07473">
        <ele>945.7</ele>
        <time>2023-08-12T11:43:47Z</time>
      </trkpt>
      <trkpt lat="48.07862" lon="7.07471">
        <ele>945.9</ele>
        <time>2023-08-12T11:43:48Z</time>
      </trkpt>
      <trkpt lat="48.07863" lon="7.07469">
        <ele>946</ele>
        <time>2023-08-12T11:43:49Z</time>
      </trkpt>
      <trkpt lat="48.07864" lon="7.07467">
        <ele>946.1</ele>
        <time>2023-08-12T11:43:50Z</time>
      </trkpt>
      <trkpt lat="48.07869" lon="7.07459">
        <ele>946.7</ele>
        <time>2023-08-12T11:43:54Z</time>
      </trkpt>
      <trkpt lat="48.07872" lon="7.07456">
        <ele>946.9</ele>
        <time>2023-08-12T11:43:55Z</time>
      </trkpt>
      <trkpt lat="48.07873" lon="7.07455">
        <ele>947</ele>
        <time>2023-08-12T11:43:56Z</time>
      </trkpt>
      <trkpt lat="48.07874" lon="7.07454">
        <ele>947.1</ele>
        <time>2023-08-12T11:43:57Z</time>
      </trkpt>
      <trkpt lat="48.07875" lon="7.07451">
        <ele>947.3</ele>
        <time>2023-08-12T11:43:58Z</time>
      </trkpt>
      <trkpt lat="48.07877" lon="7.07446">
        <ele>947.6</ele>
        <time>2023-08-12T11:43:59Z</time>
      </trkpt>
      <trkpt lat="48.07879" lon="7.07444">
        <ele>947.7</ele>
        <time>2023-08-12T11:44:00Z</time>
      </trkpt>
      <trkpt lat="48.07881" lon="7.07441">
        <ele>948</ele>
        <time>2023-08-12T11:44:01Z</time>
      </trkpt>
      <trkpt lat="48.07883" lon="7.07439">
        <ele>948.1</ele>
        <time>2023-08-12T11:44:02Z</time>
      </trkpt>
      <trkpt lat="48.07884" lon="7.07438">
        <ele>948.2</ele>
        <time>2023-08-12T11:44:03Z</time>
      </trkpt>
      <trkpt lat="48.07885" lon="7.07436">
        <ele>948.4</ele>
        <time>2023-08-12T11:44:04Z</time>
      </trkpt>
      <trkpt lat="48.07887" lon="7.07434">
        <ele>948.6</ele>
        <time>2023-08-12T11:44:05Z</time>
      </trkpt>
      <trkpt lat="48.07888" lon="7.07434">
        <ele>948.7</ele>
        <time>2023-08-12T11:44:06Z</time>
      </trkpt>
      <trkpt lat="48.0789" lon="7.0743">
        <ele>949</ele>
        <time>2023-08-12T11:44:07Z</time>
      </trkpt>
      <trkpt lat="48.07891" lon="7.07429">
        <ele>949.1</ele>
        <time>2023-08-12T11:44:08Z</time>
      </trkpt>
      <trkpt lat="48.07893" lon="7.07428">
        <ele>949.3</ele>
        <time>2023-08-12T11:44:09Z</time>
      </trkpt>
      <trkpt lat="48.07895" lon="7.07426">
        <ele>949.5</ele>
        <time>2023-08-12T11:44:10Z</time>
      </trkpt>
      <trkpt lat="48.07896" lon="7.07422">
        <ele>949.8</ele>
        <time>2023-08-12T11:44:11Z</time>
      </trkpt>
      <trkpt lat="48.07898" lon="7.07419">
        <ele>950.1</ele>
        <time>2023-08-12T11:44:12Z</time>
      </trkpt>
      <trkpt lat="48.079" lon="7.07415">
        <ele>950.4</ele>
        <time>2023-08-12T11:44:13Z</time>
      </trkpt>
      <trkpt lat="48.07904" lon="7.07411">
        <ele>950.7</ele>
        <time>2023-08-12T11:44:14Z</time>
      </trkpt>
      <trkpt lat="48.07906" lon="7.07409">
        <ele>950.9</ele>
        <time>2023-08-12T11:44:15Z</time>
      </trkpt>
      <trkpt lat="48.07909" lon="7.07408">
        <ele>951</ele>
        <time>2023-08-12T11:44:16Z</time>
      </trkpt>
      <trkpt lat="48.07909" lon="7.07408">
        <ele>951</ele>
        <time>2023-08-12T11:44:17Z</time>
      </trkpt>
      <trkpt lat="48.07911" lon="7.07407">
        <ele>951.1</ele>
        <time>2023-08-12T11:44:18Z</time>
      </trkpt>
      <trkpt lat="48.07914" lon="7.07404">
        <ele>951.3</ele>
        <time>2023-08-12T11:44:19Z</time>
      </trkpt>
      <trkpt lat="48.07917" lon="7.07401">
        <ele>951.4</ele>
        <time>2023-08-12T11:44:20Z</time>
      </trkpt>
      <trkpt lat="48.07919" lon="7.074">
        <ele>951.5</ele>
        <time>2023-08-12T11:44:21Z</time>
      </trkpt>
      <trkpt lat="48.0792" lon="7.07399">
        <ele>951.6</ele>
        <time>2023-08-12T11:44:22Z</time>
      </trkpt>
      <trkpt lat="48.07921" lon="7.07397">
        <ele>951.6</ele>
        <time>2023-08-12T11:44:23Z</time>
      </trkpt>
      <trkpt lat="48.07923" lon="7.07396">
        <ele>951.6</ele>
        <time>2023-08-12T11:44:24Z</time>
      </trkpt>
      <trkpt lat="48.07926" lon="7.07394">
        <ele>951.8</ele>
        <time>2023-08-12T11:44:25Z</time>
      </trkpt>
      <trkpt lat="48.07929" lon="7.07392">
        <ele>951.9</ele>
        <time>2023-08-12T11:44:26Z</time>
      </trkpt>
      <trkpt lat="48.07931" lon="7.0739">
        <ele>951.9</ele>
        <time>2023-08-12T11:44:27Z</time>
      </trkpt>
      <trkpt lat="48.07933" lon="7.07389">
        <ele>952</ele>
        <time>2023-08-12T11:44:28Z</time>
      </trkpt>
      <trkpt lat="48.07934" lon="7.07389">
        <ele>952</ele>
        <time>2023-08-12T11:44:29Z</time>
      </trkpt>
      <trkpt lat="48.07936" lon="7.07389">
        <ele>952.1</ele>
        <time>2023-08-12T11:44:30Z</time>
      </trkpt>
      <trkpt lat="48.07939" lon="7.07388">
        <ele>952.2</ele>
        <time>2023-08-12T11:44:32Z</time>
      </trkpt>
      <trkpt lat="48.07941" lon="7.07388">
        <ele>952.3</ele>
        <time>2023-08-12T11:44:33Z</time>
      </trkpt>
      <trkpt lat="48.07952" lon="7.07393">
        <ele>952.7</ele>
        <time>2023-08-12T11:44:39Z</time>
      </trkpt>
      <trkpt lat="48.07953" lon="7.07396">
        <ele>952.8</ele>
        <time>2023-08-12T11:44:40Z</time>
      </trkpt>
      <trkpt lat="48.07955" lon="7.07397">
        <ele>952.8</ele>
        <time>2023-08-12T11:44:41Z</time>
      </trkpt>
      <trkpt lat="48.07964" lon="7.07403">
        <ele>953.2</ele>
        <time>2023-08-12T11:44:45Z</time>
      </trkpt>
      <trkpt lat="48.07977" lon="7.07404">
        <ele>953.7</ele>
        <time>2023-08-12T11:44:50Z</time>
      </trkpt>
      <trkpt lat="48.0798" lon="7.07405">
        <ele>953.8</ele>
        <time>2023-08-12T11:44:51Z</time>
      </trkpt>
      <trkpt lat="48.07983" lon="7.07406">
        <ele>953.9</ele>
        <time>2023-08-12T11:44:52Z</time>
      </trkpt>
      <trkpt lat="48.07985" lon="7.07406">
        <ele>953.9</ele>
        <time>2023-08-12T11:44:53Z</time>
      </trkpt>
      <trkpt lat="48.07987" lon="7.07406">
        <ele>954</ele>
        <time>2023-08-12T11:44:54Z</time>
      </trkpt>
      <trkpt lat="48.0799" lon="7.07406">
        <ele>954.1</ele>
        <time>2023-08-12T11:44:55Z</time>
      </trkpt>
      <trkpt lat="48.07993" lon="7.07408">
        <ele>954.1</ele>
        <time>2023-08-12T11:44:56Z</time>
      </trkpt>
      <trkpt lat="48.08001" lon="7.07408">
        <ele>954.3</ele>
        <time>2023-08-12T11:44:59Z</time>
      </trkpt>
      <trkpt lat="48.08004" lon="7.07409">
        <ele>954.4</ele>
        <time>2023-08-12T11:45:00Z</time>
      </trkpt>
      <trkpt lat="48.08007" lon="7.07411">
        <ele>954.6</ele>
        <time>2023-08-12T11:45:01Z</time>
      </trkpt>
      <trkpt lat="48.0801" lon="7.07412">
        <ele>954.6</ele>
        <time>2023-08-12T11:45:02Z</time>
      </trkpt>
      <trkpt lat="48.08012" lon="7.07414">
        <ele>954.8</ele>
        <time>2023-08-12T11:45:03Z</time>
      </trkpt>
      <trkpt lat="48.08013" lon="7.07414">
        <ele>955.1</ele>
        <time>2023-08-12T11:45:04Z</time>
      </trkpt>
      <trkpt lat="48.08014" lon="7.07414">
        <ele>955.2</ele>
        <time>2023-08-12T11:45:05Z</time>
      </trkpt>
      <trkpt lat="48.08015" lon="7.07414">
        <ele>952.5</ele>
        <time>2023-08-12T11:45:06Z</time>
      </trkpt>
      <trkpt lat="48.08015" lon="7.07413">
        <ele>952.7</ele>
        <time>2023-08-12T11:45:07Z</time>
      </trkpt>
      <trkpt lat="48.08016" lon="7.07413">
        <ele>952.9</ele>
        <time>2023-08-12T11:45:18Z</time>
      </trkpt>
      <trkpt lat="48.08016" lon="7.07413">
        <ele>953.1</ele>
        <time>2023-08-12T11:45:23Z</time>
      </trkpt>
      <trkpt lat="48.08016" lon="7.07413">
        <ele>953.3</ele>
        <time>2023-08-12T11:45:24Z</time>
      </trkpt>
      <trkpt lat="48.08016" lon="7.07413">
        <ele>953.5</ele>
        <time>2023-08-12T11:45:30Z</time>
      </trkpt>
      <trkpt lat="48.08016" lon="7.07414">
        <ele>953.9</ele>
        <time>2023-08-12T11:45:55Z</time>
      </trkpt>
      <trkpt lat="48.08016" lon="7.07414">
        <ele>954.1</ele>
        <time>2023-08-12T11:46:03Z</time>
      </trkpt>
      <trkpt lat="48.08016" lon="7.07414">
        <ele>954.3</ele>
        <time>2023-08-12T11:46:58Z</time>
      </trkpt>
      <trkpt lat="48.08016" lon="7.07414">
        <ele>954.5</ele>
        <time>2023-08-12T11:47:21Z</time>
      </trkpt>
      <trkpt lat="48.08016" lon="7.07414">
        <ele>954.7</ele>
        <time>2023-08-12T11:47:47Z</time>
      </trkpt>
      <trkpt lat="48.08016" lon="7.07421">
        <ele>952.1</ele>
        <time>2023-08-12T11:47:49Z</time>
      </trkpt>
      <trkpt lat="48.08018" lon="7.07434">
        <ele>949.4</ele>
        <time>2023-08-12T11:47:51Z</time>
      </trkpt>
      <trkpt lat="48.0802" lon="7.07441">
        <ele>949.6</ele>
        <time>2023-08-12T11:47:52Z</time>
      </trkpt>
      <trkpt lat="48.08024" lon="7.07449">
        <ele>949.8</ele>
        <time>2023-08-12T11:47:53Z</time>
      </trkpt>
      <trkpt lat="48.0803" lon="7.07462">
        <ele>943.4</ele>
        <time>2023-08-12T11:47:55Z</time>
      </trkpt>
      <trkpt lat="48.08033" lon="7.07471">
        <ele>940.9</ele>
        <time>2023-08-12T11:47:56Z</time>
      </trkpt>
      <trkpt lat="48.08033" lon="7.07476">
        <ele>941.1</ele>
        <time>2023-08-12T11:47:57Z</time>
      </trkpt>
      <trkpt lat="48.08031" lon="7.07483">
        <ele>941.3</ele>
        <time>2023-08-12T11:47:58Z</time>
      </trkpt>
      <trkpt lat="48.08031" lon="7.0749">
        <ele>939.1</ele>
        <time>2023-08-12T11:47:59Z</time>
      </trkpt>
      <trkpt lat="48.08031" lon="7.07496">
        <ele>939.3</ele>
        <time>2023-08-12T11:48:00Z</time>
      </trkpt>
      <trkpt lat="48.08032" lon="7.07501">
        <ele>939.5</ele>
        <time>2023-08-12T11:48:01Z</time>
      </trkpt>
      <trkpt lat="48.08034" lon="7.07509">
        <ele>937</ele>
        <time>2023-08-12T11:48:02Z</time>
      </trkpt>
      <trkpt lat="48.08034" lon="7.07515">
        <ele>937.2</ele>
        <time>2023-08-12T11:48:03Z</time>
      </trkpt>
      <trkpt lat="48.08032" lon="7.07531">
        <ele>934.7</ele>
        <time>2023-08-12T11:48:05Z</time>
      </trkpt>
      <trkpt lat="48.08033" lon="7.07541">
        <ele>932.2</ele>
        <time>2023-08-12T11:48:06Z</time>
      </trkpt>
      <trkpt lat="48.08037" lon="7.07549">
        <ele>932.4</ele>
        <time>2023-08-12T11:48:07Z</time>
      </trkpt>
      <trkpt lat="48.08041" lon="7.07556">
        <ele>926.6</ele>
        <time>2023-08-12T11:48:08Z</time>
      </trkpt>
      <trkpt lat="48.08044" lon="7.07561">
        <ele>926.8</ele>
        <time>2023-08-12T11:48:09Z</time>
      </trkpt>
      <trkpt lat="48.08046" lon="7.07568">
        <ele>927</ele>
        <time>2023-08-12T11:48:10Z</time>
      </trkpt>
      <trkpt lat="48.08052" lon="7.07585">
        <ele>921.8</ele>
        <time>2023-08-12T11:48:12Z</time>
      </trkpt>
      <trkpt lat="48.08056" lon="7.07593">
        <ele>919.7</ele>
        <time>2023-08-12T11:48:13Z</time>
      </trkpt>
      <trkpt lat="48.08059" lon="7.07598">
        <ele>920</ele>
        <time>2023-08-12T11:48:14Z</time>
      </trkpt>
      <trkpt lat="48.08067" lon="7.07616">
        <ele>914.6</ele>
        <time>2023-08-12T11:48:17Z</time>
      </trkpt>
      <trkpt lat="48.08061" lon="7.07632">
        <ele>912.2</ele>
        <time>2023-08-12T11:48:19Z</time>
      </trkpt>
      <trkpt lat="48.0806" lon="7.07637">
        <ele>915.7</ele>
        <time>2023-08-12T11:48:20Z</time>
      </trkpt>
      <trkpt lat="48.08063" lon="7.0764">
        <ele>910.1</ele>
        <time>2023-08-12T11:48:21Z</time>
      </trkpt>
      <trkpt lat="48.08066" lon="7.07645">
        <ele>910.3</ele>
        <time>2023-08-12T11:48:22Z</time>
      </trkpt>
      <trkpt lat="48.0807" lon="7.0765">
        <ele>910.5</ele>
        <time>2023-08-12T11:48:23Z</time>
      </trkpt>
      <trkpt lat="48.08073" lon="7.07653">
        <ele>907.6</ele>
        <time>2023-08-12T11:48:24Z</time>
      </trkpt>
      <trkpt lat="48.08079" lon="7.07661">
        <ele>906.3</ele>
        <time>2023-08-12T11:48:26Z</time>
      </trkpt>
      <trkpt lat="48.0808" lon="7.07663">
        <ele>906.5</ele>
        <time>2023-08-12T11:48:27Z</time>
      </trkpt>
      <trkpt lat="48.0808" lon="7.07664">
        <ele>906.7</ele>
        <time>2023-08-12T11:48:28Z</time>
      </trkpt>
      <trkpt lat="48.08079" lon="7.07667">
        <ele>906.9</ele>
        <time>2023-08-12T11:48:29Z</time>
      </trkpt>
      <trkpt lat="48.08078" lon="7.0767">
        <ele>907.2</ele>
        <time>2023-08-12T11:48:30Z</time>
      </trkpt>
      <trkpt lat="48.08077" lon="7.07672">
        <ele>907.4</ele>
        <time>2023-08-12T11:48:31Z</time>
      </trkpt>
      <trkpt lat="48.08065" lon="7.07696">
        <ele>909.6</ele>
        <time>2023-08-12T11:48:36Z</time>
      </trkpt>
      <trkpt lat="48.0806" lon="7.07706">
        <ele>911.9</ele>
        <time>2023-08-12T11:48:38Z</time>
      </trkpt>
      <trkpt lat="48.08057" lon="7.07713">
        <ele>910.8</ele>
        <time>2023-08-12T11:48:39Z</time>
      </trkpt>
      <trkpt lat="48.08055" lon="7.0772">
        <ele>911</ele>
        <time>2023-08-12T11:48:40Z</time>
      </trkpt>
      <trkpt lat="48.08055" lon="7.07726">
        <ele>909.3</ele>
        <time>2023-08-12T11:48:41Z</time>
      </trkpt>
      <trkpt lat="48.08057" lon="7.07734">
        <ele>909.5</ele>
        <time>2023-08-12T11:48:42Z</time>
      </trkpt>
      <trkpt lat="48.0806" lon="7.07757">
        <ele>907.1</ele>
        <time>2023-08-12T11:48:44Z</time>
      </trkpt>
      <trkpt lat="48.08062" lon="7.07765">
        <ele>902</ele>
        <time>2023-08-12T11:48:45Z</time>
      </trkpt>
      <trkpt lat="48.08062" lon="7.07789">
        <ele>898.4</ele>
        <time>2023-08-12T11:48:47Z</time>
      </trkpt>
      <trkpt lat="48.08062" lon="7.07801">
        <ele>895.7</ele>
        <time>2023-08-12T11:48:48Z</time>
      </trkpt>
      <trkpt lat="48.08063" lon="7.07822">
        <ele>893.4</ele>
        <time>2023-08-12T11:48:50Z</time>
      </trkpt>
      <trkpt lat="48.08066" lon="7.07832">
        <ele>891.1</ele>
        <time>2023-08-12T11:48:51Z</time>
      </trkpt>
      <trkpt lat="48.08069" lon="7.07835">
        <ele>891.3</ele>
        <time>2023-08-12T11:48:52Z</time>
      </trkpt>
      <trkpt lat="48.08073" lon="7.07838">
        <ele>889.4</ele>
        <time>2023-08-12T11:48:53Z</time>
      </trkpt>
      <trkpt lat="48.08077" lon="7.07843">
        <ele>889.6</ele>
        <time>2023-08-12T11:48:54Z</time>
      </trkpt>
      <trkpt lat="48.08078" lon="7.07848">
        <ele>887.7</ele>
        <time>2023-08-12T11:48:55Z</time>
      </trkpt>
      <trkpt lat="48.08074" lon="7.07857">
        <ele>887.9</ele>
        <time>2023-08-12T11:48:56Z</time>
      </trkpt>
      <trkpt lat="48.08072" lon="7.07865">
        <ele>885.7</ele>
        <time>2023-08-12T11:48:57Z</time>
      </trkpt>
      <trkpt lat="48.08073" lon="7.07873">
        <ele>885.9</ele>
        <time>2023-08-12T11:48:58Z</time>
      </trkpt>
      <trkpt lat="48.08074" lon="7.07882">
        <ele>884.1</ele>
        <time>2023-08-12T11:48:59Z</time>
      </trkpt>
      <trkpt lat="48.08074" lon="7.0789">
        <ele>884.3</ele>
        <time>2023-08-12T11:49:00Z</time>
      </trkpt>
      <trkpt lat="48.08074" lon="7.07898">
        <ele>882.5</ele>
        <time>2023-08-12T11:49:01Z</time>
      </trkpt>
      <trkpt lat="48.08077" lon="7.07906">
        <ele>882.7</ele>
        <time>2023-08-12T11:49:02Z</time>
      </trkpt>
      <trkpt lat="48.08079" lon="7.07913">
        <ele>882.9</ele>
        <time>2023-08-12T11:49:03Z</time>
      </trkpt>
      <trkpt lat="48.08082" lon="7.07922">
        <ele>880.8</ele>
        <time>2023-08-12T11:49:04Z</time>
      </trkpt>
      <trkpt lat="48.08088" lon="7.07931">
        <ele>878.7</ele>
        <time>2023-08-12T11:49:05Z</time>
      </trkpt>
      <trkpt lat="48.08094" lon="7.07938">
        <ele>877</ele>
        <time>2023-08-12T11:49:06Z</time>
      </trkpt>
      <trkpt lat="48.08101" lon="7.0795">
        <ele>873.3</ele>
        <time>2023-08-12T11:49:08Z</time>
      </trkpt>
      <trkpt lat="48.08102" lon="7.07956">
        <ele>873.5</ele>
        <time>2023-08-12T11:49:09Z</time>
      </trkpt>
      <trkpt lat="48.08104" lon="7.07963">
        <ele>873.7</ele>
        <time>2023-08-12T11:49:10Z</time>
      </trkpt>
      <trkpt lat="48.08109" lon="7.07969">
        <ele>869.9</ele>
        <time>2023-08-12T11:49:11Z</time>
      </trkpt>
      <trkpt lat="48.08114" lon="7.07973">
        <ele>870.1</ele>
        <time>2023-08-12T11:49:12Z</time>
      </trkpt>
      <trkpt lat="48.0812" lon="7.07977">
        <ele>868.2</ele>
        <time>2023-08-12T11:49:13Z</time>
      </trkpt>
      <trkpt lat="48.08124" lon="7.07982">
        <ele>868.4</ele>
        <time>2023-08-12T11:49:14Z</time>
      </trkpt>
      <trkpt lat="48.08132" lon="7.07997">
        <ele>866.1</ele>
        <time>2023-08-12T11:49:16Z</time>
      </trkpt>
      <trkpt lat="48.0814" lon="7.08011">
        <ele>865.1</ele>
        <time>2023-08-12T11:49:18Z</time>
      </trkpt>
      <trkpt lat="48.08141" lon="7.08017">
        <ele>863.4</ele>
        <time>2023-08-12T11:49:19Z</time>
      </trkpt>
      <trkpt lat="48.08142" lon="7.08028">
        <ele>862</ele>
        <time>2023-08-12T11:49:20Z</time>
      </trkpt>
      <trkpt lat="48.08142" lon="7.08035">
        <ele>860.4</ele>
        <time>2023-08-12T11:49:21Z</time>
      </trkpt>
      <trkpt lat="48.08144" lon="7.08041">
        <ele>860.6</ele>
        <time>2023-08-12T11:49:22Z</time>
      </trkpt>
      <trkpt lat="48.08147" lon="7.08045">
        <ele>860.9</ele>
        <time>2023-08-12T11:49:23Z</time>
      </trkpt>
      <trkpt lat="48.08151" lon="7.08049">
        <ele>861.1</ele>
        <time>2023-08-12T11:49:24Z</time>
      </trkpt>
      <trkpt lat="48.08155" lon="7.0805">
        <ele>859.3</ele>
        <time>2023-08-12T11:49:25Z</time>
      </trkpt>
      <trkpt lat="48.08159" lon="7.0805">
        <ele>859.5</ele>
        <time>2023-08-12T11:49:26Z</time>
      </trkpt>
      <trkpt lat="48.08162" lon="7.08048">
        <ele>859.7</ele>
        <time>2023-08-12T11:49:27Z</time>
      </trkpt>
      <trkpt lat="48.08165" lon="7.08049">
        <ele>857.5</ele>
        <time>2023-08-12T11:49:28Z</time>
      </trkpt>
      <trkpt lat="48.08168" lon="7.08051">
        <ele>857.7</ele>
        <time>2023-08-12T11:49:29Z</time>
      </trkpt>
      <trkpt lat="48.08171" lon="7.08056">
        <ele>855.5</ele>
        <time>2023-08-12T11:49:30Z</time>
      </trkpt>
      <trkpt lat="48.08173" lon="7.0806">
        <ele>855.7</ele>
        <time>2023-08-12T11:49:31Z</time>
      </trkpt>
      <trkpt lat="48.08175" lon="7.08062">
        <ele>853.9</ele>
        <time>2023-08-12T11:49:32Z</time>
      </trkpt>
      <trkpt lat="48.08177" lon="7.08062">
        <ele>853.6</ele>
        <time>2023-08-12T11:49:33Z</time>
      </trkpt>
      <trkpt lat="48.08178" lon="7.08062">
        <ele>853.5</ele>
        <time>2023-08-12T11:49:35Z</time>
      </trkpt>
      <trkpt lat="48.08178" lon="7.08062">
        <ele>853.5</ele>
        <time>2023-08-12T11:49:46Z</time>
      </trkpt>
      <trkpt lat="48.08178" lon="7.08062">
        <ele>853.5</ele>
        <time>2023-08-12T11:49:51Z</time>
      </trkpt>
      <trkpt lat="48.08178" lon="7.08062">
        <ele>853.5</ele>
        <time>2023-08-12T11:49:58Z</time>
      </trkpt>
      <trkpt lat="48.08178" lon="7.0807">
        <ele>852.7</ele>
        <time>2023-08-12T11:50:00Z</time>
      </trkpt>
      <trkpt lat="48.08171" lon="7.08089">
        <ele>850.8</ele>
        <time>2023-08-12T11:50:03Z</time>
      </trkpt>
      <trkpt lat="48.08168" lon="7.08097">
        <ele>850.1</ele>
        <time>2023-08-12T11:50:04Z</time>
      </trkpt>
      <trkpt lat="48.08167" lon="7.08103">
        <ele>849.6</ele>
        <time>2023-08-12T11:50:05Z</time>
      </trkpt>
      <trkpt lat="48.08166" lon="7.08116">
        <ele>848.6</ele>
        <time>2023-08-12T11:50:07Z</time>
      </trkpt>
      <trkpt lat="48.08166" lon="7.08124">
        <ele>848.1</ele>
        <time>2023-08-12T11:50:08Z</time>
      </trkpt>
      <trkpt lat="48.08168" lon="7.08131">
        <ele>847.5</ele>
        <time>2023-08-12T11:50:09Z</time>
      </trkpt>
      <trkpt lat="48.08168" lon="7.08139">
        <ele>846.9</ele>
        <time>2023-08-12T11:50:10Z</time>
      </trkpt>
      <trkpt lat="48.08168" lon="7.08146">
        <ele>846.4</ele>
        <time>2023-08-12T11:50:11Z</time>
      </trkpt>
      <trkpt lat="48.08166" lon="7.08162">
        <ele>845.2</ele>
        <time>2023-08-12T11:50:13Z</time>
      </trkpt>
      <trkpt lat="48.08163" lon="7.0821">
        <ele>842.1</ele>
        <time>2023-08-12T11:50:17Z</time>
      </trkpt>
      <trkpt lat="48.08162" lon="7.08219">
        <ele>841.5</ele>
        <time>2023-08-12T11:50:18Z</time>
      </trkpt>
      <trkpt lat="48.08163" lon="7.08235">
        <ele>840</ele>
        <time>2023-08-12T11:50:20Z</time>
      </trkpt>
      <trkpt lat="48.08163" lon="7.08241">
        <ele>839.3</ele>
        <time>2023-08-12T11:50:21Z</time>
      </trkpt>
      <trkpt lat="48.08162" lon="7.08249">
        <ele>838.2</ele>
        <time>2023-08-12T11:50:22Z</time>
      </trkpt>
      <trkpt lat="48.08162" lon="7.08251">
        <ele>838</ele>
        <time>2023-08-12T11:50:23Z</time>
      </trkpt>
      <trkpt lat="48.08162" lon="7.08251">
        <ele>838</ele>
        <time>2023-08-12T11:50:24Z</time>
      </trkpt>
      <trkpt lat="48.08162" lon="7.08251">
        <ele>838</ele>
        <time>2023-08-12T11:50:25Z</time>
      </trkpt>
      <trkpt lat="48.08162" lon="7.08251">
        <ele>838</ele>
        <time>2023-08-12T11:50:34Z</time>
      </trkpt>
      <trkpt lat="48.08162" lon="7.08251">
        <ele>838</ele>
        <time>2023-08-12T11:51:26Z</time>
      </trkpt>
      <trkpt lat="48.08162" lon="7.08251">
        <ele>838</ele>
        <time>2023-08-12T11:51:29Z</time>
      </trkpt>
      <trkpt lat="48.08162" lon="7.0825">
        <ele>837.9</ele>
        <time>2023-08-12T11:51:32Z</time>
      </trkpt>
      <trkpt lat="48.08166" lon="7.08246">
        <ele>837</ele>
        <time>2023-08-12T11:51:34Z</time>
      </trkpt>
      <trkpt lat="48.08168" lon="7.08245">
        <ele>836.6</ele>
        <time>2023-08-12T11:51:35Z</time>
      </trkpt>
      <trkpt lat="48.0817" lon="7.08245">
        <ele>836.2</ele>
        <time>2023-08-12T11:51:36Z</time>
      </trkpt>
      <trkpt lat="48.08171" lon="7.08252">
        <ele>835.5</ele>
        <time>2023-08-12T11:51:38Z</time>
      </trkpt>
      <trkpt lat="48.08172" lon="7.08269">
        <ele>833.8</ele>
        <time>2023-08-12T11:51:41Z</time>
      </trkpt>
      <trkpt lat="48.08172" lon="7.08278">
        <ele>833.1</ele>
        <time>2023-08-12T11:51:42Z</time>
      </trkpt>
      <trkpt lat="48.08171" lon="7.08295">
        <ele>832</ele>
        <time>2023-08-12T11:51:44Z</time>
      </trkpt>
      <trkpt lat="48.0817" lon="7.08304">
        <ele>831.4</ele>
        <time>2023-08-12T11:51:45Z</time>
      </trkpt>
      <trkpt lat="48.08169" lon="7.08308">
        <ele>831.1</ele>
        <time>2023-08-12T11:51:46Z</time>
      </trkpt>
      <trkpt lat="48.08169" lon="7.08312">
        <ele>830.8</ele>
        <time>2023-08-12T11:51:47Z</time>
      </trkpt>
      <trkpt lat="48.08169" lon="7.08316">
        <ele>830.4</ele>
        <time>2023-08-12T11:51:48Z</time>
      </trkpt>
      <trkpt lat="48.0817" lon="7.08318">
        <ele>830.1</ele>
        <time>2023-08-12T11:51:49Z</time>
      </trkpt>
      <trkpt lat="48.08171" lon="7.0832">
        <ele>829.7</ele>
        <time>2023-08-12T11:51:50Z</time>
      </trkpt>
      <trkpt lat="48.08174" lon="7.08319">
        <ele>829.2</ele>
        <time>2023-08-12T11:51:51Z</time>
      </trkpt>
      <trkpt lat="48.08177" lon="7.08316">
        <ele>828.5</ele>
        <time>2023-08-12T11:51:52Z</time>
      </trkpt>
      <trkpt lat="48.0819" lon="7.08292">
        <ele>825.1</ele>
        <time>2023-08-12T11:51:57Z</time>
      </trkpt>
      <trkpt lat="48.08195" lon="7.0828">
        <ele>823.7</ele>
        <time>2023-08-12T11:51:59Z</time>
      </trkpt>
      <trkpt lat="48.08199" lon="7.08276">
        <ele>819.7</ele>
        <time>2023-08-12T11:52:00Z</time>
      </trkpt>
      <trkpt lat="48.08201" lon="7.08276">
        <ele>819.7</ele>
        <time>2023-08-12T11:52:01Z</time>
      </trkpt>
      <trkpt lat="48.08203" lon="7.08278">
        <ele>819.7</ele>
        <time>2023-08-12T11:52:02Z</time>
      </trkpt>
      <trkpt lat="48.08205" lon="7.0828">
        <ele>819.7</ele>
        <time>2023-08-12T11:52:03Z</time>
      </trkpt>
      <trkpt lat="48.08205" lon="7.08283">
        <ele>820.2</ele>
        <time>2023-08-12T11:52:04Z</time>
      </trkpt>
      <trkpt lat="48.08206" lon="7.08286">
        <ele>820.3</ele>
        <time>2023-08-12T11:52:05Z</time>
      </trkpt>
      <trkpt lat="48.08206" lon="7.08289">
        <ele>820.3</ele>
        <time>2023-08-12T11:52:06Z</time>
      </trkpt>
      <trkpt lat="48.08207" lon="7.08293">
        <ele>820.4</ele>
        <time>2023-08-12T11:52:07Z</time>
      </trkpt>
      <trkpt lat="48.08207" lon="7.08294">
        <ele>820.4</ele>
        <time>2023-08-12T11:52:09Z</time>
      </trkpt>
      <trkpt lat="48.08207" lon="7.08294">
        <ele>819.8</ele>
        <time>2023-08-12T11:52:10Z</time>
      </trkpt>
      <trkpt lat="48.08208" lon="7.08297">
        <ele>819.6</ele>
        <time>2023-08-12T11:52:13Z</time>
      </trkpt>
      <trkpt lat="48.0821" lon="7.08307">
        <ele>818.8</ele>
        <time>2023-08-12T11:52:16Z</time>
      </trkpt>
      <trkpt lat="48.08211" lon="7.08332">
        <ele>816.7</ele>
        <time>2023-08-12T11:52:20Z</time>
      </trkpt>
      <trkpt lat="48.08212" lon="7.08374">
        <ele>812.6</ele>
        <time>2023-08-12T11:52:24Z</time>
      </trkpt>
      <trkpt lat="48.08213" lon="7.08406">
        <ele>809.7</ele>
        <time>2023-08-12T11:52:27Z</time>
      </trkpt>
      <trkpt lat="48.08215" lon="7.08444">
        <ele>806.5</ele>
        <time>2023-08-12T11:52:30Z</time>
      </trkpt>
      <trkpt lat="48.08216" lon="7.08452">
        <ele>805.9</ele>
        <time>2023-08-12T11:52:31Z</time>
      </trkpt>
      <trkpt lat="48.08217" lon="7.08464">
        <ele>804.8</ele>
        <time>2023-08-12T11:52:32Z</time>
      </trkpt>
      <trkpt lat="48.08218" lon="7.08473">
        <ele>804</ele>
        <time>2023-08-12T11:52:33Z</time>
      </trkpt>
      <trkpt lat="48.08219" lon="7.08487">
        <ele>802.7</ele>
        <time>2023-08-12T11:52:34Z</time>
      </trkpt>
      <trkpt lat="48.0822" lon="7.08523">
        <ele>799.7</ele>
        <time>2023-08-12T11:52:37Z</time>
      </trkpt>
      <trkpt lat="48.08221" lon="7.08537">
        <ele>798.7</ele>
        <time>2023-08-12T11:52:38Z</time>
      </trkpt>
      <trkpt lat="48.0822" lon="7.08548">
        <ele>797.9</ele>
        <time>2023-08-12T11:52:39Z</time>
      </trkpt>
      <trkpt lat="48.0822" lon="7.08558">
        <ele>797.2</ele>
        <time>2023-08-12T11:52:40Z</time>
      </trkpt>
      <trkpt lat="48.08223" lon="7.08571">
        <ele>796.3</ele>
        <time>2023-08-12T11:52:41Z</time>
      </trkpt>
      <trkpt lat="48.08227" lon="7.08583">
        <ele>797.2</ele>
        <time>2023-08-12T11:52:42Z</time>
      </trkpt>
      <trkpt lat="48.08231" lon="7.08589">
        <ele>797.8</ele>
        <time>2023-08-12T11:52:43Z</time>
      </trkpt>
      <trkpt lat="48.08235" lon="7.08593">
        <ele>798.2</ele>
        <time>2023-08-12T11:52:44Z</time>
      </trkpt>
      <trkpt lat="48.08236" lon="7.08594">
        <ele>798</ele>
        <time>2023-08-12T11:52:45Z</time>
      </trkpt>
      <trkpt lat="48.08237" lon="7.08595">
        <ele>797.9</ele>
        <time>2023-08-12T11:52:46Z</time>
      </trkpt>
      <trkpt lat="48.08236" lon="7.08596">
        <ele>797.8</ele>
        <time>2023-08-12T11:52:47Z</time>
      </trkpt>
      <trkpt lat="48.08235" lon="7.08599">
        <ele>797.6</ele>
        <time>2023-08-12T11:52:48Z</time>
      </trkpt>
      <trkpt lat="48.08234" lon="7.08601">
        <ele>795.4</ele>
        <time>2023-08-12T11:52:49Z</time>
      </trkpt>
      <trkpt lat="48.08234" lon="7.08602">
        <ele>795.3</ele>
        <time>2023-08-12T11:52:50Z</time>
      </trkpt>
      <trkpt lat="48.08231" lon="7.0861">
        <ele>793.1</ele>
        <time>2023-08-12T11:52:52Z</time>
      </trkpt>
      <trkpt lat="48.08225" lon="7.0863">
        <ele>790.9</ele>
        <time>2023-08-12T11:52:55Z</time>
      </trkpt>
      <trkpt lat="48.08219" lon="7.08648">
        <ele>787.5</ele>
        <time>2023-08-12T11:52:57Z</time>
      </trkpt>
      <trkpt lat="48.08216" lon="7.08656">
        <ele>786.4</ele>
        <time>2023-08-12T11:52:58Z</time>
      </trkpt>
      <trkpt lat="48.08214" lon="7.08662">
        <ele>786.3</ele>
        <time>2023-08-12T11:52:59Z</time>
      </trkpt>
      <trkpt lat="48.08211" lon="7.08668">
        <ele>786.2</ele>
        <time>2023-08-12T11:53:00Z</time>
      </trkpt>
      <trkpt lat="48.08207" lon="7.08675">
        <ele>785.3</ele>
        <time>2023-08-12T11:53:01Z</time>
      </trkpt>
      <trkpt lat="48.08204" lon="7.08679">
        <ele>785.2</ele>
        <time>2023-08-12T11:53:02Z</time>
      </trkpt>
      <trkpt lat="48.08202" lon="7.08681">
        <ele>785</ele>
        <time>2023-08-12T11:53:03Z</time>
      </trkpt>
      <trkpt lat="48.082" lon="7.08684">
        <ele>784.9</ele>
        <time>2023-08-12T11:53:04Z</time>
      </trkpt>
      <trkpt lat="48.08197" lon="7.08687">
        <ele>783.3</ele>
        <time>2023-08-12T11:53:05Z</time>
      </trkpt>
      <trkpt lat="48.0819" lon="7.08692">
        <ele>783.2</ele>
        <time>2023-08-12T11:53:07Z</time>
      </trkpt>
      <trkpt lat="48.08187" lon="7.08695">
        <ele>783.1</ele>
        <time>2023-08-12T11:53:08Z</time>
      </trkpt>
      <trkpt lat="48.08186" lon="7.08697">
        <ele>782.6</ele>
        <time>2023-08-12T11:53:09Z</time>
      </trkpt>
      <trkpt lat="48.08186" lon="7.08702">
        <ele>782.5</ele>
        <time>2023-08-12T11:53:10Z</time>
      </trkpt>
      <trkpt lat="48.08184" lon="7.08707">
        <ele>779.9</ele>
        <time>2023-08-12T11:53:11Z</time>
      </trkpt>
      <trkpt lat="48.08181" lon="7.08714">
        <ele>779.8</ele>
        <time>2023-08-12T11:53:12Z</time>
      </trkpt>
      <trkpt lat="48.08175" lon="7.08725">
        <ele>776.3</ele>
        <time>2023-08-12T11:53:14Z</time>
      </trkpt>
      <trkpt lat="48.08172" lon="7.08732">
        <ele>775.8</ele>
        <time>2023-08-12T11:53:15Z</time>
      </trkpt>
      <trkpt lat="48.08166" lon="7.08747">
        <ele>771.9</ele>
        <time>2023-08-12T11:53:17Z</time>
      </trkpt>
      <trkpt lat="48.08164" lon="7.08753">
        <ele>771.8</ele>
        <time>2023-08-12T11:53:18Z</time>
      </trkpt>
      <trkpt lat="48.08163" lon="7.08758">
        <ele>767</ele>
        <time>2023-08-12T11:53:19Z</time>
      </trkpt>
      <trkpt lat="48.08162" lon="7.08766">
        <ele>766.9</ele>
        <time>2023-08-12T11:53:20Z</time>
      </trkpt>
      <trkpt lat="48.08162" lon="7.08771">
        <ele>766.8</ele>
        <time>2023-08-12T11:53:21Z</time>
      </trkpt>
      <trkpt lat="48.08161" lon="7.08777">
        <ele>761.9</ele>
        <time>2023-08-12T11:53:22Z</time>
      </trkpt>
      <trkpt lat="48.08161" lon="7.08782">
        <ele>761.7</ele>
        <time>2023-08-12T11:53:23Z</time>
      </trkpt>
      <trkpt lat="48.08159" lon="7.08784">
        <ele>761.6</ele>
        <time>2023-08-12T11:53:24Z</time>
      </trkpt>
      <trkpt lat="48.08159" lon="7.08784">
        <ele>761.5</ele>
        <time>2023-08-12T11:53:25Z</time>
      </trkpt>
      <trkpt lat="48.08159" lon="7.08783">
        <ele>761.4</ele>
        <time>2023-08-12T11:53:26Z</time>
      </trkpt>
      <trkpt lat="48.08159" lon="7.08782">
        <ele>761.2</ele>
        <time>2023-08-12T11:53:27Z</time>
      </trkpt>
      <trkpt lat="48.08158" lon="7.08781">
        <ele>761.1</ele>
        <time>2023-08-12T11:53:29Z</time>
      </trkpt>
      <trkpt lat="48.08157" lon="7.08783">
        <ele>761</ele>
        <time>2023-08-12T11:53:30Z</time>
      </trkpt>
      <trkpt lat="48.08154" lon="7.08783">
        <ele>760.8</ele>
        <time>2023-08-12T11:53:33Z</time>
      </trkpt>
      <trkpt lat="48.08153" lon="7.08785">
        <ele>760.7</ele>
        <time>2023-08-12T11:53:34Z</time>
      </trkpt>
      <trkpt lat="48.08152" lon="7.08789">
        <ele>760.5</ele>
        <time>2023-08-12T11:53:35Z</time>
      </trkpt>
      <trkpt lat="48.0815" lon="7.08791">
        <ele>760.9</ele>
        <time>2023-08-12T11:53:36Z</time>
      </trkpt>
      <trkpt lat="48.08149" lon="7.08792">
        <ele>761.2</ele>
        <time>2023-08-12T11:53:37Z</time>
      </trkpt>
      <trkpt lat="48.08147" lon="7.08791">
        <ele>761.6</ele>
        <time>2023-08-12T11:53:38Z</time>
      </trkpt>
      <trkpt lat="48.08146" lon="7.08788">
        <ele>762.1</ele>
        <time>2023-08-12T11:53:39Z</time>
      </trkpt>
      <trkpt lat="48.08146" lon="7.08786">
        <ele>762.4</ele>
        <time>2023-08-12T11:53:40Z</time>
      </trkpt>
      <trkpt lat="48.08146" lon="7.08784">
        <ele>762.7</ele>
        <time>2023-08-12T11:53:41Z</time>
      </trkpt>
      <trkpt lat="48.08145" lon="7.08778">
        <ele>763.5</ele>
        <time>2023-08-12T11:53:43Z</time>
      </trkpt>
      <trkpt lat="48.08145" lon="7.08775">
        <ele>764</ele>
        <time>2023-08-12T11:53:44Z</time>
      </trkpt>
      <trkpt lat="48.08144" lon="7.08772">
        <ele>764.5</ele>
        <time>2023-08-12T11:53:45Z</time>
      </trkpt>
      <trkpt lat="48.08144" lon="7.08766">
        <ele>765.2</ele>
        <time>2023-08-12T11:53:47Z</time>
      </trkpt>
      <trkpt lat="48.08143" lon="7.0876">
        <ele>766.1</ele>
        <time>2023-08-12T11:53:49Z</time>
      </trkpt>
      <trkpt lat="48.08143" lon="7.08754">
        <ele>767</ele>
        <time>2023-08-12T11:53:51Z</time>
      </trkpt>
      <trkpt lat="48.08143" lon="7.08752">
        <ele>767.3</ele>
        <time>2023-08-12T11:53:52Z</time>
      </trkpt>
      <trkpt lat="48.08142" lon="7.08749">
        <ele>767.7</ele>
        <time>2023-08-12T11:53:53Z</time>
      </trkpt>
      <trkpt lat="48.08141" lon="7.08743">
        <ele>768.6</ele>
        <time>2023-08-12T11:53:55Z</time>
      </trkpt>
      <trkpt lat="48.08141" lon="7.0874">
        <ele>769</ele>
        <time>2023-08-12T11:53:56Z</time>
      </trkpt>
      <trkpt lat="48.08141" lon="7.08738">
        <ele>769.3</ele>
        <time>2023-08-12T11:53:57Z</time>
      </trkpt>
      <trkpt lat="48.08141" lon="7.08735">
        <ele>769.7</ele>
        <time>2023-08-12T11:53:58Z</time>
      </trkpt>
      <trkpt lat="48.08141" lon="7.08733">
        <ele>770.1</ele>
        <time>2023-08-12T11:53:59Z</time>
      </trkpt>
      <trkpt lat="48.08141" lon="7.0873">
        <ele>770.4</ele>
        <time>2023-08-12T11:54:00Z</time>
      </trkpt>
      <trkpt lat="48.08141" lon="7.08728">
        <ele>770.8</ele>
        <time>2023-08-12T11:54:01Z</time>
      </trkpt>
      <trkpt lat="48.08141" lon="7.08726">
        <ele>771</ele>
        <time>2023-08-12T11:54:02Z</time>
      </trkpt>
      <trkpt lat="48.0814" lon="7.08723">
        <ele>771.4</ele>
        <time>2023-08-12T11:54:03Z</time>
      </trkpt>
      <trkpt lat="48.08141" lon="7.08721">
        <ele>771.7</ele>
        <time>2023-08-12T11:54:04Z</time>
      </trkpt>
      <trkpt lat="48.08141" lon="7.08719">
        <ele>772</ele>
        <time>2023-08-12T11:54:05Z</time>
      </trkpt>
      <trkpt lat="48.08141" lon="7.08717">
        <ele>772.2</ele>
        <time>2023-08-12T11:54:06Z</time>
      </trkpt>
      <trkpt lat="48.08141" lon="7.08715">
        <ele>772.6</ele>
        <time>2023-08-12T11:54:07Z</time>
      </trkpt>
      <trkpt lat="48.08141" lon="7.08712">
        <ele>773</ele>
        <time>2023-08-12T11:54:08Z</time>
      </trkpt>
      <trkpt lat="48.08141" lon="7.0871">
        <ele>773.3</ele>
        <time>2023-08-12T11:54:09Z</time>
      </trkpt>
      <trkpt lat="48.08142" lon="7.08708">
        <ele>773.6</ele>
        <time>2023-08-12T11:54:10Z</time>
      </trkpt>
      <trkpt lat="48.08142" lon="7.08705">
        <ele>774</ele>
        <time>2023-08-12T11:54:11Z</time>
      </trkpt>
      <trkpt lat="48.08142" lon="7.08703">
        <ele>774.2</ele>
        <time>2023-08-12T11:54:12Z</time>
      </trkpt>
      <trkpt lat="48.08143" lon="7.08701">
        <ele>774.6</ele>
        <time>2023-08-12T11:54:13Z</time>
      </trkpt>
      <trkpt lat="48.08143" lon="7.08697">
        <ele>775</ele>
        <time>2023-08-12T11:54:14Z</time>
      </trkpt>
      <trkpt lat="48.08144" lon="7.08695">
        <ele>775.4</ele>
        <time>2023-08-12T11:54:15Z</time>
      </trkpt>
      <trkpt lat="48.08144" lon="7.08692">
        <ele>775.8</ele>
        <time>2023-08-12T11:54:16Z</time>
      </trkpt>
      <trkpt lat="48.08145" lon="7.08689">
        <ele>776.2</ele>
        <time>2023-08-12T11:54:17Z</time>
      </trkpt>
      <trkpt lat="48.08146" lon="7.08687">
        <ele>776.6</ele>
        <time>2023-08-12T11:54:18Z</time>
      </trkpt>
      <trkpt lat="48.08147" lon="7.08685">
        <ele>776.9</ele>
        <time>2023-08-12T11:54:19Z</time>
      </trkpt>
      <trkpt lat="48.08147" lon="7.08679">
        <ele>777.6</ele>
        <time>2023-08-12T11:54:21Z</time>
      </trkpt>
      <trkpt lat="48.08147" lon="7.08676">
        <ele>778</ele>
        <time>2023-08-12T11:54:22Z</time>
      </trkpt>
      <trkpt lat="48.08146" lon="7.08673">
        <ele>778.5</ele>
        <time>2023-08-12T11:54:23Z</time>
      </trkpt>
      <trkpt lat="48.08146" lon="7.0867">
        <ele>778.9</ele>
        <time>2023-08-12T11:54:24Z</time>
      </trkpt>
      <trkpt lat="48.08145" lon="7.08667">
        <ele>779.2</ele>
        <time>2023-08-12T11:54:25Z</time>
      </trkpt>
      <trkpt lat="48.08144" lon="7.08665">
        <ele>779.6</ele>
        <time>2023-08-12T11:54:26Z</time>
      </trkpt>
      <trkpt lat="48.08143" lon="7.08663">
        <ele>780</ele>
        <time>2023-08-12T11:54:27Z</time>
      </trkpt>
      <trkpt lat="48.08141" lon="7.0866">
        <ele>780.5</ele>
        <time>2023-08-12T11:54:28Z</time>
      </trkpt>
      <trkpt lat="48.08139" lon="7.08659">
        <ele>781.5</ele>
        <time>2023-08-12T11:54:29Z</time>
      </trkpt>
      <trkpt lat="48.08137" lon="7.08657">
        <ele>781.4</ele>
        <time>2023-08-12T11:54:30Z</time>
      </trkpt>
      <trkpt lat="48.08134" lon="7.08655">
        <ele>781.2</ele>
        <time>2023-08-12T11:54:32Z</time>
      </trkpt>
      <trkpt lat="48.08132" lon="7.08654">
        <ele>781.2</ele>
        <time>2023-08-12T11:54:33Z</time>
      </trkpt>
      <trkpt lat="48.0813" lon="7.08654">
        <ele>781.1</ele>
        <time>2023-08-12T11:54:34Z</time>
      </trkpt>
      <trkpt lat="48.08127" lon="7.08655">
        <ele>781</ele>
        <time>2023-08-12T11:54:36Z</time>
      </trkpt>
      <trkpt lat="48.08124" lon="7.08656">
        <ele>780.9</ele>
        <time>2023-08-12T11:54:37Z</time>
      </trkpt>
      <trkpt lat="48.08123" lon="7.08657">
        <ele>780.9</ele>
        <time>2023-08-12T11:54:38Z</time>
      </trkpt>
      <trkpt lat="48.08121" lon="7.08659">
        <ele>780.8</ele>
        <time>2023-08-12T11:54:39Z</time>
      </trkpt>
      <trkpt lat="48.0812" lon="7.0866">
        <ele>780.8</ele>
        <time>2023-08-12T11:54:40Z</time>
      </trkpt>
      <trkpt lat="48.08117" lon="7.08663">
        <ele>780.6</ele>
        <time>2023-08-12T11:54:42Z</time>
      </trkpt>
      <trkpt lat="48.08115" lon="7.08665">
        <ele>780.6</ele>
        <time>2023-08-12T11:54:43Z</time>
      </trkpt>
      <trkpt lat="48.08113" lon="7.08666">
        <ele>780.5</ele>
        <time>2023-08-12T11:54:44Z</time>
      </trkpt>
      <trkpt lat="48.08111" lon="7.08668">
        <ele>780.4</ele>
        <time>2023-08-12T11:54:45Z</time>
      </trkpt>
      <trkpt lat="48.08109" lon="7.08669">
        <ele>780.4</ele>
        <time>2023-08-12T11:54:46Z</time>
      </trkpt>
      <trkpt lat="48.08107" lon="7.08671">
        <ele>780.3</ele>
        <time>2023-08-12T11:54:47Z</time>
      </trkpt>
      <trkpt lat="48.08105" lon="7.08672">
        <ele>780.2</ele>
        <time>2023-08-12T11:54:48Z</time>
      </trkpt>
      <trkpt lat="48.08102" lon="7.08675">
        <ele>780.1</ele>
        <time>2023-08-12T11:54:50Z</time>
      </trkpt>
      <trkpt lat="48.08098" lon="7.08677">
        <ele>780</ele>
        <time>2023-08-12T11:54:52Z</time>
      </trkpt>
      <trkpt lat="48.08095" lon="7.0868">
        <ele>779.9</ele>
        <time>2023-08-12T11:54:54Z</time>
      </trkpt>
      <trkpt lat="48.0809" lon="7.08684">
        <ele>779.7</ele>
        <time>2023-08-12T11:54:57Z</time>
      </trkpt>
      <trkpt lat="48.08087" lon="7.08687">
        <ele>779.6</ele>
        <time>2023-08-12T11:54:59Z</time>
      </trkpt>
      <trkpt lat="48.08084" lon="7.08689">
        <ele>779.5</ele>
        <time>2023-08-12T11:55:00Z</time>
      </trkpt>
      <trkpt lat="48.0808" lon="7.08691">
        <ele>779.4</ele>
        <time>2023-08-12T11:55:02Z</time>
      </trkpt>
      <trkpt lat="48.08077" lon="7.08694">
        <ele>779.3</ele>
        <time>2023-08-12T11:55:04Z</time>
      </trkpt>
      <trkpt lat="48.08074" lon="7.08701">
        <ele>779.2</ele>
        <time>2023-08-12T11:55:06Z</time>
      </trkpt>
      <trkpt lat="48.08072" lon="7.08704">
        <ele>779.2</ele>
        <time>2023-08-12T11:55:07Z</time>
      </trkpt>
      <trkpt lat="48.08071" lon="7.08707">
        <ele>779.1</ele>
        <time>2023-08-12T11:55:08Z</time>
      </trkpt>
      <trkpt lat="48.08071" lon="7.08708">
        <ele>779.1</ele>
        <time>2023-08-12T11:55:09Z</time>
      </trkpt>
      <trkpt lat="48.08069" lon="7.0871">
        <ele>779.1</ele>
        <time>2023-08-12T11:55:10Z</time>
      </trkpt>
      <trkpt lat="48.08068" lon="7.08712">
        <ele>779</ele>
        <time>2023-08-12T11:55:11Z</time>
      </trkpt>
      <trkpt lat="48.08067" lon="7.08714">
        <ele>779</ele>
        <time>2023-08-12T11:55:12Z</time>
      </trkpt>
      <trkpt lat="48.08065" lon="7.08718">
        <ele>778.9</ele>
        <time>2023-08-12T11:55:14Z</time>
      </trkpt>
      <trkpt lat="48.08062" lon="7.08725">
        <ele>778.8</ele>
        <time>2023-08-12T11:55:17Z</time>
      </trkpt>
      <trkpt lat="48.0806" lon="7.08734">
        <ele>778.7</ele>
        <time>2023-08-12T11:55:20Z</time>
      </trkpt>
      <trkpt lat="48.08058" lon="7.08739">
        <ele>778.6</ele>
        <time>2023-08-12T11:55:22Z</time>
      </trkpt>
      <trkpt lat="48.08055" lon="7.08746">
        <ele>778.5</ele>
        <time>2023-08-12T11:55:25Z</time>
      </trkpt>
      <trkpt lat="48.08052" lon="7.08754">
        <ele>778.3</ele>
        <time>2023-08-12T11:55:28Z</time>
      </trkpt>
      <trkpt lat="48.0805" lon="7.08756">
        <ele>778.2</ele>
        <time>2023-08-12T11:55:29Z</time>
      </trkpt>
      <trkpt lat="48.08049" lon="7.08759">
        <ele>778.1</ele>
        <time>2023-08-12T11:55:30Z</time>
      </trkpt>
      <trkpt lat="48.08047" lon="7.08763">
        <ele>778</ele>
        <time>2023-08-12T11:55:32Z</time>
      </trkpt>
      <trkpt lat="48.08043" lon="7.0877">
        <ele>777.8</ele>
        <time>2023-08-12T11:55:35Z</time>
      </trkpt>
      <trkpt lat="48.08042" lon="7.08772">
        <ele>777.7</ele>
        <time>2023-08-12T11:55:36Z</time>
      </trkpt>
      <trkpt lat="48.0804" lon="7.08773">
        <ele>777.6</ele>
        <time>2023-08-12T11:55:37Z</time>
      </trkpt>
      <trkpt lat="48.08039" lon="7.08775">
        <ele>777.6</ele>
        <time>2023-08-12T11:55:38Z</time>
      </trkpt>
      <trkpt lat="48.08037" lon="7.08777">
        <ele>777.5</ele>
        <time>2023-08-12T11:55:39Z</time>
      </trkpt>
      <trkpt lat="48.08036" lon="7.0878">
        <ele>777.4</ele>
        <time>2023-08-12T11:55:40Z</time>
      </trkpt>
      <trkpt lat="48.08035" lon="7.08782">
        <ele>777.3</ele>
        <time>2023-08-12T11:55:41Z</time>
      </trkpt>
      <trkpt lat="48.08032" lon="7.08787">
        <ele>777.2</ele>
        <time>2023-08-12T11:55:43Z</time>
      </trkpt>
      <trkpt lat="48.0803" lon="7.08789">
        <ele>777.1</ele>
        <time>2023-08-12T11:55:44Z</time>
      </trkpt>
      <trkpt lat="48.08029" lon="7.08791">
        <ele>777</ele>
        <time>2023-08-12T11:55:45Z</time>
      </trkpt>
      <trkpt lat="48.08023" lon="7.08798">
        <ele>776.7</ele>
        <time>2023-08-12T11:55:49Z</time>
      </trkpt>
      <trkpt lat="48.08018" lon="7.08805">
        <ele>776.5</ele>
        <time>2023-08-12T11:55:52Z</time>
      </trkpt>
      <trkpt lat="48.08014" lon="7.08812">
        <ele>776.3</ele>
        <time>2023-08-12T11:55:55Z</time>
      </trkpt>
      <trkpt lat="48.08012" lon="7.08817">
        <ele>776.2</ele>
        <time>2023-08-12T11:55:57Z</time>
      </trkpt>
      <trkpt lat="48.08011" lon="7.08818">
        <ele>776.2</ele>
        <time>2023-08-12T11:55:58Z</time>
      </trkpt>
      <trkpt lat="48.08009" lon="7.08821">
        <ele>776.2</ele>
        <time>2023-08-12T11:55:59Z</time>
      </trkpt>
      <trkpt lat="48.08008" lon="7.08823">
        <ele>776.1</ele>
        <time>2023-08-12T11:56:00Z</time>
      </trkpt>
      <trkpt lat="48.08008" lon="7.08825">
        <ele>776.1</ele>
        <time>2023-08-12T11:56:01Z</time>
      </trkpt>
      <trkpt lat="48.08007" lon="7.08827">
        <ele>776.1</ele>
        <time>2023-08-12T11:56:02Z</time>
      </trkpt>
      <trkpt lat="48.08005" lon="7.0883">
        <ele>776</ele>
        <time>2023-08-12T11:56:03Z</time>
      </trkpt>
      <trkpt lat="48.08004" lon="7.08833">
        <ele>776</ele>
        <time>2023-08-12T11:56:04Z</time>
      </trkpt>
      <trkpt lat="48.08003" lon="7.08835">
        <ele>775.9</ele>
        <time>2023-08-12T11:56:05Z</time>
      </trkpt>
      <trkpt lat="48.08" lon="7.0884">
        <ele>775.8</ele>
        <time>2023-08-12T11:56:08Z</time>
      </trkpt>
      <trkpt lat="48.07998" lon="7.08843">
        <ele>775.8</ele>
        <time>2023-08-12T11:56:09Z</time>
      </trkpt>
      <trkpt lat="48.0799" lon="7.08858">
        <ele>775.5</ele>
        <time>2023-08-12T11:56:16Z</time>
      </trkpt>
      <trkpt lat="48.07987" lon="7.08863">
        <ele>775.4</ele>
        <time>2023-08-12T11:56:18Z</time>
      </trkpt>
      <trkpt lat="48.07986" lon="7.08865">
        <ele>775.3</ele>
        <time>2023-08-12T11:56:19Z</time>
      </trkpt>
      <trkpt lat="48.07984" lon="7.0887">
        <ele>775.2</ele>
        <time>2023-08-12T11:56:21Z</time>
      </trkpt>
      <trkpt lat="48.07976" lon="7.08885">
        <ele>774.8</ele>
        <time>2023-08-12T11:56:27Z</time>
      </trkpt>
      <trkpt lat="48.07975" lon="7.08887">
        <ele>774.7</ele>
        <time>2023-08-12T11:56:28Z</time>
      </trkpt>
      <trkpt lat="48.0797" lon="7.08894">
        <ele>774.5</ele>
        <time>2023-08-12T11:56:31Z</time>
      </trkpt>
      <trkpt lat="48.07967" lon="7.08902">
        <ele>774.3</ele>
        <time>2023-08-12T11:56:34Z</time>
      </trkpt>
      <trkpt lat="48.07964" lon="7.08907">
        <ele>774.2</ele>
        <time>2023-08-12T11:56:36Z</time>
      </trkpt>
      <trkpt lat="48.07962" lon="7.08912">
        <ele>774.1</ele>
        <time>2023-08-12T11:56:38Z</time>
      </trkpt>
      <trkpt lat="48.07961" lon="7.08914">
        <ele>774</ele>
        <time>2023-08-12T11:56:39Z</time>
      </trkpt>
      <trkpt lat="48.07958" lon="7.08918">
        <ele>773.9</ele>
        <time>2023-08-12T11:56:41Z</time>
      </trkpt>
      <trkpt lat="48.07953" lon="7.08928">
        <ele>773.8</ele>
        <time>2023-08-12T11:56:45Z</time>
      </trkpt>
      <trkpt lat="48.07952" lon="7.0893">
        <ele>773.8</ele>
        <time>2023-08-12T11:56:46Z</time>
      </trkpt>
      <trkpt lat="48.07949" lon="7.08935">
        <ele>773.7</ele>
        <time>2023-08-12T11:56:48Z</time>
      </trkpt>
      <trkpt lat="48.07948" lon="7.08936">
        <ele>773.7</ele>
        <time>2023-08-12T11:56:49Z</time>
      </trkpt>
      <trkpt lat="48.07947" lon="7.08938">
        <ele>773.7</ele>
        <time>2023-08-12T11:56:50Z</time>
      </trkpt>
      <trkpt lat="48.07944" lon="7.08942">
        <ele>773.6</ele>
        <time>2023-08-12T11:56:52Z</time>
      </trkpt>
      <trkpt lat="48.07942" lon="7.08946">
        <ele>773.6</ele>
        <time>2023-08-12T11:56:54Z</time>
      </trkpt>
      <trkpt lat="48.0794" lon="7.08949">
        <ele>773.6</ele>
        <time>2023-08-12T11:56:55Z</time>
      </trkpt>
      <trkpt lat="48.07937" lon="7.08954">
        <ele>773.5</ele>
        <time>2023-08-12T11:56:58Z</time>
      </trkpt>
      <trkpt lat="48.07935" lon="7.08956">
        <ele>773.5</ele>
        <time>2023-08-12T11:56:59Z</time>
      </trkpt>
      <trkpt lat="48.07931" lon="7.08962">
        <ele>773.4</ele>
        <time>2023-08-12T11:57:02Z</time>
      </trkpt>
      <trkpt lat="48.07926" lon="7.08971">
        <ele>773.3</ele>
        <time>2023-08-12T11:57:06Z</time>
      </trkpt>
      <trkpt lat="48.07925" lon="7.08973">
        <ele>773.3</ele>
        <time>2023-08-12T11:57:07Z</time>
      </trkpt>
      <trkpt lat="48.07923" lon="7.08978">
        <ele>773.2</ele>
        <time>2023-08-12T11:57:09Z</time>
      </trkpt>
      <trkpt lat="48.07917" lon="7.08986">
        <ele>772.9</ele>
        <time>2023-08-12T11:57:13Z</time>
      </trkpt>
      <trkpt lat="48.07914" lon="7.08991">
        <ele>772.7</ele>
        <time>2023-08-12T11:57:15Z</time>
      </trkpt>
      <trkpt lat="48.07911" lon="7.08996">
        <ele>772.5</ele>
        <time>2023-08-12T11:57:17Z</time>
      </trkpt>
      <trkpt lat="48.07904" lon="7.09005">
        <ele>772.1</ele>
        <time>2023-08-12T11:57:21Z</time>
      </trkpt>
      <trkpt lat="48.07901" lon="7.0901">
        <ele>772.1</ele>
        <time>2023-08-12T11:57:23Z</time>
      </trkpt>
      <trkpt lat="48.079" lon="7.09012">
        <ele>772.3</ele>
        <time>2023-08-12T11:57:24Z</time>
      </trkpt>
      <trkpt lat="48.07895" lon="7.09018">
        <ele>772.8</ele>
        <time>2023-08-12T11:57:27Z</time>
      </trkpt>
      <trkpt lat="48.07894" lon="7.0902">
        <ele>773</ele>
        <time>2023-08-12T11:57:28Z</time>
      </trkpt>
      <trkpt lat="48.07892" lon="7.09022">
        <ele>773.2</ele>
        <time>2023-08-12T11:57:29Z</time>
      </trkpt>
      <trkpt lat="48.07891" lon="7.09025">
        <ele>773.4</ele>
        <time>2023-08-12T11:57:30Z</time>
      </trkpt>
      <trkpt lat="48.0789" lon="7.09027">
        <ele>773.5</ele>
        <time>2023-08-12T11:57:31Z</time>
      </trkpt>
      <trkpt lat="48.07889" lon="7.09029">
        <ele>773.6</ele>
        <time>2023-08-12T11:57:32Z</time>
      </trkpt>
      <trkpt lat="48.07888" lon="7.09031">
        <ele>773.8</ele>
        <time>2023-08-12T11:57:33Z</time>
      </trkpt>
      <trkpt lat="48.07887" lon="7.09034">
        <ele>773.9</ele>
        <time>2023-08-12T11:57:34Z</time>
      </trkpt>
      <trkpt lat="48.07886" lon="7.09036">
        <ele>774.1</ele>
        <time>2023-08-12T11:57:35Z</time>
      </trkpt>
      <trkpt lat="48.07884" lon="7.09038">
        <ele>774.3</ele>
        <time>2023-08-12T11:57:36Z</time>
      </trkpt>
      <trkpt lat="48.07881" lon="7.09044">
        <ele>774.7</ele>
        <time>2023-08-12T11:57:39Z</time>
      </trkpt>
      <trkpt lat="48.0788" lon="7.09046">
        <ele>774.8</ele>
        <time>2023-08-12T11:57:40Z</time>
      </trkpt>
      <trkpt lat="48.07878" lon="7.09048">
        <ele>775</ele>
        <time>2023-08-12T11:57:41Z</time>
      </trkpt>
      <trkpt lat="48.07868" lon="7.09061">
        <ele>776.1</ele>
        <time>2023-08-12T11:57:47Z</time>
      </trkpt>
      <trkpt lat="48.07863" lon="7.09067">
        <ele>776.6</ele>
        <time>2023-08-12T11:57:50Z</time>
      </trkpt>
      <trkpt lat="48.07857" lon="7.09072">
        <ele>777.2</ele>
        <time>2023-08-12T11:57:53Z</time>
      </trkpt>
      <trkpt lat="48.07856" lon="7.09073">
        <ele>777.3</ele>
        <time>2023-08-12T11:57:54Z</time>
      </trkpt>
      <trkpt lat="48.07854" lon="7.09074">
        <ele>777.5</ele>
        <time>2023-08-12T11:57:55Z</time>
      </trkpt>
      <trkpt lat="48.07852" lon="7.09075">
        <ele>777.7</ele>
        <time>2023-08-12T11:57:56Z</time>
      </trkpt>
      <trkpt lat="48.07849" lon="7.09076">
        <ele>777.9</ele>
        <time>2023-08-12T11:57:57Z</time>
      </trkpt>
      <trkpt lat="48.07841" lon="7.09075">
        <ele>778.9</ele>
        <time>2023-08-12T11:58:02Z</time>
      </trkpt>
      <trkpt lat="48.0784" lon="7.09075">
        <ele>778.9</ele>
        <time>2023-08-12T11:58:03Z</time>
      </trkpt>
      <trkpt lat="48.07829" lon="7.09078">
        <ele>780</ele>
        <time>2023-08-12T11:58:08Z</time>
      </trkpt>
      <trkpt lat="48.07826" lon="7.09081">
        <ele>780.4</ele>
        <time>2023-08-12T11:58:10Z</time>
      </trkpt>
      <trkpt lat="48.07824" lon="7.09083">
        <ele>780.6</ele>
        <time>2023-08-12T11:58:11Z</time>
      </trkpt>
      <trkpt lat="48.07823" lon="7.09085">
        <ele>780.8</ele>
        <time>2023-08-12T11:58:12Z</time>
      </trkpt>
      <trkpt lat="48.07821" lon="7.09087">
        <ele>781</ele>
        <time>2023-08-12T11:58:13Z</time>
      </trkpt>
      <trkpt lat="48.07818" lon="7.0909">
        <ele>781.4</ele>
        <time>2023-08-12T11:58:15Z</time>
      </trkpt>
      <trkpt lat="48.07817" lon="7.09091">
        <ele>781.5</ele>
        <time>2023-08-12T11:58:16Z</time>
      </trkpt>
      <trkpt lat="48.07816" lon="7.09093">
        <ele>781.7</ele>
        <time>2023-08-12T11:58:17Z</time>
      </trkpt>
      <trkpt lat="48.07814" lon="7.09094">
        <ele>781.9</ele>
        <time>2023-08-12T11:58:18Z</time>
      </trkpt>
      <trkpt lat="48.07813" lon="7.09096">
        <ele>782.1</ele>
        <time>2023-08-12T11:58:19Z</time>
      </trkpt>
      <trkpt lat="48.07811" lon="7.09098">
        <ele>782.3</ele>
        <time>2023-08-12T11:58:20Z</time>
      </trkpt>
      <trkpt lat="48.0781" lon="7.091">
        <ele>782.6</ele>
        <time>2023-08-12T11:58:21Z</time>
      </trkpt>
      <trkpt lat="48.07805" lon="7.09107">
        <ele>783.2</ele>
        <time>2023-08-12T11:58:24Z</time>
      </trkpt>
      <trkpt lat="48.07798" lon="7.09113">
        <ele>784</ele>
        <time>2023-08-12T11:58:27Z</time>
      </trkpt>
      <trkpt lat="48.07786" lon="7.09121">
        <ele>785.4</ele>
        <time>2023-08-12T11:58:34Z</time>
      </trkpt>
      <trkpt lat="48.07784" lon="7.09122">
        <ele>785.6</ele>
        <time>2023-08-12T11:58:35Z</time>
      </trkpt>
      <trkpt lat="48.07772" lon="7.09129">
        <ele>787</ele>
        <time>2023-08-12T11:58:41Z</time>
      </trkpt>
      <trkpt lat="48.07764" lon="7.09133">
        <ele>788</ele>
        <time>2023-08-12T11:58:45Z</time>
      </trkpt>
      <trkpt lat="48.0776" lon="7.09134">
        <ele>788.4</ele>
        <time>2023-08-12T11:58:47Z</time>
      </trkpt>
      <trkpt lat="48.07758" lon="7.09134">
        <ele>788.6</ele>
        <time>2023-08-12T11:58:48Z</time>
      </trkpt>
      <trkpt lat="48.07757" lon="7.09135">
        <ele>788.8</ele>
        <time>2023-08-12T11:58:49Z</time>
      </trkpt>
      <trkpt lat="48.07744" lon="7.09138">
        <ele>790.2</ele>
        <time>2023-08-12T11:58:55Z</time>
      </trkpt>
      <trkpt lat="48.07742" lon="7.09138">
        <ele>790.4</ele>
        <time>2023-08-12T11:58:56Z</time>
      </trkpt>
      <trkpt lat="48.0774" lon="7.09139">
        <ele>790.6</ele>
        <time>2023-08-12T11:58:57Z</time>
      </trkpt>
      <trkpt lat="48.07735" lon="7.0914">
        <ele>791.3</ele>
        <time>2023-08-12T11:59:00Z</time>
      </trkpt>
      <trkpt lat="48.07733" lon="7.0914">
        <ele>791.5</ele>
        <time>2023-08-12T11:59:01Z</time>
      </trkpt>
      <trkpt lat="48.07731" lon="7.0914">
        <ele>791.7</ele>
        <time>2023-08-12T11:59:02Z</time>
      </trkpt>
      <trkpt lat="48.0773" lon="7.0914">
        <ele>791.9</ele>
        <time>2023-08-12T11:59:03Z</time>
      </trkpt>
      <trkpt lat="48.07728" lon="7.09141">
        <ele>792.1</ele>
        <time>2023-08-12T11:59:04Z</time>
      </trkpt>
      <trkpt lat="48.07712" lon="7.09143">
        <ele>793.9</ele>
        <time>2023-08-12T11:59:12Z</time>
      </trkpt>
      <trkpt lat="48.07711" lon="7.09143">
        <ele>794.1</ele>
        <time>2023-08-12T11:59:13Z</time>
      </trkpt>
      <trkpt lat="48.07703" lon="7.09145">
        <ele>795</ele>
        <time>2023-08-12T11:59:17Z</time>
      </trkpt>
      <trkpt lat="48.07702" lon="7.09145">
        <ele>795.2</ele>
        <time>2023-08-12T11:59:18Z</time>
      </trkpt>
      <trkpt lat="48.077" lon="7.09146">
        <ele>795.5</ele>
        <time>2023-08-12T11:59:19Z</time>
      </trkpt>
      <trkpt lat="48.07688" lon="7.09148">
        <ele>796.8</ele>
        <time>2023-08-12T11:59:25Z</time>
      </trkpt>
      <trkpt lat="48.07676" lon="7.09146">
        <ele>798.1</ele>
        <time>2023-08-12T11:59:31Z</time>
      </trkpt>
      <trkpt lat="48.0767" lon="7.09145">
        <ele>798.8</ele>
        <time>2023-08-12T11:59:34Z</time>
      </trkpt>
      <trkpt lat="48.07667" lon="7.09143">
        <ele>799.2</ele>
        <time>2023-08-12T11:59:36Z</time>
      </trkpt>
      <trkpt lat="48.07661" lon="7.09141">
        <ele>799.9</ele>
        <time>2023-08-12T11:59:39Z</time>
      </trkpt>
      <trkpt lat="48.0766" lon="7.0914">
        <ele>800</ele>
        <time>2023-08-12T11:59:40Z</time>
      </trkpt>
      <trkpt lat="48.07656" lon="7.09138">
        <ele>800.4</ele>
        <time>2023-08-12T11:59:42Z</time>
      </trkpt>
      <trkpt lat="48.07654" lon="7.09137">
        <ele>800.6</ele>
        <time>2023-08-12T11:59:43Z</time>
      </trkpt>
      <trkpt lat="48.07645" lon="7.0913">
        <ele>801.4</ele>
        <time>2023-08-12T11:59:48Z</time>
      </trkpt>
      <trkpt lat="48.07643" lon="7.09128">
        <ele>801.6</ele>
        <time>2023-08-12T11:59:49Z</time>
      </trkpt>
      <trkpt lat="48.07639" lon="7.09125">
        <ele>802.2</ele>
        <time>2023-08-12T11:59:51Z</time>
      </trkpt>
      <trkpt lat="48.07634" lon="7.09121">
        <ele>803.2</ele>
        <time>2023-08-12T11:59:54Z</time>
      </trkpt>
      <trkpt lat="48.07629" lon="7.09117">
        <ele>804.4</ele>
        <time>2023-08-12T11:59:57Z</time>
      </trkpt>
      <trkpt lat="48.07624" lon="7.09113">
        <ele>805.3</ele>
        <time>2023-08-12T12:00:00Z</time>
      </trkpt>
      <trkpt lat="48.07619" lon="7.09108">
        <ele>806.4</ele>
        <time>2023-08-12T12:00:03Z</time>
      </trkpt>
      <trkpt lat="48.07617" lon="7.09106">
        <ele>806.8</ele>
        <time>2023-08-12T12:00:04Z</time>
      </trkpt>
      <trkpt lat="48.07616" lon="7.09104">
        <ele>807.2</ele>
        <time>2023-08-12T12:00:06Z</time>
      </trkpt>
      <trkpt lat="48.07614" lon="7.09103">
        <ele>807.4</ele>
        <time>2023-08-12T12:00:07Z</time>
      </trkpt>
      <trkpt lat="48.07614" lon="7.09103">
        <ele>807.6</ele>
        <time>2023-08-12T12:00:08Z</time>
      </trkpt>
      <trkpt lat="48.07613" lon="7.09102">
        <ele>807.7</ele>
        <time>2023-08-12T12:00:09Z</time>
      </trkpt>
      <trkpt lat="48.07613" lon="7.09102">
        <ele>807.7</ele>
        <time>2023-08-12T12:00:11Z</time>
      </trkpt>
      <trkpt lat="48.07613" lon="7.09102">
        <ele>807.7</ele>
        <time>2023-08-12T12:00:12Z</time>
      </trkpt>
      <trkpt lat="48.07613" lon="7.09102">
        <ele>807.7</ele>
        <time>2023-08-12T12:00:18Z</time>
      </trkpt>
      <trkpt lat="48.07613" lon="7.09101">
        <ele>807.8</ele>
        <time>2023-08-12T12:00:23Z</time>
      </trkpt>
      <trkpt lat="48.07613" lon="7.09101">
        <ele>807.8</ele>
        <time>2023-08-12T12:00:27Z</time>
      </trkpt>
      <trkpt lat="48.07613" lon="7.09101">
        <ele>807.8</ele>
        <time>2023-08-12T12:00:43Z</time>
      </trkpt>
      <trkpt lat="48.07613" lon="7.09101">
        <ele>807.8</ele>
        <time>2023-08-12T12:00:55Z</time>
      </trkpt>
      <trkpt lat="48.07613" lon="7.09101">
        <ele>807.8</ele>
        <time>2023-08-12T12:01:02Z</time>
      </trkpt>
      <trkpt lat="48.07613" lon="7.09101">
        <ele>807.8</ele>
        <time>2023-08-12T12:01:07Z</time>
      </trkpt>
      <trkpt lat="48.07613" lon="7.09101">
        <ele>807.8</ele>
        <time>2023-08-12T12:01:11Z</time>
      </trkpt>
      <trkpt lat="48.07613" lon="7.09101">
        <ele>807.8</ele>
        <time>2023-08-12T12:01:18Z</time>
      </trkpt>
      <trkpt lat="48.07613" lon="7.09101">
        <ele>807.8</ele>
        <time>2023-08-12T12:01:23Z</time>
      </trkpt>
      <trkpt lat="48.07613" lon="7.09101">
        <ele>807.8</ele>
        <time>2023-08-12T12:01:30Z</time>
      </trkpt>
      <trkpt lat="48.07613" lon="7.09101">
        <ele>807.8</ele>
        <time>2023-08-12T12:01:35Z</time>
      </trkpt>
      <trkpt lat="48.07613" lon="7.09101">
        <ele>807.8</ele>
        <time>2023-08-12T12:01:40Z</time>
      </trkpt>
      <trkpt lat="48.07613" lon="7.09101">
        <ele>807.8</ele>
        <time>2023-08-12T12:01:44Z</time>
      </trkpt>
      <trkpt lat="48.07613" lon="7.09101">
        <ele>807.8</ele>
        <time>2023-08-12T12:01:50Z</time>
      </trkpt>
      <trkpt lat="48.07613" lon="7.09101">
        <ele>807.8</ele>
        <time>2023-08-12T12:01:56Z</time>
      </trkpt>
      <trkpt lat="48.07613" lon="7.09101">
        <ele>807.8</ele>
        <time>2023-08-12T12:02:06Z</time>
      </trkpt>
      <trkpt lat="48.07613" lon="7.09101">
        <ele>807.8</ele>
        <time>2023-08-12T12:02:10Z</time>
      </trkpt>
      <trkpt lat="48.07612" lon="7.09101">
        <ele>808.1</ele>
        <time>2023-08-12T12:02:11Z</time>
      </trkpt>
      <trkpt lat="48.0761" lon="7.09101">
        <ele>808.4</ele>
        <time>2023-08-12T12:02:12Z</time>
      </trkpt>
      <trkpt lat="48.07608" lon="7.091">
        <ele>808.7</ele>
        <time>2023-08-12T12:02:13Z</time>
      </trkpt>
      <trkpt lat="48.07607" lon="7.09098">
        <ele>809</ele>
        <time>2023-08-12T12:02:14Z</time>
      </trkpt>
      <trkpt lat="48.07605" lon="7.09097">
        <ele>809.4</ele>
        <time>2023-08-12T12:02:15Z</time>
      </trkpt>
      <trkpt lat="48.07603" lon="7.09096">
        <ele>809.6</ele>
        <time>2023-08-12T12:02:16Z</time>
      </trkpt>
      <trkpt lat="48.07601" lon="7.09094">
        <ele>809.8</ele>
        <time>2023-08-12T12:02:17Z</time>
      </trkpt>
      <trkpt lat="48.076" lon="7.09093">
        <ele>810</ele>
        <time>2023-08-12T12:02:18Z</time>
      </trkpt>
      <trkpt lat="48.07598" lon="7.09092">
        <ele>810.2</ele>
        <time>2023-08-12T12:02:19Z</time>
      </trkpt>
      <trkpt lat="48.07596" lon="7.0909">
        <ele>810.3</ele>
        <time>2023-08-12T12:02:20Z</time>
      </trkpt>
      <trkpt lat="48.07594" lon="7.09089">
        <ele>810.5</ele>
        <time>2023-08-12T12:02:21Z</time>
      </trkpt>
      <trkpt lat="48.07589" lon="7.09086">
        <ele>811</ele>
        <time>2023-08-12T12:02:24Z</time>
      </trkpt>
      <trkpt lat="48.07584" lon="7.09081">
        <ele>811.4</ele>
        <time>2023-08-12T12:02:27Z</time>
      </trkpt>
      <trkpt lat="48.07583" lon="7.0908">
        <ele>811.6</ele>
        <time>2023-08-12T12:02:28Z</time>
      </trkpt>
      <trkpt lat="48.0758" lon="7.09077">
        <ele>811.9</ele>
        <time>2023-08-12T12:02:30Z</time>
      </trkpt>
      <trkpt lat="48.07578" lon="7.09076">
        <ele>812.1</ele>
        <time>2023-08-12T12:02:31Z</time>
      </trkpt>
      <trkpt lat="48.07576" lon="7.09075">
        <ele>812.2</ele>
        <time>2023-08-12T12:02:32Z</time>
      </trkpt>
      <trkpt lat="48.07575" lon="7.09074">
        <ele>812.3</ele>
        <time>2023-08-12T12:02:33Z</time>
      </trkpt>
      <trkpt lat="48.07574" lon="7.09073">
        <ele>812.5</ele>
        <time>2023-08-12T12:02:34Z</time>
      </trkpt>
      <trkpt lat="48.07572" lon="7.09072">
        <ele>812.6</ele>
        <time>2023-08-12T12:02:35Z</time>
      </trkpt>
      <trkpt lat="48.07571" lon="7.09071">
        <ele>812.7</ele>
        <time>2023-08-12T12:02:36Z</time>
      </trkpt>
      <trkpt lat="48.07569" lon="7.0907">
        <ele>812.9</ele>
        <time>2023-08-12T12:02:37Z</time>
      </trkpt>
      <trkpt lat="48.07562" lon="7.09065">
        <ele>813.5</ele>
        <time>2023-08-12T12:02:41Z</time>
      </trkpt>
      <trkpt lat="48.0756" lon="7.09064">
        <ele>813.7</ele>
        <time>2023-08-12T12:02:42Z</time>
      </trkpt>
      <trkpt lat="48.07555" lon="7.09062">
        <ele>814.1</ele>
        <time>2023-08-12T12:02:45Z</time>
      </trkpt>
      <trkpt lat="48.07546" lon="7.09055">
        <ele>815</ele>
        <time>2023-08-12T12:02:50Z</time>
      </trkpt>
      <trkpt lat="48.07545" lon="7.09054">
        <ele>815.2</ele>
        <time>2023-08-12T12:02:51Z</time>
      </trkpt>
      <trkpt lat="48.07539" lon="7.09049">
        <ele>815.8</ele>
        <time>2023-08-12T12:02:55Z</time>
      </trkpt>
      <trkpt lat="48.07535" lon="7.09047">
        <ele>816.1</ele>
        <time>2023-08-12T12:02:57Z</time>
      </trkpt>
      <trkpt lat="48.07533" lon="7.09046">
        <ele>816.3</ele>
        <time>2023-08-12T12:02:59Z</time>
      </trkpt>
      <trkpt lat="48.07532" lon="7.09045">
        <ele>816.4</ele>
        <time>2023-08-12T12:03:00Z</time>
      </trkpt>
      <trkpt lat="48.07531" lon="7.09044">
        <ele>816.6</ele>
        <time>2023-08-12T12:03:01Z</time>
      </trkpt>
      <trkpt lat="48.07528" lon="7.09043">
        <ele>816.8</ele>
        <time>2023-08-12T12:03:03Z</time>
      </trkpt>
      <trkpt lat="48.07513" lon="7.09034">
        <ele>818.3</ele>
        <time>2023-08-12T12:03:11Z</time>
      </trkpt>
      <trkpt lat="48.07503" lon="7.09027">
        <ele>819.3</ele>
        <time>2023-08-12T12:03:17Z</time>
      </trkpt>
      <trkpt lat="48.07501" lon="7.09026">
        <ele>819.5</ele>
        <time>2023-08-12T12:03:18Z</time>
      </trkpt>
      <trkpt lat="48.07499" lon="7.09026">
        <ele>819.6</ele>
        <time>2023-08-12T12:03:19Z</time>
      </trkpt>
      <trkpt lat="48.07497" lon="7.09025">
        <ele>819.8</ele>
        <time>2023-08-12T12:03:20Z</time>
      </trkpt>
      <trkpt lat="48.07495" lon="7.09025">
        <ele>819.8</ele>
        <time>2023-08-12T12:03:21Z</time>
      </trkpt>
      <trkpt lat="48.07494" lon="7.09024">
        <ele>819.8</ele>
        <time>2023-08-12T12:03:22Z</time>
      </trkpt>
      <trkpt lat="48.07493" lon="7.09024">
        <ele>819.8</ele>
        <time>2023-08-12T12:03:23Z</time>
      </trkpt>
      <trkpt lat="48.0749" lon="7.09021">
        <ele>819.8</ele>
        <time>2023-08-12T12:03:25Z</time>
      </trkpt>
      <trkpt lat="48.07485" lon="7.09019">
        <ele>820.2</ele>
        <time>2023-08-12T12:03:27Z</time>
      </trkpt>
      <trkpt lat="48.07479" lon="7.09015">
        <ele>820.8</ele>
        <time>2023-08-12T12:03:31Z</time>
      </trkpt>
      <trkpt lat="48.07477" lon="7.09014">
        <ele>821</ele>
        <time>2023-08-12T12:03:32Z</time>
      </trkpt>
      <trkpt lat="48.07476" lon="7.09013">
        <ele>821.1</ele>
        <time>2023-08-12T12:03:33Z</time>
      </trkpt>
      <trkpt lat="48.07473" lon="7.09012">
        <ele>821.4</ele>
        <time>2023-08-12T12:03:35Z</time>
      </trkpt>
      <trkpt lat="48.07471" lon="7.09012">
        <ele>821.5</ele>
        <time>2023-08-12T12:03:36Z</time>
      </trkpt>
      <trkpt lat="48.0747" lon="7.09011">
        <ele>821.6</ele>
        <time>2023-08-12T12:03:37Z</time>
      </trkpt>
      <trkpt lat="48.07468" lon="7.09011">
        <ele>821.8</ele>
        <time>2023-08-12T12:03:38Z</time>
      </trkpt>
      <trkpt lat="48.07467" lon="7.0901">
        <ele>821.9</ele>
        <time>2023-08-12T12:03:39Z</time>
      </trkpt>
      <trkpt lat="48.07466" lon="7.09009">
        <ele>822</ele>
        <time>2023-08-12T12:03:40Z</time>
      </trkpt>
      <trkpt lat="48.07464" lon="7.09008">
        <ele>822.2</ele>
        <time>2023-08-12T12:03:41Z</time>
      </trkpt>
      <trkpt lat="48.07461" lon="7.09006">
        <ele>822.5</ele>
        <time>2023-08-12T12:03:43Z</time>
      </trkpt>
      <trkpt lat="48.07459" lon="7.09004">
        <ele>822.6</ele>
        <time>2023-08-12T12:03:44Z</time>
      </trkpt>
      <trkpt lat="48.07455" lon="7.09003">
        <ele>823</ele>
        <time>2023-08-12T12:03:46Z</time>
      </trkpt>
      <trkpt lat="48.07448" lon="7.09001">
        <ele>823.6</ele>
        <time>2023-08-12T12:03:50Z</time>
      </trkpt>
      <trkpt lat="48.07446" lon="7.09001">
        <ele>823.8</ele>
        <time>2023-08-12T12:03:51Z</time>
      </trkpt>
      <trkpt lat="48.07439" lon="7.08998">
        <ele>824.4</ele>
        <time>2023-08-12T12:03:55Z</time>
      </trkpt>
      <trkpt lat="48.07437" lon="7.08998">
        <ele>824.6</ele>
        <time>2023-08-12T12:03:56Z</time>
      </trkpt>
      <trkpt lat="48.07435" lon="7.08998">
        <ele>824.7</ele>
        <time>2023-08-12T12:03:57Z</time>
      </trkpt>
      <trkpt lat="48.07434" lon="7.08997">
        <ele>824.8</ele>
        <time>2023-08-12T12:03:58Z</time>
      </trkpt>
      <trkpt lat="48.07433" lon="7.08996">
        <ele>825</ele>
        <time>2023-08-12T12:03:59Z</time>
      </trkpt>
      <trkpt lat="48.0743" lon="7.08996">
        <ele>825.3</ele>
        <time>2023-08-12T12:04:00Z</time>
      </trkpt>
      <trkpt lat="48.07424" lon="7.08996">
        <ele>825.7</ele>
        <time>2023-08-12T12:04:02Z</time>
      </trkpt>
      <trkpt lat="48.0742" lon="7.08995">
        <ele>826</ele>
        <time>2023-08-12T12:04:04Z</time>
      </trkpt>
      <trkpt lat="48.07418" lon="7.08993">
        <ele>826.2</ele>
        <time>2023-08-12T12:04:05Z</time>
      </trkpt>
      <trkpt lat="48.07416" lon="7.08991">
        <ele>826.4</ele>
        <time>2023-08-12T12:04:06Z</time>
      </trkpt>
      <trkpt lat="48.07415" lon="7.0899">
        <ele>826.5</ele>
        <time>2023-08-12T12:04:07Z</time>
      </trkpt>
      <trkpt lat="48.0741" lon="7.0899">
        <ele>826.9</ele>
        <time>2023-08-12T12:04:09Z</time>
      </trkpt>
      <trkpt lat="48.07407" lon="7.0899">
        <ele>827.1</ele>
        <time>2023-08-12T12:04:10Z</time>
      </trkpt>
      <trkpt lat="48.07405" lon="7.08992">
        <ele>827.3</ele>
        <time>2023-08-12T12:04:11Z</time>
      </trkpt>
      <trkpt lat="48.07403" lon="7.08992">
        <ele>827.4</ele>
        <time>2023-08-12T12:04:12Z</time>
      </trkpt>
      <trkpt lat="48.07402" lon="7.08991">
        <ele>827.6</ele>
        <time>2023-08-12T12:04:13Z</time>
      </trkpt>
      <trkpt lat="48.074" lon="7.08993">
        <ele>827.7</ele>
        <time>2023-08-12T12:04:14Z</time>
      </trkpt>
      <trkpt lat="48.07397" lon="7.08992">
        <ele>828</ele>
        <time>2023-08-12T12:04:15Z</time>
      </trkpt>
      <trkpt lat="48.07395" lon="7.08991">
        <ele>828.2</ele>
        <time>2023-08-12T12:04:16Z</time>
      </trkpt>
      <trkpt lat="48.07393" lon="7.08991">
        <ele>828.4</ele>
        <time>2023-08-12T12:04:17Z</time>
      </trkpt>
      <trkpt lat="48.07394" lon="7.08991">
        <ele>828.4</ele>
        <time>2023-08-12T12:04:18Z</time>
      </trkpt>
      <trkpt lat="48.07392" lon="7.0899">
        <ele>828.6</ele>
        <time>2023-08-12T12:04:19Z</time>
      </trkpt>
      <trkpt lat="48.07391" lon="7.08989">
        <ele>828.7</ele>
        <time>2023-08-12T12:04:20Z</time>
      </trkpt>
      <trkpt lat="48.07389" lon="7.08988">
        <ele>828.9</ele>
        <time>2023-08-12T12:04:21Z</time>
      </trkpt>
      <trkpt lat="48.07388" lon="7.08987">
        <ele>829</ele>
        <time>2023-08-12T12:04:22Z</time>
      </trkpt>
      <trkpt lat="48.07387" lon="7.08986">
        <ele>829.1</ele>
        <time>2023-08-12T12:04:23Z</time>
      </trkpt>
      <trkpt lat="48.07386" lon="7.08986">
        <ele>829.2</ele>
        <time>2023-08-12T12:04:24Z</time>
      </trkpt>
      <trkpt lat="48.07385" lon="7.08985">
        <ele>829.3</ele>
        <time>2023-08-12T12:04:25Z</time>
      </trkpt>
      <trkpt lat="48.07384" lon="7.08984">
        <ele>829.5</ele>
        <time>2023-08-12T12:04:26Z</time>
      </trkpt>
      <trkpt lat="48.07382" lon="7.08984">
        <ele>829.6</ele>
        <time>2023-08-12T12:04:27Z</time>
      </trkpt>
      <trkpt lat="48.07381" lon="7.08983">
        <ele>829.8</ele>
        <time>2023-08-12T12:04:28Z</time>
      </trkpt>
      <trkpt lat="48.07379" lon="7.08983">
        <ele>829.9</ele>
        <time>2023-08-12T12:04:29Z</time>
      </trkpt>
      <trkpt lat="48.07379" lon="7.08982">
        <ele>830</ele>
        <time>2023-08-12T12:04:30Z</time>
      </trkpt>
      <trkpt lat="48.07377" lon="7.08981">
        <ele>830.2</ele>
        <time>2023-08-12T12:04:31Z</time>
      </trkpt>
      <trkpt lat="48.07375" lon="7.0898">
        <ele>830.4</ele>
        <time>2023-08-12T12:04:32Z</time>
      </trkpt>
      <trkpt lat="48.07373" lon="7.08979">
        <ele>830.6</ele>
        <time>2023-08-12T12:04:33Z</time>
      </trkpt>
      <trkpt lat="48.07371" lon="7.08978">
        <ele>830.7</ele>
        <time>2023-08-12T12:04:34Z</time>
      </trkpt>
      <trkpt lat="48.07369" lon="7.08978">
        <ele>830.9</ele>
        <time>2023-08-12T12:04:35Z</time>
      </trkpt>
      <trkpt lat="48.07367" lon="7.08978">
        <ele>831.1</ele>
        <time>2023-08-12T12:04:36Z</time>
      </trkpt>
      <trkpt lat="48.07366" lon="7.08977">
        <ele>831.2</ele>
        <time>2023-08-12T12:04:37Z</time>
      </trkpt>
      <trkpt lat="48.07364" lon="7.08976">
        <ele>831.3</ele>
        <time>2023-08-12T12:04:38Z</time>
      </trkpt>
      <trkpt lat="48.07362" lon="7.08975">
        <ele>831.5</ele>
        <time>2023-08-12T12:04:39Z</time>
      </trkpt>
      <trkpt lat="48.0736" lon="7.08974">
        <ele>831.7</ele>
        <time>2023-08-12T12:04:40Z</time>
      </trkpt>
      <trkpt lat="48.07358" lon="7.08972">
        <ele>831.9</ele>
        <time>2023-08-12T12:04:41Z</time>
      </trkpt>
      <trkpt lat="48.07356" lon="7.0897">
        <ele>832</ele>
        <time>2023-08-12T12:04:42Z</time>
      </trkpt>
      <trkpt lat="48.07354" lon="7.08968">
        <ele>832.2</ele>
        <time>2023-08-12T12:04:43Z</time>
      </trkpt>
      <trkpt lat="48.07352" lon="7.08966">
        <ele>832.4</ele>
        <time>2023-08-12T12:04:44Z</time>
      </trkpt>
      <trkpt lat="48.07351" lon="7.08965">
        <ele>832.5</ele>
        <time>2023-08-12T12:04:45Z</time>
      </trkpt>
      <trkpt lat="48.0735" lon="7.08965">
        <ele>832.6</ele>
        <time>2023-08-12T12:04:46Z</time>
      </trkpt>
      <trkpt lat="48.0735" lon="7.08965">
        <ele>832.6</ele>
        <time>2023-08-12T12:04:47Z</time>
      </trkpt>
      <trkpt lat="48.0735" lon="7.08963">
        <ele>832.6</ele>
        <time>2023-08-12T12:04:48Z</time>
      </trkpt>
      <trkpt lat="48.07349" lon="7.08962">
        <ele>832.8</ele>
        <time>2023-08-12T12:04:49Z</time>
      </trkpt>
      <trkpt lat="48.07347" lon="7.08959">
        <ele>833</ele>
        <time>2023-08-12T12:04:50Z</time>
      </trkpt>
      <trkpt lat="48.07346" lon="7.08957">
        <ele>833.1</ele>
        <time>2023-08-12T12:04:51Z</time>
      </trkpt>
      <trkpt lat="48.07343" lon="7.08956">
        <ele>833.3</ele>
        <time>2023-08-12T12:04:52Z</time>
      </trkpt>
      <trkpt lat="48.07341" lon="7.08954">
        <ele>833.6</ele>
        <time>2023-08-12T12:04:53Z</time>
      </trkpt>
      <trkpt lat="48.07338" lon="7.08953">
        <ele>833.8</ele>
        <time>2023-08-12T12:04:54Z</time>
      </trkpt>
      <trkpt lat="48.07336" lon="7.08954">
        <ele>833.9</ele>
        <time>2023-08-12T12:04:55Z</time>
      </trkpt>
      <trkpt lat="48.07334" lon="7.08953">
        <ele>834</ele>
        <time>2023-08-12T12:04:56Z</time>
      </trkpt>
      <trkpt lat="48.07332" lon="7.08953">
        <ele>834.2</ele>
        <time>2023-08-12T12:04:57Z</time>
      </trkpt>
      <trkpt lat="48.0733" lon="7.08952">
        <ele>834.4</ele>
        <time>2023-08-12T12:04:58Z</time>
      </trkpt>
      <trkpt lat="48.07327" lon="7.08951">
        <ele>834.7</ele>
        <time>2023-08-12T12:04:59Z</time>
      </trkpt>
      <trkpt lat="48.07325" lon="7.08949">
        <ele>834.8</ele>
        <time>2023-08-12T12:05:00Z</time>
      </trkpt>
      <trkpt lat="48.07325" lon="7.08948">
        <ele>834.9</ele>
        <time>2023-08-12T12:05:01Z</time>
      </trkpt>
      <trkpt lat="48.07323" lon="7.08946">
        <ele>835.1</ele>
        <time>2023-08-12T12:05:02Z</time>
      </trkpt>
      <trkpt lat="48.0732" lon="7.08944">
        <ele>835.3</ele>
        <time>2023-08-12T12:05:03Z</time>
      </trkpt>
      <trkpt lat="48.07318" lon="7.08943">
        <ele>835.4</ele>
        <time>2023-08-12T12:05:04Z</time>
      </trkpt>
      <trkpt lat="48.07317" lon="7.08942">
        <ele>835.5</ele>
        <time>2023-08-12T12:05:05Z</time>
      </trkpt>
      <trkpt lat="48.07316" lon="7.08941">
        <ele>835.6</ele>
        <time>2023-08-12T12:05:06Z</time>
      </trkpt>
      <trkpt lat="48.07314" lon="7.0894">
        <ele>835.8</ele>
        <time>2023-08-12T12:05:07Z</time>
      </trkpt>
      <trkpt lat="48.07312" lon="7.0894">
        <ele>835.9</ele>
        <time>2023-08-12T12:05:08Z</time>
      </trkpt>
      <trkpt lat="48.0731" lon="7.0894">
        <ele>836.1</ele>
        <time>2023-08-12T12:05:09Z</time>
      </trkpt>
      <trkpt lat="48.07308" lon="7.08939">
        <ele>836.2</ele>
        <time>2023-08-12T12:05:10Z</time>
      </trkpt>
      <trkpt lat="48.07305" lon="7.0894">
        <ele>836.4</ele>
        <time>2023-08-12T12:05:11Z</time>
      </trkpt>
      <trkpt lat="48.07303" lon="7.08939">
        <ele>836.6</ele>
        <time>2023-08-12T12:05:12Z</time>
      </trkpt>
      <trkpt lat="48.073" lon="7.08939">
        <ele>836.7</ele>
        <time>2023-08-12T12:05:13Z</time>
      </trkpt>
      <trkpt lat="48.07298" lon="7.08938">
        <ele>836.9</ele>
        <time>2023-08-12T12:05:14Z</time>
      </trkpt>
      <trkpt lat="48.07296" lon="7.08938">
        <ele>837.1</ele>
        <time>2023-08-12T12:05:15Z</time>
      </trkpt>
      <trkpt lat="48.07293" lon="7.08937">
        <ele>837.3</ele>
        <time>2023-08-12T12:05:16Z</time>
      </trkpt>
      <trkpt lat="48.07291" lon="7.08936">
        <ele>837.5</ele>
        <time>2023-08-12T12:05:17Z</time>
      </trkpt>
      <trkpt lat="48.07288" lon="7.08936">
        <ele>837.6</ele>
        <time>2023-08-12T12:05:18Z</time>
      </trkpt>
      <trkpt lat="48.07286" lon="7.08935">
        <ele>837.8</ele>
        <time>2023-08-12T12:05:19Z</time>
      </trkpt>
      <trkpt lat="48.07284" lon="7.08934">
        <ele>838</ele>
        <time>2023-08-12T12:05:20Z</time>
      </trkpt>
      <trkpt lat="48.07283" lon="7.08934">
        <ele>838.1</ele>
        <time>2023-08-12T12:05:21Z</time>
      </trkpt>
      <trkpt lat="48.07281" lon="7.08934">
        <ele>838.2</ele>
        <time>2023-08-12T12:05:22Z</time>
      </trkpt>
      <trkpt lat="48.0728" lon="7.08934">
        <ele>838.3</ele>
        <time>2023-08-12T12:05:23Z</time>
      </trkpt>
      <trkpt lat="48.07278" lon="7.08934">
        <ele>838.5</ele>
        <time>2023-08-12T12:05:24Z</time>
      </trkpt>
      <trkpt lat="48.07276" lon="7.08933">
        <ele>838.6</ele>
        <time>2023-08-12T12:05:25Z</time>
      </trkpt>
      <trkpt lat="48.07274" lon="7.08932">
        <ele>838.8</ele>
        <time>2023-08-12T12:05:26Z</time>
      </trkpt>
      <trkpt lat="48.07273" lon="7.08931">
        <ele>839</ele>
        <time>2023-08-12T12:05:27Z</time>
      </trkpt>
      <trkpt lat="48.07271" lon="7.08929">
        <ele>839.1</ele>
        <time>2023-08-12T12:05:28Z</time>
      </trkpt>
      <trkpt lat="48.07269" lon="7.08928">
        <ele>839.3</ele>
        <time>2023-08-12T12:05:29Z</time>
      </trkpt>
      <trkpt lat="48.07268" lon="7.08926">
        <ele>839.5</ele>
        <time>2023-08-12T12:05:30Z</time>
      </trkpt>
      <trkpt lat="48.07266" lon="7.08924">
        <ele>839.7</ele>
        <time>2023-08-12T12:05:31Z</time>
      </trkpt>
      <trkpt lat="48.07266" lon="7.08921">
        <ele>839.9</ele>
        <time>2023-08-12T12:05:32Z</time>
      </trkpt>
      <trkpt lat="48.07265" lon="7.08919">
        <ele>840.1</ele>
        <time>2023-08-12T12:05:33Z</time>
      </trkpt>
      <trkpt lat="48.07265" lon="7.08916">
        <ele>840.3</ele>
        <time>2023-08-12T12:05:34Z</time>
      </trkpt>
      <trkpt lat="48.07266" lon="7.08914">
        <ele>840.4</ele>
        <time>2023-08-12T12:05:35Z</time>
      </trkpt>
      <trkpt lat="48.07266" lon="7.08911">
        <ele>840.6</ele>
        <time>2023-08-12T12:05:36Z</time>
      </trkpt>
      <trkpt lat="48.07266" lon="7.08908">
        <ele>840.8</ele>
        <time>2023-08-12T12:05:37Z</time>
      </trkpt>
      <trkpt lat="48.07267" lon="7.08906">
        <ele>841</ele>
        <time>2023-08-12T12:05:38Z</time>
      </trkpt>
      <trkpt lat="48.07268" lon="7.08904">
        <ele>841.2</ele>
        <time>2023-08-12T12:05:39Z</time>
      </trkpt>
      <trkpt lat="48.0727" lon="7.08902">
        <ele>841.4</ele>
        <time>2023-08-12T12:05:40Z</time>
      </trkpt>
      <trkpt lat="48.07271" lon="7.089">
        <ele>841.6</ele>
        <time>2023-08-12T12:05:41Z</time>
      </trkpt>
      <trkpt lat="48.07273" lon="7.08898">
        <ele>841.8</ele>
        <time>2023-08-12T12:05:42Z</time>
      </trkpt>
      <trkpt lat="48.07274" lon="7.08897">
        <ele>842</ele>
        <time>2023-08-12T12:05:43Z</time>
      </trkpt>
      <trkpt lat="48.07276" lon="7.08896">
        <ele>842.2</ele>
        <time>2023-08-12T12:05:44Z</time>
      </trkpt>
      <trkpt lat="48.07278" lon="7.08895">
        <ele>842.4</ele>
        <time>2023-08-12T12:05:45Z</time>
      </trkpt>
      <trkpt lat="48.07279" lon="7.08894">
        <ele>842.6</ele>
        <time>2023-08-12T12:05:46Z</time>
      </trkpt>
      <trkpt lat="48.07281" lon="7.08894">
        <ele>842.7</ele>
        <time>2023-08-12T12:05:47Z</time>
      </trkpt>
      <trkpt lat="48.07282" lon="7.08894">
        <ele>842.8</ele>
        <time>2023-08-12T12:05:48Z</time>
      </trkpt>
      <trkpt lat="48.07283" lon="7.08894">
        <ele>842.9</ele>
        <time>2023-08-12T12:05:49Z</time>
      </trkpt>
      <trkpt lat="48.07284" lon="7.08894">
        <ele>843</ele>
        <time>2023-08-12T12:05:50Z</time>
      </trkpt>
      <trkpt lat="48.07286" lon="7.08895">
        <ele>843.1</ele>
        <time>2023-08-12T12:05:51Z</time>
      </trkpt>
      <trkpt lat="48.07288" lon="7.08895">
        <ele>843.3</ele>
        <time>2023-08-12T12:05:52Z</time>
      </trkpt>
      <trkpt lat="48.0729" lon="7.08897">
        <ele>843.4</ele>
        <time>2023-08-12T12:05:53Z</time>
      </trkpt>
      <trkpt lat="48.07292" lon="7.08899">
        <ele>843.6</ele>
        <time>2023-08-12T12:05:54Z</time>
      </trkpt>
      <trkpt lat="48.07294" lon="7.08901">
        <ele>843.8</ele>
        <time>2023-08-12T12:05:55Z</time>
      </trkpt>
      <trkpt lat="48.07296" lon="7.08902">
        <ele>843.9</ele>
        <time>2023-08-12T12:05:56Z</time>
      </trkpt>
      <trkpt lat="48.07298" lon="7.08903">
        <ele>844</ele>
        <time>2023-08-12T12:05:57Z</time>
      </trkpt>
      <trkpt lat="48.073" lon="7.08904">
        <ele>844.2</ele>
        <time>2023-08-12T12:05:58Z</time>
      </trkpt>
      <trkpt lat="48.07303" lon="7.08905">
        <ele>844.3</ele>
        <time>2023-08-12T12:05:59Z</time>
      </trkpt>
      <trkpt lat="48.07305" lon="7.08906">
        <ele>844.5</ele>
        <time>2023-08-12T12:06:00Z</time>
      </trkpt>
      <trkpt lat="48.07307" lon="7.08907">
        <ele>844.6</ele>
        <time>2023-08-12T12:06:01Z</time>
      </trkpt>
      <trkpt lat="48.07309" lon="7.08908">
        <ele>844.8</ele>
        <time>2023-08-12T12:06:02Z</time>
      </trkpt>
      <trkpt lat="48.07311" lon="7.08909">
        <ele>844.9</ele>
        <time>2023-08-12T12:06:03Z</time>
      </trkpt>
      <trkpt lat="48.07313" lon="7.0891">
        <ele>845</ele>
        <time>2023-08-12T12:06:04Z</time>
      </trkpt>
      <trkpt lat="48.07315" lon="7.0891">
        <ele>845.2</ele>
        <time>2023-08-12T12:06:05Z</time>
      </trkpt>
      <trkpt lat="48.07316" lon="7.08911">
        <ele>845.3</ele>
        <time>2023-08-12T12:06:06Z</time>
      </trkpt>
      <trkpt lat="48.07317" lon="7.08911">
        <ele>845.4</ele>
        <time>2023-08-12T12:06:07Z</time>
      </trkpt>
      <trkpt lat="48.07319" lon="7.08912">
        <ele>845.5</ele>
        <time>2023-08-12T12:06:08Z</time>
      </trkpt>
      <trkpt lat="48.07321" lon="7.08911">
        <ele>845.6</ele>
        <time>2023-08-12T12:06:09Z</time>
      </trkpt>
      <trkpt lat="48.07322" lon="7.08911">
        <ele>845.7</ele>
        <time>2023-08-12T12:06:10Z</time>
      </trkpt>
      <trkpt lat="48.07325" lon="7.08912">
        <ele>845.9</ele>
        <time>2023-08-12T12:06:12Z</time>
      </trkpt>
      <trkpt lat="48.07326" lon="7.08913">
        <ele>846</ele>
        <time>2023-08-12T12:06:13Z</time>
      </trkpt>
      <trkpt lat="48.07327" lon="7.08913">
        <ele>846.2</ele>
        <time>2023-08-12T12:06:14Z</time>
      </trkpt>
      <trkpt lat="48.07329" lon="7.08914">
        <ele>846.3</ele>
        <time>2023-08-12T12:06:15Z</time>
      </trkpt>
      <trkpt lat="48.0733" lon="7.08914">
        <ele>846.4</ele>
        <time>2023-08-12T12:06:16Z</time>
      </trkpt>
      <trkpt lat="48.07342" lon="7.08915">
        <ele>847.5</ele>
        <time>2023-08-12T12:06:22Z</time>
      </trkpt>
      <trkpt lat="48.07352" lon="7.08912">
        <ele>848.3</ele>
        <time>2023-08-12T12:06:27Z</time>
      </trkpt>
      <trkpt lat="48.07361" lon="7.08907">
        <ele>849.3</ele>
        <time>2023-08-12T12:06:32Z</time>
      </trkpt>
      <trkpt lat="48.07363" lon="7.08908">
        <ele>849.4</ele>
        <time>2023-08-12T12:06:33Z</time>
      </trkpt>
      <trkpt lat="48.07364" lon="7.08908">
        <ele>849.6</ele>
        <time>2023-08-12T12:06:34Z</time>
      </trkpt>
      <trkpt lat="48.07366" lon="7.08906">
        <ele>849.8</ele>
        <time>2023-08-12T12:06:35Z</time>
      </trkpt>
      <trkpt lat="48.07368" lon="7.08906">
        <ele>850</ele>
        <time>2023-08-12T12:06:36Z</time>
      </trkpt>
      <trkpt lat="48.0737" lon="7.08906">
        <ele>850.2</ele>
        <time>2023-08-12T12:06:37Z</time>
      </trkpt>
      <trkpt lat="48.0738" lon="7.08903">
        <ele>851.2</ele>
        <time>2023-08-12T12:06:41Z</time>
      </trkpt>
      <trkpt lat="48.07382" lon="7.08901">
        <ele>851.5</ele>
        <time>2023-08-12T12:06:42Z</time>
      </trkpt>
      <trkpt lat="48.07384" lon="7.089">
        <ele>851.7</ele>
        <time>2023-08-12T12:06:43Z</time>
      </trkpt>
      <trkpt lat="48.07392" lon="7.08898">
        <ele>852.6</ele>
        <time>2023-08-12T12:06:47Z</time>
      </trkpt>
      <trkpt lat="48.07394" lon="7.08895">
        <ele>852.8</ele>
        <time>2023-08-12T12:06:49Z</time>
      </trkpt>
      <trkpt lat="48.07396" lon="7.08894">
        <ele>853.1</ele>
        <time>2023-08-12T12:06:50Z</time>
      </trkpt>
      <trkpt lat="48.07397" lon="7.08894">
        <ele>853.4</ele>
        <time>2023-08-12T12:06:51Z</time>
      </trkpt>
      <trkpt lat="48.07399" lon="7.08893">
        <ele>853.6</ele>
        <time>2023-08-12T12:06:52Z</time>
      </trkpt>
      <trkpt lat="48.07402" lon="7.08891">
        <ele>854.2</ele>
        <time>2023-08-12T12:06:54Z</time>
      </trkpt>
      <trkpt lat="48.0741" lon="7.08889">
        <ele>855.5</ele>
        <time>2023-08-12T12:06:59Z</time>
      </trkpt>
      <trkpt lat="48.07412" lon="7.08889">
        <ele>855.9</ele>
        <time>2023-08-12T12:07:01Z</time>
      </trkpt>
      <trkpt lat="48.07415" lon="7.08888">
        <ele>856.4</ele>
        <time>2023-08-12T12:07:03Z</time>
      </trkpt>
      <trkpt lat="48.07416" lon="7.08888">
        <ele>856.6</ele>
        <time>2023-08-12T12:07:04Z</time>
      </trkpt>
      <trkpt lat="48.07418" lon="7.08888">
        <ele>856.8</ele>
        <time>2023-08-12T12:07:05Z</time>
      </trkpt>
      <trkpt lat="48.07419" lon="7.08888">
        <ele>857</ele>
        <time>2023-08-12T12:07:06Z</time>
      </trkpt>
      <trkpt lat="48.0742" lon="7.08887">
        <ele>857.2</ele>
        <time>2023-08-12T12:07:07Z</time>
      </trkpt>
      <trkpt lat="48.07421" lon="7.08886">
        <ele>857.5</ele>
        <time>2023-08-12T12:07:08Z</time>
      </trkpt>
      <trkpt lat="48.07422" lon="7.08886">
        <ele>857.7</ele>
        <time>2023-08-12T12:07:09Z</time>
      </trkpt>
      <trkpt lat="48.07424" lon="7.08885">
        <ele>857.9</ele>
        <time>2023-08-12T12:07:10Z</time>
      </trkpt>
      <trkpt lat="48.07431" lon="7.08882">
        <ele>859.2</ele>
        <time>2023-08-12T12:07:15Z</time>
      </trkpt>
      <trkpt lat="48.07433" lon="7.08881">
        <ele>859.5</ele>
        <time>2023-08-12T12:07:16Z</time>
      </trkpt>
      <trkpt lat="48.07451" lon="7.08868">
        <ele>862.8</ele>
        <time>2023-08-12T12:07:26Z</time>
      </trkpt>
      <trkpt lat="48.07456" lon="7.08866">
        <ele>863.6</ele>
        <time>2023-08-12T12:07:29Z</time>
      </trkpt>
      <trkpt lat="48.07457" lon="7.08866">
        <ele>863.7</ele>
        <time>2023-08-12T12:07:30Z</time>
      </trkpt>
      <trkpt lat="48.07458" lon="7.08866">
        <ele>864</ele>
        <time>2023-08-12T12:07:31Z</time>
      </trkpt>
      <trkpt lat="48.0746" lon="7.08866">
        <ele>864.3</ele>
        <time>2023-08-12T12:07:32Z</time>
      </trkpt>
      <trkpt lat="48.07462" lon="7.08864">
        <ele>864.7</ele>
        <time>2023-08-12T12:07:33Z</time>
      </trkpt>
      <trkpt lat="48.07466" lon="7.08863">
        <ele>865.4</ele>
        <time>2023-08-12T12:07:34Z</time>
      </trkpt>
      <trkpt lat="48.07469" lon="7.08863">
        <ele>865.7</ele>
        <time>2023-08-12T12:07:35Z</time>
      </trkpt>
      <trkpt lat="48.07472" lon="7.08861">
        <ele>865.9</ele>
        <time>2023-08-12T12:07:36Z</time>
      </trkpt>
      <trkpt lat="48.07476" lon="7.08859">
        <ele>866.2</ele>
        <time>2023-08-12T12:07:37Z</time>
      </trkpt>
      <trkpt lat="48.07478" lon="7.08857">
        <ele>866.3</ele>
        <time>2023-08-12T12:07:38Z</time>
      </trkpt>
      <trkpt lat="48.07479" lon="7.08858">
        <ele>866.4</ele>
        <time>2023-08-12T12:07:39Z</time>
      </trkpt>
      <trkpt lat="48.0748" lon="7.08859">
        <ele>866.5</ele>
        <time>2023-08-12T12:07:40Z</time>
      </trkpt>
      <trkpt lat="48.07481" lon="7.0886">
        <ele>866.6</ele>
        <time>2023-08-12T12:07:41Z</time>
      </trkpt>
      <trkpt lat="48.07482" lon="7.0886">
        <ele>866.7</ele>
        <time>2023-08-12T12:07:42Z</time>
      </trkpt>
      <trkpt lat="48.07483" lon="7.08859">
        <ele>866.7</ele>
        <time>2023-08-12T12:07:43Z</time>
      </trkpt>
      <trkpt lat="48.07484" lon="7.08861">
        <ele>866.9</ele>
        <time>2023-08-12T12:07:44Z</time>
      </trkpt>
      <trkpt lat="48.07486" lon="7.08862">
        <ele>867</ele>
        <time>2023-08-12T12:07:45Z</time>
      </trkpt>
      <trkpt lat="48.07487" lon="7.08862">
        <ele>867.1</ele>
        <time>2023-08-12T12:07:46Z</time>
      </trkpt>
      <trkpt lat="48.07489" lon="7.08862">
        <ele>867.2</ele>
        <time>2023-08-12T12:07:47Z</time>
      </trkpt>
      <trkpt lat="48.07491" lon="7.08862">
        <ele>867.4</ele>
        <time>2023-08-12T12:07:48Z</time>
      </trkpt>
      <trkpt lat="48.07492" lon="7.08862">
        <ele>867.5</ele>
        <time>2023-08-12T12:07:49Z</time>
      </trkpt>
      <trkpt lat="48.07494" lon="7.08863">
        <ele>867.6</ele>
        <time>2023-08-12T12:07:50Z</time>
      </trkpt>
      <trkpt lat="48.07496" lon="7.08864">
        <ele>867.8</ele>
        <time>2023-08-12T12:07:51Z</time>
      </trkpt>
      <trkpt lat="48.07498" lon="7.08864">
        <ele>867.9</ele>
        <time>2023-08-12T12:07:52Z</time>
      </trkpt>
      <trkpt lat="48.07499" lon="7.08865">
        <ele>868</ele>
        <time>2023-08-12T12:07:53Z</time>
      </trkpt>
      <trkpt lat="48.07501" lon="7.08865">
        <ele>868.2</ele>
        <time>2023-08-12T12:07:54Z</time>
      </trkpt>
      <trkpt lat="48.07503" lon="7.08865">
        <ele>868.3</ele>
        <time>2023-08-12T12:07:55Z</time>
      </trkpt>
      <trkpt lat="48.07504" lon="7.08865">
        <ele>868.4</ele>
        <time>2023-08-12T12:07:56Z</time>
      </trkpt>
      <trkpt lat="48.07505" lon="7.08865">
        <ele>868.5</ele>
        <time>2023-08-12T12:07:57Z</time>
      </trkpt>
      <trkpt lat="48.07506" lon="7.08866">
        <ele>868.6</ele>
        <time>2023-08-12T12:07:58Z</time>
      </trkpt>
      <trkpt lat="48.07508" lon="7.08866">
        <ele>868.8</ele>
        <time>2023-08-12T12:07:59Z</time>
      </trkpt>
      <trkpt lat="48.0751" lon="7.08867">
        <ele>868.9</ele>
        <time>2023-08-12T12:08:00Z</time>
      </trkpt>
      <trkpt lat="48.07511" lon="7.08867">
        <ele>869.1</ele>
        <time>2023-08-12T12:08:01Z</time>
      </trkpt>
      <trkpt lat="48.07513" lon="7.08868">
        <ele>869.2</ele>
        <time>2023-08-12T12:08:02Z</time>
      </trkpt>
      <trkpt lat="48.07515" lon="7.08868">
        <ele>869.4</ele>
        <time>2023-08-12T12:08:03Z</time>
      </trkpt>
      <trkpt lat="48.07517" lon="7.08867">
        <ele>869.6</ele>
        <time>2023-08-12T12:08:04Z</time>
      </trkpt>
      <trkpt lat="48.07519" lon="7.08867">
        <ele>869.8</ele>
        <time>2023-08-12T12:08:05Z</time>
      </trkpt>
      <trkpt lat="48.07522" lon="7.08865">
        <ele>870</ele>
        <time>2023-08-12T12:08:06Z</time>
      </trkpt>
      <trkpt lat="48.07524" lon="7.08864">
        <ele>870.2</ele>
        <time>2023-08-12T12:08:07Z</time>
      </trkpt>
      <trkpt lat="48.07525" lon="7.08865">
        <ele>870.3</ele>
        <time>2023-08-12T12:08:08Z</time>
      </trkpt>
      <trkpt lat="48.07527" lon="7.08865">
        <ele>870.5</ele>
        <time>2023-08-12T12:08:09Z</time>
      </trkpt>
      <trkpt lat="48.07529" lon="7.08865">
        <ele>870.6</ele>
        <time>2023-08-12T12:08:10Z</time>
      </trkpt>
      <trkpt lat="48.0753" lon="7.08865">
        <ele>870.7</ele>
        <time>2023-08-12T12:08:11Z</time>
      </trkpt>
      <trkpt lat="48.07532" lon="7.08864">
        <ele>870.8</ele>
        <time>2023-08-12T12:08:12Z</time>
      </trkpt>
      <trkpt lat="48.07533" lon="7.08864">
        <ele>871</ele>
        <time>2023-08-12T12:08:13Z</time>
      </trkpt>
      <trkpt lat="48.07536" lon="7.08861">
        <ele>871.2</ele>
        <time>2023-08-12T12:08:14Z</time>
      </trkpt>
      <trkpt lat="48.07538" lon="7.0886">
        <ele>871.4</ele>
        <time>2023-08-12T12:08:15Z</time>
      </trkpt>
      <trkpt lat="48.0754" lon="7.08857">
        <ele>871.6</ele>
        <time>2023-08-12T12:08:16Z</time>
      </trkpt>
      <trkpt lat="48.07542" lon="7.08857">
        <ele>871.8</ele>
        <time>2023-08-12T12:08:17Z</time>
      </trkpt>
      <trkpt lat="48.07544" lon="7.08857">
        <ele>871.9</ele>
        <time>2023-08-12T12:08:18Z</time>
      </trkpt>
      <trkpt lat="48.07546" lon="7.08856">
        <ele>872.1</ele>
        <time>2023-08-12T12:08:19Z</time>
      </trkpt>
      <trkpt lat="48.07548" lon="7.08856">
        <ele>872.3</ele>
        <time>2023-08-12T12:08:20Z</time>
      </trkpt>
      <trkpt lat="48.0755" lon="7.08856">
        <ele>872.4</ele>
        <time>2023-08-12T12:08:21Z</time>
      </trkpt>
      <trkpt lat="48.07553" lon="7.08857">
        <ele>872.7</ele>
        <time>2023-08-12T12:08:22Z</time>
      </trkpt>
      <trkpt lat="48.07557" lon="7.08859">
        <ele>873</ele>
        <time>2023-08-12T12:08:23Z</time>
      </trkpt>
      <trkpt lat="48.07558" lon="7.08859">
        <ele>873.1</ele>
        <time>2023-08-12T12:08:24Z</time>
      </trkpt>
      <trkpt lat="48.0756" lon="7.08859">
        <ele>873.2</ele>
        <time>2023-08-12T12:08:25Z</time>
      </trkpt>
      <trkpt lat="48.07562" lon="7.08859">
        <ele>873.4</ele>
        <time>2023-08-12T12:08:26Z</time>
      </trkpt>
      <trkpt lat="48.07563" lon="7.08858">
        <ele>873.5</ele>
        <time>2023-08-12T12:08:27Z</time>
      </trkpt>
      <trkpt lat="48.07564" lon="7.08857">
        <ele>873.6</ele>
        <time>2023-08-12T12:08:28Z</time>
      </trkpt>
      <trkpt lat="48.07565" lon="7.08857">
        <ele>873.7</ele>
        <time>2023-08-12T12:08:29Z</time>
      </trkpt>
      <trkpt lat="48.07567" lon="7.08857">
        <ele>873.8</ele>
        <time>2023-08-12T12:08:30Z</time>
      </trkpt>
      <trkpt lat="48.07568" lon="7.08857">
        <ele>873.9</ele>
        <time>2023-08-12T12:08:31Z</time>
      </trkpt>
      <trkpt lat="48.0757" lon="7.08857">
        <ele>874</ele>
        <time>2023-08-12T12:08:32Z</time>
      </trkpt>
      <trkpt lat="48.07571" lon="7.08857">
        <ele>874.1</ele>
        <time>2023-08-12T12:08:33Z</time>
      </trkpt>
      <trkpt lat="48.07573" lon="7.08857">
        <ele>874.2</ele>
        <time>2023-08-12T12:08:34Z</time>
      </trkpt>
      <trkpt lat="48.07575" lon="7.08856">
        <ele>874.4</ele>
        <time>2023-08-12T12:08:35Z</time>
      </trkpt>
      <trkpt lat="48.07578" lon="7.08854">
        <ele>874.6</ele>
        <time>2023-08-12T12:08:36Z</time>
      </trkpt>
      <trkpt lat="48.0758" lon="7.08853">
        <ele>874.8</ele>
        <time>2023-08-12T12:08:37Z</time>
      </trkpt>
      <trkpt lat="48.07581" lon="7.08852">
        <ele>874.9</ele>
        <time>2023-08-12T12:08:38Z</time>
      </trkpt>
      <trkpt lat="48.07582" lon="7.08851">
        <ele>875</ele>
        <time>2023-08-12T12:08:39Z</time>
      </trkpt>
      <trkpt lat="48.07584" lon="7.0885">
        <ele>875.1</ele>
        <time>2023-08-12T12:08:40Z</time>
      </trkpt>
      <trkpt lat="48.07585" lon="7.0885">
        <ele>875.2</ele>
        <time>2023-08-12T12:08:41Z</time>
      </trkpt>
      <trkpt lat="48.07587" lon="7.0885">
        <ele>875.3</ele>
        <time>2023-08-12T12:08:42Z</time>
      </trkpt>
      <trkpt lat="48.07588" lon="7.08849">
        <ele>875.5</ele>
        <time>2023-08-12T12:08:43Z</time>
      </trkpt>
      <trkpt lat="48.07589" lon="7.08848">
        <ele>875.6</ele>
        <time>2023-08-12T12:08:44Z</time>
      </trkpt>
      <trkpt lat="48.07591" lon="7.08847">
        <ele>875.8</ele>
        <time>2023-08-12T12:08:45Z</time>
      </trkpt>
      <trkpt lat="48.07594" lon="7.08847">
        <ele>876</ele>
        <time>2023-08-12T12:08:46Z</time>
      </trkpt>
      <trkpt lat="48.07596" lon="7.08847">
        <ele>876.2</ele>
        <time>2023-08-12T12:08:47Z</time>
      </trkpt>
      <trkpt lat="48.07598" lon="7.08845">
        <ele>876.4</ele>
        <time>2023-08-12T12:08:48Z</time>
      </trkpt>
      <trkpt lat="48.076" lon="7.08845">
        <ele>876.5</ele>
        <time>2023-08-12T12:08:49Z</time>
      </trkpt>
      <trkpt lat="48.07602" lon="7.08844">
        <ele>876.8</ele>
        <time>2023-08-12T12:08:50Z</time>
      </trkpt>
      <trkpt lat="48.07604" lon="7.08844">
        <ele>876.9</ele>
        <time>2023-08-12T12:08:51Z</time>
      </trkpt>
      <trkpt lat="48.07606" lon="7.08842">
        <ele>877.1</ele>
        <time>2023-08-12T12:08:52Z</time>
      </trkpt>
      <trkpt lat="48.07608" lon="7.08841">
        <ele>877.3</ele>
        <time>2023-08-12T12:08:53Z</time>
      </trkpt>
      <trkpt lat="48.0761" lon="7.0884">
        <ele>877.5</ele>
        <time>2023-08-12T12:08:54Z</time>
      </trkpt>
      <trkpt lat="48.07611" lon="7.08839">
        <ele>877.6</ele>
        <time>2023-08-12T12:08:55Z</time>
      </trkpt>
      <trkpt lat="48.07613" lon="7.08838">
        <ele>877.8</ele>
        <time>2023-08-12T12:08:56Z</time>
      </trkpt>
      <trkpt lat="48.07615" lon="7.08835">
        <ele>878</ele>
        <time>2023-08-12T12:08:57Z</time>
      </trkpt>
      <trkpt lat="48.07616" lon="7.08833">
        <ele>878.2</ele>
        <time>2023-08-12T12:08:58Z</time>
      </trkpt>
      <trkpt lat="48.07618" lon="7.08833">
        <ele>878.3</ele>
        <time>2023-08-12T12:08:59Z</time>
      </trkpt>
      <trkpt lat="48.07618" lon="7.08832">
        <ele>878.4</ele>
        <time>2023-08-12T12:09:00Z</time>
      </trkpt>
      <trkpt lat="48.0762" lon="7.08831">
        <ele>878.5</ele>
        <time>2023-08-12T12:09:01Z</time>
      </trkpt>
      <trkpt lat="48.07621" lon="7.08831">
        <ele>878.7</ele>
        <time>2023-08-12T12:09:02Z</time>
      </trkpt>
      <trkpt lat="48.07623" lon="7.08831">
        <ele>878.8</ele>
        <time>2023-08-12T12:09:03Z</time>
      </trkpt>
      <trkpt lat="48.07625" lon="7.08831">
        <ele>879</ele>
        <time>2023-08-12T12:09:04Z</time>
      </trkpt>
      <trkpt lat="48.07629" lon="7.0883">
        <ele>879.3</ele>
        <time>2023-08-12T12:09:05Z</time>
      </trkpt>
      <trkpt lat="48.07631" lon="7.08828">
        <ele>879.6</ele>
        <time>2023-08-12T12:09:06Z</time>
      </trkpt>
      <trkpt lat="48.07633" lon="7.08827">
        <ele>879.7</ele>
        <time>2023-08-12T12:09:07Z</time>
      </trkpt>
      <trkpt lat="48.07634" lon="7.08827">
        <ele>879.8</ele>
        <time>2023-08-12T12:09:08Z</time>
      </trkpt>
      <trkpt lat="48.07636" lon="7.08826">
        <ele>880</ele>
        <time>2023-08-12T12:09:09Z</time>
      </trkpt>
      <trkpt lat="48.07638" lon="7.08824">
        <ele>880.2</ele>
        <time>2023-08-12T12:09:10Z</time>
      </trkpt>
      <trkpt lat="48.0764" lon="7.08822">
        <ele>880.4</ele>
        <time>2023-08-12T12:09:11Z</time>
      </trkpt>
      <trkpt lat="48.07642" lon="7.08819">
        <ele>880.6</ele>
        <time>2023-08-12T12:09:12Z</time>
      </trkpt>
      <trkpt lat="48.07643" lon="7.08817">
        <ele>880.8</ele>
        <time>2023-08-12T12:09:13Z</time>
      </trkpt>
      <trkpt lat="48.07645" lon="7.08816">
        <ele>880.9</ele>
        <time>2023-08-12T12:09:14Z</time>
      </trkpt>
      <trkpt lat="48.07646" lon="7.08814">
        <ele>881.1</ele>
        <time>2023-08-12T12:09:15Z</time>
      </trkpt>
      <trkpt lat="48.07648" lon="7.08813">
        <ele>881.3</ele>
        <time>2023-08-12T12:09:16Z</time>
      </trkpt>
      <trkpt lat="48.07649" lon="7.08812">
        <ele>881.3</ele>
        <time>2023-08-12T12:09:17Z</time>
      </trkpt>
      <trkpt lat="48.07651" lon="7.0881">
        <ele>881.5</ele>
        <time>2023-08-12T12:09:18Z</time>
      </trkpt>
      <trkpt lat="48.07652" lon="7.08808">
        <ele>881.7</ele>
        <time>2023-08-12T12:09:19Z</time>
      </trkpt>
      <trkpt lat="48.07654" lon="7.08806">
        <ele>881.8</ele>
        <time>2023-08-12T12:09:20Z</time>
      </trkpt>
      <trkpt lat="48.07655" lon="7.08805">
        <ele>882</ele>
        <time>2023-08-12T12:09:21Z</time>
      </trkpt>
      <trkpt lat="48.07656" lon="7.08803">
        <ele>882.1</ele>
        <time>2023-08-12T12:09:22Z</time>
      </trkpt>
      <trkpt lat="48.07657" lon="7.08802">
        <ele>882.2</ele>
        <time>2023-08-12T12:09:23Z</time>
      </trkpt>
      <trkpt lat="48.07658" lon="7.08801">
        <ele>882.3</ele>
        <time>2023-08-12T12:09:24Z</time>
      </trkpt>
      <trkpt lat="48.07659" lon="7.088">
        <ele>882.4</ele>
        <time>2023-08-12T12:09:25Z</time>
      </trkpt>
      <trkpt lat="48.0766" lon="7.08798">
        <ele>882.5</ele>
        <time>2023-08-12T12:09:26Z</time>
      </trkpt>
      <trkpt lat="48.07661" lon="7.08797">
        <ele>882.6</ele>
        <time>2023-08-12T12:09:27Z</time>
      </trkpt>
      <trkpt lat="48.07662" lon="7.08795">
        <ele>882.8</ele>
        <time>2023-08-12T12:09:28Z</time>
      </trkpt>
      <trkpt lat="48.07663" lon="7.08794">
        <ele>882.9</ele>
        <time>2023-08-12T12:09:29Z</time>
      </trkpt>
      <trkpt lat="48.07664" lon="7.08794">
        <ele>883</ele>
        <time>2023-08-12T12:09:30Z</time>
      </trkpt>
      <trkpt lat="48.07665" lon="7.08793">
        <ele>883</ele>
        <time>2023-08-12T12:09:31Z</time>
      </trkpt>
      <trkpt lat="48.07666" lon="7.08792">
        <ele>883.1</ele>
        <time>2023-08-12T12:09:32Z</time>
      </trkpt>
      <trkpt lat="48.07668" lon="7.08791">
        <ele>883.3</ele>
        <time>2023-08-12T12:09:33Z</time>
      </trkpt>
      <trkpt lat="48.0767" lon="7.08789">
        <ele>883.5</ele>
        <time>2023-08-12T12:09:34Z</time>
      </trkpt>
      <trkpt lat="48.07671" lon="7.08788">
        <ele>883.6</ele>
        <time>2023-08-12T12:09:35Z</time>
      </trkpt>
      <trkpt lat="48.07672" lon="7.08788">
        <ele>883.7</ele>
        <time>2023-08-12T12:09:36Z</time>
      </trkpt>
      <trkpt lat="48.07674" lon="7.08786">
        <ele>883.9</ele>
        <time>2023-08-12T12:09:37Z</time>
      </trkpt>
      <trkpt lat="48.07675" lon="7.08783">
        <ele>884.1</ele>
        <time>2023-08-12T12:09:38Z</time>
      </trkpt>
      <trkpt lat="48.07676" lon="7.08782">
        <ele>884.2</ele>
        <time>2023-08-12T12:09:39Z</time>
      </trkpt>
      <trkpt lat="48.07677" lon="7.0878">
        <ele>884.4</ele>
        <time>2023-08-12T12:09:40Z</time>
      </trkpt>
      <trkpt lat="48.07678" lon="7.08778">
        <ele>884.5</ele>
        <time>2023-08-12T12:09:41Z</time>
      </trkpt>
      <trkpt lat="48.0768" lon="7.08776">
        <ele>884.7</ele>
        <time>2023-08-12T12:09:42Z</time>
      </trkpt>
      <trkpt lat="48.07681" lon="7.08775">
        <ele>884.8</ele>
        <time>2023-08-12T12:09:43Z</time>
      </trkpt>
      <trkpt lat="48.07683" lon="7.08773">
        <ele>885</ele>
        <time>2023-08-12T12:09:44Z</time>
      </trkpt>
      <trkpt lat="48.07683" lon="7.08772">
        <ele>885.1</ele>
        <time>2023-08-12T12:09:45Z</time>
      </trkpt>
      <trkpt lat="48.07684" lon="7.08769">
        <ele>885.2</ele>
        <time>2023-08-12T12:09:46Z</time>
      </trkpt>
      <trkpt lat="48.07685" lon="7.08767">
        <ele>885.4</ele>
        <time>2023-08-12T12:09:47Z</time>
      </trkpt>
      <trkpt lat="48.07686" lon="7.08764">
        <ele>885.6</ele>
        <time>2023-08-12T12:09:48Z</time>
      </trkpt>
      <trkpt lat="48.07687" lon="7.08762">
        <ele>885.8</ele>
        <time>2023-08-12T12:09:49Z</time>
      </trkpt>
      <trkpt lat="48.07692" lon="7.08753">
        <ele>886.4</ele>
        <time>2023-08-12T12:09:52Z</time>
      </trkpt>
      <trkpt lat="48.07696" lon="7.08747">
        <ele>886.9</ele>
        <time>2023-08-12T12:09:55Z</time>
      </trkpt>
      <trkpt lat="48.077" lon="7.08741">
        <ele>887.4</ele>
        <time>2023-08-12T12:09:58Z</time>
      </trkpt>
      <trkpt lat="48.07703" lon="7.08737">
        <ele>887.7</ele>
        <time>2023-08-12T12:10:00Z</time>
      </trkpt>
      <trkpt lat="48.07706" lon="7.08733">
        <ele>888.1</ele>
        <time>2023-08-12T12:10:02Z</time>
      </trkpt>
      <trkpt lat="48.07707" lon="7.08729">
        <ele>888.4</ele>
        <time>2023-08-12T12:10:03Z</time>
      </trkpt>
      <trkpt lat="48.07709" lon="7.08727">
        <ele>888.5</ele>
        <time>2023-08-12T12:10:04Z</time>
      </trkpt>
      <trkpt lat="48.07711" lon="7.08721">
        <ele>888.9</ele>
        <time>2023-08-12T12:10:06Z</time>
      </trkpt>
      <trkpt lat="48.07712" lon="7.08721">
        <ele>889</ele>
        <time>2023-08-12T12:10:07Z</time>
      </trkpt>
      <trkpt lat="48.07713" lon="7.08721">
        <ele>889.1</ele>
        <time>2023-08-12T12:10:08Z</time>
      </trkpt>
      <trkpt lat="48.07714" lon="7.0872">
        <ele>889.2</ele>
        <time>2023-08-12T12:10:09Z</time>
      </trkpt>
      <trkpt lat="48.07714" lon="7.08718">
        <ele>889.3</ele>
        <time>2023-08-12T12:10:10Z</time>
      </trkpt>
      <trkpt lat="48.07714" lon="7.08716">
        <ele>889.4</ele>
        <time>2023-08-12T12:10:11Z</time>
      </trkpt>
      <trkpt lat="48.07715" lon="7.08714">
        <ele>889.5</ele>
        <time>2023-08-12T12:10:12Z</time>
      </trkpt>
      <trkpt lat="48.07715" lon="7.08712">
        <ele>889.7</ele>
        <time>2023-08-12T12:10:13Z</time>
      </trkpt>
      <trkpt lat="48.07716" lon="7.08711">
        <ele>889.8</ele>
        <time>2023-08-12T12:10:14Z</time>
      </trkpt>
      <trkpt lat="48.07719" lon="7.08702">
        <ele>890.3</ele>
        <time>2023-08-12T12:10:18Z</time>
      </trkpt>
      <trkpt lat="48.07721" lon="7.08694">
        <ele>890.9</ele>
        <time>2023-08-12T12:10:22Z</time>
      </trkpt>
      <trkpt lat="48.07721" lon="7.08692">
        <ele>891</ele>
        <time>2023-08-12T12:10:23Z</time>
      </trkpt>
      <trkpt lat="48.07722" lon="7.0869">
        <ele>891.1</ele>
        <time>2023-08-12T12:10:24Z</time>
      </trkpt>
      <trkpt lat="48.07723" lon="7.08685">
        <ele>891.4</ele>
        <time>2023-08-12T12:10:26Z</time>
      </trkpt>
      <trkpt lat="48.07724" lon="7.08681">
        <ele>891.7</ele>
        <time>2023-08-12T12:10:28Z</time>
      </trkpt>
      <trkpt lat="48.07725" lon="7.08679">
        <ele>891.8</ele>
        <time>2023-08-12T12:10:29Z</time>
      </trkpt>
      <trkpt lat="48.07725" lon="7.08677">
        <ele>891.9</ele>
        <time>2023-08-12T12:10:30Z</time>
      </trkpt>
      <trkpt lat="48.07725" lon="7.08671">
        <ele>892.2</ele>
        <time>2023-08-12T12:10:32Z</time>
      </trkpt>
      <trkpt lat="48.07726" lon="7.08665">
        <ele>892.6</ele>
        <time>2023-08-12T12:10:35Z</time>
      </trkpt>
      <trkpt lat="48.07727" lon="7.08658">
        <ele>893</ele>
        <time>2023-08-12T12:10:38Z</time>
      </trkpt>
      <trkpt lat="48.07727" lon="7.08656">
        <ele>893.1</ele>
        <time>2023-08-12T12:10:39Z</time>
      </trkpt>
      <trkpt lat="48.07727" lon="7.08652">
        <ele>893.3</ele>
        <time>2023-08-12T12:10:41Z</time>
      </trkpt>
      <trkpt lat="48.07728" lon="7.0865">
        <ele>893.5</ele>
        <time>2023-08-12T12:10:42Z</time>
      </trkpt>
      <trkpt lat="48.07728" lon="7.08648">
        <ele>893.6</ele>
        <time>2023-08-12T12:10:43Z</time>
      </trkpt>
      <trkpt lat="48.07729" lon="7.08645">
        <ele>893.7</ele>
        <time>2023-08-12T12:10:44Z</time>
      </trkpt>
      <trkpt lat="48.07729" lon="7.08643">
        <ele>893.8</ele>
        <time>2023-08-12T12:10:45Z</time>
      </trkpt>
      <trkpt lat="48.07729" lon="7.08641">
        <ele>893.9</ele>
        <time>2023-08-12T12:10:46Z</time>
      </trkpt>
      <trkpt lat="48.07729" lon="7.08639">
        <ele>894.1</ele>
        <time>2023-08-12T12:10:47Z</time>
      </trkpt>
      <trkpt lat="48.07729" lon="7.08636">
        <ele>894.2</ele>
        <time>2023-08-12T12:10:48Z</time>
      </trkpt>
      <trkpt lat="48.0773" lon="7.08633">
        <ele>894.3</ele>
        <time>2023-08-12T12:10:49Z</time>
      </trkpt>
      <trkpt lat="48.0773" lon="7.0863">
        <ele>894.4</ele>
        <time>2023-08-12T12:10:50Z</time>
      </trkpt>
      <trkpt lat="48.0773" lon="7.08628">
        <ele>894.5</ele>
        <time>2023-08-12T12:10:51Z</time>
      </trkpt>
      <trkpt lat="48.0773" lon="7.08626">
        <ele>894.5</ele>
        <time>2023-08-12T12:10:52Z</time>
      </trkpt>
      <trkpt lat="48.07731" lon="7.08624">
        <ele>894.6</ele>
        <time>2023-08-12T12:10:53Z</time>
      </trkpt>
      <trkpt lat="48.07731" lon="7.08622">
        <ele>894.7</ele>
        <time>2023-08-12T12:10:54Z</time>
      </trkpt>
      <trkpt lat="48.07731" lon="7.0862">
        <ele>894.7</ele>
        <time>2023-08-12T12:10:55Z</time>
      </trkpt>
      <trkpt lat="48.0773" lon="7.08618">
        <ele>894.8</ele>
        <time>2023-08-12T12:10:56Z</time>
      </trkpt>
      <trkpt lat="48.07731" lon="7.08615">
        <ele>894.9</ele>
        <time>2023-08-12T12:10:57Z</time>
      </trkpt>
      <trkpt lat="48.07731" lon="7.08612">
        <ele>895</ele>
        <time>2023-08-12T12:10:58Z</time>
      </trkpt>
      <trkpt lat="48.07731" lon="7.08608">
        <ele>895.1</ele>
        <time>2023-08-12T12:10:59Z</time>
      </trkpt>
      <trkpt lat="48.07731" lon="7.08605">
        <ele>895.2</ele>
        <time>2023-08-12T12:11:00Z</time>
      </trkpt>
      <trkpt lat="48.07731" lon="7.08602">
        <ele>895.2</ele>
        <time>2023-08-12T12:11:01Z</time>
      </trkpt>
      <trkpt lat="48.07731" lon="7.086">
        <ele>895.3</ele>
        <time>2023-08-12T12:11:02Z</time>
      </trkpt>
      <trkpt lat="48.07732" lon="7.08599">
        <ele>895.3</ele>
        <time>2023-08-12T12:11:03Z</time>
      </trkpt>
      <trkpt lat="48.07732" lon="7.08598">
        <ele>895.4</ele>
        <time>2023-08-12T12:11:04Z</time>
      </trkpt>
      <trkpt lat="48.07731" lon="7.08595">
        <ele>895.4</ele>
        <time>2023-08-12T12:11:05Z</time>
      </trkpt>
      <trkpt lat="48.07731" lon="7.08592">
        <ele>895.5</ele>
        <time>2023-08-12T12:11:06Z</time>
      </trkpt>
      <trkpt lat="48.07731" lon="7.08589">
        <ele>895.6</ele>
        <time>2023-08-12T12:11:07Z</time>
      </trkpt>
      <trkpt lat="48.07731" lon="7.08583">
        <ele>895.8</ele>
        <time>2023-08-12T12:11:08Z</time>
      </trkpt>
      <trkpt lat="48.07731" lon="7.08578">
        <ele>895.9</ele>
        <time>2023-08-12T12:11:09Z</time>
      </trkpt>
      <trkpt lat="48.07731" lon="7.08575">
        <ele>896</ele>
        <time>2023-08-12T12:11:10Z</time>
      </trkpt>
      <trkpt lat="48.07731" lon="7.08572">
        <ele>896.1</ele>
        <time>2023-08-12T12:11:11Z</time>
      </trkpt>
      <trkpt lat="48.0773" lon="7.0857">
        <ele>896.1</ele>
        <time>2023-08-12T12:11:12Z</time>
      </trkpt>
      <trkpt lat="48.0773" lon="7.08567">
        <ele>896.2</ele>
        <time>2023-08-12T12:11:13Z</time>
      </trkpt>
      <trkpt lat="48.07731" lon="7.08565">
        <ele>896.3</ele>
        <time>2023-08-12T12:11:14Z</time>
      </trkpt>
      <trkpt lat="48.0773" lon="7.08562">
        <ele>896.3</ele>
        <time>2023-08-12T12:11:15Z</time>
      </trkpt>
      <trkpt lat="48.07728" lon="7.0856">
        <ele>896.4</ele>
        <time>2023-08-12T12:11:16Z</time>
      </trkpt>
      <trkpt lat="48.07728" lon="7.08557">
        <ele>896.5</ele>
        <time>2023-08-12T12:11:17Z</time>
      </trkpt>
      <trkpt lat="48.07727" lon="7.08555">
        <ele>896.6</ele>
        <time>2023-08-12T12:11:18Z</time>
      </trkpt>
      <trkpt lat="48.07726" lon="7.08552">
        <ele>896.7</ele>
        <time>2023-08-12T12:11:19Z</time>
      </trkpt>
      <trkpt lat="48.07725" lon="7.08548">
        <ele>896.8</ele>
        <time>2023-08-12T12:11:20Z</time>
      </trkpt>
      <trkpt lat="48.07723" lon="7.08544">
        <ele>896.9</ele>
        <time>2023-08-12T12:11:21Z</time>
      </trkpt>
      <trkpt lat="48.07724" lon="7.0854">
        <ele>897</ele>
        <time>2023-08-12T12:11:22Z</time>
      </trkpt>
      <trkpt lat="48.07724" lon="7.08536">
        <ele>897.1</ele>
        <time>2023-08-12T12:11:23Z</time>
      </trkpt>
      <trkpt lat="48.07723" lon="7.08532">
        <ele>897.2</ele>
        <time>2023-08-12T12:11:24Z</time>
      </trkpt>
      <trkpt lat="48.07723" lon="7.08528">
        <ele>897.3</ele>
        <time>2023-08-12T12:11:25Z</time>
      </trkpt>
      <trkpt lat="48.07723" lon="7.08525">
        <ele>897.4</ele>
        <time>2023-08-12T12:11:26Z</time>
      </trkpt>
      <trkpt lat="48.07723" lon="7.08523">
        <ele>897.4</ele>
        <time>2023-08-12T12:11:27Z</time>
      </trkpt>
      <trkpt lat="48.07722" lon="7.08521">
        <ele>897.5</ele>
        <time>2023-08-12T12:11:28Z</time>
      </trkpt>
      <trkpt lat="48.07722" lon="7.08519">
        <ele>897.5</ele>
        <time>2023-08-12T12:11:29Z</time>
      </trkpt>
      <trkpt lat="48.07721" lon="7.08517">
        <ele>897.6</ele>
        <time>2023-08-12T12:11:30Z</time>
      </trkpt>
      <trkpt lat="48.0772" lon="7.08514">
        <ele>897.7</ele>
        <time>2023-08-12T12:11:31Z</time>
      </trkpt>
      <trkpt lat="48.0772" lon="7.08512">
        <ele>897.7</ele>
        <time>2023-08-12T12:11:32Z</time>
      </trkpt>
      <trkpt lat="48.0772" lon="7.08509">
        <ele>897.8</ele>
        <time>2023-08-12T12:11:33Z</time>
      </trkpt>
      <trkpt lat="48.0772" lon="7.08507">
        <ele>897.8</ele>
        <time>2023-08-12T12:11:34Z</time>
      </trkpt>
      <trkpt lat="48.0772" lon="7.08504">
        <ele>897.9</ele>
        <time>2023-08-12T12:11:35Z</time>
      </trkpt>
      <trkpt lat="48.0772" lon="7.08501">
        <ele>898</ele>
        <time>2023-08-12T12:11:36Z</time>
      </trkpt>
      <trkpt lat="48.07719" lon="7.08499">
        <ele>898</ele>
        <time>2023-08-12T12:11:37Z</time>
      </trkpt>
      <trkpt lat="48.07718" lon="7.08496">
        <ele>898.1</ele>
        <time>2023-08-12T12:11:38Z</time>
      </trkpt>
      <trkpt lat="48.07717" lon="7.08493">
        <ele>898.2</ele>
        <time>2023-08-12T12:11:39Z</time>
      </trkpt>
      <trkpt lat="48.07716" lon="7.0849">
        <ele>898.3</ele>
        <time>2023-08-12T12:11:40Z</time>
      </trkpt>
      <trkpt lat="48.07716" lon="7.08486">
        <ele>898.4</ele>
        <time>2023-08-12T12:11:41Z</time>
      </trkpt>
      <trkpt lat="48.07716" lon="7.08483">
        <ele>898.5</ele>
        <time>2023-08-12T12:11:42Z</time>
      </trkpt>
      <trkpt lat="48.07716" lon="7.08481">
        <ele>898.6</ele>
        <time>2023-08-12T12:11:43Z</time>
      </trkpt>
      <trkpt lat="48.07716" lon="7.08479">
        <ele>898.6</ele>
        <time>2023-08-12T12:11:44Z</time>
      </trkpt>
      <trkpt lat="48.07715" lon="7.08478">
        <ele>898.7</ele>
        <time>2023-08-12T12:11:45Z</time>
      </trkpt>
      <trkpt lat="48.07715" lon="7.08476">
        <ele>898.7</ele>
        <time>2023-08-12T12:11:46Z</time>
      </trkpt>
      <trkpt lat="48.07714" lon="7.08474">
        <ele>898.8</ele>
        <time>2023-08-12T12:11:47Z</time>
      </trkpt>
      <trkpt lat="48.07713" lon="7.08471">
        <ele>898.9</ele>
        <time>2023-08-12T12:11:48Z</time>
      </trkpt>
      <trkpt lat="48.07712" lon="7.08469">
        <ele>898.9</ele>
        <time>2023-08-12T12:11:49Z</time>
      </trkpt>
      <trkpt lat="48.07712" lon="7.08466">
        <ele>899</ele>
        <time>2023-08-12T12:11:50Z</time>
      </trkpt>
      <trkpt lat="48.07711" lon="7.08464">
        <ele>899.1</ele>
        <time>2023-08-12T12:11:51Z</time>
      </trkpt>
      <trkpt lat="48.07711" lon="7.08462">
        <ele>899.1</ele>
        <time>2023-08-12T12:11:52Z</time>
      </trkpt>
      <trkpt lat="48.07711" lon="7.08459">
        <ele>899.2</ele>
        <time>2023-08-12T12:11:53Z</time>
      </trkpt>
      <trkpt lat="48.07711" lon="7.08457">
        <ele>899.3</ele>
        <time>2023-08-12T12:11:54Z</time>
      </trkpt>
      <trkpt lat="48.07709" lon="7.08455">
        <ele>899.4</ele>
        <time>2023-08-12T12:11:55Z</time>
      </trkpt>
      <trkpt lat="48.07709" lon="7.08453">
        <ele>899.4</ele>
        <time>2023-08-12T12:11:56Z</time>
      </trkpt>
      <trkpt lat="48.07708" lon="7.08451">
        <ele>899.5</ele>
        <time>2023-08-12T12:11:57Z</time>
      </trkpt>
      <trkpt lat="48.07707" lon="7.0845">
        <ele>899.5</ele>
        <time>2023-08-12T12:11:58Z</time>
      </trkpt>
      <trkpt lat="48.07707" lon="7.08448">
        <ele>899.6</ele>
        <time>2023-08-12T12:11:59Z</time>
      </trkpt>
      <trkpt lat="48.07707" lon="7.08446">
        <ele>899.6</ele>
        <time>2023-08-12T12:12:00Z</time>
      </trkpt>
      <trkpt lat="48.07707" lon="7.08442">
        <ele>899.7</ele>
        <time>2023-08-12T12:12:01Z</time>
      </trkpt>
      <trkpt lat="48.07707" lon="7.08438">
        <ele>899.8</ele>
        <time>2023-08-12T12:12:02Z</time>
      </trkpt>
      <trkpt lat="48.07706" lon="7.08435">
        <ele>899.9</ele>
        <time>2023-08-12T12:12:03Z</time>
      </trkpt>
      <trkpt lat="48.07706" lon="7.08433">
        <ele>899.9</ele>
        <time>2023-08-12T12:12:04Z</time>
      </trkpt>
      <trkpt lat="48.07706" lon="7.08431">
        <ele>900</ele>
        <time>2023-08-12T12:12:05Z</time>
      </trkpt>
      <trkpt lat="48.07705" lon="7.08429">
        <ele>900</ele>
        <time>2023-08-12T12:12:06Z</time>
      </trkpt>
      <trkpt lat="48.07704" lon="7.08427">
        <ele>900.1</ele>
        <time>2023-08-12T12:12:07Z</time>
      </trkpt>
      <trkpt lat="48.07704" lon="7.08424">
        <ele>900.2</ele>
        <time>2023-08-12T12:12:08Z</time>
      </trkpt>
      <trkpt lat="48.07704" lon="7.08421">
        <ele>900.2</ele>
        <time>2023-08-12T12:12:09Z</time>
      </trkpt>
      <trkpt lat="48.07703" lon="7.08419">
        <ele>900.3</ele>
        <time>2023-08-12T12:12:10Z</time>
      </trkpt>
      <trkpt lat="48.07702" lon="7.08416">
        <ele>900.4</ele>
        <time>2023-08-12T12:12:11Z</time>
      </trkpt>
      <trkpt lat="48.07701" lon="7.08413">
        <ele>900.4</ele>
        <time>2023-08-12T12:12:12Z</time>
      </trkpt>
      <trkpt lat="48.07699" lon="7.0841">
        <ele>900.5</ele>
        <time>2023-08-12T12:12:13Z</time>
      </trkpt>
      <trkpt lat="48.07699" lon="7.08407">
        <ele>900.6</ele>
        <time>2023-08-12T12:12:14Z</time>
      </trkpt>
      <trkpt lat="48.07698" lon="7.08404">
        <ele>900.6</ele>
        <time>2023-08-12T12:12:15Z</time>
      </trkpt>
      <trkpt lat="48.07698" lon="7.08402">
        <ele>900.7</ele>
        <time>2023-08-12T12:12:16Z</time>
      </trkpt>
      <trkpt lat="48.07698" lon="7.084">
        <ele>900.8</ele>
        <time>2023-08-12T12:12:17Z</time>
      </trkpt>
      <trkpt lat="48.07698" lon="7.08398">
        <ele>900.8</ele>
        <time>2023-08-12T12:12:18Z</time>
      </trkpt>
      <trkpt lat="48.07698" lon="7.08396">
        <ele>900.8</ele>
        <time>2023-08-12T12:12:19Z</time>
      </trkpt>
      <trkpt lat="48.07699" lon="7.08394">
        <ele>900.9</ele>
        <time>2023-08-12T12:12:20Z</time>
      </trkpt>
      <trkpt lat="48.07697" lon="7.08391">
        <ele>901</ele>
        <time>2023-08-12T12:12:21Z</time>
      </trkpt>
      <trkpt lat="48.07696" lon="7.0839">
        <ele>901</ele>
        <time>2023-08-12T12:12:22Z</time>
      </trkpt>
      <trkpt lat="48.07695" lon="7.08387">
        <ele>901.1</ele>
        <time>2023-08-12T12:12:23Z</time>
      </trkpt>
      <trkpt lat="48.07695" lon="7.08386">
        <ele>901.1</ele>
        <time>2023-08-12T12:12:24Z</time>
      </trkpt>
      <trkpt lat="48.07695" lon="7.08385">
        <ele>901.2</ele>
        <time>2023-08-12T12:12:25Z</time>
      </trkpt>
      <trkpt lat="48.07695" lon="7.08385">
        <ele>901.2</ele>
        <time>2023-08-12T12:12:26Z</time>
      </trkpt>
      <trkpt lat="48.07694" lon="7.08384">
        <ele>901.3</ele>
        <time>2023-08-12T12:12:27Z</time>
      </trkpt>
      <trkpt lat="48.07693" lon="7.08382">
        <ele>901.3</ele>
        <time>2023-08-12T12:12:28Z</time>
      </trkpt>
      <trkpt lat="48.07692" lon="7.0838">
        <ele>901.4</ele>
        <time>2023-08-12T12:12:29Z</time>
      </trkpt>
      <trkpt lat="48.07692" lon="7.08378">
        <ele>901.5</ele>
        <time>2023-08-12T12:12:30Z</time>
      </trkpt>
      <trkpt lat="48.07691" lon="7.08376">
        <ele>901.5</ele>
        <time>2023-08-12T12:12:31Z</time>
      </trkpt>
      <trkpt lat="48.07691" lon="7.08374">
        <ele>901.6</ele>
        <time>2023-08-12T12:12:32Z</time>
      </trkpt>
      <trkpt lat="48.07691" lon="7.08372">
        <ele>901.6</ele>
        <time>2023-08-12T12:12:33Z</time>
      </trkpt>
      <trkpt lat="48.0769" lon="7.0837">
        <ele>901.7</ele>
        <time>2023-08-12T12:12:34Z</time>
      </trkpt>
      <trkpt lat="48.0769" lon="7.08368">
        <ele>901.7</ele>
        <time>2023-08-12T12:12:35Z</time>
      </trkpt>
      <trkpt lat="48.0769" lon="7.08366">
        <ele>901.8</ele>
        <time>2023-08-12T12:12:36Z</time>
      </trkpt>
      <trkpt lat="48.0769" lon="7.08364">
        <ele>901.9</ele>
        <time>2023-08-12T12:12:37Z</time>
      </trkpt>
      <trkpt lat="48.0769" lon="7.08361">
        <ele>901.9</ele>
        <time>2023-08-12T12:12:38Z</time>
      </trkpt>
      <trkpt lat="48.0769" lon="7.08359">
        <ele>902</ele>
        <time>2023-08-12T12:12:39Z</time>
      </trkpt>
      <trkpt lat="48.07689" lon="7.08356">
        <ele>902.1</ele>
        <time>2023-08-12T12:12:40Z</time>
      </trkpt>
      <trkpt lat="48.07689" lon="7.08354">
        <ele>902.2</ele>
        <time>2023-08-12T12:12:41Z</time>
      </trkpt>
      <trkpt lat="48.07689" lon="7.08352">
        <ele>902.2</ele>
        <time>2023-08-12T12:12:42Z</time>
      </trkpt>
      <trkpt lat="48.07689" lon="7.0835">
        <ele>902.3</ele>
        <time>2023-08-12T12:12:43Z</time>
      </trkpt>
      <trkpt lat="48.07688" lon="7.08348">
        <ele>902.3</ele>
        <time>2023-08-12T12:12:44Z</time>
      </trkpt>
      <trkpt lat="48.07688" lon="7.08346">
        <ele>902.4</ele>
        <time>2023-08-12T12:12:45Z</time>
      </trkpt>
      <trkpt lat="48.07688" lon="7.08344">
        <ele>902.5</ele>
        <time>2023-08-12T12:12:46Z</time>
      </trkpt>
      <trkpt lat="48.07688" lon="7.08342">
        <ele>902.5</ele>
        <time>2023-08-12T12:12:47Z</time>
      </trkpt>
      <trkpt lat="48.07687" lon="7.08339">
        <ele>902.6</ele>
        <time>2023-08-12T12:12:48Z</time>
      </trkpt>
      <trkpt lat="48.07686" lon="7.08339">
        <ele>902.6</ele>
        <time>2023-08-12T12:12:49Z</time>
      </trkpt>
      <trkpt lat="48.07686" lon="7.08336">
        <ele>902.7</ele>
        <time>2023-08-12T12:12:50Z</time>
      </trkpt>
      <trkpt lat="48.07685" lon="7.08334">
        <ele>902.8</ele>
        <time>2023-08-12T12:12:51Z</time>
      </trkpt>
      <trkpt lat="48.07685" lon="7.08332">
        <ele>902.8</ele>
        <time>2023-08-12T12:12:52Z</time>
      </trkpt>
      <trkpt lat="48.07684" lon="7.0833">
        <ele>902.9</ele>
        <time>2023-08-12T12:12:53Z</time>
      </trkpt>
      <trkpt lat="48.07685" lon="7.08327">
        <ele>903</ele>
        <time>2023-08-12T12:12:54Z</time>
      </trkpt>
      <trkpt lat="48.07685" lon="7.08324">
        <ele>903.1</ele>
        <time>2023-08-12T12:12:55Z</time>
      </trkpt>
      <trkpt lat="48.07684" lon="7.08321">
        <ele>903.1</ele>
        <time>2023-08-12T12:12:56Z</time>
      </trkpt>
      <trkpt lat="48.07684" lon="7.08318">
        <ele>903.2</ele>
        <time>2023-08-12T12:12:57Z</time>
      </trkpt>
      <trkpt lat="48.07684" lon="7.08315">
        <ele>903.3</ele>
        <time>2023-08-12T12:12:58Z</time>
      </trkpt>
      <trkpt lat="48.07682" lon="7.08312">
        <ele>903.4</ele>
        <time>2023-08-12T12:12:59Z</time>
      </trkpt>
      <trkpt lat="48.07681" lon="7.08309">
        <ele>903.5</ele>
        <time>2023-08-12T12:13:00Z</time>
      </trkpt>
      <trkpt lat="48.0768" lon="7.08305">
        <ele>903.6</ele>
        <time>2023-08-12T12:13:01Z</time>
      </trkpt>
      <trkpt lat="48.0768" lon="7.08301">
        <ele>903.7</ele>
        <time>2023-08-12T12:13:02Z</time>
      </trkpt>
      <trkpt lat="48.07679" lon="7.08297">
        <ele>903.8</ele>
        <time>2023-08-12T12:13:03Z</time>
      </trkpt>
      <trkpt lat="48.07677" lon="7.08294">
        <ele>903.9</ele>
        <time>2023-08-12T12:13:04Z</time>
      </trkpt>
      <trkpt lat="48.07676" lon="7.08291">
        <ele>904</ele>
        <time>2023-08-12T12:13:05Z</time>
      </trkpt>
      <trkpt lat="48.07675" lon="7.0829">
        <ele>904</ele>
        <time>2023-08-12T12:13:06Z</time>
      </trkpt>
      <trkpt lat="48.07674" lon="7.08287">
        <ele>904.1</ele>
        <time>2023-08-12T12:13:07Z</time>
      </trkpt>
      <trkpt lat="48.07676" lon="7.08285">
        <ele>904.2</ele>
        <time>2023-08-12T12:13:08Z</time>
      </trkpt>
      <trkpt lat="48.07675" lon="7.08282">
        <ele>904.2</ele>
        <time>2023-08-12T12:13:09Z</time>
      </trkpt>
      <trkpt lat="48.07675" lon="7.08279">
        <ele>904.3</ele>
        <time>2023-08-12T12:13:10Z</time>
      </trkpt>
      <trkpt lat="48.07675" lon="7.08277">
        <ele>904.3</ele>
        <time>2023-08-12T12:13:11Z</time>
      </trkpt>
      <trkpt lat="48.07674" lon="7.08274">
        <ele>904.4</ele>
        <time>2023-08-12T12:13:12Z</time>
      </trkpt>
      <trkpt lat="48.07673" lon="7.08272">
        <ele>904.5</ele>
        <time>2023-08-12T12:13:13Z</time>
      </trkpt>
      <trkpt lat="48.07673" lon="7.08269">
        <ele>904.5</ele>
        <time>2023-08-12T12:13:14Z</time>
      </trkpt>
      <trkpt lat="48.07672" lon="7.08266">
        <ele>904.7</ele>
        <time>2023-08-12T12:13:15Z</time>
      </trkpt>
      <trkpt lat="48.07672" lon="7.08263">
        <ele>904.9</ele>
        <time>2023-08-12T12:13:16Z</time>
      </trkpt>
      <trkpt lat="48.07671" lon="7.0826">
        <ele>905.1</ele>
        <time>2023-08-12T12:13:17Z</time>
      </trkpt>
      <trkpt lat="48.07669" lon="7.08256">
        <ele>905.3</ele>
        <time>2023-08-12T12:13:18Z</time>
      </trkpt>
      <trkpt lat="48.07669" lon="7.08253">
        <ele>905.5</ele>
        <time>2023-08-12T12:13:19Z</time>
      </trkpt>
      <trkpt lat="48.07668" lon="7.08251">
        <ele>905.7</ele>
        <time>2023-08-12T12:13:20Z</time>
      </trkpt>
      <trkpt lat="48.07667" lon="7.08248">
        <ele>905.8</ele>
        <time>2023-08-12T12:13:21Z</time>
      </trkpt>
      <trkpt lat="48.07667" lon="7.08247">
        <ele>905.9</ele>
        <time>2023-08-12T12:13:23Z</time>
      </trkpt>
      <trkpt lat="48.07667" lon="7.08245">
        <ele>906</ele>
        <time>2023-08-12T12:13:24Z</time>
      </trkpt>
      <trkpt lat="48.07667" lon="7.08244">
        <ele>906.1</ele>
        <time>2023-08-12T12:13:25Z</time>
      </trkpt>
      <trkpt lat="48.07667" lon="7.08241">
        <ele>906.3</ele>
        <time>2023-08-12T12:13:26Z</time>
      </trkpt>
      <trkpt lat="48.07666" lon="7.08238">
        <ele>906.5</ele>
        <time>2023-08-12T12:13:27Z</time>
      </trkpt>
      <trkpt lat="48.07667" lon="7.08236">
        <ele>906.6</ele>
        <time>2023-08-12T12:13:28Z</time>
      </trkpt>
      <trkpt lat="48.07667" lon="7.08233">
        <ele>906.8</ele>
        <time>2023-08-12T12:13:29Z</time>
      </trkpt>
      <trkpt lat="48.07667" lon="7.0823">
        <ele>907</ele>
        <time>2023-08-12T12:13:30Z</time>
      </trkpt>
      <trkpt lat="48.07668" lon="7.08229">
        <ele>907.1</ele>
        <time>2023-08-12T12:13:31Z</time>
      </trkpt>
      <trkpt lat="48.07669" lon="7.08227">
        <ele>907.2</ele>
        <time>2023-08-12T12:13:32Z</time>
      </trkpt>
      <trkpt lat="48.0767" lon="7.08224">
        <ele>907.4</ele>
        <time>2023-08-12T12:13:33Z</time>
      </trkpt>
      <trkpt lat="48.07669" lon="7.08221">
        <ele>907.6</ele>
        <time>2023-08-12T12:13:34Z</time>
      </trkpt>
      <trkpt lat="48.07668" lon="7.08219">
        <ele>907.8</ele>
        <time>2023-08-12T12:13:35Z</time>
      </trkpt>
      <trkpt lat="48.07668" lon="7.08217">
        <ele>907.9</ele>
        <time>2023-08-12T12:13:36Z</time>
      </trkpt>
      <trkpt lat="48.07667" lon="7.08215">
        <ele>908.1</ele>
        <time>2023-08-12T12:13:37Z</time>
      </trkpt>
      <trkpt lat="48.07666" lon="7.08213">
        <ele>908.2</ele>
        <time>2023-08-12T12:13:38Z</time>
      </trkpt>
      <trkpt lat="48.07665" lon="7.0821">
        <ele>908.5</ele>
        <time>2023-08-12T12:13:39Z</time>
      </trkpt>
      <trkpt lat="48.07665" lon="7.08207">
        <ele>908.7</ele>
        <time>2023-08-12T12:13:40Z</time>
      </trkpt>
      <trkpt lat="48.07664" lon="7.08204">
        <ele>908.9</ele>
        <time>2023-08-12T12:13:41Z</time>
      </trkpt>
      <trkpt lat="48.07663" lon="7.08202">
        <ele>909</ele>
        <time>2023-08-12T12:13:42Z</time>
      </trkpt>
      <trkpt lat="48.07662" lon="7.082">
        <ele>909.2</ele>
        <time>2023-08-12T12:13:43Z</time>
      </trkpt>
      <trkpt lat="48.07662" lon="7.08198">
        <ele>909.3</ele>
        <time>2023-08-12T12:13:44Z</time>
      </trkpt>
      <trkpt lat="48.07662" lon="7.08196">
        <ele>909.5</ele>
        <time>2023-08-12T12:13:45Z</time>
      </trkpt>
      <trkpt lat="48.0766" lon="7.08193">
        <ele>909.7</ele>
        <time>2023-08-12T12:13:46Z</time>
      </trkpt>
      <trkpt lat="48.0766" lon="7.08191">
        <ele>909.9</ele>
        <time>2023-08-12T12:13:47Z</time>
      </trkpt>
      <trkpt lat="48.0766" lon="7.08188">
        <ele>910.1</ele>
        <time>2023-08-12T12:13:48Z</time>
      </trkpt>
      <trkpt lat="48.07661" lon="7.08186">
        <ele>910.2</ele>
        <time>2023-08-12T12:13:49Z</time>
      </trkpt>
      <trkpt lat="48.07661" lon="7.08184">
        <ele>910.4</ele>
        <time>2023-08-12T12:13:50Z</time>
      </trkpt>
      <trkpt lat="48.07661" lon="7.08181">
        <ele>910.5</ele>
        <time>2023-08-12T12:13:51Z</time>
      </trkpt>
      <trkpt lat="48.0766" lon="7.08179">
        <ele>910.7</ele>
        <time>2023-08-12T12:13:52Z</time>
      </trkpt>
      <trkpt lat="48.07659" lon="7.08176">
        <ele>910.9</ele>
        <time>2023-08-12T12:13:53Z</time>
      </trkpt>
      <trkpt lat="48.07658" lon="7.08173">
        <ele>911.1</ele>
        <time>2023-08-12T12:13:54Z</time>
      </trkpt>
      <trkpt lat="48.07659" lon="7.08169">
        <ele>911.4</ele>
        <time>2023-08-12T12:13:55Z</time>
      </trkpt>
      <trkpt lat="48.07659" lon="7.08166">
        <ele>911.6</ele>
        <time>2023-08-12T12:13:56Z</time>
      </trkpt>
      <trkpt lat="48.07659" lon="7.08163">
        <ele>911.7</ele>
        <time>2023-08-12T12:13:57Z</time>
      </trkpt>
      <trkpt lat="48.07659" lon="7.0816">
        <ele>911.9</ele>
        <time>2023-08-12T12:13:58Z</time>
      </trkpt>
      <trkpt lat="48.07658" lon="7.08158">
        <ele>912.1</ele>
        <time>2023-08-12T12:13:59Z</time>
      </trkpt>
      <trkpt lat="48.07657" lon="7.08156">
        <ele>912.2</ele>
        <time>2023-08-12T12:14:00Z</time>
      </trkpt>
      <trkpt lat="48.07655" lon="7.08154">
        <ele>912.5</ele>
        <time>2023-08-12T12:14:01Z</time>
      </trkpt>
      <trkpt lat="48.07655" lon="7.08152">
        <ele>912.6</ele>
        <time>2023-08-12T12:14:02Z</time>
      </trkpt>
      <trkpt lat="48.07652" lon="7.08149">
        <ele>912.9</ele>
        <time>2023-08-12T12:14:03Z</time>
      </trkpt>
      <trkpt lat="48.07651" lon="7.08146">
        <ele>913.1</ele>
        <time>2023-08-12T12:14:04Z</time>
      </trkpt>
      <trkpt lat="48.0765" lon="7.08144">
        <ele>913.3</ele>
        <time>2023-08-12T12:14:05Z</time>
      </trkpt>
      <trkpt lat="48.07648" lon="7.08141">
        <ele>913.6</ele>
        <time>2023-08-12T12:14:06Z</time>
      </trkpt>
      <trkpt lat="48.07647" lon="7.08138">
        <ele>913.8</ele>
        <time>2023-08-12T12:14:07Z</time>
      </trkpt>
      <trkpt lat="48.07646" lon="7.08135">
        <ele>914</ele>
        <time>2023-08-12T12:14:08Z</time>
      </trkpt>
      <trkpt lat="48.07647" lon="7.08133">
        <ele>914.1</ele>
        <time>2023-08-12T12:14:09Z</time>
      </trkpt>
      <trkpt lat="48.07646" lon="7.0813">
        <ele>914.3</ele>
        <time>2023-08-12T12:14:10Z</time>
      </trkpt>
      <trkpt lat="48.07645" lon="7.08127">
        <ele>914.5</ele>
        <time>2023-08-12T12:14:11Z</time>
      </trkpt>
      <trkpt lat="48.07644" lon="7.08126">
        <ele>914.6</ele>
        <time>2023-08-12T12:14:12Z</time>
      </trkpt>
      <trkpt lat="48.07644" lon="7.08124">
        <ele>914.8</ele>
        <time>2023-08-12T12:14:13Z</time>
      </trkpt>
      <trkpt lat="48.07643" lon="7.0812">
        <ele>915</ele>
        <time>2023-08-12T12:14:14Z</time>
      </trkpt>
      <trkpt lat="48.07642" lon="7.08116">
        <ele>915.3</ele>
        <time>2023-08-12T12:14:15Z</time>
      </trkpt>
      <trkpt lat="48.07641" lon="7.08113">
        <ele>915.5</ele>
        <time>2023-08-12T12:14:16Z</time>
      </trkpt>
      <trkpt lat="48.0764" lon="7.08111">
        <ele>915.6</ele>
        <time>2023-08-12T12:14:17Z</time>
      </trkpt>
      <trkpt lat="48.0764" lon="7.08108">
        <ele>915.8</ele>
        <time>2023-08-12T12:14:18Z</time>
      </trkpt>
      <trkpt lat="48.07639" lon="7.08105">
        <ele>916</ele>
        <time>2023-08-12T12:14:19Z</time>
      </trkpt>
      <trkpt lat="48.07639" lon="7.08103">
        <ele>916.1</ele>
        <time>2023-08-12T12:14:20Z</time>
      </trkpt>
      <trkpt lat="48.07638" lon="7.081">
        <ele>916.3</ele>
        <time>2023-08-12T12:14:21Z</time>
      </trkpt>
      <trkpt lat="48.07638" lon="7.08096">
        <ele>916.5</ele>
        <time>2023-08-12T12:14:22Z</time>
      </trkpt>
      <trkpt lat="48.07637" lon="7.08093">
        <ele>916.7</ele>
        <time>2023-08-12T12:14:23Z</time>
      </trkpt>
      <trkpt lat="48.07636" lon="7.0809">
        <ele>916.9</ele>
        <time>2023-08-12T12:14:24Z</time>
      </trkpt>
      <trkpt lat="48.07635" lon="7.08088">
        <ele>917</ele>
        <time>2023-08-12T12:14:25Z</time>
      </trkpt>
      <trkpt lat="48.07635" lon="7.08085">
        <ele>917.1</ele>
        <time>2023-08-12T12:14:26Z</time>
      </trkpt>
      <trkpt lat="48.07635" lon="7.08084">
        <ele>917.2</ele>
        <time>2023-08-12T12:14:27Z</time>
      </trkpt>
      <trkpt lat="48.07634" lon="7.08081">
        <ele>917.4</ele>
        <time>2023-08-12T12:14:28Z</time>
      </trkpt>
      <trkpt lat="48.07634" lon="7.08079">
        <ele>917.5</ele>
        <time>2023-08-12T12:14:29Z</time>
      </trkpt>
      <trkpt lat="48.07634" lon="7.08077">
        <ele>917.6</ele>
        <time>2023-08-12T12:14:30Z</time>
      </trkpt>
      <trkpt lat="48.07633" lon="7.08074">
        <ele>917.8</ele>
        <time>2023-08-12T12:14:31Z</time>
      </trkpt>
      <trkpt lat="48.07632" lon="7.08072">
        <ele>917.9</ele>
        <time>2023-08-12T12:14:32Z</time>
      </trkpt>
      <trkpt lat="48.07632" lon="7.0807">
        <ele>918</ele>
        <time>2023-08-12T12:14:33Z</time>
      </trkpt>
      <trkpt lat="48.07631" lon="7.08067">
        <ele>918.2</ele>
        <time>2023-08-12T12:14:34Z</time>
      </trkpt>
      <trkpt lat="48.0763" lon="7.08064">
        <ele>918.3</ele>
        <time>2023-08-12T12:14:35Z</time>
      </trkpt>
      <trkpt lat="48.07629" lon="7.08061">
        <ele>918.5</ele>
        <time>2023-08-12T12:14:36Z</time>
      </trkpt>
      <trkpt lat="48.07628" lon="7.08058">
        <ele>918.7</ele>
        <time>2023-08-12T12:14:37Z</time>
      </trkpt>
      <trkpt lat="48.07627" lon="7.08056">
        <ele>918.8</ele>
        <time>2023-08-12T12:14:38Z</time>
      </trkpt>
      <trkpt lat="48.07627" lon="7.08054">
        <ele>919</ele>
        <time>2023-08-12T12:14:39Z</time>
      </trkpt>
      <trkpt lat="48.07626" lon="7.08051">
        <ele>919.2</ele>
        <time>2023-08-12T12:14:40Z</time>
      </trkpt>
      <trkpt lat="48.07625" lon="7.08049">
        <ele>919.3</ele>
        <time>2023-08-12T12:14:41Z</time>
      </trkpt>
      <trkpt lat="48.07624" lon="7.08047">
        <ele>919.5</ele>
        <time>2023-08-12T12:14:42Z</time>
      </trkpt>
      <trkpt lat="48.07623" lon="7.08045">
        <ele>919.6</ele>
        <time>2023-08-12T12:14:43Z</time>
      </trkpt>
      <trkpt lat="48.07623" lon="7.08043">
        <ele>919.8</ele>
        <time>2023-08-12T12:14:44Z</time>
      </trkpt>
      <trkpt lat="48.07622" lon="7.08041">
        <ele>919.9</ele>
        <time>2023-08-12T12:14:45Z</time>
      </trkpt>
      <trkpt lat="48.07621" lon="7.08038">
        <ele>920.1</ele>
        <time>2023-08-12T12:14:46Z</time>
      </trkpt>
      <trkpt lat="48.07621" lon="7.08036">
        <ele>920.2</ele>
        <time>2023-08-12T12:14:47Z</time>
      </trkpt>
      <trkpt lat="48.07621" lon="7.08034">
        <ele>920.3</ele>
        <time>2023-08-12T12:14:48Z</time>
      </trkpt>
      <trkpt lat="48.07621" lon="7.08031">
        <ele>920.5</ele>
        <time>2023-08-12T12:14:49Z</time>
      </trkpt>
      <trkpt lat="48.0762" lon="7.08028">
        <ele>920.7</ele>
        <time>2023-08-12T12:14:50Z</time>
      </trkpt>
      <trkpt lat="48.07618" lon="7.08026">
        <ele>920.9</ele>
        <time>2023-08-12T12:14:51Z</time>
      </trkpt>
      <trkpt lat="48.07617" lon="7.08023">
        <ele>921.1</ele>
        <time>2023-08-12T12:14:52Z</time>
      </trkpt>
      <trkpt lat="48.07616" lon="7.08021">
        <ele>921.2</ele>
        <time>2023-08-12T12:14:53Z</time>
      </trkpt>
      <trkpt lat="48.07615" lon="7.08019">
        <ele>921.4</ele>
        <time>2023-08-12T12:14:54Z</time>
      </trkpt>
      <trkpt lat="48.07615" lon="7.08018">
        <ele>921.5</ele>
        <time>2023-08-12T12:14:55Z</time>
      </trkpt>
      <trkpt lat="48.07614" lon="7.08016">
        <ele>921.6</ele>
        <time>2023-08-12T12:14:56Z</time>
      </trkpt>
      <trkpt lat="48.07614" lon="7.08014">
        <ele>921.7</ele>
        <time>2023-08-12T12:14:57Z</time>
      </trkpt>
      <trkpt lat="48.07613" lon="7.08011">
        <ele>921.9</ele>
        <time>2023-08-12T12:14:58Z</time>
      </trkpt>
      <trkpt lat="48.07612" lon="7.08009">
        <ele>922</ele>
        <time>2023-08-12T12:14:59Z</time>
      </trkpt>
      <trkpt lat="48.07612" lon="7.08006">
        <ele>922.2</ele>
        <time>2023-08-12T12:15:00Z</time>
      </trkpt>
      <trkpt lat="48.07611" lon="7.08004">
        <ele>922.3</ele>
        <time>2023-08-12T12:15:01Z</time>
      </trkpt>
      <trkpt lat="48.07611" lon="7.08002">
        <ele>922.4</ele>
        <time>2023-08-12T12:15:02Z</time>
      </trkpt>
      <trkpt lat="48.07611" lon="7.08001">
        <ele>922.5</ele>
        <time>2023-08-12T12:15:03Z</time>
      </trkpt>
      <trkpt lat="48.0761" lon="7.07996">
        <ele>922.8</ele>
        <time>2023-08-12T12:15:05Z</time>
      </trkpt>
      <trkpt lat="48.07608" lon="7.0799">
        <ele>923.2</ele>
        <time>2023-08-12T12:15:07Z</time>
      </trkpt>
      <trkpt lat="48.07607" lon="7.07987">
        <ele>923.3</ele>
        <time>2023-08-12T12:15:08Z</time>
      </trkpt>
      <trkpt lat="48.07605" lon="7.07974">
        <ele>924.1</ele>
        <time>2023-08-12T12:15:12Z</time>
      </trkpt>
      <trkpt lat="48.07594" lon="7.07942">
        <ele>926.2</ele>
        <time>2023-08-12T12:15:22Z</time>
      </trkpt>
      <trkpt lat="48.07587" lon="7.07927">
        <ele>927.2</ele>
        <time>2023-08-12T12:15:28Z</time>
      </trkpt>
      <trkpt lat="48.07584" lon="7.07917">
        <ele>927.8</ele>
        <time>2023-08-12T12:15:31Z</time>
      </trkpt>
      <trkpt lat="48.07583" lon="7.07914">
        <ele>927.9</ele>
        <time>2023-08-12T12:15:32Z</time>
      </trkpt>
      <trkpt lat="48.07582" lon="7.07911">
        <ele>928.1</ele>
        <time>2023-08-12T12:15:33Z</time>
      </trkpt>
      <trkpt lat="48.07581" lon="7.07908">
        <ele>928.3</ele>
        <time>2023-08-12T12:15:34Z</time>
      </trkpt>
      <trkpt lat="48.07579" lon="7.07895">
        <ele>928.9</ele>
        <time>2023-08-12T12:15:37Z</time>
      </trkpt>
      <trkpt lat="48.07578" lon="7.07891">
        <ele>929</ele>
        <time>2023-08-12T12:15:38Z</time>
      </trkpt>
      <trkpt lat="48.07578" lon="7.07885">
        <ele>929.3</ele>
        <time>2023-08-12T12:15:40Z</time>
      </trkpt>
      <trkpt lat="48.07578" lon="7.07883">
        <ele>929.4</ele>
        <time>2023-08-12T12:15:41Z</time>
      </trkpt>
      <trkpt lat="48.07578" lon="7.0788">
        <ele>929.5</ele>
        <time>2023-08-12T12:15:42Z</time>
      </trkpt>
      <trkpt lat="48.07577" lon="7.07869">
        <ele>930</ele>
        <time>2023-08-12T12:15:45Z</time>
      </trkpt>
      <trkpt lat="48.07577" lon="7.07866">
        <ele>930.1</ele>
        <time>2023-08-12T12:15:46Z</time>
      </trkpt>
      <trkpt lat="48.07576" lon="7.07864">
        <ele>930.2</ele>
        <time>2023-08-12T12:15:47Z</time>
      </trkpt>
      <trkpt lat="48.07575" lon="7.07861">
        <ele>930.3</ele>
        <time>2023-08-12T12:15:48Z</time>
      </trkpt>
      <trkpt lat="48.07575" lon="7.07854">
        <ele>930.6</ele>
        <time>2023-08-12T12:15:50Z</time>
      </trkpt>
      <trkpt lat="48.07575" lon="7.07852">
        <ele>930.7</ele>
        <time>2023-08-12T12:15:51Z</time>
      </trkpt>
      <trkpt lat="48.07574" lon="7.07847">
        <ele>930.9</ele>
        <time>2023-08-12T12:15:53Z</time>
      </trkpt>
      <trkpt lat="48.07574" lon="7.07845">
        <ele>931</ele>
        <time>2023-08-12T12:15:54Z</time>
      </trkpt>
      <trkpt lat="48.07573" lon="7.07843">
        <ele>931.1</ele>
        <time>2023-08-12T12:15:55Z</time>
      </trkpt>
      <trkpt lat="48.07568" lon="7.07824">
        <ele>933.3</ele>
        <time>2023-08-12T12:16:02Z</time>
      </trkpt>
      <trkpt lat="48.07568" lon="7.07821">
        <ele>933.4</ele>
        <time>2023-08-12T12:16:03Z</time>
      </trkpt>
      <trkpt lat="48.07569" lon="7.07819">
        <ele>933.4</ele>
        <time>2023-08-12T12:16:04Z</time>
      </trkpt>
      <trkpt lat="48.0757" lon="7.07817">
        <ele>933.4</ele>
        <time>2023-08-12T12:16:05Z</time>
      </trkpt>
      <trkpt lat="48.07572" lon="7.07815">
        <ele>933.7</ele>
        <time>2023-08-12T12:16:06Z</time>
      </trkpt>
      <trkpt lat="48.07574" lon="7.07813">
        <ele>933.8</ele>
        <time>2023-08-12T12:16:07Z</time>
      </trkpt>
      <trkpt lat="48.07576" lon="7.07812">
        <ele>933.8</ele>
        <time>2023-08-12T12:16:08Z</time>
      </trkpt>
      <trkpt lat="48.07578" lon="7.07811">
        <ele>933.9</ele>
        <time>2023-08-12T12:16:09Z</time>
      </trkpt>
      <trkpt lat="48.07587" lon="7.07808">
        <ele>934.3</ele>
        <time>2023-08-12T12:16:13Z</time>
      </trkpt>
      <trkpt lat="48.07594" lon="7.07805">
        <ele>934.6</ele>
        <time>2023-08-12T12:16:17Z</time>
      </trkpt>
      <trkpt lat="48.07596" lon="7.07805">
        <ele>934.6</ele>
        <time>2023-08-12T12:16:18Z</time>
      </trkpt>
      <trkpt lat="48.07597" lon="7.07805">
        <ele>934.7</ele>
        <time>2023-08-12T12:16:19Z</time>
      </trkpt>
      <trkpt lat="48.07598" lon="7.07805">
        <ele>934.7</ele>
        <time>2023-08-12T12:16:20Z</time>
      </trkpt>
      <trkpt lat="48.07599" lon="7.07804">
        <ele>934.8</ele>
        <time>2023-08-12T12:16:21Z</time>
      </trkpt>
      <trkpt lat="48.07601" lon="7.07803">
        <ele>934.8</ele>
        <time>2023-08-12T12:16:22Z</time>
      </trkpt>
      <trkpt lat="48.07602" lon="7.07802">
        <ele>934.9</ele>
        <time>2023-08-12T12:16:23Z</time>
      </trkpt>
      <trkpt lat="48.07604" lon="7.07802">
        <ele>935</ele>
        <time>2023-08-12T12:16:24Z</time>
      </trkpt>
      <trkpt lat="48.07608" lon="7.07797">
        <ele>935.3</ele>
        <time>2023-08-12T12:16:27Z</time>
      </trkpt>
      <trkpt lat="48.07609" lon="7.07796">
        <ele>935.3</ele>
        <time>2023-08-12T12:16:28Z</time>
      </trkpt>
      <trkpt lat="48.07611" lon="7.07795">
        <ele>935.4</ele>
        <time>2023-08-12T12:16:29Z</time>
      </trkpt>
      <trkpt lat="48.07612" lon="7.07794">
        <ele>935.5</ele>
        <time>2023-08-12T12:16:30Z</time>
      </trkpt>
      <trkpt lat="48.07615" lon="7.07792">
        <ele>935.7</ele>
        <time>2023-08-12T12:16:31Z</time>
      </trkpt>
      <trkpt lat="48.07617" lon="7.07791">
        <ele>935.9</ele>
        <time>2023-08-12T12:16:32Z</time>
      </trkpt>
      <trkpt lat="48.0763" lon="7.07781">
        <ele>936.8</ele>
        <time>2023-08-12T12:16:38Z</time>
      </trkpt>
      <trkpt lat="48.07632" lon="7.07779">
        <ele>936.9</ele>
        <time>2023-08-12T12:16:39Z</time>
      </trkpt>
      <trkpt lat="48.07639" lon="7.07771">
        <ele>937.2</ele>
        <time>2023-08-12T12:16:42Z</time>
      </trkpt>
      <trkpt lat="48.07645" lon="7.07763">
        <ele>937.3</ele>
        <time>2023-08-12T12:16:44Z</time>
      </trkpt>
      <trkpt lat="48.07647" lon="7.0776">
        <ele>937.2</ele>
        <time>2023-08-12T12:16:45Z</time>
      </trkpt>
      <trkpt lat="48.07651" lon="7.07758">
        <ele>937.2</ele>
        <time>2023-08-12T12:16:46Z</time>
      </trkpt>
      <trkpt lat="48.07654" lon="7.07753">
        <ele>937.1</ele>
        <time>2023-08-12T12:16:47Z</time>
      </trkpt>
      <trkpt lat="48.07658" lon="7.07747">
        <ele>937</ele>
        <time>2023-08-12T12:16:48Z</time>
      </trkpt>
      <trkpt lat="48.07662" lon="7.07742">
        <ele>937</ele>
        <time>2023-08-12T12:16:49Z</time>
      </trkpt>
      <trkpt lat="48.07667" lon="7.07737">
        <ele>936.9</ele>
        <time>2023-08-12T12:16:50Z</time>
      </trkpt>
      <trkpt lat="48.0767" lon="7.07734">
        <ele>936.8</ele>
        <time>2023-08-12T12:16:51Z</time>
      </trkpt>
      <trkpt lat="48.07673" lon="7.07732">
        <ele>936.8</ele>
        <time>2023-08-12T12:16:52Z</time>
      </trkpt>
      <trkpt lat="48.07676" lon="7.07729">
        <ele>936.8</ele>
        <time>2023-08-12T12:16:53Z</time>
      </trkpt>
      <trkpt lat="48.07679" lon="7.07725">
        <ele>936.8</ele>
        <time>2023-08-12T12:16:54Z</time>
      </trkpt>
      <trkpt lat="48.07683" lon="7.0772">
        <ele>936.9</ele>
        <time>2023-08-12T12:16:55Z</time>
      </trkpt>
      <trkpt lat="48.07686" lon="7.07716">
        <ele>937</ele>
        <time>2023-08-12T12:16:56Z</time>
      </trkpt>
      <trkpt lat="48.07689" lon="7.07711">
        <ele>937.1</ele>
        <time>2023-08-12T12:16:57Z</time>
      </trkpt>
      <trkpt lat="48.07693" lon="7.07706">
        <ele>937.3</ele>
        <time>2023-08-12T12:16:58Z</time>
      </trkpt>
      <trkpt lat="48.07696" lon="7.07703">
        <ele>937.4</ele>
        <time>2023-08-12T12:16:59Z</time>
      </trkpt>
      <trkpt lat="48.07699" lon="7.077">
        <ele>937.5</ele>
        <time>2023-08-12T12:17:00Z</time>
      </trkpt>
      <trkpt lat="48.07701" lon="7.07699">
        <ele>937.6</ele>
        <time>2023-08-12T12:17:01Z</time>
      </trkpt>
      <trkpt lat="48.07702" lon="7.07699">
        <ele>937.6</ele>
        <time>2023-08-12T12:17:02Z</time>
      </trkpt>
      <trkpt lat="48.07704" lon="7.07702">
        <ele>937.7</ele>
        <time>2023-08-12T12:17:03Z</time>
      </trkpt>
      <trkpt lat="48.07706" lon="7.07703">
        <ele>937.8</ele>
        <time>2023-08-12T12:17:04Z</time>
      </trkpt>
      <trkpt lat="48.0771" lon="7.07698">
        <ele>938.1</ele>
        <time>2023-08-12T12:17:05Z</time>
      </trkpt>
      <trkpt lat="48.07713" lon="7.07696">
        <ele>938.2</ele>
        <time>2023-08-12T12:17:06Z</time>
      </trkpt>
      <trkpt lat="48.07714" lon="7.07693">
        <ele>938.4</ele>
        <time>2023-08-12T12:17:07Z</time>
      </trkpt>
      <trkpt lat="48.07717" lon="7.0769">
        <ele>938.5</ele>
        <time>2023-08-12T12:17:08Z</time>
      </trkpt>
      <trkpt lat="48.07719" lon="7.07687">
        <ele>938.7</ele>
        <time>2023-08-12T12:17:09Z</time>
      </trkpt>
      <trkpt lat="48.07721" lon="7.07685">
        <ele>938.8</ele>
        <time>2023-08-12T12:17:10Z</time>
      </trkpt>
      <trkpt lat="48.07724" lon="7.07684">
        <ele>938.9</ele>
        <time>2023-08-12T12:17:11Z</time>
      </trkpt>
      <trkpt lat="48.07725" lon="7.07683">
        <ele>939</ele>
        <time>2023-08-12T12:17:12Z</time>
      </trkpt>
      <trkpt lat="48.07727" lon="7.07682">
        <ele>939.1</ele>
        <time>2023-08-12T12:17:13Z</time>
      </trkpt>
      <trkpt lat="48.07729" lon="7.07679">
        <ele>939.3</ele>
        <time>2023-08-12T12:17:14Z</time>
      </trkpt>
      <trkpt lat="48.07732" lon="7.07676">
        <ele>939.4</ele>
        <time>2023-08-12T12:17:15Z</time>
      </trkpt>
      <trkpt lat="48.07735" lon="7.07673">
        <ele>939.6</ele>
        <time>2023-08-12T12:17:16Z</time>
      </trkpt>
      <trkpt lat="48.07737" lon="7.07671">
        <ele>939.7</ele>
        <time>2023-08-12T12:17:17Z</time>
      </trkpt>
      <trkpt lat="48.0774" lon="7.07667">
        <ele>939.8</ele>
        <time>2023-08-12T12:17:18Z</time>
      </trkpt>
      <trkpt lat="48.07742" lon="7.07663">
        <ele>939.9</ele>
        <time>2023-08-12T12:17:19Z</time>
      </trkpt>
      <trkpt lat="48.07744" lon="7.07659">
        <ele>940</ele>
        <time>2023-08-12T12:17:20Z</time>
      </trkpt>
      <trkpt lat="48.07747" lon="7.07655">
        <ele>940</ele>
        <time>2023-08-12T12:17:21Z</time>
      </trkpt>
      <trkpt lat="48.07749" lon="7.07651">
        <ele>940.1</ele>
        <time>2023-08-12T12:17:22Z</time>
      </trkpt>
      <trkpt lat="48.07752" lon="7.07646">
        <ele>940.1</ele>
        <time>2023-08-12T12:17:23Z</time>
      </trkpt>
      <trkpt lat="48.07755" lon="7.07641">
        <ele>940.2</ele>
        <time>2023-08-12T12:17:24Z</time>
      </trkpt>
      <trkpt lat="48.07757" lon="7.07638">
        <ele>940.2</ele>
        <time>2023-08-12T12:17:25Z</time>
      </trkpt>
      <trkpt lat="48.07759" lon="7.07635">
        <ele>940.3</ele>
        <time>2023-08-12T12:17:26Z</time>
      </trkpt>
      <trkpt lat="48.07762" lon="7.07632">
        <ele>940.3</ele>
        <time>2023-08-12T12:17:27Z</time>
      </trkpt>
      <trkpt lat="48.07764" lon="7.07628">
        <ele>940.3</ele>
        <time>2023-08-12T12:17:28Z</time>
      </trkpt>
      <trkpt lat="48.07766" lon="7.07624">
        <ele>940.4</ele>
        <time>2023-08-12T12:17:29Z</time>
      </trkpt>
      <trkpt lat="48.07768" lon="7.07622">
        <ele>940.4</ele>
        <time>2023-08-12T12:17:30Z</time>
      </trkpt>
      <trkpt lat="48.0777" lon="7.0762">
        <ele>940.4</ele>
        <time>2023-08-12T12:17:31Z</time>
      </trkpt>
      <trkpt lat="48.07773" lon="7.07618">
        <ele>940.5</ele>
        <time>2023-08-12T12:17:32Z</time>
      </trkpt>
      <trkpt lat="48.07776" lon="7.07616">
        <ele>940.5</ele>
        <time>2023-08-12T12:17:33Z</time>
      </trkpt>
      <trkpt lat="48.07778" lon="7.07612">
        <ele>940.5</ele>
        <time>2023-08-12T12:17:34Z</time>
      </trkpt>
      <trkpt lat="48.0778" lon="7.07609">
        <ele>940.6</ele>
        <time>2023-08-12T12:17:35Z</time>
      </trkpt>
      <trkpt lat="48.07782" lon="7.07606">
        <ele>940.6</ele>
        <time>2023-08-12T12:17:36Z</time>
      </trkpt>
      <trkpt lat="48.07784" lon="7.07603">
        <ele>940.6</ele>
        <time>2023-08-12T12:17:37Z</time>
      </trkpt>
      <trkpt lat="48.07786" lon="7.076">
        <ele>940.6</ele>
        <time>2023-08-12T12:17:38Z</time>
      </trkpt>
      <trkpt lat="48.07787" lon="7.07599">
        <ele>940.6</ele>
        <time>2023-08-12T12:17:39Z</time>
      </trkpt>
      <trkpt lat="48.0779" lon="7.07596">
        <ele>940.7</ele>
        <time>2023-08-12T12:17:40Z</time>
      </trkpt>
      <trkpt lat="48.07792" lon="7.07593">
        <ele>940.7</ele>
        <time>2023-08-12T12:17:41Z</time>
      </trkpt>
      <trkpt lat="48.07794" lon="7.07591">
        <ele>940.7</ele>
        <time>2023-08-12T12:17:42Z</time>
      </trkpt>
      <trkpt lat="48.07795" lon="7.07588">
        <ele>940.7</ele>
        <time>2023-08-12T12:17:43Z</time>
      </trkpt>
      <trkpt lat="48.07797" lon="7.07586">
        <ele>940.8</ele>
        <time>2023-08-12T12:17:44Z</time>
      </trkpt>
      <trkpt lat="48.07798" lon="7.07583">
        <ele>940.8</ele>
        <time>2023-08-12T12:17:45Z</time>
      </trkpt>
      <trkpt lat="48.07799" lon="7.0758">
        <ele>940.8</ele>
        <time>2023-08-12T12:17:46Z</time>
      </trkpt>
      <trkpt lat="48.07801" lon="7.07577">
        <ele>940.9</ele>
        <time>2023-08-12T12:17:47Z</time>
      </trkpt>
      <trkpt lat="48.07803" lon="7.07574">
        <ele>940.9</ele>
        <time>2023-08-12T12:17:48Z</time>
      </trkpt>
      <trkpt lat="48.07805" lon="7.07571">
        <ele>941</ele>
        <time>2023-08-12T12:17:49Z</time>
      </trkpt>
      <trkpt lat="48.07808" lon="7.07568">
        <ele>941</ele>
        <time>2023-08-12T12:17:50Z</time>
      </trkpt>
      <trkpt lat="48.0781" lon="7.07565">
        <ele>941.1</ele>
        <time>2023-08-12T12:17:51Z</time>
      </trkpt>
      <trkpt lat="48.07812" lon="7.07563">
        <ele>941.1</ele>
        <time>2023-08-12T12:17:52Z</time>
      </trkpt>
      <trkpt lat="48.07813" lon="7.07562">
        <ele>941.2</ele>
        <time>2023-08-12T12:17:53Z</time>
      </trkpt>
      <trkpt lat="48.07815" lon="7.07559">
        <ele>941.2</ele>
        <time>2023-08-12T12:17:54Z</time>
      </trkpt>
      <trkpt lat="48.07817" lon="7.07558">
        <ele>941.3</ele>
        <time>2023-08-12T12:17:55Z</time>
      </trkpt>
      <trkpt lat="48.07818" lon="7.07555">
        <ele>941.4</ele>
        <time>2023-08-12T12:17:56Z</time>
      </trkpt>
      <trkpt lat="48.0782" lon="7.07552">
        <ele>941.4</ele>
        <time>2023-08-12T12:17:57Z</time>
      </trkpt>
      <trkpt lat="48.07821" lon="7.07548">
        <ele>941.5</ele>
        <time>2023-08-12T12:17:58Z</time>
      </trkpt>
      <trkpt lat="48.07823" lon="7.07544">
        <ele>941.6</ele>
        <time>2023-08-12T12:17:59Z</time>
      </trkpt>
      <trkpt lat="48.07825" lon="7.07541">
        <ele>941.7</ele>
        <time>2023-08-12T12:18:00Z</time>
      </trkpt>
      <trkpt lat="48.07828" lon="7.07536">
        <ele>941.9</ele>
        <time>2023-08-12T12:18:01Z</time>
      </trkpt>
      <trkpt lat="48.07829" lon="7.07531">
        <ele>942</ele>
        <time>2023-08-12T12:18:02Z</time>
      </trkpt>
      <trkpt lat="48.0783" lon="7.07528">
        <ele>942.1</ele>
        <time>2023-08-12T12:18:03Z</time>
      </trkpt>
      <trkpt lat="48.07833" lon="7.07523">
        <ele>942.2</ele>
        <time>2023-08-12T12:18:04Z</time>
      </trkpt>
      <trkpt lat="48.07835" lon="7.07519">
        <ele>942.4</ele>
        <time>2023-08-12T12:18:05Z</time>
      </trkpt>
      <trkpt lat="48.07836" lon="7.07514">
        <ele>942.6</ele>
        <time>2023-08-12T12:18:06Z</time>
      </trkpt>
      <trkpt lat="48.07838" lon="7.07512">
        <ele>942.7</ele>
        <time>2023-08-12T12:18:07Z</time>
      </trkpt>
      <trkpt lat="48.07839" lon="7.07511">
        <ele>942.8</ele>
        <time>2023-08-12T12:18:08Z</time>
      </trkpt>
      <trkpt lat="48.07841" lon="7.07509">
        <ele>942.9</ele>
        <time>2023-08-12T12:18:09Z</time>
      </trkpt>
      <trkpt lat="48.07842" lon="7.07506">
        <ele>943.1</ele>
        <time>2023-08-12T12:18:10Z</time>
      </trkpt>
      <trkpt lat="48.07843" lon="7.07503">
        <ele>943.2</ele>
        <time>2023-08-12T12:18:11Z</time>
      </trkpt>
      <trkpt lat="48.07843" lon="7.07503">
        <ele>943.2</ele>
        <time>2023-08-12T12:18:12Z</time>
      </trkpt>
      <trkpt lat="48.07843" lon="7.07502">
        <ele>943.3</ele>
        <time>2023-08-12T12:18:13Z</time>
      </trkpt>
      <trkpt lat="48.07845" lon="7.075">
        <ele>943.4</ele>
        <time>2023-08-12T12:18:14Z</time>
      </trkpt>
      <trkpt lat="48.07846" lon="7.07499">
        <ele>943.6</ele>
        <time>2023-08-12T12:18:15Z</time>
      </trkpt>
      <trkpt lat="48.07847" lon="7.07498">
        <ele>943.7</ele>
        <time>2023-08-12T12:18:16Z</time>
      </trkpt>
      <trkpt lat="48.07849" lon="7.07496">
        <ele>943.8</ele>
        <time>2023-08-12T12:18:17Z</time>
      </trkpt>
      <trkpt lat="48.0785" lon="7.07495">
        <ele>944</ele>
        <time>2023-08-12T12:18:18Z</time>
      </trkpt>
      <trkpt lat="48.07851" lon="7.07493">
        <ele>944.1</ele>
        <time>2023-08-12T12:18:19Z</time>
      </trkpt>
      <trkpt lat="48.07853" lon="7.07492">
        <ele>944.3</ele>
        <time>2023-08-12T12:18:20Z</time>
      </trkpt>
      <trkpt lat="48.07854" lon="7.0749">
        <ele>944.5</ele>
        <time>2023-08-12T12:18:21Z</time>
      </trkpt>
      <trkpt lat="48.07856" lon="7.07488">
        <ele>944.7</ele>
        <time>2023-08-12T12:18:22Z</time>
      </trkpt>
      <trkpt lat="48.07857" lon="7.07486">
        <ele>944.8</ele>
        <time>2023-08-12T12:18:23Z</time>
      </trkpt>
      <trkpt lat="48.07858" lon="7.07484">
        <ele>945</ele>
        <time>2023-08-12T12:18:24Z</time>
      </trkpt>
      <trkpt lat="48.07859" lon="7.07483">
        <ele>945.1</ele>
        <time>2023-08-12T12:18:25Z</time>
      </trkpt>
      <trkpt lat="48.07861" lon="7.07481">
        <ele>945.3</ele>
        <time>2023-08-12T12:18:26Z</time>
      </trkpt>
      <trkpt lat="48.07862" lon="7.07478">
        <ele>945.5</ele>
        <time>2023-08-12T12:18:27Z</time>
      </trkpt>
      <trkpt lat="48.07864" lon="7.07476">
        <ele>945.7</ele>
        <time>2023-08-12T12:18:28Z</time>
      </trkpt>
      <trkpt lat="48.07865" lon="7.07473">
        <ele>945.8</ele>
        <time>2023-08-12T12:18:29Z</time>
      </trkpt>
      <trkpt lat="48.07866" lon="7.07471">
        <ele>946</ele>
        <time>2023-08-12T12:18:30Z</time>
      </trkpt>
      <trkpt lat="48.07867" lon="7.07469">
        <ele>946.1</ele>
        <time>2023-08-12T12:18:31Z</time>
      </trkpt>
      <trkpt lat="48.07869" lon="7.07467">
        <ele>946.3</ele>
        <time>2023-08-12T12:18:32Z</time>
      </trkpt>
      <trkpt lat="48.0787" lon="7.07466">
        <ele>946.4</ele>
        <time>2023-08-12T12:18:33Z</time>
      </trkpt>
      <trkpt lat="48.07872" lon="7.07464">
        <ele>946.6</ele>
        <time>2023-08-12T12:18:34Z</time>
      </trkpt>
      <trkpt lat="48.07873" lon="7.07462">
        <ele>946.7</ele>
        <time>2023-08-12T12:18:35Z</time>
      </trkpt>
      <trkpt lat="48.07875" lon="7.07459">
        <ele>946.9</ele>
        <time>2023-08-12T12:18:36Z</time>
      </trkpt>
      <trkpt lat="48.07876" lon="7.07457">
        <ele>947</ele>
        <time>2023-08-12T12:18:37Z</time>
      </trkpt>
      <trkpt lat="48.07877" lon="7.07455">
        <ele>947.2</ele>
        <time>2023-08-12T12:18:38Z</time>
      </trkpt>
      <trkpt lat="48.07879" lon="7.07453">
        <ele>947.3</ele>
        <time>2023-08-12T12:18:39Z</time>
      </trkpt>
      <trkpt lat="48.0788" lon="7.07451">
        <ele>947.4</ele>
        <time>2023-08-12T12:18:40Z</time>
      </trkpt>
      <trkpt lat="48.07882" lon="7.07448">
        <ele>947.6</ele>
        <time>2023-08-12T12:18:41Z</time>
      </trkpt>
      <trkpt lat="48.07883" lon="7.07444">
        <ele>947.9</ele>
        <time>2023-08-12T12:18:42Z</time>
      </trkpt>
      <trkpt lat="48.07885" lon="7.0744">
        <ele>948.1</ele>
        <time>2023-08-12T12:18:43Z</time>
      </trkpt>
      <trkpt lat="48.07886" lon="7.07439">
        <ele>948.2</ele>
        <time>2023-08-12T12:18:44Z</time>
      </trkpt>
      <trkpt lat="48.07887" lon="7.07437">
        <ele>948.3</ele>
        <time>2023-08-12T12:18:45Z</time>
      </trkpt>
      <trkpt lat="48.07888" lon="7.07436">
        <ele>948.4</ele>
        <time>2023-08-12T12:18:46Z</time>
      </trkpt>
      <trkpt lat="48.07888" lon="7.07435">
        <ele>948.5</ele>
        <time>2023-08-12T12:18:47Z</time>
      </trkpt>
      <trkpt lat="48.07889" lon="7.07436">
        <ele>948.6</ele>
        <time>2023-08-12T12:18:48Z</time>
      </trkpt>
      <trkpt lat="48.0789" lon="7.07433">
        <ele>948.8</ele>
        <time>2023-08-12T12:18:49Z</time>
      </trkpt>
      <trkpt lat="48.07892" lon="7.07429">
        <ele>949.1</ele>
        <time>2023-08-12T12:18:50Z</time>
      </trkpt>
      <trkpt lat="48.07895" lon="7.07426">
        <ele>949.4</ele>
        <time>2023-08-12T12:18:51Z</time>
      </trkpt>
      <trkpt lat="48.07896" lon="7.07426">
        <ele>949.5</ele>
        <time>2023-08-12T12:18:52Z</time>
      </trkpt>
      <trkpt lat="48.07897" lon="7.07424">
        <ele>949.7</ele>
        <time>2023-08-12T12:18:53Z</time>
      </trkpt>
      <trkpt lat="48.07899" lon="7.07422">
        <ele>949.9</ele>
        <time>2023-08-12T12:18:54Z</time>
      </trkpt>
      <trkpt lat="48.07901" lon="7.0742">
        <ele>950.1</ele>
        <time>2023-08-12T12:18:55Z</time>
      </trkpt>
      <trkpt lat="48.07902" lon="7.07419">
        <ele>950.2</ele>
        <time>2023-08-12T12:18:56Z</time>
      </trkpt>
      <trkpt lat="48.07903" lon="7.07417">
        <ele>950.4</ele>
        <time>2023-08-12T12:18:57Z</time>
      </trkpt>
      <trkpt lat="48.07905" lon="7.07414">
        <ele>950.6</ele>
        <time>2023-08-12T12:18:58Z</time>
      </trkpt>
      <trkpt lat="48.07907" lon="7.07413">
        <ele>950.7</ele>
        <time>2023-08-12T12:18:59Z</time>
      </trkpt>
      <trkpt lat="48.07908" lon="7.07413">
        <ele>950.8</ele>
        <time>2023-08-12T12:19:00Z</time>
      </trkpt>
      <trkpt lat="48.07908" lon="7.07414">
        <ele>950.8</ele>
        <time>2023-08-12T12:19:01Z</time>
      </trkpt>
      <trkpt lat="48.07909" lon="7.07413">
        <ele>950.8</ele>
        <time>2023-08-12T12:19:02Z</time>
      </trkpt>
      <trkpt lat="48.07909" lon="7.07413">
        <ele>950.9</ele>
        <time>2023-08-12T12:19:03Z</time>
      </trkpt>
      <trkpt lat="48.0791" lon="7.07413">
        <ele>950.9</ele>
        <time>2023-08-12T12:19:04Z</time>
      </trkpt>
      <trkpt lat="48.0791" lon="7.07412">
        <ele>951</ele>
        <time>2023-08-12T12:19:05Z</time>
      </trkpt>
      <trkpt lat="48.07912" lon="7.0741">
        <ele>951.1</ele>
        <time>2023-08-12T12:19:06Z</time>
      </trkpt>
      <trkpt lat="48.07913" lon="7.07409">
        <ele>951.1</ele>
        <time>2023-08-12T12:19:07Z</time>
      </trkpt>
      <trkpt lat="48.07915" lon="7.07407">
        <ele>951.2</ele>
        <time>2023-08-12T12:19:08Z</time>
      </trkpt>
      <trkpt lat="48.07917" lon="7.07407">
        <ele>951.3</ele>
        <time>2023-08-12T12:19:09Z</time>
      </trkpt>
      <trkpt lat="48.07919" lon="7.07405">
        <ele>951.4</ele>
        <time>2023-08-12T12:19:10Z</time>
      </trkpt>
      <trkpt lat="48.07921" lon="7.07403">
        <ele>951.5</ele>
        <time>2023-08-12T12:19:11Z</time>
      </trkpt>
      <trkpt lat="48.07924" lon="7.07401">
        <ele>951.6</ele>
        <time>2023-08-12T12:19:12Z</time>
      </trkpt>
      <trkpt lat="48.07926" lon="7.07399">
        <ele>951.7</ele>
        <time>2023-08-12T12:19:13Z</time>
      </trkpt>
      <trkpt lat="48.07928" lon="7.07397">
        <ele>951.7</ele>
        <time>2023-08-12T12:19:14Z</time>
      </trkpt>
      <trkpt lat="48.0793" lon="7.07394">
        <ele>951.8</ele>
        <time>2023-08-12T12:19:15Z</time>
      </trkpt>
      <trkpt lat="48.07931" lon="7.07393">
        <ele>951.9</ele>
        <time>2023-08-12T12:19:16Z</time>
      </trkpt>
      <trkpt lat="48.07932" lon="7.07393">
        <ele>951.9</ele>
        <time>2023-08-12T12:19:17Z</time>
      </trkpt>
      <trkpt lat="48.07934" lon="7.07393">
        <ele>952</ele>
        <time>2023-08-12T12:19:18Z</time>
      </trkpt>
      <trkpt lat="48.07937" lon="7.07393">
        <ele>952</ele>
        <time>2023-08-12T12:19:19Z</time>
      </trkpt>
      <trkpt lat="48.07938" lon="7.07393">
        <ele>952.1</ele>
        <time>2023-08-12T12:19:20Z</time>
      </trkpt>
      <trkpt lat="48.0794" lon="7.07393">
        <ele>952.2</ele>
        <time>2023-08-12T12:19:21Z</time>
      </trkpt>
      <trkpt lat="48.07942" lon="7.07393">
        <ele>952.2</ele>
        <time>2023-08-12T12:19:22Z</time>
      </trkpt>
      <trkpt lat="48.07944" lon="7.07393">
        <ele>952.3</ele>
        <time>2023-08-12T12:19:23Z</time>
      </trkpt>
      <trkpt lat="48.07946" lon="7.07392">
        <ele>952.4</ele>
        <time>2023-08-12T12:19:24Z</time>
      </trkpt>
      <trkpt lat="48.07949" lon="7.07394">
        <ele>952.5</ele>
        <time>2023-08-12T12:19:25Z</time>
      </trkpt>
      <trkpt lat="48.07952" lon="7.07397">
        <ele>952.6</ele>
        <time>2023-08-12T12:19:26Z</time>
      </trkpt>
      <trkpt lat="48.07954" lon="7.07399">
        <ele>952.7</ele>
        <time>2023-08-12T12:19:27Z</time>
      </trkpt>
      <trkpt lat="48.07955" lon="7.074">
        <ele>952.8</ele>
        <time>2023-08-12T12:19:28Z</time>
      </trkpt>
      <trkpt lat="48.07957" lon="7.07402">
        <ele>952.9</ele>
        <time>2023-08-12T12:19:29Z</time>
      </trkpt>
      <trkpt lat="48.07959" lon="7.07404">
        <ele>953</ele>
        <time>2023-08-12T12:19:30Z</time>
      </trkpt>
      <trkpt lat="48.07962" lon="7.07407">
        <ele>953.1</ele>
        <time>2023-08-12T12:19:31Z</time>
      </trkpt>
      <trkpt lat="48.07964" lon="7.07408">
        <ele>953.2</ele>
        <time>2023-08-12T12:19:32Z</time>
      </trkpt>
      <trkpt lat="48.07966" lon="7.07407">
        <ele>953.3</ele>
        <time>2023-08-12T12:19:33Z</time>
      </trkpt>
      <trkpt lat="48.07969" lon="7.07409">
        <ele>953.4</ele>
        <time>2023-08-12T12:19:34Z</time>
      </trkpt>
      <trkpt lat="48.07972" lon="7.07411">
        <ele>953.5</ele>
        <time>2023-08-12T12:19:35Z</time>
      </trkpt>
      <trkpt lat="48.07975" lon="7.07411">
        <ele>953.6</ele>
        <time>2023-08-12T12:19:36Z</time>
      </trkpt>
      <trkpt lat="48.07978" lon="7.07411">
        <ele>953.7</ele>
        <time>2023-08-12T12:19:37Z</time>
      </trkpt>
      <trkpt lat="48.0798" lon="7.07411">
        <ele>953.8</ele>
        <time>2023-08-12T12:19:38Z</time>
      </trkpt>
      <trkpt lat="48.07983" lon="7.07411">
        <ele>953.9</ele>
        <time>2023-08-12T12:19:39Z</time>
      </trkpt>
      <trkpt lat="48.07984" lon="7.07411">
        <ele>953.9</ele>
        <time>2023-08-12T12:19:40Z</time>
      </trkpt>
      <trkpt lat="48.07985" lon="7.07411">
        <ele>953.9</ele>
        <time>2023-08-12T12:19:41Z</time>
      </trkpt>
      <trkpt lat="48.07987" lon="7.07411">
        <ele>954</ele>
        <time>2023-08-12T12:19:42Z</time>
      </trkpt>
      <trkpt lat="48.07989" lon="7.07411">
        <ele>954</ele>
        <time>2023-08-12T12:19:43Z</time>
      </trkpt>
      <trkpt lat="48.07991" lon="7.0741">
        <ele>954.1</ele>
        <time>2023-08-12T12:19:44Z</time>
      </trkpt>
      <trkpt lat="48.07995" lon="7.07413">
        <ele>954.2</ele>
        <time>2023-08-12T12:19:45Z</time>
      </trkpt>
      <trkpt lat="48.07999" lon="7.07415">
        <ele>954.3</ele>
        <time>2023-08-12T12:19:46Z</time>
      </trkpt>
      <trkpt lat="48.08001" lon="7.07416">
        <ele>954.3</ele>
        <time>2023-08-12T12:19:47Z</time>
      </trkpt>
      <trkpt lat="48.08003" lon="7.07417">
        <ele>954.4</ele>
        <time>2023-08-12T12:19:48Z</time>
      </trkpt>
      <trkpt lat="48.08004" lon="7.07417">
        <ele>954.4</ele>
        <time>2023-08-12T12:19:49Z</time>
      </trkpt>
      <trkpt lat="48.08004" lon="7.07417">
        <ele>954.4</ele>
        <time>2023-08-12T12:19:50Z</time>
      </trkpt>
      <trkpt lat="48.08007" lon="7.07415">
        <ele>954.5</ele>
        <time>2023-08-12T12:19:51Z</time>
      </trkpt>
      <trkpt lat="48.08011" lon="7.07416">
        <ele>954.7</ele>
        <time>2023-08-12T12:19:52Z</time>
      </trkpt>
      <trkpt lat="48.08014" lon="7.07416">
        <ele>954.8</ele>
        <time>2023-08-12T12:19:53Z</time>
      </trkpt>
      <trkpt lat="48.08021" lon="7.07419">
        <ele>955</ele>
        <time>2023-08-12T12:19:55Z</time>
      </trkpt>
      <trkpt lat="48.08026" lon="7.07416">
        <ele>955.2</ele>
        <time>2023-08-12T12:19:57Z</time>
      </trkpt>
      <trkpt lat="48.0803" lon="7.07417">
        <ele>955.3</ele>
        <time>2023-08-12T12:19:58Z</time>
      </trkpt>
      <trkpt lat="48.08034" lon="7.07417">
        <ele>955.4</ele>
        <time>2023-08-12T12:19:59Z</time>
      </trkpt>
      <trkpt lat="48.08036" lon="7.07415">
        <ele>955.4</ele>
        <time>2023-08-12T12:20:00Z</time>
      </trkpt>
      <trkpt lat="48.08038" lon="7.07412">
        <ele>955.5</ele>
        <time>2023-08-12T12:20:01Z</time>
      </trkpt>
      <trkpt lat="48.08039" lon="7.07409">
        <ele>955.6</ele>
        <time>2023-08-12T12:20:02Z</time>
      </trkpt>
      <trkpt lat="48.0804" lon="7.07407">
        <ele>955.6</ele>
        <time>2023-08-12T12:20:03Z</time>
      </trkpt>
      <trkpt lat="48.08041" lon="7.07404">
        <ele>955.6</ele>
        <time>2023-08-12T12:20:04Z</time>
      </trkpt>
      <trkpt lat="48.08043" lon="7.07402">
        <ele>955.7</ele>
        <time>2023-08-12T12:20:05Z</time>
      </trkpt>
      <trkpt lat="48.08045" lon="7.07399">
        <ele>955.8</ele>
        <time>2023-08-12T12:20:06Z</time>
      </trkpt>
      <trkpt lat="48.08047" lon="7.07398">
        <ele>955.8</ele>
        <time>2023-08-12T12:20:07Z</time>
      </trkpt>
      <trkpt lat="48.0805" lon="7.07398">
        <ele>955.9</ele>
        <time>2023-08-12T12:20:08Z</time>
      </trkpt>
      <trkpt lat="48.08051" lon="7.07395">
        <ele>955.9</ele>
        <time>2023-08-12T12:20:09Z</time>
      </trkpt>
      <trkpt lat="48.08053" lon="7.07393">
        <ele>956</ele>
        <time>2023-08-12T12:20:10Z</time>
      </trkpt>
      <trkpt lat="48.08055" lon="7.07389">
        <ele>956</ele>
        <time>2023-08-12T12:20:11Z</time>
      </trkpt>
      <trkpt lat="48.08059" lon="7.07386">
        <ele>956.2</ele>
        <time>2023-08-12T12:20:12Z</time>
      </trkpt>
      <trkpt lat="48.0806" lon="7.07386">
        <ele>956.2</ele>
        <time>2023-08-12T12:20:13Z</time>
      </trkpt>
      <trkpt lat="48.08062" lon="7.07386">
        <ele>956.2</ele>
        <time>2023-08-12T12:20:14Z</time>
      </trkpt>
      <trkpt lat="48.08064" lon="7.07383">
        <ele>956.3</ele>
        <time>2023-08-12T12:20:15Z</time>
      </trkpt>
      <trkpt lat="48.08067" lon="7.0738">
        <ele>956.4</ele>
        <time>2023-08-12T12:20:16Z</time>
      </trkpt>
      <trkpt lat="48.08068" lon="7.07377">
        <ele>956.5</ele>
        <time>2023-08-12T12:20:17Z</time>
      </trkpt>
      <trkpt lat="48.08071" lon="7.07374">
        <ele>956.6</ele>
        <time>2023-08-12T12:20:18Z</time>
      </trkpt>
      <trkpt lat="48.08072" lon="7.07373">
        <ele>956.7</ele>
        <time>2023-08-12T12:20:19Z</time>
      </trkpt>
      <trkpt lat="48.08074" lon="7.0737">
        <ele>956.7</ele>
        <time>2023-08-12T12:20:20Z</time>
      </trkpt>
      <trkpt lat="48.08075" lon="7.07368">
        <ele>956.8</ele>
        <time>2023-08-12T12:20:21Z</time>
      </trkpt>
      <trkpt lat="48.08077" lon="7.07365">
        <ele>956.8</ele>
        <time>2023-08-12T12:20:22Z</time>
      </trkpt>
      <trkpt lat="48.08078" lon="7.07362">
        <ele>956.9</ele>
        <time>2023-08-12T12:20:23Z</time>
      </trkpt>
      <trkpt lat="48.0808" lon="7.07359">
        <ele>957</ele>
        <time>2023-08-12T12:20:24Z</time>
      </trkpt>
      <trkpt lat="48.08081" lon="7.07356">
        <ele>957.1</ele>
        <time>2023-08-12T12:20:25Z</time>
      </trkpt>
      <trkpt lat="48.08083" lon="7.07353">
        <ele>957.1</ele>
        <time>2023-08-12T12:20:26Z</time>
      </trkpt>
      <trkpt lat="48.08085" lon="7.0735">
        <ele>957.2</ele>
        <time>2023-08-12T12:20:27Z</time>
      </trkpt>
      <trkpt lat="48.08088" lon="7.07345">
        <ele>957.3</ele>
        <time>2023-08-12T12:20:28Z</time>
      </trkpt>
      <trkpt lat="48.0809" lon="7.07342">
        <ele>957.4</ele>
        <time>2023-08-12T12:20:29Z</time>
      </trkpt>
      <trkpt lat="48.08091" lon="7.07338">
        <ele>957.5</ele>
        <time>2023-08-12T12:20:30Z</time>
      </trkpt>
      <trkpt lat="48.08091" lon="7.07335">
        <ele>957.5</ele>
        <time>2023-08-12T12:20:31Z</time>
      </trkpt>
      <trkpt lat="48.08092" lon="7.07333">
        <ele>957.6</ele>
        <time>2023-08-12T12:20:32Z</time>
      </trkpt>
      <trkpt lat="48.08092" lon="7.0733">
        <ele>957.6</ele>
        <time>2023-08-12T12:20:33Z</time>
      </trkpt>
      <trkpt lat="48.08093" lon="7.07327">
        <ele>957.7</ele>
        <time>2023-08-12T12:20:34Z</time>
      </trkpt>
      <trkpt lat="48.08094" lon="7.07324">
        <ele>957.8</ele>
        <time>2023-08-12T12:20:35Z</time>
      </trkpt>
      <trkpt lat="48.08096" lon="7.0732">
        <ele>957.8</ele>
        <time>2023-08-12T12:20:36Z</time>
      </trkpt>
      <trkpt lat="48.08097" lon="7.07317">
        <ele>957.9</ele>
        <time>2023-08-12T12:20:37Z</time>
      </trkpt>
      <trkpt lat="48.08098" lon="7.07314">
        <ele>958</ele>
        <time>2023-08-12T12:20:38Z</time>
      </trkpt>
      <trkpt lat="48.08099" lon="7.07311">
        <ele>958.1</ele>
        <time>2023-08-12T12:20:39Z</time>
      </trkpt>
      <trkpt lat="48.081" lon="7.07308">
        <ele>958.1</ele>
        <time>2023-08-12T12:20:40Z</time>
      </trkpt>
      <trkpt lat="48.08101" lon="7.07305">
        <ele>958.2</ele>
        <time>2023-08-12T12:20:41Z</time>
      </trkpt>
      <trkpt lat="48.08102" lon="7.07302">
        <ele>958.3</ele>
        <time>2023-08-12T12:20:42Z</time>
      </trkpt>
      <trkpt lat="48.08103" lon="7.07299">
        <ele>958.4</ele>
        <time>2023-08-12T12:20:43Z</time>
      </trkpt>
      <trkpt lat="48.08103" lon="7.07296">
        <ele>958.5</ele>
        <time>2023-08-12T12:20:44Z</time>
      </trkpt>
      <trkpt lat="48.08104" lon="7.07293">
        <ele>958.5</ele>
        <time>2023-08-12T12:20:45Z</time>
      </trkpt>
      <trkpt lat="48.08105" lon="7.0729">
        <ele>958.6</ele>
        <time>2023-08-12T12:20:46Z</time>
      </trkpt>
      <trkpt lat="48.08106" lon="7.07288">
        <ele>958.7</ele>
        <time>2023-08-12T12:20:47Z</time>
      </trkpt>
      <trkpt lat="48.08107" lon="7.07285">
        <ele>958.8</ele>
        <time>2023-08-12T12:20:48Z</time>
      </trkpt>
      <trkpt lat="48.08108" lon="7.07283">
        <ele>958.8</ele>
        <time>2023-08-12T12:20:49Z</time>
      </trkpt>
      <trkpt lat="48.08109" lon="7.0728">
        <ele>958.9</ele>
        <time>2023-08-12T12:20:50Z</time>
      </trkpt>
      <trkpt lat="48.0811" lon="7.07278">
        <ele>959</ele>
        <time>2023-08-12T12:20:51Z</time>
      </trkpt>
      <trkpt lat="48.08111" lon="7.07275">
        <ele>959.1</ele>
        <time>2023-08-12T12:20:52Z</time>
      </trkpt>
      <trkpt lat="48.08111" lon="7.07273">
        <ele>959.1</ele>
        <time>2023-08-12T12:20:53Z</time>
      </trkpt>
      <trkpt lat="48.08112" lon="7.07271">
        <ele>959.2</ele>
        <time>2023-08-12T12:20:54Z</time>
      </trkpt>
      <trkpt lat="48.08112" lon="7.07267">
        <ele>959.2</ele>
        <time>2023-08-12T12:20:55Z</time>
      </trkpt>
      <trkpt lat="48.08112" lon="7.07263">
        <ele>959.3</ele>
        <time>2023-08-12T12:20:56Z</time>
      </trkpt>
      <trkpt lat="48.08112" lon="7.0726">
        <ele>959.4</ele>
        <time>2023-08-12T12:20:57Z</time>
      </trkpt>
      <trkpt lat="48.08113" lon="7.07256">
        <ele>959.5</ele>
        <time>2023-08-12T12:20:58Z</time>
      </trkpt>
      <trkpt lat="48.08113" lon="7.07253">
        <ele>959.5</ele>
        <time>2023-08-12T12:20:59Z</time>
      </trkpt>
      <trkpt lat="48.08114" lon="7.0725">
        <ele>959.6</ele>
        <time>2023-08-12T12:21:00Z</time>
      </trkpt>
      <trkpt lat="48.08115" lon="7.07246">
        <ele>959.7</ele>
        <time>2023-08-12T12:21:01Z</time>
      </trkpt>
      <trkpt lat="48.08115" lon="7.07243">
        <ele>959.8</ele>
        <time>2023-08-12T12:21:02Z</time>
      </trkpt>
      <trkpt lat="48.08116" lon="7.07239">
        <ele>959.8</ele>
        <time>2023-08-12T12:21:03Z</time>
      </trkpt>
      <trkpt lat="48.08116" lon="7.07235">
        <ele>959.9</ele>
        <time>2023-08-12T12:21:04Z</time>
      </trkpt>
      <trkpt lat="48.08117" lon="7.07232">
        <ele>960</ele>
        <time>2023-08-12T12:21:05Z</time>
      </trkpt>
      <trkpt lat="48.08118" lon="7.07228">
        <ele>960</ele>
        <time>2023-08-12T12:21:06Z</time>
      </trkpt>
      <trkpt lat="48.08119" lon="7.07224">
        <ele>960.1</ele>
        <time>2023-08-12T12:21:07Z</time>
      </trkpt>
      <trkpt lat="48.0812" lon="7.07221">
        <ele>960.2</ele>
        <time>2023-08-12T12:21:08Z</time>
      </trkpt>
      <trkpt lat="48.08121" lon="7.07216">
        <ele>960.3</ele>
        <time>2023-08-12T12:21:09Z</time>
      </trkpt>
      <trkpt lat="48.08121" lon="7.07212">
        <ele>960.4</ele>
        <time>2023-08-12T12:21:10Z</time>
      </trkpt>
      <trkpt lat="48.08122" lon="7.07208">
        <ele>960.5</ele>
        <time>2023-08-12T12:21:11Z</time>
      </trkpt>
      <trkpt lat="48.08123" lon="7.07204">
        <ele>960.6</ele>
        <time>2023-08-12T12:21:12Z</time>
      </trkpt>
      <trkpt lat="48.08123" lon="7.072">
        <ele>960.7</ele>
        <time>2023-08-12T12:21:13Z</time>
      </trkpt>
      <trkpt lat="48.08124" lon="7.07197">
        <ele>960.7</ele>
        <time>2023-08-12T12:21:14Z</time>
      </trkpt>
      <trkpt lat="48.08124" lon="7.07193">
        <ele>960.8</ele>
        <time>2023-08-12T12:21:15Z</time>
      </trkpt>
      <trkpt lat="48.08125" lon="7.07188">
        <ele>960.9</ele>
        <time>2023-08-12T12:21:16Z</time>
      </trkpt>
      <trkpt lat="48.08125" lon="7.07185">
        <ele>960.9</ele>
        <time>2023-08-12T12:21:17Z</time>
      </trkpt>
      <trkpt lat="48.08126" lon="7.07181">
        <ele>961</ele>
        <time>2023-08-12T12:21:18Z</time>
      </trkpt>
      <trkpt lat="48.08127" lon="7.07178">
        <ele>961.1</ele>
        <time>2023-08-12T12:21:19Z</time>
      </trkpt>
      <trkpt lat="48.08128" lon="7.07174">
        <ele>961.1</ele>
        <time>2023-08-12T12:21:20Z</time>
      </trkpt>
      <trkpt lat="48.08128" lon="7.07171">
        <ele>961.2</ele>
        <time>2023-08-12T12:21:21Z</time>
      </trkpt>
      <trkpt lat="48.08129" lon="7.07168">
        <ele>961.2</ele>
        <time>2023-08-12T12:21:22Z</time>
      </trkpt>
      <trkpt lat="48.08132" lon="7.07155">
        <ele>961.4</ele>
        <time>2023-08-12T12:21:25Z</time>
      </trkpt>
      <trkpt lat="48.08132" lon="7.07152">
        <ele>961.5</ele>
        <time>2023-08-12T12:21:26Z</time>
      </trkpt>
      <trkpt lat="48.08132" lon="7.07149">
        <ele>961.5</ele>
        <time>2023-08-12T12:21:27Z</time>
      </trkpt>
      <trkpt lat="48.08132" lon="7.07145">
        <ele>961.6</ele>
        <time>2023-08-12T12:21:28Z</time>
      </trkpt>
      <trkpt lat="48.08132" lon="7.07137">
        <ele>961.8</ele>
        <time>2023-08-12T12:21:30Z</time>
      </trkpt>
      <trkpt lat="48.08132" lon="7.0713">
        <ele>962.1</ele>
        <time>2023-08-12T12:21:32Z</time>
      </trkpt>
      <trkpt lat="48.08132" lon="7.07127">
        <ele>962.1</ele>
        <time>2023-08-12T12:21:33Z</time>
      </trkpt>
      <trkpt lat="48.08133" lon="7.07125">
        <ele>962.2</ele>
        <time>2023-08-12T12:21:34Z</time>
      </trkpt>
      <trkpt lat="48.08133" lon="7.07122">
        <ele>962.3</ele>
        <time>2023-08-12T12:21:35Z</time>
      </trkpt>
      <trkpt lat="48.08135" lon="7.07119">
        <ele>962.4</ele>
        <time>2023-08-12T12:21:36Z</time>
      </trkpt>
      <trkpt lat="48.08136" lon="7.07115">
        <ele>962.5</ele>
        <time>2023-08-12T12:21:37Z</time>
      </trkpt>
      <trkpt lat="48.08137" lon="7.07109">
        <ele>962.7</ele>
        <time>2023-08-12T12:21:39Z</time>
      </trkpt>
      <trkpt lat="48.08138" lon="7.07106">
        <ele>962.8</ele>
        <time>2023-08-12T12:21:40Z</time>
      </trkpt>
      <trkpt lat="48.08138" lon="7.07103">
        <ele>962.9</ele>
        <time>2023-08-12T12:21:41Z</time>
      </trkpt>
      <trkpt lat="48.08139" lon="7.071">
        <ele>963</ele>
        <time>2023-08-12T12:21:42Z</time>
      </trkpt>
      <trkpt lat="48.08139" lon="7.07098">
        <ele>963</ele>
        <time>2023-08-12T12:21:43Z</time>
      </trkpt>
      <trkpt lat="48.08141" lon="7.0709">
        <ele>963.2</ele>
        <time>2023-08-12T12:21:46Z</time>
      </trkpt>
      <trkpt lat="48.08141" lon="7.07084">
        <ele>963.4</ele>
        <time>2023-08-12T12:21:48Z</time>
      </trkpt>
      <trkpt lat="48.08141" lon="7.0708">
        <ele>963.4</ele>
        <time>2023-08-12T12:21:49Z</time>
      </trkpt>
      <trkpt lat="48.08142" lon="7.07076">
        <ele>963.5</ele>
        <time>2023-08-12T12:21:50Z</time>
      </trkpt>
      <trkpt lat="48.08144" lon="7.07069">
        <ele>963.7</ele>
        <time>2023-08-12T12:21:52Z</time>
      </trkpt>
      <trkpt lat="48.08144" lon="7.07065">
        <ele>963.8</ele>
        <time>2023-08-12T12:21:54Z</time>
      </trkpt>
      <trkpt lat="48.08144" lon="7.07063">
        <ele>963.8</ele>
        <time>2023-08-12T12:21:55Z</time>
      </trkpt>
      <trkpt lat="48.08144" lon="7.07061">
        <ele>963.8</ele>
        <time>2023-08-12T12:21:56Z</time>
      </trkpt>
      <trkpt lat="48.08145" lon="7.0706">
        <ele>963.9</ele>
        <time>2023-08-12T12:21:57Z</time>
      </trkpt>
      <trkpt lat="48.08146" lon="7.07057">
        <ele>963.9</ele>
        <time>2023-08-12T12:21:58Z</time>
      </trkpt>
      <trkpt lat="48.08146" lon="7.07054">
        <ele>964</ele>
        <time>2023-08-12T12:21:59Z</time>
      </trkpt>
      <trkpt lat="48.08146" lon="7.07048">
        <ele>964.1</ele>
        <time>2023-08-12T12:22:01Z</time>
      </trkpt>
      <trkpt lat="48.08147" lon="7.07045">
        <ele>964.2</ele>
        <time>2023-08-12T12:22:02Z</time>
      </trkpt>
      <trkpt lat="48.08148" lon="7.07034">
        <ele>964.3</ele>
        <time>2023-08-12T12:22:05Z</time>
      </trkpt>
      <trkpt lat="48.08148" lon="7.07031">
        <ele>964.3</ele>
        <time>2023-08-12T12:22:06Z</time>
      </trkpt>
      <trkpt lat="48.08149" lon="7.07029">
        <ele>964.3</ele>
        <time>2023-08-12T12:22:07Z</time>
      </trkpt>
      <trkpt lat="48.0815" lon="7.07024">
        <ele>964.4</ele>
        <time>2023-08-12T12:22:09Z</time>
      </trkpt>
      <trkpt lat="48.0815" lon="7.07021">
        <ele>964.4</ele>
        <time>2023-08-12T12:22:10Z</time>
      </trkpt>
      <trkpt lat="48.0815" lon="7.07012">
        <ele>964.5</ele>
        <time>2023-08-12T12:22:13Z</time>
      </trkpt>
      <trkpt lat="48.0815" lon="7.07009">
        <ele>964.6</ele>
        <time>2023-08-12T12:22:14Z</time>
      </trkpt>
      <trkpt lat="48.0815" lon="7.07006">
        <ele>964.6</ele>
        <time>2023-08-12T12:22:15Z</time>
      </trkpt>
      <trkpt lat="48.0815" lon="7.07003">
        <ele>964.7</ele>
        <time>2023-08-12T12:22:16Z</time>
      </trkpt>
      <trkpt lat="48.0815" lon="7.07001">
        <ele>964.7</ele>
        <time>2023-08-12T12:22:17Z</time>
      </trkpt>
      <trkpt lat="48.08149" lon="7.06997">
        <ele>964.8</ele>
        <time>2023-08-12T12:22:18Z</time>
      </trkpt>
      <trkpt lat="48.08149" lon="7.06994">
        <ele>964.9</ele>
        <time>2023-08-12T12:22:19Z</time>
      </trkpt>
      <trkpt lat="48.08146" lon="7.06977">
        <ele>965.3</ele>
        <time>2023-08-12T12:22:23Z</time>
      </trkpt>
      <trkpt lat="48.08146" lon="7.0696">
        <ele>965.5</ele>
        <time>2023-08-12T12:22:26Z</time>
      </trkpt>
      <trkpt lat="48.08147" lon="7.06957">
        <ele>965.5</ele>
        <time>2023-08-12T12:22:27Z</time>
      </trkpt>
      <trkpt lat="48.08147" lon="7.06953">
        <ele>965.6</ele>
        <time>2023-08-12T12:22:28Z</time>
      </trkpt>
      <trkpt lat="48.08149" lon="7.06946">
        <ele>965.7</ele>
        <time>2023-08-12T12:22:30Z</time>
      </trkpt>
      <trkpt lat="48.08151" lon="7.06943">
        <ele>965.8</ele>
        <time>2023-08-12T12:22:31Z</time>
      </trkpt>
      <trkpt lat="48.08152" lon="7.06941">
        <ele>965.9</ele>
        <time>2023-08-12T12:22:32Z</time>
      </trkpt>
      <trkpt lat="48.08153" lon="7.06939">
        <ele>965.9</ele>
        <time>2023-08-12T12:22:33Z</time>
      </trkpt>
      <trkpt lat="48.08156" lon="7.06937">
        <ele>966</ele>
        <time>2023-08-12T12:22:34Z</time>
      </trkpt>
      <trkpt lat="48.08158" lon="7.06935">
        <ele>966.1</ele>
        <time>2023-08-12T12:22:35Z</time>
      </trkpt>
      <trkpt lat="48.08159" lon="7.06932">
        <ele>966.2</ele>
        <time>2023-08-12T12:22:36Z</time>
      </trkpt>
      <trkpt lat="48.08163" lon="7.06926">
        <ele>966.4</ele>
        <time>2023-08-12T12:22:38Z</time>
      </trkpt>
      <trkpt lat="48.08165" lon="7.06921">
        <ele>966.6</ele>
        <time>2023-08-12T12:22:40Z</time>
      </trkpt>
      <trkpt lat="48.08167" lon="7.06916">
        <ele>966.7</ele>
        <time>2023-08-12T12:22:41Z</time>
      </trkpt>
      <trkpt lat="48.08168" lon="7.06913">
        <ele>966.8</ele>
        <time>2023-08-12T12:22:42Z</time>
      </trkpt>
      <trkpt lat="48.08169" lon="7.06911">
        <ele>966.9</ele>
        <time>2023-08-12T12:22:43Z</time>
      </trkpt>
      <trkpt lat="48.08174" lon="7.06898">
        <ele>967.2</ele>
        <time>2023-08-12T12:22:48Z</time>
      </trkpt>
      <trkpt lat="48.08175" lon="7.06896">
        <ele>967.3</ele>
        <time>2023-08-12T12:22:49Z</time>
      </trkpt>
      <trkpt lat="48.08177" lon="7.06893">
        <ele>967.3</ele>
        <time>2023-08-12T12:22:50Z</time>
      </trkpt>
      <trkpt lat="48.08184" lon="7.0688">
        <ele>967.6</ele>
        <time>2023-08-12T12:22:54Z</time>
      </trkpt>
      <trkpt lat="48.08185" lon="7.06877">
        <ele>967.6</ele>
        <time>2023-08-12T12:22:55Z</time>
      </trkpt>
      <trkpt lat="48.08186" lon="7.06874">
        <ele>967.7</ele>
        <time>2023-08-12T12:22:56Z</time>
      </trkpt>
      <trkpt lat="48.08187" lon="7.06871">
        <ele>967.8</ele>
        <time>2023-08-12T12:22:57Z</time>
      </trkpt>
      <trkpt lat="48.08188" lon="7.06869">
        <ele>967.8</ele>
        <time>2023-08-12T12:22:58Z</time>
      </trkpt>
      <trkpt lat="48.08188" lon="7.06866">
        <ele>967.9</ele>
        <time>2023-08-12T12:22:59Z</time>
      </trkpt>
      <trkpt lat="48.08188" lon="7.06863">
        <ele>968</ele>
        <time>2023-08-12T12:23:00Z</time>
      </trkpt>
      <trkpt lat="48.08189" lon="7.06861">
        <ele>968.1</ele>
        <time>2023-08-12T12:23:01Z</time>
      </trkpt>
      <trkpt lat="48.08189" lon="7.06857">
        <ele>968.2</ele>
        <time>2023-08-12T12:23:03Z</time>
      </trkpt>
      <trkpt lat="48.0819" lon="7.06855">
        <ele>968.3</ele>
        <time>2023-08-12T12:23:04Z</time>
      </trkpt>
      <trkpt lat="48.0819" lon="7.06852">
        <ele>968.4</ele>
        <time>2023-08-12T12:23:05Z</time>
      </trkpt>
      <trkpt lat="48.0819" lon="7.06848">
        <ele>968.5</ele>
        <time>2023-08-12T12:23:06Z</time>
      </trkpt>
      <trkpt lat="48.0819" lon="7.06845">
        <ele>968.7</ele>
        <time>2023-08-12T12:23:07Z</time>
      </trkpt>
      <trkpt lat="48.0819" lon="7.06833">
        <ele>969</ele>
        <time>2023-08-12T12:23:10Z</time>
      </trkpt>
      <trkpt lat="48.0819" lon="7.06829">
        <ele>969.1</ele>
        <time>2023-08-12T12:23:11Z</time>
      </trkpt>
      <trkpt lat="48.08195" lon="7.06806">
        <ele>969.6</ele>
        <time>2023-08-12T12:23:17Z</time>
      </trkpt>
      <trkpt lat="48.08196" lon="7.06793">
        <ele>969.8</ele>
        <time>2023-08-12T12:23:20Z</time>
      </trkpt>
      <trkpt lat="48.08196" lon="7.06789">
        <ele>969.9</ele>
        <time>2023-08-12T12:23:21Z</time>
      </trkpt>
      <trkpt lat="48.08196" lon="7.06785">
        <ele>970</ele>
        <time>2023-08-12T12:23:22Z</time>
      </trkpt>
      <trkpt lat="48.08198" lon="7.0676">
        <ele>970.5</ele>
        <time>2023-08-12T12:23:27Z</time>
      </trkpt>
      <trkpt lat="48.08198" lon="7.06756">
        <ele>970.6</ele>
        <time>2023-08-12T12:23:28Z</time>
      </trkpt>
      <trkpt lat="48.08198" lon="7.06752">
        <ele>970.7</ele>
        <time>2023-08-12T12:23:29Z</time>
      </trkpt>
      <trkpt lat="48.08198" lon="7.06748">
        <ele>970.8</ele>
        <time>2023-08-12T12:23:30Z</time>
      </trkpt>
      <trkpt lat="48.08198" lon="7.06745">
        <ele>970.8</ele>
        <time>2023-08-12T12:23:31Z</time>
      </trkpt>
      <trkpt lat="48.08198" lon="7.06743">
        <ele>970.9</ele>
        <time>2023-08-12T12:23:32Z</time>
      </trkpt>
      <trkpt lat="48.08198" lon="7.0674">
        <ele>970.9</ele>
        <time>2023-08-12T12:23:33Z</time>
      </trkpt>
      <trkpt lat="48.08197" lon="7.06737">
        <ele>971</ele>
        <time>2023-08-12T12:23:34Z</time>
      </trkpt>
      <trkpt lat="48.08197" lon="7.06735">
        <ele>971</ele>
        <time>2023-08-12T12:23:35Z</time>
      </trkpt>
      <trkpt lat="48.08197" lon="7.06732">
        <ele>971.1</ele>
        <time>2023-08-12T12:23:36Z</time>
      </trkpt>
      <trkpt lat="48.08197" lon="7.0673">
        <ele>971.1</ele>
        <time>2023-08-12T12:23:37Z</time>
      </trkpt>
      <trkpt lat="48.08197" lon="7.06728">
        <ele>971.1</ele>
        <time>2023-08-12T12:23:38Z</time>
      </trkpt>
      <trkpt lat="48.08198" lon="7.06725">
        <ele>971.2</ele>
        <time>2023-08-12T12:23:39Z</time>
      </trkpt>
      <trkpt lat="48.08198" lon="7.06722">
        <ele>971.3</ele>
        <time>2023-08-12T12:23:40Z</time>
      </trkpt>
      <trkpt lat="48.08198" lon="7.0672">
        <ele>971.3</ele>
        <time>2023-08-12T12:23:41Z</time>
      </trkpt>
      <trkpt lat="48.08198" lon="7.06718">
        <ele>971.3</ele>
        <time>2023-08-12T12:23:42Z</time>
      </trkpt>
      <trkpt lat="48.08199" lon="7.06712">
        <ele>971.5</ele>
        <time>2023-08-12T12:23:44Z</time>
      </trkpt>
      <trkpt lat="48.08199" lon="7.06707">
        <ele>971.6</ele>
        <time>2023-08-12T12:23:46Z</time>
      </trkpt>
      <trkpt lat="48.082" lon="7.06705">
        <ele>971.7</ele>
        <time>2023-08-12T12:23:47Z</time>
      </trkpt>
      <trkpt lat="48.082" lon="7.06703">
        <ele>971.7</ele>
        <time>2023-08-12T12:23:48Z</time>
      </trkpt>
      <trkpt lat="48.082" lon="7.06701">
        <ele>971.8</ele>
        <time>2023-08-12T12:23:49Z</time>
      </trkpt>
      <trkpt lat="48.08201" lon="7.06698">
        <ele>971.9</ele>
        <time>2023-08-12T12:23:50Z</time>
      </trkpt>
      <trkpt lat="48.08202" lon="7.06695">
        <ele>972</ele>
        <time>2023-08-12T12:23:51Z</time>
      </trkpt>
      <trkpt lat="48.08203" lon="7.06691">
        <ele>972.1</ele>
        <time>2023-08-12T12:23:52Z</time>
      </trkpt>
      <trkpt lat="48.08204" lon="7.06687">
        <ele>972.2</ele>
        <time>2023-08-12T12:23:53Z</time>
      </trkpt>
      <trkpt lat="48.08205" lon="7.06683">
        <ele>972.3</ele>
        <time>2023-08-12T12:23:54Z</time>
      </trkpt>
      <trkpt lat="48.08206" lon="7.06679">
        <ele>972.4</ele>
        <time>2023-08-12T12:23:55Z</time>
      </trkpt>
      <trkpt lat="48.08207" lon="7.06676">
        <ele>972.4</ele>
        <time>2023-08-12T12:23:56Z</time>
      </trkpt>
      <trkpt lat="48.08206" lon="7.06674">
        <ele>972.5</ele>
        <time>2023-08-12T12:23:57Z</time>
      </trkpt>
      <trkpt lat="48.08206" lon="7.06669">
        <ele>972.6</ele>
        <time>2023-08-12T12:23:58Z</time>
      </trkpt>
      <trkpt lat="48.08207" lon="7.06667">
        <ele>972.6</ele>
        <time>2023-08-12T12:23:59Z</time>
      </trkpt>
      <trkpt lat="48.08206" lon="7.06665">
        <ele>972.7</ele>
        <time>2023-08-12T12:24:00Z</time>
      </trkpt>
      <trkpt lat="48.08206" lon="7.06663">
        <ele>972.7</ele>
        <time>2023-08-12T12:24:01Z</time>
      </trkpt>
      <trkpt lat="48.08207" lon="7.06661">
        <ele>972.7</ele>
        <time>2023-08-12T12:24:02Z</time>
      </trkpt>
      <trkpt lat="48.08208" lon="7.06658">
        <ele>972.8</ele>
        <time>2023-08-12T12:24:03Z</time>
      </trkpt>
      <trkpt lat="48.08209" lon="7.06653">
        <ele>972.8</ele>
        <time>2023-08-12T12:24:04Z</time>
      </trkpt>
      <trkpt lat="48.0821" lon="7.06649">
        <ele>972.9</ele>
        <time>2023-08-12T12:24:05Z</time>
      </trkpt>
      <trkpt lat="48.08211" lon="7.06642">
        <ele>973</ele>
        <time>2023-08-12T12:24:06Z</time>
      </trkpt>
      <trkpt lat="48.08212" lon="7.06637">
        <ele>973</ele>
        <time>2023-08-12T12:24:07Z</time>
      </trkpt>
      <trkpt lat="48.08211" lon="7.06633">
        <ele>973.1</ele>
        <time>2023-08-12T12:24:08Z</time>
      </trkpt>
      <trkpt lat="48.08212" lon="7.0663">
        <ele>973.1</ele>
        <time>2023-08-12T12:24:09Z</time>
      </trkpt>
      <trkpt lat="48.08212" lon="7.06627">
        <ele>973.1</ele>
        <time>2023-08-12T12:24:10Z</time>
      </trkpt>
      <trkpt lat="48.08213" lon="7.06623">
        <ele>973.1</ele>
        <time>2023-08-12T12:24:11Z</time>
      </trkpt>
      <trkpt lat="48.08214" lon="7.0662">
        <ele>973.1</ele>
        <time>2023-08-12T12:24:12Z</time>
      </trkpt>
      <trkpt lat="48.08215" lon="7.06616">
        <ele>973.1</ele>
        <time>2023-08-12T12:24:13Z</time>
      </trkpt>
      <trkpt lat="48.08217" lon="7.06611">
        <ele>973.2</ele>
        <time>2023-08-12T12:24:14Z</time>
      </trkpt>
      <trkpt lat="48.08218" lon="7.06607">
        <ele>973.4</ele>
        <time>2023-08-12T12:24:15Z</time>
      </trkpt>
      <trkpt lat="48.08218" lon="7.06604">
        <ele>973.5</ele>
        <time>2023-08-12T12:24:16Z</time>
      </trkpt>
      <trkpt lat="48.08218" lon="7.06602">
        <ele>973.6</ele>
        <time>2023-08-12T12:24:17Z</time>
      </trkpt>
      <trkpt lat="48.08218" lon="7.066">
        <ele>973.7</ele>
        <time>2023-08-12T12:24:18Z</time>
      </trkpt>
      <trkpt lat="48.08219" lon="7.06598">
        <ele>973.8</ele>
        <time>2023-08-12T12:24:19Z</time>
      </trkpt>
      <trkpt lat="48.08219" lon="7.06596">
        <ele>973.9</ele>
        <time>2023-08-12T12:24:20Z</time>
      </trkpt>
      <trkpt lat="48.08219" lon="7.06595">
        <ele>974</ele>
        <time>2023-08-12T12:24:21Z</time>
      </trkpt>
      <trkpt lat="48.0822" lon="7.06593">
        <ele>974</ele>
        <time>2023-08-12T12:24:22Z</time>
      </trkpt>
      <trkpt lat="48.08221" lon="7.06592">
        <ele>974.1</ele>
        <time>2023-08-12T12:24:23Z</time>
      </trkpt>
      <trkpt lat="48.08221" lon="7.06591">
        <ele>974.2</ele>
        <time>2023-08-12T12:24:24Z</time>
      </trkpt>
      <trkpt lat="48.08221" lon="7.0659">
        <ele>974.3</ele>
        <time>2023-08-12T12:24:25Z</time>
      </trkpt>
      <trkpt lat="48.08221" lon="7.06588">
        <ele>974.4</ele>
        <time>2023-08-12T12:24:26Z</time>
      </trkpt>
      <trkpt lat="48.08222" lon="7.06588">
        <ele>974.5</ele>
        <time>2023-08-12T12:24:27Z</time>
      </trkpt>
      <trkpt lat="48.08222" lon="7.06588">
        <ele>974.5</ele>
        <time>2023-08-12T12:24:28Z</time>
      </trkpt>
      <trkpt lat="48.08222" lon="7.06588">
        <ele>974.5</ele>
        <time>2023-08-12T12:24:31Z</time>
      </trkpt>
      <trkpt lat="48.08222" lon="7.06588">
        <ele>974.5</ele>
        <time>2023-08-12T12:24:35Z</time>
      </trkpt>
      <trkpt lat="48.08222" lon="7.06588">
        <ele>974.5</ele>
        <time>2023-08-12T12:24:36Z</time>
      </trkpt>
      <trkpt lat="48.08222" lon="7.06588">
        <ele>974.5</ele>
        <time>2023-08-12T12:24:39Z</time>
      </trkpt>
      <trkpt lat="48.08222" lon="7.06588">
        <ele>974.5</ele>
        <time>2023-08-12T12:24:43Z</time>
      </trkpt>
      <trkpt lat="48.08222" lon="7.06588">
        <ele>974.5</ele>
        <time>2023-08-12T12:24:47Z</time>
      </trkpt>
      <trkpt lat="48.08222" lon="7.06588">
        <ele>974.5</ele>
        <time>2023-08-12T12:24:51Z</time>
      </trkpt>
      <trkpt lat="48.08222" lon="7.06588">
        <ele>974.5</ele>
        <time>2023-08-12T12:24:55Z</time>
      </trkpt>
      <trkpt lat="48.08222" lon="7.06588">
        <ele>974.5</ele>
        <time>2023-08-12T12:24:57Z</time>
      </trkpt>
      <trkpt lat="48.08222" lon="7.06588">
        <ele>974.5</ele>
        <time>2023-08-12T12:25:00Z</time>
      </trkpt>
      <trkpt lat="48.08222" lon="7.06588">
        <ele>974.5</ele>
        <time>2023-08-12T12:25:05Z</time>
      </trkpt>
      <trkpt lat="48.08222" lon="7.06588">
        <ele>974.5</ele>
        <time>2023-08-12T12:25:09Z</time>
      </trkpt>
      <trkpt lat="48.08222" lon="7.06588">
        <ele>974.5</ele>
        <time>2023-08-12T12:25:14Z</time>
      </trkpt>
      <trkpt lat="48.08222" lon="7.06588">
        <ele>974.5</ele>
        <time>2023-08-12T12:25:19Z</time>
      </trkpt>
      <trkpt lat="48.08221" lon="7.06587">
        <ele>974.5</ele>
        <time>2023-08-12T12:25:21Z</time>
      </trkpt>
      <trkpt lat="48.08221" lon="7.06586">
        <ele>974.6</ele>
        <time>2023-08-12T12:25:22Z</time>
      </trkpt>
      <trkpt lat="48.08221" lon="7.06586">
        <ele>974.6</ele>
        <time>2023-08-12T12:25:23Z</time>
      </trkpt>
      <trkpt lat="48.08221" lon="7.06585">
        <ele>974.7</ele>
        <time>2023-08-12T12:25:24Z</time>
      </trkpt>
      <trkpt lat="48.08221" lon="7.06583">
        <ele>974.9</ele>
        <time>2023-08-12T12:25:25Z</time>
      </trkpt>
      <trkpt lat="48.08221" lon="7.0658">
        <ele>975.1</ele>
        <time>2023-08-12T12:25:26Z</time>
      </trkpt>
      <trkpt lat="48.08221" lon="7.06578">
        <ele>975.3</ele>
        <time>2023-08-12T12:25:27Z</time>
      </trkpt>
      <trkpt lat="48.08221" lon="7.06576">
        <ele>975.5</ele>
        <time>2023-08-12T12:25:28Z</time>
      </trkpt>
      <trkpt lat="48.08221" lon="7.06574">
        <ele>975.6</ele>
        <time>2023-08-12T12:25:29Z</time>
      </trkpt>
      <trkpt lat="48.08221" lon="7.06572">
        <ele>975.8</ele>
        <time>2023-08-12T12:25:30Z</time>
      </trkpt>
      <trkpt lat="48.08221" lon="7.06569">
        <ele>976.1</ele>
        <time>2023-08-12T12:25:31Z</time>
      </trkpt>
      <trkpt lat="48.08222" lon="7.06566">
        <ele>976.3</ele>
        <time>2023-08-12T12:25:32Z</time>
      </trkpt>
      <trkpt lat="48.08222" lon="7.06563">
        <ele>976.6</ele>
        <time>2023-08-12T12:25:33Z</time>
      </trkpt>
      <trkpt lat="48.08223" lon="7.0656">
        <ele>976.9</ele>
        <time>2023-08-12T12:25:34Z</time>
      </trkpt>
      <trkpt lat="48.08223" lon="7.06558">
        <ele>977.1</ele>
        <time>2023-08-12T12:25:35Z</time>
      </trkpt>
      <trkpt lat="48.08223" lon="7.06556">
        <ele>977.3</ele>
        <time>2023-08-12T12:25:36Z</time>
      </trkpt>
      <trkpt lat="48.08223" lon="7.06554">
        <ele>977.5</ele>
        <time>2023-08-12T12:25:37Z</time>
      </trkpt>
      <trkpt lat="48.08223" lon="7.06552">
        <ele>977.7</ele>
        <time>2023-08-12T12:25:38Z</time>
      </trkpt>
      <trkpt lat="48.08223" lon="7.06549">
        <ele>977.9</ele>
        <time>2023-08-12T12:25:39Z</time>
      </trkpt>
      <trkpt lat="48.08223" lon="7.06547">
        <ele>978.1</ele>
        <time>2023-08-12T12:25:40Z</time>
      </trkpt>
      <trkpt lat="48.08222" lon="7.06545">
        <ele>978.3</ele>
        <time>2023-08-12T12:25:41Z</time>
      </trkpt>
      <trkpt lat="48.08222" lon="7.06543">
        <ele>978.5</ele>
        <time>2023-08-12T12:25:42Z</time>
      </trkpt>
      <trkpt lat="48.08222" lon="7.06541">
        <ele>978.8</ele>
        <time>2023-08-12T12:25:43Z</time>
      </trkpt>
      <trkpt lat="48.08223" lon="7.06539">
        <ele>978.9</ele>
        <time>2023-08-12T12:25:44Z</time>
      </trkpt>
      <trkpt lat="48.08223" lon="7.06538">
        <ele>979.1</ele>
        <time>2023-08-12T12:25:45Z</time>
      </trkpt>
      <trkpt lat="48.08223" lon="7.06536">
        <ele>979.3</ele>
        <time>2023-08-12T12:25:46Z</time>
      </trkpt>
      <trkpt lat="48.08223" lon="7.06534">
        <ele>979.4</ele>
        <time>2023-08-12T12:25:47Z</time>
      </trkpt>
      <trkpt lat="48.08224" lon="7.06532">
        <ele>979.6</ele>
        <time>2023-08-12T12:25:48Z</time>
      </trkpt>
      <trkpt lat="48.08224" lon="7.06531">
        <ele>979.8</ele>
        <time>2023-08-12T12:25:49Z</time>
      </trkpt>
      <trkpt lat="48.08225" lon="7.06529">
        <ele>980</ele>
        <time>2023-08-12T12:25:50Z</time>
      </trkpt>
      <trkpt lat="48.08225" lon="7.06527">
        <ele>980.2</ele>
        <time>2023-08-12T12:25:51Z</time>
      </trkpt>
      <trkpt lat="48.08225" lon="7.06526">
        <ele>980.3</ele>
        <time>2023-08-12T12:25:52Z</time>
      </trkpt>
      <trkpt lat="48.08225" lon="7.06523">
        <ele>980.6</ele>
        <time>2023-08-12T12:25:53Z</time>
      </trkpt>
      <trkpt lat="48.08225" lon="7.06522">
        <ele>980.8</ele>
        <time>2023-08-12T12:25:54Z</time>
      </trkpt>
      <trkpt lat="48.08226" lon="7.0652">
        <ele>981</ele>
        <time>2023-08-12T12:25:55Z</time>
      </trkpt>
      <trkpt lat="48.08226" lon="7.06518">
        <ele>981.2</ele>
        <time>2023-08-12T12:25:56Z</time>
      </trkpt>
      <trkpt lat="48.08226" lon="7.06516">
        <ele>981.4</ele>
        <time>2023-08-12T12:25:57Z</time>
      </trkpt>
      <trkpt lat="48.08227" lon="7.06515">
        <ele>981.5</ele>
        <time>2023-08-12T12:25:58Z</time>
      </trkpt>
      <trkpt lat="48.08227" lon="7.06512">
        <ele>981.9</ele>
        <time>2023-08-12T12:26:00Z</time>
      </trkpt>
      <trkpt lat="48.08228" lon="7.06506">
        <ele>982.5</ele>
        <time>2023-08-12T12:26:03Z</time>
      </trkpt>
      <trkpt lat="48.08228" lon="7.06504">
        <ele>982.7</ele>
        <time>2023-08-12T12:26:04Z</time>
      </trkpt>
      <trkpt lat="48.08229" lon="7.06498">
        <ele>983.4</ele>
        <time>2023-08-12T12:26:07Z</time>
      </trkpt>
      <trkpt lat="48.08229" lon="7.06496">
        <ele>983.6</ele>
        <time>2023-08-12T12:26:08Z</time>
      </trkpt>
      <trkpt lat="48.0823" lon="7.06495">
        <ele>983.8</ele>
        <time>2023-08-12T12:26:09Z</time>
      </trkpt>
      <trkpt lat="48.0823" lon="7.06493">
        <ele>983.9</ele>
        <time>2023-08-12T12:26:10Z</time>
      </trkpt>
      <trkpt lat="48.0823" lon="7.06492">
        <ele>984.1</ele>
        <time>2023-08-12T12:26:11Z</time>
      </trkpt>
      <trkpt lat="48.08232" lon="7.06486">
        <ele>984.8</ele>
        <time>2023-08-12T12:26:15Z</time>
      </trkpt>
      <trkpt lat="48.08233" lon="7.06484">
        <ele>984.9</ele>
        <time>2023-08-12T12:26:16Z</time>
      </trkpt>
      <trkpt lat="48.08233" lon="7.06483">
        <ele>985.1</ele>
        <time>2023-08-12T12:26:17Z</time>
      </trkpt>
      <trkpt lat="48.08233" lon="7.06482">
        <ele>985.2</ele>
        <time>2023-08-12T12:26:18Z</time>
      </trkpt>
      <trkpt lat="48.08233" lon="7.0648">
        <ele>985.4</ele>
        <time>2023-08-12T12:26:19Z</time>
      </trkpt>
      <trkpt lat="48.08235" lon="7.06475">
        <ele>986</ele>
        <time>2023-08-12T12:26:22Z</time>
      </trkpt>
      <trkpt lat="48.08235" lon="7.06473">
        <ele>986.2</ele>
        <time>2023-08-12T12:26:23Z</time>
      </trkpt>
      <trkpt lat="48.08235" lon="7.06472">
        <ele>986.3</ele>
        <time>2023-08-12T12:26:24Z</time>
      </trkpt>
      <trkpt lat="48.08235" lon="7.06471">
        <ele>986.5</ele>
        <time>2023-08-12T12:26:25Z</time>
      </trkpt>
      <trkpt lat="48.08236" lon="7.06469">
        <ele>986.7</ele>
        <time>2023-08-12T12:26:26Z</time>
      </trkpt>
      <trkpt lat="48.08236" lon="7.06464">
        <ele>987.3</ele>
        <time>2023-08-12T12:26:29Z</time>
      </trkpt>
      <trkpt lat="48.08237" lon="7.06462">
        <ele>987.5</ele>
        <time>2023-08-12T12:26:30Z</time>
      </trkpt>
      <trkpt lat="48.08237" lon="7.06461">
        <ele>987.7</ele>
        <time>2023-08-12T12:26:31Z</time>
      </trkpt>
      <trkpt lat="48.08238" lon="7.06459">
        <ele>987.9</ele>
        <time>2023-08-12T12:26:32Z</time>
      </trkpt>
      <trkpt lat="48.08239" lon="7.06458">
        <ele>988.1</ele>
        <time>2023-08-12T12:26:33Z</time>
      </trkpt>
      <trkpt lat="48.0824" lon="7.06457">
        <ele>988.4</ele>
        <time>2023-08-12T12:26:34Z</time>
      </trkpt>
      <trkpt lat="48.0824" lon="7.06455">
        <ele>988.6</ele>
        <time>2023-08-12T12:26:35Z</time>
      </trkpt>
      <trkpt lat="48.08241" lon="7.06453">
        <ele>988.8</ele>
        <time>2023-08-12T12:26:36Z</time>
      </trkpt>
      <trkpt lat="48.08241" lon="7.06451">
        <ele>989.1</ele>
        <time>2023-08-12T12:26:37Z</time>
      </trkpt>
      <trkpt lat="48.08246" lon="7.06437">
        <ele>991</ele>
        <time>2023-08-12T12:26:45Z</time>
      </trkpt>
      <trkpt lat="48.08246" lon="7.06437">
        <ele>991.1</ele>
        <time>2023-08-12T12:26:47Z</time>
      </trkpt>
      <trkpt lat="48.08247" lon="7.06432">
        <ele>991.7</ele>
        <time>2023-08-12T12:26:50Z</time>
      </trkpt>
      <trkpt lat="48.08247" lon="7.06431">
        <ele>991.9</ele>
        <time>2023-08-12T12:26:51Z</time>
      </trkpt>
      <trkpt lat="48.08248" lon="7.06428">
        <ele>992.2</ele>
        <time>2023-08-12T12:26:53Z</time>
      </trkpt>
      <trkpt lat="48.08248" lon="7.06427">
        <ele>992.4</ele>
        <time>2023-08-12T12:26:54Z</time>
      </trkpt>
      <trkpt lat="48.08249" lon="7.06426">
        <ele>992.5</ele>
        <time>2023-08-12T12:26:55Z</time>
      </trkpt>
      <trkpt lat="48.08249" lon="7.06424">
        <ele>992.7</ele>
        <time>2023-08-12T12:26:56Z</time>
      </trkpt>
      <trkpt lat="48.08248" lon="7.06423">
        <ele>992.9</ele>
        <time>2023-08-12T12:26:57Z</time>
      </trkpt>
      <trkpt lat="48.08248" lon="7.06422">
        <ele>993</ele>
        <time>2023-08-12T12:26:58Z</time>
      </trkpt>
      <trkpt lat="48.08248" lon="7.0642">
        <ele>993.2</ele>
        <time>2023-08-12T12:26:59Z</time>
      </trkpt>
      <trkpt lat="48.08249" lon="7.06419">
        <ele>993.3</ele>
        <time>2023-08-12T12:27:00Z</time>
      </trkpt>
      <trkpt lat="48.08249" lon="7.06417">
        <ele>993.5</ele>
        <time>2023-08-12T12:27:01Z</time>
      </trkpt>
      <trkpt lat="48.08249" lon="7.06414">
        <ele>993.9</ele>
        <time>2023-08-12T12:27:04Z</time>
      </trkpt>
      <trkpt lat="48.08249" lon="7.06412">
        <ele>994</ele>
        <time>2023-08-12T12:27:05Z</time>
      </trkpt>
      <trkpt lat="48.08249" lon="7.06411">
        <ele>994.2</ele>
        <time>2023-08-12T12:27:06Z</time>
      </trkpt>
      <trkpt lat="48.08251" lon="7.06403">
        <ele>994.9</ele>
        <time>2023-08-12T12:27:11Z</time>
      </trkpt>
      <trkpt lat="48.08252" lon="7.06401">
        <ele>995.1</ele>
        <time>2023-08-12T12:27:12Z</time>
      </trkpt>
      <trkpt lat="48.08253" lon="7.06397">
        <ele>995.5</ele>
        <time>2023-08-12T12:27:14Z</time>
      </trkpt>
      <trkpt lat="48.08253" lon="7.06395">
        <ele>995.7</ele>
        <time>2023-08-12T12:27:15Z</time>
      </trkpt>
      <trkpt lat="48.08253" lon="7.06393">
        <ele>995.9</ele>
        <time>2023-08-12T12:27:16Z</time>
      </trkpt>
      <trkpt lat="48.08254" lon="7.0639">
        <ele>996.1</ele>
        <time>2023-08-12T12:27:18Z</time>
      </trkpt>
      <trkpt lat="48.08254" lon="7.0639">
        <ele>996.2</ele>
        <time>2023-08-12T12:27:19Z</time>
      </trkpt>
      <trkpt lat="48.08254" lon="7.06388">
        <ele>996.3</ele>
        <time>2023-08-12T12:27:20Z</time>
      </trkpt>
      <trkpt lat="48.08254" lon="7.06387">
        <ele>996.5</ele>
        <time>2023-08-12T12:27:21Z</time>
      </trkpt>
      <trkpt lat="48.08254" lon="7.06385">
        <ele>996.6</ele>
        <time>2023-08-12T12:27:22Z</time>
      </trkpt>
      <trkpt lat="48.08254" lon="7.06383">
        <ele>996.8</ele>
        <time>2023-08-12T12:27:23Z</time>
      </trkpt>
      <trkpt lat="48.08254" lon="7.06381">
        <ele>997</ele>
        <time>2023-08-12T12:27:24Z</time>
      </trkpt>
      <trkpt lat="48.08254" lon="7.0638">
        <ele>997.1</ele>
        <time>2023-08-12T12:27:25Z</time>
      </trkpt>
      <trkpt lat="48.08255" lon="7.06378">
        <ele>997.2</ele>
        <time>2023-08-12T12:27:26Z</time>
      </trkpt>
      <trkpt lat="48.08255" lon="7.06376">
        <ele>997.4</ele>
        <time>2023-08-12T12:27:27Z</time>
      </trkpt>
      <trkpt lat="48.08256" lon="7.06374">
        <ele>997.6</ele>
        <time>2023-08-12T12:27:28Z</time>
      </trkpt>
      <trkpt lat="48.08257" lon="7.06373">
        <ele>997.8</ele>
        <time>2023-08-12T12:27:29Z</time>
      </trkpt>
      <trkpt lat="48.08257" lon="7.06371">
        <ele>997.9</ele>
        <time>2023-08-12T12:27:30Z</time>
      </trkpt>
      <trkpt lat="48.08258" lon="7.06368">
        <ele>998.2</ele>
        <time>2023-08-12T12:27:31Z</time>
      </trkpt>
      <trkpt lat="48.08258" lon="7.06368">
        <ele>998.2</ele>
        <time>2023-08-12T12:27:32Z</time>
      </trkpt>
      <trkpt lat="48.08258" lon="7.06366">
        <ele>998.3</ele>
        <time>2023-08-12T12:27:33Z</time>
      </trkpt>
      <trkpt lat="48.08258" lon="7.06365">
        <ele>998.5</ele>
        <time>2023-08-12T12:27:34Z</time>
      </trkpt>
      <trkpt lat="48.08259" lon="7.06363">
        <ele>998.7</ele>
        <time>2023-08-12T12:27:35Z</time>
      </trkpt>
      <trkpt lat="48.08259" lon="7.0636">
        <ele>998.9</ele>
        <time>2023-08-12T12:27:36Z</time>
      </trkpt>
      <trkpt lat="48.0826" lon="7.06358">
        <ele>999.2</ele>
        <time>2023-08-12T12:27:37Z</time>
      </trkpt>
      <trkpt lat="48.0826" lon="7.06357">
        <ele>999.3</ele>
        <time>2023-08-12T12:27:38Z</time>
      </trkpt>
      <trkpt lat="48.08261" lon="7.06356">
        <ele>999.4</ele>
        <time>2023-08-12T12:27:39Z</time>
      </trkpt>
      <trkpt lat="48.08261" lon="7.06354">
        <ele>999.6</ele>
        <time>2023-08-12T12:27:40Z</time>
      </trkpt>
      <trkpt lat="48.08262" lon="7.06353">
        <ele>999.7</ele>
        <time>2023-08-12T12:27:41Z</time>
      </trkpt>
      <trkpt lat="48.08263" lon="7.06351">
        <ele>999.9</ele>
        <time>2023-08-12T12:27:42Z</time>
      </trkpt>
      <trkpt lat="48.08263" lon="7.06349">
        <ele>1000.1</ele>
        <time>2023-08-12T12:27:43Z</time>
      </trkpt>
      <trkpt lat="48.08263" lon="7.06347">
        <ele>1000.3</ele>
        <time>2023-08-12T12:27:44Z</time>
      </trkpt>
      <trkpt lat="48.08264" lon="7.06345">
        <ele>1000.5</ele>
        <time>2023-08-12T12:27:45Z</time>
      </trkpt>
      <trkpt lat="48.08264" lon="7.06344">
        <ele>1000.6</ele>
        <time>2023-08-12T12:27:46Z</time>
      </trkpt>
      <trkpt lat="48.08264" lon="7.06341">
        <ele>1000.9</ele>
        <time>2023-08-12T12:27:47Z</time>
      </trkpt>
      <trkpt lat="48.08264" lon="7.0634">
        <ele>1001</ele>
        <time>2023-08-12T12:27:48Z</time>
      </trkpt>
      <trkpt lat="48.08264" lon="7.0634">
        <ele>1001</ele>
        <time>2023-08-12T12:27:49Z</time>
      </trkpt>
      <trkpt lat="48.08265" lon="7.06338">
        <ele>1001.2</ele>
        <time>2023-08-12T12:27:50Z</time>
      </trkpt>
      <trkpt lat="48.08266" lon="7.06337">
        <ele>1001.4</ele>
        <time>2023-08-12T12:27:51Z</time>
      </trkpt>
      <trkpt lat="48.08266" lon="7.06335">
        <ele>1001.6</ele>
        <time>2023-08-12T12:27:52Z</time>
      </trkpt>
      <trkpt lat="48.08266" lon="7.06334">
        <ele>1001.7</ele>
        <time>2023-08-12T12:27:53Z</time>
      </trkpt>
      <trkpt lat="48.08266" lon="7.06333">
        <ele>1001.8</ele>
        <time>2023-08-12T12:27:54Z</time>
      </trkpt>
      <trkpt lat="48.08267" lon="7.06331">
        <ele>1002</ele>
        <time>2023-08-12T12:27:55Z</time>
      </trkpt>
      <trkpt lat="48.08268" lon="7.0633">
        <ele>1002.2</ele>
        <time>2023-08-12T12:27:56Z</time>
      </trkpt>
      <trkpt lat="48.08269" lon="7.06329">
        <ele>1002.3</ele>
        <time>2023-08-12T12:27:57Z</time>
      </trkpt>
      <trkpt lat="48.08269" lon="7.06328">
        <ele>1002.5</ele>
        <time>2023-08-12T12:27:58Z</time>
      </trkpt>
      <trkpt lat="48.0827" lon="7.06327">
        <ele>1002.7</ele>
        <time>2023-08-12T12:27:59Z</time>
      </trkpt>
      <trkpt lat="48.08271" lon="7.06326">
        <ele>1002.8</ele>
        <time>2023-08-12T12:28:00Z</time>
      </trkpt>
      <trkpt lat="48.08271" lon="7.06326">
        <ele>1002.9</ele>
        <time>2023-08-12T12:28:01Z</time>
      </trkpt>
      <trkpt lat="48.08272" lon="7.06326">
        <ele>1002.9</ele>
        <time>2023-08-12T12:28:02Z</time>
      </trkpt>
      <trkpt lat="48.08273" lon="7.06324">
        <ele>1003.2</ele>
        <time>2023-08-12T12:28:03Z</time>
      </trkpt>
      <trkpt lat="48.08273" lon="7.06324">
        <ele>1003.3</ele>
        <time>2023-08-12T12:28:04Z</time>
      </trkpt>
      <trkpt lat="48.08274" lon="7.06324">
        <ele>1003.3</ele>
        <time>2023-08-12T12:28:05Z</time>
      </trkpt>
      <trkpt lat="48.08274" lon="7.06324">
        <ele>1003.4</ele>
        <time>2023-08-12T12:28:06Z</time>
      </trkpt>
      <trkpt lat="48.08274" lon="7.06324">
        <ele>1003.4</ele>
        <time>2023-08-12T12:28:07Z</time>
      </trkpt>
      <trkpt lat="48.08274" lon="7.06323">
        <ele>1003.5</ele>
        <time>2023-08-12T12:28:08Z</time>
      </trkpt>
      <trkpt lat="48.08275" lon="7.06324">
        <ele>1003.6</ele>
        <time>2023-08-12T12:28:09Z</time>
      </trkpt>
      <trkpt lat="48.08276" lon="7.06323">
        <ele>1003.8</ele>
        <time>2023-08-12T12:28:10Z</time>
      </trkpt>
      <trkpt lat="48.08278" lon="7.06321">
        <ele>1004.1</ele>
        <time>2023-08-12T12:28:11Z</time>
      </trkpt>
      <trkpt lat="48.08279" lon="7.0632">
        <ele>1004.3</ele>
        <time>2023-08-12T12:28:12Z</time>
      </trkpt>
      <trkpt lat="48.0828" lon="7.06319">
        <ele>1004.4</ele>
        <time>2023-08-12T12:28:13Z</time>
      </trkpt>
      <trkpt lat="48.08281" lon="7.06319">
        <ele>1004.5</ele>
        <time>2023-08-12T12:28:14Z</time>
      </trkpt>
      <trkpt lat="48.08281" lon="7.06318">
        <ele>1004.6</ele>
        <time>2023-08-12T12:28:15Z</time>
      </trkpt>
      <trkpt lat="48.08281" lon="7.06318">
        <ele>1004.7</ele>
        <time>2023-08-12T12:28:16Z</time>
      </trkpt>
      <trkpt lat="48.08282" lon="7.06318">
        <ele>1004.8</ele>
        <time>2023-08-12T12:28:17Z</time>
      </trkpt>
      <trkpt lat="48.08283" lon="7.06317">
        <ele>1004.9</ele>
        <time>2023-08-12T12:28:18Z</time>
      </trkpt>
      <trkpt lat="48.08283" lon="7.06317">
        <ele>1005</ele>
        <time>2023-08-12T12:28:19Z</time>
      </trkpt>
      <trkpt lat="48.08283" lon="7.06316">
        <ele>1005</ele>
        <time>2023-08-12T12:28:20Z</time>
      </trkpt>
      <trkpt lat="48.08284" lon="7.06315">
        <ele>1005.2</ele>
        <time>2023-08-12T12:28:21Z</time>
      </trkpt>
      <trkpt lat="48.08284" lon="7.06314">
        <ele>1005.3</ele>
        <time>2023-08-12T12:28:22Z</time>
      </trkpt>
      <trkpt lat="48.08285" lon="7.06314">
        <ele>1005.4</ele>
        <time>2023-08-12T12:28:23Z</time>
      </trkpt>
      <trkpt lat="48.08286" lon="7.06311">
        <ele>1005.7</ele>
        <time>2023-08-12T12:28:24Z</time>
      </trkpt>
      <trkpt lat="48.08288" lon="7.0631">
        <ele>1005.9</ele>
        <time>2023-08-12T12:28:25Z</time>
      </trkpt>
      <trkpt lat="48.08289" lon="7.0631">
        <ele>1006.1</ele>
        <time>2023-08-12T12:28:26Z</time>
      </trkpt>
      <trkpt lat="48.08289" lon="7.06308">
        <ele>1006.2</ele>
        <time>2023-08-12T12:28:27Z</time>
      </trkpt>
      <trkpt lat="48.0829" lon="7.06307">
        <ele>1006.3</ele>
        <time>2023-08-12T12:28:28Z</time>
      </trkpt>
      <trkpt lat="48.08291" lon="7.06307">
        <ele>1006.5</ele>
        <time>2023-08-12T12:28:29Z</time>
      </trkpt>
      <trkpt lat="48.08292" lon="7.06306">
        <ele>1006.7</ele>
        <time>2023-08-12T12:28:30Z</time>
      </trkpt>
      <trkpt lat="48.08293" lon="7.06305">
        <ele>1006.8</ele>
        <time>2023-08-12T12:28:31Z</time>
      </trkpt>
      <trkpt lat="48.08293" lon="7.06305">
        <ele>1006.9</ele>
        <time>2023-08-12T12:28:32Z</time>
      </trkpt>
      <trkpt lat="48.08294" lon="7.06304">
        <ele>1007</ele>
        <time>2023-08-12T12:28:33Z</time>
      </trkpt>
      <trkpt lat="48.08294" lon="7.06304">
        <ele>1007.1</ele>
        <time>2023-08-12T12:28:34Z</time>
      </trkpt>
      <trkpt lat="48.08294" lon="7.06304">
        <ele>1007.1</ele>
        <time>2023-08-12T12:28:35Z</time>
      </trkpt>
      <trkpt lat="48.08294" lon="7.06304">
        <ele>1007.1</ele>
        <time>2023-08-12T12:28:36Z</time>
      </trkpt>
      <trkpt lat="48.08295" lon="7.06301">
        <ele>1007.4</ele>
        <time>2023-08-12T12:28:37Z</time>
      </trkpt>
      <trkpt lat="48.08296" lon="7.063">
        <ele>1007.4</ele>
        <time>2023-08-12T12:28:38Z</time>
      </trkpt>
      <trkpt lat="48.08297" lon="7.06298">
        <ele>1007.7</ele>
        <time>2023-08-12T12:28:39Z</time>
      </trkpt>
      <trkpt lat="48.08299" lon="7.06295">
        <ele>1008.1</ele>
        <time>2023-08-12T12:28:40Z</time>
      </trkpt>
      <trkpt lat="48.08301" lon="7.06293">
        <ele>1008.4</ele>
        <time>2023-08-12T12:28:41Z</time>
      </trkpt>
      <trkpt lat="48.08302" lon="7.0629">
        <ele>1008.7</ele>
        <time>2023-08-12T12:28:42Z</time>
      </trkpt>
      <trkpt lat="48.08302" lon="7.0629">
        <ele>1008.7</ele>
        <time>2023-08-12T12:28:43Z</time>
      </trkpt>
      <trkpt lat="48.08303" lon="7.06288">
        <ele>1008.9</ele>
        <time>2023-08-12T12:28:44Z</time>
      </trkpt>
      <trkpt lat="48.08304" lon="7.06286">
        <ele>1009.2</ele>
        <time>2023-08-12T12:28:45Z</time>
      </trkpt>
      <trkpt lat="48.08306" lon="7.06282">
        <ele>1009.5</ele>
        <time>2023-08-12T12:28:46Z</time>
      </trkpt>
      <trkpt lat="48.08307" lon="7.0628">
        <ele>1009.8</ele>
        <time>2023-08-12T12:28:47Z</time>
      </trkpt>
      <trkpt lat="48.08309" lon="7.06279">
        <ele>1010.1</ele>
        <time>2023-08-12T12:28:48Z</time>
      </trkpt>
      <trkpt lat="48.08311" lon="7.06278">
        <ele>1010.3</ele>
        <time>2023-08-12T12:28:49Z</time>
      </trkpt>
      <trkpt lat="48.08313" lon="7.06278">
        <ele>1010.5</ele>
        <time>2023-08-12T12:28:50Z</time>
      </trkpt>
      <trkpt lat="48.08316" lon="7.06277">
        <ele>1010.8</ele>
        <time>2023-08-12T12:28:51Z</time>
      </trkpt>
      <trkpt lat="48.08317" lon="7.06275">
        <ele>1011.1</ele>
        <time>2023-08-12T12:28:52Z</time>
      </trkpt>
      <trkpt lat="48.08319" lon="7.06274">
        <ele>1011.2</ele>
        <time>2023-08-12T12:28:53Z</time>
      </trkpt>
      <trkpt lat="48.08319" lon="7.06273">
        <ele>1011.4</ele>
        <time>2023-08-12T12:28:54Z</time>
      </trkpt>
      <trkpt lat="48.0832" lon="7.06271">
        <ele>1011.5</ele>
        <time>2023-08-12T12:28:55Z</time>
      </trkpt>
      <trkpt lat="48.08321" lon="7.0627">
        <ele>1011.7</ele>
        <time>2023-08-12T12:28:56Z</time>
      </trkpt>
      <trkpt lat="48.08323" lon="7.06269">
        <ele>1011.9</ele>
        <time>2023-08-12T12:28:57Z</time>
      </trkpt>
      <trkpt lat="48.08324" lon="7.06269">
        <ele>1012</ele>
        <time>2023-08-12T12:28:58Z</time>
      </trkpt>
      <trkpt lat="48.08324" lon="7.06267">
        <ele>1012.2</ele>
        <time>2023-08-12T12:28:59Z</time>
      </trkpt>
      <trkpt lat="48.08325" lon="7.06267">
        <ele>1012.2</ele>
        <time>2023-08-12T12:29:00Z</time>
      </trkpt>
      <trkpt lat="48.08324" lon="7.06266">
        <ele>1012.4</ele>
        <time>2023-08-12T12:29:01Z</time>
      </trkpt>
      <trkpt lat="48.08324" lon="7.06266">
        <ele>1012.5</ele>
        <time>2023-08-12T12:29:02Z</time>
      </trkpt>
      <trkpt lat="48.08325" lon="7.06265">
        <ele>1012.6</ele>
        <time>2023-08-12T12:29:03Z</time>
      </trkpt>
      <trkpt lat="48.08326" lon="7.06264">
        <ele>1012.8</ele>
        <time>2023-08-12T12:29:04Z</time>
      </trkpt>
      <trkpt lat="48.08326" lon="7.06263">
        <ele>1012.9</ele>
        <time>2023-08-12T12:29:05Z</time>
      </trkpt>
      <trkpt lat="48.08327" lon="7.06262">
        <ele>1013.1</ele>
        <time>2023-08-12T12:29:06Z</time>
      </trkpt>
      <trkpt lat="48.08328" lon="7.06261">
        <ele>1013.3</ele>
        <time>2023-08-12T12:29:07Z</time>
      </trkpt>
      <trkpt lat="48.08329" lon="7.06261">
        <ele>1013.4</ele>
        <time>2023-08-12T12:29:08Z</time>
      </trkpt>
      <trkpt lat="48.08331" lon="7.06258">
        <ele>1013.8</ele>
        <time>2023-08-12T12:29:10Z</time>
      </trkpt>
      <trkpt lat="48.08333" lon="7.06256">
        <ele>1014.1</ele>
        <time>2023-08-12T12:29:12Z</time>
      </trkpt>
      <trkpt lat="48.08334" lon="7.06254">
        <ele>1014.4</ele>
        <time>2023-08-12T12:29:13Z</time>
      </trkpt>
      <trkpt lat="48.08334" lon="7.06253">
        <ele>1014.5</ele>
        <time>2023-08-12T12:29:14Z</time>
      </trkpt>
      <trkpt lat="48.08336" lon="7.0625">
        <ele>1014.9</ele>
        <time>2023-08-12T12:29:16Z</time>
      </trkpt>
      <trkpt lat="48.08337" lon="7.0625">
        <ele>1015</ele>
        <time>2023-08-12T12:29:17Z</time>
      </trkpt>
      <trkpt lat="48.08338" lon="7.06249">
        <ele>1015.2</ele>
        <time>2023-08-12T12:29:18Z</time>
      </trkpt>
      <trkpt lat="48.08339" lon="7.06248">
        <ele>1015.3</ele>
        <time>2023-08-12T12:29:19Z</time>
      </trkpt>
      <trkpt lat="48.0834" lon="7.06245">
        <ele>1015.7</ele>
        <time>2023-08-12T12:29:21Z</time>
      </trkpt>
      <trkpt lat="48.08341" lon="7.06245">
        <ele>1015.9</ele>
        <time>2023-08-12T12:29:22Z</time>
      </trkpt>
      <trkpt lat="48.08342" lon="7.06244">
        <ele>1016.1</ele>
        <time>2023-08-12T12:29:23Z</time>
      </trkpt>
      <trkpt lat="48.08344" lon="7.06243">
        <ele>1016.3</ele>
        <time>2023-08-12T12:29:25Z</time>
      </trkpt>
      <trkpt lat="48.08345" lon="7.06243">
        <ele>1016.5</ele>
        <time>2023-08-12T12:29:26Z</time>
      </trkpt>
      <trkpt lat="48.08346" lon="7.06242">
        <ele>1016.7</ele>
        <time>2023-08-12T12:29:27Z</time>
      </trkpt>
      <trkpt lat="48.08347" lon="7.0624">
        <ele>1016.9</ele>
        <time>2023-08-12T12:29:28Z</time>
      </trkpt>
      <trkpt lat="48.08348" lon="7.06238">
        <ele>1017.1</ele>
        <time>2023-08-12T12:29:29Z</time>
      </trkpt>
      <trkpt lat="48.08348" lon="7.06238">
        <ele>1017.1</ele>
        <time>2023-08-12T12:29:30Z</time>
      </trkpt>
      <trkpt lat="48.0835" lon="7.06236">
        <ele>1017.4</ele>
        <time>2023-08-12T12:29:32Z</time>
      </trkpt>
      <trkpt lat="48.08351" lon="7.06236">
        <ele>1017.6</ele>
        <time>2023-08-12T12:29:33Z</time>
      </trkpt>
      <trkpt lat="48.08351" lon="7.06234">
        <ele>1017.7</ele>
        <time>2023-08-12T12:29:34Z</time>
      </trkpt>
      <trkpt lat="48.08352" lon="7.06234">
        <ele>1017.8</ele>
        <time>2023-08-12T12:29:36Z</time>
      </trkpt>
      <trkpt lat="48.08353" lon="7.06234">
        <ele>1017.9</ele>
        <time>2023-08-12T12:29:37Z</time>
      </trkpt>
      <trkpt lat="48.08354" lon="7.06233">
        <ele>1018</ele>
        <time>2023-08-12T12:29:38Z</time>
      </trkpt>
      <trkpt lat="48.08354" lon="7.06233">
        <ele>1018.1</ele>
        <time>2023-08-12T12:29:39Z</time>
      </trkpt>
      <trkpt lat="48.08355" lon="7.06232">
        <ele>1018.3</ele>
        <time>2023-08-12T12:29:40Z</time>
      </trkpt>
      <trkpt lat="48.08356" lon="7.06231">
        <ele>1018.4</ele>
        <time>2023-08-12T12:29:41Z</time>
      </trkpt>
      <trkpt lat="48.08357" lon="7.0623">
        <ele>1018.6</ele>
        <time>2023-08-12T12:29:42Z</time>
      </trkpt>
      <trkpt lat="48.08358" lon="7.06229">
        <ele>1018.8</ele>
        <time>2023-08-12T12:29:43Z</time>
      </trkpt>
      <trkpt lat="48.0836" lon="7.06227">
        <ele>1019</ele>
        <time>2023-08-12T12:29:44Z</time>
      </trkpt>
      <trkpt lat="48.0836" lon="7.06226">
        <ele>1019.2</ele>
        <time>2023-08-12T12:29:45Z</time>
      </trkpt>
      <trkpt lat="48.08367" lon="7.06222">
        <ele>1020.1</ele>
        <time>2023-08-12T12:29:51Z</time>
      </trkpt>
      <trkpt lat="48.08368" lon="7.06221">
        <ele>1020.3</ele>
        <time>2023-08-12T12:29:52Z</time>
      </trkpt>
      <trkpt lat="48.0837" lon="7.0622">
        <ele>1020.6</ele>
        <time>2023-08-12T12:29:54Z</time>
      </trkpt>
      <trkpt lat="48.08371" lon="7.0622">
        <ele>1020.8</ele>
        <time>2023-08-12T12:29:55Z</time>
      </trkpt>
      <trkpt lat="48.08372" lon="7.06219">
        <ele>1020.9</ele>
        <time>2023-08-12T12:29:56Z</time>
      </trkpt>
      <trkpt lat="48.08373" lon="7.0622">
        <ele>1021.1</ele>
        <time>2023-08-12T12:29:57Z</time>
      </trkpt>
      <trkpt lat="48.08375" lon="7.06219">
        <ele>1021.3</ele>
        <time>2023-08-12T12:29:59Z</time>
      </trkpt>
      <trkpt lat="48.08376" lon="7.06219">
        <ele>1021.4</ele>
        <time>2023-08-12T12:30:00Z</time>
      </trkpt>
      <trkpt lat="48.0838" lon="7.06215">
        <ele>1022.1</ele>
        <time>2023-08-12T12:30:02Z</time>
      </trkpt>
      <trkpt lat="48.08382" lon="7.06213">
        <ele>1022.4</ele>
        <time>2023-08-12T12:30:03Z</time>
      </trkpt>
      <trkpt lat="48.08384" lon="7.0621">
        <ele>1022.8</ele>
        <time>2023-08-12T12:30:05Z</time>
      </trkpt>
      <trkpt lat="48.08385" lon="7.06209">
        <ele>1023</ele>
        <time>2023-08-12T12:30:06Z</time>
      </trkpt>
      <trkpt lat="48.08387" lon="7.06207">
        <ele>1023.3</ele>
        <time>2023-08-12T12:30:07Z</time>
      </trkpt>
      <trkpt lat="48.08388" lon="7.06205">
        <ele>1023.6</ele>
        <time>2023-08-12T12:30:08Z</time>
      </trkpt>
      <trkpt lat="48.08393" lon="7.06199">
        <ele>1024.5</ele>
        <time>2023-08-12T12:30:11Z</time>
      </trkpt>
      <trkpt lat="48.08396" lon="7.06197">
        <ele>1025</ele>
        <time>2023-08-12T12:30:13Z</time>
      </trkpt>
      <trkpt lat="48.08397" lon="7.06196">
        <ele>1025.2</ele>
        <time>2023-08-12T12:30:14Z</time>
      </trkpt>
      <trkpt lat="48.08398" lon="7.06196">
        <ele>1025.3</ele>
        <time>2023-08-12T12:30:15Z</time>
      </trkpt>
      <trkpt lat="48.08399" lon="7.06195">
        <ele>1025.6</ele>
        <time>2023-08-12T12:30:16Z</time>
      </trkpt>
      <trkpt lat="48.084" lon="7.06195">
        <ele>1025.8</ele>
        <time>2023-08-12T12:30:17Z</time>
      </trkpt>
      <trkpt lat="48.08401" lon="7.06195">
        <ele>1025.9</ele>
        <time>2023-08-12T12:30:18Z</time>
      </trkpt>
      <trkpt lat="48.08402" lon="7.06194">
        <ele>1026.1</ele>
        <time>2023-08-12T12:30:19Z</time>
      </trkpt>
      <trkpt lat="48.08403" lon="7.06194">
        <ele>1026.3</ele>
        <time>2023-08-12T12:30:20Z</time>
      </trkpt>
      <trkpt lat="48.08404" lon="7.06193">
        <ele>1026.4</ele>
        <time>2023-08-12T12:30:21Z</time>
      </trkpt>
      <trkpt lat="48.08405" lon="7.06193">
        <ele>1026.6</ele>
        <time>2023-08-12T12:30:22Z</time>
      </trkpt>
      <trkpt lat="48.08406" lon="7.06193">
        <ele>1026.8</ele>
        <time>2023-08-12T12:30:23Z</time>
      </trkpt>
      <trkpt lat="48.08408" lon="7.06193">
        <ele>1027</ele>
        <time>2023-08-12T12:30:24Z</time>
      </trkpt>
      <trkpt lat="48.08412" lon="7.06193">
        <ele>1027.6</ele>
        <time>2023-08-12T12:30:29Z</time>
      </trkpt>
      <trkpt lat="48.08414" lon="7.06192">
        <ele>1028</ele>
        <time>2023-08-12T12:30:32Z</time>
      </trkpt>
      <trkpt lat="48.08415" lon="7.06191">
        <ele>1028.2</ele>
        <time>2023-08-12T12:30:33Z</time>
      </trkpt>
      <trkpt lat="48.08416" lon="7.0619">
        <ele>1028.4</ele>
        <time>2023-08-12T12:30:35Z</time>
      </trkpt>
      <trkpt lat="48.08418" lon="7.06188">
        <ele>1028.8</ele>
        <time>2023-08-12T12:30:38Z</time>
      </trkpt>
      <trkpt lat="48.08418" lon="7.06187">
        <ele>1029</ele>
        <time>2023-08-12T12:30:39Z</time>
      </trkpt>
      <trkpt lat="48.08419" lon="7.06187">
        <ele>1029.2</ele>
        <time>2023-08-12T12:30:40Z</time>
      </trkpt>
      <trkpt lat="48.0842" lon="7.06187">
        <ele>1029.3</ele>
        <time>2023-08-12T12:30:41Z</time>
      </trkpt>
      <trkpt lat="48.08422" lon="7.06187">
        <ele>1029.6</ele>
        <time>2023-08-12T12:30:42Z</time>
      </trkpt>
      <trkpt lat="48.08424" lon="7.06187">
        <ele>1030</ele>
        <time>2023-08-12T12:30:44Z</time>
      </trkpt>
      <trkpt lat="48.08425" lon="7.06187">
        <ele>1030.1</ele>
        <time>2023-08-12T12:30:45Z</time>
      </trkpt>
      <trkpt lat="48.08425" lon="7.06186">
        <ele>1030.2</ele>
        <time>2023-08-12T12:30:46Z</time>
      </trkpt>
      <trkpt lat="48.08426" lon="7.06187">
        <ele>1030.2</ele>
        <time>2023-08-12T12:30:47Z</time>
      </trkpt>
      <trkpt lat="48.08426" lon="7.06186">
        <ele>1030.4</ele>
        <time>2023-08-12T12:30:51Z</time>
      </trkpt>
      <trkpt lat="48.08427" lon="7.06186">
        <ele>1030.6</ele>
        <time>2023-08-12T12:30:52Z</time>
      </trkpt>
      <trkpt lat="48.0843" lon="7.06184">
        <ele>1031.1</ele>
        <time>2023-08-12T12:30:54Z</time>
      </trkpt>
      <trkpt lat="48.08431" lon="7.06184">
        <ele>1031.2</ele>
        <time>2023-08-12T12:30:55Z</time>
      </trkpt>
      <trkpt lat="48.08432" lon="7.06183">
        <ele>1031.5</ele>
        <time>2023-08-12T12:30:56Z</time>
      </trkpt>
      <trkpt lat="48.08433" lon="7.06182">
        <ele>1031.7</ele>
        <time>2023-08-12T12:30:59Z</time>
      </trkpt>
      <trkpt lat="48.08434" lon="7.06182">
        <ele>1031.9</ele>
        <time>2023-08-12T12:31:01Z</time>
      </trkpt>
      <trkpt lat="48.08436" lon="7.06181">
        <ele>1032.3</ele>
        <time>2023-08-12T12:31:02Z</time>
      </trkpt>
      <trkpt lat="48.08443" lon="7.06175">
        <ele>1033.5</ele>
        <time>2023-08-12T12:31:05Z</time>
      </trkpt>
      <trkpt lat="48.08445" lon="7.06174">
        <ele>1033.9</ele>
        <time>2023-08-12T12:31:06Z</time>
      </trkpt>
      <trkpt lat="48.08447" lon="7.06171">
        <ele>1034.3</ele>
        <time>2023-08-12T12:31:08Z</time>
      </trkpt>
      <trkpt lat="48.08448" lon="7.06171">
        <ele>1034.5</ele>
        <time>2023-08-12T12:31:09Z</time>
      </trkpt>
      <trkpt lat="48.08451" lon="7.0617">
        <ele>1035</ele>
        <time>2023-08-12T12:31:10Z</time>
      </trkpt>
      <trkpt lat="48.08454" lon="7.06169">
        <ele>1035.4</ele>
        <time>2023-08-12T12:31:11Z</time>
      </trkpt>
      <trkpt lat="48.08456" lon="7.06169">
        <ele>1035.7</ele>
        <time>2023-08-12T12:31:12Z</time>
      </trkpt>
      <trkpt lat="48.08458" lon="7.06169">
        <ele>1036</ele>
        <time>2023-08-12T12:31:13Z</time>
      </trkpt>
      <trkpt lat="48.08459" lon="7.06167">
        <ele>1036.3</ele>
        <time>2023-08-12T12:31:14Z</time>
      </trkpt>
      <trkpt lat="48.08463" lon="7.06166">
        <ele>1036.8</ele>
        <time>2023-08-12T12:31:16Z</time>
      </trkpt>
      <trkpt lat="48.08464" lon="7.06167">
        <ele>1037</ele>
        <time>2023-08-12T12:31:17Z</time>
      </trkpt>
      <trkpt lat="48.08466" lon="7.06165">
        <ele>1037.3</ele>
        <time>2023-08-12T12:31:18Z</time>
      </trkpt>
      <trkpt lat="48.08468" lon="7.06163">
        <ele>1037.7</ele>
        <time>2023-08-12T12:31:20Z</time>
      </trkpt>
      <trkpt lat="48.08469" lon="7.06162">
        <ele>1037.9</ele>
        <time>2023-08-12T12:31:21Z</time>
      </trkpt>
      <trkpt lat="48.08469" lon="7.06161">
        <ele>1038</ele>
        <time>2023-08-12T12:31:22Z</time>
      </trkpt>
      <trkpt lat="48.0847" lon="7.0616">
        <ele>1038.2</ele>
        <time>2023-08-12T12:31:23Z</time>
      </trkpt>
      <trkpt lat="48.08473" lon="7.06157">
        <ele>1038.6</ele>
        <time>2023-08-12T12:31:25Z</time>
      </trkpt>
      <trkpt lat="48.08473" lon="7.06157">
        <ele>1038.7</ele>
        <time>2023-08-12T12:31:26Z</time>
      </trkpt>
      <trkpt lat="48.08474" lon="7.06157">
        <ele>1038.8</ele>
        <time>2023-08-12T12:31:27Z</time>
      </trkpt>
      <trkpt lat="48.08475" lon="7.06155">
        <ele>1039</ele>
        <time>2023-08-12T12:31:28Z</time>
      </trkpt>
      <trkpt lat="48.08476" lon="7.06154">
        <ele>1039.2</ele>
        <time>2023-08-12T12:31:29Z</time>
      </trkpt>
      <trkpt lat="48.08477" lon="7.06154">
        <ele>1039.4</ele>
        <time>2023-08-12T12:31:30Z</time>
      </trkpt>
      <trkpt lat="48.08478" lon="7.06154">
        <ele>1039.6</ele>
        <time>2023-08-12T12:31:31Z</time>
      </trkpt>
      <trkpt lat="48.08479" lon="7.06153">
        <ele>1039.7</ele>
        <time>2023-08-12T12:31:32Z</time>
      </trkpt>
      <trkpt lat="48.08481" lon="7.06153">
        <ele>1039.9</ele>
        <time>2023-08-12T12:31:34Z</time>
      </trkpt>
      <trkpt lat="48.08482" lon="7.06153">
        <ele>1040.1</ele>
        <time>2023-08-12T12:31:35Z</time>
      </trkpt>
      <trkpt lat="48.08483" lon="7.06152">
        <ele>1040.2</ele>
        <time>2023-08-12T12:31:36Z</time>
      </trkpt>
      <trkpt lat="48.08484" lon="7.06152">
        <ele>1040.4</ele>
        <time>2023-08-12T12:31:37Z</time>
      </trkpt>
      <trkpt lat="48.08485" lon="7.06153">
        <ele>1040.5</ele>
        <time>2023-08-12T12:31:38Z</time>
      </trkpt>
      <trkpt lat="48.08486" lon="7.06154">
        <ele>1040.7</ele>
        <time>2023-08-12T12:31:39Z</time>
      </trkpt>
      <trkpt lat="48.08488" lon="7.06154">
        <ele>1040.9</ele>
        <time>2023-08-12T12:31:40Z</time>
      </trkpt>
      <trkpt lat="48.08489" lon="7.06154">
        <ele>1041.1</ele>
        <time>2023-08-12T12:31:41Z</time>
      </trkpt>
      <trkpt lat="48.08491" lon="7.06153">
        <ele>1041.3</ele>
        <time>2023-08-12T12:31:42Z</time>
      </trkpt>
      <trkpt lat="48.08492" lon="7.06152">
        <ele>1041.5</ele>
        <time>2023-08-12T12:31:43Z</time>
      </trkpt>
      <trkpt lat="48.08493" lon="7.06152">
        <ele>1041.7</ele>
        <time>2023-08-12T12:31:44Z</time>
      </trkpt>
      <trkpt lat="48.08495" lon="7.06153">
        <ele>1041.9</ele>
        <time>2023-08-12T12:31:45Z</time>
      </trkpt>
      <trkpt lat="48.08496" lon="7.06154">
        <ele>1042.1</ele>
        <time>2023-08-12T12:31:46Z</time>
      </trkpt>
      <trkpt lat="48.08497" lon="7.06154">
        <ele>1042.1</ele>
        <time>2023-08-12T12:31:47Z</time>
      </trkpt>
      <trkpt lat="48.08499" lon="7.06154">
        <ele>1042.1</ele>
        <time>2023-08-12T12:31:48Z</time>
      </trkpt>
      <trkpt lat="48.085" lon="7.06154">
        <ele>1042.2</ele>
        <time>2023-08-12T12:31:49Z</time>
      </trkpt>
      <trkpt lat="48.08501" lon="7.06155">
        <ele>1042.2</ele>
        <time>2023-08-12T12:31:50Z</time>
      </trkpt>
      <trkpt lat="48.08502" lon="7.06157">
        <ele>1042.2</ele>
        <time>2023-08-12T12:31:51Z</time>
      </trkpt>
      <trkpt lat="48.08503" lon="7.06158">
        <ele>1042.3</ele>
        <time>2023-08-12T12:31:52Z</time>
      </trkpt>
      <trkpt lat="48.08504" lon="7.06158">
        <ele>1042.3</ele>
        <time>2023-08-12T12:31:53Z</time>
      </trkpt>
      <trkpt lat="48.08505" lon="7.06159">
        <ele>1042.3</ele>
        <time>2023-08-12T12:31:57Z</time>
      </trkpt>
      <trkpt lat="48.08505" lon="7.06159">
        <ele>1042.3</ele>
        <time>2023-08-12T12:32:08Z</time>
      </trkpt>
      <trkpt lat="48.08509" lon="7.06162">
        <ele>1042.5</ele>
        <time>2023-08-12T12:32:11Z</time>
      </trkpt>
      <trkpt lat="48.08515" lon="7.06165">
        <ele>1042.7</ele>
        <time>2023-08-12T12:32:14Z</time>
      </trkpt>
      <trkpt lat="48.08517" lon="7.06166">
        <ele>1042.7</ele>
        <time>2023-08-12T12:32:15Z</time>
      </trkpt>
      <trkpt lat="48.08518" lon="7.06167">
        <ele>1042.8</ele>
        <time>2023-08-12T12:32:16Z</time>
      </trkpt>
      <trkpt lat="48.0852" lon="7.06169">
        <ele>1042.8</ele>
        <time>2023-08-12T12:32:17Z</time>
      </trkpt>
      <trkpt lat="48.08522" lon="7.06171">
        <ele>1042.9</ele>
        <time>2023-08-12T12:32:18Z</time>
      </trkpt>
      <trkpt lat="48.08529" lon="7.06179">
        <ele>1043.1</ele>
        <time>2023-08-12T12:32:22Z</time>
      </trkpt>
      <trkpt lat="48.08532" lon="7.06182">
        <ele>1043.1</ele>
        <time>2023-08-12T12:32:23Z</time>
      </trkpt>
      <trkpt lat="48.08533" lon="7.06184">
        <ele>1043.2</ele>
        <time>2023-08-12T12:32:24Z</time>
      </trkpt>
      <trkpt lat="48.0854" lon="7.06192">
        <ele>1043.3</ele>
        <time>2023-08-12T12:32:28Z</time>
      </trkpt>
      <trkpt lat="48.08541" lon="7.06193">
        <ele>1043.3</ele>
        <time>2023-08-12T12:32:29Z</time>
      </trkpt>
      <trkpt lat="48.08544" lon="7.06198">
        <ele>1043.4</ele>
        <time>2023-08-12T12:32:31Z</time>
      </trkpt>
      <trkpt lat="48.08545" lon="7.06201">
        <ele>1043.4</ele>
        <time>2023-08-12T12:32:32Z</time>
      </trkpt>
      <trkpt lat="48.08546" lon="7.06204">
        <ele>1043.4</ele>
        <time>2023-08-12T12:32:33Z</time>
      </trkpt>
      <trkpt lat="48.08548" lon="7.0621">
        <ele>1043.5</ele>
        <time>2023-08-12T12:32:35Z</time>
      </trkpt>
      <trkpt lat="48.08548" lon="7.06213">
        <ele>1043.5</ele>
        <time>2023-08-12T12:32:36Z</time>
      </trkpt>
      <trkpt lat="48.08549" lon="7.06215">
        <ele>1043.5</ele>
        <time>2023-08-12T12:32:37Z</time>
      </trkpt>
      <trkpt lat="48.0855" lon="7.06218">
        <ele>1043.5</ele>
        <time>2023-08-12T12:32:38Z</time>
      </trkpt>
      <trkpt lat="48.0855" lon="7.0622">
        <ele>1043.6</ele>
        <time>2023-08-12T12:32:39Z</time>
      </trkpt>
      <trkpt lat="48.08551" lon="7.06223">
        <ele>1043.6</ele>
        <time>2023-08-12T12:32:40Z</time>
      </trkpt>
      <trkpt lat="48.08552" lon="7.06226">
        <ele>1043.6</ele>
        <time>2023-08-12T12:32:41Z</time>
      </trkpt>
      <trkpt lat="48.08553" lon="7.06229">
        <ele>1043.6</ele>
        <time>2023-08-12T12:32:42Z</time>
      </trkpt>
      <trkpt lat="48.08554" lon="7.06238">
        <ele>1043.7</ele>
        <time>2023-08-12T12:32:44Z</time>
      </trkpt>
      <trkpt lat="48.08555" lon="7.06242">
        <ele>1043.7</ele>
        <time>2023-08-12T12:32:45Z</time>
      </trkpt>
      <trkpt lat="48.08556" lon="7.06253">
        <ele>1043.8</ele>
        <time>2023-08-12T12:32:48Z</time>
      </trkpt>
      <trkpt lat="48.08555" lon="7.06257">
        <ele>1043.9</ele>
        <time>2023-08-12T12:32:50Z</time>
      </trkpt>
      <trkpt lat="48.08555" lon="7.0626">
        <ele>1043.9</ele>
        <time>2023-08-12T12:32:51Z</time>
      </trkpt>
      <trkpt lat="48.08556" lon="7.06263">
        <ele>1044</ele>
        <time>2023-08-12T12:32:52Z</time>
      </trkpt>
      <trkpt lat="48.08558" lon="7.06273">
        <ele>1044.1</ele>
        <time>2023-08-12T12:32:54Z</time>
      </trkpt>
      <trkpt lat="48.08559" lon="7.06277">
        <ele>1044.2</ele>
        <time>2023-08-12T12:32:55Z</time>
      </trkpt>
      <trkpt lat="48.08559" lon="7.06281">
        <ele>1044.2</ele>
        <time>2023-08-12T12:32:56Z</time>
      </trkpt>
      <trkpt lat="48.08559" lon="7.0629">
        <ele>1044.3</ele>
        <time>2023-08-12T12:32:58Z</time>
      </trkpt>
      <trkpt lat="48.0856" lon="7.06294">
        <ele>1044.4</ele>
        <time>2023-08-12T12:32:59Z</time>
      </trkpt>
      <trkpt lat="48.08562" lon="7.06302">
        <ele>1044.5</ele>
        <time>2023-08-12T12:33:01Z</time>
      </trkpt>
      <trkpt lat="48.08563" lon="7.06307">
        <ele>1044.5</ele>
        <time>2023-08-12T12:33:02Z</time>
      </trkpt>
      <trkpt lat="48.08564" lon="7.0631">
        <ele>1044.6</ele>
        <time>2023-08-12T12:33:03Z</time>
      </trkpt>
      <trkpt lat="48.08564" lon="7.06318">
        <ele>1044.7</ele>
        <time>2023-08-12T12:33:05Z</time>
      </trkpt>
      <trkpt lat="48.08566" lon="7.0632">
        <ele>1044.7</ele>
        <time>2023-08-12T12:33:06Z</time>
      </trkpt>
      <trkpt lat="48.08567" lon="7.06327">
        <ele>1044.8</ele>
        <time>2023-08-12T12:33:08Z</time>
      </trkpt>
      <trkpt lat="48.08566" lon="7.06332">
        <ele>1044.9</ele>
        <time>2023-08-12T12:33:09Z</time>
      </trkpt>
      <trkpt lat="48.08567" lon="7.06336">
        <ele>1045</ele>
        <time>2023-08-12T12:33:10Z</time>
      </trkpt>
      <trkpt lat="48.08567" lon="7.06339">
        <ele>1045.1</ele>
        <time>2023-08-12T12:33:11Z</time>
      </trkpt>
      <trkpt lat="48.08567" lon="7.06343">
        <ele>1045.1</ele>
        <time>2023-08-12T12:33:12Z</time>
      </trkpt>
      <trkpt lat="48.08567" lon="7.06346">
        <ele>1045.2</ele>
        <time>2023-08-12T12:33:13Z</time>
      </trkpt>
      <trkpt lat="48.08568" lon="7.0635">
        <ele>1045.3</ele>
        <time>2023-08-12T12:33:14Z</time>
      </trkpt>
      <trkpt lat="48.08569" lon="7.06357">
        <ele>1045.5</ele>
        <time>2023-08-12T12:33:16Z</time>
      </trkpt>
      <trkpt lat="48.08569" lon="7.0636">
        <ele>1045.6</ele>
        <time>2023-08-12T12:33:17Z</time>
      </trkpt>
      <trkpt lat="48.08569" lon="7.06363">
        <ele>1045.7</ele>
        <time>2023-08-12T12:33:18Z</time>
      </trkpt>
      <trkpt lat="48.08569" lon="7.06366">
        <ele>1045.8</ele>
        <time>2023-08-12T12:33:19Z</time>
      </trkpt>
      <trkpt lat="48.08569" lon="7.06368">
        <ele>1045.9</ele>
        <time>2023-08-12T12:33:20Z</time>
      </trkpt>
      <trkpt lat="48.0857" lon="7.06371">
        <ele>1046</ele>
        <time>2023-08-12T12:33:21Z</time>
      </trkpt>
      <trkpt lat="48.0857" lon="7.06374">
        <ele>1046.1</ele>
        <time>2023-08-12T12:33:22Z</time>
      </trkpt>
      <trkpt lat="48.08571" lon="7.06376">
        <ele>1046.2</ele>
        <time>2023-08-12T12:33:23Z</time>
      </trkpt>
      <trkpt lat="48.08571" lon="7.06379">
        <ele>1046.3</ele>
        <time>2023-08-12T12:33:24Z</time>
      </trkpt>
      <trkpt lat="48.0857" lon="7.06381">
        <ele>1046.4</ele>
        <time>2023-08-12T12:33:25Z</time>
      </trkpt>
      <trkpt lat="48.0857" lon="7.06383">
        <ele>1046.5</ele>
        <time>2023-08-12T12:33:26Z</time>
      </trkpt>
      <trkpt lat="48.0857" lon="7.06385">
        <ele>1046.6</ele>
        <time>2023-08-12T12:33:27Z</time>
      </trkpt>
      <trkpt lat="48.08571" lon="7.06387">
        <ele>1046.8</ele>
        <time>2023-08-12T12:33:28Z</time>
      </trkpt>
      <trkpt lat="48.08572" lon="7.0639">
        <ele>1047</ele>
        <time>2023-08-12T12:33:29Z</time>
      </trkpt>
      <trkpt lat="48.08573" lon="7.06393">
        <ele>1047.1</ele>
        <time>2023-08-12T12:33:30Z</time>
      </trkpt>
      <trkpt lat="48.08573" lon="7.06395">
        <ele>1047.3</ele>
        <time>2023-08-12T12:33:31Z</time>
      </trkpt>
      <trkpt lat="48.08574" lon="7.06397">
        <ele>1047.4</ele>
        <time>2023-08-12T12:33:32Z</time>
      </trkpt>
      <trkpt lat="48.08574" lon="7.06402">
        <ele>1047.7</ele>
        <time>2023-08-12T12:33:34Z</time>
      </trkpt>
      <trkpt lat="48.08575" lon="7.06404">
        <ele>1047.8</ele>
        <time>2023-08-12T12:33:35Z</time>
      </trkpt>
      <trkpt lat="48.08576" lon="7.06406">
        <ele>1047.9</ele>
        <time>2023-08-12T12:33:36Z</time>
      </trkpt>
      <trkpt lat="48.08577" lon="7.06408">
        <ele>1048.1</ele>
        <time>2023-08-12T12:33:37Z</time>
      </trkpt>
      <trkpt lat="48.08579" lon="7.06409">
        <ele>1048.3</ele>
        <time>2023-08-12T12:33:38Z</time>
      </trkpt>
      <trkpt lat="48.08581" lon="7.06409">
        <ele>1048.4</ele>
        <time>2023-08-12T12:33:39Z</time>
      </trkpt>
      <trkpt lat="48.08583" lon="7.06409">
        <ele>1048.6</ele>
        <time>2023-08-12T12:33:40Z</time>
      </trkpt>
      <trkpt lat="48.08586" lon="7.0641">
        <ele>1048.8</ele>
        <time>2023-08-12T12:33:41Z</time>
      </trkpt>
      <trkpt lat="48.08587" lon="7.0641">
        <ele>1049.2</ele>
        <time>2023-08-12T12:33:42Z</time>
      </trkpt>
      <trkpt lat="48.0859" lon="7.06408">
        <ele>1049.4</ele>
        <time>2023-08-12T12:33:43Z</time>
      </trkpt>
      <trkpt lat="48.08592" lon="7.06406">
        <ele>1049.6</ele>
        <time>2023-08-12T12:33:44Z</time>
      </trkpt>
      <trkpt lat="48.08594" lon="7.06405">
        <ele>1049.7</ele>
        <time>2023-08-12T12:33:45Z</time>
      </trkpt>
      <trkpt lat="48.08595" lon="7.06404">
        <ele>1049.9</ele>
        <time>2023-08-12T12:33:46Z</time>
      </trkpt>
      <trkpt lat="48.08595" lon="7.06403">
        <ele>1049.9</ele>
        <time>2023-08-12T12:33:47Z</time>
      </trkpt>
      <trkpt lat="48.08596" lon="7.06403">
        <ele>1050</ele>
        <time>2023-08-12T12:33:48Z</time>
      </trkpt>
      <trkpt lat="48.08597" lon="7.06402">
        <ele>1050.1</ele>
        <time>2023-08-12T12:33:49Z</time>
      </trkpt>
      <trkpt lat="48.08599" lon="7.06402">
        <ele>1050.2</ele>
        <time>2023-08-12T12:33:50Z</time>
      </trkpt>
      <trkpt lat="48.08601" lon="7.06403">
        <ele>1050.5</ele>
        <time>2023-08-12T12:33:51Z</time>
      </trkpt>
      <trkpt lat="48.08603" lon="7.06402">
        <ele>1050.6</ele>
        <time>2023-08-12T12:33:52Z</time>
      </trkpt>
      <trkpt lat="48.08604" lon="7.06402">
        <ele>1050.7</ele>
        <time>2023-08-12T12:33:53Z</time>
      </trkpt>
      <trkpt lat="48.08605" lon="7.06401">
        <ele>1050.9</ele>
        <time>2023-08-12T12:33:54Z</time>
      </trkpt>
      <trkpt lat="48.0861" lon="7.06392">
        <ele>1051.7</ele>
        <time>2023-08-12T12:33:57Z</time>
      </trkpt>
      <trkpt lat="48.08611" lon="7.06389">
        <ele>1051.9</ele>
        <time>2023-08-12T12:33:58Z</time>
      </trkpt>
      <trkpt lat="48.08613" lon="7.06386">
        <ele>1052.2</ele>
        <time>2023-08-12T12:33:59Z</time>
      </trkpt>
      <trkpt lat="48.08619" lon="7.06385">
        <ele>1052.7</ele>
        <time>2023-08-12T12:34:02Z</time>
      </trkpt>
      <trkpt lat="48.08624" lon="7.06382">
        <ele>1053.2</ele>
        <time>2023-08-12T12:34:05Z</time>
      </trkpt>
      <trkpt lat="48.08626" lon="7.06378">
        <ele>1053.4</ele>
        <time>2023-08-12T12:34:06Z</time>
      </trkpt>
      <trkpt lat="48.08636" lon="7.0637">
        <ele>1054.1</ele>
        <time>2023-08-12T12:34:10Z</time>
      </trkpt>
      <trkpt lat="48.08637" lon="7.06365">
        <ele>1054.3</ele>
        <time>2023-08-12T12:34:11Z</time>
      </trkpt>
      <trkpt lat="48.08639" lon="7.06362">
        <ele>1054.5</ele>
        <time>2023-08-12T12:34:12Z</time>
      </trkpt>
      <trkpt lat="48.0864" lon="7.0636">
        <ele>1054.7</ele>
        <time>2023-08-12T12:34:13Z</time>
      </trkpt>
      <trkpt lat="48.0864" lon="7.06358">
        <ele>1054.7</ele>
        <time>2023-08-12T12:34:14Z</time>
      </trkpt>
      <trkpt lat="48.08642" lon="7.06356">
        <ele>1054.9</ele>
        <time>2023-08-12T12:34:15Z</time>
      </trkpt>
      <trkpt lat="48.08643" lon="7.06354">
        <ele>1055</ele>
        <time>2023-08-12T12:34:16Z</time>
      </trkpt>
      <trkpt lat="48.08645" lon="7.06353">
        <ele>1055.1</ele>
        <time>2023-08-12T12:34:17Z</time>
      </trkpt>
      <trkpt lat="48.08646" lon="7.06352">
        <ele>1055.2</ele>
        <time>2023-08-12T12:34:18Z</time>
      </trkpt>
      <trkpt lat="48.08648" lon="7.06351">
        <ele>1055.2</ele>
        <time>2023-08-12T12:34:19Z</time>
      </trkpt>
      <trkpt lat="48.08649" lon="7.06349">
        <ele>1055.4</ele>
        <time>2023-08-12T12:34:20Z</time>
      </trkpt>
      <trkpt lat="48.08651" lon="7.06347">
        <ele>1055.5</ele>
        <time>2023-08-12T12:34:21Z</time>
      </trkpt>
      <trkpt lat="48.08652" lon="7.06346">
        <ele>1055.6</ele>
        <time>2023-08-12T12:34:22Z</time>
      </trkpt>
      <trkpt lat="48.08654" lon="7.06344">
        <ele>1055.7</ele>
        <time>2023-08-12T12:34:23Z</time>
      </trkpt>
      <trkpt lat="48.08655" lon="7.06343">
        <ele>1055.8</ele>
        <time>2023-08-12T12:34:24Z</time>
      </trkpt>
      <trkpt lat="48.08657" lon="7.06341">
        <ele>1056</ele>
        <time>2023-08-12T12:34:25Z</time>
      </trkpt>
      <trkpt lat="48.08659" lon="7.06339">
        <ele>1056.1</ele>
        <time>2023-08-12T12:34:26Z</time>
      </trkpt>
      <trkpt lat="48.0866" lon="7.06338">
        <ele>1056.2</ele>
        <time>2023-08-12T12:34:27Z</time>
      </trkpt>
      <trkpt lat="48.08661" lon="7.06337">
        <ele>1056.3</ele>
        <time>2023-08-12T12:34:28Z</time>
      </trkpt>
      <trkpt lat="48.08666" lon="7.0633">
        <ele>1056.8</ele>
        <time>2023-08-12T12:34:31Z</time>
      </trkpt>
      <trkpt lat="48.08672" lon="7.06323">
        <ele>1057.4</ele>
        <time>2023-08-12T12:34:35Z</time>
      </trkpt>
      <trkpt lat="48.08674" lon="7.06321">
        <ele>1058.1</ele>
        <time>2023-08-12T12:34:36Z</time>
      </trkpt>
      <trkpt lat="48.08679" lon="7.06318">
        <ele>1058.2</ele>
        <time>2023-08-12T12:34:39Z</time>
      </trkpt>
      <trkpt lat="48.08691" lon="7.06318">
        <ele>1058.3</ele>
        <time>2023-08-12T12:34:45Z</time>
      </trkpt>
      <trkpt lat="48.08691" lon="7.06319">
        <ele>1058.3</ele>
        <time>2023-08-12T12:34:46Z</time>
      </trkpt>
      <trkpt lat="48.08693" lon="7.06323">
        <ele>1058.3</ele>
        <time>2023-08-12T12:34:48Z</time>
      </trkpt>
      <trkpt lat="48.08693" lon="7.06325">
        <ele>1058.3</ele>
        <time>2023-08-12T12:34:49Z</time>
      </trkpt>
      <trkpt lat="48.08693" lon="7.06326">
        <ele>1058.3</ele>
        <time>2023-08-12T12:34:50Z</time>
      </trkpt>
      <trkpt lat="48.08694" lon="7.06328">
        <ele>1058.3</ele>
        <time>2023-08-12T12:34:51Z</time>
      </trkpt>
      <trkpt lat="48.08694" lon="7.0633">
        <ele>1058.3</ele>
        <time>2023-08-12T12:34:52Z</time>
      </trkpt>
      <trkpt lat="48.08694" lon="7.06332">
        <ele>1058.4</ele>
        <time>2023-08-12T12:34:53Z</time>
      </trkpt>
      <trkpt lat="48.08695" lon="7.06333">
        <ele>1058.3</ele>
        <time>2023-08-12T12:34:54Z</time>
      </trkpt>
      <trkpt lat="48.08695" lon="7.06333">
        <ele>1058.3</ele>
        <time>2023-08-12T12:34:57Z</time>
      </trkpt>
      <trkpt lat="48.08695" lon="7.06333">
        <ele>1058.3</ele>
        <time>2023-08-12T12:34:59Z</time>
      </trkpt>
      <trkpt lat="48.08695" lon="7.06333">
        <ele>1058.3</ele>
        <time>2023-08-12T12:35:05Z</time>
      </trkpt>
      <trkpt lat="48.08695" lon="7.06333">
        <ele>1058.3</ele>
        <time>2023-08-12T12:35:09Z</time>
      </trkpt>
      <trkpt lat="48.08695" lon="7.06333">
        <ele>1058.3</ele>
        <time>2023-08-12T12:35:15Z</time>
      </trkpt>
      <trkpt lat="48.08695" lon="7.06333">
        <ele>1058.3</ele>
        <time>2023-08-12T12:35:21Z</time>
      </trkpt>
      <trkpt lat="48.08695" lon="7.06333">
        <ele>1058.3</ele>
        <time>2023-08-12T12:35:29Z</time>
      </trkpt>
      <trkpt lat="48.08695" lon="7.06333">
        <ele>1058.3</ele>
        <time>2023-08-12T12:35:33Z</time>
      </trkpt>
      <trkpt lat="48.08695" lon="7.06333">
        <ele>1058.3</ele>
        <time>2023-08-12T12:35:37Z</time>
      </trkpt>
      <trkpt lat="48.08695" lon="7.06333">
        <ele>1058.3</ele>
        <time>2023-08-12T12:35:42Z</time>
      </trkpt>
      <trkpt lat="48.08695" lon="7.06333">
        <ele>1058.3</ele>
        <time>2023-08-12T12:35:46Z</time>
      </trkpt>
      <trkpt lat="48.08695" lon="7.06333">
        <ele>1058.3</ele>
        <time>2023-08-12T12:35:50Z</time>
      </trkpt>
      <trkpt lat="48.08695" lon="7.06333">
        <ele>1058.3</ele>
        <time>2023-08-12T12:35:53Z</time>
      </trkpt>
      <trkpt lat="48.08696" lon="7.06335">
        <ele>1058.3</ele>
        <time>2023-08-12T12:35:54Z</time>
      </trkpt>
      <trkpt lat="48.08696" lon="7.06337">
        <ele>1058.3</ele>
        <time>2023-08-12T12:35:55Z</time>
      </trkpt>
      <trkpt lat="48.08698" lon="7.06338">
        <ele>1058.3</ele>
        <time>2023-08-12T12:35:56Z</time>
      </trkpt>
      <trkpt lat="48.087" lon="7.0634">
        <ele>1058.3</ele>
        <time>2023-08-12T12:35:57Z</time>
      </trkpt>
      <trkpt lat="48.08703" lon="7.06348">
        <ele>1058.3</ele>
        <time>2023-08-12T12:36:00Z</time>
      </trkpt>
      <trkpt lat="48.08705" lon="7.06352">
        <ele>1058.3</ele>
        <time>2023-08-12T12:36:01Z</time>
      </trkpt>
      <trkpt lat="48.08709" lon="7.06362">
        <ele>1058.2</ele>
        <time>2023-08-12T12:36:04Z</time>
      </trkpt>
      <trkpt lat="48.0871" lon="7.06366">
        <ele>1058.2</ele>
        <time>2023-08-12T12:36:05Z</time>
      </trkpt>
      <trkpt lat="48.08712" lon="7.06369">
        <ele>1058.2</ele>
        <time>2023-08-12T12:36:06Z</time>
      </trkpt>
      <trkpt lat="48.08712" lon="7.06371">
        <ele>1058.2</ele>
        <time>2023-08-12T12:36:07Z</time>
      </trkpt>
      <trkpt lat="48.08714" lon="7.06386">
        <ele>1058.2</ele>
        <time>2023-08-12T12:36:11Z</time>
      </trkpt>
      <trkpt lat="48.08715" lon="7.0639">
        <ele>1058.2</ele>
        <time>2023-08-12T12:36:12Z</time>
      </trkpt>
      <trkpt lat="48.08714" lon="7.06401">
        <ele>1058.2</ele>
        <time>2023-08-12T12:36:15Z</time>
      </trkpt>
      <trkpt lat="48.08714" lon="7.06413">
        <ele>1058.2</ele>
        <time>2023-08-12T12:36:18Z</time>
      </trkpt>
      <trkpt lat="48.08714" lon="7.06417">
        <ele>1058.2</ele>
        <time>2023-08-12T12:36:19Z</time>
      </trkpt>
      <trkpt lat="48.08715" lon="7.06431">
        <ele>1058.2</ele>
        <time>2023-08-12T12:36:22Z</time>
      </trkpt>
      <trkpt lat="48.08717" lon="7.06442">
        <ele>1058.2</ele>
        <time>2023-08-12T12:36:25Z</time>
      </trkpt>
      <trkpt lat="48.08718" lon="7.0645">
        <ele>1058.2</ele>
        <time>2023-08-12T12:36:27Z</time>
      </trkpt>
      <trkpt lat="48.08719" lon="7.06458">
        <ele>1058.2</ele>
        <time>2023-08-12T12:36:29Z</time>
      </trkpt>
      <trkpt lat="48.08724" lon="7.06474">
        <ele>1058.7</ele>
        <time>2023-08-12T12:36:33Z</time>
      </trkpt>
      <trkpt lat="48.08725" lon="7.06478">
        <ele>1058.9</ele>
        <time>2023-08-12T12:36:34Z</time>
      </trkpt>
      <trkpt lat="48.08725" lon="7.0648">
        <ele>1059</ele>
        <time>2023-08-12T12:36:35Z</time>
      </trkpt>
      <trkpt lat="48.08726" lon="7.06483">
        <ele>1059.1</ele>
        <time>2023-08-12T12:36:36Z</time>
      </trkpt>
      <trkpt lat="48.08727" lon="7.06485">
        <ele>1059.2</ele>
        <time>2023-08-12T12:36:37Z</time>
      </trkpt>
      <trkpt lat="48.08727" lon="7.06486">
        <ele>1059.3</ele>
        <time>2023-08-12T12:36:38Z</time>
      </trkpt>
      <trkpt lat="48.08728" lon="7.06488">
        <ele>1059.4</ele>
        <time>2023-08-12T12:36:39Z</time>
      </trkpt>
      <trkpt lat="48.08729" lon="7.06493">
        <ele>1059.7</ele>
        <time>2023-08-12T12:36:41Z</time>
      </trkpt>
      <trkpt lat="48.0873" lon="7.06495">
        <ele>1059.9</ele>
        <time>2023-08-12T12:36:42Z</time>
      </trkpt>
      <trkpt lat="48.08732" lon="7.06498">
        <ele>1060.1</ele>
        <time>2023-08-12T12:36:43Z</time>
      </trkpt>
      <trkpt lat="48.08733" lon="7.06499">
        <ele>1060.2</ele>
        <time>2023-08-12T12:36:44Z</time>
      </trkpt>
      <trkpt lat="48.08734" lon="7.06501">
        <ele>1060.4</ele>
        <time>2023-08-12T12:36:45Z</time>
      </trkpt>
      <trkpt lat="48.08735" lon="7.06504">
        <ele>1060.6</ele>
        <time>2023-08-12T12:36:46Z</time>
      </trkpt>
      <trkpt lat="48.08736" lon="7.06506">
        <ele>1060.8</ele>
        <time>2023-08-12T12:36:47Z</time>
      </trkpt>
      <trkpt lat="48.08739" lon="7.06518">
        <ele>1061.6</ele>
        <time>2023-08-12T12:36:52Z</time>
      </trkpt>
      <trkpt lat="48.0874" lon="7.0652">
        <ele>1061.7</ele>
        <time>2023-08-12T12:36:53Z</time>
      </trkpt>
      <trkpt lat="48.08745" lon="7.06535">
        <ele>1062.6</ele>
        <time>2023-08-12T12:36:59Z</time>
      </trkpt>
      <trkpt lat="48.08746" lon="7.06536">
        <ele>1062.7</ele>
        <time>2023-08-12T12:37:00Z</time>
      </trkpt>
      <trkpt lat="48.08746" lon="7.06537">
        <ele>1062.7</ele>
        <time>2023-08-12T12:37:01Z</time>
      </trkpt>
      <trkpt lat="48.08746" lon="7.06538">
        <ele>1062.8</ele>
        <time>2023-08-12T12:37:02Z</time>
      </trkpt>
      <trkpt lat="48.08748" lon="7.06541">
        <ele>1062.9</ele>
        <time>2023-08-12T12:37:03Z</time>
      </trkpt>
      <trkpt lat="48.08753" lon="7.0655">
        <ele>1063.4</ele>
        <time>2023-08-12T12:37:06Z</time>
      </trkpt>
      <trkpt lat="48.08754" lon="7.06551">
        <ele>1063.5</ele>
        <time>2023-08-12T12:37:07Z</time>
      </trkpt>
      <trkpt lat="48.08756" lon="7.06553">
        <ele>1063.6</ele>
        <time>2023-08-12T12:37:08Z</time>
      </trkpt>
      <trkpt lat="48.08759" lon="7.06557">
        <ele>1063.9</ele>
        <time>2023-08-12T12:37:10Z</time>
      </trkpt>
      <trkpt lat="48.0876" lon="7.0656">
        <ele>1064</ele>
        <time>2023-08-12T12:37:11Z</time>
      </trkpt>
      <trkpt lat="48.08761" lon="7.06561">
        <ele>1064.1</ele>
        <time>2023-08-12T12:37:12Z</time>
      </trkpt>
      <trkpt lat="48.08761" lon="7.06562">
        <ele>1064.2</ele>
        <time>2023-08-12T12:37:13Z</time>
      </trkpt>
      <trkpt lat="48.08762" lon="7.06564">
        <ele>1064.3</ele>
        <time>2023-08-12T12:37:14Z</time>
      </trkpt>
      <trkpt lat="48.08763" lon="7.06566">
        <ele>1064.5</ele>
        <time>2023-08-12T12:37:15Z</time>
      </trkpt>
      <trkpt lat="48.08764" lon="7.06568">
        <ele>1064.6</ele>
        <time>2023-08-12T12:37:16Z</time>
      </trkpt>
      <trkpt lat="48.08765" lon="7.06569">
        <ele>1064.7</ele>
        <time>2023-08-12T12:37:17Z</time>
      </trkpt>
      <trkpt lat="48.08766" lon="7.0657">
        <ele>1064.8</ele>
        <time>2023-08-12T12:37:18Z</time>
      </trkpt>
      <trkpt lat="48.08767" lon="7.06571">
        <ele>1064.9</ele>
        <time>2023-08-12T12:37:19Z</time>
      </trkpt>
      <trkpt lat="48.08767" lon="7.06572">
        <ele>1065</ele>
        <time>2023-08-12T12:37:20Z</time>
      </trkpt>
      <trkpt lat="48.08768" lon="7.06573">
        <ele>1065.1</ele>
        <time>2023-08-12T12:37:21Z</time>
      </trkpt>
      <trkpt lat="48.08769" lon="7.06574">
        <ele>1065.1</ele>
        <time>2023-08-12T12:37:22Z</time>
      </trkpt>
      <trkpt lat="48.0877" lon="7.06575">
        <ele>1065.2</ele>
        <time>2023-08-12T12:37:23Z</time>
      </trkpt>
      <trkpt lat="48.08771" lon="7.06576">
        <ele>1065.4</ele>
        <time>2023-08-12T12:37:24Z</time>
      </trkpt>
      <trkpt lat="48.08772" lon="7.06577">
        <ele>1065.5</ele>
        <time>2023-08-12T12:37:25Z</time>
      </trkpt>
      <trkpt lat="48.08774" lon="7.0658">
        <ele>1065.7</ele>
        <time>2023-08-12T12:37:26Z</time>
      </trkpt>
      <trkpt lat="48.08776" lon="7.06581">
        <ele>1065.9</ele>
        <time>2023-08-12T12:37:27Z</time>
      </trkpt>
      <trkpt lat="48.08778" lon="7.06583">
        <ele>1066.1</ele>
        <time>2023-08-12T12:37:28Z</time>
      </trkpt>
      <trkpt lat="48.08779" lon="7.06584">
        <ele>1066.2</ele>
        <time>2023-08-12T12:37:29Z</time>
      </trkpt>
      <trkpt lat="48.0878" lon="7.06586">
        <ele>1066.4</ele>
        <time>2023-08-12T12:37:30Z</time>
      </trkpt>
      <trkpt lat="48.0878" lon="7.06587">
        <ele>1066.4</ele>
        <time>2023-08-12T12:37:31Z</time>
      </trkpt>
      <trkpt lat="48.0878" lon="7.06587">
        <ele>1066.5</ele>
        <time>2023-08-12T12:37:32Z</time>
      </trkpt>
      <trkpt lat="48.08781" lon="7.06587">
        <ele>1066.5</ele>
        <time>2023-08-12T12:37:33Z</time>
      </trkpt>
      <trkpt lat="48.08782" lon="7.06587">
        <ele>1066.6</ele>
        <time>2023-08-12T12:37:34Z</time>
      </trkpt>
      <trkpt lat="48.08783" lon="7.06588">
        <ele>1066.7</ele>
        <time>2023-08-12T12:37:35Z</time>
      </trkpt>
      <trkpt lat="48.08785" lon="7.06589">
        <ele>1066.9</ele>
        <time>2023-08-12T12:37:36Z</time>
      </trkpt>
      <trkpt lat="48.08786" lon="7.0659">
        <ele>1067</ele>
        <time>2023-08-12T12:37:37Z</time>
      </trkpt>
      <trkpt lat="48.08788" lon="7.0659">
        <ele>1067.1</ele>
        <time>2023-08-12T12:37:38Z</time>
      </trkpt>
      <trkpt lat="48.08789" lon="7.06592">
        <ele>1067.3</ele>
        <time>2023-08-12T12:37:39Z</time>
      </trkpt>
      <trkpt lat="48.08791" lon="7.06593">
        <ele>1067.5</ele>
        <time>2023-08-12T12:37:40Z</time>
      </trkpt>
      <trkpt lat="48.08792" lon="7.06594">
        <ele>1067.6</ele>
        <time>2023-08-12T12:37:41Z</time>
      </trkpt>
      <trkpt lat="48.08793" lon="7.06595">
        <ele>1067.7</ele>
        <time>2023-08-12T12:37:42Z</time>
      </trkpt>
      <trkpt lat="48.08795" lon="7.06596">
        <ele>1067.8</ele>
        <time>2023-08-12T12:37:43Z</time>
      </trkpt>
      <trkpt lat="48.08796" lon="7.06598">
        <ele>1067.9</ele>
        <time>2023-08-12T12:37:44Z</time>
      </trkpt>
      <trkpt lat="48.08798" lon="7.06599">
        <ele>1068</ele>
        <time>2023-08-12T12:37:45Z</time>
      </trkpt>
      <trkpt lat="48.088" lon="7.06601">
        <ele>1068.1</ele>
        <time>2023-08-12T12:37:46Z</time>
      </trkpt>
      <trkpt lat="48.08801" lon="7.06603">
        <ele>1068.3</ele>
        <time>2023-08-12T12:37:47Z</time>
      </trkpt>
      <trkpt lat="48.08803" lon="7.06604">
        <ele>1068.4</ele>
        <time>2023-08-12T12:37:48Z</time>
      </trkpt>
      <trkpt lat="48.08804" lon="7.06605">
        <ele>1068.5</ele>
        <time>2023-08-12T12:37:49Z</time>
      </trkpt>
      <trkpt lat="48.08805" lon="7.06606">
        <ele>1068.6</ele>
        <time>2023-08-12T12:37:50Z</time>
      </trkpt>
      <trkpt lat="48.08806" lon="7.06607">
        <ele>1068.7</ele>
        <time>2023-08-12T12:37:51Z</time>
      </trkpt>
      <trkpt lat="48.08807" lon="7.06608">
        <ele>1068.7</ele>
        <time>2023-08-12T12:37:52Z</time>
      </trkpt>
      <trkpt lat="48.08808" lon="7.06609">
        <ele>1068.8</ele>
        <time>2023-08-12T12:37:53Z</time>
      </trkpt>
      <trkpt lat="48.08809" lon="7.0661">
        <ele>1068.9</ele>
        <time>2023-08-12T12:37:54Z</time>
      </trkpt>
      <trkpt lat="48.0881" lon="7.06611">
        <ele>1069.1</ele>
        <time>2023-08-12T12:37:55Z</time>
      </trkpt>
      <trkpt lat="48.08811" lon="7.06613">
        <ele>1069.2</ele>
        <time>2023-08-12T12:37:56Z</time>
      </trkpt>
      <trkpt lat="48.08812" lon="7.06614">
        <ele>1069.3</ele>
        <time>2023-08-12T12:37:57Z</time>
      </trkpt>
      <trkpt lat="48.08813" lon="7.06614">
        <ele>1069.4</ele>
        <time>2023-08-12T12:37:58Z</time>
      </trkpt>
      <trkpt lat="48.08813" lon="7.06615">
        <ele>1069.5</ele>
        <time>2023-08-12T12:37:59Z</time>
      </trkpt>
      <trkpt lat="48.08814" lon="7.06615">
        <ele>1069.6</ele>
        <time>2023-08-12T12:38:00Z</time>
      </trkpt>
      <trkpt lat="48.08816" lon="7.06616">
        <ele>1069.7</ele>
        <time>2023-08-12T12:38:01Z</time>
      </trkpt>
      <trkpt lat="48.08817" lon="7.06617">
        <ele>1069.9</ele>
        <time>2023-08-12T12:38:02Z</time>
      </trkpt>
      <trkpt lat="48.08819" lon="7.06617">
        <ele>1070.1</ele>
        <time>2023-08-12T12:38:03Z</time>
      </trkpt>
      <trkpt lat="48.0882" lon="7.06618">
        <ele>1070.3</ele>
        <time>2023-08-12T12:38:04Z</time>
      </trkpt>
      <trkpt lat="48.08822" lon="7.06618">
        <ele>1070.5</ele>
        <time>2023-08-12T12:38:05Z</time>
      </trkpt>
      <trkpt lat="48.08823" lon="7.0662">
        <ele>1070.6</ele>
        <time>2023-08-12T12:38:06Z</time>
      </trkpt>
      <trkpt lat="48.08825" lon="7.06621">
        <ele>1070.8</ele>
        <time>2023-08-12T12:38:07Z</time>
      </trkpt>
      <trkpt lat="48.08826" lon="7.06621">
        <ele>1070.9</ele>
        <time>2023-08-12T12:38:08Z</time>
      </trkpt>
      <trkpt lat="48.08828" lon="7.06622">
        <ele>1071.2</ele>
        <time>2023-08-12T12:38:09Z</time>
      </trkpt>
      <trkpt lat="48.08829" lon="7.06622">
        <ele>1071.3</ele>
        <time>2023-08-12T12:38:10Z</time>
      </trkpt>
      <trkpt lat="48.08831" lon="7.06622">
        <ele>1071.6</ele>
        <time>2023-08-12T12:38:11Z</time>
      </trkpt>
      <trkpt lat="48.08833" lon="7.06622">
        <ele>1071.8</ele>
        <time>2023-08-12T12:38:12Z</time>
      </trkpt>
      <trkpt lat="48.08834" lon="7.06622">
        <ele>1071.9</ele>
        <time>2023-08-12T12:38:13Z</time>
      </trkpt>
      <trkpt lat="48.08836" lon="7.06623">
        <ele>1072.1</ele>
        <time>2023-08-12T12:38:14Z</time>
      </trkpt>
      <trkpt lat="48.08837" lon="7.06624">
        <ele>1072.3</ele>
        <time>2023-08-12T12:38:15Z</time>
      </trkpt>
      <trkpt lat="48.08839" lon="7.06625">
        <ele>1072.5</ele>
        <time>2023-08-12T12:38:16Z</time>
      </trkpt>
      <trkpt lat="48.08839" lon="7.06625">
        <ele>1072.6</ele>
        <time>2023-08-12T12:38:17Z</time>
      </trkpt>
      <trkpt lat="48.08839" lon="7.06625">
        <ele>1072.6</ele>
        <time>2023-08-12T12:38:18Z</time>
      </trkpt>
      <trkpt lat="48.08839" lon="7.06625">
        <ele>1072.6</ele>
        <time>2023-08-12T12:38:19Z</time>
      </trkpt>
      <trkpt lat="48.0884" lon="7.06626">
        <ele>1072.7</ele>
        <time>2023-08-12T12:38:20Z</time>
      </trkpt>
      <trkpt lat="48.0884" lon="7.06626">
        <ele>1072.7</ele>
        <time>2023-08-12T12:38:21Z</time>
      </trkpt>
      <trkpt lat="48.08842" lon="7.06628">
        <ele>1072.9</ele>
        <time>2023-08-12T12:38:22Z</time>
      </trkpt>
      <trkpt lat="48.08844" lon="7.0663">
        <ele>1073.1</ele>
        <time>2023-08-12T12:38:23Z</time>
      </trkpt>
      <trkpt lat="48.08845" lon="7.06631">
        <ele>1073.3</ele>
        <time>2023-08-12T12:38:24Z</time>
      </trkpt>
      <trkpt lat="48.08847" lon="7.06631">
        <ele>1073.6</ele>
        <time>2023-08-12T12:38:25Z</time>
      </trkpt>
      <trkpt lat="48.08849" lon="7.06632">
        <ele>1073.8</ele>
        <time>2023-08-12T12:38:26Z</time>
      </trkpt>
      <trkpt lat="48.0885" lon="7.06631">
        <ele>1074</ele>
        <time>2023-08-12T12:38:27Z</time>
      </trkpt>
      <trkpt lat="48.08852" lon="7.06633">
        <ele>1074.2</ele>
        <time>2023-08-12T12:38:28Z</time>
      </trkpt>
      <trkpt lat="48.08853" lon="7.06634">
        <ele>1074.5</ele>
        <time>2023-08-12T12:38:29Z</time>
      </trkpt>
      <trkpt lat="48.08855" lon="7.06636">
        <ele>1074.7</ele>
        <time>2023-08-12T12:38:30Z</time>
      </trkpt>
      <trkpt lat="48.08857" lon="7.06638">
        <ele>1075</ele>
        <time>2023-08-12T12:38:31Z</time>
      </trkpt>
      <trkpt lat="48.08858" lon="7.06639">
        <ele>1075.2</ele>
        <time>2023-08-12T12:38:32Z</time>
      </trkpt>
      <trkpt lat="48.08859" lon="7.06641">
        <ele>1075.4</ele>
        <time>2023-08-12T12:38:33Z</time>
      </trkpt>
      <trkpt lat="48.0886" lon="7.06642">
        <ele>1075.5</ele>
        <time>2023-08-12T12:38:34Z</time>
      </trkpt>
      <trkpt lat="48.0886" lon="7.06641">
        <ele>1075.6</ele>
        <time>2023-08-12T12:38:35Z</time>
      </trkpt>
      <trkpt lat="48.08862" lon="7.06641">
        <ele>1075.8</ele>
        <time>2023-08-12T12:38:36Z</time>
      </trkpt>
      <trkpt lat="48.08862" lon="7.06641">
        <ele>1075.9</ele>
        <time>2023-08-12T12:38:37Z</time>
      </trkpt>
      <trkpt lat="48.08864" lon="7.06641">
        <ele>1076.1</ele>
        <time>2023-08-12T12:38:38Z</time>
      </trkpt>
      <trkpt lat="48.08865" lon="7.06643">
        <ele>1076.3</ele>
        <time>2023-08-12T12:38:39Z</time>
      </trkpt>
      <trkpt lat="48.08866" lon="7.06644">
        <ele>1076.4</ele>
        <time>2023-08-12T12:38:40Z</time>
      </trkpt>
      <trkpt lat="48.08867" lon="7.06644">
        <ele>1076.5</ele>
        <time>2023-08-12T12:38:41Z</time>
      </trkpt>
      <trkpt lat="48.08868" lon="7.06645">
        <ele>1076.7</ele>
        <time>2023-08-12T12:38:42Z</time>
      </trkpt>
      <trkpt lat="48.08868" lon="7.06645">
        <ele>1076.8</ele>
        <time>2023-08-12T12:38:43Z</time>
      </trkpt>
      <trkpt lat="48.08869" lon="7.06643">
        <ele>1077</ele>
        <time>2023-08-12T12:38:44Z</time>
      </trkpt>
      <trkpt lat="48.0887" lon="7.06642">
        <ele>1077.1</ele>
        <time>2023-08-12T12:38:45Z</time>
      </trkpt>
      <trkpt lat="48.08871" lon="7.06642">
        <ele>1077.2</ele>
        <time>2023-08-12T12:38:46Z</time>
      </trkpt>
      <trkpt lat="48.08872" lon="7.06643">
        <ele>1077.4</ele>
        <time>2023-08-12T12:38:47Z</time>
      </trkpt>
      <trkpt lat="48.08873" lon="7.06643">
        <ele>1077.5</ele>
        <time>2023-08-12T12:38:48Z</time>
      </trkpt>
      <trkpt lat="48.08873" lon="7.06643">
        <ele>1077.6</ele>
        <time>2023-08-12T12:38:49Z</time>
      </trkpt>
      <trkpt lat="48.08874" lon="7.06644">
        <ele>1077.7</ele>
        <time>2023-08-12T12:38:50Z</time>
      </trkpt>
      <trkpt lat="48.08875" lon="7.06644">
        <ele>1077.8</ele>
        <time>2023-08-12T12:38:51Z</time>
      </trkpt>
      <trkpt lat="48.08876" lon="7.06643">
        <ele>1077.9</ele>
        <time>2023-08-12T12:38:52Z</time>
      </trkpt>
      <trkpt lat="48.08878" lon="7.06643">
        <ele>1078.1</ele>
        <time>2023-08-12T12:38:53Z</time>
      </trkpt>
      <trkpt lat="48.08879" lon="7.06643">
        <ele>1078.3</ele>
        <time>2023-08-12T12:38:54Z</time>
      </trkpt>
      <trkpt lat="48.08881" lon="7.06643">
        <ele>1078.5</ele>
        <time>2023-08-12T12:38:55Z</time>
      </trkpt>
      <trkpt lat="48.08881" lon="7.06643">
        <ele>1078.6</ele>
        <time>2023-08-12T12:38:56Z</time>
      </trkpt>
      <trkpt lat="48.08882" lon="7.06643">
        <ele>1078.7</ele>
        <time>2023-08-12T12:38:57Z</time>
      </trkpt>
      <trkpt lat="48.08883" lon="7.06642">
        <ele>1078.8</ele>
        <time>2023-08-12T12:38:58Z</time>
      </trkpt>
      <trkpt lat="48.08884" lon="7.06641">
        <ele>1079</ele>
        <time>2023-08-12T12:38:59Z</time>
      </trkpt>
      <trkpt lat="48.08885" lon="7.06641">
        <ele>1079.1</ele>
        <time>2023-08-12T12:39:00Z</time>
      </trkpt>
      <trkpt lat="48.08886" lon="7.06641">
        <ele>1079.3</ele>
        <time>2023-08-12T12:39:01Z</time>
      </trkpt>
      <trkpt lat="48.08887" lon="7.06641">
        <ele>1079.4</ele>
        <time>2023-08-12T12:39:02Z</time>
      </trkpt>
      <trkpt lat="48.08888" lon="7.06641">
        <ele>1079.5</ele>
        <time>2023-08-12T12:39:03Z</time>
      </trkpt>
      <trkpt lat="48.08889" lon="7.0664">
        <ele>1079.6</ele>
        <time>2023-08-12T12:39:04Z</time>
      </trkpt>
      <trkpt lat="48.0889" lon="7.0664">
        <ele>1079.7</ele>
        <time>2023-08-12T12:39:05Z</time>
      </trkpt>
      <trkpt lat="48.08891" lon="7.06641">
        <ele>1079.9</ele>
        <time>2023-08-12T12:39:06Z</time>
      </trkpt>
      <trkpt lat="48.08893" lon="7.06643">
        <ele>1080.2</ele>
        <time>2023-08-12T12:39:07Z</time>
      </trkpt>
      <trkpt lat="48.08894" lon="7.06644">
        <ele>1080.4</ele>
        <time>2023-08-12T12:39:08Z</time>
      </trkpt>
      <trkpt lat="48.08895" lon="7.06645">
        <ele>1080.5</ele>
        <time>2023-08-12T12:39:09Z</time>
      </trkpt>
      <trkpt lat="48.08896" lon="7.06646">
        <ele>1080.7</ele>
        <time>2023-08-12T12:39:10Z</time>
      </trkpt>
      <trkpt lat="48.08897" lon="7.06646">
        <ele>1080.8</ele>
        <time>2023-08-12T12:39:11Z</time>
      </trkpt>
      <trkpt lat="48.08898" lon="7.06647">
        <ele>1080.9</ele>
        <time>2023-08-12T12:39:12Z</time>
      </trkpt>
      <trkpt lat="48.08898" lon="7.06646">
        <ele>1080.9</ele>
        <time>2023-08-12T12:39:13Z</time>
      </trkpt>
      <trkpt lat="48.08898" lon="7.06647">
        <ele>1081</ele>
        <time>2023-08-12T12:39:14Z</time>
      </trkpt>
      <trkpt lat="48.089" lon="7.06647">
        <ele>1081.2</ele>
        <time>2023-08-12T12:39:15Z</time>
      </trkpt>
      <trkpt lat="48.089" lon="7.06646">
        <ele>1081.3</ele>
        <time>2023-08-12T12:39:16Z</time>
      </trkpt>
      <trkpt lat="48.089" lon="7.06646">
        <ele>1081.3</ele>
        <time>2023-08-12T12:39:17Z</time>
      </trkpt>
      <trkpt lat="48.089" lon="7.06646">
        <ele>1081.3</ele>
        <time>2023-08-12T12:39:18Z</time>
      </trkpt>
      <trkpt lat="48.089" lon="7.06646">
        <ele>1081.3</ele>
        <time>2023-08-12T12:39:19Z</time>
      </trkpt>
      <trkpt lat="48.089" lon="7.06646">
        <ele>1081.3</ele>
        <time>2023-08-12T12:39:20Z</time>
      </trkpt>
      <trkpt lat="48.089" lon="7.06646">
        <ele>1081.3</ele>
        <time>2023-08-12T12:39:22Z</time>
      </trkpt>
      <trkpt lat="48.089" lon="7.06646">
        <ele>1081.3</ele>
        <time>2023-08-12T12:39:23Z</time>
      </trkpt>
      <trkpt lat="48.089" lon="7.06646">
        <ele>1081.3</ele>
        <time>2023-08-12T12:39:27Z</time>
      </trkpt>
      <trkpt lat="48.089" lon="7.06646">
        <ele>1081.3</ele>
        <time>2023-08-12T12:39:28Z</time>
      </trkpt>
      <trkpt lat="48.08902" lon="7.06645">
        <ele>1081.5</ele>
        <time>2023-08-12T12:39:29Z</time>
      </trkpt>
      <trkpt lat="48.08904" lon="7.06646">
        <ele>1081.8</ele>
        <time>2023-08-12T12:39:30Z</time>
      </trkpt>
      <trkpt lat="48.08905" lon="7.06646">
        <ele>1082</ele>
        <time>2023-08-12T12:39:31Z</time>
      </trkpt>
      <trkpt lat="48.08907" lon="7.06646">
        <ele>1082.2</ele>
        <time>2023-08-12T12:39:32Z</time>
      </trkpt>
      <trkpt lat="48.08908" lon="7.06645">
        <ele>1082.5</ele>
        <time>2023-08-12T12:39:33Z</time>
      </trkpt>
      <trkpt lat="48.0891" lon="7.06646">
        <ele>1082.6</ele>
        <time>2023-08-12T12:39:34Z</time>
      </trkpt>
      <trkpt lat="48.08911" lon="7.06646">
        <ele>1082.8</ele>
        <time>2023-08-12T12:39:35Z</time>
      </trkpt>
      <trkpt lat="48.08912" lon="7.06647">
        <ele>1083</ele>
        <time>2023-08-12T12:39:36Z</time>
      </trkpt>
      <trkpt lat="48.08914" lon="7.06647">
        <ele>1083.2</ele>
        <time>2023-08-12T12:39:37Z</time>
      </trkpt>
      <trkpt lat="48.08915" lon="7.06647">
        <ele>1083.5</ele>
        <time>2023-08-12T12:39:38Z</time>
      </trkpt>
      <trkpt lat="48.08917" lon="7.06648">
        <ele>1083.7</ele>
        <time>2023-08-12T12:39:39Z</time>
      </trkpt>
      <trkpt lat="48.08918" lon="7.06648">
        <ele>1083.8</ele>
        <time>2023-08-12T12:39:40Z</time>
      </trkpt>
      <trkpt lat="48.08919" lon="7.06648">
        <ele>1084</ele>
        <time>2023-08-12T12:39:41Z</time>
      </trkpt>
      <trkpt lat="48.0892" lon="7.0665">
        <ele>1084.1</ele>
        <time>2023-08-12T12:39:42Z</time>
      </trkpt>
      <trkpt lat="48.08921" lon="7.06651">
        <ele>1084.4</ele>
        <time>2023-08-12T12:39:43Z</time>
      </trkpt>
      <trkpt lat="48.08922" lon="7.06653">
        <ele>1084.6</ele>
        <time>2023-08-12T12:39:44Z</time>
      </trkpt>
      <trkpt lat="48.08924" lon="7.06653">
        <ele>1084.7</ele>
        <time>2023-08-12T12:39:45Z</time>
      </trkpt>
      <trkpt lat="48.08925" lon="7.06654">
        <ele>1084.9</ele>
        <time>2023-08-12T12:39:46Z</time>
      </trkpt>
      <trkpt lat="48.08926" lon="7.06655">
        <ele>1085.1</ele>
        <time>2023-08-12T12:39:47Z</time>
      </trkpt>
      <trkpt lat="48.08927" lon="7.06655">
        <ele>1085.2</ele>
        <time>2023-08-12T12:39:48Z</time>
      </trkpt>
      <trkpt lat="48.08928" lon="7.06656">
        <ele>1085.4</ele>
        <time>2023-08-12T12:39:49Z</time>
      </trkpt>
      <trkpt lat="48.08929" lon="7.06656">
        <ele>1085.5</ele>
        <time>2023-08-12T12:39:50Z</time>
      </trkpt>
      <trkpt lat="48.0893" lon="7.06656">
        <ele>1085.6</ele>
        <time>2023-08-12T12:39:51Z</time>
      </trkpt>
      <trkpt lat="48.08931" lon="7.06656">
        <ele>1085.7</ele>
        <time>2023-08-12T12:39:52Z</time>
      </trkpt>
      <trkpt lat="48.08933" lon="7.06656">
        <ele>1085.9</ele>
        <time>2023-08-12T12:39:53Z</time>
      </trkpt>
      <trkpt lat="48.08934" lon="7.06656">
        <ele>1086.1</ele>
        <time>2023-08-12T12:39:54Z</time>
      </trkpt>
      <trkpt lat="48.08936" lon="7.06657">
        <ele>1086.3</ele>
        <time>2023-08-12T12:39:55Z</time>
      </trkpt>
      <trkpt lat="48.08936" lon="7.06658">
        <ele>1086.4</ele>
        <time>2023-08-12T12:39:56Z</time>
      </trkpt>
      <trkpt lat="48.08937" lon="7.06658">
        <ele>1086.5</ele>
        <time>2023-08-12T12:39:57Z</time>
      </trkpt>
      <trkpt lat="48.08938" lon="7.06657">
        <ele>1086.6</ele>
        <time>2023-08-12T12:39:58Z</time>
      </trkpt>
      <trkpt lat="48.08939" lon="7.06658">
        <ele>1086.7</ele>
        <time>2023-08-12T12:39:59Z</time>
      </trkpt>
      <trkpt lat="48.0894" lon="7.06658">
        <ele>1086.9</ele>
        <time>2023-08-12T12:40:00Z</time>
      </trkpt>
      <trkpt lat="48.08942" lon="7.06659">
        <ele>1087</ele>
        <time>2023-08-12T12:40:01Z</time>
      </trkpt>
      <trkpt lat="48.08943" lon="7.06658">
        <ele>1087.2</ele>
        <time>2023-08-12T12:40:02Z</time>
      </trkpt>
      <trkpt lat="48.08943" lon="7.06658">
        <ele>1087.3</ele>
        <time>2023-08-12T12:40:03Z</time>
      </trkpt>
      <trkpt lat="48.08944" lon="7.06657">
        <ele>1087.4</ele>
        <time>2023-08-12T12:40:04Z</time>
      </trkpt>
      <trkpt lat="48.08945" lon="7.06657">
        <ele>1087.5</ele>
        <time>2023-08-12T12:40:05Z</time>
      </trkpt>
      <trkpt lat="48.08946" lon="7.06657">
        <ele>1087.7</ele>
        <time>2023-08-12T12:40:06Z</time>
      </trkpt>
      <trkpt lat="48.08948" lon="7.06657">
        <ele>1087.8</ele>
        <time>2023-08-12T12:40:07Z</time>
      </trkpt>
      <trkpt lat="48.08949" lon="7.06656">
        <ele>1088</ele>
        <time>2023-08-12T12:40:08Z</time>
      </trkpt>
      <trkpt lat="48.08951" lon="7.06658">
        <ele>1088.2</ele>
        <time>2023-08-12T12:40:09Z</time>
      </trkpt>
      <trkpt lat="48.08952" lon="7.06659">
        <ele>1088.4</ele>
        <time>2023-08-12T12:40:10Z</time>
      </trkpt>
      <trkpt lat="48.08953" lon="7.06659">
        <ele>1088.6</ele>
        <time>2023-08-12T12:40:11Z</time>
      </trkpt>
      <trkpt lat="48.08955" lon="7.06659">
        <ele>1088.8</ele>
        <time>2023-08-12T12:40:12Z</time>
      </trkpt>
      <trkpt lat="48.08956" lon="7.06658">
        <ele>1089</ele>
        <time>2023-08-12T12:40:13Z</time>
      </trkpt>
      <trkpt lat="48.08957" lon="7.06659">
        <ele>1089.1</ele>
        <time>2023-08-12T12:40:14Z</time>
      </trkpt>
      <trkpt lat="48.08958" lon="7.06658">
        <ele>1089.2</ele>
        <time>2023-08-12T12:40:15Z</time>
      </trkpt>
      <trkpt lat="48.08958" lon="7.06659">
        <ele>1089.2</ele>
        <time>2023-08-12T12:40:16Z</time>
      </trkpt>
      <trkpt lat="48.08959" lon="7.0666">
        <ele>1089.4</ele>
        <time>2023-08-12T12:40:17Z</time>
      </trkpt>
      <trkpt lat="48.0896" lon="7.06662">
        <ele>1089.6</ele>
        <time>2023-08-12T12:40:18Z</time>
      </trkpt>
      <trkpt lat="48.08961" lon="7.06663">
        <ele>1089.8</ele>
        <time>2023-08-12T12:40:19Z</time>
      </trkpt>
      <trkpt lat="48.08962" lon="7.06663">
        <ele>1089.8</ele>
        <time>2023-08-12T12:40:20Z</time>
      </trkpt>
      <trkpt lat="48.08963" lon="7.06662">
        <ele>1090</ele>
        <time>2023-08-12T12:40:21Z</time>
      </trkpt>
      <trkpt lat="48.08964" lon="7.06661">
        <ele>1090.2</ele>
        <time>2023-08-12T12:40:22Z</time>
      </trkpt>
      <trkpt lat="48.08966" lon="7.0666">
        <ele>1090.4</ele>
        <time>2023-08-12T12:40:23Z</time>
      </trkpt>
      <trkpt lat="48.08967" lon="7.06661">
        <ele>1090.6</ele>
        <time>2023-08-12T12:40:24Z</time>
      </trkpt>
      <trkpt lat="48.08968" lon="7.06661">
        <ele>1090.7</ele>
        <time>2023-08-12T12:40:25Z</time>
      </trkpt>
      <trkpt lat="48.08969" lon="7.06661">
        <ele>1090.8</ele>
        <time>2023-08-12T12:40:26Z</time>
      </trkpt>
      <trkpt lat="48.0897" lon="7.06661">
        <ele>1090.9</ele>
        <time>2023-08-12T12:40:27Z</time>
      </trkpt>
      <trkpt lat="48.08971" lon="7.06661">
        <ele>1091</ele>
        <time>2023-08-12T12:40:28Z</time>
      </trkpt>
      <trkpt lat="48.08971" lon="7.0666">
        <ele>1091.2</ele>
        <time>2023-08-12T12:40:29Z</time>
      </trkpt>
      <trkpt lat="48.08972" lon="7.0666">
        <ele>1091.3</ele>
        <time>2023-08-12T12:40:30Z</time>
      </trkpt>
      <trkpt lat="48.08973" lon="7.06659">
        <ele>1091.4</ele>
        <time>2023-08-12T12:40:31Z</time>
      </trkpt>
      <trkpt lat="48.08973" lon="7.06659">
        <ele>1091.4</ele>
        <time>2023-08-12T12:40:32Z</time>
      </trkpt>
      <trkpt lat="48.08974" lon="7.06659">
        <ele>1091.5</ele>
        <time>2023-08-12T12:40:33Z</time>
      </trkpt>
      <trkpt lat="48.08974" lon="7.06659">
        <ele>1091.6</ele>
        <time>2023-08-12T12:40:34Z</time>
      </trkpt>
      <trkpt lat="48.08976" lon="7.06659">
        <ele>1091.8</ele>
        <time>2023-08-12T12:40:35Z</time>
      </trkpt>
      <trkpt lat="48.08977" lon="7.06659">
        <ele>1092</ele>
        <time>2023-08-12T12:40:36Z</time>
      </trkpt>
      <trkpt lat="48.08978" lon="7.0666">
        <ele>1092.1</ele>
        <time>2023-08-12T12:40:37Z</time>
      </trkpt>
      <trkpt lat="48.08979" lon="7.0666">
        <ele>1092.2</ele>
        <time>2023-08-12T12:40:38Z</time>
      </trkpt>
      <trkpt lat="48.08979" lon="7.0666">
        <ele>1092.3</ele>
        <time>2023-08-12T12:40:39Z</time>
      </trkpt>
      <trkpt lat="48.08981" lon="7.06661">
        <ele>1092.5</ele>
        <time>2023-08-12T12:40:40Z</time>
      </trkpt>
      <trkpt lat="48.08982" lon="7.06662">
        <ele>1092.7</ele>
        <time>2023-08-12T12:40:41Z</time>
      </trkpt>
      <trkpt lat="48.08984" lon="7.06661">
        <ele>1092.9</ele>
        <time>2023-08-12T12:40:42Z</time>
      </trkpt>
      <trkpt lat="48.08985" lon="7.06661">
        <ele>1093.1</ele>
        <time>2023-08-12T12:40:43Z</time>
      </trkpt>
      <trkpt lat="48.08986" lon="7.06661">
        <ele>1093.3</ele>
        <time>2023-08-12T12:40:44Z</time>
      </trkpt>
      <trkpt lat="48.08988" lon="7.06661">
        <ele>1093.5</ele>
        <time>2023-08-12T12:40:45Z</time>
      </trkpt>
      <trkpt lat="48.08989" lon="7.06661">
        <ele>1093.7</ele>
        <time>2023-08-12T12:40:46Z</time>
      </trkpt>
      <trkpt lat="48.0899" lon="7.06661">
        <ele>1093.9</ele>
        <time>2023-08-12T12:40:47Z</time>
      </trkpt>
      <trkpt lat="48.08991" lon="7.06661">
        <ele>1093.9</ele>
        <time>2023-08-12T12:40:48Z</time>
      </trkpt>
      <trkpt lat="48.08992" lon="7.06661">
        <ele>1094.1</ele>
        <time>2023-08-12T12:40:49Z</time>
      </trkpt>
      <trkpt lat="48.08993" lon="7.0666">
        <ele>1094.2</ele>
        <time>2023-08-12T12:40:50Z</time>
      </trkpt>
      <trkpt lat="48.08993" lon="7.06659">
        <ele>1094.3</ele>
        <time>2023-08-12T12:40:51Z</time>
      </trkpt>
      <trkpt lat="48.08994" lon="7.06659">
        <ele>1094.5</ele>
        <time>2023-08-12T12:40:52Z</time>
      </trkpt>
      <trkpt lat="48.08996" lon="7.0666">
        <ele>1094.7</ele>
        <time>2023-08-12T12:40:53Z</time>
      </trkpt>
      <trkpt lat="48.08997" lon="7.0666">
        <ele>1094.8</ele>
        <time>2023-08-12T12:40:54Z</time>
      </trkpt>
      <trkpt lat="48.08998" lon="7.06661">
        <ele>1095</ele>
        <time>2023-08-12T12:40:55Z</time>
      </trkpt>
      <trkpt lat="48.08999" lon="7.06662">
        <ele>1095.2</ele>
        <time>2023-08-12T12:40:56Z</time>
      </trkpt>
      <trkpt lat="48.09" lon="7.06662">
        <ele>1095.3</ele>
        <time>2023-08-12T12:40:57Z</time>
      </trkpt>
      <trkpt lat="48.09001" lon="7.06662">
        <ele>1095.4</ele>
        <time>2023-08-12T12:40:58Z</time>
      </trkpt>
      <trkpt lat="48.09002" lon="7.06662">
        <ele>1095.6</ele>
        <time>2023-08-12T12:40:59Z</time>
      </trkpt>
      <trkpt lat="48.09003" lon="7.06662">
        <ele>1095.7</ele>
        <time>2023-08-12T12:41:00Z</time>
      </trkpt>
      <trkpt lat="48.09004" lon="7.06662">
        <ele>1095.9</ele>
        <time>2023-08-12T12:41:01Z</time>
      </trkpt>
      <trkpt lat="48.09005" lon="7.06662">
        <ele>1096.1</ele>
        <time>2023-08-12T12:41:02Z</time>
      </trkpt>
      <trkpt lat="48.09006" lon="7.06662">
        <ele>1096.2</ele>
        <time>2023-08-12T12:41:03Z</time>
      </trkpt>
      <trkpt lat="48.09007" lon="7.06662">
        <ele>1096.4</ele>
        <time>2023-08-12T12:41:04Z</time>
      </trkpt>
      <trkpt lat="48.09008" lon="7.06662">
        <ele>1096.5</ele>
        <time>2023-08-12T12:41:05Z</time>
      </trkpt>
      <trkpt lat="48.09009" lon="7.06663">
        <ele>1096.7</ele>
        <time>2023-08-12T12:41:06Z</time>
      </trkpt>
      <trkpt lat="48.09009" lon="7.06663">
        <ele>1096.7</ele>
        <time>2023-08-12T12:41:07Z</time>
      </trkpt>
      <trkpt lat="48.0901" lon="7.06661">
        <ele>1097</ele>
        <time>2023-08-12T12:41:08Z</time>
      </trkpt>
      <trkpt lat="48.09011" lon="7.06659">
        <ele>1097.2</ele>
        <time>2023-08-12T12:41:09Z</time>
      </trkpt>
      <trkpt lat="48.09012" lon="7.06659">
        <ele>1097.3</ele>
        <time>2023-08-12T12:41:10Z</time>
      </trkpt>
      <trkpt lat="48.09014" lon="7.06658">
        <ele>1097.5</ele>
        <time>2023-08-12T12:41:11Z</time>
      </trkpt>
      <trkpt lat="48.09015" lon="7.06659">
        <ele>1097.8</ele>
        <time>2023-08-12T12:41:12Z</time>
      </trkpt>
      <trkpt lat="48.09016" lon="7.0666">
        <ele>1098</ele>
        <time>2023-08-12T12:41:13Z</time>
      </trkpt>
      <trkpt lat="48.09017" lon="7.06661">
        <ele>1098.2</ele>
        <time>2023-08-12T12:41:14Z</time>
      </trkpt>
      <trkpt lat="48.09019" lon="7.06661">
        <ele>1098.4</ele>
        <time>2023-08-12T12:41:15Z</time>
      </trkpt>
      <trkpt lat="48.0902" lon="7.06662">
        <ele>1098.6</ele>
        <time>2023-08-12T12:41:16Z</time>
      </trkpt>
      <trkpt lat="48.09021" lon="7.06662">
        <ele>1098.7</ele>
        <time>2023-08-12T12:41:17Z</time>
      </trkpt>
      <trkpt lat="48.09021" lon="7.06662">
        <ele>1098.8</ele>
        <time>2023-08-12T12:41:18Z</time>
      </trkpt>
      <trkpt lat="48.09022" lon="7.06662">
        <ele>1098.9</ele>
        <time>2023-08-12T12:41:19Z</time>
      </trkpt>
      <trkpt lat="48.09024" lon="7.06661">
        <ele>1099.2</ele>
        <time>2023-08-12T12:41:20Z</time>
      </trkpt>
      <trkpt lat="48.09026" lon="7.0666">
        <ele>1099.5</ele>
        <time>2023-08-12T12:41:21Z</time>
      </trkpt>
      <trkpt lat="48.09028" lon="7.06659">
        <ele>1099.8</ele>
        <time>2023-08-12T12:41:22Z</time>
      </trkpt>
      <trkpt lat="48.0903" lon="7.06659">
        <ele>1100.1</ele>
        <time>2023-08-12T12:41:23Z</time>
      </trkpt>
      <trkpt lat="48.09031" lon="7.0666">
        <ele>1100.4</ele>
        <time>2023-08-12T12:41:24Z</time>
      </trkpt>
      <trkpt lat="48.09032" lon="7.06661">
        <ele>1100.5</ele>
        <time>2023-08-12T12:41:25Z</time>
      </trkpt>
      <trkpt lat="48.09033" lon="7.06661">
        <ele>1100.6</ele>
        <time>2023-08-12T12:41:26Z</time>
      </trkpt>
      <trkpt lat="48.09033" lon="7.06661">
        <ele>1100.7</ele>
        <time>2023-08-12T12:41:27Z</time>
      </trkpt>
      <trkpt lat="48.09035" lon="7.06661">
        <ele>1100.9</ele>
        <time>2023-08-12T12:41:28Z</time>
      </trkpt>
      <trkpt lat="48.09035" lon="7.06661">
        <ele>1101</ele>
        <time>2023-08-12T12:41:29Z</time>
      </trkpt>
      <trkpt lat="48.09035" lon="7.06661">
        <ele>1101</ele>
        <time>2023-08-12T12:41:30Z</time>
      </trkpt>
      <trkpt lat="48.09036" lon="7.0666">
        <ele>1101.1</ele>
        <time>2023-08-12T12:41:31Z</time>
      </trkpt>
      <trkpt lat="48.09037" lon="7.0666">
        <ele>1101.2</ele>
        <time>2023-08-12T12:41:32Z</time>
      </trkpt>
      <trkpt lat="48.09038" lon="7.0666">
        <ele>1101.3</ele>
        <time>2023-08-12T12:41:33Z</time>
      </trkpt>
      <trkpt lat="48.09038" lon="7.06659">
        <ele>1101.4</ele>
        <time>2023-08-12T12:41:34Z</time>
      </trkpt>
      <trkpt lat="48.09039" lon="7.0666">
        <ele>1101.5</ele>
        <time>2023-08-12T12:41:35Z</time>
      </trkpt>
      <trkpt lat="48.0904" lon="7.0666">
        <ele>1101.7</ele>
        <time>2023-08-12T12:41:36Z</time>
      </trkpt>
      <trkpt lat="48.09041" lon="7.06659">
        <ele>1101.8</ele>
        <time>2023-08-12T12:41:37Z</time>
      </trkpt>
      <trkpt lat="48.09042" lon="7.06659">
        <ele>1102</ele>
        <time>2023-08-12T12:41:38Z</time>
      </trkpt>
      <trkpt lat="48.09043" lon="7.06658">
        <ele>1102.1</ele>
        <time>2023-08-12T12:41:39Z</time>
      </trkpt>
      <trkpt lat="48.09044" lon="7.06658">
        <ele>1102.2</ele>
        <time>2023-08-12T12:41:40Z</time>
      </trkpt>
      <trkpt lat="48.09045" lon="7.06658">
        <ele>1102.4</ele>
        <time>2023-08-12T12:41:41Z</time>
      </trkpt>
      <trkpt lat="48.09046" lon="7.06657">
        <ele>1102.5</ele>
        <time>2023-08-12T12:41:42Z</time>
      </trkpt>
      <trkpt lat="48.09047" lon="7.06657">
        <ele>1102.6</ele>
        <time>2023-08-12T12:41:43Z</time>
      </trkpt>
      <trkpt lat="48.09048" lon="7.06657">
        <ele>1102.8</ele>
        <time>2023-08-12T12:41:44Z</time>
      </trkpt>
      <trkpt lat="48.09049" lon="7.06658">
        <ele>1102.9</ele>
        <time>2023-08-12T12:41:45Z</time>
      </trkpt>
      <trkpt lat="48.0905" lon="7.06656">
        <ele>1103.1</ele>
        <time>2023-08-12T12:41:46Z</time>
      </trkpt>
      <trkpt lat="48.09051" lon="7.06655">
        <ele>1103.3</ele>
        <time>2023-08-12T12:41:47Z</time>
      </trkpt>
      <trkpt lat="48.09051" lon="7.06655">
        <ele>1103.4</ele>
        <time>2023-08-12T12:41:48Z</time>
      </trkpt>
      <trkpt lat="48.09052" lon="7.06655">
        <ele>1103.5</ele>
        <time>2023-08-12T12:41:49Z</time>
      </trkpt>
      <trkpt lat="48.09053" lon="7.06654">
        <ele>1103.6</ele>
        <time>2023-08-12T12:41:50Z</time>
      </trkpt>
      <trkpt lat="48.09054" lon="7.06654">
        <ele>1103.8</ele>
        <time>2023-08-12T12:41:51Z</time>
      </trkpt>
      <trkpt lat="48.09056" lon="7.06653">
        <ele>1104</ele>
        <time>2023-08-12T12:41:52Z</time>
      </trkpt>
      <trkpt lat="48.09057" lon="7.06652">
        <ele>1104.2</ele>
        <time>2023-08-12T12:41:53Z</time>
      </trkpt>
      <trkpt lat="48.09058" lon="7.06651">
        <ele>1104.3</ele>
        <time>2023-08-12T12:41:54Z</time>
      </trkpt>
      <trkpt lat="48.09058" lon="7.06649">
        <ele>1104.6</ele>
        <time>2023-08-12T12:41:55Z</time>
      </trkpt>
      <trkpt lat="48.09059" lon="7.06647">
        <ele>1104.8</ele>
        <time>2023-08-12T12:41:56Z</time>
      </trkpt>
      <trkpt lat="48.0906" lon="7.06645">
        <ele>1105</ele>
        <time>2023-08-12T12:41:57Z</time>
      </trkpt>
      <trkpt lat="48.09061" lon="7.06644">
        <ele>1105.2</ele>
        <time>2023-08-12T12:41:58Z</time>
      </trkpt>
      <trkpt lat="48.09062" lon="7.06643">
        <ele>1105.4</ele>
        <time>2023-08-12T12:41:59Z</time>
      </trkpt>
      <trkpt lat="48.09063" lon="7.06644">
        <ele>1105.6</ele>
        <time>2023-08-12T12:42:00Z</time>
      </trkpt>
      <trkpt lat="48.09065" lon="7.06644">
        <ele>1105.8</ele>
        <time>2023-08-12T12:42:01Z</time>
      </trkpt>
      <trkpt lat="48.09065" lon="7.06643">
        <ele>1105.8</ele>
        <time>2023-08-12T12:42:02Z</time>
      </trkpt>
      <trkpt lat="48.09066" lon="7.06642">
        <ele>1106</ele>
        <time>2023-08-12T12:42:03Z</time>
      </trkpt>
      <trkpt lat="48.09067" lon="7.0664">
        <ele>1106.3</ele>
        <time>2023-08-12T12:42:04Z</time>
      </trkpt>
      <trkpt lat="48.09068" lon="7.06637">
        <ele>1106.6</ele>
        <time>2023-08-12T12:42:05Z</time>
      </trkpt>
      <trkpt lat="48.09069" lon="7.06635">
        <ele>1107</ele>
        <time>2023-08-12T12:42:06Z</time>
      </trkpt>
      <trkpt lat="48.09071" lon="7.06634">
        <ele>1107.3</ele>
        <time>2023-08-12T12:42:07Z</time>
      </trkpt>
      <trkpt lat="48.09072" lon="7.06632">
        <ele>1107.6</ele>
        <time>2023-08-12T12:42:08Z</time>
      </trkpt>
      <trkpt lat="48.09073" lon="7.06631">
        <ele>1107.7</ele>
        <time>2023-08-12T12:42:09Z</time>
      </trkpt>
      <trkpt lat="48.09075" lon="7.06632">
        <ele>1108</ele>
        <time>2023-08-12T12:42:10Z</time>
      </trkpt>
      <trkpt lat="48.09077" lon="7.06633">
        <ele>1108.3</ele>
        <time>2023-08-12T12:42:11Z</time>
      </trkpt>
      <trkpt lat="48.09078" lon="7.06635">
        <ele>1108.7</ele>
        <time>2023-08-12T12:42:12Z</time>
      </trkpt>
      <trkpt lat="48.0908" lon="7.06634">
        <ele>1108.9</ele>
        <time>2023-08-12T12:42:13Z</time>
      </trkpt>
      <trkpt lat="48.09081" lon="7.06634">
        <ele>1109</ele>
        <time>2023-08-12T12:42:14Z</time>
      </trkpt>
      <trkpt lat="48.09081" lon="7.06633">
        <ele>1109.2</ele>
        <time>2023-08-12T12:42:15Z</time>
      </trkpt>
      <trkpt lat="48.09082" lon="7.06631">
        <ele>1109.3</ele>
        <time>2023-08-12T12:42:16Z</time>
      </trkpt>
      <trkpt lat="48.09084" lon="7.06629">
        <ele>1109.8</ele>
        <time>2023-08-12T12:42:19Z</time>
      </trkpt>
      <trkpt lat="48.09085" lon="7.06628">
        <ele>1109.9</ele>
        <time>2023-08-12T12:42:20Z</time>
      </trkpt>
      <trkpt lat="48.09087" lon="7.06626">
        <ele>1110.2</ele>
        <time>2023-08-12T12:42:22Z</time>
      </trkpt>
      <trkpt lat="48.09088" lon="7.06625">
        <ele>1110.4</ele>
        <time>2023-08-12T12:42:23Z</time>
      </trkpt>
      <trkpt lat="48.09088" lon="7.06624">
        <ele>1110.5</ele>
        <time>2023-08-12T12:42:24Z</time>
      </trkpt>
      <trkpt lat="48.09088" lon="7.06623">
        <ele>1110.6</ele>
        <time>2023-08-12T12:42:25Z</time>
      </trkpt>
      <trkpt lat="48.09089" lon="7.06623">
        <ele>1110.6</ele>
        <time>2023-08-12T12:42:26Z</time>
      </trkpt>
      <trkpt lat="48.0909" lon="7.06622">
        <ele>1110.8</ele>
        <time>2023-08-12T12:42:27Z</time>
      </trkpt>
      <trkpt lat="48.09091" lon="7.06622">
        <ele>1111</ele>
        <time>2023-08-12T12:42:28Z</time>
      </trkpt>
      <trkpt lat="48.09092" lon="7.06621">
        <ele>1111.2</ele>
        <time>2023-08-12T12:42:29Z</time>
      </trkpt>
      <trkpt lat="48.09094" lon="7.06621">
        <ele>1111.4</ele>
        <time>2023-08-12T12:42:31Z</time>
      </trkpt>
      <trkpt lat="48.09094" lon="7.06622">
        <ele>1111.4</ele>
        <time>2023-08-12T12:42:32Z</time>
      </trkpt>
      <trkpt lat="48.09095" lon="7.06622">
        <ele>1111.5</ele>
        <time>2023-08-12T12:42:33Z</time>
      </trkpt>
      <trkpt lat="48.09097" lon="7.06623">
        <ele>1111.8</ele>
        <time>2023-08-12T12:42:35Z</time>
      </trkpt>
      <trkpt lat="48.09097" lon="7.06622">
        <ele>1111.9</ele>
        <time>2023-08-12T12:42:36Z</time>
      </trkpt>
      <trkpt lat="48.091" lon="7.06622">
        <ele>1112.3</ele>
        <time>2023-08-12T12:42:39Z</time>
      </trkpt>
      <trkpt lat="48.091" lon="7.06622">
        <ele>1112.3</ele>
        <time>2023-08-12T12:42:40Z</time>
      </trkpt>
      <trkpt lat="48.09101" lon="7.06622">
        <ele>1112.4</ele>
        <time>2023-08-12T12:42:41Z</time>
      </trkpt>
      <trkpt lat="48.09105" lon="7.06621">
        <ele>1113</ele>
        <time>2023-08-12T12:42:45Z</time>
      </trkpt>
      <trkpt lat="48.09106" lon="7.0662">
        <ele>1113.2</ele>
        <time>2023-08-12T12:42:46Z</time>
      </trkpt>
      <trkpt lat="48.09107" lon="7.06619">
        <ele>1113.4</ele>
        <time>2023-08-12T12:42:47Z</time>
      </trkpt>
      <trkpt lat="48.09107" lon="7.06618">
        <ele>1113.4</ele>
        <time>2023-08-12T12:42:48Z</time>
      </trkpt>
      <trkpt lat="48.09107" lon="7.06618">
        <ele>1113.4</ele>
        <time>2023-08-12T12:42:54Z</time>
      </trkpt>
      <trkpt lat="48.09107" lon="7.06618">
        <ele>1113.4</ele>
        <time>2023-08-12T12:42:55Z</time>
      </trkpt>
      <trkpt lat="48.09107" lon="7.06618">
        <ele>1113.4</ele>
        <time>2023-08-12T12:43:04Z</time>
      </trkpt>
      <trkpt lat="48.09107" lon="7.06618">
        <ele>1113.4</ele>
        <time>2023-08-12T12:43:07Z</time>
      </trkpt>
      <trkpt lat="48.09107" lon="7.06618">
        <ele>1113.4</ele>
        <time>2023-08-12T12:43:17Z</time>
      </trkpt>
      <trkpt lat="48.09107" lon="7.06618">
        <ele>1113.4</ele>
        <time>2023-08-12T12:43:24Z</time>
      </trkpt>
      <trkpt lat="48.09107" lon="7.06618">
        <ele>1113.4</ele>
        <time>2023-08-12T12:43:29Z</time>
      </trkpt>
      <trkpt lat="48.09107" lon="7.06618">
        <ele>1113.4</ele>
        <time>2023-08-12T12:43:34Z</time>
      </trkpt>
      <trkpt lat="48.09107" lon="7.06618">
        <ele>1113.4</ele>
        <time>2023-08-12T12:43:41Z</time>
      </trkpt>
      <trkpt lat="48.09107" lon="7.06618">
        <ele>1113.4</ele>
        <time>2023-08-12T12:43:45Z</time>
      </trkpt>
      <trkpt lat="48.09107" lon="7.06618">
        <ele>1113.4</ele>
        <time>2023-08-12T12:43:50Z</time>
      </trkpt>
      <trkpt lat="48.09107" lon="7.06618">
        <ele>1113.4</ele>
        <time>2023-08-12T12:43:56Z</time>
      </trkpt>
      <trkpt lat="48.09107" lon="7.06618">
        <ele>1113.4</ele>
        <time>2023-08-12T12:44:03Z</time>
      </trkpt>
      <trkpt lat="48.09107" lon="7.06618">
        <ele>1113.4</ele>
        <time>2023-08-12T12:44:08Z</time>
      </trkpt>
      <trkpt lat="48.09107" lon="7.06618">
        <ele>1113.5</ele>
        <time>2023-08-12T12:44:09Z</time>
      </trkpt>
      <trkpt lat="48.09108" lon="7.06618">
        <ele>1113.6</ele>
        <time>2023-08-12T12:44:10Z</time>
      </trkpt>
      <trkpt lat="48.09108" lon="7.06618">
        <ele>1113.7</ele>
        <time>2023-08-12T12:44:13Z</time>
      </trkpt>
      <trkpt lat="48.09108" lon="7.06618">
        <ele>1113.7</ele>
        <time>2023-08-12T12:44:15Z</time>
      </trkpt>
      <trkpt lat="48.09109" lon="7.06618">
        <ele>1113.7</ele>
        <time>2023-08-12T12:44:18Z</time>
      </trkpt>
      <trkpt lat="48.0911" lon="7.06618">
        <ele>1113.9</ele>
        <time>2023-08-12T12:44:19Z</time>
      </trkpt>
      <trkpt lat="48.09112" lon="7.06618">
        <ele>1114.1</ele>
        <time>2023-08-12T12:44:20Z</time>
      </trkpt>
      <trkpt lat="48.09114" lon="7.06617">
        <ele>1114.3</ele>
        <time>2023-08-12T12:44:21Z</time>
      </trkpt>
      <trkpt lat="48.09116" lon="7.06617">
        <ele>1114.6</ele>
        <time>2023-08-12T12:44:22Z</time>
      </trkpt>
      <trkpt lat="48.09118" lon="7.06617">
        <ele>1114.8</ele>
        <time>2023-08-12T12:44:23Z</time>
      </trkpt>
      <trkpt lat="48.09121" lon="7.06617">
        <ele>1115.2</ele>
        <time>2023-08-12T12:44:24Z</time>
      </trkpt>
      <trkpt lat="48.09123" lon="7.06616">
        <ele>1115.4</ele>
        <time>2023-08-12T12:44:25Z</time>
      </trkpt>
      <trkpt lat="48.09124" lon="7.06616">
        <ele>1115.6</ele>
        <time>2023-08-12T12:44:26Z</time>
      </trkpt>
      <trkpt lat="48.09126" lon="7.06616">
        <ele>1115.8</ele>
        <time>2023-08-12T12:44:27Z</time>
      </trkpt>
      <trkpt lat="48.09127" lon="7.06615">
        <ele>1116</ele>
        <time>2023-08-12T12:44:28Z</time>
      </trkpt>
      <trkpt lat="48.09128" lon="7.06615">
        <ele>1116.1</ele>
        <time>2023-08-12T12:44:29Z</time>
      </trkpt>
      <trkpt lat="48.0913" lon="7.06614">
        <ele>1116.3</ele>
        <time>2023-08-12T12:44:30Z</time>
      </trkpt>
      <trkpt lat="48.09132" lon="7.06614">
        <ele>1116.5</ele>
        <time>2023-08-12T12:44:31Z</time>
      </trkpt>
      <trkpt lat="48.09133" lon="7.06614">
        <ele>1116.7</ele>
        <time>2023-08-12T12:44:32Z</time>
      </trkpt>
      <trkpt lat="48.09135" lon="7.06614">
        <ele>1116.9</ele>
        <time>2023-08-12T12:44:33Z</time>
      </trkpt>
      <trkpt lat="48.09135" lon="7.06614">
        <ele>1116.9</ele>
        <time>2023-08-12T12:44:34Z</time>
      </trkpt>
      <trkpt lat="48.09135" lon="7.06614">
        <ele>1116.9</ele>
        <time>2023-08-12T12:44:35Z</time>
      </trkpt>
      <trkpt lat="48.09135" lon="7.06614">
        <ele>1116.9</ele>
        <time>2023-08-12T12:44:36Z</time>
      </trkpt>
      <trkpt lat="48.09135" lon="7.06614">
        <ele>1116.9</ele>
        <time>2023-08-12T12:44:37Z</time>
      </trkpt>
      <trkpt lat="48.09135" lon="7.06614">
        <ele>1116.9</ele>
        <time>2023-08-12T12:44:39Z</time>
      </trkpt>
      <trkpt lat="48.09135" lon="7.06614">
        <ele>1116.9</ele>
        <time>2023-08-12T12:44:40Z</time>
      </trkpt>
      <trkpt lat="48.09137" lon="7.06613">
        <ele>1117.2</ele>
        <time>2023-08-12T12:44:41Z</time>
      </trkpt>
      <trkpt lat="48.0914" lon="7.06614">
        <ele>1117.5</ele>
        <time>2023-08-12T12:44:42Z</time>
      </trkpt>
      <trkpt lat="48.09143" lon="7.06614">
        <ele>1117.9</ele>
        <time>2023-08-12T12:44:43Z</time>
      </trkpt>
      <trkpt lat="48.09143" lon="7.06614">
        <ele>1117.9</ele>
        <time>2023-08-12T12:44:44Z</time>
      </trkpt>
      <trkpt lat="48.09146" lon="7.06614">
        <ele>1118.2</ele>
        <time>2023-08-12T12:44:45Z</time>
      </trkpt>
      <trkpt lat="48.09146" lon="7.06614">
        <ele>1118.3</ele>
        <time>2023-08-12T12:44:46Z</time>
      </trkpt>
      <trkpt lat="48.09148" lon="7.06614">
        <ele>1118.6</ele>
        <time>2023-08-12T12:44:47Z</time>
      </trkpt>
      <trkpt lat="48.0915" lon="7.06614">
        <ele>1118.8</ele>
        <time>2023-08-12T12:44:48Z</time>
      </trkpt>
      <trkpt lat="48.09153" lon="7.06613">
        <ele>1119.3</ele>
        <time>2023-08-12T12:44:49Z</time>
      </trkpt>
      <trkpt lat="48.09155" lon="7.06613">
        <ele>1119.5</ele>
        <time>2023-08-12T12:44:50Z</time>
      </trkpt>
      <trkpt lat="48.09155" lon="7.06613">
        <ele>1119.6</ele>
        <time>2023-08-12T12:44:51Z</time>
      </trkpt>
      <trkpt lat="48.09157" lon="7.06613">
        <ele>1119.9</ele>
        <time>2023-08-12T12:44:52Z</time>
      </trkpt>
      <trkpt lat="48.0916" lon="7.06613">
        <ele>1120.3</ele>
        <time>2023-08-12T12:44:53Z</time>
      </trkpt>
      <trkpt lat="48.09162" lon="7.0661">
        <ele>1120.7</ele>
        <time>2023-08-12T12:44:54Z</time>
      </trkpt>
      <trkpt lat="48.09165" lon="7.06608">
        <ele>1121.2</ele>
        <time>2023-08-12T12:44:55Z</time>
      </trkpt>
      <trkpt lat="48.09165" lon="7.06607">
        <ele>1121.2</ele>
        <time>2023-08-12T12:44:56Z</time>
      </trkpt>
      <trkpt lat="48.09166" lon="7.06606">
        <ele>1121.5</ele>
        <time>2023-08-12T12:44:57Z</time>
      </trkpt>
      <trkpt lat="48.09166" lon="7.06605">
        <ele>1121.5</ele>
        <time>2023-08-12T12:44:58Z</time>
      </trkpt>
      <trkpt lat="48.09166" lon="7.06605">
        <ele>1121.5</ele>
        <time>2023-08-12T12:44:59Z</time>
      </trkpt>
      <trkpt lat="48.09166" lon="7.06606">
        <ele>1121.6</ele>
        <time>2023-08-12T12:45:00Z</time>
      </trkpt>
      <trkpt lat="48.09166" lon="7.06605">
        <ele>1121.6</ele>
        <time>2023-08-12T12:45:01Z</time>
      </trkpt>
      <trkpt lat="48.09166" lon="7.06605">
        <ele>1121.6</ele>
        <time>2023-08-12T12:45:02Z</time>
      </trkpt>
      <trkpt lat="48.09166" lon="7.06605">
        <ele>1121.6</ele>
        <time>2023-08-12T12:45:04Z</time>
      </trkpt>
      <trkpt lat="48.09166" lon="7.06604">
        <ele>1121.7</ele>
        <time>2023-08-12T12:45:06Z</time>
      </trkpt>
      <trkpt lat="48.09167" lon="7.06602">
        <ele>1122</ele>
        <time>2023-08-12T12:45:07Z</time>
      </trkpt>
      <trkpt lat="48.09167" lon="7.06602">
        <ele>1122</ele>
        <time>2023-08-12T12:45:08Z</time>
      </trkpt>
      <trkpt lat="48.09167" lon="7.06602">
        <ele>1122</ele>
        <time>2023-08-12T12:45:09Z</time>
      </trkpt>
      <trkpt lat="48.09167" lon="7.06602">
        <ele>1122</ele>
        <time>2023-08-12T12:45:12Z</time>
      </trkpt>
      <trkpt lat="48.09167" lon="7.06602">
        <ele>1122</ele>
        <time>2023-08-12T12:45:17Z</time>
      </trkpt>
      <trkpt lat="48.09167" lon="7.06602">
        <ele>1122</ele>
        <time>2023-08-12T12:45:21Z</time>
      </trkpt>
      <trkpt lat="48.09167" lon="7.06602">
        <ele>1122</ele>
        <time>2023-08-12T12:45:28Z</time>
      </trkpt>
      <trkpt lat="48.09167" lon="7.06602">
        <ele>1122</ele>
        <time>2023-08-12T12:45:37Z</time>
      </trkpt>
      <trkpt lat="48.09167" lon="7.06601">
        <ele>1122.1</ele>
        <time>2023-08-12T12:45:39Z</time>
      </trkpt>
      <trkpt lat="48.09169" lon="7.06601">
        <ele>1122.3</ele>
        <time>2023-08-12T12:45:40Z</time>
      </trkpt>
      <trkpt lat="48.0917" lon="7.06601">
        <ele>1122.6</ele>
        <time>2023-08-12T12:45:41Z</time>
      </trkpt>
      <trkpt lat="48.09171" lon="7.06601">
        <ele>1122.7</ele>
        <time>2023-08-12T12:45:42Z</time>
      </trkpt>
      <trkpt lat="48.09171" lon="7.06601">
        <ele>1122.7</ele>
        <time>2023-08-12T12:45:43Z</time>
      </trkpt>
      <trkpt lat="48.09171" lon="7.06601">
        <ele>1122.7</ele>
        <time>2023-08-12T12:45:44Z</time>
      </trkpt>
      <trkpt lat="48.09173" lon="7.06601">
        <ele>1122.9</ele>
        <time>2023-08-12T12:45:45Z</time>
      </trkpt>
      <trkpt lat="48.09174" lon="7.06602">
        <ele>1123.1</ele>
        <time>2023-08-12T12:45:46Z</time>
      </trkpt>
      <trkpt lat="48.09175" lon="7.06603">
        <ele>1123.3</ele>
        <time>2023-08-12T12:45:47Z</time>
      </trkpt>
      <trkpt lat="48.09175" lon="7.06603">
        <ele>1123.3</ele>
        <time>2023-08-12T12:45:49Z</time>
      </trkpt>
      <trkpt lat="48.09177" lon="7.06603">
        <ele>1123.6</ele>
        <time>2023-08-12T12:45:50Z</time>
      </trkpt>
      <trkpt lat="48.09179" lon="7.06603">
        <ele>1123.9</ele>
        <time>2023-08-12T12:45:51Z</time>
      </trkpt>
      <trkpt lat="48.09181" lon="7.06603">
        <ele>1124.1</ele>
        <time>2023-08-12T12:45:52Z</time>
      </trkpt>
      <trkpt lat="48.09182" lon="7.06603">
        <ele>1124.3</ele>
        <time>2023-08-12T12:45:53Z</time>
      </trkpt>
      <trkpt lat="48.09184" lon="7.06602">
        <ele>1124.6</ele>
        <time>2023-08-12T12:45:54Z</time>
      </trkpt>
      <trkpt lat="48.09185" lon="7.06601">
        <ele>1124.9</ele>
        <time>2023-08-12T12:45:55Z</time>
      </trkpt>
      <trkpt lat="48.09188" lon="7.06601">
        <ele>1125.2</ele>
        <time>2023-08-12T12:45:56Z</time>
      </trkpt>
      <trkpt lat="48.09189" lon="7.06601">
        <ele>1125.3</ele>
        <time>2023-08-12T12:45:57Z</time>
      </trkpt>
      <trkpt lat="48.0919" lon="7.06602">
        <ele>1125.5</ele>
        <time>2023-08-12T12:45:58Z</time>
      </trkpt>
      <trkpt lat="48.0919" lon="7.06602">
        <ele>1125.6</ele>
        <time>2023-08-12T12:46:00Z</time>
      </trkpt>
      <trkpt lat="48.09192" lon="7.06601">
        <ele>1125.8</ele>
        <time>2023-08-12T12:46:01Z</time>
      </trkpt>
      <trkpt lat="48.09193" lon="7.06601">
        <ele>1126.1</ele>
        <time>2023-08-12T12:46:02Z</time>
      </trkpt>
      <trkpt lat="48.09194" lon="7.066">
        <ele>1126.2</ele>
        <time>2023-08-12T12:46:03Z</time>
      </trkpt>
      <trkpt lat="48.09195" lon="7.066">
        <ele>1126.3</ele>
        <time>2023-08-12T12:46:04Z</time>
      </trkpt>
      <trkpt lat="48.09195" lon="7.066">
        <ele>1126.3</ele>
        <time>2023-08-12T12:46:05Z</time>
      </trkpt>
      <trkpt lat="48.09197" lon="7.06599">
        <ele>1126.7</ele>
        <time>2023-08-12T12:46:06Z</time>
      </trkpt>
      <trkpt lat="48.09198" lon="7.06598">
        <ele>1126.9</ele>
        <time>2023-08-12T12:46:07Z</time>
      </trkpt>
      <trkpt lat="48.092" lon="7.06598">
        <ele>1127.1</ele>
        <time>2023-08-12T12:46:08Z</time>
      </trkpt>
      <trkpt lat="48.09202" lon="7.06598">
        <ele>1127.4</ele>
        <time>2023-08-12T12:46:09Z</time>
      </trkpt>
      <trkpt lat="48.09204" lon="7.06599">
        <ele>1127.8</ele>
        <time>2023-08-12T12:46:10Z</time>
      </trkpt>
      <trkpt lat="48.09205" lon="7.06598">
        <ele>1128</ele>
        <time>2023-08-12T12:46:11Z</time>
      </trkpt>
      <trkpt lat="48.09205" lon="7.06598">
        <ele>1128</ele>
        <time>2023-08-12T12:46:12Z</time>
      </trkpt>
      <trkpt lat="48.09205" lon="7.06598">
        <ele>1128</ele>
        <time>2023-08-12T12:46:13Z</time>
      </trkpt>
      <trkpt lat="48.09205" lon="7.06598">
        <ele>1128</ele>
        <time>2023-08-12T12:46:14Z</time>
      </trkpt>
      <trkpt lat="48.09205" lon="7.06598">
        <ele>1128</ele>
        <time>2023-08-12T12:46:15Z</time>
      </trkpt>
      <trkpt lat="48.09205" lon="7.06598">
        <ele>1128</ele>
        <time>2023-08-12T12:46:17Z</time>
      </trkpt>
      <trkpt lat="48.0921" lon="7.066">
        <ele>1128.9</ele>
        <time>2023-08-12T12:46:18Z</time>
      </trkpt>
      <trkpt lat="48.0921" lon="7.066">
        <ele>1128.9</ele>
        <time>2023-08-12T12:46:19Z</time>
      </trkpt>
      <trkpt lat="48.09212" lon="7.06598">
        <ele>1129.3</ele>
        <time>2023-08-12T12:46:20Z</time>
      </trkpt>
      <trkpt lat="48.09212" lon="7.06598">
        <ele>1129.3</ele>
        <time>2023-08-12T12:46:21Z</time>
      </trkpt>
      <trkpt lat="48.09212" lon="7.06597">
        <ele>1129.4</ele>
        <time>2023-08-12T12:46:22Z</time>
      </trkpt>
      <trkpt lat="48.09212" lon="7.06597">
        <ele>1129.5</ele>
        <time>2023-08-12T12:46:23Z</time>
      </trkpt>
      <trkpt lat="48.09212" lon="7.06597">
        <ele>1129.5</ele>
        <time>2023-08-12T12:46:24Z</time>
      </trkpt>
      <trkpt lat="48.09213" lon="7.06596">
        <ele>1129.7</ele>
        <time>2023-08-12T12:46:25Z</time>
      </trkpt>
      <trkpt lat="48.09213" lon="7.06596">
        <ele>1129.7</ele>
        <time>2023-08-12T12:46:26Z</time>
      </trkpt>
      <trkpt lat="48.09213" lon="7.06596">
        <ele>1129.7</ele>
        <time>2023-08-12T12:46:27Z</time>
      </trkpt>
      <trkpt lat="48.09213" lon="7.06596">
        <ele>1129.7</ele>
        <time>2023-08-12T12:46:28Z</time>
      </trkpt>
      <trkpt lat="48.09213" lon="7.06597">
        <ele>1129.8</ele>
        <time>2023-08-12T12:46:29Z</time>
      </trkpt>
      <trkpt lat="48.09215" lon="7.06598">
        <ele>1130.1</ele>
        <time>2023-08-12T12:46:30Z</time>
      </trkpt>
      <trkpt lat="48.09215" lon="7.06598">
        <ele>1130.2</ele>
        <time>2023-08-12T12:46:31Z</time>
      </trkpt>
      <trkpt lat="48.09216" lon="7.06596">
        <ele>1130.5</ele>
        <time>2023-08-12T12:46:32Z</time>
      </trkpt>
      <trkpt lat="48.09216" lon="7.06596">
        <ele>1130.5</ele>
        <time>2023-08-12T12:46:33Z</time>
      </trkpt>
      <trkpt lat="48.09216" lon="7.06596">
        <ele>1130.5</ele>
        <time>2023-08-12T12:46:35Z</time>
      </trkpt>
      <trkpt lat="48.09216" lon="7.06596">
        <ele>1130.5</ele>
        <time>2023-08-12T12:46:36Z</time>
      </trkpt>
      <trkpt lat="48.09217" lon="7.06596">
        <ele>1130.7</ele>
        <time>2023-08-12T12:46:49Z</time>
      </trkpt>
      <trkpt lat="48.09221" lon="7.06592">
        <ele>1131.5</ele>
        <time>2023-08-12T12:46:52Z</time>
      </trkpt>
      <trkpt lat="48.09222" lon="7.06592">
        <ele>1131.7</ele>
        <time>2023-08-12T12:46:53Z</time>
      </trkpt>
      <trkpt lat="48.09223" lon="7.06591">
        <ele>1131.9</ele>
        <time>2023-08-12T12:46:54Z</time>
      </trkpt>
      <trkpt lat="48.09224" lon="7.0659">
        <ele>1132.1</ele>
        <time>2023-08-12T12:46:55Z</time>
      </trkpt>
      <trkpt lat="48.09229" lon="7.06586">
        <ele>1133.2</ele>
        <time>2023-08-12T12:46:59Z</time>
      </trkpt>
      <trkpt lat="48.09229" lon="7.06586">
        <ele>1133.2</ele>
        <time>2023-08-12T12:47:00Z</time>
      </trkpt>
      <trkpt lat="48.09231" lon="7.06585">
        <ele>1133.6</ele>
        <time>2023-08-12T12:47:01Z</time>
      </trkpt>
      <trkpt lat="48.09233" lon="7.06583">
        <ele>1133.9</ele>
        <time>2023-08-12T12:47:03Z</time>
      </trkpt>
      <trkpt lat="48.09235" lon="7.06583">
        <ele>1134.3</ele>
        <time>2023-08-12T12:47:04Z</time>
      </trkpt>
      <trkpt lat="48.09242" lon="7.06577">
        <ele>1135.7</ele>
        <time>2023-08-12T12:47:07Z</time>
      </trkpt>
      <trkpt lat="48.09248" lon="7.06573">
        <ele>1136.9</ele>
        <time>2023-08-12T12:47:12Z</time>
      </trkpt>
      <trkpt lat="48.09248" lon="7.06573">
        <ele>1136.9</ele>
        <time>2023-08-12T12:47:14Z</time>
      </trkpt>
      <trkpt lat="48.09249" lon="7.06571">
        <ele>1137.2</ele>
        <time>2023-08-12T12:47:18Z</time>
      </trkpt>
      <trkpt lat="48.09249" lon="7.06571">
        <ele>1137.2</ele>
        <time>2023-08-12T12:47:19Z</time>
      </trkpt>
      <trkpt lat="48.09255" lon="7.0656">
        <ele>1139</ele>
        <time>2023-08-12T12:47:24Z</time>
      </trkpt>
      <trkpt lat="48.09257" lon="7.06558">
        <ele>1139.3</ele>
        <time>2023-08-12T12:47:25Z</time>
      </trkpt>
      <trkpt lat="48.09258" lon="7.06554">
        <ele>1139.7</ele>
        <time>2023-08-12T12:47:27Z</time>
      </trkpt>
      <trkpt lat="48.0926" lon="7.06554">
        <ele>1140</ele>
        <time>2023-08-12T12:47:28Z</time>
      </trkpt>
      <trkpt lat="48.09263" lon="7.0655">
        <ele>1140.7</ele>
        <time>2023-08-12T12:47:30Z</time>
      </trkpt>
      <trkpt lat="48.09264" lon="7.06548">
        <ele>1140.9</ele>
        <time>2023-08-12T12:47:31Z</time>
      </trkpt>
      <trkpt lat="48.09265" lon="7.06546">
        <ele>1141.2</ele>
        <time>2023-08-12T12:47:32Z</time>
      </trkpt>
      <trkpt lat="48.09264" lon="7.06543">
        <ele>1141.5</ele>
        <time>2023-08-12T12:47:33Z</time>
      </trkpt>
      <trkpt lat="48.09262" lon="7.0654">
        <ele>1141.8</ele>
        <time>2023-08-12T12:47:34Z</time>
      </trkpt>
      <trkpt lat="48.09262" lon="7.06536">
        <ele>1142.2</ele>
        <time>2023-08-12T12:47:35Z</time>
      </trkpt>
      <trkpt lat="48.09262" lon="7.06534">
        <ele>1142.4</ele>
        <time>2023-08-12T12:47:36Z</time>
      </trkpt>
      <trkpt lat="48.09262" lon="7.06532">
        <ele>1142.6</ele>
        <time>2023-08-12T12:47:37Z</time>
      </trkpt>
      <trkpt lat="48.09263" lon="7.0653">
        <ele>1142.8</ele>
        <time>2023-08-12T12:47:38Z</time>
      </trkpt>
      <trkpt lat="48.09263" lon="7.06527">
        <ele>1143.1</ele>
        <time>2023-08-12T12:47:40Z</time>
      </trkpt>
      <trkpt lat="48.09265" lon="7.06529">
        <ele>1143.3</ele>
        <time>2023-08-12T12:47:42Z</time>
      </trkpt>
      <trkpt lat="48.09269" lon="7.06537">
        <ele>1144.7</ele>
        <time>2023-08-12T12:47:45Z</time>
      </trkpt>
      <trkpt lat="48.09269" lon="7.0654">
        <ele>1144.9</ele>
        <time>2023-08-12T12:47:47Z</time>
      </trkpt>
      <trkpt lat="48.09269" lon="7.06542">
        <ele>1145</ele>
        <time>2023-08-12T12:47:48Z</time>
      </trkpt>
      <trkpt lat="48.09269" lon="7.06544">
        <ele>1145.1</ele>
        <time>2023-08-12T12:47:49Z</time>
      </trkpt>
      <trkpt lat="48.09269" lon="7.06547">
        <ele>1145.2</ele>
        <time>2023-08-12T12:47:50Z</time>
      </trkpt>
      <trkpt lat="48.09269" lon="7.06549">
        <ele>1145.3</ele>
        <time>2023-08-12T12:47:51Z</time>
      </trkpt>
      <trkpt lat="48.09269" lon="7.0655">
        <ele>1145.4</ele>
        <time>2023-08-12T12:47:52Z</time>
      </trkpt>
      <trkpt lat="48.0927" lon="7.06556">
        <ele>1145.7</ele>
        <time>2023-08-12T12:47:55Z</time>
      </trkpt>
      <trkpt lat="48.09269" lon="7.06563">
        <ele>1146</ele>
        <time>2023-08-12T12:47:58Z</time>
      </trkpt>
      <trkpt lat="48.09268" lon="7.06565">
        <ele>1146.1</ele>
        <time>2023-08-12T12:47:59Z</time>
      </trkpt>
      <trkpt lat="48.09267" lon="7.06566">
        <ele>1146.2</ele>
        <time>2023-08-12T12:48:00Z</time>
      </trkpt>
      <trkpt lat="48.09267" lon="7.06569">
        <ele>1146.4</ele>
        <time>2023-08-12T12:48:01Z</time>
      </trkpt>
      <trkpt lat="48.09266" lon="7.06571">
        <ele>1146.5</ele>
        <time>2023-08-12T12:48:02Z</time>
      </trkpt>
      <trkpt lat="48.09264" lon="7.06572">
        <ele>1146.6</ele>
        <time>2023-08-12T12:48:03Z</time>
      </trkpt>
      <trkpt lat="48.09264" lon="7.06574">
        <ele>1146.8</ele>
        <time>2023-08-12T12:48:04Z</time>
      </trkpt>
      <trkpt lat="48.09262" lon="7.06578">
        <ele>1147</ele>
        <time>2023-08-12T12:48:06Z</time>
      </trkpt>
      <trkpt lat="48.0926" lon="7.06583">
        <ele>1147.4</ele>
        <time>2023-08-12T12:48:09Z</time>
      </trkpt>
      <trkpt lat="48.09259" lon="7.06586">
        <ele>1147.5</ele>
        <time>2023-08-12T12:48:10Z</time>
      </trkpt>
      <trkpt lat="48.09259" lon="7.06588">
        <ele>1147.6</ele>
        <time>2023-08-12T12:48:11Z</time>
      </trkpt>
      <trkpt lat="48.09256" lon="7.06592">
        <ele>1148</ele>
        <time>2023-08-12T12:48:14Z</time>
      </trkpt>
      <trkpt lat="48.09255" lon="7.06593">
        <ele>1148</ele>
        <time>2023-08-12T12:48:15Z</time>
      </trkpt>
      <trkpt lat="48.09254" lon="7.06594">
        <ele>1148.1</ele>
        <time>2023-08-12T12:48:16Z</time>
      </trkpt>
      <trkpt lat="48.09252" lon="7.06598">
        <ele>1148.5</ele>
        <time>2023-08-12T12:48:18Z</time>
      </trkpt>
      <trkpt lat="48.09249" lon="7.06601">
        <ele>1148.8</ele>
        <time>2023-08-12T12:48:20Z</time>
      </trkpt>
      <trkpt lat="48.09248" lon="7.06603">
        <ele>1148.9</ele>
        <time>2023-08-12T12:48:21Z</time>
      </trkpt>
      <trkpt lat="48.09246" lon="7.06606">
        <ele>1149.1</ele>
        <time>2023-08-12T12:48:23Z</time>
      </trkpt>
      <trkpt lat="48.09245" lon="7.06607">
        <ele>1149.3</ele>
        <time>2023-08-12T12:48:24Z</time>
      </trkpt>
      <trkpt lat="48.0924" lon="7.06611">
        <ele>1149.7</ele>
        <time>2023-08-12T12:48:27Z</time>
      </trkpt>
      <trkpt lat="48.09237" lon="7.06617">
        <ele>1150.1</ele>
        <time>2023-08-12T12:48:30Z</time>
      </trkpt>
      <trkpt lat="48.09237" lon="7.06619">
        <ele>1150.3</ele>
        <time>2023-08-12T12:48:31Z</time>
      </trkpt>
      <trkpt lat="48.09233" lon="7.06626">
        <ele>1150.8</ele>
        <time>2023-08-12T12:48:35Z</time>
      </trkpt>
      <trkpt lat="48.09232" lon="7.06628">
        <ele>1151</ele>
        <time>2023-08-12T12:48:36Z</time>
      </trkpt>
      <trkpt lat="48.09231" lon="7.0663">
        <ele>1151.2</ele>
        <time>2023-08-12T12:48:37Z</time>
      </trkpt>
      <trkpt lat="48.0923" lon="7.06633">
        <ele>1151.3</ele>
        <time>2023-08-12T12:48:38Z</time>
      </trkpt>
      <trkpt lat="48.0923" lon="7.06635">
        <ele>1151.5</ele>
        <time>2023-08-12T12:48:39Z</time>
      </trkpt>
      <trkpt lat="48.09228" lon="7.06636">
        <ele>1151.6</ele>
        <time>2023-08-12T12:48:40Z</time>
      </trkpt>
      <trkpt lat="48.09227" lon="7.06637">
        <ele>1151.8</ele>
        <time>2023-08-12T12:48:41Z</time>
      </trkpt>
      <trkpt lat="48.09226" lon="7.06637">
        <ele>1151.9</ele>
        <time>2023-08-12T12:48:42Z</time>
      </trkpt>
      <trkpt lat="48.09225" lon="7.06637">
        <ele>1151.9</ele>
        <time>2023-08-12T12:48:43Z</time>
      </trkpt>
      <trkpt lat="48.09224" lon="7.06638">
        <ele>1152</ele>
        <time>2023-08-12T12:48:44Z</time>
      </trkpt>
      <trkpt lat="48.09223" lon="7.0664">
        <ele>1152.2</ele>
        <time>2023-08-12T12:48:45Z</time>
      </trkpt>
      <trkpt lat="48.09221" lon="7.06641">
        <ele>1152.4</ele>
        <time>2023-08-12T12:48:46Z</time>
      </trkpt>
      <trkpt lat="48.09219" lon="7.06643">
        <ele>1152.6</ele>
        <time>2023-08-12T12:48:47Z</time>
      </trkpt>
      <trkpt lat="48.09217" lon="7.06644">
        <ele>1152.8</ele>
        <time>2023-08-12T12:48:48Z</time>
      </trkpt>
      <trkpt lat="48.09216" lon="7.06645">
        <ele>1152.9</ele>
        <time>2023-08-12T12:48:49Z</time>
      </trkpt>
      <trkpt lat="48.09214" lon="7.06647">
        <ele>1153.1</ele>
        <time>2023-08-12T12:48:50Z</time>
      </trkpt>
      <trkpt lat="48.09214" lon="7.06648">
        <ele>1153.2</ele>
        <time>2023-08-12T12:48:51Z</time>
      </trkpt>
      <trkpt lat="48.09213" lon="7.06649">
        <ele>1153.3</ele>
        <time>2023-08-12T12:48:52Z</time>
      </trkpt>
      <trkpt lat="48.09212" lon="7.06651">
        <ele>1153.4</ele>
        <time>2023-08-12T12:48:53Z</time>
      </trkpt>
      <trkpt lat="48.0921" lon="7.06652">
        <ele>1153.6</ele>
        <time>2023-08-12T12:48:54Z</time>
      </trkpt>
      <trkpt lat="48.09208" lon="7.06653">
        <ele>1153.8</ele>
        <time>2023-08-12T12:48:55Z</time>
      </trkpt>
      <trkpt lat="48.09207" lon="7.06654">
        <ele>1153.9</ele>
        <time>2023-08-12T12:48:56Z</time>
      </trkpt>
      <trkpt lat="48.09206" lon="7.06656">
        <ele>1154</ele>
        <time>2023-08-12T12:48:57Z</time>
      </trkpt>
      <trkpt lat="48.09205" lon="7.06656">
        <ele>1154.2</ele>
        <time>2023-08-12T12:48:58Z</time>
      </trkpt>
      <trkpt lat="48.09203" lon="7.06657">
        <ele>1154.3</ele>
        <time>2023-08-12T12:48:59Z</time>
      </trkpt>
      <trkpt lat="48.09202" lon="7.06658">
        <ele>1154.4</ele>
        <time>2023-08-12T12:49:00Z</time>
      </trkpt>
      <trkpt lat="48.09201" lon="7.06659">
        <ele>1154.6</ele>
        <time>2023-08-12T12:49:01Z</time>
      </trkpt>
      <trkpt lat="48.09199" lon="7.0666">
        <ele>1154.7</ele>
        <time>2023-08-12T12:49:02Z</time>
      </trkpt>
      <trkpt lat="48.09198" lon="7.06661">
        <ele>1154.8</ele>
        <time>2023-08-12T12:49:03Z</time>
      </trkpt>
      <trkpt lat="48.09197" lon="7.06662">
        <ele>1154.9</ele>
        <time>2023-08-12T12:49:04Z</time>
      </trkpt>
      <trkpt lat="48.09196" lon="7.06664">
        <ele>1155.1</ele>
        <time>2023-08-12T12:49:05Z</time>
      </trkpt>
      <trkpt lat="48.09189" lon="7.06674">
        <ele>1155.9</ele>
        <time>2023-08-12T12:49:11Z</time>
      </trkpt>
      <trkpt lat="48.09184" lon="7.06684">
        <ele>1156.6</ele>
        <time>2023-08-12T12:49:16Z</time>
      </trkpt>
      <trkpt lat="48.09183" lon="7.06685">
        <ele>1156.8</ele>
        <time>2023-08-12T12:49:17Z</time>
      </trkpt>
      <trkpt lat="48.09181" lon="7.06687">
        <ele>1156.9</ele>
        <time>2023-08-12T12:49:18Z</time>
      </trkpt>
      <trkpt lat="48.0918" lon="7.06694">
        <ele>1157.3</ele>
        <time>2023-08-12T12:49:21Z</time>
      </trkpt>
      <trkpt lat="48.09179" lon="7.06696">
        <ele>1157.5</ele>
        <time>2023-08-12T12:49:22Z</time>
      </trkpt>
      <trkpt lat="48.09178" lon="7.06702">
        <ele>1157.8</ele>
        <time>2023-08-12T12:49:24Z</time>
      </trkpt>
      <trkpt lat="48.09177" lon="7.06713">
        <ele>1158.5</ele>
        <time>2023-08-12T12:49:29Z</time>
      </trkpt>
      <trkpt lat="48.09177" lon="7.06716">
        <ele>1158.7</ele>
        <time>2023-08-12T12:49:30Z</time>
      </trkpt>
      <trkpt lat="48.09177" lon="7.06721">
        <ele>1159.1</ele>
        <time>2023-08-12T12:49:33Z</time>
      </trkpt>
      <trkpt lat="48.09177" lon="7.06723">
        <ele>1159.2</ele>
        <time>2023-08-12T12:49:34Z</time>
      </trkpt>
      <trkpt lat="48.09177" lon="7.06724">
        <ele>1159.3</ele>
        <time>2023-08-12T12:49:35Z</time>
      </trkpt>
      <trkpt lat="48.09176" lon="7.06725">
        <ele>1159.4</ele>
        <time>2023-08-12T12:49:36Z</time>
      </trkpt>
      <trkpt lat="48.09176" lon="7.06727">
        <ele>1159.5</ele>
        <time>2023-08-12T12:49:37Z</time>
      </trkpt>
      <trkpt lat="48.09175" lon="7.06729">
        <ele>1159.6</ele>
        <time>2023-08-12T12:49:38Z</time>
      </trkpt>
      <trkpt lat="48.09175" lon="7.06736">
        <ele>1160.1</ele>
        <time>2023-08-12T12:49:40Z</time>
      </trkpt>
      <trkpt lat="48.09176" lon="7.06739">
        <ele>1160.3</ele>
        <time>2023-08-12T12:49:41Z</time>
      </trkpt>
      <trkpt lat="48.09176" lon="7.06751">
        <ele>1161.1</ele>
        <time>2023-08-12T12:49:45Z</time>
      </trkpt>
      <trkpt lat="48.09176" lon="7.06755">
        <ele>1161.4</ele>
        <time>2023-08-12T12:49:47Z</time>
      </trkpt>
      <trkpt lat="48.09177" lon="7.06758">
        <ele>1161.6</ele>
        <time>2023-08-12T12:49:49Z</time>
      </trkpt>
      <trkpt lat="48.09177" lon="7.0676">
        <ele>1161.7</ele>
        <time>2023-08-12T12:49:50Z</time>
      </trkpt>
      <trkpt lat="48.09177" lon="7.06763">
        <ele>1162</ele>
        <time>2023-08-12T12:49:52Z</time>
      </trkpt>
      <trkpt lat="48.09177" lon="7.06765">
        <ele>1162.1</ele>
        <time>2023-08-12T12:49:53Z</time>
      </trkpt>
      <trkpt lat="48.09177" lon="7.06767">
        <ele>1162.2</ele>
        <time>2023-08-12T12:49:54Z</time>
      </trkpt>
      <trkpt lat="48.09177" lon="7.06769">
        <ele>1162.3</ele>
        <time>2023-08-12T12:49:55Z</time>
      </trkpt>
      <trkpt lat="48.09177" lon="7.06771">
        <ele>1162.5</ele>
        <time>2023-08-12T12:49:56Z</time>
      </trkpt>
      <trkpt lat="48.09176" lon="7.06774">
        <ele>1162.7</ele>
        <time>2023-08-12T12:49:57Z</time>
      </trkpt>
      <trkpt lat="48.09176" lon="7.06776">
        <ele>1162.9</ele>
        <time>2023-08-12T12:49:58Z</time>
      </trkpt>
      <trkpt lat="48.09176" lon="7.06778">
        <ele>1163</ele>
        <time>2023-08-12T12:49:59Z</time>
      </trkpt>
      <trkpt lat="48.09176" lon="7.0678">
        <ele>1163.2</ele>
        <time>2023-08-12T12:50:00Z</time>
      </trkpt>
      <trkpt lat="48.09176" lon="7.06783">
        <ele>1163.4</ele>
        <time>2023-08-12T12:50:01Z</time>
      </trkpt>
      <trkpt lat="48.09175" lon="7.06795">
        <ele>1164.1</ele>
        <time>2023-08-12T12:50:05Z</time>
      </trkpt>
      <trkpt lat="48.09175" lon="7.06804">
        <ele>1164.7</ele>
        <time>2023-08-12T12:50:08Z</time>
      </trkpt>
      <trkpt lat="48.09177" lon="7.06815">
        <ele>1165.1</ele>
        <time>2023-08-12T12:50:12Z</time>
      </trkpt>
      <trkpt lat="48.09177" lon="7.06817">
        <ele>1165.2</ele>
        <time>2023-08-12T12:50:13Z</time>
      </trkpt>
      <trkpt lat="48.09176" lon="7.06822">
        <ele>1165.5</ele>
        <time>2023-08-12T12:50:15Z</time>
      </trkpt>
      <trkpt lat="48.09175" lon="7.06825">
        <ele>1165.7</ele>
        <time>2023-08-12T12:50:16Z</time>
      </trkpt>
      <trkpt lat="48.09174" lon="7.06829">
        <ele>1165.9</ele>
        <time>2023-08-12T12:50:17Z</time>
      </trkpt>
      <trkpt lat="48.09172" lon="7.06833">
        <ele>1166.1</ele>
        <time>2023-08-12T12:50:18Z</time>
      </trkpt>
      <trkpt lat="48.0917" lon="7.06838">
        <ele>1166.4</ele>
        <time>2023-08-12T12:50:19Z</time>
      </trkpt>
      <trkpt lat="48.09164" lon="7.06846">
        <ele>1167</ele>
        <time>2023-08-12T12:50:22Z</time>
      </trkpt>
      <trkpt lat="48.09163" lon="7.06848">
        <ele>1167.1</ele>
        <time>2023-08-12T12:50:23Z</time>
      </trkpt>
      <trkpt lat="48.09162" lon="7.0685">
        <ele>1167.2</ele>
        <time>2023-08-12T12:50:24Z</time>
      </trkpt>
      <trkpt lat="48.09162" lon="7.06851">
        <ele>1167.2</ele>
        <time>2023-08-12T12:50:25Z</time>
      </trkpt>
      <trkpt lat="48.09162" lon="7.06851">
        <ele>1167.2</ele>
        <time>2023-08-12T12:50:26Z</time>
      </trkpt>
      <trkpt lat="48.09162" lon="7.06852">
        <ele>1167.3</ele>
        <time>2023-08-12T12:50:27Z</time>
      </trkpt>
      <trkpt lat="48.09163" lon="7.06853">
        <ele>1167.4</ele>
        <time>2023-08-12T12:50:28Z</time>
      </trkpt>
      <trkpt lat="48.09164" lon="7.06855">
        <ele>1167.4</ele>
        <time>2023-08-12T12:50:29Z</time>
      </trkpt>
      <trkpt lat="48.09164" lon="7.06858">
        <ele>1167.6</ele>
        <time>2023-08-12T12:50:31Z</time>
      </trkpt>
      <trkpt lat="48.09164" lon="7.0686">
        <ele>1167.6</ele>
        <time>2023-08-12T12:50:32Z</time>
      </trkpt>
      <trkpt lat="48.09164" lon="7.06861">
        <ele>1167.7</ele>
        <time>2023-08-12T12:50:33Z</time>
      </trkpt>
      <trkpt lat="48.09164" lon="7.06862">
        <ele>1167.7</ele>
        <time>2023-08-12T12:50:34Z</time>
      </trkpt>
      <trkpt lat="48.09165" lon="7.06864">
        <ele>1167.8</ele>
        <time>2023-08-12T12:50:35Z</time>
      </trkpt>
      <trkpt lat="48.09165" lon="7.06865">
        <ele>1167.8</ele>
        <time>2023-08-12T12:50:36Z</time>
      </trkpt>
      <trkpt lat="48.09177" lon="7.06887">
        <ele>1168.6</ele>
        <time>2023-08-12T13:48:44Z</time>
      </trkpt>
      <trkpt lat="48.09179" lon="7.06887">
        <ele>1168.6</ele>
        <time>2023-08-12T13:48:46Z</time>
      </trkpt>
      <trkpt lat="48.09179" lon="7.06887">
        <ele>1168.6</ele>
        <time>2023-08-12T13:48:47Z</time>
      </trkpt>
      <trkpt lat="48.09181" lon="7.06888">
        <ele>1168.6</ele>
        <time>2023-08-12T13:48:50Z</time>
      </trkpt>
      <trkpt lat="48.09184" lon="7.06889">
        <ele>1168.6</ele>
        <time>2023-08-12T13:48:53Z</time>
      </trkpt>
      <trkpt lat="48.09186" lon="7.0689">
        <ele>1168.6</ele>
        <time>2023-08-12T13:48:56Z</time>
      </trkpt>
      <trkpt lat="48.09188" lon="7.0689">
        <ele>1168.6</ele>
        <time>2023-08-12T13:48:59Z</time>
      </trkpt>
      <trkpt lat="48.0919" lon="7.06889">
        <ele>1168.6</ele>
        <time>2023-08-12T13:49:02Z</time>
      </trkpt>
      <trkpt lat="48.09191" lon="7.06889">
        <ele>1168.6</ele>
        <time>2023-08-12T13:49:03Z</time>
      </trkpt>
      <trkpt lat="48.09192" lon="7.06888">
        <ele>1168.6</ele>
        <time>2023-08-12T13:49:05Z</time>
      </trkpt>
      <trkpt lat="48.09194" lon="7.06888">
        <ele>1168.6</ele>
        <time>2023-08-12T13:49:08Z</time>
      </trkpt>
      <trkpt lat="48.09195" lon="7.06887">
        <ele>1168.5</ele>
        <time>2023-08-12T13:49:09Z</time>
      </trkpt>
      <trkpt lat="48.09196" lon="7.06886">
        <ele>1168.5</ele>
        <time>2023-08-12T13:49:10Z</time>
      </trkpt>
      <trkpt lat="48.09197" lon="7.06886">
        <ele>1168.5</ele>
        <time>2023-08-12T13:49:11Z</time>
      </trkpt>
      <trkpt lat="48.09198" lon="7.06886">
        <ele>1168.5</ele>
        <time>2023-08-12T13:49:14Z</time>
      </trkpt>
      <trkpt lat="48.09198" lon="7.06886">
        <ele>1168.5</ele>
        <time>2023-08-12T13:49:16Z</time>
      </trkpt>
      <trkpt lat="48.09198" lon="7.06886">
        <ele>1168.5</ele>
        <time>2023-08-12T13:49:17Z</time>
      </trkpt>
      <trkpt lat="48.09198" lon="7.06886">
        <ele>1168.5</ele>
        <time>2023-08-12T13:49:19Z</time>
      </trkpt>
      <trkpt lat="48.09199" lon="7.06887">
        <ele>1168.5</ele>
        <time>2023-08-12T13:49:23Z</time>
      </trkpt>
      <trkpt lat="48.092" lon="7.06889">
        <ele>1168.5</ele>
        <time>2023-08-12T13:49:24Z</time>
      </trkpt>
      <trkpt lat="48.09202" lon="7.06892">
        <ele>1168.4</ele>
        <time>2023-08-12T13:49:26Z</time>
      </trkpt>
      <trkpt lat="48.09203" lon="7.06893">
        <ele>1168.4</ele>
        <time>2023-08-12T13:49:27Z</time>
      </trkpt>
      <trkpt lat="48.09204" lon="7.06896">
        <ele>1168.4</ele>
        <time>2023-08-12T13:49:28Z</time>
      </trkpt>
      <trkpt lat="48.09208" lon="7.06905">
        <ele>1168.3</ele>
        <time>2023-08-12T13:49:33Z</time>
      </trkpt>
      <trkpt lat="48.09209" lon="7.06906">
        <ele>1168.3</ele>
        <time>2023-08-12T13:49:34Z</time>
      </trkpt>
      <trkpt lat="48.0921" lon="7.06906">
        <ele>1168.3</ele>
        <time>2023-08-12T13:49:35Z</time>
      </trkpt>
      <trkpt lat="48.0921" lon="7.06906">
        <ele>1168.3</ele>
        <time>2023-08-12T13:49:36Z</time>
      </trkpt>
      <trkpt lat="48.0921" lon="7.06907">
        <ele>1168.2</ele>
        <time>2023-08-12T13:49:38Z</time>
      </trkpt>
      <trkpt lat="48.09211" lon="7.06909">
        <ele>1168.2</ele>
        <time>2023-08-12T13:49:43Z</time>
      </trkpt>
      <trkpt lat="48.09212" lon="7.0691">
        <ele>1168.2</ele>
        <time>2023-08-12T13:49:45Z</time>
      </trkpt>
      <trkpt lat="48.09213" lon="7.0691">
        <ele>1168.2</ele>
        <time>2023-08-12T13:49:46Z</time>
      </trkpt>
      <trkpt lat="48.09213" lon="7.0691">
        <ele>1168.2</ele>
        <time>2023-08-12T13:49:48Z</time>
      </trkpt>
      <trkpt lat="48.09215" lon="7.06911">
        <ele>1168.1</ele>
        <time>2023-08-12T13:49:51Z</time>
      </trkpt>
      <trkpt lat="48.09216" lon="7.06911">
        <ele>1168.1</ele>
        <time>2023-08-12T13:49:52Z</time>
      </trkpt>
      <trkpt lat="48.09215" lon="7.06911">
        <ele>1168.1</ele>
        <time>2023-08-12T13:49:53Z</time>
      </trkpt>
      <trkpt lat="48.09215" lon="7.06911">
        <ele>1168.1</ele>
        <time>2023-08-12T13:49:54Z</time>
      </trkpt>
      <trkpt lat="48.09216" lon="7.06912">
        <ele>1168.1</ele>
        <time>2023-08-12T13:49:55Z</time>
      </trkpt>
      <trkpt lat="48.09216" lon="7.06913">
        <ele>1168.1</ele>
        <time>2023-08-12T13:49:56Z</time>
      </trkpt>
      <trkpt lat="48.09217" lon="7.06913">
        <ele>1168.1</ele>
        <time>2023-08-12T13:49:57Z</time>
      </trkpt>
      <trkpt lat="48.09218" lon="7.06914">
        <ele>1168.1</ele>
        <time>2023-08-12T13:49:58Z</time>
      </trkpt>
      <trkpt lat="48.0922" lon="7.06915">
        <ele>1168</ele>
        <time>2023-08-12T13:49:59Z</time>
      </trkpt>
      <trkpt lat="48.09225" lon="7.06919">
        <ele>1167.9</ele>
        <time>2023-08-12T13:50:02Z</time>
      </trkpt>
      <trkpt lat="48.09225" lon="7.0692">
        <ele>1167.9</ele>
        <time>2023-08-12T13:50:03Z</time>
      </trkpt>
      <trkpt lat="48.09225" lon="7.0692">
        <ele>1167.9</ele>
        <time>2023-08-12T13:50:04Z</time>
      </trkpt>
      <trkpt lat="48.09226" lon="7.06921">
        <ele>1167.9</ele>
        <time>2023-08-12T13:50:06Z</time>
      </trkpt>
      <trkpt lat="48.09226" lon="7.06921">
        <ele>1167.9</ele>
        <time>2023-08-12T13:50:10Z</time>
      </trkpt>
      <trkpt lat="48.09229" lon="7.06919">
        <ele>1167.8</ele>
        <time>2023-08-12T13:50:13Z</time>
      </trkpt>
      <trkpt lat="48.0923" lon="7.06918">
        <ele>1167.8</ele>
        <time>2023-08-12T13:50:14Z</time>
      </trkpt>
      <trkpt lat="48.09232" lon="7.06917">
        <ele>1167.7</ele>
        <time>2023-08-12T13:50:15Z</time>
      </trkpt>
      <trkpt lat="48.09238" lon="7.06913">
        <ele>1167.4</ele>
        <time>2023-08-12T13:50:17Z</time>
      </trkpt>
      <trkpt lat="48.09241" lon="7.0691">
        <ele>1167.1</ele>
        <time>2023-08-12T13:50:18Z</time>
      </trkpt>
      <trkpt lat="48.09245" lon="7.06908">
        <ele>1166.8</ele>
        <time>2023-08-12T13:50:19Z</time>
      </trkpt>
      <trkpt lat="48.09248" lon="7.06906">
        <ele>1166.6</ele>
        <time>2023-08-12T13:50:20Z</time>
      </trkpt>
      <trkpt lat="48.09258" lon="7.06906">
        <ele>1165.9</ele>
        <time>2023-08-12T13:50:22Z</time>
      </trkpt>
      <trkpt lat="48.09262" lon="7.06906">
        <ele>1165.7</ele>
        <time>2023-08-12T13:50:23Z</time>
      </trkpt>
      <trkpt lat="48.09266" lon="7.06907">
        <ele>1165.4</ele>
        <time>2023-08-12T13:50:24Z</time>
      </trkpt>
      <trkpt lat="48.09271" lon="7.06908">
        <ele>1165.1</ele>
        <time>2023-08-12T13:50:25Z</time>
      </trkpt>
      <trkpt lat="48.09274" lon="7.06909">
        <ele>1164.9</ele>
        <time>2023-08-12T13:50:26Z</time>
      </trkpt>
      <trkpt lat="48.09277" lon="7.06911">
        <ele>1164.7</ele>
        <time>2023-08-12T13:50:27Z</time>
      </trkpt>
      <trkpt lat="48.0928" lon="7.06913">
        <ele>1164.6</ele>
        <time>2023-08-12T13:50:28Z</time>
      </trkpt>
      <trkpt lat="48.09283" lon="7.06915">
        <ele>1164.4</ele>
        <time>2023-08-12T13:50:29Z</time>
      </trkpt>
      <trkpt lat="48.09293" lon="7.06921">
        <ele>1163.8</ele>
        <time>2023-08-12T13:50:32Z</time>
      </trkpt>
      <trkpt lat="48.09296" lon="7.06922">
        <ele>1163.6</ele>
        <time>2023-08-12T13:50:33Z</time>
      </trkpt>
      <trkpt lat="48.093" lon="7.06923">
        <ele>1163.3</ele>
        <time>2023-08-12T13:50:34Z</time>
      </trkpt>
      <trkpt lat="48.09304" lon="7.06923">
        <ele>1163</ele>
        <time>2023-08-12T13:50:35Z</time>
      </trkpt>
      <trkpt lat="48.09315" lon="7.06926">
        <ele>1161.6</ele>
        <time>2023-08-12T13:50:37Z</time>
      </trkpt>
      <trkpt lat="48.09322" lon="7.06929">
        <ele>1160.6</ele>
        <time>2023-08-12T13:50:38Z</time>
      </trkpt>
      <trkpt lat="48.09329" lon="7.06931">
        <ele>1159.6</ele>
        <time>2023-08-12T13:50:39Z</time>
      </trkpt>
      <trkpt lat="48.09336" lon="7.06932">
        <ele>1158.6</ele>
        <time>2023-08-12T13:50:40Z</time>
      </trkpt>
      <trkpt lat="48.09342" lon="7.06933">
        <ele>1157.8</ele>
        <time>2023-08-12T13:50:41Z</time>
      </trkpt>
      <trkpt lat="48.09348" lon="7.06935">
        <ele>1156.9</ele>
        <time>2023-08-12T13:50:42Z</time>
      </trkpt>
      <trkpt lat="48.09359" lon="7.06946">
        <ele>1155.4</ele>
        <time>2023-08-12T13:50:44Z</time>
      </trkpt>
      <trkpt lat="48.09361" lon="7.06951">
        <ele>1154.9</ele>
        <time>2023-08-12T13:50:45Z</time>
      </trkpt>
      <trkpt lat="48.09362" lon="7.06955">
        <ele>1154.6</ele>
        <time>2023-08-12T13:50:46Z</time>
      </trkpt>
      <trkpt lat="48.09364" lon="7.06958">
        <ele>1154.4</ele>
        <time>2023-08-12T13:50:47Z</time>
      </trkpt>
      <trkpt lat="48.09366" lon="7.06961">
        <ele>1154</ele>
        <time>2023-08-12T13:50:48Z</time>
      </trkpt>
      <trkpt lat="48.09367" lon="7.06965">
        <ele>1153.7</ele>
        <time>2023-08-12T13:50:49Z</time>
      </trkpt>
      <trkpt lat="48.09368" lon="7.06968">
        <ele>1153.4</ele>
        <time>2023-08-12T13:50:50Z</time>
      </trkpt>
      <trkpt lat="48.09371" lon="7.06971">
        <ele>1152.9</ele>
        <time>2023-08-12T13:50:51Z</time>
      </trkpt>
      <trkpt lat="48.09374" lon="7.06974">
        <ele>1152.3</ele>
        <time>2023-08-12T13:50:52Z</time>
      </trkpt>
      <trkpt lat="48.09377" lon="7.06976">
        <ele>1151.8</ele>
        <time>2023-08-12T13:50:53Z</time>
      </trkpt>
      <trkpt lat="48.09381" lon="7.06979">
        <ele>1151.1</ele>
        <time>2023-08-12T13:50:54Z</time>
      </trkpt>
      <trkpt lat="48.09384" lon="7.06982">
        <ele>1150.5</ele>
        <time>2023-08-12T13:50:55Z</time>
      </trkpt>
      <trkpt lat="48.0939" lon="7.06992">
        <ele>1149</ele>
        <time>2023-08-12T13:50:57Z</time>
      </trkpt>
      <trkpt lat="48.09394" lon="7.06999">
        <ele>1148.2</ele>
        <time>2023-08-12T13:50:58Z</time>
      </trkpt>
      <trkpt lat="48.09398" lon="7.07007">
        <ele>1147.3</ele>
        <time>2023-08-12T13:50:59Z</time>
      </trkpt>
      <trkpt lat="48.09402" lon="7.07016">
        <ele>1146.4</ele>
        <time>2023-08-12T13:51:00Z</time>
      </trkpt>
      <trkpt lat="48.09405" lon="7.07038">
        <ele>1145.1</ele>
        <time>2023-08-12T13:51:02Z</time>
      </trkpt>
      <trkpt lat="48.09406" lon="7.07049">
        <ele>1144.8</ele>
        <time>2023-08-12T13:51:03Z</time>
      </trkpt>
      <trkpt lat="48.09407" lon="7.07058">
        <ele>1144.5</ele>
        <time>2023-08-12T13:51:04Z</time>
      </trkpt>
      <trkpt lat="48.0941" lon="7.07064">
        <ele>1144.3</ele>
        <time>2023-08-12T13:51:05Z</time>
      </trkpt>
      <trkpt lat="48.09412" lon="7.07069">
        <ele>1143.9</ele>
        <time>2023-08-12T13:51:06Z</time>
      </trkpt>
      <trkpt lat="48.09413" lon="7.07072">
        <ele>1143.5</ele>
        <time>2023-08-12T13:51:07Z</time>
      </trkpt>
      <trkpt lat="48.09414" lon="7.07075">
        <ele>1143.3</ele>
        <time>2023-08-12T13:51:08Z</time>
      </trkpt>
      <trkpt lat="48.09415" lon="7.07078">
        <ele>1143</ele>
        <time>2023-08-12T13:51:09Z</time>
      </trkpt>
      <trkpt lat="48.09415" lon="7.07081">
        <ele>1142.6</ele>
        <time>2023-08-12T13:51:10Z</time>
      </trkpt>
      <trkpt lat="48.09417" lon="7.07085">
        <ele>1142.2</ele>
        <time>2023-08-12T13:51:11Z</time>
      </trkpt>
      <trkpt lat="48.09424" lon="7.07096">
        <ele>1140.6</ele>
        <time>2023-08-12T13:51:14Z</time>
      </trkpt>
      <trkpt lat="48.09427" lon="7.071">
        <ele>1140</ele>
        <time>2023-08-12T13:51:15Z</time>
      </trkpt>
      <trkpt lat="48.0943" lon="7.07105">
        <ele>1139.4</ele>
        <time>2023-08-12T13:51:16Z</time>
      </trkpt>
      <trkpt lat="48.09434" lon="7.0712">
        <ele>1138</ele>
        <time>2023-08-12T13:51:19Z</time>
      </trkpt>
      <trkpt lat="48.09435" lon="7.07123">
        <ele>1137.7</ele>
        <time>2023-08-12T13:51:20Z</time>
      </trkpt>
      <trkpt lat="48.09436" lon="7.07127">
        <ele>1137.4</ele>
        <time>2023-08-12T13:51:21Z</time>
      </trkpt>
      <trkpt lat="48.09437" lon="7.07131">
        <ele>1137</ele>
        <time>2023-08-12T13:51:22Z</time>
      </trkpt>
      <trkpt lat="48.09439" lon="7.07137">
        <ele>1136.6</ele>
        <time>2023-08-12T13:51:23Z</time>
      </trkpt>
      <trkpt lat="48.09441" lon="7.07143">
        <ele>1136</ele>
        <time>2023-08-12T13:51:24Z</time>
      </trkpt>
      <trkpt lat="48.09447" lon="7.07154">
        <ele>1135.1</ele>
        <time>2023-08-12T13:51:26Z</time>
      </trkpt>
      <trkpt lat="48.09449" lon="7.07159">
        <ele>1134.7</ele>
        <time>2023-08-12T13:51:27Z</time>
      </trkpt>
      <trkpt lat="48.09451" lon="7.07163">
        <ele>1134.3</ele>
        <time>2023-08-12T13:51:28Z</time>
      </trkpt>
      <trkpt lat="48.09453" lon="7.07167">
        <ele>1133.9</ele>
        <time>2023-08-12T13:51:29Z</time>
      </trkpt>
      <trkpt lat="48.09455" lon="7.0717">
        <ele>1133.6</ele>
        <time>2023-08-12T13:51:30Z</time>
      </trkpt>
      <trkpt lat="48.09456" lon="7.07173">
        <ele>1133.3</ele>
        <time>2023-08-12T13:51:31Z</time>
      </trkpt>
      <trkpt lat="48.0946" lon="7.07184">
        <ele>1132.2</ele>
        <time>2023-08-12T13:51:33Z</time>
      </trkpt>
      <trkpt lat="48.09473" lon="7.07208">
        <ele>1130.1</ele>
        <time>2023-08-12T13:51:36Z</time>
      </trkpt>
      <trkpt lat="48.09477" lon="7.07216">
        <ele>1129.7</ele>
        <time>2023-08-12T13:51:37Z</time>
      </trkpt>
      <trkpt lat="48.09486" lon="7.07231">
        <ele>1129.2</ele>
        <time>2023-08-12T13:51:39Z</time>
      </trkpt>
      <trkpt lat="48.09488" lon="7.07236">
        <ele>1129.1</ele>
        <time>2023-08-12T13:51:40Z</time>
      </trkpt>
      <trkpt lat="48.09492" lon="7.07241">
        <ele>1129.1</ele>
        <time>2023-08-12T13:51:41Z</time>
      </trkpt>
      <trkpt lat="48.09494" lon="7.07245">
        <ele>1129</ele>
        <time>2023-08-12T13:51:42Z</time>
      </trkpt>
      <trkpt lat="48.09496" lon="7.07249">
        <ele>1129</ele>
        <time>2023-08-12T13:51:43Z</time>
      </trkpt>
      <trkpt lat="48.09499" lon="7.07253">
        <ele>1129</ele>
        <time>2023-08-12T13:51:44Z</time>
      </trkpt>
      <trkpt lat="48.09502" lon="7.07256">
        <ele>1129</ele>
        <time>2023-08-12T13:51:45Z</time>
      </trkpt>
      <trkpt lat="48.09504" lon="7.0726">
        <ele>1129</ele>
        <time>2023-08-12T13:51:46Z</time>
      </trkpt>
      <trkpt lat="48.09514" lon="7.07288">
        <ele>1128.9</ele>
        <time>2023-08-12T13:51:51Z</time>
      </trkpt>
      <trkpt lat="48.09516" lon="7.07293">
        <ele>1128.8</ele>
        <time>2023-08-12T13:51:52Z</time>
      </trkpt>
      <trkpt lat="48.09519" lon="7.07303">
        <ele>1128.7</ele>
        <time>2023-08-12T13:51:54Z</time>
      </trkpt>
      <trkpt lat="48.09522" lon="7.07308">
        <ele>1128.7</ele>
        <time>2023-08-12T13:51:55Z</time>
      </trkpt>
      <trkpt lat="48.09525" lon="7.07313">
        <ele>1128.6</ele>
        <time>2023-08-12T13:51:56Z</time>
      </trkpt>
      <trkpt lat="48.09526" lon="7.07318">
        <ele>1128.6</ele>
        <time>2023-08-12T13:51:57Z</time>
      </trkpt>
      <trkpt lat="48.09528" lon="7.07324">
        <ele>1128.6</ele>
        <time>2023-08-12T13:51:58Z</time>
      </trkpt>
      <trkpt lat="48.09529" lon="7.0733">
        <ele>1128.6</ele>
        <time>2023-08-12T13:51:59Z</time>
      </trkpt>
      <trkpt lat="48.09531" lon="7.07335">
        <ele>1128.6</ele>
        <time>2023-08-12T13:52:00Z</time>
      </trkpt>
      <trkpt lat="48.09533" lon="7.0734">
        <ele>1128.5</ele>
        <time>2023-08-12T13:52:01Z</time>
      </trkpt>
      <trkpt lat="48.09535" lon="7.07345">
        <ele>1128.5</ele>
        <time>2023-08-12T13:52:02Z</time>
      </trkpt>
      <trkpt lat="48.09537" lon="7.0735">
        <ele>1128.5</ele>
        <time>2023-08-12T13:52:03Z</time>
      </trkpt>
      <trkpt lat="48.09539" lon="7.07356">
        <ele>1128.4</ele>
        <time>2023-08-12T13:52:04Z</time>
      </trkpt>
      <trkpt lat="48.09541" lon="7.07361">
        <ele>1128.4</ele>
        <time>2023-08-12T13:52:05Z</time>
      </trkpt>
      <trkpt lat="48.09543" lon="7.07367">
        <ele>1128.3</ele>
        <time>2023-08-12T13:52:06Z</time>
      </trkpt>
      <trkpt lat="48.09545" lon="7.07373">
        <ele>1128.3</ele>
        <time>2023-08-12T13:52:07Z</time>
      </trkpt>
      <trkpt lat="48.09546" lon="7.07379">
        <ele>1128.2</ele>
        <time>2023-08-12T13:52:08Z</time>
      </trkpt>
      <trkpt lat="48.09546" lon="7.07385">
        <ele>1128.1</ele>
        <time>2023-08-12T13:52:09Z</time>
      </trkpt>
      <trkpt lat="48.09549" lon="7.07404">
        <ele>1127.5</ele>
        <time>2023-08-12T13:52:12Z</time>
      </trkpt>
      <trkpt lat="48.0955" lon="7.0741">
        <ele>1127.3</ele>
        <time>2023-08-12T13:52:13Z</time>
      </trkpt>
      <trkpt lat="48.09551" lon="7.07417">
        <ele>1127.1</ele>
        <time>2023-08-12T13:52:14Z</time>
      </trkpt>
      <trkpt lat="48.09555" lon="7.07432">
        <ele>1126.7</ele>
        <time>2023-08-12T13:52:16Z</time>
      </trkpt>
      <trkpt lat="48.09557" lon="7.0744">
        <ele>1126.6</ele>
        <time>2023-08-12T13:52:17Z</time>
      </trkpt>
      <trkpt lat="48.0956" lon="7.07448">
        <ele>1126.4</ele>
        <time>2023-08-12T13:52:18Z</time>
      </trkpt>
      <trkpt lat="48.09569" lon="7.07469">
        <ele>1126.3</ele>
        <time>2023-08-12T13:52:21Z</time>
      </trkpt>
      <trkpt lat="48.09579" lon="7.0749">
        <ele>1126.1</ele>
        <time>2023-08-12T13:52:24Z</time>
      </trkpt>
      <trkpt lat="48.09585" lon="7.07503">
        <ele>1125.8</ele>
        <time>2023-08-12T13:52:26Z</time>
      </trkpt>
      <trkpt lat="48.09598" lon="7.07524">
        <ele>1125</ele>
        <time>2023-08-12T13:52:29Z</time>
      </trkpt>
      <trkpt lat="48.09606" lon="7.07538">
        <ele>1124.6</ele>
        <time>2023-08-12T13:52:31Z</time>
      </trkpt>
      <trkpt lat="48.09615" lon="7.07551">
        <ele>1124.3</ele>
        <time>2023-08-12T13:52:33Z</time>
      </trkpt>
      <trkpt lat="48.09618" lon="7.07553">
        <ele>1124.2</ele>
        <time>2023-08-12T13:52:34Z</time>
      </trkpt>
      <trkpt lat="48.09622" lon="7.07558">
        <ele>1124.1</ele>
        <time>2023-08-12T13:52:35Z</time>
      </trkpt>
      <trkpt lat="48.09625" lon="7.07563">
        <ele>1123.9</ele>
        <time>2023-08-12T13:52:36Z</time>
      </trkpt>
      <trkpt lat="48.09629" lon="7.07568">
        <ele>1123.8</ele>
        <time>2023-08-12T13:52:37Z</time>
      </trkpt>
      <trkpt lat="48.09642" lon="7.07579">
        <ele>1123.4</ele>
        <time>2023-08-12T13:52:40Z</time>
      </trkpt>
      <trkpt lat="48.09651" lon="7.07586">
        <ele>1123.4</ele>
        <time>2023-08-12T13:52:42Z</time>
      </trkpt>
      <trkpt lat="48.09655" lon="7.07588">
        <ele>1123.5</ele>
        <time>2023-08-12T13:52:43Z</time>
      </trkpt>
      <trkpt lat="48.09659" lon="7.0759">
        <ele>1123.6</ele>
        <time>2023-08-12T13:52:44Z</time>
      </trkpt>
      <trkpt lat="48.09662" lon="7.07592">
        <ele>1123.7</ele>
        <time>2023-08-12T13:52:45Z</time>
      </trkpt>
      <trkpt lat="48.09666" lon="7.07595">
        <ele>1123.8</ele>
        <time>2023-08-12T13:52:46Z</time>
      </trkpt>
      <trkpt lat="48.09679" lon="7.07603">
        <ele>1124.3</ele>
        <time>2023-08-12T13:52:50Z</time>
      </trkpt>
      <trkpt lat="48.09682" lon="7.07605">
        <ele>1124.5</ele>
        <time>2023-08-12T13:52:51Z</time>
      </trkpt>
      <trkpt lat="48.09685" lon="7.07606">
        <ele>1124.7</ele>
        <time>2023-08-12T13:52:52Z</time>
      </trkpt>
      <trkpt lat="48.09688" lon="7.07607">
        <ele>1124.9</ele>
        <time>2023-08-12T13:52:53Z</time>
      </trkpt>
      <trkpt lat="48.09692" lon="7.07607">
        <ele>1125.1</ele>
        <time>2023-08-12T13:52:54Z</time>
      </trkpt>
      <trkpt lat="48.09694" lon="7.07608">
        <ele>1125.3</ele>
        <time>2023-08-12T13:52:55Z</time>
      </trkpt>
      <trkpt lat="48.09696" lon="7.07608">
        <ele>1125.5</ele>
        <time>2023-08-12T13:52:56Z</time>
      </trkpt>
      <trkpt lat="48.09699" lon="7.07608">
        <ele>1125.7</ele>
        <time>2023-08-12T13:52:57Z</time>
      </trkpt>
      <trkpt lat="48.09701" lon="7.07607">
        <ele>1126</ele>
        <time>2023-08-12T13:52:58Z</time>
      </trkpt>
      <trkpt lat="48.09703" lon="7.07606">
        <ele>1126.2</ele>
        <time>2023-08-12T13:52:59Z</time>
      </trkpt>
      <trkpt lat="48.09705" lon="7.07605">
        <ele>1126.4</ele>
        <time>2023-08-12T13:53:00Z</time>
      </trkpt>
      <trkpt lat="48.09707" lon="7.07605">
        <ele>1126.6</ele>
        <time>2023-08-12T13:53:01Z</time>
      </trkpt>
      <trkpt lat="48.09709" lon="7.07605">
        <ele>1126.8</ele>
        <time>2023-08-12T13:53:02Z</time>
      </trkpt>
      <trkpt lat="48.09711" lon="7.07606">
        <ele>1127</ele>
        <time>2023-08-12T13:53:03Z</time>
      </trkpt>
      <trkpt lat="48.09713" lon="7.07607">
        <ele>1127.2</ele>
        <time>2023-08-12T13:53:04Z</time>
      </trkpt>
      <trkpt lat="48.09715" lon="7.07608">
        <ele>1127.4</ele>
        <time>2023-08-12T13:53:05Z</time>
      </trkpt>
      <trkpt lat="48.09717" lon="7.07609">
        <ele>1127.6</ele>
        <time>2023-08-12T13:53:06Z</time>
      </trkpt>
      <trkpt lat="48.09719" lon="7.07609">
        <ele>1127.7</ele>
        <time>2023-08-12T13:53:07Z</time>
      </trkpt>
      <trkpt lat="48.09721" lon="7.0761">
        <ele>1127.8</ele>
        <time>2023-08-12T13:53:08Z</time>
      </trkpt>
      <trkpt lat="48.09722" lon="7.07611">
        <ele>1128</ele>
        <time>2023-08-12T13:53:09Z</time>
      </trkpt>
      <trkpt lat="48.09724" lon="7.07612">
        <ele>1128.1</ele>
        <time>2023-08-12T13:53:10Z</time>
      </trkpt>
      <trkpt lat="48.09727" lon="7.07612">
        <ele>1128.3</ele>
        <time>2023-08-12T13:53:11Z</time>
      </trkpt>
      <trkpt lat="48.09729" lon="7.07613">
        <ele>1128.4</ele>
        <time>2023-08-12T13:53:12Z</time>
      </trkpt>
      <trkpt lat="48.09738" lon="7.07614">
        <ele>1129</ele>
        <time>2023-08-12T13:53:16Z</time>
      </trkpt>
      <trkpt lat="48.09739" lon="7.07615">
        <ele>1129.1</ele>
        <time>2023-08-12T13:53:17Z</time>
      </trkpt>
      <trkpt lat="48.09747" lon="7.07615">
        <ele>1129.6</ele>
        <time>2023-08-12T13:53:21Z</time>
      </trkpt>
      <trkpt lat="48.09749" lon="7.07615">
        <ele>1129.8</ele>
        <time>2023-08-12T13:53:22Z</time>
      </trkpt>
      <trkpt lat="48.0975" lon="7.07615">
        <ele>1129.9</ele>
        <time>2023-08-12T13:53:23Z</time>
      </trkpt>
      <trkpt lat="48.09751" lon="7.07615">
        <ele>1130</ele>
        <time>2023-08-12T13:53:24Z</time>
      </trkpt>
      <trkpt lat="48.09752" lon="7.07615">
        <ele>1130.2</ele>
        <time>2023-08-12T13:53:25Z</time>
      </trkpt>
      <trkpt lat="48.09754" lon="7.07615">
        <ele>1130.3</ele>
        <time>2023-08-12T13:53:26Z</time>
      </trkpt>
      <trkpt lat="48.09755" lon="7.07616">
        <ele>1130.5</ele>
        <time>2023-08-12T13:53:27Z</time>
      </trkpt>
      <trkpt lat="48.09756" lon="7.07617">
        <ele>1130.6</ele>
        <time>2023-08-12T13:53:28Z</time>
      </trkpt>
      <trkpt lat="48.09758" lon="7.07618">
        <ele>1130.9</ele>
        <time>2023-08-12T13:53:29Z</time>
      </trkpt>
      <trkpt lat="48.09761" lon="7.07617">
        <ele>1131.2</ele>
        <time>2023-08-12T13:53:30Z</time>
      </trkpt>
      <trkpt lat="48.09763" lon="7.07616">
        <ele>1131.4</ele>
        <time>2023-08-12T13:53:31Z</time>
      </trkpt>
      <trkpt lat="48.09764" lon="7.07617">
        <ele>1131.6</ele>
        <time>2023-08-12T13:53:32Z</time>
      </trkpt>
      <trkpt lat="48.09766" lon="7.07617">
        <ele>1131.8</ele>
        <time>2023-08-12T13:53:33Z</time>
      </trkpt>
      <trkpt lat="48.09767" lon="7.07616">
        <ele>1131.9</ele>
        <time>2023-08-12T13:53:34Z</time>
      </trkpt>
      <trkpt lat="48.09769" lon="7.07615">
        <ele>1132.2</ele>
        <time>2023-08-12T13:53:36Z</time>
      </trkpt>
      <trkpt lat="48.0977" lon="7.07615">
        <ele>1132.3</ele>
        <time>2023-08-12T13:53:37Z</time>
      </trkpt>
      <trkpt lat="48.09773" lon="7.07613">
        <ele>1132.6</ele>
        <time>2023-08-12T13:53:39Z</time>
      </trkpt>
      <trkpt lat="48.09775" lon="7.07614">
        <ele>1132.7</ele>
        <time>2023-08-12T13:53:40Z</time>
      </trkpt>
      <trkpt lat="48.09777" lon="7.07614">
        <ele>1132.9</ele>
        <time>2023-08-12T13:53:41Z</time>
      </trkpt>
      <trkpt lat="48.09779" lon="7.07615">
        <ele>1133.1</ele>
        <time>2023-08-12T13:53:42Z</time>
      </trkpt>
      <trkpt lat="48.09781" lon="7.07615">
        <ele>1133.2</ele>
        <time>2023-08-12T13:53:43Z</time>
      </trkpt>
      <trkpt lat="48.0979" lon="7.07615">
        <ele>1133.8</ele>
        <time>2023-08-12T13:53:48Z</time>
      </trkpt>
      <trkpt lat="48.09791" lon="7.07615">
        <ele>1133.9</ele>
        <time>2023-08-12T13:53:49Z</time>
      </trkpt>
      <trkpt lat="48.09793" lon="7.07615">
        <ele>1134</ele>
        <time>2023-08-12T13:53:50Z</time>
      </trkpt>
      <trkpt lat="48.09799" lon="7.07618">
        <ele>1134.2</ele>
        <time>2023-08-12T13:53:53Z</time>
      </trkpt>
      <trkpt lat="48.09809" lon="7.07623">
        <ele>1134.4</ele>
        <time>2023-08-12T13:53:57Z</time>
      </trkpt>
      <trkpt lat="48.09816" lon="7.07627">
        <ele>1134.5</ele>
        <time>2023-08-12T13:53:59Z</time>
      </trkpt>
      <trkpt lat="48.09827" lon="7.07633">
        <ele>1134.3</ele>
        <time>2023-08-12T13:54:03Z</time>
      </trkpt>
      <trkpt lat="48.09842" lon="7.07642">
        <ele>1133.8</ele>
        <time>2023-08-12T13:54:07Z</time>
      </trkpt>
      <trkpt lat="48.09846" lon="7.07646">
        <ele>1133.5</ele>
        <time>2023-08-12T13:54:08Z</time>
      </trkpt>
      <trkpt lat="48.0985" lon="7.07649">
        <ele>1133.3</ele>
        <time>2023-08-12T13:54:09Z</time>
      </trkpt>
      <trkpt lat="48.0986" lon="7.07662">
        <ele>1132.8</ele>
        <time>2023-08-12T13:54:12Z</time>
      </trkpt>
      <trkpt lat="48.09863" lon="7.07666">
        <ele>1132.7</ele>
        <time>2023-08-12T13:54:13Z</time>
      </trkpt>
      <trkpt lat="48.09866" lon="7.07674">
        <ele>1132.7</ele>
        <time>2023-08-12T13:54:15Z</time>
      </trkpt>
      <trkpt lat="48.09868" lon="7.07677">
        <ele>1132.7</ele>
        <time>2023-08-12T13:54:16Z</time>
      </trkpt>
      <trkpt lat="48.09877" lon="7.07685">
        <ele>1133</ele>
        <time>2023-08-12T13:54:19Z</time>
      </trkpt>
      <trkpt lat="48.0988" lon="7.07688">
        <ele>1133.1</ele>
        <time>2023-08-12T13:54:20Z</time>
      </trkpt>
      <trkpt lat="48.09881" lon="7.0769">
        <ele>1133.2</ele>
        <time>2023-08-12T13:54:21Z</time>
      </trkpt>
      <trkpt lat="48.09883" lon="7.07693">
        <ele>1133.4</ele>
        <time>2023-08-12T13:54:22Z</time>
      </trkpt>
      <trkpt lat="48.09885" lon="7.07695">
        <ele>1133.5</ele>
        <time>2023-08-12T13:54:23Z</time>
      </trkpt>
      <trkpt lat="48.09886" lon="7.07695">
        <ele>1133.5</ele>
        <time>2023-08-12T13:54:24Z</time>
      </trkpt>
      <trkpt lat="48.09888" lon="7.07696">
        <ele>1133.6</ele>
        <time>2023-08-12T13:54:25Z</time>
      </trkpt>
      <trkpt lat="48.09891" lon="7.07697">
        <ele>1133.8</ele>
        <time>2023-08-12T13:54:26Z</time>
      </trkpt>
      <trkpt lat="48.09893" lon="7.07698">
        <ele>1133.8</ele>
        <time>2023-08-12T13:54:27Z</time>
      </trkpt>
      <trkpt lat="48.09895" lon="7.07699">
        <ele>1133.9</ele>
        <time>2023-08-12T13:54:28Z</time>
      </trkpt>
      <trkpt lat="48.09898" lon="7.07701">
        <ele>1134</ele>
        <time>2023-08-12T13:54:29Z</time>
      </trkpt>
      <trkpt lat="48.099" lon="7.07702">
        <ele>1134</ele>
        <time>2023-08-12T13:54:30Z</time>
      </trkpt>
      <trkpt lat="48.09921" lon="7.0771">
        <ele>1133.2</ele>
        <time>2023-08-12T13:54:37Z</time>
      </trkpt>
      <trkpt lat="48.09943" lon="7.07718">
        <ele>1131.8</ele>
        <time>2023-08-12T13:54:41Z</time>
      </trkpt>
      <trkpt lat="48.09947" lon="7.0772">
        <ele>1131.6</ele>
        <time>2023-08-12T13:54:42Z</time>
      </trkpt>
      <trkpt lat="48.09949" lon="7.07722">
        <ele>1131.4</ele>
        <time>2023-08-12T13:54:43Z</time>
      </trkpt>
      <trkpt lat="48.09951" lon="7.07723">
        <ele>1131.3</ele>
        <time>2023-08-12T13:54:44Z</time>
      </trkpt>
      <trkpt lat="48.09952" lon="7.07723">
        <ele>1131.1</ele>
        <time>2023-08-12T13:54:45Z</time>
      </trkpt>
      <trkpt lat="48.09955" lon="7.07724">
        <ele>1130.9</ele>
        <time>2023-08-12T13:54:46Z</time>
      </trkpt>
      <trkpt lat="48.09964" lon="7.0773">
        <ele>1130</ele>
        <time>2023-08-12T13:54:49Z</time>
      </trkpt>
      <trkpt lat="48.09969" lon="7.07729">
        <ele>1129.5</ele>
        <time>2023-08-12T13:54:50Z</time>
      </trkpt>
      <trkpt lat="48.09972" lon="7.07726">
        <ele>1129.2</ele>
        <time>2023-08-12T13:54:51Z</time>
      </trkpt>
      <trkpt lat="48.09973" lon="7.07726">
        <ele>1129.1</ele>
        <time>2023-08-12T13:54:52Z</time>
      </trkpt>
      <trkpt lat="48.09973" lon="7.07726">
        <ele>1129.1</ele>
        <time>2023-08-12T13:54:53Z</time>
      </trkpt>
      <trkpt lat="48.09973" lon="7.07726">
        <ele>1129.1</ele>
        <time>2023-08-12T13:54:55Z</time>
      </trkpt>
      <trkpt lat="48.09973" lon="7.07726">
        <ele>1129.1</ele>
        <time>2023-08-12T13:54:56Z</time>
      </trkpt>
      <trkpt lat="48.09973" lon="7.07726">
        <ele>1129.1</ele>
        <time>2023-08-12T13:54:57Z</time>
      </trkpt>
      <trkpt lat="48.09975" lon="7.07725">
        <ele>1129</ele>
        <time>2023-08-12T13:54:58Z</time>
      </trkpt>
      <trkpt lat="48.09974" lon="7.07724">
        <ele>1128.9</ele>
        <time>2023-08-12T13:54:59Z</time>
      </trkpt>
      <trkpt lat="48.09975" lon="7.07724">
        <ele>1128.9</ele>
        <time>2023-08-12T13:55:00Z</time>
      </trkpt>
      <trkpt lat="48.09976" lon="7.07725">
        <ele>1128.9</ele>
        <time>2023-08-12T13:55:01Z</time>
      </trkpt>
      <trkpt lat="48.09976" lon="7.07725">
        <ele>1128.8</ele>
        <time>2023-08-12T13:55:02Z</time>
      </trkpt>
      <trkpt lat="48.09976" lon="7.07725">
        <ele>1128.8</ele>
        <time>2023-08-12T13:55:03Z</time>
      </trkpt>
      <trkpt lat="48.09976" lon="7.07725">
        <ele>1128.8</ele>
        <time>2023-08-12T13:55:04Z</time>
      </trkpt>
      <trkpt lat="48.09976" lon="7.07725">
        <ele>1128.8</ele>
        <time>2023-08-12T13:55:08Z</time>
      </trkpt>
      <trkpt lat="48.09977" lon="7.07725">
        <ele>1128.7</ele>
        <time>2023-08-12T13:55:09Z</time>
      </trkpt>
      <trkpt lat="48.09978" lon="7.07725">
        <ele>1128.7</ele>
        <time>2023-08-12T13:55:10Z</time>
      </trkpt>
      <trkpt lat="48.0998" lon="7.07725">
        <ele>1128.6</ele>
        <time>2023-08-12T13:55:11Z</time>
      </trkpt>
      <trkpt lat="48.09981" lon="7.07725">
        <ele>1128.5</ele>
        <time>2023-08-12T13:55:12Z</time>
      </trkpt>
      <trkpt lat="48.09983" lon="7.07726">
        <ele>1128.4</ele>
        <time>2023-08-12T13:55:13Z</time>
      </trkpt>
      <trkpt lat="48.09985" lon="7.07727">
        <ele>1128.3</ele>
        <time>2023-08-12T13:55:14Z</time>
      </trkpt>
      <trkpt lat="48.09987" lon="7.07729">
        <ele>1128.2</ele>
        <time>2023-08-12T13:55:15Z</time>
      </trkpt>
      <trkpt lat="48.0999" lon="7.0773">
        <ele>1128</ele>
        <time>2023-08-12T13:55:16Z</time>
      </trkpt>
      <trkpt lat="48.09991" lon="7.07732">
        <ele>1127.9</ele>
        <time>2023-08-12T13:55:17Z</time>
      </trkpt>
      <trkpt lat="48.09993" lon="7.07733">
        <ele>1127.8</ele>
        <time>2023-08-12T13:55:18Z</time>
      </trkpt>
      <trkpt lat="48.09993" lon="7.07733">
        <ele>1127.8</ele>
        <time>2023-08-12T13:55:19Z</time>
      </trkpt>
      <trkpt lat="48.09993" lon="7.07733">
        <ele>1127.8</ele>
        <time>2023-08-12T13:55:20Z</time>
      </trkpt>
      <trkpt lat="48.09993" lon="7.07733">
        <ele>1127.8</ele>
        <time>2023-08-12T13:55:26Z</time>
      </trkpt>
      <trkpt lat="48.09993" lon="7.07733">
        <ele>1127.8</ele>
        <time>2023-08-12T13:55:41Z</time>
      </trkpt>
      <trkpt lat="48.09993" lon="7.07733">
        <ele>1127.8</ele>
        <time>2023-08-12T13:55:47Z</time>
      </trkpt>
      <trkpt lat="48.09996" lon="7.07733">
        <ele>1127.6</ele>
        <time>2023-08-12T13:56:01Z</time>
      </trkpt>
      <trkpt lat="48.09996" lon="7.07733">
        <ele>1127.6</ele>
        <time>2023-08-12T13:56:02Z</time>
      </trkpt>
      <trkpt lat="48.1" lon="7.07733">
        <ele>1127.3</ele>
        <time>2023-08-12T13:56:09Z</time>
      </trkpt>
      <trkpt lat="48.10006" lon="7.07731">
        <ele>1126.7</ele>
        <time>2023-08-12T13:56:12Z</time>
      </trkpt>
      <trkpt lat="48.10008" lon="7.0773">
        <ele>1126.5</ele>
        <time>2023-08-12T13:56:13Z</time>
      </trkpt>
      <trkpt lat="48.10011" lon="7.07728">
        <ele>1126.1</ele>
        <time>2023-08-12T13:56:15Z</time>
      </trkpt>
      <trkpt lat="48.10014" lon="7.07726">
        <ele>1125.8</ele>
        <time>2023-08-12T13:56:16Z</time>
      </trkpt>
      <trkpt lat="48.1002" lon="7.07722">
        <ele>1124.7</ele>
        <time>2023-08-12T13:56:18Z</time>
      </trkpt>
      <trkpt lat="48.10023" lon="7.07721">
        <ele>1124.2</ele>
        <time>2023-08-12T13:56:19Z</time>
      </trkpt>
      <trkpt lat="48.10025" lon="7.07719">
        <ele>1123.8</ele>
        <time>2023-08-12T13:56:20Z</time>
      </trkpt>
      <trkpt lat="48.10028" lon="7.07717">
        <ele>1123.2</ele>
        <time>2023-08-12T13:56:21Z</time>
      </trkpt>
      <trkpt lat="48.10031" lon="7.07714">
        <ele>1122.5</ele>
        <time>2023-08-12T13:56:22Z</time>
      </trkpt>
      <trkpt lat="48.10034" lon="7.0771">
        <ele>1121.8</ele>
        <time>2023-08-12T13:56:23Z</time>
      </trkpt>
      <trkpt lat="48.10054" lon="7.07691">
        <ele>1117.4</ele>
        <time>2023-08-12T13:56:28Z</time>
      </trkpt>
      <trkpt lat="48.10067" lon="7.07673">
        <ele>1114.6</ele>
        <time>2023-08-12T13:56:31Z</time>
      </trkpt>
      <trkpt lat="48.10073" lon="7.07668">
        <ele>1113.9</ele>
        <time>2023-08-12T13:56:32Z</time>
      </trkpt>
      <trkpt lat="48.10079" lon="7.07664">
        <ele>1113.1</ele>
        <time>2023-08-12T13:56:33Z</time>
      </trkpt>
      <trkpt lat="48.10083" lon="7.07662">
        <ele>1112.7</ele>
        <time>2023-08-12T13:56:34Z</time>
      </trkpt>
      <trkpt lat="48.10086" lon="7.07664">
        <ele>1112.3</ele>
        <time>2023-08-12T13:56:35Z</time>
      </trkpt>
      <trkpt lat="48.10092" lon="7.07665">
        <ele>1111.7</ele>
        <time>2023-08-12T13:56:36Z</time>
      </trkpt>
      <trkpt lat="48.10098" lon="7.07665">
        <ele>1110.8</ele>
        <time>2023-08-12T13:56:37Z</time>
      </trkpt>
      <trkpt lat="48.10102" lon="7.07665">
        <ele>1110.2</ele>
        <time>2023-08-12T13:56:38Z</time>
      </trkpt>
      <trkpt lat="48.10105" lon="7.07664">
        <ele>1109.8</ele>
        <time>2023-08-12T13:56:39Z</time>
      </trkpt>
      <trkpt lat="48.10108" lon="7.07663">
        <ele>1109.4</ele>
        <time>2023-08-12T13:56:40Z</time>
      </trkpt>
      <trkpt lat="48.10109" lon="7.07662">
        <ele>1109.1</ele>
        <time>2023-08-12T13:56:41Z</time>
      </trkpt>
      <trkpt lat="48.10109" lon="7.07662">
        <ele>1109</ele>
        <time>2023-08-12T13:56:42Z</time>
      </trkpt>
      <trkpt lat="48.10111" lon="7.0766">
        <ele>1108.6</ele>
        <time>2023-08-12T13:56:43Z</time>
      </trkpt>
      <trkpt lat="48.10112" lon="7.0766">
        <ele>1108.4</ele>
        <time>2023-08-12T13:56:44Z</time>
      </trkpt>
      <trkpt lat="48.10113" lon="7.07662">
        <ele>1108.1</ele>
        <time>2023-08-12T13:56:45Z</time>
      </trkpt>
      <trkpt lat="48.10114" lon="7.07664">
        <ele>1107.8</ele>
        <time>2023-08-12T13:56:46Z</time>
      </trkpt>
      <trkpt lat="48.10114" lon="7.07666">
        <ele>1107.6</ele>
        <time>2023-08-12T13:56:47Z</time>
      </trkpt>
      <trkpt lat="48.10114" lon="7.07668">
        <ele>1107.2</ele>
        <time>2023-08-12T13:56:48Z</time>
      </trkpt>
      <trkpt lat="48.10115" lon="7.07671">
        <ele>1106.9</ele>
        <time>2023-08-12T13:56:49Z</time>
      </trkpt>
      <trkpt lat="48.10115" lon="7.07675">
        <ele>1106.4</ele>
        <time>2023-08-12T13:56:50Z</time>
      </trkpt>
      <trkpt lat="48.10117" lon="7.07678">
        <ele>1105.8</ele>
        <time>2023-08-12T13:56:51Z</time>
      </trkpt>
      <trkpt lat="48.10118" lon="7.07681">
        <ele>1105.4</ele>
        <time>2023-08-12T13:56:52Z</time>
      </trkpt>
      <trkpt lat="48.10118" lon="7.07684">
        <ele>1105</ele>
        <time>2023-08-12T13:56:53Z</time>
      </trkpt>
      <trkpt lat="48.10117" lon="7.07687">
        <ele>1104.6</ele>
        <time>2023-08-12T13:56:54Z</time>
      </trkpt>
      <trkpt lat="48.10117" lon="7.07691">
        <ele>1104</ele>
        <time>2023-08-12T13:56:55Z</time>
      </trkpt>
      <trkpt lat="48.10118" lon="7.07695">
        <ele>1103.3</ele>
        <time>2023-08-12T13:56:56Z</time>
      </trkpt>
      <trkpt lat="48.10122" lon="7.077">
        <ele>1102.2</ele>
        <time>2023-08-12T13:56:58Z</time>
      </trkpt>
      <trkpt lat="48.10125" lon="7.077">
        <ele>1101.6</ele>
        <time>2023-08-12T13:56:59Z</time>
      </trkpt>
      <trkpt lat="48.10128" lon="7.077">
        <ele>1100.9</ele>
        <time>2023-08-12T13:57:00Z</time>
      </trkpt>
      <trkpt lat="48.1013" lon="7.077">
        <ele>1100.4</ele>
        <time>2023-08-12T13:57:01Z</time>
      </trkpt>
      <trkpt lat="48.10134" lon="7.077">
        <ele>1099.7</ele>
        <time>2023-08-12T13:57:02Z</time>
      </trkpt>
      <trkpt lat="48.10139" lon="7.07698">
        <ele>1098.6</ele>
        <time>2023-08-12T13:57:03Z</time>
      </trkpt>
      <trkpt lat="48.10142" lon="7.07696">
        <ele>1097.7</ele>
        <time>2023-08-12T13:57:04Z</time>
      </trkpt>
      <trkpt lat="48.10145" lon="7.07693">
        <ele>1097</ele>
        <time>2023-08-12T13:57:05Z</time>
      </trkpt>
      <trkpt lat="48.10147" lon="7.07691">
        <ele>1095.5</ele>
        <time>2023-08-12T13:57:06Z</time>
      </trkpt>
      <trkpt lat="48.10149" lon="7.0769">
        <ele>1095.1</ele>
        <time>2023-08-12T13:57:07Z</time>
      </trkpt>
      <trkpt lat="48.10149" lon="7.07692">
        <ele>1095</ele>
        <time>2023-08-12T13:57:08Z</time>
      </trkpt>
      <trkpt lat="48.10155" lon="7.07711">
        <ele>1092.8</ele>
        <time>2023-08-12T13:57:13Z</time>
      </trkpt>
      <trkpt lat="48.10156" lon="7.07721">
        <ele>1091.9</ele>
        <time>2023-08-12T13:57:15Z</time>
      </trkpt>
      <trkpt lat="48.10156" lon="7.07726">
        <ele>1091.3</ele>
        <time>2023-08-12T13:57:16Z</time>
      </trkpt>
      <trkpt lat="48.10156" lon="7.07732">
        <ele>1090.7</ele>
        <time>2023-08-12T13:57:17Z</time>
      </trkpt>
      <trkpt lat="48.10158" lon="7.07747">
        <ele>1089.4</ele>
        <time>2023-08-12T13:57:19Z</time>
      </trkpt>
      <trkpt lat="48.10156" lon="7.07758">
        <ele>1088.3</ele>
        <time>2023-08-12T13:57:21Z</time>
      </trkpt>
      <trkpt lat="48.10154" lon="7.07762">
        <ele>1087.8</ele>
        <time>2023-08-12T13:57:22Z</time>
      </trkpt>
      <trkpt lat="48.10152" lon="7.07767">
        <ele>1087.3</ele>
        <time>2023-08-12T13:57:23Z</time>
      </trkpt>
      <trkpt lat="48.1015" lon="7.07772">
        <ele>1086.8</ele>
        <time>2023-08-12T13:57:24Z</time>
      </trkpt>
      <trkpt lat="48.10149" lon="7.07776">
        <ele>1086.3</ele>
        <time>2023-08-12T13:57:25Z</time>
      </trkpt>
      <trkpt lat="48.1015" lon="7.0778">
        <ele>1085.9</ele>
        <time>2023-08-12T13:57:26Z</time>
      </trkpt>
      <trkpt lat="48.10152" lon="7.07782">
        <ele>1085.6</ele>
        <time>2023-08-12T13:57:27Z</time>
      </trkpt>
      <trkpt lat="48.10154" lon="7.07784">
        <ele>1085.3</ele>
        <time>2023-08-12T13:57:28Z</time>
      </trkpt>
      <trkpt lat="48.10156" lon="7.07785">
        <ele>1085</ele>
        <time>2023-08-12T13:57:29Z</time>
      </trkpt>
      <trkpt lat="48.10159" lon="7.07786">
        <ele>1084.6</ele>
        <time>2023-08-12T13:57:30Z</time>
      </trkpt>
      <trkpt lat="48.10162" lon="7.07788">
        <ele>1084.1</ele>
        <time>2023-08-12T13:57:31Z</time>
      </trkpt>
      <trkpt lat="48.10172" lon="7.07792">
        <ele>1082.6</ele>
        <time>2023-08-12T13:57:33Z</time>
      </trkpt>
      <trkpt lat="48.10175" lon="7.07796">
        <ele>1081.9</ele>
        <time>2023-08-12T13:57:34Z</time>
      </trkpt>
      <trkpt lat="48.10177" lon="7.07797">
        <ele>1081.4</ele>
        <time>2023-08-12T13:57:35Z</time>
      </trkpt>
      <trkpt lat="48.1018" lon="7.07799">
        <ele>1081</ele>
        <time>2023-08-12T13:57:36Z</time>
      </trkpt>
      <trkpt lat="48.10184" lon="7.07802">
        <ele>1080.2</ele>
        <time>2023-08-12T13:57:37Z</time>
      </trkpt>
      <trkpt lat="48.10187" lon="7.07805">
        <ele>1069.2</ele>
        <time>2023-08-12T13:57:38Z</time>
      </trkpt>
      <trkpt lat="48.10199" lon="7.07817">
        <ele>1068.7</ele>
        <time>2023-08-12T13:57:42Z</time>
      </trkpt>
      <trkpt lat="48.10199" lon="7.0782">
        <ele>1068.6</ele>
        <time>2023-08-12T13:57:43Z</time>
      </trkpt>
      <trkpt lat="48.10197" lon="7.0782">
        <ele>1068.6</ele>
        <time>2023-08-12T13:57:44Z</time>
      </trkpt>
      <trkpt lat="48.10194" lon="7.07821">
        <ele>1068.6</ele>
        <time>2023-08-12T13:57:45Z</time>
      </trkpt>
      <trkpt lat="48.10193" lon="7.07824">
        <ele>1068.6</ele>
        <time>2023-08-12T13:57:46Z</time>
      </trkpt>
      <trkpt lat="48.10193" lon="7.07828">
        <ele>1068.6</ele>
        <time>2023-08-12T13:57:47Z</time>
      </trkpt>
      <trkpt lat="48.10193" lon="7.07833">
        <ele>1068.6</ele>
        <time>2023-08-12T13:57:48Z</time>
      </trkpt>
      <trkpt lat="48.10192" lon="7.07843">
        <ele>1068.5</ele>
        <time>2023-08-12T13:57:50Z</time>
      </trkpt>
      <trkpt lat="48.10194" lon="7.07844">
        <ele>1068.5</ele>
        <time>2023-08-12T13:57:51Z</time>
      </trkpt>
      <trkpt lat="48.10195" lon="7.07845">
        <ele>1068.5</ele>
        <time>2023-08-12T13:57:52Z</time>
      </trkpt>
      <trkpt lat="48.10195" lon="7.07846">
        <ele>1068.5</ele>
        <time>2023-08-12T13:57:53Z</time>
      </trkpt>
      <trkpt lat="48.10195" lon="7.07846">
        <ele>1068.5</ele>
        <time>2023-08-12T13:57:56Z</time>
      </trkpt>
      <trkpt lat="48.10196" lon="7.07848">
        <ele>1068.5</ele>
        <time>2023-08-12T13:58:03Z</time>
      </trkpt>
      <trkpt lat="48.10198" lon="7.0785">
        <ele>1068.5</ele>
        <time>2023-08-12T13:58:04Z</time>
      </trkpt>
      <trkpt lat="48.10199" lon="7.07852">
        <ele>1068.5</ele>
        <time>2023-08-12T13:58:05Z</time>
      </trkpt>
      <trkpt lat="48.10201" lon="7.07855">
        <ele>1068.5</ele>
        <time>2023-08-12T13:58:06Z</time>
      </trkpt>
      <trkpt lat="48.10208" lon="7.07864">
        <ele>1068.5</ele>
        <time>2023-08-12T13:58:10Z</time>
      </trkpt>
      <trkpt lat="48.10209" lon="7.07866">
        <ele>1068.5</ele>
        <time>2023-08-12T13:58:11Z</time>
      </trkpt>
      <trkpt lat="48.1021" lon="7.07867">
        <ele>1068.5</ele>
        <time>2023-08-12T13:58:12Z</time>
      </trkpt>
      <trkpt lat="48.10212" lon="7.07869">
        <ele>1068.5</ele>
        <time>2023-08-12T13:58:13Z</time>
      </trkpt>
      <trkpt lat="48.10215" lon="7.07871">
        <ele>1068.5</ele>
        <time>2023-08-12T13:58:15Z</time>
      </trkpt>
      <trkpt lat="48.10216" lon="7.07873">
        <ele>1068.5</ele>
        <time>2023-08-12T13:58:16Z</time>
      </trkpt>
      <trkpt lat="48.10218" lon="7.07874">
        <ele>1068.5</ele>
        <time>2023-08-12T13:58:17Z</time>
      </trkpt>
      <trkpt lat="48.1022" lon="7.07875">
        <ele>1068.5</ele>
        <time>2023-08-12T13:58:18Z</time>
      </trkpt>
      <trkpt lat="48.10222" lon="7.07876">
        <ele>1068.5</ele>
        <time>2023-08-12T13:58:19Z</time>
      </trkpt>
      <trkpt lat="48.10225" lon="7.07877">
        <ele>1068.5</ele>
        <time>2023-08-12T13:58:20Z</time>
      </trkpt>
      <trkpt lat="48.10243" lon="7.07884">
        <ele>1068.6</ele>
        <time>2023-08-12T13:58:28Z</time>
      </trkpt>
      <trkpt lat="48.10257" lon="7.07901">
        <ele>1068.6</ele>
        <time>2023-08-12T13:58:35Z</time>
      </trkpt>
      <trkpt lat="48.10274" lon="7.07929">
        <ele>1068.8</ele>
        <time>2023-08-12T13:58:44Z</time>
      </trkpt>
      <trkpt lat="48.10275" lon="7.07933">
        <ele>1068.9</ele>
        <time>2023-08-12T13:58:45Z</time>
      </trkpt>
      <trkpt lat="48.10275" lon="7.07938">
        <ele>1069</ele>
        <time>2023-08-12T13:58:46Z</time>
      </trkpt>
      <trkpt lat="48.10275" lon="7.07943">
        <ele>1069.1</ele>
        <time>2023-08-12T13:58:47Z</time>
      </trkpt>
      <trkpt lat="48.10275" lon="7.07947">
        <ele>1069.2</ele>
        <time>2023-08-12T13:58:48Z</time>
      </trkpt>
      <trkpt lat="48.10274" lon="7.0795">
        <ele>1069.3</ele>
        <time>2023-08-12T13:58:49Z</time>
      </trkpt>
      <trkpt lat="48.10272" lon="7.07953">
        <ele>1069.4</ele>
        <time>2023-08-12T13:58:50Z</time>
      </trkpt>
      <trkpt lat="48.1027" lon="7.07955">
        <ele>1069.5</ele>
        <time>2023-08-12T13:58:51Z</time>
      </trkpt>
      <trkpt lat="48.10268" lon="7.07957">
        <ele>1069.6</ele>
        <time>2023-08-12T13:58:52Z</time>
      </trkpt>
      <trkpt lat="48.10267" lon="7.0796">
        <ele>1069.7</ele>
        <time>2023-08-12T13:58:53Z</time>
      </trkpt>
      <trkpt lat="48.10265" lon="7.07962">
        <ele>1069.8</ele>
        <time>2023-08-12T13:58:54Z</time>
      </trkpt>
      <trkpt lat="48.1026" lon="7.07968">
        <ele>1070</ele>
        <time>2023-08-12T13:58:56Z</time>
      </trkpt>
      <trkpt lat="48.10259" lon="7.07971">
        <ele>1070</ele>
        <time>2023-08-12T13:58:57Z</time>
      </trkpt>
      <trkpt lat="48.10258" lon="7.07975">
        <ele>1070.1</ele>
        <time>2023-08-12T13:58:58Z</time>
      </trkpt>
      <trkpt lat="48.10257" lon="7.07979">
        <ele>1070.2</ele>
        <time>2023-08-12T13:58:59Z</time>
      </trkpt>
      <trkpt lat="48.10255" lon="7.07983">
        <ele>1070.3</ele>
        <time>2023-08-12T13:59:00Z</time>
      </trkpt>
      <trkpt lat="48.10252" lon="7.07991">
        <ele>1070.5</ele>
        <time>2023-08-12T13:59:02Z</time>
      </trkpt>
      <trkpt lat="48.10247" lon="7.07999">
        <ele>1070.9</ele>
        <time>2023-08-12T13:59:05Z</time>
      </trkpt>
      <trkpt lat="48.10245" lon="7.08001">
        <ele>1071</ele>
        <time>2023-08-12T13:59:06Z</time>
      </trkpt>
      <trkpt lat="48.10245" lon="7.08004">
        <ele>1071</ele>
        <time>2023-08-12T13:59:07Z</time>
      </trkpt>
      <trkpt lat="48.10244" lon="7.08006">
        <ele>1071.1</ele>
        <time>2023-08-12T13:59:08Z</time>
      </trkpt>
      <trkpt lat="48.10244" lon="7.08008">
        <ele>1071.2</ele>
        <time>2023-08-12T13:59:09Z</time>
      </trkpt>
      <trkpt lat="48.10243" lon="7.0801">
        <ele>1071.2</ele>
        <time>2023-08-12T13:59:10Z</time>
      </trkpt>
      <trkpt lat="48.10243" lon="7.08013">
        <ele>1071.3</ele>
        <time>2023-08-12T13:59:11Z</time>
      </trkpt>
      <trkpt lat="48.10243" lon="7.0802">
        <ele>1071.4</ele>
        <time>2023-08-12T13:59:13Z</time>
      </trkpt>
      <trkpt lat="48.10244" lon="7.08023">
        <ele>1071.5</ele>
        <time>2023-08-12T13:59:14Z</time>
      </trkpt>
      <trkpt lat="48.10244" lon="7.08027">
        <ele>1071.6</ele>
        <time>2023-08-12T13:59:15Z</time>
      </trkpt>
      <trkpt lat="48.10242" lon="7.08041">
        <ele>1071.9</ele>
        <time>2023-08-12T13:59:18Z</time>
      </trkpt>
      <trkpt lat="48.1024" lon="7.08044">
        <ele>1072</ele>
        <time>2023-08-12T13:59:19Z</time>
      </trkpt>
      <trkpt lat="48.10237" lon="7.08046">
        <ele>1072.1</ele>
        <time>2023-08-12T13:59:20Z</time>
      </trkpt>
      <trkpt lat="48.10235" lon="7.08049">
        <ele>1072.2</ele>
        <time>2023-08-12T13:59:21Z</time>
      </trkpt>
      <trkpt lat="48.10235" lon="7.08053">
        <ele>1072.4</ele>
        <time>2023-08-12T13:59:22Z</time>
      </trkpt>
      <trkpt lat="48.10234" lon="7.08056">
        <ele>1072.5</ele>
        <time>2023-08-12T13:59:23Z</time>
      </trkpt>
      <trkpt lat="48.10233" lon="7.08059">
        <ele>1072.6</ele>
        <time>2023-08-12T13:59:24Z</time>
      </trkpt>
      <trkpt lat="48.10231" lon="7.08063">
        <ele>1072.7</ele>
        <time>2023-08-12T13:59:25Z</time>
      </trkpt>
      <trkpt lat="48.10229" lon="7.08066">
        <ele>1072.8</ele>
        <time>2023-08-12T13:59:26Z</time>
      </trkpt>
      <trkpt lat="48.10228" lon="7.08069">
        <ele>1072.9</ele>
        <time>2023-08-12T13:59:27Z</time>
      </trkpt>
      <trkpt lat="48.10227" lon="7.08072">
        <ele>1073</ele>
        <time>2023-08-12T13:59:28Z</time>
      </trkpt>
      <trkpt lat="48.10226" lon="7.08075">
        <ele>1073.1</ele>
        <time>2023-08-12T13:59:29Z</time>
      </trkpt>
      <trkpt lat="48.10224" lon="7.08078">
        <ele>1073.2</ele>
        <time>2023-08-12T13:59:30Z</time>
      </trkpt>
      <trkpt lat="48.10223" lon="7.08081">
        <ele>1073.3</ele>
        <time>2023-08-12T13:59:31Z</time>
      </trkpt>
      <trkpt lat="48.10219" lon="7.08094">
        <ele>1073.6</ele>
        <time>2023-08-12T13:59:34Z</time>
      </trkpt>
      <trkpt lat="48.10219" lon="7.08099">
        <ele>1073.7</ele>
        <time>2023-08-12T13:59:35Z</time>
      </trkpt>
      <trkpt lat="48.10219" lon="7.08104">
        <ele>1073.8</ele>
        <time>2023-08-12T13:59:36Z</time>
      </trkpt>
      <trkpt lat="48.10219" lon="7.08109">
        <ele>1073.9</ele>
        <time>2023-08-12T13:59:37Z</time>
      </trkpt>
      <trkpt lat="48.10218" lon="7.08111">
        <ele>1074</ele>
        <time>2023-08-12T13:59:38Z</time>
      </trkpt>
      <trkpt lat="48.10217" lon="7.08115">
        <ele>1074.1</ele>
        <time>2023-08-12T13:59:39Z</time>
      </trkpt>
      <trkpt lat="48.10214" lon="7.08119">
        <ele>1074.2</ele>
        <time>2023-08-12T13:59:40Z</time>
      </trkpt>
      <trkpt lat="48.10213" lon="7.08122">
        <ele>1074.2</ele>
        <time>2023-08-12T13:59:41Z</time>
      </trkpt>
      <trkpt lat="48.10213" lon="7.08131">
        <ele>1074.4</ele>
        <time>2023-08-12T13:59:43Z</time>
      </trkpt>
      <trkpt lat="48.10213" lon="7.08136">
        <ele>1074.6</ele>
        <time>2023-08-12T13:59:44Z</time>
      </trkpt>
      <trkpt lat="48.10211" lon="7.08138">
        <ele>1074.6</ele>
        <time>2023-08-12T13:59:45Z</time>
      </trkpt>
      <trkpt lat="48.10209" lon="7.0814">
        <ele>1074.7</ele>
        <time>2023-08-12T13:59:46Z</time>
      </trkpt>
      <trkpt lat="48.10208" lon="7.08144">
        <ele>1074.8</ele>
        <time>2023-08-12T13:59:47Z</time>
      </trkpt>
      <trkpt lat="48.10207" lon="7.08148">
        <ele>1074.9</ele>
        <time>2023-08-12T13:59:48Z</time>
      </trkpt>
      <trkpt lat="48.10205" lon="7.08159">
        <ele>1075.2</ele>
        <time>2023-08-12T13:59:51Z</time>
      </trkpt>
      <trkpt lat="48.10205" lon="7.08164">
        <ele>1075.3</ele>
        <time>2023-08-12T13:59:52Z</time>
      </trkpt>
      <trkpt lat="48.10204" lon="7.08168">
        <ele>1075.3</ele>
        <time>2023-08-12T13:59:53Z</time>
      </trkpt>
      <trkpt lat="48.10202" lon="7.08171">
        <ele>1075.4</ele>
        <time>2023-08-12T13:59:54Z</time>
      </trkpt>
      <trkpt lat="48.102" lon="7.08174">
        <ele>1075.5</ele>
        <time>2023-08-12T13:59:55Z</time>
      </trkpt>
      <trkpt lat="48.10201" lon="7.0818">
        <ele>1075.7</ele>
        <time>2023-08-12T13:59:56Z</time>
      </trkpt>
      <trkpt lat="48.10202" lon="7.08186">
        <ele>1075.8</ele>
        <time>2023-08-12T13:59:57Z</time>
      </trkpt>
      <trkpt lat="48.10202" lon="7.08189">
        <ele>1075.9</ele>
        <time>2023-08-12T13:59:58Z</time>
      </trkpt>
      <trkpt lat="48.10203" lon="7.08194">
        <ele>1076</ele>
        <time>2023-08-12T13:59:59Z</time>
      </trkpt>
      <trkpt lat="48.10202" lon="7.08198">
        <ele>1076.1</ele>
        <time>2023-08-12T14:00:00Z</time>
      </trkpt>
      <trkpt lat="48.10199" lon="7.08206">
        <ele>1076.3</ele>
        <time>2023-08-12T14:00:02Z</time>
      </trkpt>
      <trkpt lat="48.10199" lon="7.08216">
        <ele>1076.5</ele>
        <time>2023-08-12T14:00:04Z</time>
      </trkpt>
      <trkpt lat="48.10199" lon="7.0822">
        <ele>1076.6</ele>
        <time>2023-08-12T14:00:05Z</time>
      </trkpt>
      <trkpt lat="48.10199" lon="7.08224">
        <ele>1076.7</ele>
        <time>2023-08-12T14:00:06Z</time>
      </trkpt>
      <trkpt lat="48.10198" lon="7.08228">
        <ele>1076.8</ele>
        <time>2023-08-12T14:00:07Z</time>
      </trkpt>
      <trkpt lat="48.10199" lon="7.08236">
        <ele>1076.9</ele>
        <time>2023-08-12T14:00:09Z</time>
      </trkpt>
      <trkpt lat="48.10201" lon="7.08241">
        <ele>1077</ele>
        <time>2023-08-12T14:00:10Z</time>
      </trkpt>
      <trkpt lat="48.10202" lon="7.08245">
        <ele>1077.1</ele>
        <time>2023-08-12T14:00:11Z</time>
      </trkpt>
      <trkpt lat="48.10202" lon="7.08248">
        <ele>1077.2</ele>
        <time>2023-08-12T14:00:12Z</time>
      </trkpt>
      <trkpt lat="48.10203" lon="7.08252">
        <ele>1077.2</ele>
        <time>2023-08-12T14:00:13Z</time>
      </trkpt>
      <trkpt lat="48.10203" lon="7.08254">
        <ele>1077.3</ele>
        <time>2023-08-12T14:00:14Z</time>
      </trkpt>
      <trkpt lat="48.10204" lon="7.08258">
        <ele>1077.4</ele>
        <time>2023-08-12T14:00:15Z</time>
      </trkpt>
      <trkpt lat="48.10207" lon="7.08262">
        <ele>1077.5</ele>
        <time>2023-08-12T14:00:16Z</time>
      </trkpt>
      <trkpt lat="48.10208" lon="7.08266">
        <ele>1077.6</ele>
        <time>2023-08-12T14:00:17Z</time>
      </trkpt>
      <trkpt lat="48.10208" lon="7.08268">
        <ele>1077.6</ele>
        <time>2023-08-12T14:00:18Z</time>
      </trkpt>
      <trkpt lat="48.10207" lon="7.08271">
        <ele>1077.7</ele>
        <time>2023-08-12T14:00:19Z</time>
      </trkpt>
      <trkpt lat="48.10206" lon="7.08273">
        <ele>1077.7</ele>
        <time>2023-08-12T14:00:20Z</time>
      </trkpt>
      <trkpt lat="48.10206" lon="7.08275">
        <ele>1077.8</ele>
        <time>2023-08-12T14:00:21Z</time>
      </trkpt>
      <trkpt lat="48.10206" lon="7.08279">
        <ele>1077.9</ele>
        <time>2023-08-12T14:00:22Z</time>
      </trkpt>
      <trkpt lat="48.10206" lon="7.0828">
        <ele>1077.9</ele>
        <time>2023-08-12T14:00:23Z</time>
      </trkpt>
      <trkpt lat="48.10207" lon="7.08283">
        <ele>1078</ele>
        <time>2023-08-12T14:00:24Z</time>
      </trkpt>
      <trkpt lat="48.10209" lon="7.08291">
        <ele>1078.1</ele>
        <time>2023-08-12T14:00:26Z</time>
      </trkpt>
      <trkpt lat="48.1021" lon="7.08297">
        <ele>1078.3</ele>
        <time>2023-08-12T14:00:27Z</time>
      </trkpt>
      <trkpt lat="48.10212" lon="7.08303">
        <ele>1078.4</ele>
        <time>2023-08-12T14:00:28Z</time>
      </trkpt>
      <trkpt lat="48.10213" lon="7.08315">
        <ele>1078.7</ele>
        <time>2023-08-12T14:00:30Z</time>
      </trkpt>
      <trkpt lat="48.10214" lon="7.08326">
        <ele>1078.9</ele>
        <time>2023-08-12T14:00:32Z</time>
      </trkpt>
      <trkpt lat="48.10215" lon="7.08331">
        <ele>1079.1</ele>
        <time>2023-08-12T14:00:33Z</time>
      </trkpt>
      <trkpt lat="48.10215" lon="7.08336">
        <ele>1079.2</ele>
        <time>2023-08-12T14:00:34Z</time>
      </trkpt>
      <trkpt lat="48.10217" lon="7.08341">
        <ele>1079.3</ele>
        <time>2023-08-12T14:00:35Z</time>
      </trkpt>
      <trkpt lat="48.10222" lon="7.08361">
        <ele>1079.7</ele>
        <time>2023-08-12T14:00:39Z</time>
      </trkpt>
      <trkpt lat="48.10224" lon="7.08366">
        <ele>1079.8</ele>
        <time>2023-08-12T14:00:40Z</time>
      </trkpt>
      <trkpt lat="48.10225" lon="7.08371">
        <ele>1079.8</ele>
        <time>2023-08-12T14:00:41Z</time>
      </trkpt>
      <trkpt lat="48.10224" lon="7.08383">
        <ele>1080</ele>
        <time>2023-08-12T14:00:43Z</time>
      </trkpt>
      <trkpt lat="48.10224" lon="7.08388">
        <ele>1080.1</ele>
        <time>2023-08-12T14:00:44Z</time>
      </trkpt>
      <trkpt lat="48.10222" lon="7.08393">
        <ele>1080.2</ele>
        <time>2023-08-12T14:00:45Z</time>
      </trkpt>
      <trkpt lat="48.1022" lon="7.08398">
        <ele>1080.3</ele>
        <time>2023-08-12T14:00:46Z</time>
      </trkpt>
      <trkpt lat="48.10219" lon="7.08402">
        <ele>1080.4</ele>
        <time>2023-08-12T14:00:47Z</time>
      </trkpt>
      <trkpt lat="48.10217" lon="7.0841">
        <ele>1080.5</ele>
        <time>2023-08-12T14:00:49Z</time>
      </trkpt>
      <trkpt lat="48.10216" lon="7.08422">
        <ele>1080.8</ele>
        <time>2023-08-12T14:00:52Z</time>
      </trkpt>
      <trkpt lat="48.10215" lon="7.08425">
        <ele>1080.9</ele>
        <time>2023-08-12T14:00:53Z</time>
      </trkpt>
      <trkpt lat="48.10214" lon="7.08428">
        <ele>1081</ele>
        <time>2023-08-12T14:00:54Z</time>
      </trkpt>
      <trkpt lat="48.10214" lon="7.08431">
        <ele>1081.1</ele>
        <time>2023-08-12T14:00:55Z</time>
      </trkpt>
      <trkpt lat="48.10213" lon="7.0844">
        <ele>1081.3</ele>
        <time>2023-08-12T14:00:57Z</time>
      </trkpt>
      <trkpt lat="48.10212" lon="7.08445">
        <ele>1081.4</ele>
        <time>2023-08-12T14:00:58Z</time>
      </trkpt>
      <trkpt lat="48.10211" lon="7.08454">
        <ele>1081.6</ele>
        <time>2023-08-12T14:01:00Z</time>
      </trkpt>
      <trkpt lat="48.1021" lon="7.08458">
        <ele>1081.7</ele>
        <time>2023-08-12T14:01:01Z</time>
      </trkpt>
      <trkpt lat="48.10205" lon="7.08478">
        <ele>1082.2</ele>
        <time>2023-08-12T14:01:05Z</time>
      </trkpt>
      <trkpt lat="48.10203" lon="7.08487">
        <ele>1082.5</ele>
        <time>2023-08-12T14:01:07Z</time>
      </trkpt>
      <trkpt lat="48.10202" lon="7.08492">
        <ele>1082.6</ele>
        <time>2023-08-12T14:01:08Z</time>
      </trkpt>
      <trkpt lat="48.10202" lon="7.08497">
        <ele>1082.7</ele>
        <time>2023-08-12T14:01:09Z</time>
      </trkpt>
      <trkpt lat="48.10201" lon="7.08501">
        <ele>1082.8</ele>
        <time>2023-08-12T14:01:10Z</time>
      </trkpt>
      <trkpt lat="48.102" lon="7.08505">
        <ele>1082.9</ele>
        <time>2023-08-12T14:01:11Z</time>
      </trkpt>
      <trkpt lat="48.102" lon="7.0851">
        <ele>1083</ele>
        <time>2023-08-12T14:01:12Z</time>
      </trkpt>
      <trkpt lat="48.102" lon="7.08514">
        <ele>1083.1</ele>
        <time>2023-08-12T14:01:13Z</time>
      </trkpt>
      <trkpt lat="48.10199" lon="7.08517">
        <ele>1083.2</ele>
        <time>2023-08-12T14:01:14Z</time>
      </trkpt>
      <trkpt lat="48.10198" lon="7.08522">
        <ele>1083.3</ele>
        <time>2023-08-12T14:01:15Z</time>
      </trkpt>
      <trkpt lat="48.10197" lon="7.08527">
        <ele>1083.4</ele>
        <time>2023-08-12T14:01:16Z</time>
      </trkpt>
      <trkpt lat="48.10196" lon="7.08532">
        <ele>1083.5</ele>
        <time>2023-08-12T14:01:17Z</time>
      </trkpt>
      <trkpt lat="48.10192" lon="7.08543">
        <ele>1083.7</ele>
        <time>2023-08-12T14:01:19Z</time>
      </trkpt>
      <trkpt lat="48.10191" lon="7.08548">
        <ele>1083.8</ele>
        <time>2023-08-12T14:01:20Z</time>
      </trkpt>
      <trkpt lat="48.10189" lon="7.08553">
        <ele>1084</ele>
        <time>2023-08-12T14:01:21Z</time>
      </trkpt>
      <trkpt lat="48.10188" lon="7.08558">
        <ele>1084.1</ele>
        <time>2023-08-12T14:01:22Z</time>
      </trkpt>
      <trkpt lat="48.10188" lon="7.08563">
        <ele>1084.2</ele>
        <time>2023-08-12T14:01:23Z</time>
      </trkpt>
      <trkpt lat="48.10187" lon="7.08568">
        <ele>1084.3</ele>
        <time>2023-08-12T14:01:24Z</time>
      </trkpt>
      <trkpt lat="48.10187" lon="7.08572">
        <ele>1084.4</ele>
        <time>2023-08-12T14:01:25Z</time>
      </trkpt>
      <trkpt lat="48.10187" lon="7.08577">
        <ele>1084.6</ele>
        <time>2023-08-12T14:01:26Z</time>
      </trkpt>
      <trkpt lat="48.10186" lon="7.08581">
        <ele>1084.7</ele>
        <time>2023-08-12T14:01:27Z</time>
      </trkpt>
      <trkpt lat="48.10185" lon="7.08586">
        <ele>1084.8</ele>
        <time>2023-08-12T14:01:28Z</time>
      </trkpt>
      <trkpt lat="48.10185" lon="7.0859">
        <ele>1084.9</ele>
        <time>2023-08-12T14:01:29Z</time>
      </trkpt>
      <trkpt lat="48.10184" lon="7.08595">
        <ele>1085</ele>
        <time>2023-08-12T14:01:30Z</time>
      </trkpt>
      <trkpt lat="48.10183" lon="7.086">
        <ele>1085.1</ele>
        <time>2023-08-12T14:01:31Z</time>
      </trkpt>
      <trkpt lat="48.10182" lon="7.08606">
        <ele>1085.2</ele>
        <time>2023-08-12T14:01:32Z</time>
      </trkpt>
      <trkpt lat="48.10182" lon="7.0861">
        <ele>1085.3</ele>
        <time>2023-08-12T14:01:33Z</time>
      </trkpt>
      <trkpt lat="48.1018" lon="7.08624">
        <ele>1085.6</ele>
        <time>2023-08-12T14:01:36Z</time>
      </trkpt>
      <trkpt lat="48.1018" lon="7.08628">
        <ele>1085.7</ele>
        <time>2023-08-12T14:01:37Z</time>
      </trkpt>
      <trkpt lat="48.1018" lon="7.08657">
        <ele>1086.1</ele>
        <time>2023-08-12T14:01:43Z</time>
      </trkpt>
      <trkpt lat="48.10177" lon="7.08683">
        <ele>1086.4</ele>
        <time>2023-08-12T14:01:48Z</time>
      </trkpt>
      <trkpt lat="48.10176" lon="7.08698">
        <ele>1086.5</ele>
        <time>2023-08-12T14:01:51Z</time>
      </trkpt>
      <trkpt lat="48.10171" lon="7.08719">
        <ele>1086.7</ele>
        <time>2023-08-12T14:01:55Z</time>
      </trkpt>
      <trkpt lat="48.10169" lon="7.08728">
        <ele>1086.7</ele>
        <time>2023-08-12T14:01:57Z</time>
      </trkpt>
      <trkpt lat="48.10168" lon="7.08733">
        <ele>1086.7</ele>
        <time>2023-08-12T14:01:58Z</time>
      </trkpt>
      <trkpt lat="48.10167" lon="7.08738">
        <ele>1086.7</ele>
        <time>2023-08-12T14:01:59Z</time>
      </trkpt>
      <trkpt lat="48.10162" lon="7.08758">
        <ele>1086.6</ele>
        <time>2023-08-12T14:02:03Z</time>
      </trkpt>
      <trkpt lat="48.1016" lon="7.08769">
        <ele>1086.5</ele>
        <time>2023-08-12T14:02:05Z</time>
      </trkpt>
      <trkpt lat="48.1016" lon="7.08774">
        <ele>1086.4</ele>
        <time>2023-08-12T14:02:06Z</time>
      </trkpt>
      <trkpt lat="48.10159" lon="7.0878">
        <ele>1086.3</ele>
        <time>2023-08-12T14:02:07Z</time>
      </trkpt>
      <trkpt lat="48.10157" lon="7.08794">
        <ele>1086</ele>
        <time>2023-08-12T14:02:09Z</time>
      </trkpt>
      <trkpt lat="48.10155" lon="7.08808">
        <ele>1085.9</ele>
        <time>2023-08-12T14:02:11Z</time>
      </trkpt>
      <trkpt lat="48.10153" lon="7.08814">
        <ele>1085.9</ele>
        <time>2023-08-12T14:02:12Z</time>
      </trkpt>
      <trkpt lat="48.1015" lon="7.08819">
        <ele>1085.9</ele>
        <time>2023-08-12T14:02:13Z</time>
      </trkpt>
      <trkpt lat="48.10147" lon="7.08824">
        <ele>1085.9</ele>
        <time>2023-08-12T14:02:14Z</time>
      </trkpt>
      <trkpt lat="48.10143" lon="7.08834">
        <ele>1085.9</ele>
        <time>2023-08-12T14:02:16Z</time>
      </trkpt>
      <trkpt lat="48.10139" lon="7.08837">
        <ele>1085.9</ele>
        <time>2023-08-12T14:02:17Z</time>
      </trkpt>
      <trkpt lat="48.10136" lon="7.0884">
        <ele>1085.9</ele>
        <time>2023-08-12T14:02:18Z</time>
      </trkpt>
      <trkpt lat="48.1013" lon="7.0885">
        <ele>1085.8</ele>
        <time>2023-08-12T14:02:20Z</time>
      </trkpt>
      <trkpt lat="48.10125" lon="7.08869">
        <ele>1085.7</ele>
        <time>2023-08-12T14:02:23Z</time>
      </trkpt>
      <trkpt lat="48.10119" lon="7.08888">
        <ele>1085.4</ele>
        <time>2023-08-12T14:02:26Z</time>
      </trkpt>
      <trkpt lat="48.10117" lon="7.08902">
        <ele>1085.2</ele>
        <time>2023-08-12T14:02:28Z</time>
      </trkpt>
      <trkpt lat="48.10113" lon="7.08914">
        <ele>1084.9</ele>
        <time>2023-08-12T14:02:30Z</time>
      </trkpt>
      <trkpt lat="48.1011" lon="7.08921">
        <ele>1084.7</ele>
        <time>2023-08-12T14:02:31Z</time>
      </trkpt>
      <trkpt lat="48.10101" lon="7.08947">
        <ele>1084</ele>
        <time>2023-08-12T14:02:35Z</time>
      </trkpt>
      <trkpt lat="48.10099" lon="7.08952">
        <ele>1083.9</ele>
        <time>2023-08-12T14:02:36Z</time>
      </trkpt>
      <trkpt lat="48.10098" lon="7.08956">
        <ele>1083.7</ele>
        <time>2023-08-12T14:02:37Z</time>
      </trkpt>
      <trkpt lat="48.10097" lon="7.08959">
        <ele>1083.7</ele>
        <time>2023-08-12T14:02:38Z</time>
      </trkpt>
      <trkpt lat="48.10096" lon="7.08962">
        <ele>1083.6</ele>
        <time>2023-08-12T14:02:39Z</time>
      </trkpt>
      <trkpt lat="48.10095" lon="7.08967">
        <ele>1083.4</ele>
        <time>2023-08-12T14:02:40Z</time>
      </trkpt>
      <trkpt lat="48.10093" lon="7.08971">
        <ele>1083.3</ele>
        <time>2023-08-12T14:02:41Z</time>
      </trkpt>
      <trkpt lat="48.10093" lon="7.08974">
        <ele>1083.2</ele>
        <time>2023-08-12T14:02:42Z</time>
      </trkpt>
      <trkpt lat="48.10093" lon="7.08976">
        <ele>1083.1</ele>
        <time>2023-08-12T14:02:43Z</time>
      </trkpt>
      <trkpt lat="48.10094" lon="7.08978">
        <ele>1083</ele>
        <time>2023-08-12T14:02:44Z</time>
      </trkpt>
      <trkpt lat="48.10094" lon="7.08981">
        <ele>1082.9</ele>
        <time>2023-08-12T14:02:45Z</time>
      </trkpt>
      <trkpt lat="48.10093" lon="7.08984">
        <ele>1082.8</ele>
        <time>2023-08-12T14:02:46Z</time>
      </trkpt>
      <trkpt lat="48.10092" lon="7.08989">
        <ele>1082.6</ele>
        <time>2023-08-12T14:02:47Z</time>
      </trkpt>
      <trkpt lat="48.10091" lon="7.08995">
        <ele>1082.5</ele>
        <time>2023-08-12T14:02:48Z</time>
      </trkpt>
      <trkpt lat="48.10089" lon="7.09">
        <ele>1082.3</ele>
        <time>2023-08-12T14:02:49Z</time>
      </trkpt>
      <trkpt lat="48.10088" lon="7.09006">
        <ele>1082.2</ele>
        <time>2023-08-12T14:02:50Z</time>
      </trkpt>
      <trkpt lat="48.10086" lon="7.09011">
        <ele>1082.1</ele>
        <time>2023-08-12T14:02:51Z</time>
      </trkpt>
      <trkpt lat="48.10085" lon="7.09015">
        <ele>1082.1</ele>
        <time>2023-08-12T14:02:52Z</time>
      </trkpt>
      <trkpt lat="48.10085" lon="7.09018">
        <ele>1082.1</ele>
        <time>2023-08-12T14:02:53Z</time>
      </trkpt>
      <trkpt lat="48.10084" lon="7.09022">
        <ele>1082.2</ele>
        <time>2023-08-12T14:02:54Z</time>
      </trkpt>
      <trkpt lat="48.10084" lon="7.09026">
        <ele>1082.3</ele>
        <time>2023-08-12T14:02:55Z</time>
      </trkpt>
      <trkpt lat="48.10084" lon="7.09029">
        <ele>1082.4</ele>
        <time>2023-08-12T14:02:56Z</time>
      </trkpt>
      <trkpt lat="48.10085" lon="7.09032">
        <ele>1082.5</ele>
        <time>2023-08-12T14:02:57Z</time>
      </trkpt>
      <trkpt lat="48.10085" lon="7.09036">
        <ele>1082.7</ele>
        <time>2023-08-12T14:02:58Z</time>
      </trkpt>
      <trkpt lat="48.10086" lon="7.09038">
        <ele>1082.8</ele>
        <time>2023-08-12T14:02:59Z</time>
      </trkpt>
      <trkpt lat="48.10087" lon="7.09042">
        <ele>1083</ele>
        <time>2023-08-12T14:03:00Z</time>
      </trkpt>
      <trkpt lat="48.10087" lon="7.09045">
        <ele>1083.2</ele>
        <time>2023-08-12T14:03:01Z</time>
      </trkpt>
      <trkpt lat="48.10086" lon="7.09047">
        <ele>1083.3</ele>
        <time>2023-08-12T14:03:02Z</time>
      </trkpt>
      <trkpt lat="48.10086" lon="7.09049">
        <ele>1083.5</ele>
        <time>2023-08-12T14:03:03Z</time>
      </trkpt>
      <trkpt lat="48.10086" lon="7.09053">
        <ele>1083.6</ele>
        <time>2023-08-12T14:03:04Z</time>
      </trkpt>
      <trkpt lat="48.10087" lon="7.09055">
        <ele>1083.8</ele>
        <time>2023-08-12T14:03:05Z</time>
      </trkpt>
      <trkpt lat="48.10087" lon="7.09056">
        <ele>1083.9</ele>
        <time>2023-08-12T14:03:06Z</time>
      </trkpt>
      <trkpt lat="48.10088" lon="7.09057">
        <ele>1083.9</ele>
        <time>2023-08-12T14:03:07Z</time>
      </trkpt>
      <trkpt lat="48.10088" lon="7.09057">
        <ele>1084</ele>
        <time>2023-08-12T14:03:08Z</time>
      </trkpt>
      <trkpt lat="48.10088" lon="7.09057">
        <ele>1084</ele>
        <time>2023-08-12T14:03:09Z</time>
      </trkpt>
      <trkpt lat="48.10089" lon="7.09057">
        <ele>1084</ele>
        <time>2023-08-12T14:03:10Z</time>
      </trkpt>
      <trkpt lat="48.10089" lon="7.09057">
        <ele>1084</ele>
        <time>2023-08-12T14:03:12Z</time>
      </trkpt>
      <trkpt lat="48.10089" lon="7.09057">
        <ele>1084</ele>
        <time>2023-08-12T14:03:15Z</time>
      </trkpt>
      <trkpt lat="48.10089" lon="7.09057">
        <ele>1084</ele>
        <time>2023-08-12T14:03:17Z</time>
      </trkpt>
      <trkpt lat="48.1009" lon="7.09059">
        <ele>1084.1</ele>
        <time>2023-08-12T14:03:19Z</time>
      </trkpt>
      <trkpt lat="48.10089" lon="7.09062">
        <ele>1084.3</ele>
        <time>2023-08-12T14:03:21Z</time>
      </trkpt>
      <trkpt lat="48.10089" lon="7.09063">
        <ele>1084.3</ele>
        <time>2023-08-12T14:03:22Z</time>
      </trkpt>
      <trkpt lat="48.10089" lon="7.09063">
        <ele>1084.3</ele>
        <time>2023-08-12T14:03:23Z</time>
      </trkpt>
      <trkpt lat="48.10088" lon="7.09066">
        <ele>1084.4</ele>
        <time>2023-08-12T14:03:26Z</time>
      </trkpt>
      <trkpt lat="48.10088" lon="7.09069">
        <ele>1084.5</ele>
        <time>2023-08-12T14:03:27Z</time>
      </trkpt>
      <trkpt lat="48.10089" lon="7.09076">
        <ele>1084.7</ele>
        <time>2023-08-12T14:03:29Z</time>
      </trkpt>
      <trkpt lat="48.10089" lon="7.09079">
        <ele>1084.8</ele>
        <time>2023-08-12T14:03:30Z</time>
      </trkpt>
      <trkpt lat="48.10089" lon="7.09083">
        <ele>1084.8</ele>
        <time>2023-08-12T14:03:31Z</time>
      </trkpt>
      <trkpt lat="48.1009" lon="7.09086">
        <ele>1084.9</ele>
        <time>2023-08-12T14:03:32Z</time>
      </trkpt>
      <trkpt lat="48.1009" lon="7.0909">
        <ele>1085</ele>
        <time>2023-08-12T14:03:33Z</time>
      </trkpt>
      <trkpt lat="48.10092" lon="7.09099">
        <ele>1085.2</ele>
        <time>2023-08-12T14:03:36Z</time>
      </trkpt>
      <trkpt lat="48.10093" lon="7.09107">
        <ele>1085.4</ele>
        <time>2023-08-12T14:03:39Z</time>
      </trkpt>
      <trkpt lat="48.10094" lon="7.09109">
        <ele>1085.4</ele>
        <time>2023-08-12T14:03:40Z</time>
      </trkpt>
      <trkpt lat="48.10094" lon="7.0911">
        <ele>1085.5</ele>
        <time>2023-08-12T14:03:41Z</time>
      </trkpt>
      <trkpt lat="48.10094" lon="7.09112">
        <ele>1085.5</ele>
        <time>2023-08-12T14:03:42Z</time>
      </trkpt>
      <trkpt lat="48.10094" lon="7.09113">
        <ele>1085.6</ele>
        <time>2023-08-12T14:03:43Z</time>
      </trkpt>
      <trkpt lat="48.10093" lon="7.09115">
        <ele>1085.7</ele>
        <time>2023-08-12T14:03:44Z</time>
      </trkpt>
      <trkpt lat="48.10094" lon="7.09117">
        <ele>1085.8</ele>
        <time>2023-08-12T14:03:45Z</time>
      </trkpt>
      <trkpt lat="48.10095" lon="7.09119">
        <ele>1085.8</ele>
        <time>2023-08-12T14:03:46Z</time>
      </trkpt>
      <trkpt lat="48.10096" lon="7.0912">
        <ele>1085.9</ele>
        <time>2023-08-12T14:03:47Z</time>
      </trkpt>
      <trkpt lat="48.10096" lon="7.09121">
        <ele>1086</ele>
        <time>2023-08-12T14:03:48Z</time>
      </trkpt>
      <trkpt lat="48.10097" lon="7.09123">
        <ele>1086</ele>
        <time>2023-08-12T14:03:49Z</time>
      </trkpt>
      <trkpt lat="48.10098" lon="7.09124">
        <ele>1086.1</ele>
        <time>2023-08-12T14:03:50Z</time>
      </trkpt>
      <trkpt lat="48.10099" lon="7.09128">
        <ele>1086.3</ele>
        <time>2023-08-12T14:03:52Z</time>
      </trkpt>
      <trkpt lat="48.10101" lon="7.09133">
        <ele>1086.5</ele>
        <time>2023-08-12T14:03:55Z</time>
      </trkpt>
      <trkpt lat="48.10101" lon="7.09134">
        <ele>1086.6</ele>
        <time>2023-08-12T14:03:56Z</time>
      </trkpt>
      <trkpt lat="48.10101" lon="7.09137">
        <ele>1086.7</ele>
        <time>2023-08-12T14:03:57Z</time>
      </trkpt>
      <trkpt lat="48.10101" lon="7.0914">
        <ele>1086.8</ele>
        <time>2023-08-12T14:03:58Z</time>
      </trkpt>
      <trkpt lat="48.10102" lon="7.09145">
        <ele>1087</ele>
        <time>2023-08-12T14:04:00Z</time>
      </trkpt>
      <trkpt lat="48.10103" lon="7.09146">
        <ele>1087</ele>
        <time>2023-08-12T14:04:01Z</time>
      </trkpt>
      <trkpt lat="48.10104" lon="7.09147">
        <ele>1087.1</ele>
        <time>2023-08-12T14:04:02Z</time>
      </trkpt>
      <trkpt lat="48.10105" lon="7.09148">
        <ele>1087.1</ele>
        <time>2023-08-12T14:04:03Z</time>
      </trkpt>
      <trkpt lat="48.10106" lon="7.0915">
        <ele>1087.2</ele>
        <time>2023-08-12T14:04:04Z</time>
      </trkpt>
      <trkpt lat="48.10108" lon="7.09155">
        <ele>1087.3</ele>
        <time>2023-08-12T14:04:06Z</time>
      </trkpt>
      <trkpt lat="48.10108" lon="7.09157">
        <ele>1087.4</ele>
        <time>2023-08-12T14:04:07Z</time>
      </trkpt>
      <trkpt lat="48.10109" lon="7.09159">
        <ele>1087.5</ele>
        <time>2023-08-12T14:04:08Z</time>
      </trkpt>
      <trkpt lat="48.1011" lon="7.09161">
        <ele>1087.5</ele>
        <time>2023-08-12T14:04:10Z</time>
      </trkpt>
      <trkpt lat="48.1011" lon="7.09163">
        <ele>1087.5</ele>
        <time>2023-08-12T14:04:11Z</time>
      </trkpt>
      <trkpt lat="48.10109" lon="7.09164">
        <ele>1087.6</ele>
        <time>2023-08-12T14:04:12Z</time>
      </trkpt>
      <trkpt lat="48.10109" lon="7.09164">
        <ele>1087.6</ele>
        <time>2023-08-12T14:04:13Z</time>
      </trkpt>
      <trkpt lat="48.10109" lon="7.09166">
        <ele>1087.6</ele>
        <time>2023-08-12T14:04:14Z</time>
      </trkpt>
      <trkpt lat="48.10109" lon="7.09168">
        <ele>1087.7</ele>
        <time>2023-08-12T14:04:15Z</time>
      </trkpt>
      <trkpt lat="48.10109" lon="7.09176">
        <ele>1088</ele>
        <time>2023-08-12T14:04:18Z</time>
      </trkpt>
      <trkpt lat="48.1011" lon="7.09178">
        <ele>1088.1</ele>
        <time>2023-08-12T14:04:19Z</time>
      </trkpt>
      <trkpt lat="48.1011" lon="7.0918">
        <ele>1088.2</ele>
        <time>2023-08-12T14:04:20Z</time>
      </trkpt>
      <trkpt lat="48.10111" lon="7.09184">
        <ele>1088.5</ele>
        <time>2023-08-12T14:04:22Z</time>
      </trkpt>
      <trkpt lat="48.10113" lon="7.09188">
        <ele>1088.8</ele>
        <time>2023-08-12T14:04:25Z</time>
      </trkpt>
      <trkpt lat="48.10113" lon="7.09188">
        <ele>1088.9</ele>
        <time>2023-08-12T14:04:26Z</time>
      </trkpt>
      <trkpt lat="48.10114" lon="7.09189">
        <ele>1089</ele>
        <time>2023-08-12T14:04:27Z</time>
      </trkpt>
      <trkpt lat="48.10115" lon="7.09189">
        <ele>1089.1</ele>
        <time>2023-08-12T14:04:28Z</time>
      </trkpt>
      <trkpt lat="48.10116" lon="7.0919">
        <ele>1089.2</ele>
        <time>2023-08-12T14:04:29Z</time>
      </trkpt>
      <trkpt lat="48.10116" lon="7.0919">
        <ele>1089.2</ele>
        <time>2023-08-12T14:04:31Z</time>
      </trkpt>
      <trkpt lat="48.10116" lon="7.0919">
        <ele>1089.2</ele>
        <time>2023-08-12T14:04:32Z</time>
      </trkpt>
      <trkpt lat="48.10116" lon="7.0919">
        <ele>1089.3</ele>
        <time>2023-08-12T14:04:36Z</time>
      </trkpt>
      <trkpt lat="48.10118" lon="7.09191">
        <ele>1089.6</ele>
        <time>2023-08-12T14:04:38Z</time>
      </trkpt>
      <trkpt lat="48.10119" lon="7.09191">
        <ele>1089.7</ele>
        <time>2023-08-12T14:04:39Z</time>
      </trkpt>
      <trkpt lat="48.1012" lon="7.09192">
        <ele>1089.9</ele>
        <time>2023-08-12T14:04:41Z</time>
      </trkpt>
      <trkpt lat="48.10123" lon="7.09194">
        <ele>1090.3</ele>
        <time>2023-08-12T14:04:44Z</time>
      </trkpt>
      <trkpt lat="48.10124" lon="7.09195">
        <ele>1090.4</ele>
        <time>2023-08-12T14:04:45Z</time>
      </trkpt>
      <trkpt lat="48.10124" lon="7.09196">
        <ele>1090.5</ele>
        <time>2023-08-12T14:04:46Z</time>
      </trkpt>
      <trkpt lat="48.10125" lon="7.09196">
        <ele>1090.6</ele>
        <time>2023-08-12T14:04:47Z</time>
      </trkpt>
      <trkpt lat="48.10127" lon="7.092">
        <ele>1091</ele>
        <time>2023-08-12T14:04:50Z</time>
      </trkpt>
      <trkpt lat="48.10128" lon="7.09202">
        <ele>1091.1</ele>
        <time>2023-08-12T14:04:51Z</time>
      </trkpt>
      <trkpt lat="48.10128" lon="7.09203">
        <ele>1091.2</ele>
        <time>2023-08-12T14:04:52Z</time>
      </trkpt>
      <trkpt lat="48.10128" lon="7.09204">
        <ele>1091.2</ele>
        <time>2023-08-12T14:04:53Z</time>
      </trkpt>
      <trkpt lat="48.10129" lon="7.09204">
        <ele>1091.3</ele>
        <time>2023-08-12T14:04:54Z</time>
      </trkpt>
      <trkpt lat="48.1013" lon="7.09204">
        <ele>1091.4</ele>
        <time>2023-08-12T14:04:55Z</time>
      </trkpt>
      <trkpt lat="48.10131" lon="7.09205">
        <ele>1091.5</ele>
        <time>2023-08-12T14:04:56Z</time>
      </trkpt>
      <trkpt lat="48.10132" lon="7.09207">
        <ele>1091.6</ele>
        <time>2023-08-12T14:04:57Z</time>
      </trkpt>
      <trkpt lat="48.10133" lon="7.09208">
        <ele>1091.7</ele>
        <time>2023-08-12T14:04:58Z</time>
      </trkpt>
      <trkpt lat="48.10133" lon="7.09209">
        <ele>1091.7</ele>
        <time>2023-08-12T14:04:59Z</time>
      </trkpt>
      <trkpt lat="48.10134" lon="7.09209">
        <ele>1091.7</ele>
        <time>2023-08-12T14:05:00Z</time>
      </trkpt>
      <trkpt lat="48.10134" lon="7.09211">
        <ele>1091.8</ele>
        <time>2023-08-12T14:05:01Z</time>
      </trkpt>
      <trkpt lat="48.10134" lon="7.09216">
        <ele>1092</ele>
        <time>2023-08-12T14:05:03Z</time>
      </trkpt>
      <trkpt lat="48.10134" lon="7.0922">
        <ele>1092.1</ele>
        <time>2023-08-12T14:05:04Z</time>
      </trkpt>
      <trkpt lat="48.10135" lon="7.09226">
        <ele>1092.3</ele>
        <time>2023-08-12T14:05:06Z</time>
      </trkpt>
      <trkpt lat="48.10135" lon="7.09228">
        <ele>1092.3</ele>
        <time>2023-08-12T14:05:07Z</time>
      </trkpt>
      <trkpt lat="48.10136" lon="7.09229">
        <ele>1092.4</ele>
        <time>2023-08-12T14:05:08Z</time>
      </trkpt>
      <trkpt lat="48.10137" lon="7.0923">
        <ele>1092.4</ele>
        <time>2023-08-12T14:05:09Z</time>
      </trkpt>
      <trkpt lat="48.10138" lon="7.09231">
        <ele>1092.5</ele>
        <time>2023-08-12T14:05:10Z</time>
      </trkpt>
      <trkpt lat="48.10138" lon="7.09231">
        <ele>1092.5</ele>
        <time>2023-08-12T14:05:11Z</time>
      </trkpt>
      <trkpt lat="48.10139" lon="7.09233">
        <ele>1092.6</ele>
        <time>2023-08-12T14:05:14Z</time>
      </trkpt>
      <trkpt lat="48.10139" lon="7.09234">
        <ele>1092.6</ele>
        <time>2023-08-12T14:05:15Z</time>
      </trkpt>
      <trkpt lat="48.1014" lon="7.09235">
        <ele>1092.7</ele>
        <time>2023-08-12T14:05:16Z</time>
      </trkpt>
      <trkpt lat="48.1014" lon="7.09237">
        <ele>1092.7</ele>
        <time>2023-08-12T14:05:17Z</time>
      </trkpt>
      <trkpt lat="48.1014" lon="7.09237">
        <ele>1092.7</ele>
        <time>2023-08-12T14:05:18Z</time>
      </trkpt>
      <trkpt lat="48.1014" lon="7.09237">
        <ele>1092.7</ele>
        <time>2023-08-12T14:05:19Z</time>
      </trkpt>
      <trkpt lat="48.1014" lon="7.09238">
        <ele>1092.8</ele>
        <time>2023-08-12T14:05:20Z</time>
      </trkpt>
      <trkpt lat="48.1014" lon="7.09239">
        <ele>1092.8</ele>
        <time>2023-08-12T14:05:21Z</time>
      </trkpt>
      <trkpt lat="48.10141" lon="7.09241">
        <ele>1092.9</ele>
        <time>2023-08-12T14:05:22Z</time>
      </trkpt>
      <trkpt lat="48.10141" lon="7.09243">
        <ele>1092.9</ele>
        <time>2023-08-12T14:05:23Z</time>
      </trkpt>
      <trkpt lat="48.10141" lon="7.09244">
        <ele>1093</ele>
        <time>2023-08-12T14:05:24Z</time>
      </trkpt>
      <trkpt lat="48.10141" lon="7.09246">
        <ele>1093</ele>
        <time>2023-08-12T14:05:25Z</time>
      </trkpt>
      <trkpt lat="48.10142" lon="7.09247">
        <ele>1093</ele>
        <time>2023-08-12T14:05:26Z</time>
      </trkpt>
      <trkpt lat="48.10144" lon="7.09251">
        <ele>1093.1</ele>
        <time>2023-08-12T14:05:28Z</time>
      </trkpt>
      <trkpt lat="48.10145" lon="7.09259">
        <ele>1093.1</ele>
        <time>2023-08-12T14:05:32Z</time>
      </trkpt>
      <trkpt lat="48.10145" lon="7.09263">
        <ele>1093.1</ele>
        <time>2023-08-12T14:05:33Z</time>
      </trkpt>
      <trkpt lat="48.10144" lon="7.09266">
        <ele>1093</ele>
        <time>2023-08-12T14:05:34Z</time>
      </trkpt>
      <trkpt lat="48.10143" lon="7.09271">
        <ele>1092.8</ele>
        <time>2023-08-12T14:05:35Z</time>
      </trkpt>
      <trkpt lat="48.10142" lon="7.09275">
        <ele>1092.7</ele>
        <time>2023-08-12T14:05:36Z</time>
      </trkpt>
      <trkpt lat="48.1014" lon="7.09283">
        <ele>1092.3</ele>
        <time>2023-08-12T14:05:38Z</time>
      </trkpt>
      <trkpt lat="48.10139" lon="7.09293">
        <ele>1091.9</ele>
        <time>2023-08-12T14:05:40Z</time>
      </trkpt>
      <trkpt lat="48.10138" lon="7.09306">
        <ele>1091.3</ele>
        <time>2023-08-12T14:05:42Z</time>
      </trkpt>
      <trkpt lat="48.10137" lon="7.09312">
        <ele>1091</ele>
        <time>2023-08-12T14:05:43Z</time>
      </trkpt>
      <trkpt lat="48.10135" lon="7.09318">
        <ele>1090.8</ele>
        <time>2023-08-12T14:05:44Z</time>
      </trkpt>
      <trkpt lat="48.1013" lon="7.09334">
        <ele>1090.4</ele>
        <time>2023-08-12T14:05:47Z</time>
      </trkpt>
      <trkpt lat="48.10124" lon="7.09356">
        <ele>1089.9</ele>
        <time>2023-08-12T14:05:51Z</time>
      </trkpt>
      <trkpt lat="48.10123" lon="7.09361">
        <ele>1089.8</ele>
        <time>2023-08-12T14:05:52Z</time>
      </trkpt>
      <trkpt lat="48.10122" lon="7.09366">
        <ele>1089.8</ele>
        <time>2023-08-12T14:05:53Z</time>
      </trkpt>
      <trkpt lat="48.10122" lon="7.0937">
        <ele>1089.8</ele>
        <time>2023-08-12T14:05:54Z</time>
      </trkpt>
      <trkpt lat="48.10121" lon="7.09375">
        <ele>1089.7</ele>
        <time>2023-08-12T14:05:55Z</time>
      </trkpt>
      <trkpt lat="48.1012" lon="7.0938">
        <ele>1089.7</ele>
        <time>2023-08-12T14:05:56Z</time>
      </trkpt>
      <trkpt lat="48.10117" lon="7.09394">
        <ele>1089.8</ele>
        <time>2023-08-12T14:05:59Z</time>
      </trkpt>
      <trkpt lat="48.10117" lon="7.09402">
        <ele>1090</ele>
        <time>2023-08-12T14:06:01Z</time>
      </trkpt>
      <trkpt lat="48.10117" lon="7.09406">
        <ele>1090.1</ele>
        <time>2023-08-12T14:06:02Z</time>
      </trkpt>
      <trkpt lat="48.10117" lon="7.09409">
        <ele>1090.1</ele>
        <time>2023-08-12T14:06:03Z</time>
      </trkpt>
      <trkpt lat="48.10117" lon="7.09412">
        <ele>1090.2</ele>
        <time>2023-08-12T14:06:04Z</time>
      </trkpt>
      <trkpt lat="48.10116" lon="7.09414">
        <ele>1090.2</ele>
        <time>2023-08-12T14:06:05Z</time>
      </trkpt>
      <trkpt lat="48.10116" lon="7.09417">
        <ele>1090.3</ele>
        <time>2023-08-12T14:06:06Z</time>
      </trkpt>
      <trkpt lat="48.10115" lon="7.09419">
        <ele>1090.3</ele>
        <time>2023-08-12T14:06:07Z</time>
      </trkpt>
      <trkpt lat="48.10114" lon="7.09422">
        <ele>1090.3</ele>
        <time>2023-08-12T14:06:08Z</time>
      </trkpt>
      <trkpt lat="48.10113" lon="7.09425">
        <ele>1090.4</ele>
        <time>2023-08-12T14:06:09Z</time>
      </trkpt>
      <trkpt lat="48.1011" lon="7.09436">
        <ele>1090.3</ele>
        <time>2023-08-12T14:06:12Z</time>
      </trkpt>
      <trkpt lat="48.10106" lon="7.09445">
        <ele>1089.9</ele>
        <time>2023-08-12T14:06:14Z</time>
      </trkpt>
      <trkpt lat="48.10104" lon="7.09449">
        <ele>1089.7</ele>
        <time>2023-08-12T14:06:15Z</time>
      </trkpt>
      <trkpt lat="48.101" lon="7.09455">
        <ele>1089.3</ele>
        <time>2023-08-12T14:06:17Z</time>
      </trkpt>
      <trkpt lat="48.10098" lon="7.09457">
        <ele>1089.2</ele>
        <time>2023-08-12T14:06:18Z</time>
      </trkpt>
      <trkpt lat="48.10096" lon="7.0946">
        <ele>1089</ele>
        <time>2023-08-12T14:06:19Z</time>
      </trkpt>
      <trkpt lat="48.10094" lon="7.09462">
        <ele>1088.8</ele>
        <time>2023-08-12T14:06:20Z</time>
      </trkpt>
      <trkpt lat="48.10088" lon="7.09464">
        <ele>1088.4</ele>
        <time>2023-08-12T14:06:22Z</time>
      </trkpt>
      <trkpt lat="48.10086" lon="7.09466">
        <ele>1088.2</ele>
        <time>2023-08-12T14:06:23Z</time>
      </trkpt>
      <trkpt lat="48.10084" lon="7.0947">
        <ele>1088</ele>
        <time>2023-08-12T14:06:24Z</time>
      </trkpt>
      <trkpt lat="48.10082" lon="7.09474">
        <ele>1087.8</ele>
        <time>2023-08-12T14:06:25Z</time>
      </trkpt>
      <trkpt lat="48.1008" lon="7.09478">
        <ele>1087.6</ele>
        <time>2023-08-12T14:06:26Z</time>
      </trkpt>
      <trkpt lat="48.10074" lon="7.09486">
        <ele>1087.2</ele>
        <time>2023-08-12T14:06:28Z</time>
      </trkpt>
      <trkpt lat="48.10068" lon="7.09494">
        <ele>1086.7</ele>
        <time>2023-08-12T14:06:30Z</time>
      </trkpt>
      <trkpt lat="48.10059" lon="7.09505">
        <ele>1086.1</ele>
        <time>2023-08-12T14:06:33Z</time>
      </trkpt>
      <trkpt lat="48.10057" lon="7.09509">
        <ele>1085.9</ele>
        <time>2023-08-12T14:06:34Z</time>
      </trkpt>
      <trkpt lat="48.10044" lon="7.09525">
        <ele>1085</ele>
        <time>2023-08-12T14:06:38Z</time>
      </trkpt>
      <trkpt lat="48.10038" lon="7.0953">
        <ele>1084.5</ele>
        <time>2023-08-12T14:06:40Z</time>
      </trkpt>
      <trkpt lat="48.10035" lon="7.09532">
        <ele>1084.3</ele>
        <time>2023-08-12T14:06:41Z</time>
      </trkpt>
      <trkpt lat="48.10026" lon="7.09541">
        <ele>1083.5</ele>
        <time>2023-08-12T14:06:44Z</time>
      </trkpt>
      <trkpt lat="48.10014" lon="7.09555">
        <ele>1082.6</ele>
        <time>2023-08-12T14:06:48Z</time>
      </trkpt>
      <trkpt lat="48.10012" lon="7.09557">
        <ele>1082.5</ele>
        <time>2023-08-12T14:06:49Z</time>
      </trkpt>
      <trkpt lat="48.1001" lon="7.09559">
        <ele>1082.3</ele>
        <time>2023-08-12T14:06:50Z</time>
      </trkpt>
      <trkpt lat="48.10007" lon="7.09561">
        <ele>1082.1</ele>
        <time>2023-08-12T14:06:51Z</time>
      </trkpt>
      <trkpt lat="48.10001" lon="7.09569">
        <ele>1081.6</ele>
        <time>2023-08-12T14:06:53Z</time>
      </trkpt>
      <trkpt lat="48.09986" lon="7.09585">
        <ele>1080.1</ele>
        <time>2023-08-12T14:06:58Z</time>
      </trkpt>
      <trkpt lat="48.09982" lon="7.09587">
        <ele>1079.7</ele>
        <time>2023-08-12T14:06:59Z</time>
      </trkpt>
      <trkpt lat="48.09977" lon="7.09588">
        <ele>1079.3</ele>
        <time>2023-08-12T14:07:00Z</time>
      </trkpt>
      <trkpt lat="48.09966" lon="7.09595">
        <ele>1078.1</ele>
        <time>2023-08-12T14:07:03Z</time>
      </trkpt>
      <trkpt lat="48.09955" lon="7.09601">
        <ele>1077</ele>
        <time>2023-08-12T14:07:06Z</time>
      </trkpt>
      <trkpt lat="48.09947" lon="7.09605">
        <ele>1076.1</ele>
        <time>2023-08-12T14:07:08Z</time>
      </trkpt>
      <trkpt lat="48.09944" lon="7.09605">
        <ele>1075.8</ele>
        <time>2023-08-12T14:07:09Z</time>
      </trkpt>
      <trkpt lat="48.0994" lon="7.09605">
        <ele>1075.5</ele>
        <time>2023-08-12T14:07:10Z</time>
      </trkpt>
      <trkpt lat="48.09937" lon="7.09606">
        <ele>1075.2</ele>
        <time>2023-08-12T14:07:11Z</time>
      </trkpt>
      <trkpt lat="48.0993" lon="7.09609">
        <ele>1074.5</ele>
        <time>2023-08-12T14:07:13Z</time>
      </trkpt>
      <trkpt lat="48.09905" lon="7.09622">
        <ele>1072.5</ele>
        <time>2023-08-12T14:07:19Z</time>
      </trkpt>
      <trkpt lat="48.09901" lon="7.09623">
        <ele>1072.3</ele>
        <time>2023-08-12T14:07:20Z</time>
      </trkpt>
      <trkpt lat="48.09898" lon="7.09625">
        <ele>1072.1</ele>
        <time>2023-08-12T14:07:21Z</time>
      </trkpt>
      <trkpt lat="48.09891" lon="7.09629">
        <ele>1071.6</ele>
        <time>2023-08-12T14:07:23Z</time>
      </trkpt>
      <trkpt lat="48.09888" lon="7.09632">
        <ele>1071.4</ele>
        <time>2023-08-12T14:07:24Z</time>
      </trkpt>
      <trkpt lat="48.09884" lon="7.09634">
        <ele>1071.1</ele>
        <time>2023-08-12T14:07:25Z</time>
      </trkpt>
      <trkpt lat="48.09872" lon="7.09641">
        <ele>1070.3</ele>
        <time>2023-08-12T14:07:28Z</time>
      </trkpt>
      <trkpt lat="48.09868" lon="7.09643">
        <ele>1070.1</ele>
        <time>2023-08-12T14:07:29Z</time>
      </trkpt>
      <trkpt lat="48.09866" lon="7.09642">
        <ele>1069.9</ele>
        <time>2023-08-12T14:07:30Z</time>
      </trkpt>
      <trkpt lat="48.09865" lon="7.09642">
        <ele>1069.9</ele>
        <time>2023-08-12T14:07:31Z</time>
      </trkpt>
      <trkpt lat="48.09865" lon="7.09641">
        <ele>1069.8</ele>
        <time>2023-08-12T14:07:32Z</time>
      </trkpt>
      <trkpt lat="48.09865" lon="7.09641">
        <ele>1069.8</ele>
        <time>2023-08-12T14:07:33Z</time>
      </trkpt>
      <trkpt lat="48.09865" lon="7.09642">
        <ele>1069.8</ele>
        <time>2023-08-12T14:07:34Z</time>
      </trkpt>
      <trkpt lat="48.09865" lon="7.09642">
        <ele>1069.8</ele>
        <time>2023-08-12T14:07:35Z</time>
      </trkpt>
      <trkpt lat="48.09865" lon="7.09642">
        <ele>1069.8</ele>
        <time>2023-08-12T14:07:36Z</time>
      </trkpt>
      <trkpt lat="48.09865" lon="7.09641">
        <ele>1069.7</ele>
        <time>2023-08-12T14:07:42Z</time>
      </trkpt>
      <trkpt lat="48.09863" lon="7.09641">
        <ele>1069.7</ele>
        <time>2023-08-12T14:07:44Z</time>
      </trkpt>
      <trkpt lat="48.09861" lon="7.09642">
        <ele>1069.5</ele>
        <time>2023-08-12T14:07:49Z</time>
      </trkpt>
      <trkpt lat="48.09861" lon="7.09642">
        <ele>1069.5</ele>
        <time>2023-08-12T14:07:55Z</time>
      </trkpt>
      <trkpt lat="48.09861" lon="7.09642">
        <ele>1069.5</ele>
        <time>2023-08-12T14:07:59Z</time>
      </trkpt>
      <trkpt lat="48.09859" lon="7.09643">
        <ele>1069.3</ele>
        <time>2023-08-12T14:08:10Z</time>
      </trkpt>
      <trkpt lat="48.09855" lon="7.09645">
        <ele>1068.9</ele>
        <time>2023-08-12T14:08:12Z</time>
      </trkpt>
      <trkpt lat="48.09852" lon="7.09649">
        <ele>1068.5</ele>
        <time>2023-08-12T14:08:14Z</time>
      </trkpt>
      <trkpt lat="48.09851" lon="7.09652">
        <ele>1068.4</ele>
        <time>2023-08-12T14:08:15Z</time>
      </trkpt>
      <trkpt lat="48.09849" lon="7.09654">
        <ele>1068.1</ele>
        <time>2023-08-12T14:08:16Z</time>
      </trkpt>
      <trkpt lat="48.09846" lon="7.09657">
        <ele>1067.7</ele>
        <time>2023-08-12T14:08:17Z</time>
      </trkpt>
      <trkpt lat="48.09836" lon="7.09677">
        <ele>1065.8</ele>
        <time>2023-08-12T14:08:21Z</time>
      </trkpt>
      <trkpt lat="48.09836" lon="7.09684">
        <ele>1065.3</ele>
        <time>2023-08-12T14:08:22Z</time>
      </trkpt>
      <trkpt lat="48.09836" lon="7.09692">
        <ele>1064.7</ele>
        <time>2023-08-12T14:08:23Z</time>
      </trkpt>
      <trkpt lat="48.09837" lon="7.09697">
        <ele>1064.4</ele>
        <time>2023-08-12T14:08:24Z</time>
      </trkpt>
      <trkpt lat="48.09837" lon="7.09704">
        <ele>1063.9</ele>
        <time>2023-08-12T14:08:25Z</time>
      </trkpt>
      <trkpt lat="48.09837" lon="7.09712">
        <ele>1063.4</ele>
        <time>2023-08-12T14:08:26Z</time>
      </trkpt>
      <trkpt lat="48.09839" lon="7.09734">
        <ele>1061.6</ele>
        <time>2023-08-12T14:08:29Z</time>
      </trkpt>
      <trkpt lat="48.0984" lon="7.09741">
        <ele>1061</ele>
        <time>2023-08-12T14:08:30Z</time>
      </trkpt>
      <trkpt lat="48.09841" lon="7.09748">
        <ele>1060.3</ele>
        <time>2023-08-12T14:08:31Z</time>
      </trkpt>
      <trkpt lat="48.09841" lon="7.09755">
        <ele>1059.7</ele>
        <time>2023-08-12T14:08:32Z</time>
      </trkpt>
      <trkpt lat="48.09844" lon="7.09769">
        <ele>1058.4</ele>
        <time>2023-08-12T14:08:34Z</time>
      </trkpt>
      <trkpt lat="48.09849" lon="7.09796">
        <ele>1055.4</ele>
        <time>2023-08-12T14:08:37Z</time>
      </trkpt>
      <trkpt lat="48.09853" lon="7.09826">
        <ele>1051.9</ele>
        <time>2023-08-12T14:08:40Z</time>
      </trkpt>
      <trkpt lat="48.09856" lon="7.09835">
        <ele>1050.8</ele>
        <time>2023-08-12T14:08:41Z</time>
      </trkpt>
      <trkpt lat="48.09858" lon="7.09845">
        <ele>1049.7</ele>
        <time>2023-08-12T14:08:42Z</time>
      </trkpt>
      <trkpt lat="48.0986" lon="7.09853">
        <ele>1048.6</ele>
        <time>2023-08-12T14:08:43Z</time>
      </trkpt>
      <trkpt lat="48.09864" lon="7.09868">
        <ele>1046.8</ele>
        <time>2023-08-12T14:08:45Z</time>
      </trkpt>
      <trkpt lat="48.09865" lon="7.09875">
        <ele>1046</ele>
        <time>2023-08-12T14:08:46Z</time>
      </trkpt>
      <trkpt lat="48.09866" lon="7.09882">
        <ele>1045.2</ele>
        <time>2023-08-12T14:08:47Z</time>
      </trkpt>
      <trkpt lat="48.09867" lon="7.09889">
        <ele>1044.3</ele>
        <time>2023-08-12T14:08:48Z</time>
      </trkpt>
      <trkpt lat="48.09874" lon="7.09916">
        <ele>1041.1</ele>
        <time>2023-08-12T14:08:51Z</time>
      </trkpt>
      <trkpt lat="48.09877" lon="7.09925">
        <ele>1040</ele>
        <time>2023-08-12T14:08:52Z</time>
      </trkpt>
      <trkpt lat="48.0988" lon="7.09935">
        <ele>1038.8</ele>
        <time>2023-08-12T14:08:53Z</time>
      </trkpt>
      <trkpt lat="48.09883" lon="7.09944">
        <ele>1037.7</ele>
        <time>2023-08-12T14:08:54Z</time>
      </trkpt>
      <trkpt lat="48.09887" lon="7.09954">
        <ele>1036.8</ele>
        <time>2023-08-12T14:08:55Z</time>
      </trkpt>
      <trkpt lat="48.09889" lon="7.09964">
        <ele>1035.8</ele>
        <time>2023-08-12T14:08:56Z</time>
      </trkpt>
      <trkpt lat="48.09891" lon="7.09974">
        <ele>1034.9</ele>
        <time>2023-08-12T14:08:57Z</time>
      </trkpt>
      <trkpt lat="48.09894" lon="7.09983">
        <ele>1033.9</ele>
        <time>2023-08-12T14:08:58Z</time>
      </trkpt>
      <trkpt lat="48.09896" lon="7.09992">
        <ele>1033</ele>
        <time>2023-08-12T14:08:59Z</time>
      </trkpt>
      <trkpt lat="48.09898" lon="7.1">
        <ele>1032</ele>
        <time>2023-08-12T14:09:00Z</time>
      </trkpt>
      <trkpt lat="48.09898" lon="7.10007">
        <ele>1031.1</ele>
        <time>2023-08-12T14:09:01Z</time>
      </trkpt>
      <trkpt lat="48.09899" lon="7.10013">
        <ele>1030.2</ele>
        <time>2023-08-12T14:09:02Z</time>
      </trkpt>
      <trkpt lat="48.09899" lon="7.10019">
        <ele>1029.4</ele>
        <time>2023-08-12T14:09:03Z</time>
      </trkpt>
      <trkpt lat="48.09899" lon="7.10025">
        <ele>1028.6</ele>
        <time>2023-08-12T14:09:04Z</time>
      </trkpt>
      <trkpt lat="48.09899" lon="7.10032">
        <ele>1027.7</ele>
        <time>2023-08-12T14:09:05Z</time>
      </trkpt>
      <trkpt lat="48.099" lon="7.10066">
        <ele>1024.3</ele>
        <time>2023-08-12T14:09:09Z</time>
      </trkpt>
      <trkpt lat="48.09899" lon="7.10074">
        <ele>1023.5</ele>
        <time>2023-08-12T14:09:10Z</time>
      </trkpt>
      <trkpt lat="48.09899" lon="7.10081">
        <ele>1022.8</ele>
        <time>2023-08-12T14:09:11Z</time>
      </trkpt>
      <trkpt lat="48.09899" lon="7.10088">
        <ele>1022.1</ele>
        <time>2023-08-12T14:09:12Z</time>
      </trkpt>
      <trkpt lat="48.09899" lon="7.10095">
        <ele>1021.5</ele>
        <time>2023-08-12T14:09:13Z</time>
      </trkpt>
      <trkpt lat="48.09899" lon="7.10101">
        <ele>1020.9</ele>
        <time>2023-08-12T14:09:14Z</time>
      </trkpt>
      <trkpt lat="48.09898" lon="7.10107">
        <ele>1020.3</ele>
        <time>2023-08-12T14:09:15Z</time>
      </trkpt>
      <trkpt lat="48.09897" lon="7.10113">
        <ele>1019.6</ele>
        <time>2023-08-12T14:09:16Z</time>
      </trkpt>
      <trkpt lat="48.09896" lon="7.1012">
        <ele>1018.9</ele>
        <time>2023-08-12T14:09:17Z</time>
      </trkpt>
      <trkpt lat="48.09894" lon="7.10126">
        <ele>1018.2</ele>
        <time>2023-08-12T14:09:18Z</time>
      </trkpt>
      <trkpt lat="48.09893" lon="7.10132">
        <ele>1017.6</ele>
        <time>2023-08-12T14:09:19Z</time>
      </trkpt>
      <trkpt lat="48.09893" lon="7.10138">
        <ele>1017</ele>
        <time>2023-08-12T14:09:20Z</time>
      </trkpt>
      <trkpt lat="48.09893" lon="7.10143">
        <ele>1016.4</ele>
        <time>2023-08-12T14:09:21Z</time>
      </trkpt>
      <trkpt lat="48.09893" lon="7.10149">
        <ele>1015.9</ele>
        <time>2023-08-12T14:09:22Z</time>
      </trkpt>
      <trkpt lat="48.09894" lon="7.10154">
        <ele>1015.3</ele>
        <time>2023-08-12T14:09:23Z</time>
      </trkpt>
      <trkpt lat="48.09897" lon="7.1016">
        <ele>1014.8</ele>
        <time>2023-08-12T14:09:24Z</time>
      </trkpt>
      <trkpt lat="48.09899" lon="7.10165">
        <ele>1014.2</ele>
        <time>2023-08-12T14:09:25Z</time>
      </trkpt>
      <trkpt lat="48.09901" lon="7.10171">
        <ele>1013.7</ele>
        <time>2023-08-12T14:09:26Z</time>
      </trkpt>
      <trkpt lat="48.09902" lon="7.10177">
        <ele>1013</ele>
        <time>2023-08-12T14:09:27Z</time>
      </trkpt>
      <trkpt lat="48.09901" lon="7.10184">
        <ele>1012.4</ele>
        <time>2023-08-12T14:09:28Z</time>
      </trkpt>
      <trkpt lat="48.099" lon="7.10189">
        <ele>1011.9</ele>
        <time>2023-08-12T14:09:29Z</time>
      </trkpt>
      <trkpt lat="48.099" lon="7.10194">
        <ele>1011.3</ele>
        <time>2023-08-12T14:09:30Z</time>
      </trkpt>
      <trkpt lat="48.099" lon="7.10201">
        <ele>1010.5</ele>
        <time>2023-08-12T14:09:31Z</time>
      </trkpt>
      <trkpt lat="48.099" lon="7.10208">
        <ele>1009.5</ele>
        <time>2023-08-12T14:09:32Z</time>
      </trkpt>
      <trkpt lat="48.09898" lon="7.10221">
        <ele>1007.9</ele>
        <time>2023-08-12T14:09:34Z</time>
      </trkpt>
      <trkpt lat="48.09896" lon="7.10226">
        <ele>1007.3</ele>
        <time>2023-08-12T14:09:35Z</time>
      </trkpt>
      <trkpt lat="48.09895" lon="7.10231">
        <ele>1006.6</ele>
        <time>2023-08-12T14:09:36Z</time>
      </trkpt>
      <trkpt lat="48.09895" lon="7.10235">
        <ele>1006.1</ele>
        <time>2023-08-12T14:09:37Z</time>
      </trkpt>
      <trkpt lat="48.09895" lon="7.1024">
        <ele>1005.6</ele>
        <time>2023-08-12T14:09:38Z</time>
      </trkpt>
      <trkpt lat="48.09893" lon="7.10244">
        <ele>1005</ele>
        <time>2023-08-12T14:09:39Z</time>
      </trkpt>
      <trkpt lat="48.09892" lon="7.1025">
        <ele>1004.2</ele>
        <time>2023-08-12T14:09:40Z</time>
      </trkpt>
      <trkpt lat="48.09892" lon="7.10257">
        <ele>1003.5</ele>
        <time>2023-08-12T14:09:41Z</time>
      </trkpt>
      <trkpt lat="48.09892" lon="7.10261">
        <ele>1003</ele>
        <time>2023-08-12T14:09:42Z</time>
      </trkpt>
      <trkpt lat="48.09893" lon="7.10267">
        <ele>1002.5</ele>
        <time>2023-08-12T14:09:43Z</time>
      </trkpt>
      <trkpt lat="48.09893" lon="7.10273">
        <ele>1001.9</ele>
        <time>2023-08-12T14:09:44Z</time>
      </trkpt>
      <trkpt lat="48.09893" lon="7.10279">
        <ele>1001.4</ele>
        <time>2023-08-12T14:09:45Z</time>
      </trkpt>
      <trkpt lat="48.09893" lon="7.10286">
        <ele>1000.8</ele>
        <time>2023-08-12T14:09:46Z</time>
      </trkpt>
      <trkpt lat="48.09893" lon="7.10293">
        <ele>1000.2</ele>
        <time>2023-08-12T14:09:47Z</time>
      </trkpt>
      <trkpt lat="48.09892" lon="7.10299">
        <ele>999.5</ele>
        <time>2023-08-12T14:09:48Z</time>
      </trkpt>
      <trkpt lat="48.09891" lon="7.10305">
        <ele>998.8</ele>
        <time>2023-08-12T14:09:49Z</time>
      </trkpt>
      <trkpt lat="48.09891" lon="7.10312">
        <ele>998.1</ele>
        <time>2023-08-12T14:09:50Z</time>
      </trkpt>
      <trkpt lat="48.09891" lon="7.10319">
        <ele>997.2</ele>
        <time>2023-08-12T14:09:51Z</time>
      </trkpt>
      <trkpt lat="48.0989" lon="7.10327">
        <ele>996.4</ele>
        <time>2023-08-12T14:09:52Z</time>
      </trkpt>
      <trkpt lat="48.09888" lon="7.10335">
        <ele>995.4</ele>
        <time>2023-08-12T14:09:53Z</time>
      </trkpt>
      <trkpt lat="48.09885" lon="7.10343">
        <ele>994.3</ele>
        <time>2023-08-12T14:09:54Z</time>
      </trkpt>
      <trkpt lat="48.09881" lon="7.10351">
        <ele>993.1</ele>
        <time>2023-08-12T14:09:55Z</time>
      </trkpt>
      <trkpt lat="48.09878" lon="7.10361">
        <ele>991.9</ele>
        <time>2023-08-12T14:09:56Z</time>
      </trkpt>
      <trkpt lat="48.09873" lon="7.10373">
        <ele>990.5</ele>
        <time>2023-08-12T14:09:57Z</time>
      </trkpt>
      <trkpt lat="48.09872" lon="7.10384">
        <ele>989.4</ele>
        <time>2023-08-12T14:09:58Z</time>
      </trkpt>
      <trkpt lat="48.09873" lon="7.10395">
        <ele>988.7</ele>
        <time>2023-08-12T14:09:59Z</time>
      </trkpt>
      <trkpt lat="48.09873" lon="7.10407">
        <ele>987.9</ele>
        <time>2023-08-12T14:10:00Z</time>
      </trkpt>
      <trkpt lat="48.09875" lon="7.1042">
        <ele>987.1</ele>
        <time>2023-08-12T14:10:01Z</time>
      </trkpt>
      <trkpt lat="48.09877" lon="7.10433">
        <ele>986.1</ele>
        <time>2023-08-12T14:10:02Z</time>
      </trkpt>
      <trkpt lat="48.09878" lon="7.10443">
        <ele>985.3</ele>
        <time>2023-08-12T14:10:03Z</time>
      </trkpt>
      <trkpt lat="48.09877" lon="7.10453">
        <ele>984.6</ele>
        <time>2023-08-12T14:10:04Z</time>
      </trkpt>
      <trkpt lat="48.09875" lon="7.10462">
        <ele>983.6</ele>
        <time>2023-08-12T14:10:05Z</time>
      </trkpt>
      <trkpt lat="48.09871" lon="7.10472">
        <ele>982.5</ele>
        <time>2023-08-12T14:10:06Z</time>
      </trkpt>
      <trkpt lat="48.09865" lon="7.10481">
        <ele>981.2</ele>
        <time>2023-08-12T14:10:07Z</time>
      </trkpt>
      <trkpt lat="48.0986" lon="7.10489">
        <ele>980</ele>
        <time>2023-08-12T14:10:08Z</time>
      </trkpt>
      <trkpt lat="48.09855" lon="7.10496">
        <ele>979</ele>
        <time>2023-08-12T14:10:09Z</time>
      </trkpt>
      <trkpt lat="48.09852" lon="7.105">
        <ele>978.3</ele>
        <time>2023-08-12T14:10:10Z</time>
      </trkpt>
      <trkpt lat="48.09849" lon="7.10503">
        <ele>977.8</ele>
        <time>2023-08-12T14:10:11Z</time>
      </trkpt>
      <trkpt lat="48.09847" lon="7.10505">
        <ele>977.5</ele>
        <time>2023-08-12T14:10:12Z</time>
      </trkpt>
      <trkpt lat="48.09846" lon="7.10506">
        <ele>977.3</ele>
        <time>2023-08-12T14:10:13Z</time>
      </trkpt>
      <trkpt lat="48.09846" lon="7.10506">
        <ele>977.3</ele>
        <time>2023-08-12T14:10:15Z</time>
      </trkpt>
      <trkpt lat="48.09846" lon="7.10506">
        <ele>977.3</ele>
        <time>2023-08-12T14:10:16Z</time>
      </trkpt>
      <trkpt lat="48.09846" lon="7.10506">
        <ele>977.3</ele>
        <time>2023-08-12T14:10:26Z</time>
      </trkpt>
      <trkpt lat="48.09846" lon="7.10506">
        <ele>977.3</ele>
        <time>2023-08-12T14:10:28Z</time>
      </trkpt>
      <trkpt lat="48.09846" lon="7.10506">
        <ele>977.3</ele>
        <time>2023-08-12T14:10:30Z</time>
      </trkpt>
      <trkpt lat="48.09846" lon="7.10506">
        <ele>977.3</ele>
        <time>2023-08-12T14:10:35Z</time>
      </trkpt>
      <trkpt lat="48.09846" lon="7.10506">
        <ele>977.3</ele>
        <time>2023-08-12T14:10:40Z</time>
      </trkpt>
      <trkpt lat="48.09843" lon="7.10507">
        <ele>977</ele>
        <time>2023-08-12T14:10:44Z</time>
      </trkpt>
      <trkpt lat="48.09836" lon="7.10511">
        <ele>976.1</ele>
        <time>2023-08-12T14:10:46Z</time>
      </trkpt>
      <trkpt lat="48.09832" lon="7.10513">
        <ele>975.5</ele>
        <time>2023-08-12T14:10:47Z</time>
      </trkpt>
      <trkpt lat="48.09826" lon="7.10514">
        <ele>974.9</ele>
        <time>2023-08-12T14:10:48Z</time>
      </trkpt>
      <trkpt lat="48.09815" lon="7.10517">
        <ele>973.9</ele>
        <time>2023-08-12T14:10:50Z</time>
      </trkpt>
      <trkpt lat="48.09808" lon="7.10519">
        <ele>973.4</ele>
        <time>2023-08-12T14:10:51Z</time>
      </trkpt>
      <trkpt lat="48.0979" lon="7.10524">
        <ele>972.3</ele>
        <time>2023-08-12T14:10:54Z</time>
      </trkpt>
      <trkpt lat="48.09784" lon="7.10526">
        <ele>972</ele>
        <time>2023-08-12T14:10:55Z</time>
      </trkpt>
      <trkpt lat="48.09777" lon="7.10529">
        <ele>971.7</ele>
        <time>2023-08-12T14:10:56Z</time>
      </trkpt>
      <trkpt lat="48.09762" lon="7.10537">
        <ele>971.2</ele>
        <time>2023-08-12T14:10:59Z</time>
      </trkpt>
      <trkpt lat="48.09757" lon="7.1054">
        <ele>971.1</ele>
        <time>2023-08-12T14:11:00Z</time>
      </trkpt>
      <trkpt lat="48.09751" lon="7.10542">
        <ele>970.9</ele>
        <time>2023-08-12T14:11:01Z</time>
      </trkpt>
      <trkpt lat="48.09746" lon="7.10544">
        <ele>970.8</ele>
        <time>2023-08-12T14:11:02Z</time>
      </trkpt>
      <trkpt lat="48.09741" lon="7.10546">
        <ele>970.6</ele>
        <time>2023-08-12T14:11:03Z</time>
      </trkpt>
      <trkpt lat="48.09736" lon="7.10546">
        <ele>970.5</ele>
        <time>2023-08-12T14:11:04Z</time>
      </trkpt>
      <trkpt lat="48.09732" lon="7.10545">
        <ele>970.5</ele>
        <time>2023-08-12T14:11:05Z</time>
      </trkpt>
      <trkpt lat="48.09727" lon="7.10543">
        <ele>970.5</ele>
        <time>2023-08-12T14:11:06Z</time>
      </trkpt>
      <trkpt lat="48.09722" lon="7.10541">
        <ele>970.4</ele>
        <time>2023-08-12T14:11:07Z</time>
      </trkpt>
      <trkpt lat="48.09718" lon="7.10539">
        <ele>970.4</ele>
        <time>2023-08-12T14:11:08Z</time>
      </trkpt>
      <trkpt lat="48.09714" lon="7.10536">
        <ele>970.3</ele>
        <time>2023-08-12T14:11:09Z</time>
      </trkpt>
      <trkpt lat="48.09711" lon="7.10535">
        <ele>970.2</ele>
        <time>2023-08-12T14:11:10Z</time>
      </trkpt>
      <trkpt lat="48.09707" lon="7.10532">
        <ele>970.2</ele>
        <time>2023-08-12T14:11:11Z</time>
      </trkpt>
      <trkpt lat="48.09703" lon="7.10531">
        <ele>970.1</ele>
        <time>2023-08-12T14:11:12Z</time>
      </trkpt>
      <trkpt lat="48.09699" lon="7.10529">
        <ele>970</ele>
        <time>2023-08-12T14:11:13Z</time>
      </trkpt>
      <trkpt lat="48.09695" lon="7.10528">
        <ele>969.9</ele>
        <time>2023-08-12T14:11:14Z</time>
      </trkpt>
      <trkpt lat="48.09691" lon="7.10528">
        <ele>969.8</ele>
        <time>2023-08-12T14:11:15Z</time>
      </trkpt>
      <trkpt lat="48.09686" lon="7.10527">
        <ele>969.7</ele>
        <time>2023-08-12T14:11:16Z</time>
      </trkpt>
      <trkpt lat="48.09678" lon="7.10526">
        <ele>969.5</ele>
        <time>2023-08-12T14:11:18Z</time>
      </trkpt>
      <trkpt lat="48.09654" lon="7.10525">
        <ele>968.7</ele>
        <time>2023-08-12T14:11:23Z</time>
      </trkpt>
      <trkpt lat="48.09649" lon="7.10526">
        <ele>968.6</ele>
        <time>2023-08-12T14:11:24Z</time>
      </trkpt>
      <trkpt lat="48.09645" lon="7.10528">
        <ele>968.5</ele>
        <time>2023-08-12T14:11:25Z</time>
      </trkpt>
      <trkpt lat="48.0962" lon="7.10546">
        <ele>968</ele>
        <time>2023-08-12T14:11:30Z</time>
      </trkpt>
      <trkpt lat="48.09616" lon="7.10551">
        <ele>968</ele>
        <time>2023-08-12T14:11:31Z</time>
      </trkpt>
      <trkpt lat="48.09605" lon="7.10563">
        <ele>967.6</ele>
        <time>2023-08-12T14:11:34Z</time>
      </trkpt>
      <trkpt lat="48.09601" lon="7.10567">
        <ele>967.4</ele>
        <time>2023-08-12T14:11:35Z</time>
      </trkpt>
      <trkpt lat="48.09597" lon="7.10571">
        <ele>967.2</ele>
        <time>2023-08-12T14:11:36Z</time>
      </trkpt>
      <trkpt lat="48.09589" lon="7.1058">
        <ele>966.7</ele>
        <time>2023-08-12T14:11:38Z</time>
      </trkpt>
      <trkpt lat="48.09579" lon="7.10589">
        <ele>966.1</ele>
        <time>2023-08-12T14:11:40Z</time>
      </trkpt>
      <trkpt lat="48.09563" lon="7.10603">
        <ele>965.4</ele>
        <time>2023-08-12T14:11:43Z</time>
      </trkpt>
      <trkpt lat="48.09558" lon="7.10608">
        <ele>965.2</ele>
        <time>2023-08-12T14:11:44Z</time>
      </trkpt>
      <trkpt lat="48.09553" lon="7.10614">
        <ele>965.1</ele>
        <time>2023-08-12T14:11:45Z</time>
      </trkpt>
      <trkpt lat="48.09548" lon="7.10619">
        <ele>965</ele>
        <time>2023-08-12T14:11:46Z</time>
      </trkpt>
      <trkpt lat="48.09526" lon="7.10642">
        <ele>964.6</ele>
        <time>2023-08-12T14:11:50Z</time>
      </trkpt>
      <trkpt lat="48.09511" lon="7.10657">
        <ele>964.3</ele>
        <time>2023-08-12T14:11:53Z</time>
      </trkpt>
      <trkpt lat="48.09501" lon="7.10666">
        <ele>964.2</ele>
        <time>2023-08-12T14:11:55Z</time>
      </trkpt>
      <trkpt lat="48.09486" lon="7.10678">
        <ele>964.1</ele>
        <time>2023-08-12T14:11:58Z</time>
      </trkpt>
      <trkpt lat="48.09481" lon="7.10682">
        <ele>964.1</ele>
        <time>2023-08-12T14:11:59Z</time>
      </trkpt>
      <trkpt lat="48.09476" lon="7.10686">
        <ele>964</ele>
        <time>2023-08-12T14:12:00Z</time>
      </trkpt>
      <trkpt lat="48.09472" lon="7.1069">
        <ele>963.9</ele>
        <time>2023-08-12T14:12:01Z</time>
      </trkpt>
      <trkpt lat="48.09467" lon="7.10694">
        <ele>963.7</ele>
        <time>2023-08-12T14:12:02Z</time>
      </trkpt>
      <trkpt lat="48.09463" lon="7.10698">
        <ele>963.6</ele>
        <time>2023-08-12T14:12:03Z</time>
      </trkpt>
      <trkpt lat="48.09459" lon="7.10703">
        <ele>963.4</ele>
        <time>2023-08-12T14:12:04Z</time>
      </trkpt>
      <trkpt lat="48.09454" lon="7.10707">
        <ele>963.2</ele>
        <time>2023-08-12T14:12:05Z</time>
      </trkpt>
      <trkpt lat="48.0945" lon="7.10711">
        <ele>963</ele>
        <time>2023-08-12T14:12:06Z</time>
      </trkpt>
      <trkpt lat="48.09445" lon="7.10716">
        <ele>962.7</ele>
        <time>2023-08-12T14:12:07Z</time>
      </trkpt>
      <trkpt lat="48.09436" lon="7.10725">
        <ele>962.4</ele>
        <time>2023-08-12T14:12:09Z</time>
      </trkpt>
      <trkpt lat="48.09423" lon="7.10742">
        <ele>962.2</ele>
        <time>2023-08-12T14:12:12Z</time>
      </trkpt>
      <trkpt lat="48.09413" lon="7.10748">
        <ele>962.1</ele>
        <time>2023-08-12T14:12:14Z</time>
      </trkpt>
      <trkpt lat="48.09405" lon="7.10756">
        <ele>962.1</ele>
        <time>2023-08-12T14:12:16Z</time>
      </trkpt>
      <trkpt lat="48.09401" lon="7.1076">
        <ele>962</ele>
        <time>2023-08-12T14:12:17Z</time>
      </trkpt>
      <trkpt lat="48.09388" lon="7.10771">
        <ele>961.7</ele>
        <time>2023-08-12T14:12:20Z</time>
      </trkpt>
      <trkpt lat="48.09379" lon="7.10777">
        <ele>961.3</ele>
        <time>2023-08-12T14:12:22Z</time>
      </trkpt>
      <trkpt lat="48.09374" lon="7.10781">
        <ele>961</ele>
        <time>2023-08-12T14:12:23Z</time>
      </trkpt>
      <trkpt lat="48.0937" lon="7.10785">
        <ele>960.8</ele>
        <time>2023-08-12T14:12:24Z</time>
      </trkpt>
      <trkpt lat="48.09365" lon="7.10788">
        <ele>960.6</ele>
        <time>2023-08-12T14:12:25Z</time>
      </trkpt>
      <trkpt lat="48.0936" lon="7.10792">
        <ele>960.5</ele>
        <time>2023-08-12T14:12:26Z</time>
      </trkpt>
      <trkpt lat="48.0935" lon="7.10801">
        <ele>960.4</ele>
        <time>2023-08-12T14:12:28Z</time>
      </trkpt>
      <trkpt lat="48.0934" lon="7.10809">
        <ele>960.4</ele>
        <time>2023-08-12T14:12:30Z</time>
      </trkpt>
      <trkpt lat="48.09322" lon="7.10827">
        <ele>960.9</ele>
        <time>2023-08-12T14:12:34Z</time>
      </trkpt>
      <trkpt lat="48.09318" lon="7.10832">
        <ele>961</ele>
        <time>2023-08-12T14:12:35Z</time>
      </trkpt>
      <trkpt lat="48.09315" lon="7.10837">
        <ele>961.1</ele>
        <time>2023-08-12T14:12:36Z</time>
      </trkpt>
      <trkpt lat="48.09312" lon="7.10841">
        <ele>961.3</ele>
        <time>2023-08-12T14:12:37Z</time>
      </trkpt>
      <trkpt lat="48.09309" lon="7.10845">
        <ele>961.4</ele>
        <time>2023-08-12T14:12:38Z</time>
      </trkpt>
      <trkpt lat="48.09305" lon="7.1085">
        <ele>961.5</ele>
        <time>2023-08-12T14:12:39Z</time>
      </trkpt>
      <trkpt lat="48.09301" lon="7.10853">
        <ele>961.7</ele>
        <time>2023-08-12T14:12:40Z</time>
      </trkpt>
      <trkpt lat="48.09298" lon="7.10857">
        <ele>961.9</ele>
        <time>2023-08-12T14:12:41Z</time>
      </trkpt>
      <trkpt lat="48.09295" lon="7.10861">
        <ele>962.1</ele>
        <time>2023-08-12T14:12:42Z</time>
      </trkpt>
      <trkpt lat="48.09292" lon="7.10864">
        <ele>962.2</ele>
        <time>2023-08-12T14:12:43Z</time>
      </trkpt>
      <trkpt lat="48.0929" lon="7.10867">
        <ele>962.4</ele>
        <time>2023-08-12T14:12:44Z</time>
      </trkpt>
      <trkpt lat="48.09287" lon="7.1087">
        <ele>962.6</ele>
        <time>2023-08-12T14:12:45Z</time>
      </trkpt>
      <trkpt lat="48.09286" lon="7.10873">
        <ele>962.7</ele>
        <time>2023-08-12T14:12:46Z</time>
      </trkpt>
      <trkpt lat="48.09284" lon="7.10877">
        <ele>962.9</ele>
        <time>2023-08-12T14:12:47Z</time>
      </trkpt>
      <trkpt lat="48.09282" lon="7.10879">
        <ele>963</ele>
        <time>2023-08-12T14:12:48Z</time>
      </trkpt>
      <trkpt lat="48.0928" lon="7.10882">
        <ele>963.2</ele>
        <time>2023-08-12T14:12:49Z</time>
      </trkpt>
      <trkpt lat="48.09278" lon="7.10885">
        <ele>963.3</ele>
        <time>2023-08-12T14:12:50Z</time>
      </trkpt>
      <trkpt lat="48.09275" lon="7.10887">
        <ele>963.5</ele>
        <time>2023-08-12T14:12:51Z</time>
      </trkpt>
      <trkpt lat="48.09273" lon="7.10889">
        <ele>963.6</ele>
        <time>2023-08-12T14:12:52Z</time>
      </trkpt>
      <trkpt lat="48.09271" lon="7.10891">
        <ele>963.7</ele>
        <time>2023-08-12T14:12:53Z</time>
      </trkpt>
      <trkpt lat="48.09269" lon="7.10893">
        <ele>963.8</ele>
        <time>2023-08-12T14:12:54Z</time>
      </trkpt>
      <trkpt lat="48.09267" lon="7.10895">
        <ele>963.9</ele>
        <time>2023-08-12T14:12:55Z</time>
      </trkpt>
      <trkpt lat="48.09265" lon="7.10897">
        <ele>964.1</ele>
        <time>2023-08-12T14:12:56Z</time>
      </trkpt>
      <trkpt lat="48.09263" lon="7.10899">
        <ele>964.2</ele>
        <time>2023-08-12T14:12:57Z</time>
      </trkpt>
      <trkpt lat="48.09261" lon="7.10901">
        <ele>964.3</ele>
        <time>2023-08-12T14:12:58Z</time>
      </trkpt>
      <trkpt lat="48.09259" lon="7.10903">
        <ele>964.4</ele>
        <time>2023-08-12T14:12:59Z</time>
      </trkpt>
      <trkpt lat="48.09257" lon="7.10905">
        <ele>964.5</ele>
        <time>2023-08-12T14:13:00Z</time>
      </trkpt>
      <trkpt lat="48.09256" lon="7.10908">
        <ele>964.7</ele>
        <time>2023-08-12T14:13:01Z</time>
      </trkpt>
      <trkpt lat="48.09254" lon="7.10911">
        <ele>964.8</ele>
        <time>2023-08-12T14:13:02Z</time>
      </trkpt>
      <trkpt lat="48.09253" lon="7.10913">
        <ele>964.9</ele>
        <time>2023-08-12T14:13:03Z</time>
      </trkpt>
      <trkpt lat="48.09251" lon="7.10915">
        <ele>965</ele>
        <time>2023-08-12T14:13:04Z</time>
      </trkpt>
      <trkpt lat="48.09243" lon="7.10919">
        <ele>965.5</ele>
        <time>2023-08-12T14:13:07Z</time>
      </trkpt>
      <trkpt lat="48.0924" lon="7.10921">
        <ele>965.6</ele>
        <time>2023-08-12T14:13:08Z</time>
      </trkpt>
      <trkpt lat="48.09234" lon="7.10927">
        <ele>966</ele>
        <time>2023-08-12T14:13:12Z</time>
      </trkpt>
      <trkpt lat="48.09233" lon="7.10928">
        <ele>966</ele>
        <time>2023-08-12T14:13:13Z</time>
      </trkpt>
      <trkpt lat="48.09231" lon="7.10929">
        <ele>966.1</ele>
        <time>2023-08-12T14:13:14Z</time>
      </trkpt>
      <trkpt lat="48.09225" lon="7.10936">
        <ele>966.4</ele>
        <time>2023-08-12T14:13:17Z</time>
      </trkpt>
      <trkpt lat="48.09224" lon="7.10938">
        <ele>966.5</ele>
        <time>2023-08-12T14:13:18Z</time>
      </trkpt>
      <trkpt lat="48.09222" lon="7.10941">
        <ele>966.5</ele>
        <time>2023-08-12T14:13:19Z</time>
      </trkpt>
      <trkpt lat="48.09211" lon="7.10951">
        <ele>966.7</ele>
        <time>2023-08-12T14:13:23Z</time>
      </trkpt>
      <trkpt lat="48.09207" lon="7.10954">
        <ele>966.7</ele>
        <time>2023-08-12T14:13:24Z</time>
      </trkpt>
      <trkpt lat="48.09198" lon="7.10961">
        <ele>966.7</ele>
        <time>2023-08-12T14:13:27Z</time>
      </trkpt>
      <trkpt lat="48.09195" lon="7.10963">
        <ele>966.7</ele>
        <time>2023-08-12T14:13:28Z</time>
      </trkpt>
      <trkpt lat="48.09192" lon="7.10965">
        <ele>966.7</ele>
        <time>2023-08-12T14:13:29Z</time>
      </trkpt>
      <trkpt lat="48.09189" lon="7.10968">
        <ele>966.7</ele>
        <time>2023-08-12T14:13:30Z</time>
      </trkpt>
      <trkpt lat="48.09182" lon="7.10975">
        <ele>966.6</ele>
        <time>2023-08-12T14:13:32Z</time>
      </trkpt>
      <trkpt lat="48.09173" lon="7.10982">
        <ele>966.5</ele>
        <time>2023-08-12T14:13:34Z</time>
      </trkpt>
      <trkpt lat="48.09168" lon="7.10986">
        <ele>966.5</ele>
        <time>2023-08-12T14:13:35Z</time>
      </trkpt>
      <trkpt lat="48.09165" lon="7.10991">
        <ele>966.4</ele>
        <time>2023-08-12T14:13:36Z</time>
      </trkpt>
      <trkpt lat="48.09162" lon="7.10996">
        <ele>966.3</ele>
        <time>2023-08-12T14:13:37Z</time>
      </trkpt>
      <trkpt lat="48.09159" lon="7.10999">
        <ele>966.3</ele>
        <time>2023-08-12T14:13:38Z</time>
      </trkpt>
      <trkpt lat="48.09151" lon="7.11008">
        <ele>966</ele>
        <time>2023-08-12T14:13:40Z</time>
      </trkpt>
      <trkpt lat="48.09145" lon="7.11017">
        <ele>965.7</ele>
        <time>2023-08-12T14:13:42Z</time>
      </trkpt>
      <trkpt lat="48.09143" lon="7.1102">
        <ele>965.6</ele>
        <time>2023-08-12T14:13:43Z</time>
      </trkpt>
      <trkpt lat="48.09139" lon="7.11024">
        <ele>965.4</ele>
        <time>2023-08-12T14:13:44Z</time>
      </trkpt>
      <trkpt lat="48.09136" lon="7.11027">
        <ele>965.2</ele>
        <time>2023-08-12T14:13:45Z</time>
      </trkpt>
      <trkpt lat="48.09133" lon="7.1103">
        <ele>965</ele>
        <time>2023-08-12T14:13:46Z</time>
      </trkpt>
      <trkpt lat="48.0913" lon="7.11034">
        <ele>964.8</ele>
        <time>2023-08-12T14:13:47Z</time>
      </trkpt>
      <trkpt lat="48.09127" lon="7.11038">
        <ele>964.6</ele>
        <time>2023-08-12T14:13:48Z</time>
      </trkpt>
      <trkpt lat="48.09111" lon="7.11073">
        <ele>963.1</ele>
        <time>2023-08-12T14:13:54Z</time>
      </trkpt>
      <trkpt lat="48.09109" lon="7.11079">
        <ele>962.9</ele>
        <time>2023-08-12T14:13:55Z</time>
      </trkpt>
      <trkpt lat="48.09109" lon="7.11085">
        <ele>962.7</ele>
        <time>2023-08-12T14:13:56Z</time>
      </trkpt>
      <trkpt lat="48.09109" lon="7.1109">
        <ele>962.5</ele>
        <time>2023-08-12T14:13:57Z</time>
      </trkpt>
      <trkpt lat="48.09109" lon="7.11093">
        <ele>962.3</ele>
        <time>2023-08-12T14:13:58Z</time>
      </trkpt>
      <trkpt lat="48.09108" lon="7.11097">
        <ele>962</ele>
        <time>2023-08-12T14:13:59Z</time>
      </trkpt>
      <trkpt lat="48.09107" lon="7.11111">
        <ele>961.1</ele>
        <time>2023-08-12T14:14:02Z</time>
      </trkpt>
      <trkpt lat="48.09102" lon="7.11136">
        <ele>959.2</ele>
        <time>2023-08-12T14:14:06Z</time>
      </trkpt>
      <trkpt lat="48.091" lon="7.11151">
        <ele>957.9</ele>
        <time>2023-08-12T14:14:08Z</time>
      </trkpt>
      <trkpt lat="48.091" lon="7.11169">
        <ele>956.5</ele>
        <time>2023-08-12T14:14:10Z</time>
      </trkpt>
      <trkpt lat="48.09102" lon="7.11189">
        <ele>954.9</ele>
        <time>2023-08-12T14:14:12Z</time>
      </trkpt>
      <trkpt lat="48.091" lon="7.11198">
        <ele>954.6</ele>
        <time>2023-08-12T14:14:13Z</time>
      </trkpt>
      <trkpt lat="48.09098" lon="7.11206">
        <ele>954.3</ele>
        <time>2023-08-12T14:14:14Z</time>
      </trkpt>
      <trkpt lat="48.09096" lon="7.11213">
        <ele>954</ele>
        <time>2023-08-12T14:14:15Z</time>
      </trkpt>
      <trkpt lat="48.09093" lon="7.11219">
        <ele>953.8</ele>
        <time>2023-08-12T14:14:16Z</time>
      </trkpt>
      <trkpt lat="48.09091" lon="7.11223">
        <ele>953.8</ele>
        <time>2023-08-12T14:14:17Z</time>
      </trkpt>
      <trkpt lat="48.0909" lon="7.11226">
        <ele>953.9</ele>
        <time>2023-08-12T14:14:18Z</time>
      </trkpt>
      <trkpt lat="48.09088" lon="7.11227">
        <ele>954</ele>
        <time>2023-08-12T14:14:19Z</time>
      </trkpt>
      <trkpt lat="48.09088" lon="7.11227">
        <ele>954</ele>
        <time>2023-08-12T14:14:20Z</time>
      </trkpt>
      <trkpt lat="48.09088" lon="7.11227">
        <ele>954</ele>
        <time>2023-08-12T14:14:25Z</time>
      </trkpt>
      <trkpt lat="48.09088" lon="7.11227">
        <ele>954</ele>
        <time>2023-08-12T14:14:43Z</time>
      </trkpt>
      <trkpt lat="48.09088" lon="7.11227">
        <ele>954</ele>
        <time>2023-08-12T14:14:45Z</time>
      </trkpt>
      <trkpt lat="48.09088" lon="7.11227">
        <ele>954</ele>
        <time>2023-08-12T14:14:56Z</time>
      </trkpt>
      <trkpt lat="48.09087" lon="7.11229">
        <ele>954.1</ele>
        <time>2023-08-12T14:14:57Z</time>
      </trkpt>
      <trkpt lat="48.09086" lon="7.11234">
        <ele>954.2</ele>
        <time>2023-08-12T14:14:59Z</time>
      </trkpt>
      <trkpt lat="48.09086" lon="7.11237">
        <ele>954.3</ele>
        <time>2023-08-12T14:15:01Z</time>
      </trkpt>
      <trkpt lat="48.09086" lon="7.11237">
        <ele>954.3</ele>
        <time>2023-08-12T14:15:04Z</time>
      </trkpt>
      <trkpt lat="48.09086" lon="7.11238">
        <ele>954.3</ele>
        <time>2023-08-12T14:15:10Z</time>
      </trkpt>
      <trkpt lat="48.09089" lon="7.11247">
        <ele>954.7</ele>
        <time>2023-08-12T14:15:14Z</time>
      </trkpt>
      <trkpt lat="48.09091" lon="7.11255">
        <ele>955.2</ele>
        <time>2023-08-12T14:15:17Z</time>
      </trkpt>
      <trkpt lat="48.09093" lon="7.11266">
        <ele>955.9</ele>
        <time>2023-08-12T14:15:21Z</time>
      </trkpt>
      <trkpt lat="48.09094" lon="7.11274">
        <ele>956.4</ele>
        <time>2023-08-12T14:15:24Z</time>
      </trkpt>
      <trkpt lat="48.09093" lon="7.11275">
        <ele>956.5</ele>
        <time>2023-08-12T14:15:25Z</time>
      </trkpt>
      <trkpt lat="48.09093" lon="7.11277">
        <ele>956.7</ele>
        <time>2023-08-12T14:15:26Z</time>
      </trkpt>
      <trkpt lat="48.09093" lon="7.1128">
        <ele>956.8</ele>
        <time>2023-08-12T14:15:27Z</time>
      </trkpt>
      <trkpt lat="48.09092" lon="7.11282">
        <ele>957</ele>
        <time>2023-08-12T14:15:28Z</time>
      </trkpt>
      <trkpt lat="48.09092" lon="7.11284">
        <ele>957.2</ele>
        <time>2023-08-12T14:15:29Z</time>
      </trkpt>
      <trkpt lat="48.09091" lon="7.11286">
        <ele>957.3</ele>
        <time>2023-08-12T14:15:30Z</time>
      </trkpt>
      <trkpt lat="48.09091" lon="7.11289">
        <ele>957.4</ele>
        <time>2023-08-12T14:15:31Z</time>
      </trkpt>
      <trkpt lat="48.0909" lon="7.11291">
        <ele>957.6</ele>
        <time>2023-08-12T14:15:32Z</time>
      </trkpt>
      <trkpt lat="48.09091" lon="7.11296">
        <ele>957.9</ele>
        <time>2023-08-12T14:15:34Z</time>
      </trkpt>
      <trkpt lat="48.09092" lon="7.11299">
        <ele>958.1</ele>
        <time>2023-08-12T14:15:35Z</time>
      </trkpt>
      <trkpt lat="48.09092" lon="7.11302">
        <ele>958.2</ele>
        <time>2023-08-12T14:15:36Z</time>
      </trkpt>
      <trkpt lat="48.09092" lon="7.11304">
        <ele>958.4</ele>
        <time>2023-08-12T14:15:37Z</time>
      </trkpt>
      <trkpt lat="48.09091" lon="7.11307">
        <ele>958.5</ele>
        <time>2023-08-12T14:15:38Z</time>
      </trkpt>
      <trkpt lat="48.09091" lon="7.11309">
        <ele>958.6</ele>
        <time>2023-08-12T14:15:39Z</time>
      </trkpt>
      <trkpt lat="48.0909" lon="7.11312">
        <ele>958.7</ele>
        <time>2023-08-12T14:15:40Z</time>
      </trkpt>
      <trkpt lat="48.0909" lon="7.11315">
        <ele>958.8</ele>
        <time>2023-08-12T14:15:41Z</time>
      </trkpt>
      <trkpt lat="48.09089" lon="7.11318">
        <ele>958.9</ele>
        <time>2023-08-12T14:15:42Z</time>
      </trkpt>
      <trkpt lat="48.09089" lon="7.11321">
        <ele>959</ele>
        <time>2023-08-12T14:15:43Z</time>
      </trkpt>
      <trkpt lat="48.09089" lon="7.11324">
        <ele>959.1</ele>
        <time>2023-08-12T14:15:44Z</time>
      </trkpt>
      <trkpt lat="48.09089" lon="7.11327">
        <ele>959.2</ele>
        <time>2023-08-12T14:15:45Z</time>
      </trkpt>
      <trkpt lat="48.09087" lon="7.11334">
        <ele>959.4</ele>
        <time>2023-08-12T14:15:47Z</time>
      </trkpt>
      <trkpt lat="48.09086" lon="7.11337">
        <ele>959.4</ele>
        <time>2023-08-12T14:15:48Z</time>
      </trkpt>
      <trkpt lat="48.09085" lon="7.1134">
        <ele>959.5</ele>
        <time>2023-08-12T14:15:49Z</time>
      </trkpt>
      <trkpt lat="48.09084" lon="7.11344">
        <ele>959.5</ele>
        <time>2023-08-12T14:15:50Z</time>
      </trkpt>
      <trkpt lat="48.09084" lon="7.11347">
        <ele>959.6</ele>
        <time>2023-08-12T14:15:51Z</time>
      </trkpt>
      <trkpt lat="48.09083" lon="7.1135">
        <ele>959.6</ele>
        <time>2023-08-12T14:15:52Z</time>
      </trkpt>
      <trkpt lat="48.09082" lon="7.11357">
        <ele>959.6</ele>
        <time>2023-08-12T14:15:54Z</time>
      </trkpt>
      <trkpt lat="48.09081" lon="7.11366">
        <ele>959.5</ele>
        <time>2023-08-12T14:15:57Z</time>
      </trkpt>
      <trkpt lat="48.0908" lon="7.11369">
        <ele>959.4</ele>
        <time>2023-08-12T14:15:58Z</time>
      </trkpt>
      <trkpt lat="48.0908" lon="7.11373">
        <ele>959.3</ele>
        <time>2023-08-12T14:15:59Z</time>
      </trkpt>
      <trkpt lat="48.0908" lon="7.11377">
        <ele>959.1</ele>
        <time>2023-08-12T14:16:00Z</time>
      </trkpt>
      <trkpt lat="48.09077" lon="7.11393">
        <ele>958</ele>
        <time>2023-08-12T14:16:03Z</time>
      </trkpt>
      <trkpt lat="48.09075" lon="7.114">
        <ele>957.4</ele>
        <time>2023-08-12T14:16:04Z</time>
      </trkpt>
      <trkpt lat="48.09074" lon="7.11408">
        <ele>956.8</ele>
        <time>2023-08-12T14:16:05Z</time>
      </trkpt>
      <trkpt lat="48.09073" lon="7.11432">
        <ele>954.9</ele>
        <time>2023-08-12T14:16:08Z</time>
      </trkpt>
      <trkpt lat="48.09072" lon="7.11438">
        <ele>954.4</ele>
        <time>2023-08-12T14:16:09Z</time>
      </trkpt>
      <trkpt lat="48.09072" lon="7.11444">
        <ele>953.9</ele>
        <time>2023-08-12T14:16:10Z</time>
      </trkpt>
      <trkpt lat="48.0907" lon="7.11452">
        <ele>953.2</ele>
        <time>2023-08-12T14:16:11Z</time>
      </trkpt>
      <trkpt lat="48.09067" lon="7.11457">
        <ele>952.6</ele>
        <time>2023-08-12T14:16:12Z</time>
      </trkpt>
      <trkpt lat="48.09062" lon="7.11463">
        <ele>951.8</ele>
        <time>2023-08-12T14:16:13Z</time>
      </trkpt>
      <trkpt lat="48.09058" lon="7.11469">
        <ele>951.2</ele>
        <time>2023-08-12T14:16:14Z</time>
      </trkpt>
      <trkpt lat="48.09057" lon="7.11472">
        <ele>950.8</ele>
        <time>2023-08-12T14:16:15Z</time>
      </trkpt>
      <trkpt lat="48.09057" lon="7.11474">
        <ele>950.6</ele>
        <time>2023-08-12T14:16:16Z</time>
      </trkpt>
      <trkpt lat="48.09057" lon="7.11476">
        <ele>950.5</ele>
        <time>2023-08-12T14:16:17Z</time>
      </trkpt>
      <trkpt lat="48.09057" lon="7.11476">
        <ele>950.5</ele>
        <time>2023-08-12T14:16:21Z</time>
      </trkpt>
      <trkpt lat="48.09057" lon="7.11476">
        <ele>950.5</ele>
        <time>2023-08-12T14:16:24Z</time>
      </trkpt>
      <trkpt lat="48.09057" lon="7.11479">
        <ele>950.2</ele>
        <time>2023-08-12T14:16:37Z</time>
      </trkpt>
      <trkpt lat="48.09059" lon="7.11488">
        <ele>950</ele>
        <time>2023-08-12T14:16:39Z</time>
      </trkpt>
      <trkpt lat="48.09062" lon="7.11494">
        <ele>949.6</ele>
        <time>2023-08-12T14:16:40Z</time>
      </trkpt>
      <trkpt lat="48.09067" lon="7.11503">
        <ele>949.1</ele>
        <time>2023-08-12T14:16:42Z</time>
      </trkpt>
      <trkpt lat="48.0907" lon="7.11507">
        <ele>948.9</ele>
        <time>2023-08-12T14:16:43Z</time>
      </trkpt>
      <trkpt lat="48.09072" lon="7.11509">
        <ele>948.8</ele>
        <time>2023-08-12T14:16:44Z</time>
      </trkpt>
      <trkpt lat="48.09074" lon="7.11511">
        <ele>948.7</ele>
        <time>2023-08-12T14:16:45Z</time>
      </trkpt>
      <trkpt lat="48.09077" lon="7.11514">
        <ele>948.5</ele>
        <time>2023-08-12T14:16:46Z</time>
      </trkpt>
      <trkpt lat="48.09079" lon="7.11518">
        <ele>948.3</ele>
        <time>2023-08-12T14:16:47Z</time>
      </trkpt>
      <trkpt lat="48.09083" lon="7.11524">
        <ele>948</ele>
        <time>2023-08-12T14:16:48Z</time>
      </trkpt>
      <trkpt lat="48.09089" lon="7.11539">
        <ele>947</ele>
        <time>2023-08-12T14:16:50Z</time>
      </trkpt>
      <trkpt lat="48.09091" lon="7.11546">
        <ele>946.4</ele>
        <time>2023-08-12T14:16:51Z</time>
      </trkpt>
      <trkpt lat="48.09094" lon="7.11558">
        <ele>945.1</ele>
        <time>2023-08-12T14:16:53Z</time>
      </trkpt>
      <trkpt lat="48.09092" lon="7.11562">
        <ele>944.7</ele>
        <time>2023-08-12T14:16:54Z</time>
      </trkpt>
      <trkpt lat="48.09089" lon="7.11564">
        <ele>944</ele>
        <time>2023-08-12T14:16:55Z</time>
      </trkpt>
      <trkpt lat="48.09087" lon="7.11568">
        <ele>943.4</ele>
        <time>2023-08-12T14:16:56Z</time>
      </trkpt>
      <trkpt lat="48.09085" lon="7.11573">
        <ele>942.6</ele>
        <time>2023-08-12T14:16:57Z</time>
      </trkpt>
      <trkpt lat="48.09084" lon="7.1158">
        <ele>941.6</ele>
        <time>2023-08-12T14:16:58Z</time>
      </trkpt>
      <trkpt lat="48.09083" lon="7.11586">
        <ele>940.7</ele>
        <time>2023-08-12T14:16:59Z</time>
      </trkpt>
      <trkpt lat="48.09082" lon="7.1159">
        <ele>940</ele>
        <time>2023-08-12T14:17:00Z</time>
      </trkpt>
      <trkpt lat="48.0908" lon="7.11596">
        <ele>939.2</ele>
        <time>2023-08-12T14:17:01Z</time>
      </trkpt>
      <trkpt lat="48.09075" lon="7.11602">
        <ele>937.8</ele>
        <time>2023-08-12T14:17:02Z</time>
      </trkpt>
      <trkpt lat="48.09069" lon="7.11606">
        <ele>936.4</ele>
        <time>2023-08-12T14:17:03Z</time>
      </trkpt>
      <trkpt lat="48.09064" lon="7.1161">
        <ele>935.3</ele>
        <time>2023-08-12T14:17:04Z</time>
      </trkpt>
      <trkpt lat="48.09057" lon="7.11612">
        <ele>934.1</ele>
        <time>2023-08-12T14:17:05Z</time>
      </trkpt>
      <trkpt lat="48.09052" lon="7.11611">
        <ele>933.2</ele>
        <time>2023-08-12T14:17:06Z</time>
      </trkpt>
      <trkpt lat="48.09045" lon="7.11609">
        <ele>932.2</ele>
        <time>2023-08-12T14:17:07Z</time>
      </trkpt>
      <trkpt lat="48.09039" lon="7.11606">
        <ele>931.3</ele>
        <time>2023-08-12T14:17:08Z</time>
      </trkpt>
      <trkpt lat="48.09034" lon="7.11601">
        <ele>930.4</ele>
        <time>2023-08-12T14:17:09Z</time>
      </trkpt>
      <trkpt lat="48.09032" lon="7.11598">
        <ele>930</ele>
        <time>2023-08-12T14:17:10Z</time>
      </trkpt>
      <trkpt lat="48.09027" lon="7.11594">
        <ele>929.3</ele>
        <time>2023-08-12T14:17:11Z</time>
      </trkpt>
      <trkpt lat="48.09023" lon="7.11592">
        <ele>928.7</ele>
        <time>2023-08-12T14:17:12Z</time>
      </trkpt>
      <trkpt lat="48.09012" lon="7.11588">
        <ele>927.2</ele>
        <time>2023-08-12T14:17:14Z</time>
      </trkpt>
      <trkpt lat="48.09007" lon="7.11587">
        <ele>926.3</ele>
        <time>2023-08-12T14:17:15Z</time>
      </trkpt>
      <trkpt lat="48.08996" lon="7.11584">
        <ele>924.3</ele>
        <time>2023-08-12T14:17:17Z</time>
      </trkpt>
      <trkpt lat="48.08983" lon="7.11578">
        <ele>921.8</ele>
        <time>2023-08-12T14:17:19Z</time>
      </trkpt>
      <trkpt lat="48.08974" lon="7.11574">
        <ele>919.8</ele>
        <time>2023-08-12T14:17:20Z</time>
      </trkpt>
      <trkpt lat="48.0896" lon="7.11567">
        <ele>917.1</ele>
        <time>2023-08-12T14:17:22Z</time>
      </trkpt>
      <trkpt lat="48.08956" lon="7.11564">
        <ele>916.2</ele>
        <time>2023-08-12T14:17:23Z</time>
      </trkpt>
      <trkpt lat="48.08952" lon="7.1156">
        <ele>915.4</ele>
        <time>2023-08-12T14:17:24Z</time>
      </trkpt>
      <trkpt lat="48.08949" lon="7.11557">
        <ele>914.7</ele>
        <time>2023-08-12T14:17:25Z</time>
      </trkpt>
      <trkpt lat="48.08945" lon="7.11552">
        <ele>913.6</ele>
        <time>2023-08-12T14:17:26Z</time>
      </trkpt>
      <trkpt lat="48.0894" lon="7.11548">
        <ele>912.6</ele>
        <time>2023-08-12T14:17:27Z</time>
      </trkpt>
      <trkpt lat="48.08929" lon="7.1154">
        <ele>909.9</ele>
        <time>2023-08-12T14:17:29Z</time>
      </trkpt>
      <trkpt lat="48.08915" lon="7.11537">
        <ele>906.4</ele>
        <time>2023-08-12T14:17:31Z</time>
      </trkpt>
      <trkpt lat="48.08904" lon="7.11534">
        <ele>903.7</ele>
        <time>2023-08-12T14:17:33Z</time>
      </trkpt>
      <trkpt lat="48.08889" lon="7.11535">
        <ele>900.7</ele>
        <time>2023-08-12T14:17:35Z</time>
      </trkpt>
      <trkpt lat="48.08865" lon="7.11545">
        <ele>895.5</ele>
        <time>2023-08-12T14:17:39Z</time>
      </trkpt>
      <trkpt lat="48.08859" lon="7.1155">
        <ele>894.1</ele>
        <time>2023-08-12T14:17:40Z</time>
      </trkpt>
      <trkpt lat="48.0884" lon="7.11566">
        <ele>890.7</ele>
        <time>2023-08-12T14:17:43Z</time>
      </trkpt>
      <trkpt lat="48.08834" lon="7.1157">
        <ele>889.9</ele>
        <time>2023-08-12T14:17:44Z</time>
      </trkpt>
      <trkpt lat="48.08813" lon="7.11583">
        <ele>887.3</ele>
        <time>2023-08-12T14:17:47Z</time>
      </trkpt>
      <trkpt lat="48.08807" lon="7.11587">
        <ele>886.7</ele>
        <time>2023-08-12T14:17:48Z</time>
      </trkpt>
      <trkpt lat="48.08798" lon="7.11592">
        <ele>885.4</ele>
        <time>2023-08-12T14:17:49Z</time>
      </trkpt>
      <trkpt lat="48.08794" lon="7.11598">
        <ele>883.9</ele>
        <time>2023-08-12T14:17:50Z</time>
      </trkpt>
      <trkpt lat="48.08792" lon="7.11603">
        <ele>882.7</ele>
        <time>2023-08-12T14:17:51Z</time>
      </trkpt>
      <trkpt lat="48.08791" lon="7.11605">
        <ele>882.1</ele>
        <time>2023-08-12T14:17:52Z</time>
      </trkpt>
      <trkpt lat="48.08788" lon="7.11608">
        <ele>882.1</ele>
        <time>2023-08-12T14:17:53Z</time>
      </trkpt>
      <trkpt lat="48.08786" lon="7.11611">
        <ele>882.1</ele>
        <time>2023-08-12T14:17:54Z</time>
      </trkpt>
      <trkpt lat="48.08785" lon="7.11615">
        <ele>882.3</ele>
        <time>2023-08-12T14:17:55Z</time>
      </trkpt>
      <trkpt lat="48.08783" lon="7.11619">
        <ele>882.3</ele>
        <time>2023-08-12T14:17:56Z</time>
      </trkpt>
      <trkpt lat="48.08779" lon="7.11623">
        <ele>882.4</ele>
        <time>2023-08-12T14:17:58Z</time>
      </trkpt>
      <trkpt lat="48.08777" lon="7.11625">
        <ele>882.4</ele>
        <time>2023-08-12T14:17:59Z</time>
      </trkpt>
      <trkpt lat="48.08776" lon="7.11627">
        <ele>882.4</ele>
        <time>2023-08-12T14:18:00Z</time>
      </trkpt>
      <trkpt lat="48.08774" lon="7.11629">
        <ele>882.4</ele>
        <time>2023-08-12T14:18:01Z</time>
      </trkpt>
      <trkpt lat="48.08772" lon="7.11631">
        <ele>882.5</ele>
        <time>2023-08-12T14:18:02Z</time>
      </trkpt>
      <trkpt lat="48.08768" lon="7.11635">
        <ele>882.5</ele>
        <time>2023-08-12T14:18:04Z</time>
      </trkpt>
      <trkpt lat="48.08753" lon="7.11646">
        <ele>882.8</ele>
        <time>2023-08-12T14:18:10Z</time>
      </trkpt>
      <trkpt lat="48.08748" lon="7.11653">
        <ele>882.9</ele>
        <time>2023-08-12T14:18:13Z</time>
      </trkpt>
      <trkpt lat="48.08747" lon="7.11655">
        <ele>883</ele>
        <time>2023-08-12T14:18:14Z</time>
      </trkpt>
      <trkpt lat="48.08746" lon="7.11659">
        <ele>883</ele>
        <time>2023-08-12T14:18:15Z</time>
      </trkpt>
      <trkpt lat="48.08744" lon="7.11661">
        <ele>883.1</ele>
        <time>2023-08-12T14:18:16Z</time>
      </trkpt>
      <trkpt lat="48.0874" lon="7.11666">
        <ele>883.2</ele>
        <time>2023-08-12T14:18:18Z</time>
      </trkpt>
      <trkpt lat="48.08737" lon="7.11669">
        <ele>883.3</ele>
        <time>2023-08-12T14:18:19Z</time>
      </trkpt>
      <trkpt lat="48.08735" lon="7.11672">
        <ele>883.4</ele>
        <time>2023-08-12T14:18:20Z</time>
      </trkpt>
      <trkpt lat="48.08733" lon="7.11675">
        <ele>883.5</ele>
        <time>2023-08-12T14:18:21Z</time>
      </trkpt>
      <trkpt lat="48.08732" lon="7.11676">
        <ele>883.6</ele>
        <time>2023-08-12T14:18:22Z</time>
      </trkpt>
      <trkpt lat="48.0873" lon="7.11678">
        <ele>883.6</ele>
        <time>2023-08-12T14:18:23Z</time>
      </trkpt>
      <trkpt lat="48.08723" lon="7.1169">
        <ele>884</ele>
        <time>2023-08-12T14:18:27Z</time>
      </trkpt>
      <trkpt lat="48.08722" lon="7.11692">
        <ele>884.1</ele>
        <time>2023-08-12T14:18:28Z</time>
      </trkpt>
      <trkpt lat="48.0872" lon="7.11695">
        <ele>884.2</ele>
        <time>2023-08-12T14:18:29Z</time>
      </trkpt>
      <trkpt lat="48.08714" lon="7.11702">
        <ele>884.5</ele>
        <time>2023-08-12T14:18:32Z</time>
      </trkpt>
      <trkpt lat="48.08706" lon="7.11713">
        <ele>885</ele>
        <time>2023-08-12T14:18:36Z</time>
      </trkpt>
      <trkpt lat="48.087" lon="7.11717">
        <ele>885.3</ele>
        <time>2023-08-12T14:18:38Z</time>
      </trkpt>
      <trkpt lat="48.08698" lon="7.11718">
        <ele>885.4</ele>
        <time>2023-08-12T14:18:39Z</time>
      </trkpt>
      <trkpt lat="48.08691" lon="7.11719">
        <ele>887</ele>
        <time>2023-08-12T14:18:42Z</time>
      </trkpt>
      <trkpt lat="48.08689" lon="7.1172">
        <ele>887.5</ele>
        <time>2023-08-12T14:18:43Z</time>
      </trkpt>
      <trkpt lat="48.08687" lon="7.11721">
        <ele>888</ele>
        <time>2023-08-12T14:18:44Z</time>
      </trkpt>
      <trkpt lat="48.08685" lon="7.11722">
        <ele>888.3</ele>
        <time>2023-08-12T14:18:45Z</time>
      </trkpt>
      <trkpt lat="48.08684" lon="7.11723">
        <ele>888.6</ele>
        <time>2023-08-12T14:18:46Z</time>
      </trkpt>
      <trkpt lat="48.08683" lon="7.11723">
        <ele>888.9</ele>
        <time>2023-08-12T14:18:47Z</time>
      </trkpt>
      <trkpt lat="48.08676" lon="7.11724">
        <ele>890.3</ele>
        <time>2023-08-12T14:18:50Z</time>
      </trkpt>
      <trkpt lat="48.08674" lon="7.11724">
        <ele>890.7</ele>
        <time>2023-08-12T14:18:51Z</time>
      </trkpt>
      <trkpt lat="48.08673" lon="7.11725">
        <ele>891</ele>
        <time>2023-08-12T14:18:52Z</time>
      </trkpt>
      <trkpt lat="48.08672" lon="7.11725">
        <ele>891.2</ele>
        <time>2023-08-12T14:18:53Z</time>
      </trkpt>
      <trkpt lat="48.0867" lon="7.11725">
        <ele>891.5</ele>
        <time>2023-08-12T14:18:54Z</time>
      </trkpt>
      <trkpt lat="48.08669" lon="7.11725">
        <ele>891.9</ele>
        <time>2023-08-12T14:18:55Z</time>
      </trkpt>
      <trkpt lat="48.08667" lon="7.11725">
        <ele>892.2</ele>
        <time>2023-08-12T14:18:56Z</time>
      </trkpt>
      <trkpt lat="48.08666" lon="7.11725">
        <ele>892.4</ele>
        <time>2023-08-12T14:18:57Z</time>
      </trkpt>
      <trkpt lat="48.08665" lon="7.11725">
        <ele>892.7</ele>
        <time>2023-08-12T14:18:58Z</time>
      </trkpt>
      <trkpt lat="48.08663" lon="7.11726">
        <ele>893.1</ele>
        <time>2023-08-12T14:18:59Z</time>
      </trkpt>
      <trkpt lat="48.08662" lon="7.11726">
        <ele>893.4</ele>
        <time>2023-08-12T14:19:00Z</time>
      </trkpt>
      <trkpt lat="48.08661" lon="7.11727">
        <ele>893.5</ele>
        <time>2023-08-12T14:19:01Z</time>
      </trkpt>
      <trkpt lat="48.08659" lon="7.11727">
        <ele>893.5</ele>
        <time>2023-08-12T14:19:02Z</time>
      </trkpt>
      <trkpt lat="48.08658" lon="7.11727">
        <ele>893.6</ele>
        <time>2023-08-12T14:19:03Z</time>
      </trkpt>
      <trkpt lat="48.08644" lon="7.11734">
        <ele>894.6</ele>
        <time>2023-08-12T14:19:10Z</time>
      </trkpt>
      <trkpt lat="48.08642" lon="7.11735">
        <ele>894.9</ele>
        <time>2023-08-12T14:19:11Z</time>
      </trkpt>
      <trkpt lat="48.08631" lon="7.11745">
        <ele>896.1</ele>
        <time>2023-08-12T14:19:16Z</time>
      </trkpt>
      <trkpt lat="48.08629" lon="7.11747">
        <ele>896.2</ele>
        <time>2023-08-12T14:19:17Z</time>
      </trkpt>
      <trkpt lat="48.08628" lon="7.1175">
        <ele>896.4</ele>
        <time>2023-08-12T14:19:19Z</time>
      </trkpt>
      <trkpt lat="48.08626" lon="7.11752">
        <ele>896.6</ele>
        <time>2023-08-12T14:19:20Z</time>
      </trkpt>
      <trkpt lat="48.08625" lon="7.11754">
        <ele>896.8</ele>
        <time>2023-08-12T14:19:21Z</time>
      </trkpt>
      <trkpt lat="48.08622" lon="7.11756">
        <ele>897</ele>
        <time>2023-08-12T14:19:22Z</time>
      </trkpt>
      <trkpt lat="48.0862" lon="7.11758">
        <ele>897.3</ele>
        <time>2023-08-12T14:19:23Z</time>
      </trkpt>
      <trkpt lat="48.08619" lon="7.1176">
        <ele>897.4</ele>
        <time>2023-08-12T14:19:24Z</time>
      </trkpt>
      <trkpt lat="48.08617" lon="7.11761">
        <ele>897.6</ele>
        <time>2023-08-12T14:19:25Z</time>
      </trkpt>
      <trkpt lat="48.08617" lon="7.11763">
        <ele>897.7</ele>
        <time>2023-08-12T14:19:26Z</time>
      </trkpt>
      <trkpt lat="48.08615" lon="7.11765">
        <ele>897.9</ele>
        <time>2023-08-12T14:19:27Z</time>
      </trkpt>
      <trkpt lat="48.08614" lon="7.11767">
        <ele>898</ele>
        <time>2023-08-12T14:19:28Z</time>
      </trkpt>
      <trkpt lat="48.08613" lon="7.11768">
        <ele>898.1</ele>
        <time>2023-08-12T14:19:29Z</time>
      </trkpt>
      <trkpt lat="48.08609" lon="7.11771">
        <ele>898.6</ele>
        <time>2023-08-12T14:19:31Z</time>
      </trkpt>
      <trkpt lat="48.08607" lon="7.11774">
        <ele>898.9</ele>
        <time>2023-08-12T14:19:32Z</time>
      </trkpt>
      <trkpt lat="48.08606" lon="7.11777">
        <ele>899.1</ele>
        <time>2023-08-12T14:19:33Z</time>
      </trkpt>
      <trkpt lat="48.08602" lon="7.11782">
        <ele>899.6</ele>
        <time>2023-08-12T14:19:36Z</time>
      </trkpt>
      <trkpt lat="48.08602" lon="7.11784">
        <ele>899.8</ele>
        <time>2023-08-12T14:19:37Z</time>
      </trkpt>
      <trkpt lat="48.08601" lon="7.11786">
        <ele>900</ele>
        <time>2023-08-12T14:19:38Z</time>
      </trkpt>
      <trkpt lat="48.08598" lon="7.11787">
        <ele>900.4</ele>
        <time>2023-08-12T14:19:40Z</time>
      </trkpt>
      <trkpt lat="48.08596" lon="7.11788">
        <ele>900.6</ele>
        <time>2023-08-12T14:19:41Z</time>
      </trkpt>
      <trkpt lat="48.0859" lon="7.11791">
        <ele>901.5</ele>
        <time>2023-08-12T14:19:45Z</time>
      </trkpt>
      <trkpt lat="48.08588" lon="7.11793">
        <ele>901.7</ele>
        <time>2023-08-12T14:19:46Z</time>
      </trkpt>
      <trkpt lat="48.08588" lon="7.11794">
        <ele>901.8</ele>
        <time>2023-08-12T14:19:47Z</time>
      </trkpt>
      <trkpt lat="48.08588" lon="7.11794">
        <ele>901.9</ele>
        <time>2023-08-12T14:19:48Z</time>
      </trkpt>
      <trkpt lat="48.08587" lon="7.11796">
        <ele>902.1</ele>
        <time>2023-08-12T14:19:49Z</time>
      </trkpt>
      <trkpt lat="48.08585" lon="7.11798">
        <ele>902.5</ele>
        <time>2023-08-12T14:19:51Z</time>
      </trkpt>
      <trkpt lat="48.08584" lon="7.11799">
        <ele>902.7</ele>
        <time>2023-08-12T14:19:52Z</time>
      </trkpt>
      <trkpt lat="48.08583" lon="7.118">
        <ele>902.9</ele>
        <time>2023-08-12T14:19:53Z</time>
      </trkpt>
      <trkpt lat="48.08581" lon="7.11801">
        <ele>903.1</ele>
        <time>2023-08-12T14:19:54Z</time>
      </trkpt>
      <trkpt lat="48.0858" lon="7.11802">
        <ele>903.3</ele>
        <time>2023-08-12T14:19:55Z</time>
      </trkpt>
      <trkpt lat="48.08579" lon="7.11803">
        <ele>903.5</ele>
        <time>2023-08-12T14:19:56Z</time>
      </trkpt>
      <trkpt lat="48.08577" lon="7.11803">
        <ele>903.8</ele>
        <time>2023-08-12T14:19:57Z</time>
      </trkpt>
      <trkpt lat="48.08577" lon="7.11804">
        <ele>903.9</ele>
        <time>2023-08-12T14:19:58Z</time>
      </trkpt>
      <trkpt lat="48.08575" lon="7.11804">
        <ele>904.2</ele>
        <time>2023-08-12T14:19:59Z</time>
      </trkpt>
      <trkpt lat="48.08574" lon="7.11805">
        <ele>904.4</ele>
        <time>2023-08-12T14:20:00Z</time>
      </trkpt>
      <trkpt lat="48.08572" lon="7.11806">
        <ele>904.7</ele>
        <time>2023-08-12T14:20:01Z</time>
      </trkpt>
      <trkpt lat="48.08571" lon="7.11807">
        <ele>905</ele>
        <time>2023-08-12T14:20:02Z</time>
      </trkpt>
      <trkpt lat="48.08569" lon="7.11808">
        <ele>905.2</ele>
        <time>2023-08-12T14:20:03Z</time>
      </trkpt>
      <trkpt lat="48.08568" lon="7.1181">
        <ele>905.5</ele>
        <time>2023-08-12T14:20:04Z</time>
      </trkpt>
      <trkpt lat="48.08567" lon="7.11811">
        <ele>905.7</ele>
        <time>2023-08-12T14:20:05Z</time>
      </trkpt>
      <trkpt lat="48.08566" lon="7.11812">
        <ele>905.9</ele>
        <time>2023-08-12T14:20:06Z</time>
      </trkpt>
      <trkpt lat="48.08565" lon="7.11814">
        <ele>906.2</ele>
        <time>2023-08-12T14:20:07Z</time>
      </trkpt>
      <trkpt lat="48.08563" lon="7.11814">
        <ele>906.5</ele>
        <time>2023-08-12T14:20:08Z</time>
      </trkpt>
      <trkpt lat="48.08561" lon="7.11815">
        <ele>906.9</ele>
        <time>2023-08-12T14:20:09Z</time>
      </trkpt>
      <trkpt lat="48.08559" lon="7.11815">
        <ele>907.1</ele>
        <time>2023-08-12T14:20:10Z</time>
      </trkpt>
      <trkpt lat="48.08558" lon="7.11815">
        <ele>907.3</ele>
        <time>2023-08-12T14:20:11Z</time>
      </trkpt>
      <trkpt lat="48.08557" lon="7.11815">
        <ele>907.5</ele>
        <time>2023-08-12T14:20:12Z</time>
      </trkpt>
      <trkpt lat="48.08555" lon="7.11816">
        <ele>907.9</ele>
        <time>2023-08-12T14:20:13Z</time>
      </trkpt>
      <trkpt lat="48.08554" lon="7.11817">
        <ele>908.2</ele>
        <time>2023-08-12T14:20:14Z</time>
      </trkpt>
      <trkpt lat="48.08552" lon="7.11819">
        <ele>908.5</ele>
        <time>2023-08-12T14:20:15Z</time>
      </trkpt>
      <trkpt lat="48.08551" lon="7.1182">
        <ele>908.8</ele>
        <time>2023-08-12T14:20:16Z</time>
      </trkpt>
      <trkpt lat="48.0855" lon="7.11822">
        <ele>909.1</ele>
        <time>2023-08-12T14:20:17Z</time>
      </trkpt>
      <trkpt lat="48.08548" lon="7.11824">
        <ele>909.4</ele>
        <time>2023-08-12T14:20:18Z</time>
      </trkpt>
      <trkpt lat="48.08547" lon="7.11825">
        <ele>909.6</ele>
        <time>2023-08-12T14:20:19Z</time>
      </trkpt>
      <trkpt lat="48.08547" lon="7.11826">
        <ele>909.7</ele>
        <time>2023-08-12T14:20:20Z</time>
      </trkpt>
      <trkpt lat="48.08546" lon="7.11827">
        <ele>909.9</ele>
        <time>2023-08-12T14:20:21Z</time>
      </trkpt>
      <trkpt lat="48.08544" lon="7.11828">
        <ele>910.2</ele>
        <time>2023-08-12T14:20:22Z</time>
      </trkpt>
      <trkpt lat="48.08544" lon="7.1183">
        <ele>910.4</ele>
        <time>2023-08-12T14:20:23Z</time>
      </trkpt>
      <trkpt lat="48.08542" lon="7.1183">
        <ele>910.7</ele>
        <time>2023-08-12T14:20:24Z</time>
      </trkpt>
      <trkpt lat="48.08541" lon="7.11829">
        <ele>911</ele>
        <time>2023-08-12T14:20:25Z</time>
      </trkpt>
      <trkpt lat="48.08539" lon="7.1183">
        <ele>911.3</ele>
        <time>2023-08-12T14:20:26Z</time>
      </trkpt>
      <trkpt lat="48.08538" lon="7.1183">
        <ele>911.4</ele>
        <time>2023-08-12T14:20:27Z</time>
      </trkpt>
      <trkpt lat="48.08537" lon="7.1183">
        <ele>911.6</ele>
        <time>2023-08-12T14:20:28Z</time>
      </trkpt>
      <trkpt lat="48.08536" lon="7.11831">
        <ele>911.7</ele>
        <time>2023-08-12T14:20:29Z</time>
      </trkpt>
      <trkpt lat="48.08535" lon="7.11831">
        <ele>911.8</ele>
        <time>2023-08-12T14:20:30Z</time>
      </trkpt>
      <trkpt lat="48.08534" lon="7.11832">
        <ele>912.1</ele>
        <time>2023-08-12T14:20:31Z</time>
      </trkpt>
      <trkpt lat="48.08532" lon="7.11833">
        <ele>912.3</ele>
        <time>2023-08-12T14:20:32Z</time>
      </trkpt>
      <trkpt lat="48.08531" lon="7.11834">
        <ele>912.5</ele>
        <time>2023-08-12T14:20:33Z</time>
      </trkpt>
      <trkpt lat="48.08529" lon="7.11835">
        <ele>912.7</ele>
        <time>2023-08-12T14:20:34Z</time>
      </trkpt>
      <trkpt lat="48.08528" lon="7.11836">
        <ele>913</ele>
        <time>2023-08-12T14:20:35Z</time>
      </trkpt>
      <trkpt lat="48.08526" lon="7.11837">
        <ele>913.3</ele>
        <time>2023-08-12T14:20:36Z</time>
      </trkpt>
      <trkpt lat="48.08524" lon="7.11839">
        <ele>913.5</ele>
        <time>2023-08-12T14:20:37Z</time>
      </trkpt>
      <trkpt lat="48.08523" lon="7.1184">
        <ele>913.7</ele>
        <time>2023-08-12T14:20:38Z</time>
      </trkpt>
      <trkpt lat="48.08522" lon="7.1184">
        <ele>913.8</ele>
        <time>2023-08-12T14:20:39Z</time>
      </trkpt>
      <trkpt lat="48.08522" lon="7.1184">
        <ele>913.9</ele>
        <time>2023-08-12T14:20:40Z</time>
      </trkpt>
      <trkpt lat="48.08521" lon="7.11841">
        <ele>914</ele>
        <time>2023-08-12T14:20:41Z</time>
      </trkpt>
      <trkpt lat="48.0852" lon="7.11842">
        <ele>914.2</ele>
        <time>2023-08-12T14:20:42Z</time>
      </trkpt>
      <trkpt lat="48.08519" lon="7.11842">
        <ele>914.3</ele>
        <time>2023-08-12T14:20:43Z</time>
      </trkpt>
      <trkpt lat="48.08517" lon="7.11842">
        <ele>914.6</ele>
        <time>2023-08-12T14:20:44Z</time>
      </trkpt>
      <trkpt lat="48.08515" lon="7.11843">
        <ele>914.8</ele>
        <time>2023-08-12T14:20:45Z</time>
      </trkpt>
      <trkpt lat="48.08514" lon="7.11844">
        <ele>915</ele>
        <time>2023-08-12T14:20:46Z</time>
      </trkpt>
      <trkpt lat="48.08513" lon="7.11845">
        <ele>915.1</ele>
        <time>2023-08-12T14:20:47Z</time>
      </trkpt>
      <trkpt lat="48.08512" lon="7.11845">
        <ele>915.3</ele>
        <time>2023-08-12T14:20:48Z</time>
      </trkpt>
      <trkpt lat="48.08511" lon="7.11845">
        <ele>915.5</ele>
        <time>2023-08-12T14:20:49Z</time>
      </trkpt>
      <trkpt lat="48.0851" lon="7.11846">
        <ele>915.6</ele>
        <time>2023-08-12T14:20:50Z</time>
      </trkpt>
      <trkpt lat="48.08509" lon="7.11846">
        <ele>915.8</ele>
        <time>2023-08-12T14:20:51Z</time>
      </trkpt>
      <trkpt lat="48.08508" lon="7.11847">
        <ele>915.9</ele>
        <time>2023-08-12T14:20:52Z</time>
      </trkpt>
      <trkpt lat="48.08508" lon="7.11847">
        <ele>916</ele>
        <time>2023-08-12T14:20:53Z</time>
      </trkpt>
      <trkpt lat="48.08507" lon="7.11848">
        <ele>916.1</ele>
        <time>2023-08-12T14:20:54Z</time>
      </trkpt>
      <trkpt lat="48.08506" lon="7.11848">
        <ele>916.2</ele>
        <time>2023-08-12T14:20:55Z</time>
      </trkpt>
      <trkpt lat="48.08505" lon="7.11849">
        <ele>916.4</ele>
        <time>2023-08-12T14:20:56Z</time>
      </trkpt>
      <trkpt lat="48.08504" lon="7.1185">
        <ele>916.6</ele>
        <time>2023-08-12T14:20:57Z</time>
      </trkpt>
      <trkpt lat="48.08504" lon="7.1185">
        <ele>916.7</ele>
        <time>2023-08-12T14:21:00Z</time>
      </trkpt>
      <trkpt lat="48.08504" lon="7.1185">
        <ele>916.7</ele>
        <time>2023-08-12T14:21:02Z</time>
      </trkpt>
      <trkpt lat="48.08504" lon="7.1185">
        <ele>916.7</ele>
        <time>2023-08-12T14:21:05Z</time>
      </trkpt>
      <trkpt lat="48.08504" lon="7.1185">
        <ele>916.7</ele>
        <time>2023-08-12T14:21:11Z</time>
      </trkpt>
      <trkpt lat="48.08504" lon="7.1185">
        <ele>916.7</ele>
        <time>2023-08-12T14:21:17Z</time>
      </trkpt>
      <trkpt lat="48.08503" lon="7.1185">
        <ele>916.7</ele>
        <time>2023-08-12T14:21:18Z</time>
      </trkpt>
      <trkpt lat="48.08502" lon="7.1185">
        <ele>917</ele>
        <time>2023-08-12T14:21:19Z</time>
      </trkpt>
      <trkpt lat="48.085" lon="7.1185">
        <ele>917.3</ele>
        <time>2023-08-12T14:21:20Z</time>
      </trkpt>
      <trkpt lat="48.08497" lon="7.1185">
        <ele>917.7</ele>
        <time>2023-08-12T14:21:21Z</time>
      </trkpt>
      <trkpt lat="48.08496" lon="7.11851">
        <ele>917.9</ele>
        <time>2023-08-12T14:21:22Z</time>
      </trkpt>
      <trkpt lat="48.08494" lon="7.11851">
        <ele>918.2</ele>
        <time>2023-08-12T14:21:23Z</time>
      </trkpt>
      <trkpt lat="48.08492" lon="7.11853">
        <ele>918.5</ele>
        <time>2023-08-12T14:21:24Z</time>
      </trkpt>
      <trkpt lat="48.08491" lon="7.11854">
        <ele>918.7</ele>
        <time>2023-08-12T14:21:25Z</time>
      </trkpt>
      <trkpt lat="48.0849" lon="7.11855">
        <ele>919</ele>
        <time>2023-08-12T14:21:26Z</time>
      </trkpt>
      <trkpt lat="48.08488" lon="7.11856">
        <ele>919.2</ele>
        <time>2023-08-12T14:21:27Z</time>
      </trkpt>
      <trkpt lat="48.08487" lon="7.11857">
        <ele>919.4</ele>
        <time>2023-08-12T14:21:28Z</time>
      </trkpt>
      <trkpt lat="48.08486" lon="7.11858">
        <ele>919.6</ele>
        <time>2023-08-12T14:21:29Z</time>
      </trkpt>
      <trkpt lat="48.08485" lon="7.11859">
        <ele>919.7</ele>
        <time>2023-08-12T14:21:30Z</time>
      </trkpt>
      <trkpt lat="48.08483" lon="7.11859">
        <ele>920</ele>
        <time>2023-08-12T14:21:31Z</time>
      </trkpt>
      <trkpt lat="48.08481" lon="7.1186">
        <ele>920.3</ele>
        <time>2023-08-12T14:21:32Z</time>
      </trkpt>
      <trkpt lat="48.08479" lon="7.11861">
        <ele>920.6</ele>
        <time>2023-08-12T14:21:33Z</time>
      </trkpt>
      <trkpt lat="48.08478" lon="7.11861">
        <ele>920.8</ele>
        <time>2023-08-12T14:21:34Z</time>
      </trkpt>
      <trkpt lat="48.08476" lon="7.11862">
        <ele>921</ele>
        <time>2023-08-12T14:21:35Z</time>
      </trkpt>
      <trkpt lat="48.08474" lon="7.11863">
        <ele>921.2</ele>
        <time>2023-08-12T14:21:36Z</time>
      </trkpt>
      <trkpt lat="48.08471" lon="7.11864">
        <ele>921.5</ele>
        <time>2023-08-12T14:21:37Z</time>
      </trkpt>
      <trkpt lat="48.08469" lon="7.11865">
        <ele>921.8</ele>
        <time>2023-08-12T14:21:38Z</time>
      </trkpt>
      <trkpt lat="48.08466" lon="7.11866">
        <ele>922.1</ele>
        <time>2023-08-12T14:21:39Z</time>
      </trkpt>
      <trkpt lat="48.08464" lon="7.11869">
        <ele>922.2</ele>
        <time>2023-08-12T14:21:40Z</time>
      </trkpt>
      <trkpt lat="48.08462" lon="7.11871">
        <ele>922.4</ele>
        <time>2023-08-12T14:21:41Z</time>
      </trkpt>
      <trkpt lat="48.0846" lon="7.11873">
        <ele>922.6</ele>
        <time>2023-08-12T14:21:42Z</time>
      </trkpt>
      <trkpt lat="48.08457" lon="7.11876">
        <ele>922.8</ele>
        <time>2023-08-12T14:21:43Z</time>
      </trkpt>
      <trkpt lat="48.08455" lon="7.1188">
        <ele>923</ele>
        <time>2023-08-12T14:21:44Z</time>
      </trkpt>
      <trkpt lat="48.08454" lon="7.11883">
        <ele>923.2</ele>
        <time>2023-08-12T14:21:45Z</time>
      </trkpt>
      <trkpt lat="48.08452" lon="7.11887">
        <ele>923.4</ele>
        <time>2023-08-12T14:21:46Z</time>
      </trkpt>
      <trkpt lat="48.08449" lon="7.1189">
        <ele>923.5</ele>
        <time>2023-08-12T14:21:47Z</time>
      </trkpt>
      <trkpt lat="48.08447" lon="7.11893">
        <ele>923.7</ele>
        <time>2023-08-12T14:21:48Z</time>
      </trkpt>
      <trkpt lat="48.08446" lon="7.11896">
        <ele>923.9</ele>
        <time>2023-08-12T14:21:49Z</time>
      </trkpt>
      <trkpt lat="48.08443" lon="7.11899">
        <ele>924.1</ele>
        <time>2023-08-12T14:21:50Z</time>
      </trkpt>
      <trkpt lat="48.08441" lon="7.11902">
        <ele>924.2</ele>
        <time>2023-08-12T14:21:51Z</time>
      </trkpt>
      <trkpt lat="48.08439" lon="7.11904">
        <ele>924.4</ele>
        <time>2023-08-12T14:21:52Z</time>
      </trkpt>
      <trkpt lat="48.08438" lon="7.11906">
        <ele>924.5</ele>
        <time>2023-08-12T14:21:53Z</time>
      </trkpt>
      <trkpt lat="48.08435" lon="7.11909">
        <ele>924.8</ele>
        <time>2023-08-12T14:21:54Z</time>
      </trkpt>
      <trkpt lat="48.08433" lon="7.11911">
        <ele>925</ele>
        <time>2023-08-12T14:21:55Z</time>
      </trkpt>
      <trkpt lat="48.0843" lon="7.11912">
        <ele>925.2</ele>
        <time>2023-08-12T14:21:56Z</time>
      </trkpt>
      <trkpt lat="48.08429" lon="7.11914">
        <ele>925.4</ele>
        <time>2023-08-12T14:21:57Z</time>
      </trkpt>
      <trkpt lat="48.08427" lon="7.11916">
        <ele>925.6</ele>
        <time>2023-08-12T14:21:58Z</time>
      </trkpt>
      <trkpt lat="48.08425" lon="7.11918">
        <ele>925.8</ele>
        <time>2023-08-12T14:21:59Z</time>
      </trkpt>
      <trkpt lat="48.08425" lon="7.11919">
        <ele>925.8</ele>
        <time>2023-08-12T14:22:00Z</time>
      </trkpt>
      <trkpt lat="48.08425" lon="7.1192">
        <ele>925.9</ele>
        <time>2023-08-12T14:22:01Z</time>
      </trkpt>
      <trkpt lat="48.08424" lon="7.11921">
        <ele>926</ele>
        <time>2023-08-12T14:22:02Z</time>
      </trkpt>
      <trkpt lat="48.08423" lon="7.11922">
        <ele>926.1</ele>
        <time>2023-08-12T14:22:03Z</time>
      </trkpt>
      <trkpt lat="48.08422" lon="7.11923">
        <ele>926.3</ele>
        <time>2023-08-12T14:22:04Z</time>
      </trkpt>
      <trkpt lat="48.0842" lon="7.11925">
        <ele>926.5</ele>
        <time>2023-08-12T14:22:05Z</time>
      </trkpt>
      <trkpt lat="48.08418" lon="7.11926">
        <ele>926.7</ele>
        <time>2023-08-12T14:22:06Z</time>
      </trkpt>
      <trkpt lat="48.08416" lon="7.11928">
        <ele>926.9</ele>
        <time>2023-08-12T14:22:07Z</time>
      </trkpt>
      <trkpt lat="48.08414" lon="7.1193">
        <ele>927.2</ele>
        <time>2023-08-12T14:22:08Z</time>
      </trkpt>
      <trkpt lat="48.08413" lon="7.11931">
        <ele>927.4</ele>
        <time>2023-08-12T14:22:09Z</time>
      </trkpt>
      <trkpt lat="48.08412" lon="7.11933">
        <ele>927.5</ele>
        <time>2023-08-12T14:22:10Z</time>
      </trkpt>
      <trkpt lat="48.08411" lon="7.11936">
        <ele>927.7</ele>
        <time>2023-08-12T14:22:11Z</time>
      </trkpt>
      <trkpt lat="48.0841" lon="7.11938">
        <ele>927.9</ele>
        <time>2023-08-12T14:22:12Z</time>
      </trkpt>
      <trkpt lat="48.08409" lon="7.1194">
        <ele>928.1</ele>
        <time>2023-08-12T14:22:13Z</time>
      </trkpt>
      <trkpt lat="48.08408" lon="7.11941">
        <ele>928.3</ele>
        <time>2023-08-12T14:22:14Z</time>
      </trkpt>
      <trkpt lat="48.08406" lon="7.11942">
        <ele>928.5</ele>
        <time>2023-08-12T14:22:15Z</time>
      </trkpt>
      <trkpt lat="48.08405" lon="7.11944">
        <ele>928.6</ele>
        <time>2023-08-12T14:22:16Z</time>
      </trkpt>
      <trkpt lat="48.08404" lon="7.11944">
        <ele>928.7</ele>
        <time>2023-08-12T14:22:17Z</time>
      </trkpt>
      <trkpt lat="48.08403" lon="7.11945">
        <ele>929</ele>
        <time>2023-08-12T14:22:18Z</time>
      </trkpt>
      <trkpt lat="48.08401" lon="7.11946">
        <ele>929</ele>
        <time>2023-08-12T14:22:19Z</time>
      </trkpt>
      <trkpt lat="48.084" lon="7.11947">
        <ele>929</ele>
        <time>2023-08-12T14:22:20Z</time>
      </trkpt>
      <trkpt lat="48.08398" lon="7.11948">
        <ele>929</ele>
        <time>2023-08-12T14:22:21Z</time>
      </trkpt>
      <trkpt lat="48.08397" lon="7.11949">
        <ele>929</ele>
        <time>2023-08-12T14:22:22Z</time>
      </trkpt>
      <trkpt lat="48.08395" lon="7.11951">
        <ele>929</ele>
        <time>2023-08-12T14:22:23Z</time>
      </trkpt>
      <trkpt lat="48.08394" lon="7.11952">
        <ele>929</ele>
        <time>2023-08-12T14:22:24Z</time>
      </trkpt>
      <trkpt lat="48.08393" lon="7.11952">
        <ele>929</ele>
        <time>2023-08-12T14:22:25Z</time>
      </trkpt>
      <trkpt lat="48.08393" lon="7.11953">
        <ele>929</ele>
        <time>2023-08-12T14:22:26Z</time>
      </trkpt>
      <trkpt lat="48.08392" lon="7.11953">
        <ele>929</ele>
        <time>2023-08-12T14:22:27Z</time>
      </trkpt>
      <trkpt lat="48.0839" lon="7.11955">
        <ele>929</ele>
        <time>2023-08-12T14:22:28Z</time>
      </trkpt>
      <trkpt lat="48.08389" lon="7.11955">
        <ele>929</ele>
        <time>2023-08-12T14:22:29Z</time>
      </trkpt>
      <trkpt lat="48.08387" lon="7.11956">
        <ele>929</ele>
        <time>2023-08-12T14:22:30Z</time>
      </trkpt>
      <trkpt lat="48.08385" lon="7.11958">
        <ele>929</ele>
        <time>2023-08-12T14:22:31Z</time>
      </trkpt>
      <trkpt lat="48.08382" lon="7.11959">
        <ele>928.9</ele>
        <time>2023-08-12T14:22:32Z</time>
      </trkpt>
      <trkpt lat="48.0838" lon="7.11961">
        <ele>928.9</ele>
        <time>2023-08-12T14:22:33Z</time>
      </trkpt>
      <trkpt lat="48.08377" lon="7.11963">
        <ele>928.9</ele>
        <time>2023-08-12T14:22:34Z</time>
      </trkpt>
      <trkpt lat="48.08376" lon="7.11964">
        <ele>928.9</ele>
        <time>2023-08-12T14:22:35Z</time>
      </trkpt>
      <trkpt lat="48.08375" lon="7.11966">
        <ele>928.8</ele>
        <time>2023-08-12T14:22:36Z</time>
      </trkpt>
      <trkpt lat="48.08373" lon="7.11968">
        <ele>928.8</ele>
        <time>2023-08-12T14:22:37Z</time>
      </trkpt>
      <trkpt lat="48.0837" lon="7.11969">
        <ele>928.7</ele>
        <time>2023-08-12T14:22:38Z</time>
      </trkpt>
      <trkpt lat="48.08367" lon="7.11971">
        <ele>928.7</ele>
        <time>2023-08-12T14:22:39Z</time>
      </trkpt>
      <trkpt lat="48.08364" lon="7.11972">
        <ele>928.6</ele>
        <time>2023-08-12T14:22:40Z</time>
      </trkpt>
      <trkpt lat="48.08361" lon="7.11974">
        <ele>928.6</ele>
        <time>2023-08-12T14:22:41Z</time>
      </trkpt>
      <trkpt lat="48.08359" lon="7.11976">
        <ele>928.5</ele>
        <time>2023-08-12T14:22:42Z</time>
      </trkpt>
      <trkpt lat="48.08355" lon="7.11978">
        <ele>928.4</ele>
        <time>2023-08-12T14:22:43Z</time>
      </trkpt>
      <trkpt lat="48.08351" lon="7.11981">
        <ele>928.4</ele>
        <time>2023-08-12T14:22:44Z</time>
      </trkpt>
      <trkpt lat="48.08347" lon="7.11983">
        <ele>928.3</ele>
        <time>2023-08-12T14:22:45Z</time>
      </trkpt>
      <trkpt lat="48.08343" lon="7.11985">
        <ele>928.3</ele>
        <time>2023-08-12T14:22:46Z</time>
      </trkpt>
      <trkpt lat="48.08328" lon="7.11994">
        <ele>928.3</ele>
        <time>2023-08-12T14:22:49Z</time>
      </trkpt>
      <trkpt lat="48.0832" lon="7.12">
        <ele>928.4</ele>
        <time>2023-08-12T14:22:53Z</time>
      </trkpt>
      <trkpt lat="48.08308" lon="7.12002">
        <ele>928.4</ele>
        <time>2023-08-12T14:22:55Z</time>
      </trkpt>
      <trkpt lat="48.08305" lon="7.12005">
        <ele>928.4</ele>
        <time>2023-08-12T14:22:57Z</time>
      </trkpt>
      <trkpt lat="48.08303" lon="7.12005">
        <ele>928.4</ele>
        <time>2023-08-12T14:22:58Z</time>
      </trkpt>
      <trkpt lat="48.083" lon="7.12005">
        <ele>928.5</ele>
        <time>2023-08-12T14:22:59Z</time>
      </trkpt>
      <trkpt lat="48.08279" lon="7.12007">
        <ele>928.5</ele>
        <time>2023-08-12T14:23:05Z</time>
      </trkpt>
      <trkpt lat="48.08275" lon="7.12006">
        <ele>928.5</ele>
        <time>2023-08-12T14:23:06Z</time>
      </trkpt>
      <trkpt lat="48.08263" lon="7.12011">
        <ele>928.7</ele>
        <time>2023-08-12T14:23:09Z</time>
      </trkpt>
      <trkpt lat="48.08261" lon="7.1201">
        <ele>928.8</ele>
        <time>2023-08-12T14:23:10Z</time>
      </trkpt>
      <trkpt lat="48.08259" lon="7.1201">
        <ele>929</ele>
        <time>2023-08-12T14:23:11Z</time>
      </trkpt>
      <trkpt lat="48.08259" lon="7.12012">
        <ele>929</ele>
        <time>2023-08-12T14:23:12Z</time>
      </trkpt>
      <trkpt lat="48.08258" lon="7.12013">
        <ele>929.1</ele>
        <time>2023-08-12T14:23:13Z</time>
      </trkpt>
      <trkpt lat="48.08258" lon="7.12013">
        <ele>929.1</ele>
        <time>2023-08-12T14:23:14Z</time>
      </trkpt>
      <trkpt lat="48.08259" lon="7.12013">
        <ele>929.1</ele>
        <time>2023-08-12T14:23:22Z</time>
      </trkpt>
      <trkpt lat="48.08259" lon="7.12013">
        <ele>929.1</ele>
        <time>2023-08-12T14:23:34Z</time>
      </trkpt>
      <trkpt lat="48.08259" lon="7.12013">
        <ele>929.1</ele>
        <time>2023-08-12T14:23:36Z</time>
      </trkpt>
      <trkpt lat="48.08258" lon="7.12013">
        <ele>929.2</ele>
        <time>2023-08-12T14:23:38Z</time>
      </trkpt>
      <trkpt lat="48.08257" lon="7.12013">
        <ele>929.2</ele>
        <time>2023-08-12T14:23:39Z</time>
      </trkpt>
      <trkpt lat="48.08257" lon="7.12013">
        <ele>929.2</ele>
        <time>2023-08-12T14:23:41Z</time>
      </trkpt>
      <trkpt lat="48.08252" lon="7.12015">
        <ele>929.6</ele>
        <time>2023-08-12T14:23:43Z</time>
      </trkpt>
      <trkpt lat="48.08246" lon="7.12019">
        <ele>930.3</ele>
        <time>2023-08-12T14:23:46Z</time>
      </trkpt>
      <trkpt lat="48.08241" lon="7.12022">
        <ele>930.7</ele>
        <time>2023-08-12T14:23:48Z</time>
      </trkpt>
      <trkpt lat="48.08229" lon="7.1203">
        <ele>932</ele>
        <time>2023-08-12T14:23:54Z</time>
      </trkpt>
      <trkpt lat="48.08227" lon="7.12029">
        <ele>932.2</ele>
        <time>2023-08-12T14:23:55Z</time>
      </trkpt>
      <trkpt lat="48.08225" lon="7.1203">
        <ele>932.4</ele>
        <time>2023-08-12T14:23:56Z</time>
      </trkpt>
      <trkpt lat="48.08216" lon="7.12034">
        <ele>933.1</ele>
        <time>2023-08-12T14:24:00Z</time>
      </trkpt>
      <trkpt lat="48.08214" lon="7.12035">
        <ele>933.2</ele>
        <time>2023-08-12T14:24:01Z</time>
      </trkpt>
      <trkpt lat="48.08212" lon="7.12035">
        <ele>933.3</ele>
        <time>2023-08-12T14:24:02Z</time>
      </trkpt>
      <trkpt lat="48.08211" lon="7.12038">
        <ele>933.4</ele>
        <time>2023-08-12T14:24:03Z</time>
      </trkpt>
      <trkpt lat="48.0821" lon="7.12038">
        <ele>933.4</ele>
        <time>2023-08-12T14:24:04Z</time>
      </trkpt>
      <trkpt lat="48.08202" lon="7.1204">
        <ele>933.4</ele>
        <time>2023-08-12T14:24:07Z</time>
      </trkpt>
      <trkpt lat="48.08198" lon="7.12041">
        <ele>933.4</ele>
        <time>2023-08-12T14:24:08Z</time>
      </trkpt>
      <trkpt lat="48.08189" lon="7.12045">
        <ele>933.1</ele>
        <time>2023-08-12T14:24:11Z</time>
      </trkpt>
      <trkpt lat="48.08179" lon="7.12052">
        <ele>932.8</ele>
        <time>2023-08-12T14:24:14Z</time>
      </trkpt>
      <trkpt lat="48.08172" lon="7.12057">
        <ele>932.7</ele>
        <time>2023-08-12T14:24:16Z</time>
      </trkpt>
      <trkpt lat="48.08169" lon="7.12059">
        <ele>932.7</ele>
        <time>2023-08-12T14:24:17Z</time>
      </trkpt>
      <trkpt lat="48.08156" lon="7.1207">
        <ele>932.5</ele>
        <time>2023-08-12T14:24:21Z</time>
      </trkpt>
      <trkpt lat="48.08129" lon="7.12093">
        <ele>932.5</ele>
        <time>2023-08-12T14:24:29Z</time>
      </trkpt>
      <trkpt lat="48.08126" lon="7.12096">
        <ele>932.5</ele>
        <time>2023-08-12T14:24:30Z</time>
      </trkpt>
      <trkpt lat="48.0812" lon="7.121">
        <ele>932.5</ele>
        <time>2023-08-12T14:24:32Z</time>
      </trkpt>
      <trkpt lat="48.08117" lon="7.12102">
        <ele>932.5</ele>
        <time>2023-08-12T14:24:33Z</time>
      </trkpt>
      <trkpt lat="48.08115" lon="7.12105">
        <ele>932.5</ele>
        <time>2023-08-12T14:24:34Z</time>
      </trkpt>
      <trkpt lat="48.08112" lon="7.12108">
        <ele>932.4</ele>
        <time>2023-08-12T14:24:35Z</time>
      </trkpt>
      <trkpt lat="48.08109" lon="7.12111">
        <ele>932.4</ele>
        <time>2023-08-12T14:24:36Z</time>
      </trkpt>
      <trkpt lat="48.08093" lon="7.1213">
        <ele>931.9</ele>
        <time>2023-08-12T14:24:41Z</time>
      </trkpt>
      <trkpt lat="48.0809" lon="7.12134">
        <ele>931.9</ele>
        <time>2023-08-12T14:24:42Z</time>
      </trkpt>
      <trkpt lat="48.08087" lon="7.12137">
        <ele>931.9</ele>
        <time>2023-08-12T14:24:43Z</time>
      </trkpt>
      <trkpt lat="48.08084" lon="7.1214">
        <ele>932</ele>
        <time>2023-08-12T14:24:44Z</time>
      </trkpt>
      <trkpt lat="48.08081" lon="7.12143">
        <ele>932</ele>
        <time>2023-08-12T14:24:45Z</time>
      </trkpt>
      <trkpt lat="48.08079" lon="7.12146">
        <ele>932</ele>
        <time>2023-08-12T14:24:46Z</time>
      </trkpt>
      <trkpt lat="48.08076" lon="7.12148">
        <ele>932</ele>
        <time>2023-08-12T14:24:47Z</time>
      </trkpt>
      <trkpt lat="48.0806" lon="7.12157">
        <ele>931.7</ele>
        <time>2023-08-12T14:24:51Z</time>
      </trkpt>
      <trkpt lat="48.08056" lon="7.12158">
        <ele>931.6</ele>
        <time>2023-08-12T14:24:52Z</time>
      </trkpt>
      <trkpt lat="48.08047" lon="7.12161">
        <ele>931.5</ele>
        <time>2023-08-12T14:24:54Z</time>
      </trkpt>
      <trkpt lat="48.08034" lon="7.12166">
        <ele>931.8</ele>
        <time>2023-08-12T14:24:57Z</time>
      </trkpt>
      <trkpt lat="48.08031" lon="7.12166">
        <ele>931.9</ele>
        <time>2023-08-12T14:24:58Z</time>
      </trkpt>
      <trkpt lat="48.08029" lon="7.12167">
        <ele>932.1</ele>
        <time>2023-08-12T14:24:59Z</time>
      </trkpt>
      <trkpt lat="48.08027" lon="7.12169">
        <ele>932.3</ele>
        <time>2023-08-12T14:25:00Z</time>
      </trkpt>
      <trkpt lat="48.08025" lon="7.12169">
        <ele>932.4</ele>
        <time>2023-08-12T14:25:01Z</time>
      </trkpt>
      <trkpt lat="48.08024" lon="7.12169">
        <ele>932.6</ele>
        <time>2023-08-12T14:25:02Z</time>
      </trkpt>
      <trkpt lat="48.08022" lon="7.12169">
        <ele>932.7</ele>
        <time>2023-08-12T14:25:03Z</time>
      </trkpt>
      <trkpt lat="48.08017" lon="7.1217">
        <ele>933.3</ele>
        <time>2023-08-12T14:25:06Z</time>
      </trkpt>
      <trkpt lat="48.08016" lon="7.12169">
        <ele>933.5</ele>
        <time>2023-08-12T14:25:07Z</time>
      </trkpt>
      <trkpt lat="48.08014" lon="7.12169">
        <ele>933.7</ele>
        <time>2023-08-12T14:25:08Z</time>
      </trkpt>
      <trkpt lat="48.08013" lon="7.12168">
        <ele>933.9</ele>
        <time>2023-08-12T14:25:09Z</time>
      </trkpt>
      <trkpt lat="48.08011" lon="7.12168">
        <ele>934.1</ele>
        <time>2023-08-12T14:25:10Z</time>
      </trkpt>
      <trkpt lat="48.0801" lon="7.12169">
        <ele>934.4</ele>
        <time>2023-08-12T14:25:11Z</time>
      </trkpt>
      <trkpt lat="48.08006" lon="7.12169">
        <ele>934.8</ele>
        <time>2023-08-12T14:25:13Z</time>
      </trkpt>
      <trkpt lat="48.08004" lon="7.12169">
        <ele>935</ele>
        <time>2023-08-12T14:25:14Z</time>
      </trkpt>
      <trkpt lat="48.07999" lon="7.1217">
        <ele>935.6</ele>
        <time>2023-08-12T14:25:17Z</time>
      </trkpt>
      <trkpt lat="48.07996" lon="7.12172">
        <ele>935.9</ele>
        <time>2023-08-12T14:25:19Z</time>
      </trkpt>
      <trkpt lat="48.07995" lon="7.12174">
        <ele>936.1</ele>
        <time>2023-08-12T14:25:20Z</time>
      </trkpt>
      <trkpt lat="48.07993" lon="7.12175">
        <ele>936.3</ele>
        <time>2023-08-12T14:25:21Z</time>
      </trkpt>
      <trkpt lat="48.07988" lon="7.12178">
        <ele>936.6</ele>
        <time>2023-08-12T14:25:23Z</time>
      </trkpt>
      <trkpt lat="48.07984" lon="7.12182">
        <ele>937</ele>
        <time>2023-08-12T14:25:25Z</time>
      </trkpt>
      <trkpt lat="48.07976" lon="7.12189">
        <ele>937.6</ele>
        <time>2023-08-12T14:25:30Z</time>
      </trkpt>
      <trkpt lat="48.07975" lon="7.12191">
        <ele>937.7</ele>
        <time>2023-08-12T14:25:31Z</time>
      </trkpt>
      <trkpt lat="48.07974" lon="7.12193">
        <ele>937.8</ele>
        <time>2023-08-12T14:25:32Z</time>
      </trkpt>
      <trkpt lat="48.07973" lon="7.12195">
        <ele>937.9</ele>
        <time>2023-08-12T14:25:33Z</time>
      </trkpt>
      <trkpt lat="48.07972" lon="7.12197">
        <ele>938</ele>
        <time>2023-08-12T14:25:34Z</time>
      </trkpt>
      <trkpt lat="48.07971" lon="7.12199">
        <ele>938.1</ele>
        <time>2023-08-12T14:25:35Z</time>
      </trkpt>
      <trkpt lat="48.07969" lon="7.122">
        <ele>938.2</ele>
        <time>2023-08-12T14:25:36Z</time>
      </trkpt>
      <trkpt lat="48.07968" lon="7.12202">
        <ele>938.3</ele>
        <time>2023-08-12T14:25:37Z</time>
      </trkpt>
      <trkpt lat="48.07966" lon="7.12203">
        <ele>938.4</ele>
        <time>2023-08-12T14:25:38Z</time>
      </trkpt>
      <trkpt lat="48.07965" lon="7.12206">
        <ele>938.6</ele>
        <time>2023-08-12T14:25:39Z</time>
      </trkpt>
      <trkpt lat="48.07965" lon="7.12208">
        <ele>938.6</ele>
        <time>2023-08-12T14:25:40Z</time>
      </trkpt>
      <trkpt lat="48.07965" lon="7.12212">
        <ele>938.9</ele>
        <time>2023-08-12T14:25:41Z</time>
      </trkpt>
      <trkpt lat="48.07966" lon="7.12214">
        <ele>939.1</ele>
        <time>2023-08-12T14:25:42Z</time>
      </trkpt>
      <trkpt lat="48.07969" lon="7.12218">
        <ele>939.5</ele>
        <time>2023-08-12T14:25:44Z</time>
      </trkpt>
      <trkpt lat="48.0797" lon="7.1222">
        <ele>939.7</ele>
        <time>2023-08-12T14:25:45Z</time>
      </trkpt>
      <trkpt lat="48.07971" lon="7.12221">
        <ele>939.8</ele>
        <time>2023-08-12T14:25:46Z</time>
      </trkpt>
      <trkpt lat="48.07972" lon="7.12222">
        <ele>940</ele>
        <time>2023-08-12T14:25:47Z</time>
      </trkpt>
      <trkpt lat="48.07973" lon="7.12224">
        <ele>940.2</ele>
        <time>2023-08-12T14:25:48Z</time>
      </trkpt>
      <trkpt lat="48.07974" lon="7.12227">
        <ele>940.4</ele>
        <time>2023-08-12T14:25:49Z</time>
      </trkpt>
      <trkpt lat="48.07974" lon="7.1223">
        <ele>940.6</ele>
        <time>2023-08-12T14:25:50Z</time>
      </trkpt>
      <trkpt lat="48.07974" lon="7.12232">
        <ele>940.8</ele>
        <time>2023-08-12T14:25:51Z</time>
      </trkpt>
      <trkpt lat="48.07974" lon="7.12233">
        <ele>940.9</ele>
        <time>2023-08-12T14:25:52Z</time>
      </trkpt>
      <trkpt lat="48.07975" lon="7.12235">
        <ele>941.1</ele>
        <time>2023-08-12T14:25:53Z</time>
      </trkpt>
      <trkpt lat="48.07976" lon="7.12237">
        <ele>941.2</ele>
        <time>2023-08-12T14:25:54Z</time>
      </trkpt>
      <trkpt lat="48.07977" lon="7.12239">
        <ele>941.4</ele>
        <time>2023-08-12T14:25:55Z</time>
      </trkpt>
      <trkpt lat="48.07977" lon="7.12242">
        <ele>941.5</ele>
        <time>2023-08-12T14:25:56Z</time>
      </trkpt>
      <trkpt lat="48.07983" lon="7.1226">
        <ele>942.6</ele>
        <time>2023-08-12T14:26:02Z</time>
      </trkpt>
      <trkpt lat="48.07984" lon="7.12267">
        <ele>943.1</ele>
        <time>2023-08-12T14:26:04Z</time>
      </trkpt>
      <trkpt lat="48.07985" lon="7.12269">
        <ele>943.3</ele>
        <time>2023-08-12T14:26:05Z</time>
      </trkpt>
      <trkpt lat="48.07985" lon="7.12271">
        <ele>943.4</ele>
        <time>2023-08-12T14:26:06Z</time>
      </trkpt>
      <trkpt lat="48.07985" lon="7.12273">
        <ele>943.6</ele>
        <time>2023-08-12T14:26:07Z</time>
      </trkpt>
      <trkpt lat="48.07985" lon="7.12275">
        <ele>943.8</ele>
        <time>2023-08-12T14:26:08Z</time>
      </trkpt>
      <trkpt lat="48.07988" lon="7.1228">
        <ele>944.4</ele>
        <time>2023-08-12T14:26:11Z</time>
      </trkpt>
      <trkpt lat="48.0799" lon="7.12281">
        <ele>944.6</ele>
        <time>2023-08-12T14:26:12Z</time>
      </trkpt>
      <trkpt lat="48.07991" lon="7.12281">
        <ele>944.8</ele>
        <time>2023-08-12T14:26:13Z</time>
      </trkpt>
      <trkpt lat="48.07993" lon="7.12281">
        <ele>945</ele>
        <time>2023-08-12T14:26:14Z</time>
      </trkpt>
      <trkpt lat="48.07994" lon="7.12282">
        <ele>945.2</ele>
        <time>2023-08-12T14:26:15Z</time>
      </trkpt>
      <trkpt lat="48.08001" lon="7.12284">
        <ele>945.8</ele>
        <time>2023-08-12T14:26:19Z</time>
      </trkpt>
      <trkpt lat="48.08005" lon="7.12285">
        <ele>946.1</ele>
        <time>2023-08-12T14:26:21Z</time>
      </trkpt>
      <trkpt lat="48.08007" lon="7.12288">
        <ele>946.3</ele>
        <time>2023-08-12T14:26:22Z</time>
      </trkpt>
      <trkpt lat="48.08008" lon="7.12289">
        <ele>946.4</ele>
        <time>2023-08-12T14:26:23Z</time>
      </trkpt>
      <trkpt lat="48.08009" lon="7.1229">
        <ele>946.5</ele>
        <time>2023-08-12T14:26:24Z</time>
      </trkpt>
      <trkpt lat="48.0801" lon="7.12291">
        <ele>946.5</ele>
        <time>2023-08-12T14:26:25Z</time>
      </trkpt>
      <trkpt lat="48.08016" lon="7.12297">
        <ele>947</ele>
        <time>2023-08-12T14:26:29Z</time>
      </trkpt>
      <trkpt lat="48.08017" lon="7.12298">
        <ele>947.1</ele>
        <time>2023-08-12T14:26:30Z</time>
      </trkpt>
      <trkpt lat="48.08019" lon="7.12299">
        <ele>947.2</ele>
        <time>2023-08-12T14:26:31Z</time>
      </trkpt>
      <trkpt lat="48.0802" lon="7.12299">
        <ele>947.3</ele>
        <time>2023-08-12T14:26:32Z</time>
      </trkpt>
      <trkpt lat="48.08021" lon="7.12299">
        <ele>947.4</ele>
        <time>2023-08-12T14:26:33Z</time>
      </trkpt>
      <trkpt lat="48.08022" lon="7.12298">
        <ele>947.5</ele>
        <time>2023-08-12T14:26:34Z</time>
      </trkpt>
      <trkpt lat="48.08023" lon="7.12298">
        <ele>947.6</ele>
        <time>2023-08-12T14:26:35Z</time>
      </trkpt>
      <trkpt lat="48.08024" lon="7.12299">
        <ele>947.7</ele>
        <time>2023-08-12T14:26:36Z</time>
      </trkpt>
      <trkpt lat="48.08026" lon="7.12299">
        <ele>947.9</ele>
        <time>2023-08-12T14:26:37Z</time>
      </trkpt>
      <trkpt lat="48.08027" lon="7.12299">
        <ele>948</ele>
        <time>2023-08-12T14:26:38Z</time>
      </trkpt>
      <trkpt lat="48.08028" lon="7.123">
        <ele>948.1</ele>
        <time>2023-08-12T14:26:39Z</time>
      </trkpt>
      <trkpt lat="48.08029" lon="7.123">
        <ele>948.2</ele>
        <time>2023-08-12T14:26:40Z</time>
      </trkpt>
      <trkpt lat="48.0803" lon="7.123">
        <ele>948.3</ele>
        <time>2023-08-12T14:26:41Z</time>
      </trkpt>
      <trkpt lat="48.0803" lon="7.123">
        <ele>948.3</ele>
        <time>2023-08-12T14:26:42Z</time>
      </trkpt>
      <trkpt lat="48.0803" lon="7.123">
        <ele>948.3</ele>
        <time>2023-08-12T14:26:43Z</time>
      </trkpt>
      <trkpt lat="48.08031" lon="7.12303">
        <ele>948.6</ele>
        <time>2023-08-12T14:26:48Z</time>
      </trkpt>
      <trkpt lat="48.08032" lon="7.12304">
        <ele>948.7</ele>
        <time>2023-08-12T14:26:49Z</time>
      </trkpt>
      <trkpt lat="48.08033" lon="7.12304">
        <ele>948.8</ele>
        <time>2023-08-12T14:26:50Z</time>
      </trkpt>
      <trkpt lat="48.08036" lon="7.12309">
        <ele>949.3</ele>
        <time>2023-08-12T14:26:56Z</time>
      </trkpt>
      <trkpt lat="48.08036" lon="7.12311">
        <ele>949.3</ele>
        <time>2023-08-12T14:26:57Z</time>
      </trkpt>
      <trkpt lat="48.08036" lon="7.12311">
        <ele>949.3</ele>
        <time>2023-08-12T14:26:58Z</time>
      </trkpt>
      <trkpt lat="48.08035" lon="7.12312">
        <ele>949.3</ele>
        <time>2023-08-12T14:26:59Z</time>
      </trkpt>
      <trkpt lat="48.08035" lon="7.12313">
        <ele>949.3</ele>
        <time>2023-08-12T14:27:01Z</time>
      </trkpt>
      <trkpt lat="48.08035" lon="7.12313">
        <ele>949.3</ele>
        <time>2023-08-12T14:27:05Z</time>
      </trkpt>
      <trkpt lat="48.08035" lon="7.12313">
        <ele>949.3</ele>
        <time>2023-08-12T14:27:12Z</time>
      </trkpt>
      <trkpt lat="48.08035" lon="7.12313">
        <ele>949.3</ele>
        <time>2023-08-12T14:27:21Z</time>
      </trkpt>
      <trkpt lat="48.08035" lon="7.12313">
        <ele>949.3</ele>
        <time>2023-08-12T14:27:26Z</time>
      </trkpt>
      <trkpt lat="48.08035" lon="7.12313">
        <ele>949.3</ele>
        <time>2023-08-12T14:27:29Z</time>
      </trkpt>
      <trkpt lat="48.08035" lon="7.12316">
        <ele>949.3</ele>
        <time>2023-08-12T14:27:30Z</time>
      </trkpt>
      <trkpt lat="48.08035" lon="7.12319">
        <ele>949.3</ele>
        <time>2023-08-12T14:27:31Z</time>
      </trkpt>
      <trkpt lat="48.08035" lon="7.12323">
        <ele>949.2</ele>
        <time>2023-08-12T14:27:32Z</time>
      </trkpt>
      <trkpt lat="48.08035" lon="7.12328">
        <ele>949.1</ele>
        <time>2023-08-12T14:27:33Z</time>
      </trkpt>
      <trkpt lat="48.08035" lon="7.12333">
        <ele>949</ele>
        <time>2023-08-12T14:27:34Z</time>
      </trkpt>
      <trkpt lat="48.08035" lon="7.12338">
        <ele>948.8</ele>
        <time>2023-08-12T14:27:35Z</time>
      </trkpt>
      <trkpt lat="48.08036" lon="7.12343">
        <ele>948.6</ele>
        <time>2023-08-12T14:27:36Z</time>
      </trkpt>
      <trkpt lat="48.08036" lon="7.1235">
        <ele>948.4</ele>
        <time>2023-08-12T14:27:37Z</time>
      </trkpt>
      <trkpt lat="48.08036" lon="7.12357">
        <ele>948.2</ele>
        <time>2023-08-12T14:27:38Z</time>
      </trkpt>
      <trkpt lat="48.08037" lon="7.12364">
        <ele>948</ele>
        <time>2023-08-12T14:27:39Z</time>
      </trkpt>
      <trkpt lat="48.08038" lon="7.1237">
        <ele>947.8</ele>
        <time>2023-08-12T14:27:40Z</time>
      </trkpt>
      <trkpt lat="48.08038" lon="7.12377">
        <ele>947.6</ele>
        <time>2023-08-12T14:27:41Z</time>
      </trkpt>
      <trkpt lat="48.08039" lon="7.12384">
        <ele>947.4</ele>
        <time>2023-08-12T14:27:42Z</time>
      </trkpt>
      <trkpt lat="48.0804" lon="7.12391">
        <ele>947.2</ele>
        <time>2023-08-12T14:27:43Z</time>
      </trkpt>
      <trkpt lat="48.08042" lon="7.1242">
        <ele>946.5</ele>
        <time>2023-08-12T14:27:47Z</time>
      </trkpt>
      <trkpt lat="48.08045" lon="7.12442">
        <ele>945.7</ele>
        <time>2023-08-12T14:27:50Z</time>
      </trkpt>
      <trkpt lat="48.08047" lon="7.1245">
        <ele>945.3</ele>
        <time>2023-08-12T14:27:51Z</time>
      </trkpt>
      <trkpt lat="48.08049" lon="7.12461">
        <ele>944.6</ele>
        <time>2023-08-12T14:27:52Z</time>
      </trkpt>
      <trkpt lat="48.0805" lon="7.12471">
        <ele>944</ele>
        <time>2023-08-12T14:27:53Z</time>
      </trkpt>
      <trkpt lat="48.0805" lon="7.12483">
        <ele>943.3</ele>
        <time>2023-08-12T14:27:54Z</time>
      </trkpt>
      <trkpt lat="48.08048" lon="7.12494">
        <ele>942.7</ele>
        <time>2023-08-12T14:27:55Z</time>
      </trkpt>
      <trkpt lat="48.08045" lon="7.12503">
        <ele>942.2</ele>
        <time>2023-08-12T14:27:56Z</time>
      </trkpt>
      <trkpt lat="48.08039" lon="7.12513">
        <ele>941.7</ele>
        <time>2023-08-12T14:27:57Z</time>
      </trkpt>
      <trkpt lat="48.08034" lon="7.12522">
        <ele>941.4</ele>
        <time>2023-08-12T14:27:58Z</time>
      </trkpt>
      <trkpt lat="48.08028" lon="7.12531">
        <ele>941.2</ele>
        <time>2023-08-12T14:27:59Z</time>
      </trkpt>
      <trkpt lat="48.08023" lon="7.1254">
        <ele>941.1</ele>
        <time>2023-08-12T14:28:00Z</time>
      </trkpt>
      <trkpt lat="48.08018" lon="7.12548">
        <ele>941.1</ele>
        <time>2023-08-12T14:28:01Z</time>
      </trkpt>
      <trkpt lat="48.08013" lon="7.12557">
        <ele>941.2</ele>
        <time>2023-08-12T14:28:02Z</time>
      </trkpt>
      <trkpt lat="48.08009" lon="7.12565">
        <ele>941.5</ele>
        <time>2023-08-12T14:28:03Z</time>
      </trkpt>
      <trkpt lat="48.08005" lon="7.12572">
        <ele>941.8</ele>
        <time>2023-08-12T14:28:04Z</time>
      </trkpt>
      <trkpt lat="48.08001" lon="7.12577">
        <ele>942.3</ele>
        <time>2023-08-12T14:28:05Z</time>
      </trkpt>
      <trkpt lat="48.07998" lon="7.12581">
        <ele>942.7</ele>
        <time>2023-08-12T14:28:06Z</time>
      </trkpt>
      <trkpt lat="48.07995" lon="7.12583">
        <ele>943.1</ele>
        <time>2023-08-12T14:28:07Z</time>
      </trkpt>
      <trkpt lat="48.07993" lon="7.12584">
        <ele>943.5</ele>
        <time>2023-08-12T14:28:08Z</time>
      </trkpt>
      <trkpt lat="48.07991" lon="7.12584">
        <ele>943.8</ele>
        <time>2023-08-12T14:28:09Z</time>
      </trkpt>
      <trkpt lat="48.07989" lon="7.12585">
        <ele>944.1</ele>
        <time>2023-08-12T14:28:10Z</time>
      </trkpt>
      <trkpt lat="48.07987" lon="7.12586">
        <ele>944.5</ele>
        <time>2023-08-12T14:28:11Z</time>
      </trkpt>
      <trkpt lat="48.07986" lon="7.12586">
        <ele>944.7</ele>
        <time>2023-08-12T14:28:12Z</time>
      </trkpt>
      <trkpt lat="48.07985" lon="7.12587">
        <ele>945</ele>
        <time>2023-08-12T14:28:13Z</time>
      </trkpt>
      <trkpt lat="48.07983" lon="7.12587">
        <ele>945.3</ele>
        <time>2023-08-12T14:28:14Z</time>
      </trkpt>
      <trkpt lat="48.07982" lon="7.12587">
        <ele>945.5</ele>
        <time>2023-08-12T14:28:15Z</time>
      </trkpt>
      <trkpt lat="48.07981" lon="7.12588">
        <ele>945.8</ele>
        <time>2023-08-12T14:28:16Z</time>
      </trkpt>
      <trkpt lat="48.0798" lon="7.12589">
        <ele>946</ele>
        <time>2023-08-12T14:28:17Z</time>
      </trkpt>
      <trkpt lat="48.07978" lon="7.1259">
        <ele>946.4</ele>
        <time>2023-08-12T14:28:18Z</time>
      </trkpt>
      <trkpt lat="48.07977" lon="7.12591">
        <ele>946.6</ele>
        <time>2023-08-12T14:28:19Z</time>
      </trkpt>
      <trkpt lat="48.07976" lon="7.12592">
        <ele>946.9</ele>
        <time>2023-08-12T14:28:20Z</time>
      </trkpt>
      <trkpt lat="48.07975" lon="7.12594">
        <ele>947.2</ele>
        <time>2023-08-12T14:28:21Z</time>
      </trkpt>
      <trkpt lat="48.07974" lon="7.12596">
        <ele>947.5</ele>
        <time>2023-08-12T14:28:22Z</time>
      </trkpt>
      <trkpt lat="48.07972" lon="7.12598">
        <ele>947.8</ele>
        <time>2023-08-12T14:28:23Z</time>
      </trkpt>
      <trkpt lat="48.07971" lon="7.126">
        <ele>948.1</ele>
        <time>2023-08-12T14:28:24Z</time>
      </trkpt>
      <trkpt lat="48.0797" lon="7.12602">
        <ele>948.4</ele>
        <time>2023-08-12T14:28:25Z</time>
      </trkpt>
      <trkpt lat="48.07968" lon="7.12603">
        <ele>948.7</ele>
        <time>2023-08-12T14:28:26Z</time>
      </trkpt>
      <trkpt lat="48.07967" lon="7.12604">
        <ele>948.9</ele>
        <time>2023-08-12T14:28:27Z</time>
      </trkpt>
      <trkpt lat="48.07966" lon="7.12605">
        <ele>949.1</ele>
        <time>2023-08-12T14:28:28Z</time>
      </trkpt>
      <trkpt lat="48.07964" lon="7.12606">
        <ele>949.2</ele>
        <time>2023-08-12T14:28:29Z</time>
      </trkpt>
      <trkpt lat="48.07963" lon="7.12608">
        <ele>949.5</ele>
        <time>2023-08-12T14:28:30Z</time>
      </trkpt>
      <trkpt lat="48.07962" lon="7.12609">
        <ele>949.7</ele>
        <time>2023-08-12T14:28:31Z</time>
      </trkpt>
      <trkpt lat="48.0796" lon="7.1261">
        <ele>949.9</ele>
        <time>2023-08-12T14:28:32Z</time>
      </trkpt>
      <trkpt lat="48.07959" lon="7.12611">
        <ele>950.1</ele>
        <time>2023-08-12T14:28:33Z</time>
      </trkpt>
      <trkpt lat="48.07958" lon="7.12613">
        <ele>950.3</ele>
        <time>2023-08-12T14:28:34Z</time>
      </trkpt>
      <trkpt lat="48.07956" lon="7.12614">
        <ele>950.5</ele>
        <time>2023-08-12T14:28:35Z</time>
      </trkpt>
      <trkpt lat="48.07955" lon="7.12616">
        <ele>950.7</ele>
        <time>2023-08-12T14:28:36Z</time>
      </trkpt>
      <trkpt lat="48.07954" lon="7.12617">
        <ele>950.9</ele>
        <time>2023-08-12T14:28:37Z</time>
      </trkpt>
      <trkpt lat="48.07953" lon="7.12618">
        <ele>951.1</ele>
        <time>2023-08-12T14:28:38Z</time>
      </trkpt>
      <trkpt lat="48.07952" lon="7.1262">
        <ele>951.3</ele>
        <time>2023-08-12T14:28:39Z</time>
      </trkpt>
      <trkpt lat="48.0795" lon="7.12621">
        <ele>951.6</ele>
        <time>2023-08-12T14:28:40Z</time>
      </trkpt>
      <trkpt lat="48.07949" lon="7.12622">
        <ele>951.8</ele>
        <time>2023-08-12T14:28:41Z</time>
      </trkpt>
      <trkpt lat="48.07948" lon="7.12623">
        <ele>952</ele>
        <time>2023-08-12T14:28:42Z</time>
      </trkpt>
      <trkpt lat="48.07946" lon="7.12623">
        <ele>952.2</ele>
        <time>2023-08-12T14:28:43Z</time>
      </trkpt>
      <trkpt lat="48.07944" lon="7.12624">
        <ele>952.5</ele>
        <time>2023-08-12T14:28:44Z</time>
      </trkpt>
      <trkpt lat="48.07943" lon="7.12623">
        <ele>952.7</ele>
        <time>2023-08-12T14:28:45Z</time>
      </trkpt>
      <trkpt lat="48.07941" lon="7.12623">
        <ele>952.9</ele>
        <time>2023-08-12T14:28:46Z</time>
      </trkpt>
      <trkpt lat="48.07939" lon="7.12622">
        <ele>953.1</ele>
        <time>2023-08-12T14:28:47Z</time>
      </trkpt>
      <trkpt lat="48.07938" lon="7.12621">
        <ele>953.4</ele>
        <time>2023-08-12T14:28:48Z</time>
      </trkpt>
      <trkpt lat="48.07936" lon="7.1262">
        <ele>953.6</ele>
        <time>2023-08-12T14:28:49Z</time>
      </trkpt>
      <trkpt lat="48.07935" lon="7.1262">
        <ele>953.8</ele>
        <time>2023-08-12T14:28:50Z</time>
      </trkpt>
      <trkpt lat="48.07933" lon="7.12619">
        <ele>954</ele>
        <time>2023-08-12T14:28:51Z</time>
      </trkpt>
      <trkpt lat="48.07932" lon="7.1262">
        <ele>954.2</ele>
        <time>2023-08-12T14:28:52Z</time>
      </trkpt>
      <trkpt lat="48.0793" lon="7.1262">
        <ele>954.4</ele>
        <time>2023-08-12T14:28:53Z</time>
      </trkpt>
      <trkpt lat="48.07928" lon="7.12621">
        <ele>954.6</ele>
        <time>2023-08-12T14:28:54Z</time>
      </trkpt>
      <trkpt lat="48.07927" lon="7.12622">
        <ele>954.8</ele>
        <time>2023-08-12T14:28:55Z</time>
      </trkpt>
      <trkpt lat="48.07925" lon="7.12622">
        <ele>955</ele>
        <time>2023-08-12T14:28:56Z</time>
      </trkpt>
      <trkpt lat="48.07924" lon="7.12623">
        <ele>955.2</ele>
        <time>2023-08-12T14:28:57Z</time>
      </trkpt>
      <trkpt lat="48.07923" lon="7.12623">
        <ele>955.3</ele>
        <time>2023-08-12T14:28:58Z</time>
      </trkpt>
      <trkpt lat="48.07921" lon="7.12624">
        <ele>955.6</ele>
        <time>2023-08-12T14:28:59Z</time>
      </trkpt>
      <trkpt lat="48.07916" lon="7.12626">
        <ele>956.2</ele>
        <time>2023-08-12T14:29:02Z</time>
      </trkpt>
      <trkpt lat="48.07913" lon="7.12628">
        <ele>956.6</ele>
        <time>2023-08-12T14:29:04Z</time>
      </trkpt>
      <trkpt lat="48.07912" lon="7.12629">
        <ele>956.7</ele>
        <time>2023-08-12T14:29:05Z</time>
      </trkpt>
      <trkpt lat="48.07905" lon="7.12631">
        <ele>957.4</ele>
        <time>2023-08-12T14:29:09Z</time>
      </trkpt>
      <trkpt lat="48.07903" lon="7.12631">
        <ele>957.5</ele>
        <time>2023-08-12T14:29:10Z</time>
      </trkpt>
      <trkpt lat="48.07902" lon="7.12631">
        <ele>957.6</ele>
        <time>2023-08-12T14:29:11Z</time>
      </trkpt>
      <trkpt lat="48.079" lon="7.12632">
        <ele>957.8</ele>
        <time>2023-08-12T14:29:12Z</time>
      </trkpt>
      <trkpt lat="48.07895" lon="7.12636">
        <ele>958.1</ele>
        <time>2023-08-12T14:29:15Z</time>
      </trkpt>
      <trkpt lat="48.07893" lon="7.12639">
        <ele>958.2</ele>
        <time>2023-08-12T14:29:16Z</time>
      </trkpt>
      <trkpt lat="48.07882" lon="7.12659">
        <ele>958.3</ele>
        <time>2023-08-12T14:29:23Z</time>
      </trkpt>
      <trkpt lat="48.07881" lon="7.12664">
        <ele>958.2</ele>
        <time>2023-08-12T14:29:24Z</time>
      </trkpt>
      <trkpt lat="48.07876" lon="7.1268">
        <ele>958.1</ele>
        <time>2023-08-12T14:29:27Z</time>
      </trkpt>
      <trkpt lat="48.07872" lon="7.1269">
        <ele>957.9</ele>
        <time>2023-08-12T14:29:29Z</time>
      </trkpt>
      <trkpt lat="48.0787" lon="7.12695">
        <ele>957.8</ele>
        <time>2023-08-12T14:29:30Z</time>
      </trkpt>
      <trkpt lat="48.07868" lon="7.127">
        <ele>957.7</ele>
        <time>2023-08-12T14:29:31Z</time>
      </trkpt>
      <trkpt lat="48.07864" lon="7.12711">
        <ele>957.2</ele>
        <time>2023-08-12T14:29:33Z</time>
      </trkpt>
      <trkpt lat="48.0786" lon="7.12726">
        <ele>956.2</ele>
        <time>2023-08-12T14:29:35Z</time>
      </trkpt>
      <trkpt lat="48.07857" lon="7.12734">
        <ele>955.5</ele>
        <time>2023-08-12T14:29:36Z</time>
      </trkpt>
      <trkpt lat="48.07854" lon="7.12755">
        <ele>953.6</ele>
        <time>2023-08-12T14:29:38Z</time>
      </trkpt>
      <trkpt lat="48.07854" lon="7.12768">
        <ele>952.4</ele>
        <time>2023-08-12T14:29:39Z</time>
      </trkpt>
      <trkpt lat="48.07855" lon="7.1278">
        <ele>951.5</ele>
        <time>2023-08-12T14:29:40Z</time>
      </trkpt>
      <trkpt lat="48.07854" lon="7.12789">
        <ele>950.8</ele>
        <time>2023-08-12T14:29:41Z</time>
      </trkpt>
      <trkpt lat="48.07854" lon="7.12796">
        <ele>950.4</ele>
        <time>2023-08-12T14:29:42Z</time>
      </trkpt>
      <trkpt lat="48.07853" lon="7.128">
        <ele>950.1</ele>
        <time>2023-08-12T14:29:43Z</time>
      </trkpt>
      <trkpt lat="48.07853" lon="7.12802">
        <ele>950</ele>
        <time>2023-08-12T14:29:44Z</time>
      </trkpt>
      <trkpt lat="48.07853" lon="7.12803">
        <ele>950</ele>
        <time>2023-08-12T14:29:45Z</time>
      </trkpt>
      <trkpt lat="48.07853" lon="7.12804">
        <ele>949.9</ele>
        <time>2023-08-12T14:29:48Z</time>
      </trkpt>
      <trkpt lat="48.07854" lon="7.12804">
        <ele>949.8</ele>
        <time>2023-08-12T14:29:49Z</time>
      </trkpt>
      <trkpt lat="48.07854" lon="7.12805">
        <ele>949.8</ele>
        <time>2023-08-12T14:29:55Z</time>
      </trkpt>
      <trkpt lat="48.07854" lon="7.12805">
        <ele>949.8</ele>
        <time>2023-08-12T14:30:05Z</time>
      </trkpt>
      <trkpt lat="48.07854" lon="7.12805">
        <ele>949.8</ele>
        <time>2023-08-12T14:30:11Z</time>
      </trkpt>
      <trkpt lat="48.07854" lon="7.12805">
        <ele>949.8</ele>
        <time>2023-08-12T14:30:15Z</time>
      </trkpt>
      <trkpt lat="48.07854" lon="7.12805">
        <ele>949.8</ele>
        <time>2023-08-12T14:30:21Z</time>
      </trkpt>
      <trkpt lat="48.07854" lon="7.12805">
        <ele>949.8</ele>
        <time>2023-08-12T14:30:26Z</time>
      </trkpt>
      <trkpt lat="48.07854" lon="7.12805">
        <ele>949.8</ele>
        <time>2023-08-12T14:30:30Z</time>
      </trkpt>
      <trkpt lat="48.07853" lon="7.12805">
        <ele>949.7</ele>
        <time>2023-08-12T14:30:32Z</time>
      </trkpt>
      <trkpt lat="48.07853" lon="7.12807">
        <ele>949.7</ele>
        <time>2023-08-12T14:30:33Z</time>
      </trkpt>
      <trkpt lat="48.07852" lon="7.12808">
        <ele>949.6</ele>
        <time>2023-08-12T14:30:34Z</time>
      </trkpt>
      <trkpt lat="48.07851" lon="7.12811">
        <ele>949.6</ele>
        <time>2023-08-12T14:30:35Z</time>
      </trkpt>
      <trkpt lat="48.07849" lon="7.12818">
        <ele>949.4</ele>
        <time>2023-08-12T14:30:37Z</time>
      </trkpt>
      <trkpt lat="48.07848" lon="7.12822">
        <ele>949.2</ele>
        <time>2023-08-12T14:30:38Z</time>
      </trkpt>
      <trkpt lat="48.07848" lon="7.12827">
        <ele>949</ele>
        <time>2023-08-12T14:30:39Z</time>
      </trkpt>
      <trkpt lat="48.07845" lon="7.12844">
        <ele>948.1</ele>
        <time>2023-08-12T14:30:42Z</time>
      </trkpt>
      <trkpt lat="48.07843" lon="7.1285">
        <ele>947.8</ele>
        <time>2023-08-12T14:30:43Z</time>
      </trkpt>
      <trkpt lat="48.0784" lon="7.12856">
        <ele>947.4</ele>
        <time>2023-08-12T14:30:44Z</time>
      </trkpt>
      <trkpt lat="48.07836" lon="7.12862">
        <ele>947</ele>
        <time>2023-08-12T14:30:45Z</time>
      </trkpt>
      <trkpt lat="48.07833" lon="7.12866">
        <ele>946.7</ele>
        <time>2023-08-12T14:30:46Z</time>
      </trkpt>
      <trkpt lat="48.07829" lon="7.12871">
        <ele>946.3</ele>
        <time>2023-08-12T14:30:47Z</time>
      </trkpt>
      <trkpt lat="48.07824" lon="7.12876">
        <ele>945.9</ele>
        <time>2023-08-12T14:30:48Z</time>
      </trkpt>
      <trkpt lat="48.07819" lon="7.12881">
        <ele>945.4</ele>
        <time>2023-08-12T14:30:49Z</time>
      </trkpt>
      <trkpt lat="48.07812" lon="7.12896">
        <ele>945.6</ele>
        <time>2023-08-12T14:30:51Z</time>
      </trkpt>
      <trkpt lat="48.07811" lon="7.12902">
        <ele>946</ele>
        <time>2023-08-12T14:30:52Z</time>
      </trkpt>
      <trkpt lat="48.07811" lon="7.12908">
        <ele>946.4</ele>
        <time>2023-08-12T14:30:53Z</time>
      </trkpt>
      <trkpt lat="48.07812" lon="7.12913">
        <ele>946.8</ele>
        <time>2023-08-12T14:30:54Z</time>
      </trkpt>
      <trkpt lat="48.07812" lon="7.12916">
        <ele>947</ele>
        <time>2023-08-12T14:30:55Z</time>
      </trkpt>
      <trkpt lat="48.07813" lon="7.1292">
        <ele>947.3</ele>
        <time>2023-08-12T14:30:56Z</time>
      </trkpt>
      <trkpt lat="48.07813" lon="7.12923">
        <ele>947.5</ele>
        <time>2023-08-12T14:30:57Z</time>
      </trkpt>
      <trkpt lat="48.07813" lon="7.12926">
        <ele>947.8</ele>
        <time>2023-08-12T14:30:58Z</time>
      </trkpt>
      <trkpt lat="48.07814" lon="7.12929">
        <ele>948</ele>
        <time>2023-08-12T14:30:59Z</time>
      </trkpt>
      <trkpt lat="48.07814" lon="7.12932">
        <ele>948.2</ele>
        <time>2023-08-12T14:31:00Z</time>
      </trkpt>
      <trkpt lat="48.07815" lon="7.12938">
        <ele>948.7</ele>
        <time>2023-08-12T14:31:02Z</time>
      </trkpt>
      <trkpt lat="48.07816" lon="7.1294">
        <ele>948.9</ele>
        <time>2023-08-12T14:31:03Z</time>
      </trkpt>
      <trkpt lat="48.07816" lon="7.12943">
        <ele>949.2</ele>
        <time>2023-08-12T14:31:04Z</time>
      </trkpt>
      <trkpt lat="48.07817" lon="7.12946">
        <ele>949.4</ele>
        <time>2023-08-12T14:31:05Z</time>
      </trkpt>
      <trkpt lat="48.07817" lon="7.12948">
        <ele>949.6</ele>
        <time>2023-08-12T14:31:06Z</time>
      </trkpt>
      <trkpt lat="48.07817" lon="7.12951">
        <ele>949.8</ele>
        <time>2023-08-12T14:31:07Z</time>
      </trkpt>
      <trkpt lat="48.07816" lon="7.12953">
        <ele>949.9</ele>
        <time>2023-08-12T14:31:08Z</time>
      </trkpt>
      <trkpt lat="48.07816" lon="7.12955">
        <ele>950.1</ele>
        <time>2023-08-12T14:31:09Z</time>
      </trkpt>
      <trkpt lat="48.07817" lon="7.12958">
        <ele>950.4</ele>
        <time>2023-08-12T14:31:10Z</time>
      </trkpt>
      <trkpt lat="48.07817" lon="7.12961">
        <ele>950.6</ele>
        <time>2023-08-12T14:31:11Z</time>
      </trkpt>
      <trkpt lat="48.07817" lon="7.12963">
        <ele>950.8</ele>
        <time>2023-08-12T14:31:12Z</time>
      </trkpt>
      <trkpt lat="48.07818" lon="7.12968">
        <ele>951.2</ele>
        <time>2023-08-12T14:31:14Z</time>
      </trkpt>
      <trkpt lat="48.07817" lon="7.12971">
        <ele>951.5</ele>
        <time>2023-08-12T14:31:15Z</time>
      </trkpt>
      <trkpt lat="48.07816" lon="7.12974">
        <ele>951.7</ele>
        <time>2023-08-12T14:31:16Z</time>
      </trkpt>
      <trkpt lat="48.07815" lon="7.12975">
        <ele>951.8</ele>
        <time>2023-08-12T14:31:17Z</time>
      </trkpt>
      <trkpt lat="48.07815" lon="7.12976">
        <ele>951.9</ele>
        <time>2023-08-12T14:31:18Z</time>
      </trkpt>
      <trkpt lat="48.07815" lon="7.12976">
        <ele>951.9</ele>
        <time>2023-08-12T14:31:19Z</time>
      </trkpt>
      <trkpt lat="48.07815" lon="7.12976">
        <ele>951.9</ele>
        <time>2023-08-12T14:31:23Z</time>
      </trkpt>
      <trkpt lat="48.07815" lon="7.12976">
        <ele>951.9</ele>
        <time>2023-08-12T14:31:29Z</time>
      </trkpt>
      <trkpt lat="48.07815" lon="7.12976">
        <ele>951.9</ele>
        <time>2023-08-12T14:31:30Z</time>
      </trkpt>
      <trkpt lat="48.07815" lon="7.12976">
        <ele>951.9</ele>
        <time>2023-08-12T14:31:41Z</time>
      </trkpt>
      <trkpt lat="48.07815" lon="7.12976">
        <ele>951.9</ele>
        <time>2023-08-12T14:31:49Z</time>
      </trkpt>
      <trkpt lat="48.07815" lon="7.12976">
        <ele>951.9</ele>
        <time>2023-08-12T14:31:57Z</time>
      </trkpt>
      <trkpt lat="48.07815" lon="7.12977">
        <ele>951.9</ele>
        <time>2023-08-12T14:32:03Z</time>
      </trkpt>
      <trkpt lat="48.07815" lon="7.12977">
        <ele>952</ele>
        <time>2023-08-12T14:32:07Z</time>
      </trkpt>
      <trkpt lat="48.07815" lon="7.12978">
        <ele>952</ele>
        <time>2023-08-12T14:32:10Z</time>
      </trkpt>
      <trkpt lat="48.07814" lon="7.1298">
        <ele>952.2</ele>
        <time>2023-08-12T14:32:11Z</time>
      </trkpt>
      <trkpt lat="48.07812" lon="7.12982">
        <ele>952.4</ele>
        <time>2023-08-12T14:32:12Z</time>
      </trkpt>
      <trkpt lat="48.0781" lon="7.12984">
        <ele>952.6</ele>
        <time>2023-08-12T14:32:13Z</time>
      </trkpt>
      <trkpt lat="48.07809" lon="7.12986">
        <ele>952.8</ele>
        <time>2023-08-12T14:32:14Z</time>
      </trkpt>
      <trkpt lat="48.07807" lon="7.12989">
        <ele>953</ele>
        <time>2023-08-12T14:32:15Z</time>
      </trkpt>
      <trkpt lat="48.07805" lon="7.12991">
        <ele>953.2</ele>
        <time>2023-08-12T14:32:16Z</time>
      </trkpt>
      <trkpt lat="48.07804" lon="7.12994">
        <ele>953.4</ele>
        <time>2023-08-12T14:32:17Z</time>
      </trkpt>
      <trkpt lat="48.07802" lon="7.12996">
        <ele>953.6</ele>
        <time>2023-08-12T14:32:18Z</time>
      </trkpt>
      <trkpt lat="48.07801" lon="7.12999">
        <ele>953.7</ele>
        <time>2023-08-12T14:32:19Z</time>
      </trkpt>
      <trkpt lat="48.07799" lon="7.13002">
        <ele>953.9</ele>
        <time>2023-08-12T14:32:20Z</time>
      </trkpt>
      <trkpt lat="48.07797" lon="7.13006">
        <ele>954.2</ele>
        <time>2023-08-12T14:32:21Z</time>
      </trkpt>
      <trkpt lat="48.07795" lon="7.13009">
        <ele>954.4</ele>
        <time>2023-08-12T14:32:22Z</time>
      </trkpt>
      <trkpt lat="48.07793" lon="7.13011">
        <ele>954.4</ele>
        <time>2023-08-12T14:32:23Z</time>
      </trkpt>
      <trkpt lat="48.07791" lon="7.13014">
        <ele>954.4</ele>
        <time>2023-08-12T14:32:24Z</time>
      </trkpt>
      <trkpt lat="48.07788" lon="7.13018">
        <ele>954.5</ele>
        <time>2023-08-12T14:32:25Z</time>
      </trkpt>
      <trkpt lat="48.07786" lon="7.13022">
        <ele>954.6</ele>
        <time>2023-08-12T14:32:26Z</time>
      </trkpt>
      <trkpt lat="48.07785" lon="7.13025">
        <ele>954.8</ele>
        <time>2023-08-12T14:32:27Z</time>
      </trkpt>
      <trkpt lat="48.07785" lon="7.13027">
        <ele>954.8</ele>
        <time>2023-08-12T14:32:28Z</time>
      </trkpt>
      <trkpt lat="48.07784" lon="7.13027">
        <ele>954.8</ele>
        <time>2023-08-12T14:32:31Z</time>
      </trkpt>
      <trkpt lat="48.07784" lon="7.13027">
        <ele>954.8</ele>
        <time>2023-08-12T14:32:40Z</time>
      </trkpt>
      <trkpt lat="48.07783" lon="7.13032">
        <ele>955.1</ele>
        <time>2023-08-12T14:32:54Z</time>
      </trkpt>
      <trkpt lat="48.07783" lon="7.13034">
        <ele>955.1</ele>
        <time>2023-08-12T14:32:55Z</time>
      </trkpt>
      <trkpt lat="48.07783" lon="7.13035">
        <ele>955.2</ele>
        <time>2023-08-12T14:32:56Z</time>
      </trkpt>
      <trkpt lat="48.07783" lon="7.13035">
        <ele>955.2</ele>
        <time>2023-08-12T14:32:57Z</time>
      </trkpt>
      <trkpt lat="48.07783" lon="7.13036">
        <ele>955.2</ele>
        <time>2023-08-12T14:33:00Z</time>
      </trkpt>
      <trkpt lat="48.07782" lon="7.13037">
        <ele>955.3</ele>
        <time>2023-08-12T14:33:01Z</time>
      </trkpt>
      <trkpt lat="48.0778" lon="7.13049">
        <ele>955.9</ele>
        <time>2023-08-12T14:33:05Z</time>
      </trkpt>
      <trkpt lat="48.0778" lon="7.13057">
        <ele>956.4</ele>
        <time>2023-08-12T14:33:07Z</time>
      </trkpt>
      <trkpt lat="48.07779" lon="7.13061">
        <ele>956.6</ele>
        <time>2023-08-12T14:33:08Z</time>
      </trkpt>
      <trkpt lat="48.07779" lon="7.13064">
        <ele>956.8</ele>
        <time>2023-08-12T14:33:09Z</time>
      </trkpt>
      <trkpt lat="48.07779" lon="7.13067">
        <ele>956.9</ele>
        <time>2023-08-12T14:33:10Z</time>
      </trkpt>
      <trkpt lat="48.07779" lon="7.13077">
        <ele>957.5</ele>
        <time>2023-08-12T14:33:13Z</time>
      </trkpt>
      <trkpt lat="48.0778" lon="7.13079">
        <ele>957.6</ele>
        <time>2023-08-12T14:33:14Z</time>
      </trkpt>
      <trkpt lat="48.07779" lon="7.13082">
        <ele>957.8</ele>
        <time>2023-08-12T14:33:15Z</time>
      </trkpt>
      <trkpt lat="48.07779" lon="7.13092">
        <ele>958.3</ele>
        <time>2023-08-12T14:33:18Z</time>
      </trkpt>
      <trkpt lat="48.07779" lon="7.13097">
        <ele>958.6</ele>
        <time>2023-08-12T14:33:20Z</time>
      </trkpt>
      <trkpt lat="48.07779" lon="7.13101">
        <ele>958.8</ele>
        <time>2023-08-12T14:33:21Z</time>
      </trkpt>
      <trkpt lat="48.07779" lon="7.13104">
        <ele>958.9</ele>
        <time>2023-08-12T14:33:22Z</time>
      </trkpt>
      <trkpt lat="48.07779" lon="7.13107">
        <ele>959.1</ele>
        <time>2023-08-12T14:33:23Z</time>
      </trkpt>
      <trkpt lat="48.07779" lon="7.13109">
        <ele>959.2</ele>
        <time>2023-08-12T14:33:24Z</time>
      </trkpt>
      <trkpt lat="48.07779" lon="7.13118">
        <ele>959.7</ele>
        <time>2023-08-12T14:33:27Z</time>
      </trkpt>
      <trkpt lat="48.0778" lon="7.13127">
        <ele>960.2</ele>
        <time>2023-08-12T14:33:30Z</time>
      </trkpt>
      <trkpt lat="48.0778" lon="7.1313">
        <ele>960.4</ele>
        <time>2023-08-12T14:33:31Z</time>
      </trkpt>
      <trkpt lat="48.07781" lon="7.13133">
        <ele>960.5</ele>
        <time>2023-08-12T14:33:32Z</time>
      </trkpt>
      <trkpt lat="48.07782" lon="7.13141">
        <ele>960.9</ele>
        <time>2023-08-12T14:33:35Z</time>
      </trkpt>
      <trkpt lat="48.07782" lon="7.1315">
        <ele>961.2</ele>
        <time>2023-08-12T14:33:38Z</time>
      </trkpt>
      <trkpt lat="48.07782" lon="7.13154">
        <ele>961.4</ele>
        <time>2023-08-12T14:33:39Z</time>
      </trkpt>
      <trkpt lat="48.07782" lon="7.13157">
        <ele>961.5</ele>
        <time>2023-08-12T14:33:40Z</time>
      </trkpt>
      <trkpt lat="48.07782" lon="7.13165">
        <ele>961.9</ele>
        <time>2023-08-12T14:33:43Z</time>
      </trkpt>
      <trkpt lat="48.07782" lon="7.13172">
        <ele>962.1</ele>
        <time>2023-08-12T14:33:45Z</time>
      </trkpt>
      <trkpt lat="48.07781" lon="7.13181">
        <ele>962.5</ele>
        <time>2023-08-12T14:33:48Z</time>
      </trkpt>
      <trkpt lat="48.07781" lon="7.13184">
        <ele>962.7</ele>
        <time>2023-08-12T14:33:49Z</time>
      </trkpt>
      <trkpt lat="48.07781" lon="7.1319">
        <ele>962.9</ele>
        <time>2023-08-12T14:33:51Z</time>
      </trkpt>
      <trkpt lat="48.0778" lon="7.132">
        <ele>963.3</ele>
        <time>2023-08-12T14:33:54Z</time>
      </trkpt>
      <trkpt lat="48.0778" lon="7.13208">
        <ele>963.7</ele>
        <time>2023-08-12T14:33:57Z</time>
      </trkpt>
      <trkpt lat="48.0778" lon="7.13214">
        <ele>963.9</ele>
        <time>2023-08-12T14:33:59Z</time>
      </trkpt>
      <trkpt lat="48.0778" lon="7.13217">
        <ele>964.1</ele>
        <time>2023-08-12T14:34:00Z</time>
      </trkpt>
      <trkpt lat="48.0778" lon="7.1322">
        <ele>964.2</ele>
        <time>2023-08-12T14:34:01Z</time>
      </trkpt>
      <trkpt lat="48.0778" lon="7.13222">
        <ele>964.3</ele>
        <time>2023-08-12T14:34:02Z</time>
      </trkpt>
      <trkpt lat="48.07779" lon="7.13225">
        <ele>964.4</ele>
        <time>2023-08-12T14:34:03Z</time>
      </trkpt>
      <trkpt lat="48.0778" lon="7.13228">
        <ele>964.6</ele>
        <time>2023-08-12T14:34:04Z</time>
      </trkpt>
      <trkpt lat="48.0778" lon="7.1323">
        <ele>964.7</ele>
        <time>2023-08-12T14:34:05Z</time>
      </trkpt>
      <trkpt lat="48.0778" lon="7.13236">
        <ele>965</ele>
        <time>2023-08-12T14:34:07Z</time>
      </trkpt>
      <trkpt lat="48.07782" lon="7.13246">
        <ele>965.5</ele>
        <time>2023-08-12T14:34:11Z</time>
      </trkpt>
      <trkpt lat="48.07783" lon="7.13252">
        <ele>965.9</ele>
        <time>2023-08-12T14:34:13Z</time>
      </trkpt>
      <trkpt lat="48.07783" lon="7.13256">
        <ele>966.1</ele>
        <time>2023-08-12T14:34:15Z</time>
      </trkpt>
      <trkpt lat="48.07783" lon="7.13259">
        <ele>966.3</ele>
        <time>2023-08-12T14:34:16Z</time>
      </trkpt>
      <trkpt lat="48.07783" lon="7.13265">
        <ele>966.6</ele>
        <time>2023-08-12T14:34:18Z</time>
      </trkpt>
      <trkpt lat="48.07783" lon="7.13267">
        <ele>966.8</ele>
        <time>2023-08-12T14:34:19Z</time>
      </trkpt>
      <trkpt lat="48.07783" lon="7.13275">
        <ele>967.3</ele>
        <time>2023-08-12T14:34:22Z</time>
      </trkpt>
      <trkpt lat="48.07783" lon="7.13278">
        <ele>967.5</ele>
        <time>2023-08-12T14:34:23Z</time>
      </trkpt>
      <trkpt lat="48.07782" lon="7.13282">
        <ele>967.8</ele>
        <time>2023-08-12T14:34:25Z</time>
      </trkpt>
      <trkpt lat="48.07782" lon="7.13285">
        <ele>968</ele>
        <time>2023-08-12T14:34:26Z</time>
      </trkpt>
      <trkpt lat="48.07781" lon="7.13287">
        <ele>968.1</ele>
        <time>2023-08-12T14:34:27Z</time>
      </trkpt>
      <trkpt lat="48.07781" lon="7.13289">
        <ele>968.2</ele>
        <time>2023-08-12T14:34:28Z</time>
      </trkpt>
      <trkpt lat="48.07781" lon="7.13292">
        <ele>968.4</ele>
        <time>2023-08-12T14:34:29Z</time>
      </trkpt>
      <trkpt lat="48.07781" lon="7.13295">
        <ele>968.6</ele>
        <time>2023-08-12T14:34:30Z</time>
      </trkpt>
      <trkpt lat="48.07781" lon="7.13298">
        <ele>968.8</ele>
        <time>2023-08-12T14:34:31Z</time>
      </trkpt>
      <trkpt lat="48.07782" lon="7.13303">
        <ele>969.1</ele>
        <time>2023-08-12T14:34:33Z</time>
      </trkpt>
      <trkpt lat="48.07782" lon="7.13312">
        <ele>969.7</ele>
        <time>2023-08-12T14:34:36Z</time>
      </trkpt>
      <trkpt lat="48.07782" lon="7.13314">
        <ele>969.8</ele>
        <time>2023-08-12T14:34:37Z</time>
      </trkpt>
      <trkpt lat="48.07782" lon="7.13317">
        <ele>969.9</ele>
        <time>2023-08-12T14:34:38Z</time>
      </trkpt>
      <trkpt lat="48.07781" lon="7.1332">
        <ele>970.1</ele>
        <time>2023-08-12T14:34:39Z</time>
      </trkpt>
      <trkpt lat="48.0778" lon="7.13322">
        <ele>970.2</ele>
        <time>2023-08-12T14:34:40Z</time>
      </trkpt>
      <trkpt lat="48.07779" lon="7.13324">
        <ele>970.4</ele>
        <time>2023-08-12T14:34:41Z</time>
      </trkpt>
      <trkpt lat="48.07777" lon="7.13326">
        <ele>970.5</ele>
        <time>2023-08-12T14:34:42Z</time>
      </trkpt>
      <trkpt lat="48.07776" lon="7.13327">
        <ele>970.6</ele>
        <time>2023-08-12T14:34:43Z</time>
      </trkpt>
      <trkpt lat="48.07774" lon="7.1333">
        <ele>970.8</ele>
        <time>2023-08-12T14:34:44Z</time>
      </trkpt>
      <trkpt lat="48.07773" lon="7.13332">
        <ele>970.9</ele>
        <time>2023-08-12T14:34:45Z</time>
      </trkpt>
      <trkpt lat="48.07771" lon="7.13336">
        <ele>971.1</ele>
        <time>2023-08-12T14:34:47Z</time>
      </trkpt>
      <trkpt lat="48.07769" lon="7.13338">
        <ele>971.2</ele>
        <time>2023-08-12T14:34:48Z</time>
      </trkpt>
      <trkpt lat="48.07766" lon="7.1334">
        <ele>971.4</ele>
        <time>2023-08-12T14:34:50Z</time>
      </trkpt>
      <trkpt lat="48.07765" lon="7.13342">
        <ele>971.4</ele>
        <time>2023-08-12T14:34:51Z</time>
      </trkpt>
      <trkpt lat="48.07764" lon="7.13343">
        <ele>971.5</ele>
        <time>2023-08-12T14:34:52Z</time>
      </trkpt>
      <trkpt lat="48.07763" lon="7.13345">
        <ele>971.9</ele>
        <time>2023-08-12T14:34:53Z</time>
      </trkpt>
      <trkpt lat="48.07762" lon="7.13346">
        <ele>971.9</ele>
        <time>2023-08-12T14:34:54Z</time>
      </trkpt>
      <trkpt lat="48.07761" lon="7.13347">
        <ele>971.8</ele>
        <time>2023-08-12T14:34:55Z</time>
      </trkpt>
      <trkpt lat="48.07761" lon="7.13348">
        <ele>971.8</ele>
        <time>2023-08-12T14:34:56Z</time>
      </trkpt>
      <trkpt lat="48.0776" lon="7.13349">
        <ele>971.7</ele>
        <time>2023-08-12T14:34:57Z</time>
      </trkpt>
      <trkpt lat="48.0776" lon="7.13349">
        <ele>971.7</ele>
        <time>2023-08-12T14:34:59Z</time>
      </trkpt>
      <trkpt lat="48.0776" lon="7.13349">
        <ele>971.7</ele>
        <time>2023-08-12T14:35:01Z</time>
      </trkpt>
      <trkpt lat="48.0776" lon="7.13349">
        <ele>971.7</ele>
        <time>2023-08-12T14:35:02Z</time>
      </trkpt>
      <trkpt lat="48.07759" lon="7.13351">
        <ele>971.7</ele>
        <time>2023-08-12T14:35:08Z</time>
      </trkpt>
      <trkpt lat="48.07759" lon="7.13351">
        <ele>971.6</ele>
        <time>2023-08-12T14:35:10Z</time>
      </trkpt>
      <trkpt lat="48.07759" lon="7.13351">
        <ele>971.6</ele>
        <time>2023-08-12T14:35:17Z</time>
      </trkpt>
      <trkpt lat="48.07759" lon="7.13351">
        <ele>971.6</ele>
        <time>2023-08-12T14:35:21Z</time>
      </trkpt>
      <trkpt lat="48.07758" lon="7.13351">
        <ele>971.6</ele>
        <time>2023-08-12T14:35:22Z</time>
      </trkpt>
      <trkpt lat="48.07757" lon="7.1335">
        <ele>971.6</ele>
        <time>2023-08-12T14:35:23Z</time>
      </trkpt>
      <trkpt lat="48.07756" lon="7.13347">
        <ele>971.5</ele>
        <time>2023-08-12T14:35:25Z</time>
      </trkpt>
      <trkpt lat="48.07756" lon="7.13347">
        <ele>971.4</ele>
        <time>2023-08-12T14:35:26Z</time>
      </trkpt>
      <trkpt lat="48.07755" lon="7.13345">
        <ele>971.4</ele>
        <time>2023-08-12T14:35:30Z</time>
      </trkpt>
      <trkpt lat="48.07755" lon="7.13345">
        <ele>971.4</ele>
        <time>2023-08-12T14:35:31Z</time>
      </trkpt>
      <trkpt lat="48.07755" lon="7.13345">
        <ele>971.4</ele>
        <time>2023-08-12T14:35:36Z</time>
      </trkpt>
      <trkpt lat="48.0775" lon="7.13339">
        <ele>971.1</ele>
        <time>2023-08-12T14:35:39Z</time>
      </trkpt>
      <trkpt lat="48.07735" lon="7.13325">
        <ele>970.7</ele>
        <time>2023-08-12T14:35:44Z</time>
      </trkpt>
      <trkpt lat="48.07728" lon="7.13323">
        <ele>970.7</ele>
        <time>2023-08-12T14:35:46Z</time>
      </trkpt>
      <trkpt lat="48.07726" lon="7.13321">
        <ele>970.7</ele>
        <time>2023-08-12T14:35:47Z</time>
      </trkpt>
      <trkpt lat="48.07724" lon="7.1332">
        <ele>970.7</ele>
        <time>2023-08-12T14:35:48Z</time>
      </trkpt>
      <trkpt lat="48.07719" lon="7.13317">
        <ele>970.8</ele>
        <time>2023-08-12T14:35:50Z</time>
      </trkpt>
      <trkpt lat="48.07709" lon="7.1331">
        <ele>971</ele>
        <time>2023-08-12T14:35:53Z</time>
      </trkpt>
      <trkpt lat="48.07706" lon="7.13308">
        <ele>971.1</ele>
        <time>2023-08-12T14:35:54Z</time>
      </trkpt>
      <trkpt lat="48.07702" lon="7.13305">
        <ele>971.3</ele>
        <time>2023-08-12T14:35:55Z</time>
      </trkpt>
      <trkpt lat="48.07699" lon="7.13302">
        <ele>971.3</ele>
        <time>2023-08-12T14:35:56Z</time>
      </trkpt>
      <trkpt lat="48.07697" lon="7.13298">
        <ele>971.4</ele>
        <time>2023-08-12T14:35:58Z</time>
      </trkpt>
      <trkpt lat="48.07695" lon="7.13297">
        <ele>971.4</ele>
        <time>2023-08-12T14:35:59Z</time>
      </trkpt>
      <trkpt lat="48.07693" lon="7.13297">
        <ele>971.5</ele>
        <time>2023-08-12T14:36:00Z</time>
      </trkpt>
      <trkpt lat="48.07689" lon="7.13295">
        <ele>971.5</ele>
        <time>2023-08-12T14:36:01Z</time>
      </trkpt>
      <trkpt lat="48.07686" lon="7.13293">
        <ele>971.5</ele>
        <time>2023-08-12T14:36:02Z</time>
      </trkpt>
      <trkpt lat="48.07683" lon="7.13289">
        <ele>971.6</ele>
        <time>2023-08-12T14:36:03Z</time>
      </trkpt>
      <trkpt lat="48.0768" lon="7.13285">
        <ele>971.6</ele>
        <time>2023-08-12T14:36:04Z</time>
      </trkpt>
      <trkpt lat="48.07678" lon="7.13281">
        <ele>971.7</ele>
        <time>2023-08-12T14:36:05Z</time>
      </trkpt>
      <trkpt lat="48.07675" lon="7.13275">
        <ele>971.8</ele>
        <time>2023-08-12T14:36:06Z</time>
      </trkpt>
      <trkpt lat="48.07672" lon="7.1327">
        <ele>972</ele>
        <time>2023-08-12T14:36:07Z</time>
      </trkpt>
      <trkpt lat="48.07669" lon="7.13266">
        <ele>972.1</ele>
        <time>2023-08-12T14:36:08Z</time>
      </trkpt>
      <trkpt lat="48.07667" lon="7.13262">
        <ele>972.2</ele>
        <time>2023-08-12T14:36:09Z</time>
      </trkpt>
      <trkpt lat="48.07664" lon="7.13259">
        <ele>972.3</ele>
        <time>2023-08-12T14:36:10Z</time>
      </trkpt>
      <trkpt lat="48.07661" lon="7.13255">
        <ele>972.4</ele>
        <time>2023-08-12T14:36:11Z</time>
      </trkpt>
      <trkpt lat="48.07659" lon="7.13254">
        <ele>972.5</ele>
        <time>2023-08-12T14:36:12Z</time>
      </trkpt>
      <trkpt lat="48.07655" lon="7.13253">
        <ele>972.6</ele>
        <time>2023-08-12T14:36:13Z</time>
      </trkpt>
      <trkpt lat="48.07652" lon="7.13252">
        <ele>972.7</ele>
        <time>2023-08-12T14:36:14Z</time>
      </trkpt>
      <trkpt lat="48.07649" lon="7.13249">
        <ele>972.8</ele>
        <time>2023-08-12T14:36:15Z</time>
      </trkpt>
      <trkpt lat="48.07646" lon="7.13245">
        <ele>973</ele>
        <time>2023-08-12T14:36:16Z</time>
      </trkpt>
      <trkpt lat="48.07644" lon="7.13242">
        <ele>973.1</ele>
        <time>2023-08-12T14:36:17Z</time>
      </trkpt>
      <trkpt lat="48.0764" lon="7.13239">
        <ele>973.3</ele>
        <time>2023-08-12T14:36:18Z</time>
      </trkpt>
      <trkpt lat="48.07637" lon="7.13238">
        <ele>973.4</ele>
        <time>2023-08-12T14:36:19Z</time>
      </trkpt>
      <trkpt lat="48.07634" lon="7.13235">
        <ele>973.5</ele>
        <time>2023-08-12T14:36:20Z</time>
      </trkpt>
      <trkpt lat="48.07631" lon="7.13232">
        <ele>973.7</ele>
        <time>2023-08-12T14:36:21Z</time>
      </trkpt>
      <trkpt lat="48.07628" lon="7.1323">
        <ele>973.8</ele>
        <time>2023-08-12T14:36:22Z</time>
      </trkpt>
      <trkpt lat="48.07627" lon="7.13228">
        <ele>973.9</ele>
        <time>2023-08-12T14:36:23Z</time>
      </trkpt>
      <trkpt lat="48.07625" lon="7.13225">
        <ele>974</ele>
        <time>2023-08-12T14:36:24Z</time>
      </trkpt>
      <trkpt lat="48.07623" lon="7.13222">
        <ele>974.1</ele>
        <time>2023-08-12T14:36:25Z</time>
      </trkpt>
      <trkpt lat="48.0762" lon="7.13219">
        <ele>974.3</ele>
        <time>2023-08-12T14:36:26Z</time>
      </trkpt>
      <trkpt lat="48.07617" lon="7.13217">
        <ele>974.4</ele>
        <time>2023-08-12T14:36:27Z</time>
      </trkpt>
      <trkpt lat="48.07615" lon="7.13215">
        <ele>974.5</ele>
        <time>2023-08-12T14:36:28Z</time>
      </trkpt>
      <trkpt lat="48.07612" lon="7.13214">
        <ele>974.6</ele>
        <time>2023-08-12T14:36:29Z</time>
      </trkpt>
      <trkpt lat="48.0761" lon="7.13215">
        <ele>974.7</ele>
        <time>2023-08-12T14:36:30Z</time>
      </trkpt>
      <trkpt lat="48.07607" lon="7.13217">
        <ele>974.8</ele>
        <time>2023-08-12T14:36:31Z</time>
      </trkpt>
      <trkpt lat="48.07605" lon="7.13218">
        <ele>974.9</ele>
        <time>2023-08-12T14:36:32Z</time>
      </trkpt>
      <trkpt lat="48.07602" lon="7.13219">
        <ele>974.9</ele>
        <time>2023-08-12T14:36:33Z</time>
      </trkpt>
      <trkpt lat="48.07599" lon="7.1322">
        <ele>975</ele>
        <time>2023-08-12T14:36:34Z</time>
      </trkpt>
      <trkpt lat="48.07596" lon="7.13221">
        <ele>975.1</ele>
        <time>2023-08-12T14:36:35Z</time>
      </trkpt>
      <trkpt lat="48.07592" lon="7.13223">
        <ele>975.1</ele>
        <time>2023-08-12T14:36:36Z</time>
      </trkpt>
      <trkpt lat="48.0759" lon="7.13224">
        <ele>975.2</ele>
        <time>2023-08-12T14:36:37Z</time>
      </trkpt>
      <trkpt lat="48.07587" lon="7.13226">
        <ele>975.2</ele>
        <time>2023-08-12T14:36:38Z</time>
      </trkpt>
      <trkpt lat="48.07583" lon="7.13228">
        <ele>975.3</ele>
        <time>2023-08-12T14:36:39Z</time>
      </trkpt>
      <trkpt lat="48.0758" lon="7.13231">
        <ele>975.4</ele>
        <time>2023-08-12T14:36:40Z</time>
      </trkpt>
      <trkpt lat="48.07578" lon="7.13233">
        <ele>975.4</ele>
        <time>2023-08-12T14:36:41Z</time>
      </trkpt>
      <trkpt lat="48.07576" lon="7.13234">
        <ele>975.5</ele>
        <time>2023-08-12T14:36:42Z</time>
      </trkpt>
      <trkpt lat="48.07574" lon="7.13234">
        <ele>975.5</ele>
        <time>2023-08-12T14:36:43Z</time>
      </trkpt>
      <trkpt lat="48.0757" lon="7.13233">
        <ele>975.7</ele>
        <time>2023-08-12T14:36:44Z</time>
      </trkpt>
      <trkpt lat="48.07567" lon="7.13232">
        <ele>975.8</ele>
        <time>2023-08-12T14:36:45Z</time>
      </trkpt>
      <trkpt lat="48.07565" lon="7.13232">
        <ele>975.9</ele>
        <time>2023-08-12T14:36:46Z</time>
      </trkpt>
      <trkpt lat="48.07562" lon="7.13232">
        <ele>976.1</ele>
        <time>2023-08-12T14:36:47Z</time>
      </trkpt>
      <trkpt lat="48.07559" lon="7.13232">
        <ele>976.2</ele>
        <time>2023-08-12T14:36:48Z</time>
      </trkpt>
      <trkpt lat="48.07556" lon="7.13231">
        <ele>976.4</ele>
        <time>2023-08-12T14:36:49Z</time>
      </trkpt>
      <trkpt lat="48.07554" lon="7.13228">
        <ele>976.5</ele>
        <time>2023-08-12T14:36:50Z</time>
      </trkpt>
      <trkpt lat="48.07552" lon="7.13228">
        <ele>976.6</ele>
        <time>2023-08-12T14:36:51Z</time>
      </trkpt>
      <trkpt lat="48.07551" lon="7.13226">
        <ele>976.7</ele>
        <time>2023-08-12T14:36:52Z</time>
      </trkpt>
      <trkpt lat="48.0755" lon="7.13225">
        <ele>976.8</ele>
        <time>2023-08-12T14:36:53Z</time>
      </trkpt>
      <trkpt lat="48.0755" lon="7.13222">
        <ele>976.8</ele>
        <time>2023-08-12T14:36:54Z</time>
      </trkpt>
      <trkpt lat="48.07549" lon="7.1322">
        <ele>976.9</ele>
        <time>2023-08-12T14:36:55Z</time>
      </trkpt>
      <trkpt lat="48.07548" lon="7.13216">
        <ele>977</ele>
        <time>2023-08-12T14:36:56Z</time>
      </trkpt>
      <trkpt lat="48.07546" lon="7.13213">
        <ele>977.1</ele>
        <time>2023-08-12T14:36:57Z</time>
      </trkpt>
      <trkpt lat="48.07542" lon="7.13212">
        <ele>977.2</ele>
        <time>2023-08-12T14:36:58Z</time>
      </trkpt>
      <trkpt lat="48.0754" lon="7.1321">
        <ele>977.3</ele>
        <time>2023-08-12T14:36:59Z</time>
      </trkpt>
      <trkpt lat="48.07538" lon="7.1321">
        <ele>977.4</ele>
        <time>2023-08-12T14:37:00Z</time>
      </trkpt>
      <trkpt lat="48.07537" lon="7.13209">
        <ele>977.4</ele>
        <time>2023-08-12T14:37:01Z</time>
      </trkpt>
      <trkpt lat="48.07533" lon="7.13208">
        <ele>977.6</ele>
        <time>2023-08-12T14:37:02Z</time>
      </trkpt>
      <trkpt lat="48.07529" lon="7.13206">
        <ele>977.8</ele>
        <time>2023-08-12T14:37:03Z</time>
      </trkpt>
      <trkpt lat="48.07527" lon="7.13205">
        <ele>978</ele>
        <time>2023-08-12T14:37:04Z</time>
      </trkpt>
      <trkpt lat="48.07525" lon="7.13203">
        <ele>978.1</ele>
        <time>2023-08-12T14:37:05Z</time>
      </trkpt>
      <trkpt lat="48.07524" lon="7.13201">
        <ele>978.3</ele>
        <time>2023-08-12T14:37:06Z</time>
      </trkpt>
      <trkpt lat="48.07522" lon="7.13199">
        <ele>978.4</ele>
        <time>2023-08-12T14:37:07Z</time>
      </trkpt>
      <trkpt lat="48.07521" lon="7.13198">
        <ele>978.5</ele>
        <time>2023-08-12T14:37:08Z</time>
      </trkpt>
      <trkpt lat="48.0752" lon="7.13197">
        <ele>978.6</ele>
        <time>2023-08-12T14:37:09Z</time>
      </trkpt>
      <trkpt lat="48.07518" lon="7.13196">
        <ele>978.7</ele>
        <time>2023-08-12T14:37:10Z</time>
      </trkpt>
      <trkpt lat="48.07516" lon="7.13196">
        <ele>978.8</ele>
        <time>2023-08-12T14:37:11Z</time>
      </trkpt>
      <trkpt lat="48.07514" lon="7.13195">
        <ele>979</ele>
        <time>2023-08-12T14:37:12Z</time>
      </trkpt>
      <trkpt lat="48.07511" lon="7.13194">
        <ele>979.2</ele>
        <time>2023-08-12T14:37:13Z</time>
      </trkpt>
      <trkpt lat="48.07508" lon="7.13191">
        <ele>979.4</ele>
        <time>2023-08-12T14:37:14Z</time>
      </trkpt>
      <trkpt lat="48.07506" lon="7.13189">
        <ele>979.6</ele>
        <time>2023-08-12T14:37:15Z</time>
      </trkpt>
      <trkpt lat="48.07503" lon="7.13188">
        <ele>979.8</ele>
        <time>2023-08-12T14:37:16Z</time>
      </trkpt>
      <trkpt lat="48.075" lon="7.13188">
        <ele>980</ele>
        <time>2023-08-12T14:37:17Z</time>
      </trkpt>
      <trkpt lat="48.07498" lon="7.13188">
        <ele>980.2</ele>
        <time>2023-08-12T14:37:18Z</time>
      </trkpt>
      <trkpt lat="48.07497" lon="7.13187">
        <ele>980.3</ele>
        <time>2023-08-12T14:37:19Z</time>
      </trkpt>
      <trkpt lat="48.07495" lon="7.13187">
        <ele>980.4</ele>
        <time>2023-08-12T14:37:20Z</time>
      </trkpt>
      <trkpt lat="48.07493" lon="7.13186">
        <ele>980.5</ele>
        <time>2023-08-12T14:37:21Z</time>
      </trkpt>
      <trkpt lat="48.07492" lon="7.13185">
        <ele>980.6</ele>
        <time>2023-08-12T14:37:22Z</time>
      </trkpt>
      <trkpt lat="48.07489" lon="7.13184">
        <ele>980.8</ele>
        <time>2023-08-12T14:37:23Z</time>
      </trkpt>
      <trkpt lat="48.07487" lon="7.13183">
        <ele>980.8</ele>
        <time>2023-08-12T14:37:24Z</time>
      </trkpt>
      <trkpt lat="48.07484" lon="7.1318">
        <ele>980.8</ele>
        <time>2023-08-12T14:37:25Z</time>
      </trkpt>
      <trkpt lat="48.0748" lon="7.13178">
        <ele>980.9</ele>
        <time>2023-08-12T14:37:26Z</time>
      </trkpt>
      <trkpt lat="48.07476" lon="7.13175">
        <ele>980.9</ele>
        <time>2023-08-12T14:37:27Z</time>
      </trkpt>
      <trkpt lat="48.07473" lon="7.13174">
        <ele>980.8</ele>
        <time>2023-08-12T14:37:28Z</time>
      </trkpt>
      <trkpt lat="48.0747" lon="7.1317">
        <ele>980.8</ele>
        <time>2023-08-12T14:37:29Z</time>
      </trkpt>
      <trkpt lat="48.07469" lon="7.13169">
        <ele>980.8</ele>
        <time>2023-08-12T14:37:30Z</time>
      </trkpt>
      <trkpt lat="48.07469" lon="7.13169">
        <ele>980.8</ele>
        <time>2023-08-12T14:37:31Z</time>
      </trkpt>
      <trkpt lat="48.07469" lon="7.13169">
        <ele>980.8</ele>
        <time>2023-08-12T14:37:34Z</time>
      </trkpt>
      <trkpt lat="48.07469" lon="7.13169">
        <ele>980.8</ele>
        <time>2023-08-12T14:37:37Z</time>
      </trkpt>
      <trkpt lat="48.07469" lon="7.13169">
        <ele>980.8</ele>
        <time>2023-08-12T14:37:40Z</time>
      </trkpt>
      <trkpt lat="48.07469" lon="7.13169">
        <ele>980.8</ele>
        <time>2023-08-12T14:37:43Z</time>
      </trkpt>
      <trkpt lat="48.07469" lon="7.13169">
        <ele>980.8</ele>
        <time>2023-08-12T14:37:46Z</time>
      </trkpt>
      <trkpt lat="48.07469" lon="7.13169">
        <ele>980.8</ele>
        <time>2023-08-12T14:37:48Z</time>
      </trkpt>
      <trkpt lat="48.07469" lon="7.13169">
        <ele>980.8</ele>
        <time>2023-08-12T14:37:51Z</time>
      </trkpt>
      <trkpt lat="48.07469" lon="7.13169">
        <ele>980.8</ele>
        <time>2023-08-12T14:37:53Z</time>
      </trkpt>
      <trkpt lat="48.07469" lon="7.13169">
        <ele>980.8</ele>
        <time>2023-08-12T14:37:59Z</time>
      </trkpt>
      <trkpt lat="48.07469" lon="7.13169">
        <ele>980.8</ele>
        <time>2023-08-12T14:38:04Z</time>
      </trkpt>
      <trkpt lat="48.07469" lon="7.13169">
        <ele>980.8</ele>
        <time>2023-08-12T14:38:08Z</time>
      </trkpt>
      <trkpt lat="48.07469" lon="7.13169">
        <ele>980.8</ele>
        <time>2023-08-12T14:38:11Z</time>
      </trkpt>
      <trkpt lat="48.07469" lon="7.13169">
        <ele>980.8</ele>
        <time>2023-08-12T14:38:15Z</time>
      </trkpt>
      <trkpt lat="48.07469" lon="7.13169">
        <ele>980.8</ele>
        <time>2023-08-12T14:38:19Z</time>
      </trkpt>
      <trkpt lat="48.07469" lon="7.13169">
        <ele>980.8</ele>
        <time>2023-08-12T14:38:23Z</time>
      </trkpt>
      <trkpt lat="48.07469" lon="7.13169">
        <ele>980.8</ele>
        <time>2023-08-12T14:38:25Z</time>
      </trkpt>
      <trkpt lat="48.07469" lon="7.13169">
        <ele>980.8</ele>
        <time>2023-08-12T14:38:26Z</time>
      </trkpt>
      <trkpt lat="48.07469" lon="7.13169">
        <ele>980.8</ele>
        <time>2023-08-12T14:38:30Z</time>
      </trkpt>
      <trkpt lat="48.07469" lon="7.13169">
        <ele>980.8</ele>
        <time>2023-08-12T14:38:33Z</time>
      </trkpt>
      <trkpt lat="48.07469" lon="7.13169">
        <ele>980.8</ele>
        <time>2023-08-12T14:38:34Z</time>
      </trkpt>
      <trkpt lat="48.07469" lon="7.13169">
        <ele>980.8</ele>
        <time>2023-08-12T14:38:38Z</time>
      </trkpt>
      <trkpt lat="48.07469" lon="7.13169">
        <ele>980.8</ele>
        <time>2023-08-12T14:38:42Z</time>
      </trkpt>
      <trkpt lat="48.07469" lon="7.13169">
        <ele>980.8</ele>
        <time>2023-08-12T14:38:45Z</time>
      </trkpt>
      <trkpt lat="48.07469" lon="7.13169">
        <ele>980.8</ele>
        <time>2023-08-12T14:38:50Z</time>
      </trkpt>
      <trkpt lat="48.07469" lon="7.13169">
        <ele>980.8</ele>
        <time>2023-08-12T14:38:51Z</time>
      </trkpt>
      <trkpt lat="48.07467" lon="7.13165">
        <ele>980.6</ele>
        <time>2023-08-12T14:38:52Z</time>
      </trkpt>
      <trkpt lat="48.07465" lon="7.13161">
        <ele>980.4</ele>
        <time>2023-08-12T14:38:53Z</time>
      </trkpt>
      <trkpt lat="48.07463" lon="7.13157">
        <ele>980.1</ele>
        <time>2023-08-12T14:38:54Z</time>
      </trkpt>
      <trkpt lat="48.0746" lon="7.13152">
        <ele>979.7</ele>
        <time>2023-08-12T14:38:55Z</time>
      </trkpt>
      <trkpt lat="48.07458" lon="7.13146">
        <ele>979.1</ele>
        <time>2023-08-12T14:38:56Z</time>
      </trkpt>
      <trkpt lat="48.07457" lon="7.1314">
        <ele>978.6</ele>
        <time>2023-08-12T14:38:57Z</time>
      </trkpt>
      <trkpt lat="48.07457" lon="7.13136">
        <ele>978.2</ele>
        <time>2023-08-12T14:38:58Z</time>
      </trkpt>
      <trkpt lat="48.07458" lon="7.13133">
        <ele>977.9</ele>
        <time>2023-08-12T14:38:59Z</time>
      </trkpt>
      <trkpt lat="48.07458" lon="7.13128">
        <ele>977.4</ele>
        <time>2023-08-12T14:39:00Z</time>
      </trkpt>
      <trkpt lat="48.07459" lon="7.13124">
        <ele>976.8</ele>
        <time>2023-08-12T14:39:01Z</time>
      </trkpt>
      <trkpt lat="48.07459" lon="7.13117">
        <ele>976.1</ele>
        <time>2023-08-12T14:39:02Z</time>
      </trkpt>
      <trkpt lat="48.0746" lon="7.13109">
        <ele>975.1</ele>
        <time>2023-08-12T14:39:03Z</time>
      </trkpt>
      <trkpt lat="48.07459" lon="7.13101">
        <ele>974.2</ele>
        <time>2023-08-12T14:39:04Z</time>
      </trkpt>
      <trkpt lat="48.07456" lon="7.13092">
        <ele>973.1</ele>
        <time>2023-08-12T14:39:05Z</time>
      </trkpt>
      <trkpt lat="48.07452" lon="7.13086">
        <ele>972.2</ele>
        <time>2023-08-12T14:39:06Z</time>
      </trkpt>
      <trkpt lat="48.07447" lon="7.13083">
        <ele>971.2</ele>
        <time>2023-08-12T14:39:07Z</time>
      </trkpt>
      <trkpt lat="48.07443" lon="7.13081">
        <ele>970.4</ele>
        <time>2023-08-12T14:39:08Z</time>
      </trkpt>
      <trkpt lat="48.0744" lon="7.13078">
        <ele>969.7</ele>
        <time>2023-08-12T14:39:09Z</time>
      </trkpt>
      <trkpt lat="48.07438" lon="7.13074">
        <ele>969</ele>
        <time>2023-08-12T14:39:10Z</time>
      </trkpt>
      <trkpt lat="48.07434" lon="7.13072">
        <ele>968.2</ele>
        <time>2023-08-12T14:39:11Z</time>
      </trkpt>
      <trkpt lat="48.07429" lon="7.1307">
        <ele>967.2</ele>
        <time>2023-08-12T14:39:12Z</time>
      </trkpt>
      <trkpt lat="48.07424" lon="7.13068">
        <ele>965.9</ele>
        <time>2023-08-12T14:39:13Z</time>
      </trkpt>
      <trkpt lat="48.07421" lon="7.13065">
        <ele>964.9</ele>
        <time>2023-08-12T14:39:14Z</time>
      </trkpt>
      <trkpt lat="48.07419" lon="7.13061">
        <ele>964.1</ele>
        <time>2023-08-12T14:39:15Z</time>
      </trkpt>
      <trkpt lat="48.07415" lon="7.13057">
        <ele>962.9</ele>
        <time>2023-08-12T14:39:16Z</time>
      </trkpt>
      <trkpt lat="48.07413" lon="7.13057">
        <ele>962.3</ele>
        <time>2023-08-12T14:39:17Z</time>
      </trkpt>
      <trkpt lat="48.07409" lon="7.13057">
        <ele>961</ele>
        <time>2023-08-12T14:39:18Z</time>
      </trkpt>
      <trkpt lat="48.07407" lon="7.13056">
        <ele>960.6</ele>
        <time>2023-08-12T14:39:19Z</time>
      </trkpt>
      <trkpt lat="48.07406" lon="7.13053">
        <ele>960</ele>
        <time>2023-08-12T14:39:20Z</time>
      </trkpt>
      <trkpt lat="48.07404" lon="7.13048">
        <ele>958.9</ele>
        <time>2023-08-12T14:39:21Z</time>
      </trkpt>
      <trkpt lat="48.07402" lon="7.13046">
        <ele>958.1</ele>
        <time>2023-08-12T14:39:22Z</time>
      </trkpt>
      <trkpt lat="48.07399" lon="7.13043">
        <ele>957.3</ele>
        <time>2023-08-12T14:39:23Z</time>
      </trkpt>
      <trkpt lat="48.07395" lon="7.1304">
        <ele>956.1</ele>
        <time>2023-08-12T14:39:24Z</time>
      </trkpt>
      <trkpt lat="48.0739" lon="7.13037">
        <ele>954.7</ele>
        <time>2023-08-12T14:39:25Z</time>
      </trkpt>
      <trkpt lat="48.07385" lon="7.13035">
        <ele>953.4</ele>
        <time>2023-08-12T14:39:26Z</time>
      </trkpt>
      <trkpt lat="48.07379" lon="7.13033">
        <ele>951.9</ele>
        <time>2023-08-12T14:39:27Z</time>
      </trkpt>
      <trkpt lat="48.07374" lon="7.13032">
        <ele>950.8</ele>
        <time>2023-08-12T14:39:28Z</time>
      </trkpt>
      <trkpt lat="48.07368" lon="7.13032">
        <ele>949.7</ele>
        <time>2023-08-12T14:39:29Z</time>
      </trkpt>
      <trkpt lat="48.07362" lon="7.13033">
        <ele>948.4</ele>
        <time>2023-08-12T14:39:30Z</time>
      </trkpt>
      <trkpt lat="48.07356" lon="7.13032">
        <ele>947.5</ele>
        <time>2023-08-12T14:39:31Z</time>
      </trkpt>
      <trkpt lat="48.0735" lon="7.13032">
        <ele>946.5</ele>
        <time>2023-08-12T14:39:32Z</time>
      </trkpt>
      <trkpt lat="48.07345" lon="7.1303">
        <ele>945.8</ele>
        <time>2023-08-12T14:39:33Z</time>
      </trkpt>
      <trkpt lat="48.0734" lon="7.13028">
        <ele>944.9</ele>
        <time>2023-08-12T14:39:34Z</time>
      </trkpt>
      <trkpt lat="48.07332" lon="7.13025">
        <ele>943.4</ele>
        <time>2023-08-12T14:39:35Z</time>
      </trkpt>
      <trkpt lat="48.07325" lon="7.13025">
        <ele>942.2</ele>
        <time>2023-08-12T14:39:36Z</time>
      </trkpt>
      <trkpt lat="48.07318" lon="7.13028">
        <ele>940.8</ele>
        <time>2023-08-12T14:39:37Z</time>
      </trkpt>
      <trkpt lat="48.07312" lon="7.13033">
        <ele>940.1</ele>
        <time>2023-08-12T14:39:38Z</time>
      </trkpt>
      <trkpt lat="48.07308" lon="7.13035">
        <ele>939.1</ele>
        <time>2023-08-12T14:39:39Z</time>
      </trkpt>
      <trkpt lat="48.07307" lon="7.13037">
        <ele>938.8</ele>
        <time>2023-08-12T14:39:40Z</time>
      </trkpt>
      <trkpt lat="48.07305" lon="7.13038">
        <ele>938.4</ele>
        <time>2023-08-12T14:39:41Z</time>
      </trkpt>
      <trkpt lat="48.073" lon="7.13038">
        <ele>937.2</ele>
        <time>2023-08-12T14:39:42Z</time>
      </trkpt>
      <trkpt lat="48.07296" lon="7.13036">
        <ele>936.3</ele>
        <time>2023-08-12T14:39:43Z</time>
      </trkpt>
      <trkpt lat="48.07292" lon="7.13035">
        <ele>935.4</ele>
        <time>2023-08-12T14:39:44Z</time>
      </trkpt>
      <trkpt lat="48.0729" lon="7.13034">
        <ele>934.9</ele>
        <time>2023-08-12T14:39:45Z</time>
      </trkpt>
      <trkpt lat="48.07288" lon="7.13032">
        <ele>934.4</ele>
        <time>2023-08-12T14:39:46Z</time>
      </trkpt>
      <trkpt lat="48.07285" lon="7.1303">
        <ele>933.8</ele>
        <time>2023-08-12T14:39:47Z</time>
      </trkpt>
      <trkpt lat="48.07281" lon="7.13029">
        <ele>932.9</ele>
        <time>2023-08-12T14:39:48Z</time>
      </trkpt>
      <trkpt lat="48.07279" lon="7.13028">
        <ele>932.6</ele>
        <time>2023-08-12T14:39:49Z</time>
      </trkpt>
      <trkpt lat="48.07275" lon="7.13025">
        <ele>931.8</ele>
        <time>2023-08-12T14:39:50Z</time>
      </trkpt>
      <trkpt lat="48.07268" lon="7.13021">
        <ele>930.7</ele>
        <time>2023-08-12T14:39:51Z</time>
      </trkpt>
      <trkpt lat="48.07262" lon="7.1302">
        <ele>929.9</ele>
        <time>2023-08-12T14:39:52Z</time>
      </trkpt>
      <trkpt lat="48.07257" lon="7.13017">
        <ele>929.2</ele>
        <time>2023-08-12T14:39:53Z</time>
      </trkpt>
      <trkpt lat="48.07251" lon="7.13015">
        <ele>928.4</ele>
        <time>2023-08-12T14:39:54Z</time>
      </trkpt>
      <trkpt lat="48.07246" lon="7.13012">
        <ele>927.6</ele>
        <time>2023-08-12T14:39:55Z</time>
      </trkpt>
      <trkpt lat="48.0724" lon="7.1301">
        <ele>926.7</ele>
        <time>2023-08-12T14:39:56Z</time>
      </trkpt>
      <trkpt lat="48.07235" lon="7.1301">
        <ele>925.8</ele>
        <time>2023-08-12T14:39:57Z</time>
      </trkpt>
      <trkpt lat="48.07229" lon="7.13009">
        <ele>924.4</ele>
        <time>2023-08-12T14:39:58Z</time>
      </trkpt>
      <trkpt lat="48.07226" lon="7.13009">
        <ele>923.7</ele>
        <time>2023-08-12T14:39:59Z</time>
      </trkpt>
      <trkpt lat="48.07223" lon="7.13008">
        <ele>923</ele>
        <time>2023-08-12T14:40:00Z</time>
      </trkpt>
      <trkpt lat="48.07222" lon="7.13006">
        <ele>922.6</ele>
        <time>2023-08-12T14:40:01Z</time>
      </trkpt>
      <trkpt lat="48.07222" lon="7.13004">
        <ele>922.2</ele>
        <time>2023-08-12T14:40:02Z</time>
      </trkpt>
      <trkpt lat="48.07221" lon="7.13001">
        <ele>921.8</ele>
        <time>2023-08-12T14:40:03Z</time>
      </trkpt>
      <trkpt lat="48.0722" lon="7.12997">
        <ele>921</ele>
        <time>2023-08-12T14:40:04Z</time>
      </trkpt>
      <trkpt lat="48.07219" lon="7.12993">
        <ele>920.2</ele>
        <time>2023-08-12T14:40:05Z</time>
      </trkpt>
      <trkpt lat="48.07218" lon="7.12989">
        <ele>919.4</ele>
        <time>2023-08-12T14:40:06Z</time>
      </trkpt>
      <trkpt lat="48.07217" lon="7.12985">
        <ele>918.4</ele>
        <time>2023-08-12T14:40:07Z</time>
      </trkpt>
      <trkpt lat="48.07216" lon="7.12981">
        <ele>917.6</ele>
        <time>2023-08-12T14:40:08Z</time>
      </trkpt>
      <trkpt lat="48.07215" lon="7.12977">
        <ele>917</ele>
        <time>2023-08-12T14:40:09Z</time>
      </trkpt>
      <trkpt lat="48.07215" lon="7.12974">
        <ele>916.4</ele>
        <time>2023-08-12T14:40:10Z</time>
      </trkpt>
      <trkpt lat="48.07214" lon="7.12971">
        <ele>915.8</ele>
        <time>2023-08-12T14:40:11Z</time>
      </trkpt>
      <trkpt lat="48.07212" lon="7.12968">
        <ele>914.8</ele>
        <time>2023-08-12T14:40:12Z</time>
      </trkpt>
      <trkpt lat="48.0721" lon="7.12965">
        <ele>913.9</ele>
        <time>2023-08-12T14:40:13Z</time>
      </trkpt>
      <trkpt lat="48.07206" lon="7.12961">
        <ele>912.8</ele>
        <time>2023-08-12T14:40:14Z</time>
      </trkpt>
      <trkpt lat="48.072" lon="7.12955">
        <ele>910.8</ele>
        <time>2023-08-12T14:40:16Z</time>
      </trkpt>
      <trkpt lat="48.07195" lon="7.12946">
        <ele>908.9</ele>
        <time>2023-08-12T14:40:18Z</time>
      </trkpt>
      <trkpt lat="48.07192" lon="7.12943">
        <ele>908</ele>
        <time>2023-08-12T14:40:19Z</time>
      </trkpt>
      <trkpt lat="48.07182" lon="7.12938">
        <ele>905.9</ele>
        <time>2023-08-12T14:40:21Z</time>
      </trkpt>
      <trkpt lat="48.07178" lon="7.12936">
        <ele>904.9</ele>
        <time>2023-08-12T14:40:22Z</time>
      </trkpt>
      <trkpt lat="48.07173" lon="7.12932">
        <ele>904</ele>
        <time>2023-08-12T14:40:23Z</time>
      </trkpt>
      <trkpt lat="48.07164" lon="7.12927">
        <ele>902.4</ele>
        <time>2023-08-12T14:40:24Z</time>
      </trkpt>
      <trkpt lat="48.07158" lon="7.12925">
        <ele>901.5</ele>
        <time>2023-08-12T14:40:25Z</time>
      </trkpt>
      <trkpt lat="48.07144" lon="7.1292">
        <ele>899.9</ele>
        <time>2023-08-12T14:40:27Z</time>
      </trkpt>
      <trkpt lat="48.07138" lon="7.12919">
        <ele>899.4</ele>
        <time>2023-08-12T14:40:28Z</time>
      </trkpt>
      <trkpt lat="48.07132" lon="7.1292">
        <ele>898.8</ele>
        <time>2023-08-12T14:40:29Z</time>
      </trkpt>
      <trkpt lat="48.07127" lon="7.12921">
        <ele>898.5</ele>
        <time>2023-08-12T14:40:30Z</time>
      </trkpt>
      <trkpt lat="48.07123" lon="7.1292">
        <ele>898.2</ele>
        <time>2023-08-12T14:40:31Z</time>
      </trkpt>
      <trkpt lat="48.07119" lon="7.1292">
        <ele>897.9</ele>
        <time>2023-08-12T14:40:32Z</time>
      </trkpt>
      <trkpt lat="48.07115" lon="7.12919">
        <ele>897.7</ele>
        <time>2023-08-12T14:40:33Z</time>
      </trkpt>
      <trkpt lat="48.07111" lon="7.12917">
        <ele>897.4</ele>
        <time>2023-08-12T14:40:34Z</time>
      </trkpt>
      <trkpt lat="48.07106" lon="7.12916">
        <ele>897.2</ele>
        <time>2023-08-12T14:40:35Z</time>
      </trkpt>
      <trkpt lat="48.07102" lon="7.12916">
        <ele>897</ele>
        <time>2023-08-12T14:40:36Z</time>
      </trkpt>
      <trkpt lat="48.07098" lon="7.12916">
        <ele>896.8</ele>
        <time>2023-08-12T14:40:37Z</time>
      </trkpt>
      <trkpt lat="48.07089" lon="7.12918">
        <ele>896.6</ele>
        <time>2023-08-12T14:40:39Z</time>
      </trkpt>
      <trkpt lat="48.07086" lon="7.12919">
        <ele>896.6</ele>
        <time>2023-08-12T14:40:40Z</time>
      </trkpt>
      <trkpt lat="48.07082" lon="7.1292">
        <ele>896.6</ele>
        <time>2023-08-12T14:40:41Z</time>
      </trkpt>
      <trkpt lat="48.07079" lon="7.12922">
        <ele>896.6</ele>
        <time>2023-08-12T14:40:42Z</time>
      </trkpt>
      <trkpt lat="48.07077" lon="7.12923">
        <ele>896.6</ele>
        <time>2023-08-12T14:40:43Z</time>
      </trkpt>
      <trkpt lat="48.07074" lon="7.12924">
        <ele>896.5</ele>
        <time>2023-08-12T14:40:44Z</time>
      </trkpt>
      <trkpt lat="48.07071" lon="7.12924">
        <ele>896.5</ele>
        <time>2023-08-12T14:40:45Z</time>
      </trkpt>
      <trkpt lat="48.07054" lon="7.12922">
        <ele>896.1</ele>
        <time>2023-08-12T14:40:50Z</time>
      </trkpt>
      <trkpt lat="48.07046" lon="7.12917">
        <ele>895.6</ele>
        <time>2023-08-12T14:40:52Z</time>
      </trkpt>
      <trkpt lat="48.07035" lon="7.12907">
        <ele>894.3</ele>
        <time>2023-08-12T14:40:54Z</time>
      </trkpt>
      <trkpt lat="48.07021" lon="7.12896">
        <ele>892.3</ele>
        <time>2023-08-12T14:40:56Z</time>
      </trkpt>
      <trkpt lat="48.07016" lon="7.12889">
        <ele>891.3</ele>
        <time>2023-08-12T14:40:57Z</time>
      </trkpt>
      <trkpt lat="48.07011" lon="7.12883">
        <ele>890.5</ele>
        <time>2023-08-12T14:40:58Z</time>
      </trkpt>
      <trkpt lat="48.07005" lon="7.12877">
        <ele>889.5</ele>
        <time>2023-08-12T14:40:59Z</time>
      </trkpt>
      <trkpt lat="48.06999" lon="7.12873">
        <ele>888.5</ele>
        <time>2023-08-12T14:41:00Z</time>
      </trkpt>
      <trkpt lat="48.06992" lon="7.12869">
        <ele>887.2</ele>
        <time>2023-08-12T14:41:01Z</time>
      </trkpt>
      <trkpt lat="48.06986" lon="7.12866">
        <ele>886.1</ele>
        <time>2023-08-12T14:41:02Z</time>
      </trkpt>
      <trkpt lat="48.06983" lon="7.12862">
        <ele>885.3</ele>
        <time>2023-08-12T14:41:03Z</time>
      </trkpt>
      <trkpt lat="48.0698" lon="7.12856">
        <ele>884</ele>
        <time>2023-08-12T14:41:04Z</time>
      </trkpt>
      <trkpt lat="48.06976" lon="7.12848">
        <ele>882.4</ele>
        <time>2023-08-12T14:41:05Z</time>
      </trkpt>
      <trkpt lat="48.06971" lon="7.12845">
        <ele>881.2</ele>
        <time>2023-08-12T14:41:06Z</time>
      </trkpt>
      <trkpt lat="48.06966" lon="7.12843">
        <ele>879.9</ele>
        <time>2023-08-12T14:41:07Z</time>
      </trkpt>
      <trkpt lat="48.06962" lon="7.1284">
        <ele>878.9</ele>
        <time>2023-08-12T14:41:08Z</time>
      </trkpt>
      <trkpt lat="48.06957" lon="7.12837">
        <ele>877.7</ele>
        <time>2023-08-12T14:41:09Z</time>
      </trkpt>
      <trkpt lat="48.06952" lon="7.12829">
        <ele>876.2</ele>
        <time>2023-08-12T14:41:10Z</time>
      </trkpt>
      <trkpt lat="48.06947" lon="7.12821">
        <ele>874.9</ele>
        <time>2023-08-12T14:41:11Z</time>
      </trkpt>
      <trkpt lat="48.06931" lon="7.12808">
        <ele>871.4</ele>
        <time>2023-08-12T14:41:14Z</time>
      </trkpt>
      <trkpt lat="48.06925" lon="7.12805">
        <ele>870</ele>
        <time>2023-08-12T14:41:15Z</time>
      </trkpt>
      <trkpt lat="48.0692" lon="7.12798">
        <ele>868.4</ele>
        <time>2023-08-12T14:41:16Z</time>
      </trkpt>
      <trkpt lat="48.06915" lon="7.1279">
        <ele>866.8</ele>
        <time>2023-08-12T14:41:17Z</time>
      </trkpt>
      <trkpt lat="48.06911" lon="7.12782">
        <ele>865.4</ele>
        <time>2023-08-12T14:41:18Z</time>
      </trkpt>
      <trkpt lat="48.06907" lon="7.12773">
        <ele>863.9</ele>
        <time>2023-08-12T14:41:19Z</time>
      </trkpt>
      <trkpt lat="48.06901" lon="7.12763">
        <ele>862.1</ele>
        <time>2023-08-12T14:41:20Z</time>
      </trkpt>
      <trkpt lat="48.06889" lon="7.12745">
        <ele>859</ele>
        <time>2023-08-12T14:41:22Z</time>
      </trkpt>
      <trkpt lat="48.06885" lon="7.12738">
        <ele>857.7</ele>
        <time>2023-08-12T14:41:23Z</time>
      </trkpt>
      <trkpt lat="48.06879" lon="7.1273">
        <ele>856.2</ele>
        <time>2023-08-12T14:41:24Z</time>
      </trkpt>
      <trkpt lat="48.06871" lon="7.12722">
        <ele>854.6</ele>
        <time>2023-08-12T14:41:25Z</time>
      </trkpt>
      <trkpt lat="48.06865" lon="7.12715">
        <ele>853.3</ele>
        <time>2023-08-12T14:41:26Z</time>
      </trkpt>
      <trkpt lat="48.06862" lon="7.12705">
        <ele>852</ele>
        <time>2023-08-12T14:41:27Z</time>
      </trkpt>
      <trkpt lat="48.06859" lon="7.12695">
        <ele>850.7</ele>
        <time>2023-08-12T14:41:28Z</time>
      </trkpt>
      <trkpt lat="48.06856" lon="7.12684">
        <ele>849.4</ele>
        <time>2023-08-12T14:41:29Z</time>
      </trkpt>
      <trkpt lat="48.06852" lon="7.12674">
        <ele>848.2</ele>
        <time>2023-08-12T14:41:30Z</time>
      </trkpt>
      <trkpt lat="48.06846" lon="7.12656">
        <ele>846.4</ele>
        <time>2023-08-12T14:41:32Z</time>
      </trkpt>
      <trkpt lat="48.06839" lon="7.12636">
        <ele>844.5</ele>
        <time>2023-08-12T14:41:34Z</time>
      </trkpt>
      <trkpt lat="48.06834" lon="7.12627">
        <ele>843.5</ele>
        <time>2023-08-12T14:41:35Z</time>
      </trkpt>
      <trkpt lat="48.0683" lon="7.12622">
        <ele>842.9</ele>
        <time>2023-08-12T14:41:36Z</time>
      </trkpt>
      <trkpt lat="48.06825" lon="7.12616">
        <ele>842.1</ele>
        <time>2023-08-12T14:41:37Z</time>
      </trkpt>
      <trkpt lat="48.0682" lon="7.12611">
        <ele>841.3</ele>
        <time>2023-08-12T14:41:38Z</time>
      </trkpt>
      <trkpt lat="48.06815" lon="7.12609">
        <ele>840.6</ele>
        <time>2023-08-12T14:41:39Z</time>
      </trkpt>
      <trkpt lat="48.0681" lon="7.1261">
        <ele>839.8</ele>
        <time>2023-08-12T14:41:40Z</time>
      </trkpt>
      <trkpt lat="48.06805" lon="7.12612">
        <ele>839</ele>
        <time>2023-08-12T14:41:41Z</time>
      </trkpt>
      <trkpt lat="48.068" lon="7.12616">
        <ele>838</ele>
        <time>2023-08-12T14:41:42Z</time>
      </trkpt>
      <trkpt lat="48.06796" lon="7.12623">
        <ele>837</ele>
        <time>2023-08-12T14:41:43Z</time>
      </trkpt>
      <trkpt lat="48.06792" lon="7.12628">
        <ele>836</ele>
        <time>2023-08-12T14:41:44Z</time>
      </trkpt>
      <trkpt lat="48.06781" lon="7.12633">
        <ele>834</ele>
        <time>2023-08-12T14:41:46Z</time>
      </trkpt>
      <trkpt lat="48.06775" lon="7.12635">
        <ele>833</ele>
        <time>2023-08-12T14:41:47Z</time>
      </trkpt>
      <trkpt lat="48.06771" lon="7.12635">
        <ele>832.3</ele>
        <time>2023-08-12T14:41:48Z</time>
      </trkpt>
      <trkpt lat="48.06768" lon="7.12633">
        <ele>831.4</ele>
        <time>2023-08-12T14:41:49Z</time>
      </trkpt>
      <trkpt lat="48.06763" lon="7.12628">
        <ele>830.2</ele>
        <time>2023-08-12T14:41:50Z</time>
      </trkpt>
      <trkpt lat="48.06757" lon="7.12623">
        <ele>828.7</ele>
        <time>2023-08-12T14:41:51Z</time>
      </trkpt>
      <trkpt lat="48.06751" lon="7.12618">
        <ele>827.2</ele>
        <time>2023-08-12T14:41:52Z</time>
      </trkpt>
      <trkpt lat="48.06746" lon="7.12612">
        <ele>825.7</ele>
        <time>2023-08-12T14:41:53Z</time>
      </trkpt>
      <trkpt lat="48.06742" lon="7.12607">
        <ele>823.7</ele>
        <time>2023-08-12T14:41:54Z</time>
      </trkpt>
      <trkpt lat="48.0674" lon="7.12603">
        <ele>822.9</ele>
        <time>2023-08-12T14:41:55Z</time>
      </trkpt>
      <trkpt lat="48.06737" lon="7.12601">
        <ele>822.2</ele>
        <time>2023-08-12T14:41:56Z</time>
      </trkpt>
      <trkpt lat="48.06735" lon="7.12599">
        <ele>816.1</ele>
        <time>2023-08-12T14:41:57Z</time>
      </trkpt>
      <trkpt lat="48.06731" lon="7.12599">
        <ele>816</ele>
        <time>2023-08-12T14:41:58Z</time>
      </trkpt>
      <trkpt lat="48.06729" lon="7.12598">
        <ele>815.9</ele>
        <time>2023-08-12T14:41:59Z</time>
      </trkpt>
      <trkpt lat="48.06727" lon="7.12597">
        <ele>815.8</ele>
        <time>2023-08-12T14:42:00Z</time>
      </trkpt>
      <trkpt lat="48.06727" lon="7.12595">
        <ele>815.8</ele>
        <time>2023-08-12T14:42:01Z</time>
      </trkpt>
      <trkpt lat="48.06727" lon="7.12595">
        <ele>815.8</ele>
        <time>2023-08-12T14:42:02Z</time>
      </trkpt>
      <trkpt lat="48.06727" lon="7.12595">
        <ele>815.8</ele>
        <time>2023-08-12T14:42:03Z</time>
      </trkpt>
      <trkpt lat="48.06727" lon="7.12595">
        <ele>815.8</ele>
        <time>2023-08-12T14:42:04Z</time>
      </trkpt>
      <trkpt lat="48.06727" lon="7.12595">
        <ele>815.8</ele>
        <time>2023-08-12T14:42:05Z</time>
      </trkpt>
      <trkpt lat="48.06727" lon="7.12595">
        <ele>815.8</ele>
        <time>2023-08-12T14:42:08Z</time>
      </trkpt>
      <trkpt lat="48.06727" lon="7.12595">
        <ele>815.8</ele>
        <time>2023-08-12T14:42:12Z</time>
      </trkpt>
      <trkpt lat="48.06727" lon="7.12595">
        <ele>815.8</ele>
        <time>2023-08-12T14:42:15Z</time>
      </trkpt>
      <trkpt lat="48.06727" lon="7.12595">
        <ele>815.8</ele>
        <time>2023-08-12T14:42:18Z</time>
      </trkpt>
      <trkpt lat="48.06727" lon="7.12595">
        <ele>815.8</ele>
        <time>2023-08-12T14:42:21Z</time>
      </trkpt>
      <trkpt lat="48.06727" lon="7.12595">
        <ele>815.8</ele>
        <time>2023-08-12T14:42:24Z</time>
      </trkpt>
      <trkpt lat="48.06725" lon="7.1259">
        <ele>815.7</ele>
        <time>2023-08-12T14:42:26Z</time>
      </trkpt>
      <trkpt lat="48.06723" lon="7.12583">
        <ele>815.3</ele>
        <time>2023-08-12T14:42:27Z</time>
      </trkpt>
      <trkpt lat="48.06718" lon="7.12561">
        <ele>814.5</ele>
        <time>2023-08-12T14:42:30Z</time>
      </trkpt>
      <trkpt lat="48.06714" lon="7.12545">
        <ele>813.8</ele>
        <time>2023-08-12T14:42:32Z</time>
      </trkpt>
      <trkpt lat="48.06713" lon="7.12536">
        <ele>813.5</ele>
        <time>2023-08-12T14:42:33Z</time>
      </trkpt>
      <trkpt lat="48.06707" lon="7.12504">
        <ele>812.3</ele>
        <time>2023-08-12T14:42:36Z</time>
      </trkpt>
      <trkpt lat="48.06702" lon="7.12482">
        <ele>811.5</ele>
        <time>2023-08-12T14:42:38Z</time>
      </trkpt>
      <trkpt lat="48.06698" lon="7.12473">
        <ele>810.7</ele>
        <time>2023-08-12T14:42:39Z</time>
      </trkpt>
      <trkpt lat="48.06694" lon="7.12461">
        <ele>809.8</ele>
        <time>2023-08-12T14:42:40Z</time>
      </trkpt>
      <trkpt lat="48.06683" lon="7.12434">
        <ele>808</ele>
        <time>2023-08-12T14:42:43Z</time>
      </trkpt>
      <trkpt lat="48.06677" lon="7.12424">
        <ele>807.3</ele>
        <time>2023-08-12T14:42:44Z</time>
      </trkpt>
      <trkpt lat="48.0667" lon="7.12416">
        <ele>806.7</ele>
        <time>2023-08-12T14:42:45Z</time>
      </trkpt>
      <trkpt lat="48.06663" lon="7.1241">
        <ele>806.1</ele>
        <time>2023-08-12T14:42:46Z</time>
      </trkpt>
      <trkpt lat="48.06656" lon="7.12406">
        <ele>805.5</ele>
        <time>2023-08-12T14:42:47Z</time>
      </trkpt>
      <trkpt lat="48.06651" lon="7.12403">
        <ele>805.1</ele>
        <time>2023-08-12T14:42:48Z</time>
      </trkpt>
      <trkpt lat="48.06642" lon="7.12399">
        <ele>804.4</ele>
        <time>2023-08-12T14:42:49Z</time>
      </trkpt>
      <trkpt lat="48.06626" lon="7.12391">
        <ele>802.9</ele>
        <time>2023-08-12T14:42:51Z</time>
      </trkpt>
      <trkpt lat="48.06619" lon="7.12391">
        <ele>802.3</ele>
        <time>2023-08-12T14:42:52Z</time>
      </trkpt>
      <trkpt lat="48.06613" lon="7.12393">
        <ele>801.7</ele>
        <time>2023-08-12T14:42:53Z</time>
      </trkpt>
      <trkpt lat="48.06606" lon="7.12397">
        <ele>801.4</ele>
        <time>2023-08-12T14:42:54Z</time>
      </trkpt>
      <trkpt lat="48.06601" lon="7.12402">
        <ele>801.2</ele>
        <time>2023-08-12T14:42:55Z</time>
      </trkpt>
      <trkpt lat="48.06595" lon="7.12407">
        <ele>801</ele>
        <time>2023-08-12T14:42:56Z</time>
      </trkpt>
      <trkpt lat="48.06584" lon="7.1242">
        <ele>800.7</ele>
        <time>2023-08-12T14:42:58Z</time>
      </trkpt>
      <trkpt lat="48.06579" lon="7.12425">
        <ele>800.5</ele>
        <time>2023-08-12T14:42:59Z</time>
      </trkpt>
      <trkpt lat="48.06569" lon="7.12431">
        <ele>800.1</ele>
        <time>2023-08-12T14:43:01Z</time>
      </trkpt>
      <trkpt lat="48.06561" lon="7.12429">
        <ele>799</ele>
        <time>2023-08-12T14:43:02Z</time>
      </trkpt>
      <trkpt lat="48.06555" lon="7.12425">
        <ele>798.4</ele>
        <time>2023-08-12T14:43:03Z</time>
      </trkpt>
      <trkpt lat="48.06545" lon="7.12407">
        <ele>796.9</ele>
        <time>2023-08-12T14:43:05Z</time>
      </trkpt>
      <trkpt lat="48.06539" lon="7.12383">
        <ele>795.4</ele>
        <time>2023-08-12T14:43:07Z</time>
      </trkpt>
      <trkpt lat="48.06537" lon="7.12372">
        <ele>794.6</ele>
        <time>2023-08-12T14:43:08Z</time>
      </trkpt>
      <trkpt lat="48.0653" lon="7.12348">
        <ele>793.2</ele>
        <time>2023-08-12T14:43:10Z</time>
      </trkpt>
      <trkpt lat="48.06516" lon="7.12302">
        <ele>790.4</ele>
        <time>2023-08-12T14:43:14Z</time>
      </trkpt>
      <trkpt lat="48.06511" lon="7.12291">
        <ele>789.5</ele>
        <time>2023-08-12T14:43:15Z</time>
      </trkpt>
      <trkpt lat="48.06504" lon="7.12271">
        <ele>788</ele>
        <time>2023-08-12T14:43:17Z</time>
      </trkpt>
      <trkpt lat="48.06501" lon="7.12263">
        <ele>787.3</ele>
        <time>2023-08-12T14:43:18Z</time>
      </trkpt>
      <trkpt lat="48.06499" lon="7.12257">
        <ele>786.8</ele>
        <time>2023-08-12T14:43:19Z</time>
      </trkpt>
      <trkpt lat="48.06496" lon="7.12251">
        <ele>786.3</ele>
        <time>2023-08-12T14:43:20Z</time>
      </trkpt>
      <trkpt lat="48.06493" lon="7.12246">
        <ele>785.8</ele>
        <time>2023-08-12T14:43:21Z</time>
      </trkpt>
      <trkpt lat="48.06491" lon="7.12243">
        <ele>785.4</ele>
        <time>2023-08-12T14:43:22Z</time>
      </trkpt>
      <trkpt lat="48.06489" lon="7.1224">
        <ele>785.6</ele>
        <time>2023-08-12T14:43:23Z</time>
      </trkpt>
      <trkpt lat="48.06488" lon="7.12237">
        <ele>785.8</ele>
        <time>2023-08-12T14:43:24Z</time>
      </trkpt>
      <trkpt lat="48.06486" lon="7.12233">
        <ele>786.2</ele>
        <time>2023-08-12T14:43:25Z</time>
      </trkpt>
      <trkpt lat="48.06484" lon="7.12229">
        <ele>786.6</ele>
        <time>2023-08-12T14:43:26Z</time>
      </trkpt>
      <trkpt lat="48.06482" lon="7.12227">
        <ele>787.1</ele>
        <time>2023-08-12T14:43:27Z</time>
      </trkpt>
      <trkpt lat="48.06479" lon="7.12225">
        <ele>787.6</ele>
        <time>2023-08-12T14:43:28Z</time>
      </trkpt>
      <trkpt lat="48.06478" lon="7.12223">
        <ele>787.9</ele>
        <time>2023-08-12T14:43:29Z</time>
      </trkpt>
      <trkpt lat="48.06476" lon="7.12221">
        <ele>788.4</ele>
        <time>2023-08-12T14:43:30Z</time>
      </trkpt>
      <trkpt lat="48.06468" lon="7.12217">
        <ele>789.8</ele>
        <time>2023-08-12T14:43:33Z</time>
      </trkpt>
      <trkpt lat="48.06466" lon="7.12214">
        <ele>790.3</ele>
        <time>2023-08-12T14:43:34Z</time>
      </trkpt>
      <trkpt lat="48.06465" lon="7.12208">
        <ele>791</ele>
        <time>2023-08-12T14:43:35Z</time>
      </trkpt>
      <trkpt lat="48.06464" lon="7.12195">
        <ele>791.3</ele>
        <time>2023-08-12T14:43:37Z</time>
      </trkpt>
      <trkpt lat="48.06463" lon="7.1219">
        <ele>791.5</ele>
        <time>2023-08-12T14:43:38Z</time>
      </trkpt>
      <trkpt lat="48.06463" lon="7.12183">
        <ele>791.6</ele>
        <time>2023-08-12T14:43:39Z</time>
      </trkpt>
      <trkpt lat="48.06462" lon="7.12175">
        <ele>791.4</ele>
        <time>2023-08-12T14:43:40Z</time>
      </trkpt>
      <trkpt lat="48.06459" lon="7.12157">
        <ele>790</ele>
        <time>2023-08-12T14:43:42Z</time>
      </trkpt>
      <trkpt lat="48.0646" lon="7.12153">
        <ele>789.3</ele>
        <time>2023-08-12T14:43:43Z</time>
      </trkpt>
      <trkpt lat="48.06461" lon="7.12147">
        <ele>788.2</ele>
        <time>2023-08-12T14:43:44Z</time>
      </trkpt>
      <trkpt lat="48.06463" lon="7.12142">
        <ele>787</ele>
        <time>2023-08-12T14:43:45Z</time>
      </trkpt>
      <trkpt lat="48.06462" lon="7.12136">
        <ele>785.7</ele>
        <time>2023-08-12T14:43:46Z</time>
      </trkpt>
      <trkpt lat="48.0646" lon="7.12131">
        <ele>784.4</ele>
        <time>2023-08-12T14:43:47Z</time>
      </trkpt>
      <trkpt lat="48.06459" lon="7.12128">
        <ele>783.3</ele>
        <time>2023-08-12T14:43:48Z</time>
      </trkpt>
      <trkpt lat="48.06458" lon="7.12125">
        <ele>782.3</ele>
        <time>2023-08-12T14:43:49Z</time>
      </trkpt>
      <trkpt lat="48.06457" lon="7.12122">
        <ele>781.4</ele>
        <time>2023-08-12T14:43:50Z</time>
      </trkpt>
      <trkpt lat="48.06456" lon="7.12117">
        <ele>779.9</ele>
        <time>2023-08-12T14:43:51Z</time>
      </trkpt>
      <trkpt lat="48.06453" lon="7.12088">
        <ele>771.9</ele>
        <time>2023-08-12T14:43:55Z</time>
      </trkpt>
      <trkpt lat="48.06454" lon="7.1208">
        <ele>770</ele>
        <time>2023-08-12T14:43:56Z</time>
      </trkpt>
      <trkpt lat="48.06454" lon="7.12067">
        <ele>767.6</ele>
        <time>2023-08-12T14:43:57Z</time>
      </trkpt>
      <trkpt lat="48.06458" lon="7.12049">
        <ele>764.8</ele>
        <time>2023-08-12T14:43:59Z</time>
      </trkpt>
      <trkpt lat="48.06461" lon="7.12033">
        <ele>762.8</ele>
        <time>2023-08-12T14:44:01Z</time>
      </trkpt>
      <trkpt lat="48.06463" lon="7.12023">
        <ele>761.5</ele>
        <time>2023-08-12T14:44:02Z</time>
      </trkpt>
      <trkpt lat="48.06466" lon="7.12018">
        <ele>760.7</ele>
        <time>2023-08-12T14:44:03Z</time>
      </trkpt>
      <trkpt lat="48.06466" lon="7.12012">
        <ele>759.9</ele>
        <time>2023-08-12T14:44:04Z</time>
      </trkpt>
      <trkpt lat="48.06464" lon="7.12003">
        <ele>758.8</ele>
        <time>2023-08-12T14:44:05Z</time>
      </trkpt>
      <trkpt lat="48.06465" lon="7.11997">
        <ele>758</ele>
        <time>2023-08-12T14:44:06Z</time>
      </trkpt>
      <trkpt lat="48.06469" lon="7.11982">
        <ele>756.3</ele>
        <time>2023-08-12T14:44:08Z</time>
      </trkpt>
      <trkpt lat="48.06469" lon="7.11973">
        <ele>755.5</ele>
        <time>2023-08-12T14:44:09Z</time>
      </trkpt>
      <trkpt lat="48.06467" lon="7.11965">
        <ele>754.8</ele>
        <time>2023-08-12T14:44:10Z</time>
      </trkpt>
      <trkpt lat="48.06464" lon="7.11955">
        <ele>753.8</ele>
        <time>2023-08-12T14:44:11Z</time>
      </trkpt>
      <trkpt lat="48.06462" lon="7.11945">
        <ele>752.7</ele>
        <time>2023-08-12T14:44:12Z</time>
      </trkpt>
      <trkpt lat="48.06461" lon="7.11939">
        <ele>752</ele>
        <time>2023-08-12T14:44:13Z</time>
      </trkpt>
      <trkpt lat="48.06459" lon="7.1193">
        <ele>750.7</ele>
        <time>2023-08-12T14:44:14Z</time>
      </trkpt>
      <trkpt lat="48.06456" lon="7.11924">
        <ele>749.4</ele>
        <time>2023-08-12T14:44:15Z</time>
      </trkpt>
      <trkpt lat="48.06452" lon="7.11921">
        <ele>748.4</ele>
        <time>2023-08-12T14:44:16Z</time>
      </trkpt>
      <trkpt lat="48.0645" lon="7.1192">
        <ele>747.6</ele>
        <time>2023-08-12T14:44:17Z</time>
      </trkpt>
      <trkpt lat="48.06447" lon="7.11919">
        <ele>746.8</ele>
        <time>2023-08-12T14:44:18Z</time>
      </trkpt>
      <trkpt lat="48.06444" lon="7.11917">
        <ele>745.8</ele>
        <time>2023-08-12T14:44:19Z</time>
      </trkpt>
      <trkpt lat="48.06438" lon="7.11908">
        <ele>743.8</ele>
        <time>2023-08-12T14:44:21Z</time>
      </trkpt>
      <trkpt lat="48.06435" lon="7.11903">
        <ele>742.5</ele>
        <time>2023-08-12T14:44:22Z</time>
      </trkpt>
      <trkpt lat="48.06425" lon="7.11894">
        <ele>739.5</ele>
        <time>2023-08-12T14:44:24Z</time>
      </trkpt>
      <trkpt lat="48.06422" lon="7.11887">
        <ele>737.8</ele>
        <time>2023-08-12T14:44:25Z</time>
      </trkpt>
      <trkpt lat="48.06417" lon="7.11876">
        <ele>734.5</ele>
        <time>2023-08-12T14:44:27Z</time>
      </trkpt>
      <trkpt lat="48.06413" lon="7.11874">
        <ele>733.3</ele>
        <time>2023-08-12T14:44:28Z</time>
      </trkpt>
      <trkpt lat="48.06411" lon="7.11876">
        <ele>732.3</ele>
        <time>2023-08-12T14:44:29Z</time>
      </trkpt>
      <trkpt lat="48.06409" lon="7.11878">
        <ele>731.3</ele>
        <time>2023-08-12T14:44:30Z</time>
      </trkpt>
      <trkpt lat="48.06403" lon="7.11885">
        <ele>728.5</ele>
        <time>2023-08-12T14:44:32Z</time>
      </trkpt>
      <trkpt lat="48.06401" lon="7.11889">
        <ele>727.3</ele>
        <time>2023-08-12T14:44:33Z</time>
      </trkpt>
      <trkpt lat="48.06399" lon="7.11892">
        <ele>726.3</ele>
        <time>2023-08-12T14:44:34Z</time>
      </trkpt>
      <trkpt lat="48.06396" lon="7.11891">
        <ele>725.5</ele>
        <time>2023-08-12T14:44:35Z</time>
      </trkpt>
      <trkpt lat="48.06395" lon="7.11888">
        <ele>724.8</ele>
        <time>2023-08-12T14:44:36Z</time>
      </trkpt>
      <trkpt lat="48.06392" lon="7.11868">
        <ele>721</ele>
        <time>2023-08-12T14:44:39Z</time>
      </trkpt>
      <trkpt lat="48.06391" lon="7.11863">
        <ele>719.9</ele>
        <time>2023-08-12T14:44:40Z</time>
      </trkpt>
      <trkpt lat="48.0639" lon="7.11859">
        <ele>719.1</ele>
        <time>2023-08-12T14:44:41Z</time>
      </trkpt>
      <trkpt lat="48.06388" lon="7.11854">
        <ele>718</ele>
        <time>2023-08-12T14:44:42Z</time>
      </trkpt>
      <trkpt lat="48.06386" lon="7.11849">
        <ele>717</ele>
        <time>2023-08-12T14:44:43Z</time>
      </trkpt>
      <trkpt lat="48.06386" lon="7.11846">
        <ele>716.5</ele>
        <time>2023-08-12T14:44:44Z</time>
      </trkpt>
      <trkpt lat="48.06387" lon="7.11843">
        <ele>715.9</ele>
        <time>2023-08-12T14:44:45Z</time>
      </trkpt>
      <trkpt lat="48.06388" lon="7.1184">
        <ele>715.2</ele>
        <time>2023-08-12T14:44:46Z</time>
      </trkpt>
      <trkpt lat="48.06388" lon="7.11834">
        <ele>714.3</ele>
        <time>2023-08-12T14:44:47Z</time>
      </trkpt>
      <trkpt lat="48.06388" lon="7.11829">
        <ele>713.4</ele>
        <time>2023-08-12T14:44:48Z</time>
      </trkpt>
      <trkpt lat="48.06388" lon="7.11827">
        <ele>712.9</ele>
        <time>2023-08-12T14:44:49Z</time>
      </trkpt>
      <trkpt lat="48.06387" lon="7.11826">
        <ele>712.8</ele>
        <time>2023-08-12T14:44:50Z</time>
      </trkpt>
      <trkpt lat="48.06387" lon="7.11826">
        <ele>712.8</ele>
        <time>2023-08-12T14:44:51Z</time>
      </trkpt>
      <trkpt lat="48.06387" lon="7.11826">
        <ele>712.8</ele>
        <time>2023-08-12T14:44:56Z</time>
      </trkpt>
      <trkpt lat="48.06387" lon="7.11826">
        <ele>712.8</ele>
        <time>2023-08-12T14:45:01Z</time>
      </trkpt>
      <trkpt lat="48.06387" lon="7.11826">
        <ele>712.8</ele>
        <time>2023-08-12T14:45:17Z</time>
      </trkpt>
      <trkpt lat="48.06388" lon="7.11827">
        <ele>712.6</ele>
        <time>2023-08-12T14:45:26Z</time>
      </trkpt>
      <trkpt lat="48.06387" lon="7.11822">
        <ele>711.6</ele>
        <time>2023-08-12T14:45:37Z</time>
      </trkpt>
      <trkpt lat="48.06386" lon="7.11817">
        <ele>710.7</ele>
        <time>2023-08-12T14:45:38Z</time>
      </trkpt>
      <trkpt lat="48.06383" lon="7.11809">
        <ele>708.7</ele>
        <time>2023-08-12T14:45:40Z</time>
      </trkpt>
      <trkpt lat="48.06381" lon="7.11806">
        <ele>707.7</ele>
        <time>2023-08-12T14:45:41Z</time>
      </trkpt>
      <trkpt lat="48.06379" lon="7.11807">
        <ele>706.9</ele>
        <time>2023-08-12T14:45:42Z</time>
      </trkpt>
      <trkpt lat="48.06373" lon="7.11814">
        <ele>703.6</ele>
        <time>2023-08-12T14:45:44Z</time>
      </trkpt>
      <trkpt lat="48.06367" lon="7.11823">
        <ele>700</ele>
        <time>2023-08-12T14:45:46Z</time>
      </trkpt>
      <trkpt lat="48.06365" lon="7.11823">
        <ele>699.2</ele>
        <time>2023-08-12T14:45:47Z</time>
      </trkpt>
      <trkpt lat="48.06363" lon="7.11821">
        <ele>698.3</ele>
        <time>2023-08-12T14:45:48Z</time>
      </trkpt>
      <trkpt lat="48.06363" lon="7.1182">
        <ele>697.9</ele>
        <time>2023-08-12T14:45:49Z</time>
      </trkpt>
      <trkpt lat="48.06362" lon="7.11821">
        <ele>697.2</ele>
        <time>2023-08-12T14:45:50Z</time>
      </trkpt>
      <trkpt lat="48.06358" lon="7.11824">
        <ele>695.7</ele>
        <time>2023-08-12T14:45:51Z</time>
      </trkpt>
      <trkpt lat="48.06355" lon="7.11828">
        <ele>694</ele>
        <time>2023-08-12T14:45:52Z</time>
      </trkpt>
      <trkpt lat="48.06347" lon="7.11836">
        <ele>690</ele>
        <time>2023-08-12T14:45:54Z</time>
      </trkpt>
      <trkpt lat="48.06338" lon="7.1184">
        <ele>686.1</ele>
        <time>2023-08-12T14:45:56Z</time>
      </trkpt>
      <trkpt lat="48.06333" lon="7.11842">
        <ele>684.6</ele>
        <time>2023-08-12T14:45:57Z</time>
      </trkpt>
      <trkpt lat="48.06329" lon="7.11842">
        <ele>683.4</ele>
        <time>2023-08-12T14:45:58Z</time>
      </trkpt>
      <trkpt lat="48.06326" lon="7.11839">
        <ele>682.2</ele>
        <time>2023-08-12T14:45:59Z</time>
      </trkpt>
      <trkpt lat="48.0632" lon="7.11829">
        <ele>679.4</ele>
        <time>2023-08-12T14:46:01Z</time>
      </trkpt>
      <trkpt lat="48.06307" lon="7.1182">
        <ele>674.5</ele>
        <time>2023-08-12T14:46:03Z</time>
      </trkpt>
      <trkpt lat="48.06298" lon="7.1182">
        <ele>671.5</ele>
        <time>2023-08-12T14:46:04Z</time>
      </trkpt>
      <trkpt lat="48.06293" lon="7.11822">
        <ele>670.2</ele>
        <time>2023-08-12T14:46:05Z</time>
      </trkpt>
      <trkpt lat="48.06288" lon="7.11826">
        <ele>668.8</ele>
        <time>2023-08-12T14:46:06Z</time>
      </trkpt>
      <trkpt lat="48.06283" lon="7.11832">
        <ele>667.3</ele>
        <time>2023-08-12T14:46:07Z</time>
      </trkpt>
      <trkpt lat="48.06278" lon="7.11836">
        <ele>666.1</ele>
        <time>2023-08-12T14:46:08Z</time>
      </trkpt>
      <trkpt lat="48.06274" lon="7.1184">
        <ele>665</ele>
        <time>2023-08-12T14:46:09Z</time>
      </trkpt>
      <trkpt lat="48.06265" lon="7.11847">
        <ele>663</ele>
        <time>2023-08-12T14:46:11Z</time>
      </trkpt>
      <trkpt lat="48.06259" lon="7.11855">
        <ele>661.4</ele>
        <time>2023-08-12T14:46:13Z</time>
      </trkpt>
      <trkpt lat="48.06253" lon="7.11855">
        <ele>660.3</ele>
        <time>2023-08-12T14:46:14Z</time>
      </trkpt>
      <trkpt lat="48.06249" lon="7.11855">
        <ele>659.5</ele>
        <time>2023-08-12T14:46:15Z</time>
      </trkpt>
      <trkpt lat="48.06245" lon="7.11852">
        <ele>658.4</ele>
        <time>2023-08-12T14:46:16Z</time>
      </trkpt>
      <trkpt lat="48.06237" lon="7.11848">
        <ele>656.3</ele>
        <time>2023-08-12T14:46:17Z</time>
      </trkpt>
      <trkpt lat="48.06231" lon="7.1185">
        <ele>654.7</ele>
        <time>2023-08-12T14:46:18Z</time>
      </trkpt>
      <trkpt lat="48.06226" lon="7.11852">
        <ele>653</ele>
        <time>2023-08-12T14:46:19Z</time>
      </trkpt>
      <trkpt lat="48.06223" lon="7.11855">
        <ele>652.1</ele>
        <time>2023-08-12T14:46:20Z</time>
      </trkpt>
      <trkpt lat="48.06221" lon="7.11855">
        <ele>651.4</ele>
        <time>2023-08-12T14:46:21Z</time>
      </trkpt>
      <trkpt lat="48.0622" lon="7.11854">
        <ele>650.9</ele>
        <time>2023-08-12T14:46:22Z</time>
      </trkpt>
      <trkpt lat="48.06218" lon="7.1185">
        <ele>649.9</ele>
        <time>2023-08-12T14:46:23Z</time>
      </trkpt>
      <trkpt lat="48.06219" lon="7.11831">
        <ele>645.9</ele>
        <time>2023-08-12T14:46:26Z</time>
      </trkpt>
      <trkpt lat="48.06218" lon="7.1183">
        <ele>645.3</ele>
        <time>2023-08-12T14:46:27Z</time>
      </trkpt>
      <trkpt lat="48.06215" lon="7.11831">
        <ele>644.5</ele>
        <time>2023-08-12T14:46:28Z</time>
      </trkpt>
      <trkpt lat="48.06201" lon="7.11834">
        <ele>640.1</ele>
        <time>2023-08-12T14:46:31Z</time>
      </trkpt>
      <trkpt lat="48.06194" lon="7.11835">
        <ele>638.5</ele>
        <time>2023-08-12T14:46:32Z</time>
      </trkpt>
      <trkpt lat="48.06189" lon="7.11835">
        <ele>637.3</ele>
        <time>2023-08-12T14:46:33Z</time>
      </trkpt>
      <trkpt lat="48.06176" lon="7.11842">
        <ele>634.7</ele>
        <time>2023-08-12T14:46:35Z</time>
      </trkpt>
      <trkpt lat="48.06163" lon="7.11852">
        <ele>631.9</ele>
        <time>2023-08-12T14:46:37Z</time>
      </trkpt>
      <trkpt lat="48.06158" lon="7.11859">
        <ele>630.6</ele>
        <time>2023-08-12T14:46:38Z</time>
      </trkpt>
      <trkpt lat="48.06153" lon="7.11865">
        <ele>629.4</ele>
        <time>2023-08-12T14:46:39Z</time>
      </trkpt>
      <trkpt lat="48.06149" lon="7.11868">
        <ele>628.5</ele>
        <time>2023-08-12T14:46:40Z</time>
      </trkpt>
      <trkpt lat="48.06146" lon="7.11869">
        <ele>627.7</ele>
        <time>2023-08-12T14:46:41Z</time>
      </trkpt>
      <trkpt lat="48.06141" lon="7.11871">
        <ele>626.8</ele>
        <time>2023-08-12T14:46:42Z</time>
      </trkpt>
      <trkpt lat="48.06137" lon="7.11875">
        <ele>625.8</ele>
        <time>2023-08-12T14:46:43Z</time>
      </trkpt>
      <trkpt lat="48.06127" lon="7.11887">
        <ele>623.1</ele>
        <time>2023-08-12T14:46:45Z</time>
      </trkpt>
      <trkpt lat="48.06124" lon="7.11894">
        <ele>622</ele>
        <time>2023-08-12T14:46:46Z</time>
      </trkpt>
      <trkpt lat="48.06122" lon="7.119">
        <ele>621</ele>
        <time>2023-08-12T14:46:47Z</time>
      </trkpt>
      <trkpt lat="48.06119" lon="7.11904">
        <ele>620.2</ele>
        <time>2023-08-12T14:46:48Z</time>
      </trkpt>
      <trkpt lat="48.06115" lon="7.11908">
        <ele>619.3</ele>
        <time>2023-08-12T14:46:49Z</time>
      </trkpt>
      <trkpt lat="48.06111" lon="7.11913">
        <ele>618.4</ele>
        <time>2023-08-12T14:46:50Z</time>
      </trkpt>
      <trkpt lat="48.061" lon="7.11926">
        <ele>616.2</ele>
        <time>2023-08-12T14:46:52Z</time>
      </trkpt>
      <trkpt lat="48.06092" lon="7.11932">
        <ele>615.2</ele>
        <time>2023-08-12T14:46:53Z</time>
      </trkpt>
      <trkpt lat="48.06086" lon="7.11934">
        <ele>614.4</ele>
        <time>2023-08-12T14:46:54Z</time>
      </trkpt>
      <trkpt lat="48.0608" lon="7.11938">
        <ele>613.7</ele>
        <time>2023-08-12T14:46:55Z</time>
      </trkpt>
      <trkpt lat="48.06076" lon="7.11944">
        <ele>612.9</ele>
        <time>2023-08-12T14:46:56Z</time>
      </trkpt>
      <trkpt lat="48.06073" lon="7.11951">
        <ele>612.3</ele>
        <time>2023-08-12T14:46:57Z</time>
      </trkpt>
      <trkpt lat="48.06069" lon="7.11957">
        <ele>611.6</ele>
        <time>2023-08-12T14:46:58Z</time>
      </trkpt>
      <trkpt lat="48.06067" lon="7.11962">
        <ele>611.1</ele>
        <time>2023-08-12T14:46:59Z</time>
      </trkpt>
      <trkpt lat="48.06062" lon="7.11966">
        <ele>611</ele>
        <time>2023-08-12T14:47:00Z</time>
      </trkpt>
      <trkpt lat="48.06045" lon="7.1198">
        <ele>612.6</ele>
        <time>2023-08-12T14:47:03Z</time>
      </trkpt>
      <trkpt lat="48.06042" lon="7.11985">
        <ele>613</ele>
        <time>2023-08-12T14:47:04Z</time>
      </trkpt>
      <trkpt lat="48.06038" lon="7.11988">
        <ele>613.4</ele>
        <time>2023-08-12T14:47:05Z</time>
      </trkpt>
      <trkpt lat="48.06032" lon="7.11997">
        <ele>614</ele>
        <time>2023-08-12T14:47:07Z</time>
      </trkpt>
      <trkpt lat="48.06029" lon="7.12001">
        <ele>614.2</ele>
        <time>2023-08-12T14:47:08Z</time>
      </trkpt>
      <trkpt lat="48.06027" lon="7.12005">
        <ele>614.3</ele>
        <time>2023-08-12T14:47:09Z</time>
      </trkpt>
      <trkpt lat="48.06025" lon="7.12008">
        <ele>614.4</ele>
        <time>2023-08-12T14:47:10Z</time>
      </trkpt>
      <trkpt lat="48.06024" lon="7.1201">
        <ele>614.5</ele>
        <time>2023-08-12T14:47:11Z</time>
      </trkpt>
      <trkpt lat="48.06024" lon="7.12014">
        <ele>614.5</ele>
        <time>2023-08-12T14:47:12Z</time>
      </trkpt>
      <trkpt lat="48.06027" lon="7.1202">
        <ele>614.4</ele>
        <time>2023-08-12T14:47:13Z</time>
      </trkpt>
      <trkpt lat="48.06027" lon="7.12024">
        <ele>614.3</ele>
        <time>2023-08-12T14:47:14Z</time>
      </trkpt>
      <trkpt lat="48.06025" lon="7.12027">
        <ele>614.3</ele>
        <time>2023-08-12T14:47:15Z</time>
      </trkpt>
      <trkpt lat="48.06016" lon="7.12034">
        <ele>613.6</ele>
        <time>2023-08-12T14:47:18Z</time>
      </trkpt>
      <trkpt lat="48.06012" lon="7.12038">
        <ele>613.3</ele>
        <time>2023-08-12T14:47:19Z</time>
      </trkpt>
      <trkpt lat="48.06005" lon="7.12049">
        <ele>612.8</ele>
        <time>2023-08-12T14:47:21Z</time>
      </trkpt>
      <trkpt lat="48.06001" lon="7.12054">
        <ele>612.5</ele>
        <time>2023-08-12T14:47:22Z</time>
      </trkpt>
      <trkpt lat="48.05999" lon="7.12059">
        <ele>612.3</ele>
        <time>2023-08-12T14:47:23Z</time>
      </trkpt>
      <trkpt lat="48.05996" lon="7.12064">
        <ele>612.1</ele>
        <time>2023-08-12T14:47:24Z</time>
      </trkpt>
      <trkpt lat="48.05994" lon="7.12068">
        <ele>611.8</ele>
        <time>2023-08-12T14:47:25Z</time>
      </trkpt>
      <trkpt lat="48.05994" lon="7.12072">
        <ele>611.6</ele>
        <time>2023-08-12T14:47:26Z</time>
      </trkpt>
      <trkpt lat="48.05991" lon="7.12075">
        <ele>611.2</ele>
        <time>2023-08-12T14:47:27Z</time>
      </trkpt>
      <trkpt lat="48.05988" lon="7.12079">
        <ele>610.7</ele>
        <time>2023-08-12T14:47:28Z</time>
      </trkpt>
      <trkpt lat="48.05983" lon="7.12084">
        <ele>610</ele>
        <time>2023-08-12T14:47:29Z</time>
      </trkpt>
      <trkpt lat="48.0598" lon="7.1209">
        <ele>609.2</ele>
        <time>2023-08-12T14:47:30Z</time>
      </trkpt>
      <trkpt lat="48.05977" lon="7.12099">
        <ele>608.3</ele>
        <time>2023-08-12T14:47:31Z</time>
      </trkpt>
      <trkpt lat="48.05975" lon="7.12107">
        <ele>607.5</ele>
        <time>2023-08-12T14:47:32Z</time>
      </trkpt>
      <trkpt lat="48.05972" lon="7.12115">
        <ele>606.8</ele>
        <time>2023-08-12T14:47:33Z</time>
      </trkpt>
      <trkpt lat="48.05965" lon="7.12129">
        <ele>605.5</ele>
        <time>2023-08-12T14:47:35Z</time>
      </trkpt>
      <trkpt lat="48.05956" lon="7.12146">
        <ele>604.4</ele>
        <time>2023-08-12T14:47:37Z</time>
      </trkpt>
      <trkpt lat="48.05943" lon="7.12157">
        <ele>603.9</ele>
        <time>2023-08-12T14:47:39Z</time>
      </trkpt>
      <trkpt lat="48.05939" lon="7.12162">
        <ele>603.8</ele>
        <time>2023-08-12T14:47:40Z</time>
      </trkpt>
      <trkpt lat="48.05935" lon="7.12168">
        <ele>603.7</ele>
        <time>2023-08-12T14:47:41Z</time>
      </trkpt>
      <trkpt lat="48.05934" lon="7.12174">
        <ele>603.7</ele>
        <time>2023-08-12T14:47:42Z</time>
      </trkpt>
      <trkpt lat="48.05932" lon="7.1218">
        <ele>603.5</ele>
        <time>2023-08-12T14:47:43Z</time>
      </trkpt>
      <trkpt lat="48.0593" lon="7.12184">
        <ele>603.3</ele>
        <time>2023-08-12T14:47:44Z</time>
      </trkpt>
      <trkpt lat="48.05929" lon="7.12186">
        <ele>603.2</ele>
        <time>2023-08-12T14:47:45Z</time>
      </trkpt>
      <trkpt lat="48.05927" lon="7.12189">
        <ele>603</ele>
        <time>2023-08-12T14:47:46Z</time>
      </trkpt>
      <trkpt lat="48.05922" lon="7.12191">
        <ele>602.5</ele>
        <time>2023-08-12T14:47:47Z</time>
      </trkpt>
      <trkpt lat="48.05907" lon="7.122">
        <ele>600.5</ele>
        <time>2023-08-12T14:47:49Z</time>
      </trkpt>
      <trkpt lat="48.05887" lon="7.12217">
        <ele>598.4</ele>
        <time>2023-08-12T14:47:52Z</time>
      </trkpt>
      <trkpt lat="48.0588" lon="7.12223">
        <ele>597.9</ele>
        <time>2023-08-12T14:47:53Z</time>
      </trkpt>
      <trkpt lat="48.05867" lon="7.12234">
        <ele>597</ele>
        <time>2023-08-12T14:47:55Z</time>
      </trkpt>
      <trkpt lat="48.0586" lon="7.12239">
        <ele>596.6</ele>
        <time>2023-08-12T14:47:56Z</time>
      </trkpt>
      <trkpt lat="48.05852" lon="7.12244">
        <ele>596.3</ele>
        <time>2023-08-12T14:47:57Z</time>
      </trkpt>
      <trkpt lat="48.05842" lon="7.12256">
        <ele>596.3</ele>
        <time>2023-08-12T14:47:59Z</time>
      </trkpt>
      <trkpt lat="48.05838" lon="7.12261">
        <ele>596.5</ele>
        <time>2023-08-12T14:48:00Z</time>
      </trkpt>
      <trkpt lat="48.05834" lon="7.12265">
        <ele>596.6</ele>
        <time>2023-08-12T14:48:01Z</time>
      </trkpt>
      <trkpt lat="48.05831" lon="7.12269">
        <ele>596.7</ele>
        <time>2023-08-12T14:48:02Z</time>
      </trkpt>
      <trkpt lat="48.05829" lon="7.12273">
        <ele>596.8</ele>
        <time>2023-08-12T14:48:03Z</time>
      </trkpt>
      <trkpt lat="48.05827" lon="7.12276">
        <ele>596.9</ele>
        <time>2023-08-12T14:48:04Z</time>
      </trkpt>
      <trkpt lat="48.05823" lon="7.1228">
        <ele>597</ele>
        <time>2023-08-12T14:48:05Z</time>
      </trkpt>
      <trkpt lat="48.05818" lon="7.12284">
        <ele>597.2</ele>
        <time>2023-08-12T14:48:06Z</time>
      </trkpt>
      <trkpt lat="48.05813" lon="7.12287">
        <ele>597.5</ele>
        <time>2023-08-12T14:48:07Z</time>
      </trkpt>
      <trkpt lat="48.05805" lon="7.12295">
        <ele>598.2</ele>
        <time>2023-08-12T14:48:09Z</time>
      </trkpt>
      <trkpt lat="48.05803" lon="7.12302">
        <ele>598.7</ele>
        <time>2023-08-12T14:48:10Z</time>
      </trkpt>
      <trkpt lat="48.05801" lon="7.12307">
        <ele>599.1</ele>
        <time>2023-08-12T14:48:11Z</time>
      </trkpt>
      <trkpt lat="48.058" lon="7.1231">
        <ele>599.4</ele>
        <time>2023-08-12T14:48:12Z</time>
      </trkpt>
      <trkpt lat="48.05799" lon="7.12312">
        <ele>599.6</ele>
        <time>2023-08-12T14:48:13Z</time>
      </trkpt>
      <trkpt lat="48.05798" lon="7.12314">
        <ele>599.7</ele>
        <time>2023-08-12T14:48:14Z</time>
      </trkpt>
      <trkpt lat="48.05797" lon="7.12316">
        <ele>599.9</ele>
        <time>2023-08-12T14:48:15Z</time>
      </trkpt>
      <trkpt lat="48.05796" lon="7.12318">
        <ele>600.1</ele>
        <time>2023-08-12T14:48:16Z</time>
      </trkpt>
      <trkpt lat="48.05796" lon="7.12327">
        <ele>600.7</ele>
        <time>2023-08-12T14:48:18Z</time>
      </trkpt>
      <trkpt lat="48.05794" lon="7.12331">
        <ele>601</ele>
        <time>2023-08-12T14:48:19Z</time>
      </trkpt>
      <trkpt lat="48.05792" lon="7.12335">
        <ele>601.2</ele>
        <time>2023-08-12T14:48:20Z</time>
      </trkpt>
      <trkpt lat="48.05791" lon="7.12339">
        <ele>601.3</ele>
        <time>2023-08-12T14:48:21Z</time>
      </trkpt>
      <trkpt lat="48.05779" lon="7.12344">
        <ele>601.1</ele>
        <time>2023-08-12T14:48:24Z</time>
      </trkpt>
      <trkpt lat="48.05773" lon="7.12348">
        <ele>600.8</ele>
        <time>2023-08-12T14:48:25Z</time>
      </trkpt>
      <trkpt lat="48.05767" lon="7.12352">
        <ele>600.3</ele>
        <time>2023-08-12T14:48:26Z</time>
      </trkpt>
      <trkpt lat="48.05755" lon="7.1236">
        <ele>599.5</ele>
        <time>2023-08-12T14:48:28Z</time>
      </trkpt>
      <trkpt lat="48.05748" lon="7.12364">
        <ele>599.2</ele>
        <time>2023-08-12T14:48:29Z</time>
      </trkpt>
      <trkpt lat="48.05748" lon="7.12371">
        <ele>599</ele>
        <time>2023-08-12T14:48:30Z</time>
      </trkpt>
      <trkpt lat="48.05746" lon="7.12377">
        <ele>598.9</ele>
        <time>2023-08-12T14:48:31Z</time>
      </trkpt>
      <trkpt lat="48.05741" lon="7.1238">
        <ele>598.8</ele>
        <time>2023-08-12T14:48:32Z</time>
      </trkpt>
      <trkpt lat="48.05736" lon="7.12384">
        <ele>598.8</ele>
        <time>2023-08-12T14:48:33Z</time>
      </trkpt>
      <trkpt lat="48.05733" lon="7.1239">
        <ele>599</ele>
        <time>2023-08-12T14:48:34Z</time>
      </trkpt>
      <trkpt lat="48.05731" lon="7.12397">
        <ele>599.4</ele>
        <time>2023-08-12T14:48:35Z</time>
      </trkpt>
      <trkpt lat="48.05729" lon="7.12404">
        <ele>599.7</ele>
        <time>2023-08-12T14:48:36Z</time>
      </trkpt>
      <trkpt lat="48.05729" lon="7.12408">
        <ele>600</ele>
        <time>2023-08-12T14:48:37Z</time>
      </trkpt>
      <trkpt lat="48.05729" lon="7.12413">
        <ele>600.2</ele>
        <time>2023-08-12T14:48:38Z</time>
      </trkpt>
      <trkpt lat="48.05728" lon="7.12417">
        <ele>600.4</ele>
        <time>2023-08-12T14:48:39Z</time>
      </trkpt>
      <trkpt lat="48.05727" lon="7.12424">
        <ele>600.7</ele>
        <time>2023-08-12T14:48:41Z</time>
      </trkpt>
      <trkpt lat="48.05726" lon="7.12427">
        <ele>600.9</ele>
        <time>2023-08-12T14:48:42Z</time>
      </trkpt>
      <trkpt lat="48.05725" lon="7.12429">
        <ele>601</ele>
        <time>2023-08-12T14:48:43Z</time>
      </trkpt>
      <trkpt lat="48.05723" lon="7.12432">
        <ele>601.2</ele>
        <time>2023-08-12T14:48:44Z</time>
      </trkpt>
      <trkpt lat="48.05722" lon="7.12434">
        <ele>601.3</ele>
        <time>2023-08-12T14:48:45Z</time>
      </trkpt>
      <trkpt lat="48.0572" lon="7.12437">
        <ele>601.5</ele>
        <time>2023-08-12T14:48:46Z</time>
      </trkpt>
      <trkpt lat="48.05719" lon="7.1244">
        <ele>601.7</ele>
        <time>2023-08-12T14:48:47Z</time>
      </trkpt>
      <trkpt lat="48.05718" lon="7.12443">
        <ele>601.8</ele>
        <time>2023-08-12T14:48:48Z</time>
      </trkpt>
      <trkpt lat="48.05718" lon="7.12446">
        <ele>602</ele>
        <time>2023-08-12T14:48:49Z</time>
      </trkpt>
      <trkpt lat="48.05718" lon="7.12449">
        <ele>602.1</ele>
        <time>2023-08-12T14:48:50Z</time>
      </trkpt>
      <trkpt lat="48.05719" lon="7.12452">
        <ele>602.3</ele>
        <time>2023-08-12T14:48:51Z</time>
      </trkpt>
      <trkpt lat="48.05719" lon="7.12454">
        <ele>602.4</ele>
        <time>2023-08-12T14:48:52Z</time>
      </trkpt>
      <trkpt lat="48.05719" lon="7.12454">
        <ele>602.4</ele>
        <time>2023-08-12T14:48:53Z</time>
      </trkpt>
      <trkpt lat="48.05719" lon="7.12454">
        <ele>602.4</ele>
        <time>2023-08-12T14:48:55Z</time>
      </trkpt>
      <trkpt lat="48.05719" lon="7.12454">
        <ele>602.4</ele>
        <time>2023-08-12T14:48:57Z</time>
      </trkpt>
      <trkpt lat="48.05719" lon="7.12454">
        <ele>602.4</ele>
        <time>2023-08-12T14:48:59Z</time>
      </trkpt>
      <trkpt lat="48.05719" lon="7.12454">
        <ele>602.4</ele>
        <time>2023-08-12T14:49:01Z</time>
      </trkpt>
      <trkpt lat="48.05719" lon="7.12454">
        <ele>602.4</ele>
        <time>2023-08-12T14:49:03Z</time>
      </trkpt>
      <trkpt lat="48.05719" lon="7.12454">
        <ele>602.4</ele>
        <time>2023-08-12T14:49:04Z</time>
      </trkpt>
      <trkpt lat="48.05719" lon="7.12454">
        <ele>602.4</ele>
        <time>2023-08-12T14:49:06Z</time>
      </trkpt>
      <trkpt lat="48.05719" lon="7.12454">
        <ele>602.4</ele>
        <time>2023-08-12T14:49:07Z</time>
      </trkpt>
      <trkpt lat="48.05719" lon="7.12454">
        <ele>602.4</ele>
        <time>2023-08-12T14:49:09Z</time>
      </trkpt>
      <trkpt lat="48.05719" lon="7.12454">
        <ele>602.4</ele>
        <time>2023-08-12T14:49:11Z</time>
      </trkpt>
      <trkpt lat="48.05719" lon="7.12454">
        <ele>602.4</ele>
        <time>2023-08-12T14:49:13Z</time>
      </trkpt>
      <trkpt lat="48.05719" lon="7.12454">
        <ele>602.4</ele>
        <time>2023-08-12T14:49:15Z</time>
      </trkpt>
      <trkpt lat="48.05719" lon="7.12454">
        <ele>602.4</ele>
        <time>2023-08-12T14:49:16Z</time>
      </trkpt>
      <trkpt lat="48.05719" lon="7.12454">
        <ele>602.4</ele>
        <time>2023-08-12T14:49:18Z</time>
      </trkpt>
      <trkpt lat="48.05719" lon="7.12454">
        <ele>602.4</ele>
        <time>2023-08-12T14:49:20Z</time>
      </trkpt>
      <trkpt lat="48.05719" lon="7.12454">
        <ele>602.4</ele>
        <time>2023-08-12T14:49:21Z</time>
      </trkpt>
      <trkpt lat="48.05719" lon="7.12454">
        <ele>602.4</ele>
        <time>2023-08-12T14:49:23Z</time>
      </trkpt>
      <trkpt lat="48.05719" lon="7.12454">
        <ele>602.4</ele>
        <time>2023-08-12T14:49:25Z</time>
      </trkpt>
      <trkpt lat="48.05719" lon="7.12454">
        <ele>602.4</ele>
        <time>2023-08-12T14:49:27Z</time>
      </trkpt>
      <trkpt lat="48.05719" lon="7.12454">
        <ele>602.4</ele>
        <time>2023-08-12T14:49:28Z</time>
      </trkpt>
      <trkpt lat="48.05719" lon="7.12454">
        <ele>602.4</ele>
        <time>2023-08-12T14:49:30Z</time>
      </trkpt>
      <trkpt lat="48.05719" lon="7.12454">
        <ele>602.4</ele>
        <time>2023-08-12T14:49:32Z</time>
      </trkpt>
      <trkpt lat="48.05719" lon="7.12454">
        <ele>602.4</ele>
        <time>2023-08-12T14:49:34Z</time>
      </trkpt>
      <trkpt lat="48.05719" lon="7.12454">
        <ele>602.4</ele>
        <time>2023-08-12T14:49:35Z</time>
      </trkpt>
      <trkpt lat="48.05719" lon="7.12454">
        <ele>602.4</ele>
        <time>2023-08-12T14:49:37Z</time>
      </trkpt>
      <trkpt lat="48.05716" lon="7.12455">
        <ele>602.1</ele>
        <time>2023-08-12T14:49:38Z</time>
      </trkpt>
      <trkpt lat="48.05714" lon="7.12457">
        <ele>601.7</ele>
        <time>2023-08-12T14:49:39Z</time>
      </trkpt>
      <trkpt lat="48.05711" lon="7.12458">
        <ele>601.3</ele>
        <time>2023-08-12T14:49:40Z</time>
      </trkpt>
      <trkpt lat="48.05708" lon="7.12459">
        <ele>600.6</ele>
        <time>2023-08-12T14:49:41Z</time>
      </trkpt>
      <trkpt lat="48.05704" lon="7.12459">
        <ele>599.9</ele>
        <time>2023-08-12T14:49:42Z</time>
      </trkpt>
      <trkpt lat="48.05698" lon="7.12458">
        <ele>598.5</ele>
        <time>2023-08-12T14:49:44Z</time>
      </trkpt>
      <trkpt lat="48.05695" lon="7.12457">
        <ele>597.6</ele>
        <time>2023-08-12T14:49:45Z</time>
      </trkpt>
      <trkpt lat="48.05692" lon="7.12457">
        <ele>596.6</ele>
        <time>2023-08-12T14:49:46Z</time>
      </trkpt>
      <trkpt lat="48.0569" lon="7.12455">
        <ele>595.7</ele>
        <time>2023-08-12T14:49:47Z</time>
      </trkpt>
      <trkpt lat="48.05687" lon="7.12452">
        <ele>594.8</ele>
        <time>2023-08-12T14:49:48Z</time>
      </trkpt>
      <trkpt lat="48.05686" lon="7.12448">
        <ele>593.7</ele>
        <time>2023-08-12T14:49:49Z</time>
      </trkpt>
      <trkpt lat="48.05683" lon="7.12439">
        <ele>591.5</ele>
        <time>2023-08-12T14:49:51Z</time>
      </trkpt>
      <trkpt lat="48.05681" lon="7.12436">
        <ele>590.6</ele>
        <time>2023-08-12T14:49:52Z</time>
      </trkpt>
      <trkpt lat="48.05679" lon="7.12435">
        <ele>589.7</ele>
        <time>2023-08-12T14:49:53Z</time>
      </trkpt>
      <trkpt lat="48.05676" lon="7.12434">
        <ele>588.6</ele>
        <time>2023-08-12T14:49:54Z</time>
      </trkpt>
      <trkpt lat="48.05672" lon="7.12435">
        <ele>587.5</ele>
        <time>2023-08-12T14:49:55Z</time>
      </trkpt>
      <trkpt lat="48.05669" lon="7.12435">
        <ele>586.3</ele>
        <time>2023-08-12T14:49:56Z</time>
      </trkpt>
      <trkpt lat="48.05665" lon="7.12436">
        <ele>585.1</ele>
        <time>2023-08-12T14:49:57Z</time>
      </trkpt>
      <trkpt lat="48.05662" lon="7.1244">
        <ele>583.9</ele>
        <time>2023-08-12T14:49:58Z</time>
      </trkpt>
      <trkpt lat="48.0566" lon="7.12443">
        <ele>582.8</ele>
        <time>2023-08-12T14:49:59Z</time>
      </trkpt>
      <trkpt lat="48.05658" lon="7.12447">
        <ele>581.7</ele>
        <time>2023-08-12T14:50:00Z</time>
      </trkpt>
      <trkpt lat="48.05656" lon="7.12451">
        <ele>580.5</ele>
        <time>2023-08-12T14:50:01Z</time>
      </trkpt>
      <trkpt lat="48.05653" lon="7.12455">
        <ele>579.3</ele>
        <time>2023-08-12T14:50:02Z</time>
      </trkpt>
      <trkpt lat="48.05652" lon="7.12457">
        <ele>578.5</ele>
        <time>2023-08-12T14:50:03Z</time>
      </trkpt>
      <trkpt lat="48.05649" lon="7.12458">
        <ele>577.7</ele>
        <time>2023-08-12T14:50:04Z</time>
      </trkpt>
      <trkpt lat="48.05646" lon="7.1246">
        <ele>576.5</ele>
        <time>2023-08-12T14:50:05Z</time>
      </trkpt>
      <trkpt lat="48.05643" lon="7.12462">
        <ele>575.2</ele>
        <time>2023-08-12T14:50:06Z</time>
      </trkpt>
      <trkpt lat="48.05639" lon="7.12463">
        <ele>574.1</ele>
        <time>2023-08-12T14:50:07Z</time>
      </trkpt>
      <trkpt lat="48.05636" lon="7.12462">
        <ele>572.9</ele>
        <time>2023-08-12T14:50:08Z</time>
      </trkpt>
      <trkpt lat="48.05633" lon="7.12458">
        <ele>571.7</ele>
        <time>2023-08-12T14:50:09Z</time>
      </trkpt>
      <trkpt lat="48.05631" lon="7.12453">
        <ele>570.5</ele>
        <time>2023-08-12T14:50:10Z</time>
      </trkpt>
      <trkpt lat="48.05628" lon="7.1245">
        <ele>569.5</ele>
        <time>2023-08-12T14:50:11Z</time>
      </trkpt>
      <trkpt lat="48.05625" lon="7.1245">
        <ele>568.6</ele>
        <time>2023-08-12T14:50:12Z</time>
      </trkpt>
      <trkpt lat="48.05621" lon="7.1245">
        <ele>567.4</ele>
        <time>2023-08-12T14:50:13Z</time>
      </trkpt>
      <trkpt lat="48.05616" lon="7.12452">
        <ele>565.9</ele>
        <time>2023-08-12T14:50:14Z</time>
      </trkpt>
      <trkpt lat="48.05612" lon="7.12451">
        <ele>564.8</ele>
        <time>2023-08-12T14:50:15Z</time>
      </trkpt>
      <trkpt lat="48.05609" lon="7.12446">
        <ele>563.6</ele>
        <time>2023-08-12T14:50:16Z</time>
      </trkpt>
      <trkpt lat="48.05607" lon="7.1244">
        <ele>562.5</ele>
        <time>2023-08-12T14:50:17Z</time>
      </trkpt>
      <trkpt lat="48.05605" lon="7.12425">
        <ele>556.8</ele>
        <time>2023-08-12T14:50:19Z</time>
      </trkpt>
      <trkpt lat="48.05604" lon="7.12418">
        <ele>555.5</ele>
        <time>2023-08-12T14:50:20Z</time>
      </trkpt>
      <trkpt lat="48.05603" lon="7.1241">
        <ele>553.2</ele>
        <time>2023-08-12T14:50:21Z</time>
      </trkpt>
      <trkpt lat="48.05603" lon="7.12403">
        <ele>551.9</ele>
        <time>2023-08-12T14:50:22Z</time>
      </trkpt>
      <trkpt lat="48.05603" lon="7.12398">
        <ele>550.6</ele>
        <time>2023-08-12T14:50:23Z</time>
      </trkpt>
      <trkpt lat="48.05604" lon="7.12394">
        <ele>547.5</ele>
        <time>2023-08-12T14:50:24Z</time>
      </trkpt>
      <trkpt lat="48.05605" lon="7.1239">
        <ele>546.2</ele>
        <time>2023-08-12T14:50:25Z</time>
      </trkpt>
      <trkpt lat="48.05607" lon="7.12386">
        <ele>549.1</ele>
        <time>2023-08-12T14:50:26Z</time>
      </trkpt>
      <trkpt lat="48.05609" lon="7.12382">
        <ele>547.8</ele>
        <time>2023-08-12T14:50:27Z</time>
      </trkpt>
      <trkpt lat="48.05611" lon="7.12377">
        <ele>543.8</ele>
        <time>2023-08-12T14:50:28Z</time>
      </trkpt>
      <trkpt lat="48.05614" lon="7.12366">
        <ele>542.5</ele>
        <time>2023-08-12T14:50:30Z</time>
      </trkpt>
      <trkpt lat="48.05616" lon="7.12359">
        <ele>537.8</ele>
        <time>2023-08-12T14:50:31Z</time>
      </trkpt>
      <trkpt lat="48.05619" lon="7.12352">
        <ele>540.4</ele>
        <time>2023-08-12T14:50:32Z</time>
      </trkpt>
      <trkpt lat="48.05626" lon="7.1234">
        <ele>536</ele>
        <time>2023-08-12T14:50:34Z</time>
      </trkpt>
      <trkpt lat="48.05629" lon="7.12334">
        <ele>537.8</ele>
        <time>2023-08-12T14:50:35Z</time>
      </trkpt>
      <trkpt lat="48.05631" lon="7.12327">
        <ele>536.5</ele>
        <time>2023-08-12T14:50:36Z</time>
      </trkpt>
      <trkpt lat="48.05634" lon="7.12319">
        <ele>532.3</ele>
        <time>2023-08-12T14:50:37Z</time>
      </trkpt>
      <trkpt lat="48.05637" lon="7.12312">
        <ele>531</ele>
        <time>2023-08-12T14:50:38Z</time>
      </trkpt>
      <trkpt lat="48.05639" lon="7.12307">
        <ele>526.6</ele>
        <time>2023-08-12T14:50:39Z</time>
      </trkpt>
      <trkpt lat="48.05644" lon="7.12294">
        <ele>529</ele>
        <time>2023-08-12T14:50:41Z</time>
      </trkpt>
      <trkpt lat="48.05652" lon="7.12282">
        <ele>530.9</ele>
        <time>2023-08-12T14:50:43Z</time>
      </trkpt>
      <trkpt lat="48.05656" lon="7.12279">
        <ele>531.6</ele>
        <time>2023-08-12T14:50:44Z</time>
      </trkpt>
      <trkpt lat="48.05659" lon="7.12275">
        <ele>532.2</ele>
        <time>2023-08-12T14:50:45Z</time>
      </trkpt>
      <trkpt lat="48.05662" lon="7.12272">
        <ele>532.9</ele>
        <time>2023-08-12T14:50:46Z</time>
      </trkpt>
      <trkpt lat="48.05665" lon="7.12269">
        <ele>533.5</ele>
        <time>2023-08-12T14:50:47Z</time>
      </trkpt>
      <trkpt lat="48.05668" lon="7.12267">
        <ele>534</ele>
        <time>2023-08-12T14:50:48Z</time>
      </trkpt>
      <trkpt lat="48.0567" lon="7.12264">
        <ele>534.5</ele>
        <time>2023-08-12T14:50:49Z</time>
      </trkpt>
      <trkpt lat="48.05673" lon="7.12261">
        <ele>534.9</ele>
        <time>2023-08-12T14:50:50Z</time>
      </trkpt>
      <trkpt lat="48.05676" lon="7.12258">
        <ele>534.3</ele>
        <time>2023-08-12T14:50:51Z</time>
      </trkpt>
      <trkpt lat="48.05677" lon="7.12254">
        <ele>533.9</ele>
        <time>2023-08-12T14:50:52Z</time>
      </trkpt>
      <trkpt lat="48.05676" lon="7.12252">
        <ele>533.7</ele>
        <time>2023-08-12T14:50:53Z</time>
      </trkpt>
      <trkpt lat="48.05674" lon="7.12252">
        <ele>533.4</ele>
        <time>2023-08-12T14:50:54Z</time>
      </trkpt>
      <trkpt lat="48.05673" lon="7.12252">
        <ele>533.3</ele>
        <time>2023-08-12T14:50:55Z</time>
      </trkpt>
      <trkpt lat="48.05671" lon="7.12252">
        <ele>533.1</ele>
        <time>2023-08-12T14:50:56Z</time>
      </trkpt>
      <trkpt lat="48.05669" lon="7.12254">
        <ele>532.8</ele>
        <time>2023-08-12T14:50:57Z</time>
      </trkpt>
      <trkpt lat="48.05668" lon="7.12255">
        <ele>532.5</ele>
        <time>2023-08-12T14:50:58Z</time>
      </trkpt>
      <trkpt lat="48.05666" lon="7.12257">
        <ele>532.2</ele>
        <time>2023-08-12T14:50:59Z</time>
      </trkpt>
      <trkpt lat="48.05664" lon="7.12259">
        <ele>531.8</ele>
        <time>2023-08-12T14:51:00Z</time>
      </trkpt>
      <trkpt lat="48.0566" lon="7.1226">
        <ele>531.3</ele>
        <time>2023-08-12T14:51:01Z</time>
      </trkpt>
      <trkpt lat="48.0564" lon="7.12269">
        <ele>528.3</ele>
        <time>2023-08-12T14:51:06Z</time>
      </trkpt>
      <trkpt lat="48.05636" lon="7.12273">
        <ele>527.6</ele>
        <time>2023-08-12T14:51:07Z</time>
      </trkpt>
      <trkpt lat="48.05619" lon="7.12286">
        <ele>524.9</ele>
        <time>2023-08-12T14:51:10Z</time>
      </trkpt>
      <trkpt lat="48.05615" lon="7.12292">
        <ele>524</ele>
        <time>2023-08-12T14:51:11Z</time>
      </trkpt>
      <trkpt lat="48.05595" lon="7.1231">
        <ele>520.6</ele>
        <time>2023-08-12T14:51:14Z</time>
      </trkpt>
      <trkpt lat="48.05588" lon="7.12314">
        <ele>519.6</ele>
        <time>2023-08-12T14:51:15Z</time>
      </trkpt>
      <trkpt lat="48.05567" lon="7.12328">
        <ele>516.3</ele>
        <time>2023-08-12T14:51:18Z</time>
      </trkpt>
      <trkpt lat="48.0556" lon="7.12333">
        <ele>515.8</ele>
        <time>2023-08-12T14:51:19Z</time>
      </trkpt>
      <trkpt lat="48.05553" lon="7.12339">
        <ele>515.4</ele>
        <time>2023-08-12T14:51:20Z</time>
      </trkpt>
      <trkpt lat="48.05546" lon="7.12344">
        <ele>515.2</ele>
        <time>2023-08-12T14:51:21Z</time>
      </trkpt>
      <trkpt lat="48.05534" lon="7.12355">
        <ele>514.7</ele>
        <time>2023-08-12T14:51:23Z</time>
      </trkpt>
      <trkpt lat="48.05528" lon="7.12362">
        <ele>514.4</ele>
        <time>2023-08-12T14:51:24Z</time>
      </trkpt>
      <trkpt lat="48.05523" lon="7.12367">
        <ele>514.2</ele>
        <time>2023-08-12T14:51:25Z</time>
      </trkpt>
      <trkpt lat="48.0552" lon="7.12373">
        <ele>514</ele>
        <time>2023-08-12T14:51:26Z</time>
      </trkpt>
      <trkpt lat="48.05517" lon="7.12379">
        <ele>513.5</ele>
        <time>2023-08-12T14:51:27Z</time>
      </trkpt>
      <trkpt lat="48.05513" lon="7.12386">
        <ele>512.8</ele>
        <time>2023-08-12T14:51:28Z</time>
      </trkpt>
      <trkpt lat="48.05509" lon="7.12395">
        <ele>511.9</ele>
        <time>2023-08-12T14:51:29Z</time>
      </trkpt>
      <trkpt lat="48.05505" lon="7.12412">
        <ele>511.3</ele>
        <time>2023-08-12T14:51:31Z</time>
      </trkpt>
      <trkpt lat="48.05504" lon="7.12422">
        <ele>511.3</ele>
        <time>2023-08-12T14:51:32Z</time>
      </trkpt>
      <trkpt lat="48.05503" lon="7.12432">
        <ele>511.3</ele>
        <time>2023-08-12T14:51:33Z</time>
      </trkpt>
      <trkpt lat="48.05501" lon="7.12443">
        <ele>511.3</ele>
        <time>2023-08-12T14:51:34Z</time>
      </trkpt>
      <trkpt lat="48.05497" lon="7.12465">
        <ele>511.5</ele>
        <time>2023-08-12T14:51:36Z</time>
      </trkpt>
      <trkpt lat="48.05495" lon="7.12475">
        <ele>511.7</ele>
        <time>2023-08-12T14:51:37Z</time>
      </trkpt>
      <trkpt lat="48.05496" lon="7.12506">
        <ele>510.6</ele>
        <time>2023-08-12T14:51:39Z</time>
      </trkpt>
      <trkpt lat="48.05498" lon="7.12517">
        <ele>510.2</ele>
        <time>2023-08-12T14:51:40Z</time>
      </trkpt>
      <trkpt lat="48.05502" lon="7.1253">
        <ele>509.3</ele>
        <time>2023-08-12T14:51:41Z</time>
      </trkpt>
      <trkpt lat="48.05506" lon="7.12543">
        <ele>508.4</ele>
        <time>2023-08-12T14:51:42Z</time>
      </trkpt>
      <trkpt lat="48.0551" lon="7.12554">
        <ele>507.6</ele>
        <time>2023-08-12T14:51:43Z</time>
      </trkpt>
      <trkpt lat="48.05516" lon="7.12564">
        <ele>507.8</ele>
        <time>2023-08-12T14:51:44Z</time>
      </trkpt>
      <trkpt lat="48.05522" lon="7.12572">
        <ele>508.1</ele>
        <time>2023-08-12T14:51:45Z</time>
      </trkpt>
      <trkpt lat="48.05526" lon="7.12581">
        <ele>507.5</ele>
        <time>2023-08-12T14:51:46Z</time>
      </trkpt>
      <trkpt lat="48.05525" lon="7.1259">
        <ele>506.8</ele>
        <time>2023-08-12T14:51:47Z</time>
      </trkpt>
      <trkpt lat="48.0552" lon="7.12596">
        <ele>506</ele>
        <time>2023-08-12T14:51:48Z</time>
      </trkpt>
      <trkpt lat="48.05514" lon="7.12601">
        <ele>505.3</ele>
        <time>2023-08-12T14:51:49Z</time>
      </trkpt>
      <trkpt lat="48.05508" lon="7.12606">
        <ele>504.4</ele>
        <time>2023-08-12T14:51:50Z</time>
      </trkpt>
      <trkpt lat="48.05497" lon="7.12622">
        <ele>502.2</ele>
        <time>2023-08-12T14:51:52Z</time>
      </trkpt>
      <trkpt lat="48.05492" lon="7.12634">
        <ele>501.1</ele>
        <time>2023-08-12T14:51:53Z</time>
      </trkpt>
      <trkpt lat="48.05491" lon="7.12644">
        <ele>500</ele>
        <time>2023-08-12T14:51:54Z</time>
      </trkpt>
      <trkpt lat="48.0549" lon="7.12659">
        <ele>498.8</ele>
        <time>2023-08-12T14:51:55Z</time>
      </trkpt>
      <trkpt lat="48.05491" lon="7.12669">
        <ele>497.9</ele>
        <time>2023-08-12T14:51:56Z</time>
      </trkpt>
      <trkpt lat="48.05492" lon="7.12682">
        <ele>496.8</ele>
        <time>2023-08-12T14:51:57Z</time>
      </trkpt>
      <trkpt lat="48.05494" lon="7.12697">
        <ele>495.7</ele>
        <time>2023-08-12T14:51:58Z</time>
      </trkpt>
      <trkpt lat="48.05495" lon="7.12705">
        <ele>495.4</ele>
        <time>2023-08-12T14:51:59Z</time>
      </trkpt>
      <trkpt lat="48.05496" lon="7.12717">
        <ele>495.9</ele>
        <time>2023-08-12T14:52:00Z</time>
      </trkpt>
      <trkpt lat="48.05496" lon="7.12725">
        <ele>496.5</ele>
        <time>2023-08-12T14:52:01Z</time>
      </trkpt>
      <trkpt lat="48.05495" lon="7.12732">
        <ele>496.9</ele>
        <time>2023-08-12T14:52:02Z</time>
      </trkpt>
      <trkpt lat="48.05491" lon="7.12737">
        <ele>497.1</ele>
        <time>2023-08-12T14:52:03Z</time>
      </trkpt>
      <trkpt lat="48.05488" lon="7.12737">
        <ele>497.3</ele>
        <time>2023-08-12T14:52:04Z</time>
      </trkpt>
      <trkpt lat="48.05485" lon="7.12735">
        <ele>497.5</ele>
        <time>2023-08-12T14:52:05Z</time>
      </trkpt>
      <trkpt lat="48.05483" lon="7.12735">
        <ele>497.6</ele>
        <time>2023-08-12T14:52:06Z</time>
      </trkpt>
      <trkpt lat="48.0548" lon="7.12734">
        <ele>497.8</ele>
        <time>2023-08-12T14:52:07Z</time>
      </trkpt>
      <trkpt lat="48.05478" lon="7.12734">
        <ele>497.9</ele>
        <time>2023-08-12T14:52:08Z</time>
      </trkpt>
      <trkpt lat="48.05475" lon="7.12733">
        <ele>498.1</ele>
        <time>2023-08-12T14:52:09Z</time>
      </trkpt>
      <trkpt lat="48.05473" lon="7.12733">
        <ele>498.2</ele>
        <time>2023-08-12T14:52:10Z</time>
      </trkpt>
      <trkpt lat="48.05471" lon="7.12733">
        <ele>498.3</ele>
        <time>2023-08-12T14:52:11Z</time>
      </trkpt>
      <trkpt lat="48.05467" lon="7.12732">
        <ele>498.6</ele>
        <time>2023-08-12T14:52:13Z</time>
      </trkpt>
      <trkpt lat="48.05464" lon="7.12732">
        <ele>498.7</ele>
        <time>2023-08-12T14:52:14Z</time>
      </trkpt>
      <trkpt lat="48.05462" lon="7.12732">
        <ele>498.8</ele>
        <time>2023-08-12T14:52:15Z</time>
      </trkpt>
      <trkpt lat="48.05459" lon="7.12732">
        <ele>498.9</ele>
        <time>2023-08-12T14:52:16Z</time>
      </trkpt>
      <trkpt lat="48.05457" lon="7.12733">
        <ele>499.1</ele>
        <time>2023-08-12T14:52:17Z</time>
      </trkpt>
      <trkpt lat="48.05456" lon="7.12733">
        <ele>499.2</ele>
        <time>2023-08-12T14:52:18Z</time>
      </trkpt>
      <trkpt lat="48.05454" lon="7.12734">
        <ele>499.3</ele>
        <time>2023-08-12T14:52:19Z</time>
      </trkpt>
      <trkpt lat="48.05452" lon="7.12735">
        <ele>499.4</ele>
        <time>2023-08-12T14:52:20Z</time>
      </trkpt>
      <trkpt lat="48.0545" lon="7.12736">
        <ele>499.6</ele>
        <time>2023-08-12T14:52:21Z</time>
      </trkpt>
      <trkpt lat="48.05448" lon="7.12737">
        <ele>499.7</ele>
        <time>2023-08-12T14:52:22Z</time>
      </trkpt>
      <trkpt lat="48.05446" lon="7.12738">
        <ele>499.9</ele>
        <time>2023-08-12T14:52:23Z</time>
      </trkpt>
      <trkpt lat="48.05441" lon="7.12738">
        <ele>500.2</ele>
        <time>2023-08-12T14:52:25Z</time>
      </trkpt>
      <trkpt lat="48.05439" lon="7.12738">
        <ele>500.4</ele>
        <time>2023-08-12T14:52:26Z</time>
      </trkpt>
      <trkpt lat="48.05437" lon="7.12739">
        <ele>500.5</ele>
        <time>2023-08-12T14:52:27Z</time>
      </trkpt>
      <trkpt lat="48.05435" lon="7.1274">
        <ele>500.7</ele>
        <time>2023-08-12T14:52:28Z</time>
      </trkpt>
      <trkpt lat="48.0543" lon="7.12743">
        <ele>501.1</ele>
        <time>2023-08-12T14:52:31Z</time>
      </trkpt>
      <trkpt lat="48.05428" lon="7.12745">
        <ele>501.3</ele>
        <time>2023-08-12T14:52:32Z</time>
      </trkpt>
      <trkpt lat="48.05424" lon="7.12748">
        <ele>501.7</ele>
        <time>2023-08-12T14:52:34Z</time>
      </trkpt>
      <trkpt lat="48.05422" lon="7.12748">
        <ele>501.9</ele>
        <time>2023-08-12T14:52:35Z</time>
      </trkpt>
      <trkpt lat="48.0542" lon="7.12749">
        <ele>502.1</ele>
        <time>2023-08-12T14:52:36Z</time>
      </trkpt>
      <trkpt lat="48.05417" lon="7.12749">
        <ele>502.3</ele>
        <time>2023-08-12T14:52:37Z</time>
      </trkpt>
      <trkpt lat="48.05411" lon="7.1275">
        <ele>502.9</ele>
        <time>2023-08-12T14:52:40Z</time>
      </trkpt>
      <trkpt lat="48.05408" lon="7.12751">
        <ele>503.2</ele>
        <time>2023-08-12T14:52:42Z</time>
      </trkpt>
      <trkpt lat="48.05407" lon="7.12751">
        <ele>503.3</ele>
        <time>2023-08-12T14:52:43Z</time>
      </trkpt>
      <trkpt lat="48.05402" lon="7.12753">
        <ele>503.7</ele>
        <time>2023-08-12T14:52:45Z</time>
      </trkpt>
      <trkpt lat="48.05396" lon="7.12753">
        <ele>504.3</ele>
        <time>2023-08-12T14:52:48Z</time>
      </trkpt>
      <trkpt lat="48.05394" lon="7.12753">
        <ele>504.5</ele>
        <time>2023-08-12T14:52:49Z</time>
      </trkpt>
      <trkpt lat="48.05391" lon="7.12753">
        <ele>504.8</ele>
        <time>2023-08-12T14:52:50Z</time>
      </trkpt>
      <trkpt lat="48.05389" lon="7.12753">
        <ele>505</ele>
        <time>2023-08-12T14:52:51Z</time>
      </trkpt>
      <trkpt lat="48.05384" lon="7.12751">
        <ele>505.4</ele>
        <time>2023-08-12T14:52:53Z</time>
      </trkpt>
      <trkpt lat="48.0538" lon="7.12748">
        <ele>505.8</ele>
        <time>2023-08-12T14:52:55Z</time>
      </trkpt>
      <trkpt lat="48.05378" lon="7.12746">
        <ele>506</ele>
        <time>2023-08-12T14:52:56Z</time>
      </trkpt>
      <trkpt lat="48.05374" lon="7.12743">
        <ele>506.4</ele>
        <time>2023-08-12T14:52:58Z</time>
      </trkpt>
      <trkpt lat="48.05369" lon="7.12737">
        <ele>507</ele>
        <time>2023-08-12T14:53:01Z</time>
      </trkpt>
      <trkpt lat="48.05367" lon="7.12735">
        <ele>507.2</ele>
        <time>2023-08-12T14:53:02Z</time>
      </trkpt>
      <trkpt lat="48.05366" lon="7.12733">
        <ele>507.3</ele>
        <time>2023-08-12T14:53:03Z</time>
      </trkpt>
      <trkpt lat="48.0536" lon="7.12727">
        <ele>507.9</ele>
        <time>2023-08-12T14:53:06Z</time>
      </trkpt>
      <trkpt lat="48.05353" lon="7.12722">
        <ele>508.4</ele>
        <time>2023-08-12T14:53:09Z</time>
      </trkpt>
      <trkpt lat="48.05348" lon="7.12721">
        <ele>508.9</ele>
        <time>2023-08-12T14:53:11Z</time>
      </trkpt>
      <trkpt lat="48.05346" lon="7.12722">
        <ele>509</ele>
        <time>2023-08-12T14:53:12Z</time>
      </trkpt>
      <trkpt lat="48.05343" lon="7.12722">
        <ele>509.2</ele>
        <time>2023-08-12T14:53:13Z</time>
      </trkpt>
      <trkpt lat="48.05339" lon="7.12724">
        <ele>509.6</ele>
        <time>2023-08-12T14:53:15Z</time>
      </trkpt>
      <trkpt lat="48.05335" lon="7.12724">
        <ele>510.4</ele>
        <time>2023-08-12T14:53:17Z</time>
      </trkpt>
      <trkpt lat="48.05333" lon="7.12724">
        <ele>510.7</ele>
        <time>2023-08-12T14:53:18Z</time>
      </trkpt>
      <trkpt lat="48.05331" lon="7.12724">
        <ele>510.9</ele>
        <time>2023-08-12T14:53:19Z</time>
      </trkpt>
      <trkpt lat="48.05329" lon="7.12723">
        <ele>511.1</ele>
        <time>2023-08-12T14:53:20Z</time>
      </trkpt>
      <trkpt lat="48.05327" lon="7.12722">
        <ele>511.3</ele>
        <time>2023-08-12T14:53:21Z</time>
      </trkpt>
      <trkpt lat="48.05325" lon="7.12721">
        <ele>511.6</ele>
        <time>2023-08-12T14:53:22Z</time>
      </trkpt>
      <trkpt lat="48.05323" lon="7.12721">
        <ele>511.8</ele>
        <time>2023-08-12T14:53:23Z</time>
      </trkpt>
      <trkpt lat="48.05321" lon="7.12719">
        <ele>512.1</ele>
        <time>2023-08-12T14:53:24Z</time>
      </trkpt>
      <trkpt lat="48.05319" lon="7.12719">
        <ele>512.3</ele>
        <time>2023-08-12T14:53:25Z</time>
      </trkpt>
      <trkpt lat="48.05318" lon="7.12718">
        <ele>512.6</ele>
        <time>2023-08-12T14:53:26Z</time>
      </trkpt>
      <trkpt lat="48.05316" lon="7.12718">
        <ele>512.7</ele>
        <time>2023-08-12T14:53:27Z</time>
      </trkpt>
      <trkpt lat="48.05315" lon="7.12717">
        <ele>513</ele>
        <time>2023-08-12T14:53:28Z</time>
      </trkpt>
      <trkpt lat="48.05313" lon="7.12716">
        <ele>513.2</ele>
        <time>2023-08-12T14:53:29Z</time>
      </trkpt>
      <trkpt lat="48.05312" lon="7.12715">
        <ele>513.4</ele>
        <time>2023-08-12T14:53:30Z</time>
      </trkpt>
      <trkpt lat="48.0531" lon="7.12714">
        <ele>513.6</ele>
        <time>2023-08-12T14:53:31Z</time>
      </trkpt>
      <trkpt lat="48.05309" lon="7.12714">
        <ele>513.8</ele>
        <time>2023-08-12T14:53:32Z</time>
      </trkpt>
      <trkpt lat="48.05307" lon="7.12714">
        <ele>514.1</ele>
        <time>2023-08-12T14:53:33Z</time>
      </trkpt>
      <trkpt lat="48.05306" lon="7.12714">
        <ele>514.3</ele>
        <time>2023-08-12T14:53:34Z</time>
      </trkpt>
      <trkpt lat="48.05304" lon="7.12713">
        <ele>514.5</ele>
        <time>2023-08-12T14:53:35Z</time>
      </trkpt>
      <trkpt lat="48.05303" lon="7.12713">
        <ele>514.7</ele>
        <time>2023-08-12T14:53:36Z</time>
      </trkpt>
      <trkpt lat="48.05301" lon="7.12713">
        <ele>515</ele>
        <time>2023-08-12T14:53:37Z</time>
      </trkpt>
      <trkpt lat="48.053" lon="7.12713">
        <ele>515.1</ele>
        <time>2023-08-12T14:53:38Z</time>
      </trkpt>
      <trkpt lat="48.05299" lon="7.12713">
        <ele>515.3</ele>
        <time>2023-08-12T14:53:39Z</time>
      </trkpt>
      <trkpt lat="48.05296" lon="7.12712">
        <ele>515.7</ele>
        <time>2023-08-12T14:53:41Z</time>
      </trkpt>
      <trkpt lat="48.0529" lon="7.12715">
        <ele>516.6</ele>
        <time>2023-08-12T14:53:45Z</time>
      </trkpt>
      <trkpt lat="48.05287" lon="7.12716">
        <ele>517</ele>
        <time>2023-08-12T14:53:47Z</time>
      </trkpt>
      <trkpt lat="48.05285" lon="7.12716">
        <ele>517.2</ele>
        <time>2023-08-12T14:53:48Z</time>
      </trkpt>
      <trkpt lat="48.05281" lon="7.12718">
        <ele>517.9</ele>
        <time>2023-08-12T14:53:51Z</time>
      </trkpt>
      <trkpt lat="48.0528" lon="7.1272">
        <ele>518.1</ele>
        <time>2023-08-12T14:53:52Z</time>
      </trkpt>
      <trkpt lat="48.05278" lon="7.12721">
        <ele>518.3</ele>
        <time>2023-08-12T14:53:53Z</time>
      </trkpt>
      <trkpt lat="48.05277" lon="7.12722">
        <ele>518.5</ele>
        <time>2023-08-12T14:53:54Z</time>
      </trkpt>
      <trkpt lat="48.05274" lon="7.12724">
        <ele>519</ele>
        <time>2023-08-12T14:53:56Z</time>
      </trkpt>
      <trkpt lat="48.05272" lon="7.12727">
        <ele>519.5</ele>
        <time>2023-08-12T14:53:58Z</time>
      </trkpt>
      <trkpt lat="48.0527" lon="7.1273">
        <ele>519.9</ele>
        <time>2023-08-12T14:54:00Z</time>
      </trkpt>
      <trkpt lat="48.05267" lon="7.12732">
        <ele>520.3</ele>
        <time>2023-08-12T14:54:02Z</time>
      </trkpt>
      <trkpt lat="48.05267" lon="7.12734">
        <ele>520.5</ele>
        <time>2023-08-12T14:54:03Z</time>
      </trkpt>
      <trkpt lat="48.05266" lon="7.12735">
        <ele>520.7</ele>
        <time>2023-08-12T14:54:04Z</time>
      </trkpt>
      <trkpt lat="48.05265" lon="7.12737">
        <ele>520.9</ele>
        <time>2023-08-12T14:54:05Z</time>
      </trkpt>
      <trkpt lat="48.05264" lon="7.12738">
        <ele>521.1</ele>
        <time>2023-08-12T14:54:06Z</time>
      </trkpt>
      <trkpt lat="48.05264" lon="7.1274">
        <ele>521.4</ele>
        <time>2023-08-12T14:54:07Z</time>
      </trkpt>
      <trkpt lat="48.05264" lon="7.12742">
        <ele>521.6</ele>
        <time>2023-08-12T14:54:08Z</time>
      </trkpt>
      <trkpt lat="48.05265" lon="7.12744">
        <ele>521.9</ele>
        <time>2023-08-12T14:54:09Z</time>
      </trkpt>
      <trkpt lat="48.05265" lon="7.12746">
        <ele>522.1</ele>
        <time>2023-08-12T14:54:10Z</time>
      </trkpt>
      <trkpt lat="48.05266" lon="7.12748">
        <ele>522.4</ele>
        <time>2023-08-12T14:54:11Z</time>
      </trkpt>
      <trkpt lat="48.05268" lon="7.12749">
        <ele>522.6</ele>
        <time>2023-08-12T14:54:12Z</time>
      </trkpt>
      <trkpt lat="48.05269" lon="7.1275">
        <ele>522.9</ele>
        <time>2023-08-12T14:54:13Z</time>
      </trkpt>
      <trkpt lat="48.0527" lon="7.12751">
        <ele>523.1</ele>
        <time>2023-08-12T14:54:14Z</time>
      </trkpt>
      <trkpt lat="48.05271" lon="7.12751">
        <ele>523.3</ele>
        <time>2023-08-12T14:54:15Z</time>
      </trkpt>
      <trkpt lat="48.05272" lon="7.12751">
        <ele>523.6</ele>
        <time>2023-08-12T14:54:16Z</time>
      </trkpt>
      <trkpt lat="48.05274" lon="7.1275">
        <ele>523.8</ele>
        <time>2023-08-12T14:54:17Z</time>
      </trkpt>
      <trkpt lat="48.05275" lon="7.1275">
        <ele>524.1</ele>
        <time>2023-08-12T14:54:18Z</time>
      </trkpt>
      <trkpt lat="48.05276" lon="7.12749">
        <ele>524.4</ele>
        <time>2023-08-12T14:54:19Z</time>
      </trkpt>
      <trkpt lat="48.05279" lon="7.1275">
        <ele>524.9</ele>
        <time>2023-08-12T14:54:21Z</time>
      </trkpt>
      <trkpt lat="48.0528" lon="7.1275">
        <ele>525.2</ele>
        <time>2023-08-12T14:54:22Z</time>
      </trkpt>
      <trkpt lat="48.05282" lon="7.12751">
        <ele>525.5</ele>
        <time>2023-08-12T14:54:23Z</time>
      </trkpt>
      <trkpt lat="48.05283" lon="7.12752">
        <ele>525.7</ele>
        <time>2023-08-12T14:54:24Z</time>
      </trkpt>
      <trkpt lat="48.05284" lon="7.12754">
        <ele>526</ele>
        <time>2023-08-12T14:54:25Z</time>
      </trkpt>
      <trkpt lat="48.05284" lon="7.12755">
        <ele>526.2</ele>
        <time>2023-08-12T14:54:26Z</time>
      </trkpt>
      <trkpt lat="48.05284" lon="7.12756">
        <ele>526.4</ele>
        <time>2023-08-12T14:54:27Z</time>
      </trkpt>
      <trkpt lat="48.05283" lon="7.12759">
        <ele>526.8</ele>
        <time>2023-08-12T14:54:29Z</time>
      </trkpt>
      <trkpt lat="48.05283" lon="7.12761">
        <ele>527.1</ele>
        <time>2023-08-12T14:54:30Z</time>
      </trkpt>
      <trkpt lat="48.05282" lon="7.12762">
        <ele>527.3</ele>
        <time>2023-08-12T14:54:31Z</time>
      </trkpt>
      <trkpt lat="48.05282" lon="7.12764">
        <ele>527.5</ele>
        <time>2023-08-12T14:54:32Z</time>
      </trkpt>
      <trkpt lat="48.05282" lon="7.12766">
        <ele>527.8</ele>
        <time>2023-08-12T14:54:33Z</time>
      </trkpt>
      <trkpt lat="48.05282" lon="7.12768">
        <ele>528</ele>
        <time>2023-08-12T14:54:34Z</time>
      </trkpt>
      <trkpt lat="48.05282" lon="7.1277">
        <ele>528.3</ele>
        <time>2023-08-12T14:54:35Z</time>
      </trkpt>
      <trkpt lat="48.05283" lon="7.12771">
        <ele>528.6</ele>
        <time>2023-08-12T14:54:36Z</time>
      </trkpt>
      <trkpt lat="48.05284" lon="7.12773">
        <ele>528.8</ele>
        <time>2023-08-12T14:54:37Z</time>
      </trkpt>
      <trkpt lat="48.05285" lon="7.12774">
        <ele>529</ele>
        <time>2023-08-12T14:54:38Z</time>
      </trkpt>
      <trkpt lat="48.05286" lon="7.12775">
        <ele>529.2</ele>
        <time>2023-08-12T14:54:39Z</time>
      </trkpt>
      <trkpt lat="48.05289" lon="7.12779">
        <ele>529.8</ele>
        <time>2023-08-12T14:54:42Z</time>
      </trkpt>
      <trkpt lat="48.0529" lon="7.12781">
        <ele>530.1</ele>
        <time>2023-08-12T14:54:43Z</time>
      </trkpt>
      <trkpt lat="48.05293" lon="7.12786">
        <ele>530.8</ele>
        <time>2023-08-12T14:54:46Z</time>
      </trkpt>
      <trkpt lat="48.05294" lon="7.12793">
        <ele>531.5</ele>
        <time>2023-08-12T14:54:49Z</time>
      </trkpt>
      <trkpt lat="48.05294" lon="7.12795">
        <ele>531.7</ele>
        <time>2023-08-12T14:54:50Z</time>
      </trkpt>
      <trkpt lat="48.05294" lon="7.12797">
        <ele>531.9</ele>
        <time>2023-08-12T14:54:51Z</time>
      </trkpt>
      <trkpt lat="48.05293" lon="7.12817">
        <ele>533.4</ele>
        <time>2023-08-12T14:54:59Z</time>
      </trkpt>
      <trkpt lat="48.05292" lon="7.12829">
        <ele>534.2</ele>
        <time>2023-08-12T14:55:04Z</time>
      </trkpt>
      <trkpt lat="48.0529" lon="7.12836">
        <ele>534.6</ele>
        <time>2023-08-12T14:55:07Z</time>
      </trkpt>
      <trkpt lat="48.05288" lon="7.12848">
        <ele>535.2</ele>
        <time>2023-08-12T14:55:11Z</time>
      </trkpt>
      <trkpt lat="48.05286" lon="7.12857">
        <ele>535.5</ele>
        <time>2023-08-12T14:55:14Z</time>
      </trkpt>
      <trkpt lat="48.05285" lon="7.12866">
        <ele>535.7</ele>
        <time>2023-08-12T14:55:17Z</time>
      </trkpt>
      <trkpt lat="48.05285" lon="7.12873">
        <ele>535.8</ele>
        <time>2023-08-12T14:55:19Z</time>
      </trkpt>
      <trkpt lat="48.05284" lon="7.1289">
        <ele>535.8</ele>
        <time>2023-08-12T14:55:23Z</time>
      </trkpt>
      <trkpt lat="48.05284" lon="7.12912">
        <ele>535.6</ele>
        <time>2023-08-12T14:55:27Z</time>
      </trkpt>
      <trkpt lat="48.05285" lon="7.12938">
        <ele>535.1</ele>
        <time>2023-08-12T14:55:31Z</time>
      </trkpt>
      <trkpt lat="48.05285" lon="7.1297">
        <ele>534.7</ele>
        <time>2023-08-12T14:55:35Z</time>
      </trkpt>
      <trkpt lat="48.05285" lon="7.12976">
        <ele>534.6</ele>
        <time>2023-08-12T14:55:36Z</time>
      </trkpt>
      <trkpt lat="48.05285" lon="7.12992">
        <ele>534.5</ele>
        <time>2023-08-12T14:55:38Z</time>
      </trkpt>
      <trkpt lat="48.05285" lon="7.12998">
        <ele>534.5</ele>
        <time>2023-08-12T14:55:39Z</time>
      </trkpt>
      <trkpt lat="48.05285" lon="7.13003">
        <ele>534.5</ele>
        <time>2023-08-12T14:55:40Z</time>
      </trkpt>
      <trkpt lat="48.05285" lon="7.13009">
        <ele>534.5</ele>
        <time>2023-08-12T14:55:41Z</time>
      </trkpt>
      <trkpt lat="48.05285" lon="7.13016">
        <ele>534.4</ele>
        <time>2023-08-12T14:55:42Z</time>
      </trkpt>
      <trkpt lat="48.05285" lon="7.13022">
        <ele>534.4</ele>
        <time>2023-08-12T14:55:43Z</time>
      </trkpt>
      <trkpt lat="48.05285" lon="7.13028">
        <ele>534.4</ele>
        <time>2023-08-12T14:55:44Z</time>
      </trkpt>
      <trkpt lat="48.05284" lon="7.13065">
        <ele>534.3</ele>
        <time>2023-08-12T14:55:50Z</time>
      </trkpt>
      <trkpt lat="48.05283" lon="7.13096">
        <ele>533.8</ele>
        <time>2023-08-12T14:55:55Z</time>
      </trkpt>
      <trkpt lat="48.05285" lon="7.1314">
        <ele>532.8</ele>
        <time>2023-08-12T14:56:00Z</time>
      </trkpt>
      <trkpt lat="48.05286" lon="7.13149">
        <ele>532.7</ele>
        <time>2023-08-12T14:56:01Z</time>
      </trkpt>
      <trkpt lat="48.05287" lon="7.13157">
        <ele>532.5</ele>
        <time>2023-08-12T14:56:02Z</time>
      </trkpt>
      <trkpt lat="48.05295" lon="7.13198">
        <ele>532.2</ele>
        <time>2023-08-12T14:56:07Z</time>
      </trkpt>
      <trkpt lat="48.05297" lon="7.13204">
        <ele>532.2</ele>
        <time>2023-08-12T14:56:08Z</time>
      </trkpt>
      <trkpt lat="48.05298" lon="7.1321">
        <ele>532.1</ele>
        <time>2023-08-12T14:56:09Z</time>
      </trkpt>
      <trkpt lat="48.053" lon="7.13218">
        <ele>532.1</ele>
        <time>2023-08-12T14:56:10Z</time>
      </trkpt>
      <trkpt lat="48.05302" lon="7.13225">
        <ele>532.1</ele>
        <time>2023-08-12T14:56:11Z</time>
      </trkpt>
      <trkpt lat="48.05303" lon="7.13231">
        <ele>532</ele>
        <time>2023-08-12T14:56:12Z</time>
      </trkpt>
      <trkpt lat="48.05304" lon="7.13237">
        <ele>532</ele>
        <time>2023-08-12T14:56:13Z</time>
      </trkpt>
      <trkpt lat="48.05306" lon="7.13243">
        <ele>531.9</ele>
        <time>2023-08-12T14:56:14Z</time>
      </trkpt>
      <trkpt lat="48.05308" lon="7.13249">
        <ele>531.8</ele>
        <time>2023-08-12T14:56:15Z</time>
      </trkpt>
      <trkpt lat="48.05309" lon="7.13256">
        <ele>531.7</ele>
        <time>2023-08-12T14:56:16Z</time>
      </trkpt>
      <trkpt lat="48.05312" lon="7.13264">
        <ele>531.6</ele>
        <time>2023-08-12T14:56:17Z</time>
      </trkpt>
      <trkpt lat="48.05317" lon="7.13275">
        <ele>531.4</ele>
        <time>2023-08-12T14:56:19Z</time>
      </trkpt>
      <trkpt lat="48.0532" lon="7.1328">
        <ele>530.9</ele>
        <time>2023-08-12T14:56:20Z</time>
      </trkpt>
      <trkpt lat="48.0532" lon="7.13282">
        <ele>530.7</ele>
        <time>2023-08-12T14:56:21Z</time>
      </trkpt>
      <trkpt lat="48.05319" lon="7.13282">
        <ele>530.5</ele>
        <time>2023-08-12T14:56:22Z</time>
      </trkpt>
      <trkpt lat="48.05318" lon="7.13283">
        <ele>530.3</ele>
        <time>2023-08-12T14:56:23Z</time>
      </trkpt>
      <trkpt lat="48.05317" lon="7.13283">
        <ele>530.1</ele>
        <time>2023-08-12T14:56:24Z</time>
      </trkpt>
      <trkpt lat="48.05315" lon="7.13284">
        <ele>529.9</ele>
        <time>2023-08-12T14:56:25Z</time>
      </trkpt>
      <trkpt lat="48.05314" lon="7.13284">
        <ele>529.6</ele>
        <time>2023-08-12T14:56:26Z</time>
      </trkpt>
      <trkpt lat="48.05313" lon="7.13284">
        <ele>529.4</ele>
        <time>2023-08-12T14:56:27Z</time>
      </trkpt>
      <trkpt lat="48.05312" lon="7.13285">
        <ele>529.2</ele>
        <time>2023-08-12T14:56:42Z</time>
      </trkpt>
      <trkpt lat="48.0531" lon="7.13285">
        <ele>529</ele>
        <time>2023-08-12T14:56:50Z</time>
      </trkpt>
      <trkpt lat="48.05309" lon="7.13286">
        <ele>528.7</ele>
        <time>2023-08-12T14:56:59Z</time>
      </trkpt>
      <trkpt lat="48.05308" lon="7.13286">
        <ele>528.5</ele>
        <time>2023-08-12T14:57:09Z</time>
      </trkpt>
      <trkpt lat="48.05307" lon="7.13286">
        <ele>528.3</ele>
        <time>2023-08-12T14:57:16Z</time>
      </trkpt>
      <trkpt lat="48.05305" lon="7.13287">
        <ele>528</ele>
        <time>2023-08-12T14:57:21Z</time>
      </trkpt>
      <trkpt lat="48.05304" lon="7.13287">
        <ele>527.8</ele>
        <time>2023-08-12T14:57:25Z</time>
      </trkpt>
      <trkpt lat="48.05303" lon="7.13288">
        <ele>527.5</ele>
        <time>2023-08-12T14:57:27Z</time>
      </trkpt>
      <trkpt lat="48.05302" lon="7.13288">
        <ele>527.3</ele>
        <time>2023-08-12T14:57:34Z</time>
      </trkpt>
      <trkpt lat="48.053" lon="7.13288">
        <ele>527</ele>
        <time>2023-08-12T14:57:35Z</time>
      </trkpt>
      <trkpt lat="48.05292" lon="7.13287">
        <ele>525.6</ele>
        <time>2023-08-12T14:57:36Z</time>
      </trkpt>
      <trkpt lat="48.05287" lon="7.13285">
        <ele>524.6</ele>
        <time>2023-08-12T14:57:37Z</time>
      </trkpt>
      <trkpt lat="48.0528" lon="7.1328">
        <ele>523.4</ele>
        <time>2023-08-12T14:57:38Z</time>
      </trkpt>
      <trkpt lat="48.05273" lon="7.13273">
        <ele>522.2</ele>
        <time>2023-08-12T14:57:39Z</time>
      </trkpt>
      <trkpt lat="48.05267" lon="7.13265">
        <ele>521</ele>
        <time>2023-08-12T14:57:40Z</time>
      </trkpt>
      <trkpt lat="48.05259" lon="7.13256">
        <ele>519.5</ele>
        <time>2023-08-12T14:57:41Z</time>
      </trkpt>
      <trkpt lat="48.05254" lon="7.13252">
        <ele>518.6</ele>
        <time>2023-08-12T14:57:42Z</time>
      </trkpt>
      <trkpt lat="48.05237" lon="7.13239">
        <ele>515.6</ele>
        <time>2023-08-12T14:57:44Z</time>
      </trkpt>
      <trkpt lat="48.05229" lon="7.13232">
        <ele>514.3</ele>
        <time>2023-08-12T14:57:45Z</time>
      </trkpt>
      <trkpt lat="48.05213" lon="7.13222">
        <ele>512.7</ele>
        <time>2023-08-12T14:57:47Z</time>
      </trkpt>
      <trkpt lat="48.05206" lon="7.13225">
        <ele>512.1</ele>
        <time>2023-08-12T14:57:48Z</time>
      </trkpt>
      <trkpt lat="48.05199" lon="7.13229">
        <ele>511.1</ele>
        <time>2023-08-12T14:57:49Z</time>
      </trkpt>
      <trkpt lat="48.05193" lon="7.13235">
        <ele>510.1</ele>
        <time>2023-08-12T14:57:50Z</time>
      </trkpt>
      <trkpt lat="48.05187" lon="7.13242">
        <ele>509.1</ele>
        <time>2023-08-12T14:57:51Z</time>
      </trkpt>
      <trkpt lat="48.05181" lon="7.13247">
        <ele>508.2</ele>
        <time>2023-08-12T14:57:52Z</time>
      </trkpt>
      <trkpt lat="48.05152" lon="7.13259">
        <ele>504.4</ele>
        <time>2023-08-12T14:57:56Z</time>
      </trkpt>
      <trkpt lat="48.05146" lon="7.13255">
        <ele>503.5</ele>
        <time>2023-08-12T14:57:57Z</time>
      </trkpt>
      <trkpt lat="48.05142" lon="7.13251">
        <ele>502.6</ele>
        <time>2023-08-12T14:57:58Z</time>
      </trkpt>
      <trkpt lat="48.05137" lon="7.13249">
        <ele>501.7</ele>
        <time>2023-08-12T14:57:59Z</time>
      </trkpt>
      <trkpt lat="48.05135" lon="7.1325">
        <ele>501.3</ele>
        <time>2023-08-12T14:58:00Z</time>
      </trkpt>
      <trkpt lat="48.05133" lon="7.13249">
        <ele>501</ele>
        <time>2023-08-12T14:58:01Z</time>
      </trkpt>
      <trkpt lat="48.05133" lon="7.13249">
        <ele>500.9</ele>
        <time>2023-08-12T14:58:02Z</time>
      </trkpt>
      <trkpt lat="48.05132" lon="7.13249">
        <ele>500.9</ele>
        <time>2023-08-12T14:58:03Z</time>
      </trkpt>
      <trkpt lat="48.05131" lon="7.13247">
        <ele>500.6</ele>
        <time>2023-08-12T14:58:04Z</time>
      </trkpt>
      <trkpt lat="48.05122" lon="7.13241">
        <ele>498.9</ele>
        <time>2023-08-12T14:58:07Z</time>
      </trkpt>
      <trkpt lat="48.05112" lon="7.13235">
        <ele>497.1</ele>
        <time>2023-08-12T14:58:09Z</time>
      </trkpt>
      <trkpt lat="48.05095" lon="7.13233">
        <ele>494.4</ele>
        <time>2023-08-12T14:58:11Z</time>
      </trkpt>
      <trkpt lat="48.05069" lon="7.13234">
        <ele>491.7</ele>
        <time>2023-08-12T14:58:14Z</time>
      </trkpt>
      <trkpt lat="48.05061" lon="7.13235">
        <ele>491</ele>
        <time>2023-08-12T14:58:15Z</time>
      </trkpt>
      <trkpt lat="48.05054" lon="7.13236">
        <ele>490.4</ele>
        <time>2023-08-12T14:58:16Z</time>
      </trkpt>
      <trkpt lat="48.05043" lon="7.13237">
        <ele>489.3</ele>
        <time>2023-08-12T14:58:17Z</time>
      </trkpt>
      <trkpt lat="48.05034" lon="7.1324">
        <ele>488.5</ele>
        <time>2023-08-12T14:58:18Z</time>
      </trkpt>
      <trkpt lat="48.05026" lon="7.13243">
        <ele>487.6</ele>
        <time>2023-08-12T14:58:19Z</time>
      </trkpt>
      <trkpt lat="48.05017" lon="7.13246">
        <ele>486.9</ele>
        <time>2023-08-12T14:58:20Z</time>
      </trkpt>
      <trkpt lat="48.05009" lon="7.13249">
        <ele>486.2</ele>
        <time>2023-08-12T14:58:21Z</time>
      </trkpt>
      <trkpt lat="48.05001" lon="7.1325">
        <ele>485.5</ele>
        <time>2023-08-12T14:58:22Z</time>
      </trkpt>
      <trkpt lat="48.0499" lon="7.13251">
        <ele>484.4</ele>
        <time>2023-08-12T14:58:23Z</time>
      </trkpt>
      <trkpt lat="48.04982" lon="7.1325">
        <ele>483.6</ele>
        <time>2023-08-12T14:58:24Z</time>
      </trkpt>
      <trkpt lat="48.04975" lon="7.1325">
        <ele>482.8</ele>
        <time>2023-08-12T14:58:25Z</time>
      </trkpt>
      <trkpt lat="48.04968" lon="7.1325">
        <ele>482</ele>
        <time>2023-08-12T14:58:26Z</time>
      </trkpt>
      <trkpt lat="48.04961" lon="7.1325">
        <ele>481.2</ele>
        <time>2023-08-12T14:58:27Z</time>
      </trkpt>
      <trkpt lat="48.04953" lon="7.13249">
        <ele>480.3</ele>
        <time>2023-08-12T14:58:28Z</time>
      </trkpt>
      <trkpt lat="48.04945" lon="7.13249">
        <ele>479.5</ele>
        <time>2023-08-12T14:58:29Z</time>
      </trkpt>
      <trkpt lat="48.04937" lon="7.13248">
        <ele>478.4</ele>
        <time>2023-08-12T14:58:30Z</time>
      </trkpt>
      <trkpt lat="48.04931" lon="7.13251">
        <ele>477.5</ele>
        <time>2023-08-12T14:58:31Z</time>
      </trkpt>
      <trkpt lat="48.04925" lon="7.13254">
        <ele>476.5</ele>
        <time>2023-08-12T14:58:32Z</time>
      </trkpt>
      <trkpt lat="48.0492" lon="7.13256">
        <ele>475.7</ele>
        <time>2023-08-12T14:58:33Z</time>
      </trkpt>
      <trkpt lat="48.04914" lon="7.13258">
        <ele>474.9</ele>
        <time>2023-08-12T14:58:34Z</time>
      </trkpt>
      <trkpt lat="48.04908" lon="7.13259">
        <ele>474.1</ele>
        <time>2023-08-12T14:58:35Z</time>
      </trkpt>
      <trkpt lat="48.04899" lon="7.13259">
        <ele>472.8</ele>
        <time>2023-08-12T14:58:36Z</time>
      </trkpt>
      <trkpt lat="48.04889" lon="7.1326">
        <ele>471.8</ele>
        <time>2023-08-12T14:58:37Z</time>
      </trkpt>
      <trkpt lat="48.04882" lon="7.13258">
        <ele>471.2</ele>
        <time>2023-08-12T14:58:38Z</time>
      </trkpt>
      <trkpt lat="48.04874" lon="7.13256">
        <ele>470.5</ele>
        <time>2023-08-12T14:58:39Z</time>
      </trkpt>
      <trkpt lat="48.04867" lon="7.13254">
        <ele>469.8</ele>
        <time>2023-08-12T14:58:40Z</time>
      </trkpt>
      <trkpt lat="48.04861" lon="7.13255">
        <ele>469</ele>
        <time>2023-08-12T14:58:41Z</time>
      </trkpt>
      <trkpt lat="48.04856" lon="7.13256">
        <ele>468.4</ele>
        <time>2023-08-12T14:58:42Z</time>
      </trkpt>
      <trkpt lat="48.04852" lon="7.13257">
        <ele>467.7</ele>
        <time>2023-08-12T14:58:43Z</time>
      </trkpt>
      <trkpt lat="48.04847" lon="7.13257">
        <ele>467</ele>
        <time>2023-08-12T14:58:44Z</time>
      </trkpt>
      <trkpt lat="48.04842" lon="7.13256">
        <ele>466.2</ele>
        <time>2023-08-12T14:58:45Z</time>
      </trkpt>
      <trkpt lat="48.04835" lon="7.13256">
        <ele>465.4</ele>
        <time>2023-08-12T14:58:46Z</time>
      </trkpt>
      <trkpt lat="48.04827" lon="7.13255">
        <ele>464.7</ele>
        <time>2023-08-12T14:58:47Z</time>
      </trkpt>
      <trkpt lat="48.0482" lon="7.13255">
        <ele>464.1</ele>
        <time>2023-08-12T14:58:48Z</time>
      </trkpt>
      <trkpt lat="48.04813" lon="7.13257">
        <ele>463.6</ele>
        <time>2023-08-12T14:58:49Z</time>
      </trkpt>
      <trkpt lat="48.04807" lon="7.13261">
        <ele>463</ele>
        <time>2023-08-12T14:58:50Z</time>
      </trkpt>
      <trkpt lat="48.04803" lon="7.13266">
        <ele>462.4</ele>
        <time>2023-08-12T14:58:51Z</time>
      </trkpt>
      <trkpt lat="48.048" lon="7.13269">
        <ele>461.9</ele>
        <time>2023-08-12T14:58:52Z</time>
      </trkpt>
      <trkpt lat="48.04799" lon="7.13271">
        <ele>461.6</ele>
        <time>2023-08-12T14:58:53Z</time>
      </trkpt>
      <trkpt lat="48.04799" lon="7.13271">
        <ele>461.5</ele>
        <time>2023-08-12T14:58:54Z</time>
      </trkpt>
      <trkpt lat="48.04798" lon="7.13273">
        <ele>461.4</ele>
        <time>2023-08-12T14:58:59Z</time>
      </trkpt>
      <trkpt lat="48.04798" lon="7.13274">
        <ele>461.2</ele>
        <time>2023-08-12T14:59:00Z</time>
      </trkpt>
      <trkpt lat="48.04796" lon="7.13275">
        <ele>460.9</ele>
        <time>2023-08-12T14:59:01Z</time>
      </trkpt>
      <trkpt lat="48.04795" lon="7.13276">
        <ele>460.5</ele>
        <time>2023-08-12T14:59:02Z</time>
      </trkpt>
      <trkpt lat="48.04794" lon="7.13277">
        <ele>460.2</ele>
        <time>2023-08-12T14:59:03Z</time>
      </trkpt>
      <trkpt lat="48.04793" lon="7.13277">
        <ele>460</ele>
        <time>2023-08-12T14:59:04Z</time>
      </trkpt>
      <trkpt lat="48.04793" lon="7.13277">
        <ele>460</ele>
        <time>2023-08-12T14:59:05Z</time>
      </trkpt>
      <trkpt lat="48.04793" lon="7.13277">
        <ele>460</ele>
        <time>2023-08-12T14:59:08Z</time>
      </trkpt>
      <trkpt lat="48.04793" lon="7.13277">
        <ele>460</ele>
        <time>2023-08-12T14:59:16Z</time>
      </trkpt>
      <trkpt lat="48.04793" lon="7.13277">
        <ele>460</ele>
        <time>2023-08-12T14:59:21Z</time>
      </trkpt>
      <trkpt lat="48.04793" lon="7.13277">
        <ele>460</ele>
        <time>2023-08-12T14:59:24Z</time>
      </trkpt>
      <trkpt lat="48.04791" lon="7.1328">
        <ele>459.4</ele>
        <time>2023-08-12T14:59:25Z</time>
      </trkpt>
      <trkpt lat="48.0479" lon="7.13283">
        <ele>458.7</ele>
        <time>2023-08-12T14:59:26Z</time>
      </trkpt>
      <trkpt lat="48.0479" lon="7.13287">
        <ele>458</ele>
        <time>2023-08-12T14:59:27Z</time>
      </trkpt>
      <trkpt lat="48.04789" lon="7.13292">
        <ele>457.1</ele>
        <time>2023-08-12T14:59:28Z</time>
      </trkpt>
      <trkpt lat="48.04787" lon="7.13295">
        <ele>456.3</ele>
        <time>2023-08-12T14:59:29Z</time>
      </trkpt>
      <trkpt lat="48.04785" lon="7.13295">
        <ele>455.6</ele>
        <time>2023-08-12T14:59:30Z</time>
      </trkpt>
      <trkpt lat="48.04781" lon="7.13295">
        <ele>454.7</ele>
        <time>2023-08-12T14:59:31Z</time>
      </trkpt>
      <trkpt lat="48.04777" lon="7.13297">
        <ele>453.5</ele>
        <time>2023-08-12T14:59:32Z</time>
      </trkpt>
      <trkpt lat="48.04774" lon="7.13299">
        <ele>452.5</ele>
        <time>2023-08-12T14:59:33Z</time>
      </trkpt>
      <trkpt lat="48.0477" lon="7.133">
        <ele>451.1</ele>
        <time>2023-08-12T14:59:34Z</time>
      </trkpt>
      <trkpt lat="48.04767" lon="7.133">
        <ele>450.2</ele>
        <time>2023-08-12T14:59:35Z</time>
      </trkpt>
      <trkpt lat="48.04758" lon="7.13303">
        <ele>447.5</ele>
        <time>2023-08-12T14:59:38Z</time>
      </trkpt>
      <trkpt lat="48.04755" lon="7.13301">
        <ele>446.6</ele>
        <time>2023-08-12T14:59:39Z</time>
      </trkpt>
      <trkpt lat="48.04752" lon="7.13297">
        <ele>445.7</ele>
        <time>2023-08-12T14:59:40Z</time>
      </trkpt>
      <trkpt lat="48.04748" lon="7.13294">
        <ele>444.5</ele>
        <time>2023-08-12T14:59:41Z</time>
      </trkpt>
      <trkpt lat="48.04742" lon="7.13292">
        <ele>443.2</ele>
        <time>2023-08-12T14:59:42Z</time>
      </trkpt>
      <trkpt lat="48.04737" lon="7.13293">
        <ele>442</ele>
        <time>2023-08-12T14:59:43Z</time>
      </trkpt>
      <trkpt lat="48.04733" lon="7.13293">
        <ele>440.8</ele>
        <time>2023-08-12T14:59:44Z</time>
      </trkpt>
      <trkpt lat="48.0473" lon="7.13293">
        <ele>440.1</ele>
        <time>2023-08-12T14:59:45Z</time>
      </trkpt>
      <trkpt lat="48.04726" lon="7.13289">
        <ele>438.9</ele>
        <time>2023-08-12T14:59:46Z</time>
      </trkpt>
      <trkpt lat="48.04722" lon="7.13287">
        <ele>437.8</ele>
        <time>2023-08-12T14:59:47Z</time>
      </trkpt>
      <trkpt lat="48.04718" lon="7.13289">
        <ele>436.7</ele>
        <time>2023-08-12T14:59:48Z</time>
      </trkpt>
      <trkpt lat="48.04716" lon="7.13291">
        <ele>435</ele>
        <time>2023-08-12T14:59:49Z</time>
      </trkpt>
      <trkpt lat="48.04714" lon="7.1329">
        <ele>434.9</ele>
        <time>2023-08-12T14:59:50Z</time>
      </trkpt>
      <trkpt lat="48.04714" lon="7.13288">
        <ele>434.8</ele>
        <time>2023-08-12T14:59:51Z</time>
      </trkpt>
      <trkpt lat="48.04713" lon="7.13286">
        <ele>434.8</ele>
        <time>2023-08-12T14:59:52Z</time>
      </trkpt>
      <trkpt lat="48.04713" lon="7.13284">
        <ele>434.7</ele>
        <time>2023-08-12T14:59:53Z</time>
      </trkpt>
      <trkpt lat="48.04712" lon="7.13282">
        <ele>434.7</ele>
        <time>2023-08-12T14:59:54Z</time>
      </trkpt>
      <trkpt lat="48.04711" lon="7.1328">
        <ele>434.6</ele>
        <time>2023-08-12T14:59:55Z</time>
      </trkpt>
      <trkpt lat="48.0471" lon="7.13278">
        <ele>434.6</ele>
        <time>2023-08-12T14:59:56Z</time>
      </trkpt>
      <trkpt lat="48.04709" lon="7.13275">
        <ele>434.6</ele>
        <time>2023-08-12T14:59:57Z</time>
      </trkpt>
      <trkpt lat="48.04708" lon="7.13273">
        <ele>434.6</ele>
        <time>2023-08-12T14:59:58Z</time>
      </trkpt>
      <trkpt lat="48.04707" lon="7.13271">
        <ele>434.6</ele>
        <time>2023-08-12T14:59:59Z</time>
      </trkpt>
      <trkpt lat="48.04704" lon="7.13269">
        <ele>434.7</ele>
        <time>2023-08-12T15:00:01Z</time>
      </trkpt>
      <trkpt lat="48.04703" lon="7.13268">
        <ele>434.7</ele>
        <time>2023-08-12T15:00:02Z</time>
      </trkpt>
      <trkpt lat="48.04703" lon="7.13267">
        <ele>434.7</ele>
        <time>2023-08-12T15:00:03Z</time>
      </trkpt>
      <trkpt lat="48.04703" lon="7.13267">
        <ele>434.7</ele>
        <time>2023-08-12T15:00:04Z</time>
      </trkpt>
      <trkpt lat="48.04699" lon="7.13261">
        <ele>435</ele>
        <time>2023-08-12T15:00:10Z</time>
      </trkpt>
      <trkpt lat="48.04698" lon="7.1326">
        <ele>435.1</ele>
        <time>2023-08-12T15:00:11Z</time>
      </trkpt>
      <trkpt lat="48.04697" lon="7.13259">
        <ele>435.1</ele>
        <time>2023-08-12T15:00:12Z</time>
      </trkpt>
      <trkpt lat="48.04695" lon="7.13258">
        <ele>435.2</ele>
        <time>2023-08-12T15:00:13Z</time>
      </trkpt>
      <trkpt lat="48.04691" lon="7.13254">
        <ele>435.4</ele>
        <time>2023-08-12T15:00:15Z</time>
      </trkpt>
      <trkpt lat="48.04677" lon="7.13245">
        <ele>435.6</ele>
        <time>2023-08-12T15:00:22Z</time>
      </trkpt>
      <trkpt lat="48.04663" lon="7.13241">
        <ele>434.8</ele>
        <time>2023-08-12T15:00:26Z</time>
      </trkpt>
      <trkpt lat="48.04658" lon="7.1324">
        <ele>434.3</ele>
        <time>2023-08-12T15:00:27Z</time>
      </trkpt>
      <trkpt lat="48.04652" lon="7.1324">
        <ele>433.8</ele>
        <time>2023-08-12T15:00:28Z</time>
      </trkpt>
      <trkpt lat="48.0463" lon="7.1324">
        <ele>431.5</ele>
        <time>2023-08-12T15:00:31Z</time>
      </trkpt>
      <trkpt lat="48.04619" lon="7.1324">
        <ele>430.2</ele>
        <time>2023-08-12T15:00:33Z</time>
      </trkpt>
      <trkpt lat="48.04614" lon="7.13241">
        <ele>429.4</ele>
        <time>2023-08-12T15:00:34Z</time>
      </trkpt>
      <trkpt lat="48.04609" lon="7.13243">
        <ele>428.5</ele>
        <time>2023-08-12T15:00:35Z</time>
      </trkpt>
      <trkpt lat="48.04605" lon="7.13245">
        <ele>427.7</ele>
        <time>2023-08-12T15:00:36Z</time>
      </trkpt>
      <trkpt lat="48.04603" lon="7.13246">
        <ele>427.1</ele>
        <time>2023-08-12T15:00:37Z</time>
      </trkpt>
      <trkpt lat="48.04601" lon="7.13245">
        <ele>426.6</ele>
        <time>2023-08-12T15:00:38Z</time>
      </trkpt>
      <trkpt lat="48.04599" lon="7.13245">
        <ele>426.2</ele>
        <time>2023-08-12T15:00:39Z</time>
      </trkpt>
      <trkpt lat="48.04596" lon="7.13245">
        <ele>425.5</ele>
        <time>2023-08-12T15:00:40Z</time>
      </trkpt>
      <trkpt lat="48.04591" lon="7.13246">
        <ele>423.8</ele>
        <time>2023-08-12T15:00:42Z</time>
      </trkpt>
      <trkpt lat="48.04589" lon="7.13247">
        <ele>423.3</ele>
        <time>2023-08-12T15:00:43Z</time>
      </trkpt>
      <trkpt lat="48.04588" lon="7.13248">
        <ele>423</ele>
        <time>2023-08-12T15:00:44Z</time>
      </trkpt>
      <trkpt lat="48.04589" lon="7.13249">
        <ele>422.8</ele>
        <time>2023-08-12T15:00:45Z</time>
      </trkpt>
      <trkpt lat="48.0459" lon="7.1325">
        <ele>422.4</ele>
        <time>2023-08-12T15:00:46Z</time>
      </trkpt>
      <trkpt lat="48.04591" lon="7.13251">
        <ele>422</ele>
        <time>2023-08-12T15:00:47Z</time>
      </trkpt>
      <trkpt lat="48.04593" lon="7.13252">
        <ele>421.4</ele>
        <time>2023-08-12T15:00:49Z</time>
      </trkpt>
      <trkpt lat="48.04593" lon="7.13252">
        <ele>421.4</ele>
        <time>2023-08-12T15:00:50Z</time>
      </trkpt>
      <trkpt lat="48.04593" lon="7.13252">
        <ele>421.2</ele>
        <time>2023-08-12T15:00:51Z</time>
      </trkpt>
      <trkpt lat="48.04591" lon="7.13253">
        <ele>420.9</ele>
        <time>2023-08-12T15:00:52Z</time>
      </trkpt>
      <trkpt lat="48.0459" lon="7.13253">
        <ele>420.4</ele>
        <time>2023-08-12T15:00:53Z</time>
      </trkpt>
      <trkpt lat="48.04587" lon="7.13253">
        <ele>419.5</ele>
        <time>2023-08-12T15:00:54Z</time>
      </trkpt>
      <trkpt lat="48.04582" lon="7.13255">
        <ele>418.1</ele>
        <time>2023-08-12T15:00:55Z</time>
      </trkpt>
      <trkpt lat="48.04577" lon="7.13257">
        <ele>416.4</ele>
        <time>2023-08-12T15:00:56Z</time>
      </trkpt>
      <trkpt lat="48.04558" lon="7.13261">
        <ele>412.2</ele>
        <time>2023-08-12T15:00:59Z</time>
      </trkpt>
      <trkpt lat="48.04551" lon="7.13264">
        <ele>410.8</ele>
        <time>2023-08-12T15:01:00Z</time>
      </trkpt>
      <trkpt lat="48.04544" lon="7.13269">
        <ele>409.7</ele>
        <time>2023-08-12T15:01:01Z</time>
      </trkpt>
      <trkpt lat="48.04538" lon="7.13274">
        <ele>408.7</ele>
        <time>2023-08-12T15:01:02Z</time>
      </trkpt>
      <trkpt lat="48.04532" lon="7.13279">
        <ele>407.8</ele>
        <time>2023-08-12T15:01:03Z</time>
      </trkpt>
      <trkpt lat="48.04528" lon="7.13285">
        <ele>406.9</ele>
        <time>2023-08-12T15:01:04Z</time>
      </trkpt>
      <trkpt lat="48.04524" lon="7.13293">
        <ele>406</ele>
        <time>2023-08-12T15:01:05Z</time>
      </trkpt>
      <trkpt lat="48.04522" lon="7.133">
        <ele>405</ele>
        <time>2023-08-12T15:01:06Z</time>
      </trkpt>
      <trkpt lat="48.04519" lon="7.13305">
        <ele>404.1</ele>
        <time>2023-08-12T15:01:07Z</time>
      </trkpt>
      <trkpt lat="48.04517" lon="7.1331">
        <ele>403.4</ele>
        <time>2023-08-12T15:01:08Z</time>
      </trkpt>
      <trkpt lat="48.04515" lon="7.13314">
        <ele>402.6</ele>
        <time>2023-08-12T15:01:09Z</time>
      </trkpt>
      <trkpt lat="48.04513" lon="7.13318">
        <ele>401.8</ele>
        <time>2023-08-12T15:01:10Z</time>
      </trkpt>
      <trkpt lat="48.04512" lon="7.13322">
        <ele>401.1</ele>
        <time>2023-08-12T15:01:11Z</time>
      </trkpt>
      <trkpt lat="48.04509" lon="7.13325">
        <ele>400.3</ele>
        <time>2023-08-12T15:01:12Z</time>
      </trkpt>
      <trkpt lat="48.04504" lon="7.13327">
        <ele>399.4</ele>
        <time>2023-08-12T15:01:13Z</time>
      </trkpt>
      <trkpt lat="48.04499" lon="7.13328">
        <ele>398.5</ele>
        <time>2023-08-12T15:01:14Z</time>
      </trkpt>
      <trkpt lat="48.04493" lon="7.13329">
        <ele>397.6</ele>
        <time>2023-08-12T15:01:15Z</time>
      </trkpt>
      <trkpt lat="48.04488" lon="7.1333">
        <ele>396.9</ele>
        <time>2023-08-12T15:01:16Z</time>
      </trkpt>
      <trkpt lat="48.04483" lon="7.1333">
        <ele>396.4</ele>
        <time>2023-08-12T15:01:17Z</time>
      </trkpt>
      <trkpt lat="48.0448" lon="7.13331">
        <ele>396</ele>
        <time>2023-08-12T15:01:18Z</time>
      </trkpt>
      <trkpt lat="48.04478" lon="7.13334">
        <ele>395.8</ele>
        <time>2023-08-12T15:01:19Z</time>
      </trkpt>
      <trkpt lat="48.04476" lon="7.13336">
        <ele>395.8</ele>
        <time>2023-08-12T15:01:20Z</time>
      </trkpt>
      <trkpt lat="48.04475" lon="7.13338">
        <ele>395.6</ele>
        <time>2023-08-12T15:01:21Z</time>
      </trkpt>
      <trkpt lat="48.04474" lon="7.1334">
        <ele>395.5</ele>
        <time>2023-08-12T15:01:22Z</time>
      </trkpt>
      <trkpt lat="48.04474" lon="7.1334">
        <ele>395.4</ele>
        <time>2023-08-12T15:01:23Z</time>
      </trkpt>
      <trkpt lat="48.04473" lon="7.1334">
        <ele>395.4</ele>
        <time>2023-08-12T15:01:25Z</time>
      </trkpt>
      <trkpt lat="48.04473" lon="7.1334">
        <ele>395.4</ele>
        <time>2023-08-12T15:01:31Z</time>
      </trkpt>
      <trkpt lat="48.04465" lon="7.13339">
        <ele>394.7</ele>
        <time>2023-08-12T15:01:41Z</time>
      </trkpt>
      <trkpt lat="48.04457" lon="7.13337">
        <ele>394.1</ele>
        <time>2023-08-12T15:01:43Z</time>
      </trkpt>
      <trkpt lat="48.04442" lon="7.13333">
        <ele>393.2</ele>
        <time>2023-08-12T15:01:46Z</time>
      </trkpt>
      <trkpt lat="48.0443" lon="7.13327">
        <ele>392.7</ele>
        <time>2023-08-12T15:01:48Z</time>
      </trkpt>
      <trkpt lat="48.04407" lon="7.13313">
        <ele>392</ele>
        <time>2023-08-12T15:01:52Z</time>
      </trkpt>
      <trkpt lat="48.04402" lon="7.1331">
        <ele>392</ele>
        <time>2023-08-12T15:01:53Z</time>
      </trkpt>
      <trkpt lat="48.04397" lon="7.13306">
        <ele>391.9</ele>
        <time>2023-08-12T15:01:54Z</time>
      </trkpt>
      <trkpt lat="48.04392" lon="7.13302">
        <ele>391.9</ele>
        <time>2023-08-12T15:01:55Z</time>
      </trkpt>
      <trkpt lat="48.04379" lon="7.13289">
        <ele>391.8</ele>
        <time>2023-08-12T15:01:58Z</time>
      </trkpt>
      <trkpt lat="48.04374" lon="7.13285">
        <ele>391.8</ele>
        <time>2023-08-12T15:01:59Z</time>
      </trkpt>
      <trkpt lat="48.0437" lon="7.13281">
        <ele>391.8</ele>
        <time>2023-08-12T15:02:00Z</time>
      </trkpt>
      <trkpt lat="48.04366" lon="7.13277">
        <ele>391.8</ele>
        <time>2023-08-12T15:02:01Z</time>
      </trkpt>
      <trkpt lat="48.04362" lon="7.13274">
        <ele>391.8</ele>
        <time>2023-08-12T15:02:02Z</time>
      </trkpt>
      <trkpt lat="48.04358" lon="7.1327">
        <ele>391.8</ele>
        <time>2023-08-12T15:02:03Z</time>
      </trkpt>
      <trkpt lat="48.04354" lon="7.13266">
        <ele>391.8</ele>
        <time>2023-08-12T15:02:04Z</time>
      </trkpt>
      <trkpt lat="48.0435" lon="7.13263">
        <ele>391.8</ele>
        <time>2023-08-12T15:02:05Z</time>
      </trkpt>
      <trkpt lat="48.04346" lon="7.13259">
        <ele>391.7</ele>
        <time>2023-08-12T15:02:06Z</time>
      </trkpt>
      <trkpt lat="48.04343" lon="7.13256">
        <ele>391.7</ele>
        <time>2023-08-12T15:02:07Z</time>
      </trkpt>
      <trkpt lat="48.04339" lon="7.13252">
        <ele>391.7</ele>
        <time>2023-08-12T15:02:08Z</time>
      </trkpt>
      <trkpt lat="48.04335" lon="7.13248">
        <ele>391.7</ele>
        <time>2023-08-12T15:02:09Z</time>
      </trkpt>
      <trkpt lat="48.04332" lon="7.13245">
        <ele>391.7</ele>
        <time>2023-08-12T15:02:10Z</time>
      </trkpt>
      <trkpt lat="48.04328" lon="7.13242">
        <ele>391.7</ele>
        <time>2023-08-12T15:02:11Z</time>
      </trkpt>
      <trkpt lat="48.04324" lon="7.13238">
        <ele>391.7</ele>
        <time>2023-08-12T15:02:12Z</time>
      </trkpt>
      <trkpt lat="48.04321" lon="7.13235">
        <ele>391.7</ele>
        <time>2023-08-12T15:02:13Z</time>
      </trkpt>
      <trkpt lat="48.04317" lon="7.13232">
        <ele>391.7</ele>
        <time>2023-08-12T15:02:14Z</time>
      </trkpt>
      <trkpt lat="48.04314" lon="7.13229">
        <ele>391.7</ele>
        <time>2023-08-12T15:02:15Z</time>
      </trkpt>
      <trkpt lat="48.04311" lon="7.13226">
        <ele>391.7</ele>
        <time>2023-08-12T15:02:16Z</time>
      </trkpt>
      <trkpt lat="48.04308" lon="7.13222">
        <ele>391.7</ele>
        <time>2023-08-12T15:02:17Z</time>
      </trkpt>
      <trkpt lat="48.04304" lon="7.1322">
        <ele>391.7</ele>
        <time>2023-08-12T15:02:18Z</time>
      </trkpt>
      <trkpt lat="48.043" lon="7.13218">
        <ele>391.6</ele>
        <time>2023-08-12T15:02:19Z</time>
      </trkpt>
      <trkpt lat="48.04297" lon="7.13215">
        <ele>391.6</ele>
        <time>2023-08-12T15:02:20Z</time>
      </trkpt>
      <trkpt lat="48.04289" lon="7.1321">
        <ele>391.6</ele>
        <time>2023-08-12T15:02:22Z</time>
      </trkpt>
      <trkpt lat="48.04282" lon="7.13205">
        <ele>391.6</ele>
        <time>2023-08-12T15:02:24Z</time>
      </trkpt>
      <trkpt lat="48.04265" lon="7.13195">
        <ele>391.6</ele>
        <time>2023-08-12T15:02:28Z</time>
      </trkpt>
      <trkpt lat="48.04253" lon="7.13188">
        <ele>391.6</ele>
        <time>2023-08-12T15:02:31Z</time>
      </trkpt>
      <trkpt lat="48.04241" lon="7.13181">
        <ele>391.7</ele>
        <time>2023-08-12T15:02:34Z</time>
      </trkpt>
      <trkpt lat="48.04229" lon="7.13175">
        <ele>391.7</ele>
        <time>2023-08-12T15:02:37Z</time>
      </trkpt>
      <trkpt lat="48.04221" lon="7.13169">
        <ele>391.8</ele>
        <time>2023-08-12T15:02:39Z</time>
      </trkpt>
      <trkpt lat="48.04218" lon="7.13166">
        <ele>391.8</ele>
        <time>2023-08-12T15:02:40Z</time>
      </trkpt>
      <trkpt lat="48.04214" lon="7.13163">
        <ele>391.9</ele>
        <time>2023-08-12T15:02:41Z</time>
      </trkpt>
      <trkpt lat="48.04211" lon="7.1316">
        <ele>391.9</ele>
        <time>2023-08-12T15:02:42Z</time>
      </trkpt>
      <trkpt lat="48.04204" lon="7.13155">
        <ele>392</ele>
        <time>2023-08-12T15:02:44Z</time>
      </trkpt>
      <trkpt lat="48.04201" lon="7.13153">
        <ele>392</ele>
        <time>2023-08-12T15:02:45Z</time>
      </trkpt>
      <trkpt lat="48.04197" lon="7.13152">
        <ele>392</ele>
        <time>2023-08-12T15:02:46Z</time>
      </trkpt>
      <trkpt lat="48.04194" lon="7.13154">
        <ele>391.7</ele>
        <time>2023-08-12T15:02:47Z</time>
      </trkpt>
      <trkpt lat="48.04191" lon="7.13157">
        <ele>391.6</ele>
        <time>2023-08-12T15:02:48Z</time>
      </trkpt>
      <trkpt lat="48.04188" lon="7.1316">
        <ele>391.5</ele>
        <time>2023-08-12T15:02:49Z</time>
      </trkpt>
      <trkpt lat="48.04185" lon="7.13164">
        <ele>391.4</ele>
        <time>2023-08-12T15:02:50Z</time>
      </trkpt>
      <trkpt lat="48.04182" lon="7.13169">
        <ele>391.3</ele>
        <time>2023-08-12T15:02:51Z</time>
      </trkpt>
      <trkpt lat="48.0418" lon="7.13175">
        <ele>391.2</ele>
        <time>2023-08-12T15:02:52Z</time>
      </trkpt>
      <trkpt lat="48.04177" lon="7.13181">
        <ele>391.1</ele>
        <time>2023-08-12T15:02:53Z</time>
      </trkpt>
      <trkpt lat="48.04175" lon="7.13188">
        <ele>391</ele>
        <time>2023-08-12T15:02:54Z</time>
      </trkpt>
      <trkpt lat="48.04167" lon="7.13208">
        <ele>391.2</ele>
        <time>2023-08-12T15:02:57Z</time>
      </trkpt>
      <trkpt lat="48.04163" lon="7.13214">
        <ele>391.2</ele>
        <time>2023-08-12T15:02:58Z</time>
      </trkpt>
      <trkpt lat="48.04156" lon="7.13225">
        <ele>391.1</ele>
        <time>2023-08-12T15:03:00Z</time>
      </trkpt>
      <trkpt lat="48.04153" lon="7.1323">
        <ele>390.9</ele>
        <time>2023-08-12T15:03:01Z</time>
      </trkpt>
      <trkpt lat="48.04144" lon="7.13237">
        <ele>390.7</ele>
        <time>2023-08-12T15:03:03Z</time>
      </trkpt>
      <trkpt lat="48.04139" lon="7.1324">
        <ele>390.5</ele>
        <time>2023-08-12T15:03:04Z</time>
      </trkpt>
      <trkpt lat="48.04124" lon="7.13246">
        <ele>390.2</ele>
        <time>2023-08-12T15:03:07Z</time>
      </trkpt>
      <trkpt lat="48.04119" lon="7.13247">
        <ele>390.1</ele>
        <time>2023-08-12T15:03:08Z</time>
      </trkpt>
      <trkpt lat="48.04115" lon="7.13248">
        <ele>390.2</ele>
        <time>2023-08-12T15:03:09Z</time>
      </trkpt>
      <trkpt lat="48.0411" lon="7.13247">
        <ele>390.2</ele>
        <time>2023-08-12T15:03:10Z</time>
      </trkpt>
      <trkpt lat="48.04106" lon="7.13245">
        <ele>390.3</ele>
        <time>2023-08-12T15:03:11Z</time>
      </trkpt>
      <trkpt lat="48.04105" lon="7.13242">
        <ele>390.3</ele>
        <time>2023-08-12T15:03:12Z</time>
      </trkpt>
      <trkpt lat="48.04104" lon="7.13238">
        <ele>390.3</ele>
        <time>2023-08-12T15:03:13Z</time>
      </trkpt>
      <trkpt lat="48.04104" lon="7.13235">
        <ele>390.3</ele>
        <time>2023-08-12T15:03:14Z</time>
      </trkpt>
      <trkpt lat="48.04102" lon="7.13233">
        <ele>390.3</ele>
        <time>2023-08-12T15:03:15Z</time>
      </trkpt>
      <trkpt lat="48.041" lon="7.13234">
        <ele>390.3</ele>
        <time>2023-08-12T15:03:16Z</time>
      </trkpt>
      <trkpt lat="48.04092" lon="7.1324">
        <ele>390</ele>
        <time>2023-08-12T15:03:19Z</time>
      </trkpt>
      <trkpt lat="48.04088" lon="7.13241">
        <ele>389.9</ele>
        <time>2023-08-12T15:03:20Z</time>
      </trkpt>
      <trkpt lat="48.04074" lon="7.13243">
        <ele>389.5</ele>
        <time>2023-08-12T15:03:24Z</time>
      </trkpt>
      <trkpt lat="48.04058" lon="7.13244">
        <ele>389</ele>
        <time>2023-08-12T15:03:28Z</time>
      </trkpt>
      <trkpt lat="48.04046" lon="7.13247">
        <ele>388.6</ele>
        <time>2023-08-12T15:03:31Z</time>
      </trkpt>
      <trkpt lat="48.04025" lon="7.13247">
        <ele>388.2</ele>
        <time>2023-08-12T15:03:36Z</time>
      </trkpt>
      <trkpt lat="48.0402" lon="7.13248">
        <ele>388.1</ele>
        <time>2023-08-12T15:03:37Z</time>
      </trkpt>
      <trkpt lat="48.04" lon="7.1325">
        <ele>387.9</ele>
        <time>2023-08-12T15:03:42Z</time>
      </trkpt>
      <trkpt lat="48.03997" lon="7.13251">
        <ele>387.9</ele>
        <time>2023-08-12T15:03:43Z</time>
      </trkpt>
      <trkpt lat="48.03993" lon="7.13252">
        <ele>387.9</ele>
        <time>2023-08-12T15:03:44Z</time>
      </trkpt>
      <trkpt lat="48.03991" lon="7.13252">
        <ele>387.9</ele>
        <time>2023-08-12T15:03:45Z</time>
      </trkpt>
      <trkpt lat="48.03989" lon="7.13251">
        <ele>387.9</ele>
        <time>2023-08-12T15:03:46Z</time>
      </trkpt>
      <trkpt lat="48.03988" lon="7.13251">
        <ele>387.9</ele>
        <time>2023-08-12T15:03:47Z</time>
      </trkpt>
      <trkpt lat="48.03987" lon="7.13251">
        <ele>387.9</ele>
        <time>2023-08-12T15:03:48Z</time>
      </trkpt>
      <trkpt lat="48.03987" lon="7.13251">
        <ele>387.9</ele>
        <time>2023-08-12T15:03:49Z</time>
      </trkpt>
      <trkpt lat="48.03987" lon="7.13251">
        <ele>387.9</ele>
        <time>2023-08-12T15:03:52Z</time>
      </trkpt>
      <trkpt lat="48.03986" lon="7.13251">
        <ele>387.9</ele>
        <time>2023-08-12T15:03:55Z</time>
      </trkpt>
      <trkpt lat="48.03985" lon="7.13251">
        <ele>387.9</ele>
        <time>2023-08-12T15:03:56Z</time>
      </trkpt>
      <trkpt lat="48.03981" lon="7.13256">
        <ele>387.7</ele>
        <time>2023-08-12T15:03:58Z</time>
      </trkpt>
      <trkpt lat="48.03979" lon="7.13259">
        <ele>387.6</ele>
        <time>2023-08-12T15:03:59Z</time>
      </trkpt>
      <trkpt lat="48.03977" lon="7.13263">
        <ele>387.5</ele>
        <time>2023-08-12T15:04:00Z</time>
      </trkpt>
      <trkpt lat="48.03975" lon="7.13267">
        <ele>387.4</ele>
        <time>2023-08-12T15:04:01Z</time>
      </trkpt>
      <trkpt lat="48.0397" lon="7.13273">
        <ele>387.1</ele>
        <time>2023-08-12T15:04:03Z</time>
      </trkpt>
      <trkpt lat="48.03967" lon="7.13277">
        <ele>387</ele>
        <time>2023-08-12T15:04:04Z</time>
      </trkpt>
      <trkpt lat="48.03964" lon="7.13281">
        <ele>386.8</ele>
        <time>2023-08-12T15:04:05Z</time>
      </trkpt>
      <trkpt lat="48.03953" lon="7.13297">
        <ele>386.2</ele>
        <time>2023-08-12T15:04:09Z</time>
      </trkpt>
      <trkpt lat="48.03943" lon="7.13308">
        <ele>385.8</ele>
        <time>2023-08-12T15:04:12Z</time>
      </trkpt>
      <trkpt lat="48.03931" lon="7.13315">
        <ele>385.3</ele>
        <time>2023-08-12T15:04:15Z</time>
      </trkpt>
      <trkpt lat="48.03927" lon="7.13317">
        <ele>385.2</ele>
        <time>2023-08-12T15:04:16Z</time>
      </trkpt>
      <trkpt lat="48.03915" lon="7.13323">
        <ele>385.2</ele>
        <time>2023-08-12T15:04:19Z</time>
      </trkpt>
      <trkpt lat="48.03912" lon="7.13327">
        <ele>385.2</ele>
        <time>2023-08-12T15:04:20Z</time>
      </trkpt>
      <trkpt lat="48.0391" lon="7.13332">
        <ele>385.2</ele>
        <time>2023-08-12T15:04:21Z</time>
      </trkpt>
      <trkpt lat="48.03907" lon="7.13338">
        <ele>385</ele>
        <time>2023-08-12T15:04:22Z</time>
      </trkpt>
      <trkpt lat="48.03905" lon="7.13343">
        <ele>384.9</ele>
        <time>2023-08-12T15:04:23Z</time>
      </trkpt>
      <trkpt lat="48.03895" lon="7.13356">
        <ele>384.5</ele>
        <time>2023-08-12T15:04:26Z</time>
      </trkpt>
      <trkpt lat="48.03892" lon="7.1336">
        <ele>384.4</ele>
        <time>2023-08-12T15:04:27Z</time>
      </trkpt>
      <trkpt lat="48.03889" lon="7.13366">
        <ele>384.3</ele>
        <time>2023-08-12T15:04:28Z</time>
      </trkpt>
      <trkpt lat="48.03876" lon="7.13382">
        <ele>384</ele>
        <time>2023-08-12T15:04:32Z</time>
      </trkpt>
    </trkseg>
  </trk>
</gpx>